<?xml version="1.0" encoding="UTF-8"?>
<gpx version="1.1" creator="https://www.youtrack.es" xsi:schemaLocation="http://www.topografix.com/GPX/1/1 http://www.topografix.com/GPX/1/1/gpx.xsd http://www.garmin.com/xmlschemas/GpxExtensions/v3 http://www.garmin.com/xmlschemas/GpxExtensionsv3.xsd http://www.garmin.com/xmlschemas/TrackPointExtension/v1 http://www.garmin.com/xmlschemas/TrackPointExtensionv1.xsd" xmlns:gpxtpx="http://www.garmin.com/xmlschemas/TrackPointExtension/v1" xmlns:gpxx="http://www.garmin.com/xmlschemas/GpxExtensions/v3" xmlns:xsi="http://www.w3.org/2001/XMLSchema-instance">
  <metadata>
    <link href="https://www.youtrack.es">
      <text>YouTrack.es</text>
    </link>
    <time>2026-05-08T00:58:19Z</time>
  </metadata>
  <trk>
    <src>https://www.youtrack.es</src>
    <link href="https://www.youtrack.es/ruta/15315-danielnox">
      <text>YouTrack.es</text>
    </link>
    <trkseg>
      <trkpt lat="41.65643667" lon="-4.73884833">
        <ele>746.0</ele>
        <time>2020-07-19T09:19:40.000Z</time>
      </trkpt>
      <trkpt lat="41.65643" lon="-4.73885">
        <ele>745.0</ele>
        <time>2020-07-19T09:19:41.000Z</time>
      </trkpt>
      <trkpt lat="41.65642" lon="-4.73885333">
        <ele>746.0</ele>
        <time>2020-07-19T09:19:42.000Z</time>
      </trkpt>
      <trkpt lat="41.65640833" lon="-4.738865">
        <ele>746.0</ele>
        <time>2020-07-19T09:19:43.000Z</time>
      </trkpt>
      <trkpt lat="41.65639833" lon="-4.73888">
        <ele>747.0</ele>
        <time>2020-07-19T09:19:44.000Z</time>
      </trkpt>
      <trkpt lat="41.65639" lon="-4.738895">
        <ele>747.0</ele>
        <time>2020-07-19T09:19:45.000Z</time>
      </trkpt>
      <trkpt lat="41.656385" lon="-4.73891333">
        <ele>747.0</ele>
        <time>2020-07-19T09:19:46.000Z</time>
      </trkpt>
      <trkpt lat="41.656385" lon="-4.73893333">
        <ele>748.0</ele>
        <time>2020-07-19T09:19:47.000Z</time>
      </trkpt>
      <trkpt lat="41.65638833" lon="-4.73895833">
        <ele>748.0</ele>
        <time>2020-07-19T09:19:48.000Z</time>
      </trkpt>
      <trkpt lat="41.656395" lon="-4.73899167">
        <ele>748.0</ele>
        <time>2020-07-19T09:19:49.000Z</time>
      </trkpt>
      <trkpt lat="41.65639833" lon="-4.73903167">
        <ele>749.0</ele>
        <time>2020-07-19T09:19:50.000Z</time>
      </trkpt>
      <trkpt lat="41.65640833" lon="-4.73906167">
        <ele>750.0</ele>
        <time>2020-07-19T09:19:51.000Z</time>
      </trkpt>
      <trkpt lat="41.65642333" lon="-4.73909">
        <ele>750.0</ele>
        <time>2020-07-19T09:19:52.000Z</time>
      </trkpt>
      <trkpt lat="41.656435" lon="-4.73911667">
        <ele>750.0</ele>
        <time>2020-07-19T09:19:53.000Z</time>
      </trkpt>
      <trkpt lat="41.65644833" lon="-4.73914667">
        <ele>750.0</ele>
        <time>2020-07-19T09:19:54.000Z</time>
      </trkpt>
      <trkpt lat="41.65646333" lon="-4.73918">
        <ele>751.0</ele>
        <time>2020-07-19T09:19:55.000Z</time>
      </trkpt>
      <trkpt lat="41.656475" lon="-4.73921667">
        <ele>751.0</ele>
        <time>2020-07-19T09:19:56.000Z</time>
      </trkpt>
      <trkpt lat="41.65648667" lon="-4.73925667">
        <ele>752.0</ele>
        <time>2020-07-19T09:19:57.000Z</time>
      </trkpt>
      <trkpt lat="41.65649833" lon="-4.739295">
        <ele>752.0</ele>
        <time>2020-07-19T09:19:58.000Z</time>
      </trkpt>
      <trkpt lat="41.65650667" lon="-4.73933333">
        <ele>753.0</ele>
        <time>2020-07-19T09:19:59.000Z</time>
      </trkpt>
      <trkpt lat="41.65652" lon="-4.73937833">
        <ele>754.0</ele>
        <time>2020-07-19T09:20:00.000Z</time>
      </trkpt>
      <trkpt lat="41.65653" lon="-4.73942833">
        <ele>754.0</ele>
        <time>2020-07-19T09:20:01.000Z</time>
      </trkpt>
      <trkpt lat="41.65654333" lon="-4.739475">
        <ele>755.0</ele>
        <time>2020-07-19T09:20:02.000Z</time>
      </trkpt>
      <trkpt lat="41.65655" lon="-4.73951833">
        <ele>755.0</ele>
        <time>2020-07-19T09:20:03.000Z</time>
      </trkpt>
      <trkpt lat="41.65655833" lon="-4.73956">
        <ele>756.0</ele>
        <time>2020-07-19T09:20:04.000Z</time>
      </trkpt>
      <trkpt lat="41.65657" lon="-4.73960333">
        <ele>757.0</ele>
        <time>2020-07-19T09:20:05.000Z</time>
      </trkpt>
      <trkpt lat="41.65658" lon="-4.739645">
        <ele>757.0</ele>
        <time>2020-07-19T09:20:06.000Z</time>
      </trkpt>
      <trkpt lat="41.65659167" lon="-4.73968833">
        <ele>758.0</ele>
        <time>2020-07-19T09:20:07.000Z</time>
      </trkpt>
      <trkpt lat="41.65660167" lon="-4.73973667">
        <ele>758.0</ele>
        <time>2020-07-19T09:20:08.000Z</time>
      </trkpt>
      <trkpt lat="41.65661833" lon="-4.73978333">
        <ele>758.0</ele>
        <time>2020-07-19T09:20:09.000Z</time>
      </trkpt>
      <trkpt lat="41.65663167" lon="-4.73983">
        <ele>759.0</ele>
        <time>2020-07-19T09:20:10.000Z</time>
      </trkpt>
      <trkpt lat="41.656645" lon="-4.73987667">
        <ele>759.0</ele>
        <time>2020-07-19T09:20:11.000Z</time>
      </trkpt>
      <trkpt lat="41.65666" lon="-4.739925">
        <ele>760.0</ele>
        <time>2020-07-19T09:20:12.000Z</time>
      </trkpt>
      <trkpt lat="41.65667667" lon="-4.73997667">
        <ele>760.0</ele>
        <time>2020-07-19T09:20:13.000Z</time>
      </trkpt>
      <trkpt lat="41.65669" lon="-4.74002667">
        <ele>762.0</ele>
        <time>2020-07-19T09:20:14.000Z</time>
      </trkpt>
      <trkpt lat="41.65669667" lon="-4.74007833">
        <ele>762.0</ele>
        <time>2020-07-19T09:20:15.000Z</time>
      </trkpt>
      <trkpt lat="41.65670167" lon="-4.74013667">
        <ele>766.0</ele>
        <time>2020-07-19T09:20:16.000Z</time>
      </trkpt>
      <trkpt lat="41.656715" lon="-4.74018333">
        <ele>768.0</ele>
        <time>2020-07-19T09:20:17.000Z</time>
      </trkpt>
      <trkpt lat="41.65673333" lon="-4.740215">
        <ele>769.0</ele>
        <time>2020-07-19T09:20:18.000Z</time>
      </trkpt>
      <trkpt lat="41.65674333" lon="-4.74024167">
        <ele>770.0</ele>
        <time>2020-07-19T09:20:19.000Z</time>
      </trkpt>
      <trkpt lat="41.656755" lon="-4.74028">
        <ele>771.0</ele>
        <time>2020-07-19T09:20:20.000Z</time>
      </trkpt>
      <trkpt lat="41.65676" lon="-4.74032333">
        <ele>772.0</ele>
        <time>2020-07-19T09:20:21.000Z</time>
      </trkpt>
      <trkpt lat="41.65676333" lon="-4.74037">
        <ele>774.0</ele>
        <time>2020-07-19T09:20:22.000Z</time>
      </trkpt>
      <trkpt lat="41.65676833" lon="-4.74041667">
        <ele>775.0</ele>
        <time>2020-07-19T09:20:23.000Z</time>
      </trkpt>
      <trkpt lat="41.656785" lon="-4.74044833">
        <ele>775.0</ele>
        <time>2020-07-19T09:20:24.000Z</time>
      </trkpt>
      <trkpt lat="41.65680167" lon="-4.74048333">
        <ele>775.0</ele>
        <time>2020-07-19T09:20:25.000Z</time>
      </trkpt>
      <trkpt lat="41.65682167" lon="-4.740515">
        <ele>776.0</ele>
        <time>2020-07-19T09:20:26.000Z</time>
      </trkpt>
      <trkpt lat="41.65684833" lon="-4.74054333">
        <ele>776.0</ele>
        <time>2020-07-19T09:20:27.000Z</time>
      </trkpt>
      <trkpt lat="41.65687667" lon="-4.74057167">
        <ele>776.0</ele>
        <time>2020-07-19T09:20:28.000Z</time>
      </trkpt>
      <trkpt lat="41.65690833" lon="-4.74059167">
        <ele>776.0</ele>
        <time>2020-07-19T09:20:29.000Z</time>
      </trkpt>
      <trkpt lat="41.656945" lon="-4.74060333">
        <ele>776.0</ele>
        <time>2020-07-19T09:20:30.000Z</time>
      </trkpt>
      <trkpt lat="41.65699167" lon="-4.74060833">
        <ele>776.0</ele>
        <time>2020-07-19T09:20:31.000Z</time>
      </trkpt>
      <trkpt lat="41.657045" lon="-4.74060333">
        <ele>776.0</ele>
        <time>2020-07-19T09:20:32.000Z</time>
      </trkpt>
      <trkpt lat="41.65710833" lon="-4.74059333">
        <ele>776.0</ele>
        <time>2020-07-19T09:20:33.000Z</time>
      </trkpt>
      <trkpt lat="41.65716833" lon="-4.74058667">
        <ele>776.0</ele>
        <time>2020-07-19T09:20:34.000Z</time>
      </trkpt>
      <trkpt lat="41.657225" lon="-4.74058167">
        <ele>776.0</ele>
        <time>2020-07-19T09:20:35.000Z</time>
      </trkpt>
      <trkpt lat="41.65728333" lon="-4.74057333">
        <ele>777.0</ele>
        <time>2020-07-19T09:20:36.000Z</time>
      </trkpt>
      <trkpt lat="41.65733833" lon="-4.74056667">
        <ele>776.0</ele>
        <time>2020-07-19T09:20:37.000Z</time>
      </trkpt>
      <trkpt lat="41.657395" lon="-4.740565">
        <ele>777.0</ele>
        <time>2020-07-19T09:20:38.000Z</time>
      </trkpt>
      <trkpt lat="41.65744667" lon="-4.740565">
        <ele>777.0</ele>
        <time>2020-07-19T09:20:39.000Z</time>
      </trkpt>
      <trkpt lat="41.65750167" lon="-4.74056167">
        <ele>777.0</ele>
        <time>2020-07-19T09:20:40.000Z</time>
      </trkpt>
      <trkpt lat="41.65755333" lon="-4.74056667">
        <ele>777.0</ele>
        <time>2020-07-19T09:20:41.000Z</time>
      </trkpt>
      <trkpt lat="41.65760667" lon="-4.74056833">
        <ele>777.0</ele>
        <time>2020-07-19T09:20:42.000Z</time>
      </trkpt>
      <trkpt lat="41.65765833" lon="-4.74056833">
        <ele>777.0</ele>
        <time>2020-07-19T09:20:43.000Z</time>
      </trkpt>
      <trkpt lat="41.65771" lon="-4.74056667">
        <ele>777.0</ele>
        <time>2020-07-19T09:20:44.000Z</time>
      </trkpt>
      <trkpt lat="41.65776" lon="-4.74056167">
        <ele>777.0</ele>
        <time>2020-07-19T09:20:45.000Z</time>
      </trkpt>
      <trkpt lat="41.65780833" lon="-4.74055833">
        <ele>777.0</ele>
        <time>2020-07-19T09:20:46.000Z</time>
      </trkpt>
      <trkpt lat="41.657855" lon="-4.74055167">
        <ele>777.0</ele>
        <time>2020-07-19T09:20:47.000Z</time>
      </trkpt>
      <trkpt lat="41.657905" lon="-4.74054833">
        <ele>777.0</ele>
        <time>2020-07-19T09:20:48.000Z</time>
      </trkpt>
      <trkpt lat="41.657955" lon="-4.74054333">
        <ele>777.0</ele>
        <time>2020-07-19T09:20:49.000Z</time>
      </trkpt>
      <trkpt lat="41.65800333" lon="-4.74054">
        <ele>777.0</ele>
        <time>2020-07-19T09:20:50.000Z</time>
      </trkpt>
      <trkpt lat="41.65805333" lon="-4.74053167">
        <ele>777.0</ele>
        <time>2020-07-19T09:20:51.000Z</time>
      </trkpt>
      <trkpt lat="41.65816833" lon="-4.74044333">
        <ele>773.0</ele>
        <time>2020-07-19T09:20:52.000Z</time>
      </trkpt>
      <trkpt lat="41.65825167" lon="-4.74039167">
        <ele>771.0</ele>
        <time>2020-07-19T09:20:53.000Z</time>
      </trkpt>
      <trkpt lat="41.65832667" lon="-4.74035667">
        <ele>771.0</ele>
        <time>2020-07-19T09:20:54.000Z</time>
      </trkpt>
      <trkpt lat="41.65839167" lon="-4.74033">
        <ele>769.0</ele>
        <time>2020-07-19T09:20:55.000Z</time>
      </trkpt>
      <trkpt lat="41.65845" lon="-4.74031">
        <ele>768.0</ele>
        <time>2020-07-19T09:20:56.000Z</time>
      </trkpt>
      <trkpt lat="41.65850667" lon="-4.74029667">
        <ele>767.0</ele>
        <time>2020-07-19T09:20:57.000Z</time>
      </trkpt>
      <trkpt lat="41.65856333" lon="-4.740285">
        <ele>766.0</ele>
        <time>2020-07-19T09:20:58.000Z</time>
      </trkpt>
      <trkpt lat="41.65861667" lon="-4.74027333">
        <ele>766.0</ele>
        <time>2020-07-19T09:20:59.000Z</time>
      </trkpt>
      <trkpt lat="41.65866667" lon="-4.740265">
        <ele>765.0</ele>
        <time>2020-07-19T09:21:00.000Z</time>
      </trkpt>
      <trkpt lat="41.65871833" lon="-4.74025833">
        <ele>765.0</ele>
        <time>2020-07-19T09:21:01.000Z</time>
      </trkpt>
      <trkpt lat="41.65876833" lon="-4.74025167">
        <ele>765.0</ele>
        <time>2020-07-19T09:21:02.000Z</time>
      </trkpt>
      <trkpt lat="41.65881833" lon="-4.74024667">
        <ele>764.0</ele>
        <time>2020-07-19T09:21:03.000Z</time>
      </trkpt>
      <trkpt lat="41.65886667" lon="-4.74024167">
        <ele>764.0</ele>
        <time>2020-07-19T09:21:04.000Z</time>
      </trkpt>
      <trkpt lat="41.658915" lon="-4.74023833">
        <ele>764.0</ele>
        <time>2020-07-19T09:21:05.000Z</time>
      </trkpt>
      <trkpt lat="41.65896333" lon="-4.740235">
        <ele>764.0</ele>
        <time>2020-07-19T09:21:06.000Z</time>
      </trkpt>
      <trkpt lat="41.65901" lon="-4.740235">
        <ele>764.0</ele>
        <time>2020-07-19T09:21:07.000Z</time>
      </trkpt>
      <trkpt lat="41.65905833" lon="-4.74023167">
        <ele>765.0</ele>
        <time>2020-07-19T09:21:08.000Z</time>
      </trkpt>
      <trkpt lat="41.659105" lon="-4.74023">
        <ele>765.0</ele>
        <time>2020-07-19T09:21:09.000Z</time>
      </trkpt>
      <trkpt lat="41.65915167" lon="-4.74022667">
        <ele>765.0</ele>
        <time>2020-07-19T09:21:10.000Z</time>
      </trkpt>
      <trkpt lat="41.65919667" lon="-4.74022167">
        <ele>765.0</ele>
        <time>2020-07-19T09:21:11.000Z</time>
      </trkpt>
      <trkpt lat="41.65924333" lon="-4.74021833">
        <ele>765.0</ele>
        <time>2020-07-19T09:21:12.000Z</time>
      </trkpt>
      <trkpt lat="41.65929" lon="-4.74021667">
        <ele>764.0</ele>
        <time>2020-07-19T09:21:13.000Z</time>
      </trkpt>
      <trkpt lat="41.659335" lon="-4.74021167">
        <ele>763.0</ele>
        <time>2020-07-19T09:21:14.000Z</time>
      </trkpt>
      <trkpt lat="41.65938" lon="-4.74020833">
        <ele>763.0</ele>
        <time>2020-07-19T09:21:15.000Z</time>
      </trkpt>
      <trkpt lat="41.65943" lon="-4.740205">
        <ele>763.0</ele>
        <time>2020-07-19T09:21:16.000Z</time>
      </trkpt>
      <trkpt lat="41.65947667" lon="-4.7402">
        <ele>763.0</ele>
        <time>2020-07-19T09:21:17.000Z</time>
      </trkpt>
      <trkpt lat="41.659525" lon="-4.74019667">
        <ele>763.0</ele>
        <time>2020-07-19T09:21:18.000Z</time>
      </trkpt>
      <trkpt lat="41.65957167" lon="-4.74019667">
        <ele>763.0</ele>
        <time>2020-07-19T09:21:19.000Z</time>
      </trkpt>
      <trkpt lat="41.65961833" lon="-4.74019667">
        <ele>763.0</ele>
        <time>2020-07-19T09:21:20.000Z</time>
      </trkpt>
      <trkpt lat="41.65966" lon="-4.74019333">
        <ele>763.0</ele>
        <time>2020-07-19T09:21:21.000Z</time>
      </trkpt>
      <trkpt lat="41.65970333" lon="-4.74019333">
        <ele>763.0</ele>
        <time>2020-07-19T09:21:22.000Z</time>
      </trkpt>
      <trkpt lat="41.659745" lon="-4.74019">
        <ele>763.0</ele>
        <time>2020-07-19T09:21:23.000Z</time>
      </trkpt>
      <trkpt lat="41.65978333" lon="-4.74018667">
        <ele>763.0</ele>
        <time>2020-07-19T09:21:24.000Z</time>
      </trkpt>
      <trkpt lat="41.65982333" lon="-4.74018333">
        <ele>763.0</ele>
        <time>2020-07-19T09:21:25.000Z</time>
      </trkpt>
      <trkpt lat="41.65985833" lon="-4.74018167">
        <ele>764.0</ele>
        <time>2020-07-19T09:21:26.000Z</time>
      </trkpt>
      <trkpt lat="41.65989" lon="-4.74018333">
        <ele>764.0</ele>
        <time>2020-07-19T09:21:27.000Z</time>
      </trkpt>
      <trkpt lat="41.65992" lon="-4.74018833">
        <ele>764.0</ele>
        <time>2020-07-19T09:21:28.000Z</time>
      </trkpt>
      <trkpt lat="41.65994833" lon="-4.740195">
        <ele>764.0</ele>
        <time>2020-07-19T09:21:29.000Z</time>
      </trkpt>
      <trkpt lat="41.65998" lon="-4.74020833">
        <ele>764.0</ele>
        <time>2020-07-19T09:21:30.000Z</time>
      </trkpt>
      <trkpt lat="41.66001333" lon="-4.74022667">
        <ele>763.0</ele>
        <time>2020-07-19T09:21:31.000Z</time>
      </trkpt>
      <trkpt lat="41.66004" lon="-4.74025333">
        <ele>763.0</ele>
        <time>2020-07-19T09:21:32.000Z</time>
      </trkpt>
      <trkpt lat="41.66006833" lon="-4.740285">
        <ele>763.0</ele>
        <time>2020-07-19T09:21:33.000Z</time>
      </trkpt>
      <trkpt lat="41.660085" lon="-4.74032667">
        <ele>763.0</ele>
        <time>2020-07-19T09:21:34.000Z</time>
      </trkpt>
      <trkpt lat="41.66009333" lon="-4.74038333">
        <ele>763.0</ele>
        <time>2020-07-19T09:21:35.000Z</time>
      </trkpt>
      <trkpt lat="41.66010167" lon="-4.74044167">
        <ele>763.0</ele>
        <time>2020-07-19T09:21:36.000Z</time>
      </trkpt>
      <trkpt lat="41.66010167" lon="-4.74051">
        <ele>763.0</ele>
        <time>2020-07-19T09:21:37.000Z</time>
      </trkpt>
      <trkpt lat="41.66010667" lon="-4.74057333">
        <ele>763.0</ele>
        <time>2020-07-19T09:21:38.000Z</time>
      </trkpt>
      <trkpt lat="41.660105" lon="-4.74064">
        <ele>763.0</ele>
        <time>2020-07-19T09:21:39.000Z</time>
      </trkpt>
      <trkpt lat="41.66010667" lon="-4.74069833">
        <ele>763.0</ele>
        <time>2020-07-19T09:21:40.000Z</time>
      </trkpt>
      <trkpt lat="41.66010833" lon="-4.74075667">
        <ele>763.0</ele>
        <time>2020-07-19T09:21:41.000Z</time>
      </trkpt>
      <trkpt lat="41.66010667" lon="-4.74081667">
        <ele>763.0</ele>
        <time>2020-07-19T09:21:42.000Z</time>
      </trkpt>
      <trkpt lat="41.66010167" lon="-4.74088">
        <ele>763.0</ele>
        <time>2020-07-19T09:21:43.000Z</time>
      </trkpt>
      <trkpt lat="41.6601" lon="-4.74093833">
        <ele>763.0</ele>
        <time>2020-07-19T09:21:44.000Z</time>
      </trkpt>
      <trkpt lat="41.66010167" lon="-4.74099333">
        <ele>764.0</ele>
        <time>2020-07-19T09:21:45.000Z</time>
      </trkpt>
      <trkpt lat="41.66010333" lon="-4.741045">
        <ele>764.0</ele>
        <time>2020-07-19T09:21:46.000Z</time>
      </trkpt>
      <trkpt lat="41.66010833" lon="-4.741095">
        <ele>765.0</ele>
        <time>2020-07-19T09:21:47.000Z</time>
      </trkpt>
      <trkpt lat="41.66011667" lon="-4.741145">
        <ele>765.0</ele>
        <time>2020-07-19T09:21:48.000Z</time>
      </trkpt>
      <trkpt lat="41.66012333" lon="-4.74118833">
        <ele>765.0</ele>
        <time>2020-07-19T09:21:49.000Z</time>
      </trkpt>
      <trkpt lat="41.66012833" lon="-4.74123">
        <ele>765.0</ele>
        <time>2020-07-19T09:21:50.000Z</time>
      </trkpt>
      <trkpt lat="41.66013333" lon="-4.74127333">
        <ele>765.0</ele>
        <time>2020-07-19T09:21:51.000Z</time>
      </trkpt>
      <trkpt lat="41.66013833" lon="-4.74131167">
        <ele>765.0</ele>
        <time>2020-07-19T09:21:52.000Z</time>
      </trkpt>
      <trkpt lat="41.66014667" lon="-4.74135">
        <ele>765.0</ele>
        <time>2020-07-19T09:21:53.000Z</time>
      </trkpt>
      <trkpt lat="41.66015167" lon="-4.741395">
        <ele>765.0</ele>
        <time>2020-07-19T09:21:54.000Z</time>
      </trkpt>
      <trkpt lat="41.660155" lon="-4.74144333">
        <ele>765.0</ele>
        <time>2020-07-19T09:21:55.000Z</time>
      </trkpt>
      <trkpt lat="41.66016833" lon="-4.74148833">
        <ele>764.0</ele>
        <time>2020-07-19T09:21:56.000Z</time>
      </trkpt>
      <trkpt lat="41.66018333" lon="-4.74153">
        <ele>764.0</ele>
        <time>2020-07-19T09:21:57.000Z</time>
      </trkpt>
      <trkpt lat="41.660205" lon="-4.74156833">
        <ele>764.0</ele>
        <time>2020-07-19T09:21:58.000Z</time>
      </trkpt>
      <trkpt lat="41.66022667" lon="-4.74160667">
        <ele>764.0</ele>
        <time>2020-07-19T09:21:59.000Z</time>
      </trkpt>
      <trkpt lat="41.66025167" lon="-4.74164">
        <ele>764.0</ele>
        <time>2020-07-19T09:22:00.000Z</time>
      </trkpt>
      <trkpt lat="41.66027667" lon="-4.74167">
        <ele>764.0</ele>
        <time>2020-07-19T09:22:01.000Z</time>
      </trkpt>
      <trkpt lat="41.660305" lon="-4.741695">
        <ele>764.0</ele>
        <time>2020-07-19T09:22:02.000Z</time>
      </trkpt>
      <trkpt lat="41.66033667" lon="-4.74171167">
        <ele>764.0</ele>
        <time>2020-07-19T09:22:03.000Z</time>
      </trkpt>
      <trkpt lat="41.660375" lon="-4.74171833">
        <ele>765.0</ele>
        <time>2020-07-19T09:22:04.000Z</time>
      </trkpt>
      <trkpt lat="41.66041167" lon="-4.74172167">
        <ele>765.0</ele>
        <time>2020-07-19T09:22:05.000Z</time>
      </trkpt>
      <trkpt lat="41.660445" lon="-4.74173">
        <ele>765.0</ele>
        <time>2020-07-19T09:22:06.000Z</time>
      </trkpt>
      <trkpt lat="41.66047667" lon="-4.74174333">
        <ele>765.0</ele>
        <time>2020-07-19T09:22:07.000Z</time>
      </trkpt>
      <trkpt lat="41.66050167" lon="-4.74175833">
        <ele>765.0</ele>
        <time>2020-07-19T09:22:08.000Z</time>
      </trkpt>
      <trkpt lat="41.66052833" lon="-4.74178">
        <ele>765.0</ele>
        <time>2020-07-19T09:22:09.000Z</time>
      </trkpt>
      <trkpt lat="41.660555" lon="-4.741805">
        <ele>765.0</ele>
        <time>2020-07-19T09:22:10.000Z</time>
      </trkpt>
      <trkpt lat="41.66058333" lon="-4.74183">
        <ele>767.0</ele>
        <time>2020-07-19T09:22:11.000Z</time>
      </trkpt>
      <trkpt lat="41.66060833" lon="-4.74185167">
        <ele>767.0</ele>
        <time>2020-07-19T09:22:12.000Z</time>
      </trkpt>
      <trkpt lat="41.660635" lon="-4.74188333">
        <ele>767.0</ele>
        <time>2020-07-19T09:22:13.000Z</time>
      </trkpt>
      <trkpt lat="41.66065667" lon="-4.74192">
        <ele>768.0</ele>
        <time>2020-07-19T09:22:14.000Z</time>
      </trkpt>
      <trkpt lat="41.66067833" lon="-4.74195667">
        <ele>768.0</ele>
        <time>2020-07-19T09:22:15.000Z</time>
      </trkpt>
      <trkpt lat="41.6607" lon="-4.741995">
        <ele>768.0</ele>
        <time>2020-07-19T09:22:16.000Z</time>
      </trkpt>
      <trkpt lat="41.66071667" lon="-4.74203667">
        <ele>768.0</ele>
        <time>2020-07-19T09:22:17.000Z</time>
      </trkpt>
      <trkpt lat="41.66073" lon="-4.74208">
        <ele>768.0</ele>
        <time>2020-07-19T09:22:18.000Z</time>
      </trkpt>
      <trkpt lat="41.66074" lon="-4.742125">
        <ele>768.0</ele>
        <time>2020-07-19T09:22:19.000Z</time>
      </trkpt>
      <trkpt lat="41.66074833" lon="-4.74217333">
        <ele>768.0</ele>
        <time>2020-07-19T09:22:20.000Z</time>
      </trkpt>
      <trkpt lat="41.66075333" lon="-4.74222333">
        <ele>770.0</ele>
        <time>2020-07-19T09:22:21.000Z</time>
      </trkpt>
      <trkpt lat="41.66075667" lon="-4.742275">
        <ele>770.0</ele>
        <time>2020-07-19T09:22:22.000Z</time>
      </trkpt>
      <trkpt lat="41.66076167" lon="-4.74232833">
        <ele>770.0</ele>
        <time>2020-07-19T09:22:23.000Z</time>
      </trkpt>
      <trkpt lat="41.66076333" lon="-4.74238333">
        <ele>770.0</ele>
        <time>2020-07-19T09:22:24.000Z</time>
      </trkpt>
      <trkpt lat="41.66076667" lon="-4.74244">
        <ele>770.0</ele>
        <time>2020-07-19T09:22:25.000Z</time>
      </trkpt>
      <trkpt lat="41.66077167" lon="-4.742495">
        <ele>771.0</ele>
        <time>2020-07-19T09:22:26.000Z</time>
      </trkpt>
      <trkpt lat="41.66077333" lon="-4.74255333">
        <ele>771.0</ele>
        <time>2020-07-19T09:22:27.000Z</time>
      </trkpt>
      <trkpt lat="41.66077833" lon="-4.74261">
        <ele>771.0</ele>
        <time>2020-07-19T09:22:28.000Z</time>
      </trkpt>
      <trkpt lat="41.66081" lon="-4.74270667">
        <ele>771.0</ele>
        <time>2020-07-19T09:22:29.000Z</time>
      </trkpt>
      <trkpt lat="41.66084167" lon="-4.74279667">
        <ele>764.0</ele>
        <time>2020-07-19T09:22:30.000Z</time>
      </trkpt>
      <trkpt lat="41.66087333" lon="-4.74288833">
        <ele>760.0</ele>
        <time>2020-07-19T09:22:31.000Z</time>
      </trkpt>
      <trkpt lat="41.66091833" lon="-4.743">
        <ele>754.0</ele>
        <time>2020-07-19T09:22:32.000Z</time>
      </trkpt>
      <trkpt lat="41.66096167" lon="-4.74310833">
        <ele>749.0</ele>
        <time>2020-07-19T09:22:33.000Z</time>
      </trkpt>
      <trkpt lat="41.661" lon="-4.74321167">
        <ele>744.0</ele>
        <time>2020-07-19T09:22:34.000Z</time>
      </trkpt>
      <trkpt lat="41.66103833" lon="-4.74330667">
        <ele>740.0</ele>
        <time>2020-07-19T09:22:35.000Z</time>
      </trkpt>
      <trkpt lat="41.66107333" lon="-4.74339167">
        <ele>740.0</ele>
        <time>2020-07-19T09:22:36.000Z</time>
      </trkpt>
      <trkpt lat="41.66110833" lon="-4.74347167">
        <ele>740.0</ele>
        <time>2020-07-19T09:22:37.000Z</time>
      </trkpt>
      <trkpt lat="41.66114" lon="-4.743545">
        <ele>740.0</ele>
        <time>2020-07-19T09:22:38.000Z</time>
      </trkpt>
      <trkpt lat="41.66116833" lon="-4.74361667">
        <ele>740.0</ele>
        <time>2020-07-19T09:22:39.000Z</time>
      </trkpt>
      <trkpt lat="41.66119667" lon="-4.74368333">
        <ele>727.0</ele>
        <time>2020-07-19T09:22:40.000Z</time>
      </trkpt>
      <trkpt lat="41.66122333" lon="-4.74374333">
        <ele>727.0</ele>
        <time>2020-07-19T09:22:41.000Z</time>
      </trkpt>
      <trkpt lat="41.66125" lon="-4.74380167">
        <ele>724.0</ele>
        <time>2020-07-19T09:22:42.000Z</time>
      </trkpt>
      <trkpt lat="41.66127667" lon="-4.74385833">
        <ele>722.0</ele>
        <time>2020-07-19T09:22:43.000Z</time>
      </trkpt>
      <trkpt lat="41.66130167" lon="-4.74391333">
        <ele>721.0</ele>
        <time>2020-07-19T09:22:44.000Z</time>
      </trkpt>
      <trkpt lat="41.66132667" lon="-4.74396667">
        <ele>720.0</ele>
        <time>2020-07-19T09:22:45.000Z</time>
      </trkpt>
      <trkpt lat="41.66137333" lon="-4.74403">
        <ele>720.0</ele>
        <time>2020-07-19T09:22:46.000Z</time>
      </trkpt>
      <trkpt lat="41.66141" lon="-4.74408833">
        <ele>723.0</ele>
        <time>2020-07-19T09:22:47.000Z</time>
      </trkpt>
      <trkpt lat="41.66143833" lon="-4.74413833">
        <ele>723.0</ele>
        <time>2020-07-19T09:22:48.000Z</time>
      </trkpt>
      <trkpt lat="41.66146333" lon="-4.74417333">
        <ele>723.0</ele>
        <time>2020-07-19T09:22:49.000Z</time>
      </trkpt>
      <trkpt lat="41.661485" lon="-4.7442">
        <ele>723.0</ele>
        <time>2020-07-19T09:22:50.000Z</time>
      </trkpt>
      <trkpt lat="41.66150333" lon="-4.74422">
        <ele>723.0</ele>
        <time>2020-07-19T09:22:51.000Z</time>
      </trkpt>
      <trkpt lat="41.661525" lon="-4.744335">
        <ele>711.0</ele>
        <time>2020-07-19T09:23:55.672Z</time>
      </trkpt>
      <trkpt lat="41.66153833" lon="-4.744355">
        <ele>711.0</ele>
        <time>2020-07-19T09:23:56.672Z</time>
      </trkpt>
      <trkpt lat="41.66155" lon="-4.74438333">
        <ele>710.0</ele>
        <time>2020-07-19T09:23:57.672Z</time>
      </trkpt>
      <trkpt lat="41.66156333" lon="-4.744415">
        <ele>710.0</ele>
        <time>2020-07-19T09:23:58.672Z</time>
      </trkpt>
      <trkpt lat="41.66157833" lon="-4.74445">
        <ele>710.0</ele>
        <time>2020-07-19T09:23:59.672Z</time>
      </trkpt>
      <trkpt lat="41.661595" lon="-4.74448833">
        <ele>710.0</ele>
        <time>2020-07-19T09:24:00.672Z</time>
      </trkpt>
      <trkpt lat="41.66161167" lon="-4.74452667">
        <ele>710.0</ele>
        <time>2020-07-19T09:24:01.672Z</time>
      </trkpt>
      <trkpt lat="41.66162833" lon="-4.744565">
        <ele>710.0</ele>
        <time>2020-07-19T09:24:02.672Z</time>
      </trkpt>
      <trkpt lat="41.66164667" lon="-4.74460833">
        <ele>710.0</ele>
        <time>2020-07-19T09:24:03.672Z</time>
      </trkpt>
      <trkpt lat="41.66166833" lon="-4.74465333">
        <ele>710.0</ele>
        <time>2020-07-19T09:24:04.672Z</time>
      </trkpt>
      <trkpt lat="41.66169" lon="-4.74469667">
        <ele>710.0</ele>
        <time>2020-07-19T09:24:05.672Z</time>
      </trkpt>
      <trkpt lat="41.66171" lon="-4.74474167">
        <ele>710.0</ele>
        <time>2020-07-19T09:24:06.672Z</time>
      </trkpt>
      <trkpt lat="41.66172833" lon="-4.744785">
        <ele>710.0</ele>
        <time>2020-07-19T09:24:07.672Z</time>
      </trkpt>
      <trkpt lat="41.66174667" lon="-4.74483333">
        <ele>710.0</ele>
        <time>2020-07-19T09:24:08.672Z</time>
      </trkpt>
      <trkpt lat="41.66176333" lon="-4.74487833">
        <ele>710.0</ele>
        <time>2020-07-19T09:24:09.672Z</time>
      </trkpt>
      <trkpt lat="41.66178167" lon="-4.74492167">
        <ele>710.0</ele>
        <time>2020-07-19T09:24:10.672Z</time>
      </trkpt>
      <trkpt lat="41.66180333" lon="-4.74496167">
        <ele>710.0</ele>
        <time>2020-07-19T09:24:11.672Z</time>
      </trkpt>
      <trkpt lat="41.66182833" lon="-4.74499833">
        <ele>710.0</ele>
        <time>2020-07-19T09:24:12.672Z</time>
      </trkpt>
      <trkpt lat="41.66185833" lon="-4.74503">
        <ele>710.0</ele>
        <time>2020-07-19T09:24:13.672Z</time>
      </trkpt>
      <trkpt lat="41.66188667" lon="-4.74505833">
        <ele>710.0</ele>
        <time>2020-07-19T09:24:14.672Z</time>
      </trkpt>
      <trkpt lat="41.66191833" lon="-4.74507667">
        <ele>710.0</ele>
        <time>2020-07-19T09:24:15.672Z</time>
      </trkpt>
      <trkpt lat="41.66194833" lon="-4.74509333">
        <ele>710.0</ele>
        <time>2020-07-19T09:24:16.672Z</time>
      </trkpt>
      <trkpt lat="41.66198167" lon="-4.74511">
        <ele>710.0</ele>
        <time>2020-07-19T09:24:17.672Z</time>
      </trkpt>
      <trkpt lat="41.66201167" lon="-4.74512667">
        <ele>710.0</ele>
        <time>2020-07-19T09:24:18.672Z</time>
      </trkpt>
      <trkpt lat="41.66204167" lon="-4.74514333">
        <ele>710.0</ele>
        <time>2020-07-19T09:24:19.672Z</time>
      </trkpt>
      <trkpt lat="41.66207" lon="-4.74515833">
        <ele>710.0</ele>
        <time>2020-07-19T09:24:20.672Z</time>
      </trkpt>
      <trkpt lat="41.66209833" lon="-4.745175">
        <ele>710.0</ele>
        <time>2020-07-19T09:24:21.672Z</time>
      </trkpt>
      <trkpt lat="41.662125" lon="-4.74519">
        <ele>710.0</ele>
        <time>2020-07-19T09:24:22.672Z</time>
      </trkpt>
      <trkpt lat="41.66215167" lon="-4.74520833">
        <ele>710.0</ele>
        <time>2020-07-19T09:24:23.672Z</time>
      </trkpt>
      <trkpt lat="41.66217833" lon="-4.745225">
        <ele>710.0</ele>
        <time>2020-07-19T09:24:24.672Z</time>
      </trkpt>
      <trkpt lat="41.66220333" lon="-4.74524333">
        <ele>710.0</ele>
        <time>2020-07-19T09:24:25.672Z</time>
      </trkpt>
      <trkpt lat="41.66222833" lon="-4.74526">
        <ele>710.0</ele>
        <time>2020-07-19T09:24:26.672Z</time>
      </trkpt>
      <trkpt lat="41.662255" lon="-4.74527667">
        <ele>710.0</ele>
        <time>2020-07-19T09:24:27.672Z</time>
      </trkpt>
      <trkpt lat="41.66228" lon="-4.74529167">
        <ele>710.0</ele>
        <time>2020-07-19T09:24:28.672Z</time>
      </trkpt>
      <trkpt lat="41.66230667" lon="-4.74530667">
        <ele>711.0</ele>
        <time>2020-07-19T09:24:29.672Z</time>
      </trkpt>
      <trkpt lat="41.66233333" lon="-4.74532">
        <ele>711.0</ele>
        <time>2020-07-19T09:24:30.672Z</time>
      </trkpt>
      <trkpt lat="41.66236" lon="-4.745335">
        <ele>711.0</ele>
        <time>2020-07-19T09:24:31.672Z</time>
      </trkpt>
      <trkpt lat="41.66238667" lon="-4.74535167">
        <ele>711.0</ele>
        <time>2020-07-19T09:24:32.672Z</time>
      </trkpt>
      <trkpt lat="41.66241167" lon="-4.74536833">
        <ele>711.0</ele>
        <time>2020-07-19T09:24:33.672Z</time>
      </trkpt>
      <trkpt lat="41.66243667" lon="-4.74538333">
        <ele>711.0</ele>
        <time>2020-07-19T09:24:34.672Z</time>
      </trkpt>
      <trkpt lat="41.66246333" lon="-4.7454">
        <ele>711.0</ele>
        <time>2020-07-19T09:24:35.672Z</time>
      </trkpt>
      <trkpt lat="41.66248833" lon="-4.745415">
        <ele>711.0</ele>
        <time>2020-07-19T09:24:36.672Z</time>
      </trkpt>
      <trkpt lat="41.66251167" lon="-4.74543167">
        <ele>711.0</ele>
        <time>2020-07-19T09:24:37.672Z</time>
      </trkpt>
      <trkpt lat="41.66253833" lon="-4.745445">
        <ele>711.0</ele>
        <time>2020-07-19T09:24:38.672Z</time>
      </trkpt>
      <trkpt lat="41.66256333" lon="-4.74546167">
        <ele>711.0</ele>
        <time>2020-07-19T09:24:39.672Z</time>
      </trkpt>
      <trkpt lat="41.66258833" lon="-4.745475">
        <ele>711.0</ele>
        <time>2020-07-19T09:24:40.672Z</time>
      </trkpt>
      <trkpt lat="41.66261167" lon="-4.74549">
        <ele>711.0</ele>
        <time>2020-07-19T09:24:41.672Z</time>
      </trkpt>
      <trkpt lat="41.66263667" lon="-4.74550167">
        <ele>711.0</ele>
        <time>2020-07-19T09:24:42.672Z</time>
      </trkpt>
      <trkpt lat="41.66266" lon="-4.74551333">
        <ele>711.0</ele>
        <time>2020-07-19T09:24:43.672Z</time>
      </trkpt>
      <trkpt lat="41.662685" lon="-4.74552667">
        <ele>711.0</ele>
        <time>2020-07-19T09:24:44.672Z</time>
      </trkpt>
      <trkpt lat="41.66271" lon="-4.74554">
        <ele>711.0</ele>
        <time>2020-07-19T09:24:45.672Z</time>
      </trkpt>
      <trkpt lat="41.662735" lon="-4.74555333">
        <ele>711.0</ele>
        <time>2020-07-19T09:24:46.672Z</time>
      </trkpt>
      <trkpt lat="41.66276" lon="-4.745565">
        <ele>711.0</ele>
        <time>2020-07-19T09:24:47.672Z</time>
      </trkpt>
      <trkpt lat="41.66278333" lon="-4.74557833">
        <ele>711.0</ele>
        <time>2020-07-19T09:24:48.672Z</time>
      </trkpt>
      <trkpt lat="41.66280333" lon="-4.74559167">
        <ele>711.0</ele>
        <time>2020-07-19T09:24:49.672Z</time>
      </trkpt>
      <trkpt lat="41.662825" lon="-4.74560333">
        <ele>711.0</ele>
        <time>2020-07-19T09:24:50.672Z</time>
      </trkpt>
      <trkpt lat="41.66284833" lon="-4.74561333">
        <ele>711.0</ele>
        <time>2020-07-19T09:24:51.672Z</time>
      </trkpt>
      <trkpt lat="41.66287167" lon="-4.745625">
        <ele>711.0</ele>
        <time>2020-07-19T09:24:52.672Z</time>
      </trkpt>
      <trkpt lat="41.662895" lon="-4.74563833">
        <ele>711.0</ele>
        <time>2020-07-19T09:24:53.672Z</time>
      </trkpt>
      <trkpt lat="41.662915" lon="-4.74565167">
        <ele>711.0</ele>
        <time>2020-07-19T09:24:54.672Z</time>
      </trkpt>
      <trkpt lat="41.66293667" lon="-4.745665">
        <ele>711.0</ele>
        <time>2020-07-19T09:24:55.672Z</time>
      </trkpt>
      <trkpt lat="41.66295667" lon="-4.74567333">
        <ele>711.0</ele>
        <time>2020-07-19T09:24:56.672Z</time>
      </trkpt>
      <trkpt lat="41.66297833" lon="-4.74568667">
        <ele>711.0</ele>
        <time>2020-07-19T09:24:57.672Z</time>
      </trkpt>
      <trkpt lat="41.66300167" lon="-4.74569833">
        <ele>711.0</ele>
        <time>2020-07-19T09:24:58.672Z</time>
      </trkpt>
      <trkpt lat="41.663025" lon="-4.74571">
        <ele>711.0</ele>
        <time>2020-07-19T09:24:59.672Z</time>
      </trkpt>
      <trkpt lat="41.663045" lon="-4.74572">
        <ele>711.0</ele>
        <time>2020-07-19T09:25:00.672Z</time>
      </trkpt>
      <trkpt lat="41.66306833" lon="-4.74573333">
        <ele>711.0</ele>
        <time>2020-07-19T09:25:01.672Z</time>
      </trkpt>
      <trkpt lat="41.66309167" lon="-4.74574333">
        <ele>711.0</ele>
        <time>2020-07-19T09:25:02.672Z</time>
      </trkpt>
      <trkpt lat="41.66311167" lon="-4.74575833">
        <ele>711.0</ele>
        <time>2020-07-19T09:25:03.672Z</time>
      </trkpt>
      <trkpt lat="41.66313167" lon="-4.74577333">
        <ele>711.0</ele>
        <time>2020-07-19T09:25:04.672Z</time>
      </trkpt>
      <trkpt lat="41.66315" lon="-4.74578667">
        <ele>712.0</ele>
        <time>2020-07-19T09:25:05.672Z</time>
      </trkpt>
      <trkpt lat="41.66317" lon="-4.74580333">
        <ele>712.0</ele>
        <time>2020-07-19T09:25:06.672Z</time>
      </trkpt>
      <trkpt lat="41.66319167" lon="-4.74581667">
        <ele>712.0</ele>
        <time>2020-07-19T09:25:07.672Z</time>
      </trkpt>
      <trkpt lat="41.66320833" lon="-4.74582833">
        <ele>712.0</ele>
        <time>2020-07-19T09:25:08.672Z</time>
      </trkpt>
      <trkpt lat="41.66322667" lon="-4.74584333">
        <ele>712.0</ele>
        <time>2020-07-19T09:25:09.672Z</time>
      </trkpt>
      <trkpt lat="41.66324333" lon="-4.74585667">
        <ele>712.0</ele>
        <time>2020-07-19T09:25:10.672Z</time>
      </trkpt>
      <trkpt lat="41.66326167" lon="-4.74587333">
        <ele>712.0</ele>
        <time>2020-07-19T09:25:11.672Z</time>
      </trkpt>
      <trkpt lat="41.66327833" lon="-4.74588833">
        <ele>712.0</ele>
        <time>2020-07-19T09:25:12.672Z</time>
      </trkpt>
      <trkpt lat="41.663295" lon="-4.74590333">
        <ele>712.0</ele>
        <time>2020-07-19T09:25:13.672Z</time>
      </trkpt>
      <trkpt lat="41.66331" lon="-4.74591833">
        <ele>712.0</ele>
        <time>2020-07-19T09:25:14.672Z</time>
      </trkpt>
      <trkpt lat="41.66332833" lon="-4.74593">
        <ele>712.0</ele>
        <time>2020-07-19T09:25:15.672Z</time>
      </trkpt>
      <trkpt lat="41.663345" lon="-4.74593833">
        <ele>712.0</ele>
        <time>2020-07-19T09:25:16.672Z</time>
      </trkpt>
      <trkpt lat="41.66336167" lon="-4.74595167">
        <ele>712.0</ele>
        <time>2020-07-19T09:25:17.672Z</time>
      </trkpt>
      <trkpt lat="41.66337667" lon="-4.745965">
        <ele>712.0</ele>
        <time>2020-07-19T09:25:18.672Z</time>
      </trkpt>
      <trkpt lat="41.66339" lon="-4.74597833">
        <ele>712.0</ele>
        <time>2020-07-19T09:25:19.672Z</time>
      </trkpt>
      <trkpt lat="41.66340333" lon="-4.745995">
        <ele>712.0</ele>
        <time>2020-07-19T09:25:20.672Z</time>
      </trkpt>
      <trkpt lat="41.66341833" lon="-4.74600833">
        <ele>712.0</ele>
        <time>2020-07-19T09:25:21.672Z</time>
      </trkpt>
      <trkpt lat="41.66343167" lon="-4.746025">
        <ele>712.0</ele>
        <time>2020-07-19T09:25:22.672Z</time>
      </trkpt>
      <trkpt lat="41.66344833" lon="-4.74604">
        <ele>713.0</ele>
        <time>2020-07-19T09:25:23.672Z</time>
      </trkpt>
      <trkpt lat="41.66346333" lon="-4.74605333">
        <ele>713.0</ele>
        <time>2020-07-19T09:25:24.672Z</time>
      </trkpt>
      <trkpt lat="41.66347667" lon="-4.74606667">
        <ele>713.0</ele>
        <time>2020-07-19T09:25:25.672Z</time>
      </trkpt>
      <trkpt lat="41.66349333" lon="-4.74608">
        <ele>713.0</ele>
        <time>2020-07-19T09:25:26.672Z</time>
      </trkpt>
      <trkpt lat="41.66350667" lon="-4.74609333">
        <ele>713.0</ele>
        <time>2020-07-19T09:25:27.672Z</time>
      </trkpt>
      <trkpt lat="41.66352167" lon="-4.746105">
        <ele>713.0</ele>
        <time>2020-07-19T09:25:28.672Z</time>
      </trkpt>
      <trkpt lat="41.663535" lon="-4.74611833">
        <ele>713.0</ele>
        <time>2020-07-19T09:25:29.672Z</time>
      </trkpt>
      <trkpt lat="41.66354833" lon="-4.74613167">
        <ele>713.0</ele>
        <time>2020-07-19T09:25:30.672Z</time>
      </trkpt>
      <trkpt lat="41.66356333" lon="-4.74614167">
        <ele>713.0</ele>
        <time>2020-07-19T09:25:31.672Z</time>
      </trkpt>
      <trkpt lat="41.66357833" lon="-4.746155">
        <ele>713.0</ele>
        <time>2020-07-19T09:25:32.672Z</time>
      </trkpt>
      <trkpt lat="41.66359167" lon="-4.74617">
        <ele>713.0</ele>
        <time>2020-07-19T09:25:33.672Z</time>
      </trkpt>
      <trkpt lat="41.66360667" lon="-4.74618333">
        <ele>713.0</ele>
        <time>2020-07-19T09:25:34.672Z</time>
      </trkpt>
      <trkpt lat="41.66362167" lon="-4.7462">
        <ele>713.0</ele>
        <time>2020-07-19T09:25:35.672Z</time>
      </trkpt>
      <trkpt lat="41.663635" lon="-4.74621333">
        <ele>713.0</ele>
        <time>2020-07-19T09:25:36.672Z</time>
      </trkpt>
      <trkpt lat="41.66364833" lon="-4.746225">
        <ele>713.0</ele>
        <time>2020-07-19T09:25:37.672Z</time>
      </trkpt>
      <trkpt lat="41.663665" lon="-4.746235">
        <ele>713.0</ele>
        <time>2020-07-19T09:25:38.672Z</time>
      </trkpt>
      <trkpt lat="41.66368333" lon="-4.74624667">
        <ele>713.0</ele>
        <time>2020-07-19T09:25:39.672Z</time>
      </trkpt>
      <trkpt lat="41.66369667" lon="-4.74625833">
        <ele>714.0</ele>
        <time>2020-07-19T09:25:40.672Z</time>
      </trkpt>
      <trkpt lat="41.66371" lon="-4.74627">
        <ele>714.0</ele>
        <time>2020-07-19T09:25:41.672Z</time>
      </trkpt>
      <trkpt lat="41.663725" lon="-4.74628167">
        <ele>714.0</ele>
        <time>2020-07-19T09:25:42.672Z</time>
      </trkpt>
      <trkpt lat="41.66374167" lon="-4.746295">
        <ele>714.0</ele>
        <time>2020-07-19T09:25:43.672Z</time>
      </trkpt>
      <trkpt lat="41.66375667" lon="-4.74630833">
        <ele>714.0</ele>
        <time>2020-07-19T09:25:44.672Z</time>
      </trkpt>
      <trkpt lat="41.66377" lon="-4.74632">
        <ele>714.0</ele>
        <time>2020-07-19T09:25:45.672Z</time>
      </trkpt>
      <trkpt lat="41.663785" lon="-4.74633333">
        <ele>714.0</ele>
        <time>2020-07-19T09:25:46.672Z</time>
      </trkpt>
      <trkpt lat="41.6638" lon="-4.746345">
        <ele>714.0</ele>
        <time>2020-07-19T09:25:47.672Z</time>
      </trkpt>
      <trkpt lat="41.66381333" lon="-4.74635333">
        <ele>714.0</ele>
        <time>2020-07-19T09:25:48.672Z</time>
      </trkpt>
      <trkpt lat="41.663825" lon="-4.74636333">
        <ele>714.0</ele>
        <time>2020-07-19T09:25:49.672Z</time>
      </trkpt>
      <trkpt lat="41.66383833" lon="-4.74637167">
        <ele>715.0</ele>
        <time>2020-07-19T09:25:50.672Z</time>
      </trkpt>
      <trkpt lat="41.66385" lon="-4.74638333">
        <ele>715.0</ele>
        <time>2020-07-19T09:25:51.672Z</time>
      </trkpt>
      <trkpt lat="41.663865" lon="-4.746395">
        <ele>715.0</ele>
        <time>2020-07-19T09:25:52.672Z</time>
      </trkpt>
      <trkpt lat="41.66387833" lon="-4.74640667">
        <ele>715.0</ele>
        <time>2020-07-19T09:25:53.672Z</time>
      </trkpt>
      <trkpt lat="41.66389333" lon="-4.74641667">
        <ele>715.0</ele>
        <time>2020-07-19T09:25:54.672Z</time>
      </trkpt>
      <trkpt lat="41.663905" lon="-4.74642833">
        <ele>715.0</ele>
        <time>2020-07-19T09:25:55.672Z</time>
      </trkpt>
      <trkpt lat="41.66392" lon="-4.74644">
        <ele>715.0</ele>
        <time>2020-07-19T09:25:56.672Z</time>
      </trkpt>
      <trkpt lat="41.66393167" lon="-4.74645167">
        <ele>715.0</ele>
        <time>2020-07-19T09:25:57.672Z</time>
      </trkpt>
      <trkpt lat="41.663945" lon="-4.74646167">
        <ele>715.0</ele>
        <time>2020-07-19T09:25:58.672Z</time>
      </trkpt>
      <trkpt lat="41.66395833" lon="-4.746475">
        <ele>715.0</ele>
        <time>2020-07-19T09:25:59.672Z</time>
      </trkpt>
      <trkpt lat="41.66397333" lon="-4.74648667">
        <ele>716.0</ele>
        <time>2020-07-19T09:26:00.672Z</time>
      </trkpt>
      <trkpt lat="41.66398833" lon="-4.74649833">
        <ele>716.0</ele>
        <time>2020-07-19T09:26:01.672Z</time>
      </trkpt>
      <trkpt lat="41.664005" lon="-4.74650833">
        <ele>716.0</ele>
        <time>2020-07-19T09:26:02.672Z</time>
      </trkpt>
      <trkpt lat="41.66402167" lon="-4.74652">
        <ele>716.0</ele>
        <time>2020-07-19T09:26:03.672Z</time>
      </trkpt>
      <trkpt lat="41.66403833" lon="-4.74653167">
        <ele>716.0</ele>
        <time>2020-07-19T09:26:04.672Z</time>
      </trkpt>
      <trkpt lat="41.664055" lon="-4.74654167">
        <ele>716.0</ele>
        <time>2020-07-19T09:26:05.672Z</time>
      </trkpt>
      <trkpt lat="41.66407167" lon="-4.74655">
        <ele>716.0</ele>
        <time>2020-07-19T09:26:06.672Z</time>
      </trkpt>
      <trkpt lat="41.664085" lon="-4.74656167">
        <ele>716.0</ele>
        <time>2020-07-19T09:26:07.672Z</time>
      </trkpt>
      <trkpt lat="41.66410167" lon="-4.74657333">
        <ele>717.0</ele>
        <time>2020-07-19T09:26:08.672Z</time>
      </trkpt>
      <trkpt lat="41.66411833" lon="-4.746585">
        <ele>717.0</ele>
        <time>2020-07-19T09:26:09.672Z</time>
      </trkpt>
      <trkpt lat="41.66413333" lon="-4.74659667">
        <ele>717.0</ele>
        <time>2020-07-19T09:26:10.672Z</time>
      </trkpt>
      <trkpt lat="41.66414833" lon="-4.74660833">
        <ele>717.0</ele>
        <time>2020-07-19T09:26:11.672Z</time>
      </trkpt>
      <trkpt lat="41.66416167" lon="-4.74662">
        <ele>717.0</ele>
        <time>2020-07-19T09:26:12.672Z</time>
      </trkpt>
      <trkpt lat="41.66417667" lon="-4.74663167">
        <ele>717.0</ele>
        <time>2020-07-19T09:26:13.672Z</time>
      </trkpt>
      <trkpt lat="41.66419" lon="-4.74664333">
        <ele>717.0</ele>
        <time>2020-07-19T09:26:14.672Z</time>
      </trkpt>
      <trkpt lat="41.664205" lon="-4.746655">
        <ele>717.0</ele>
        <time>2020-07-19T09:26:15.672Z</time>
      </trkpt>
      <trkpt lat="41.66422167" lon="-4.746665">
        <ele>717.0</ele>
        <time>2020-07-19T09:26:16.672Z</time>
      </trkpt>
      <trkpt lat="41.66423333" lon="-4.74667667">
        <ele>717.0</ele>
        <time>2020-07-19T09:26:17.672Z</time>
      </trkpt>
      <trkpt lat="41.66424667" lon="-4.74668667">
        <ele>718.0</ele>
        <time>2020-07-19T09:26:18.672Z</time>
      </trkpt>
      <trkpt lat="41.66426" lon="-4.7467">
        <ele>718.0</ele>
        <time>2020-07-19T09:26:19.672Z</time>
      </trkpt>
      <trkpt lat="41.66427333" lon="-4.74671167">
        <ele>718.0</ele>
        <time>2020-07-19T09:26:20.672Z</time>
      </trkpt>
      <trkpt lat="41.66428667" lon="-4.74672167">
        <ele>718.0</ele>
        <time>2020-07-19T09:26:21.672Z</time>
      </trkpt>
      <trkpt lat="41.66430167" lon="-4.74672833">
        <ele>718.0</ele>
        <time>2020-07-19T09:26:22.672Z</time>
      </trkpt>
      <trkpt lat="41.66431667" lon="-4.746735">
        <ele>718.0</ele>
        <time>2020-07-19T09:26:23.672Z</time>
      </trkpt>
      <trkpt lat="41.66433167" lon="-4.74674167">
        <ele>718.0</ele>
        <time>2020-07-19T09:26:24.672Z</time>
      </trkpt>
      <trkpt lat="41.664345" lon="-4.74675333">
        <ele>718.0</ele>
        <time>2020-07-19T09:26:25.672Z</time>
      </trkpt>
      <trkpt lat="41.66435833" lon="-4.74676167">
        <ele>718.0</ele>
        <time>2020-07-19T09:26:26.672Z</time>
      </trkpt>
      <trkpt lat="41.66437167" lon="-4.74677">
        <ele>718.0</ele>
        <time>2020-07-19T09:26:27.672Z</time>
      </trkpt>
      <trkpt lat="41.66438667" lon="-4.74677833">
        <ele>718.0</ele>
        <time>2020-07-19T09:26:28.672Z</time>
      </trkpt>
      <trkpt lat="41.6644" lon="-4.74678667">
        <ele>719.0</ele>
        <time>2020-07-19T09:26:29.672Z</time>
      </trkpt>
      <trkpt lat="41.664415" lon="-4.746795">
        <ele>719.0</ele>
        <time>2020-07-19T09:26:30.672Z</time>
      </trkpt>
      <trkpt lat="41.66443" lon="-4.74680333">
        <ele>719.0</ele>
        <time>2020-07-19T09:26:31.672Z</time>
      </trkpt>
      <trkpt lat="41.664445" lon="-4.74681167">
        <ele>719.0</ele>
        <time>2020-07-19T09:26:32.672Z</time>
      </trkpt>
      <trkpt lat="41.66446" lon="-4.74682167">
        <ele>719.0</ele>
        <time>2020-07-19T09:26:33.672Z</time>
      </trkpt>
      <trkpt lat="41.664475" lon="-4.74683167">
        <ele>719.0</ele>
        <time>2020-07-19T09:26:34.672Z</time>
      </trkpt>
      <trkpt lat="41.66449167" lon="-4.74683667">
        <ele>719.0</ele>
        <time>2020-07-19T09:26:35.672Z</time>
      </trkpt>
      <trkpt lat="41.66450833" lon="-4.746845">
        <ele>719.0</ele>
        <time>2020-07-19T09:26:36.672Z</time>
      </trkpt>
      <trkpt lat="41.66452667" lon="-4.74685167">
        <ele>719.0</ele>
        <time>2020-07-19T09:26:37.672Z</time>
      </trkpt>
      <trkpt lat="41.66454167" lon="-4.74686">
        <ele>719.0</ele>
        <time>2020-07-19T09:26:38.672Z</time>
      </trkpt>
      <trkpt lat="41.66455833" lon="-4.746865">
        <ele>719.0</ele>
        <time>2020-07-19T09:26:39.672Z</time>
      </trkpt>
      <trkpt lat="41.66457833" lon="-4.74686833">
        <ele>719.0</ele>
        <time>2020-07-19T09:26:40.672Z</time>
      </trkpt>
      <trkpt lat="41.66459667" lon="-4.74687333">
        <ele>719.0</ele>
        <time>2020-07-19T09:26:41.672Z</time>
      </trkpt>
      <trkpt lat="41.664615" lon="-4.74687667">
        <ele>720.0</ele>
        <time>2020-07-19T09:26:42.672Z</time>
      </trkpt>
      <trkpt lat="41.66463167" lon="-4.74688167">
        <ele>720.0</ele>
        <time>2020-07-19T09:26:43.672Z</time>
      </trkpt>
      <trkpt lat="41.66464833" lon="-4.74688333">
        <ele>720.0</ele>
        <time>2020-07-19T09:26:44.672Z</time>
      </trkpt>
      <trkpt lat="41.664665" lon="-4.74688833">
        <ele>720.0</ele>
        <time>2020-07-19T09:26:45.672Z</time>
      </trkpt>
      <trkpt lat="41.66467833" lon="-4.74689333">
        <ele>720.0</ele>
        <time>2020-07-19T09:26:46.672Z</time>
      </trkpt>
      <trkpt lat="41.66469333" lon="-4.74689333">
        <ele>720.0</ele>
        <time>2020-07-19T09:26:47.672Z</time>
      </trkpt>
      <trkpt lat="41.66470833" lon="-4.746895">
        <ele>720.0</ele>
        <time>2020-07-19T09:26:48.672Z</time>
      </trkpt>
      <trkpt lat="41.66472667" lon="-4.7469">
        <ele>720.0</ele>
        <time>2020-07-19T09:26:49.672Z</time>
      </trkpt>
      <trkpt lat="41.664745" lon="-4.7469">
        <ele>720.0</ele>
        <time>2020-07-19T09:26:50.672Z</time>
      </trkpt>
      <trkpt lat="41.66476167" lon="-4.74689833">
        <ele>721.0</ele>
        <time>2020-07-19T09:26:51.672Z</time>
      </trkpt>
      <trkpt lat="41.66477833" lon="-4.74689667">
        <ele>721.0</ele>
        <time>2020-07-19T09:26:52.672Z</time>
      </trkpt>
      <trkpt lat="41.664795" lon="-4.74689333">
        <ele>721.0</ele>
        <time>2020-07-19T09:26:53.672Z</time>
      </trkpt>
      <trkpt lat="41.664815" lon="-4.74689167">
        <ele>721.0</ele>
        <time>2020-07-19T09:26:54.672Z</time>
      </trkpt>
      <trkpt lat="41.66483333" lon="-4.74689">
        <ele>721.0</ele>
        <time>2020-07-19T09:26:55.672Z</time>
      </trkpt>
      <trkpt lat="41.66485167" lon="-4.74688833">
        <ele>721.0</ele>
        <time>2020-07-19T09:26:56.672Z</time>
      </trkpt>
      <trkpt lat="41.66486833" lon="-4.74688667">
        <ele>721.0</ele>
        <time>2020-07-19T09:26:57.672Z</time>
      </trkpt>
      <trkpt lat="41.664885" lon="-4.746885">
        <ele>721.0</ele>
        <time>2020-07-19T09:26:58.672Z</time>
      </trkpt>
      <trkpt lat="41.66490333" lon="-4.74688333">
        <ele>722.0</ele>
        <time>2020-07-19T09:26:59.672Z</time>
      </trkpt>
      <trkpt lat="41.66492" lon="-4.74688">
        <ele>722.0</ele>
        <time>2020-07-19T09:27:00.672Z</time>
      </trkpt>
      <trkpt lat="41.66494167" lon="-4.74687667">
        <ele>722.0</ele>
        <time>2020-07-19T09:27:01.672Z</time>
      </trkpt>
      <trkpt lat="41.66496333" lon="-4.746875">
        <ele>722.0</ele>
        <time>2020-07-19T09:27:02.672Z</time>
      </trkpt>
      <trkpt lat="41.66498167" lon="-4.74687333">
        <ele>723.0</ele>
        <time>2020-07-19T09:27:03.672Z</time>
      </trkpt>
      <trkpt lat="41.66499833" lon="-4.746875">
        <ele>723.0</ele>
        <time>2020-07-19T09:27:04.672Z</time>
      </trkpt>
      <trkpt lat="41.665015" lon="-4.74687833">
        <ele>723.0</ele>
        <time>2020-07-19T09:27:05.672Z</time>
      </trkpt>
      <trkpt lat="41.66503" lon="-4.74688">
        <ele>723.0</ele>
        <time>2020-07-19T09:27:06.672Z</time>
      </trkpt>
      <trkpt lat="41.665045" lon="-4.74688">
        <ele>724.0</ele>
        <time>2020-07-19T09:27:07.672Z</time>
      </trkpt>
      <trkpt lat="41.66505833" lon="-4.74687833">
        <ele>724.0</ele>
        <time>2020-07-19T09:27:08.672Z</time>
      </trkpt>
      <trkpt lat="41.66507333" lon="-4.74687667">
        <ele>724.0</ele>
        <time>2020-07-19T09:27:09.672Z</time>
      </trkpt>
      <trkpt lat="41.66508667" lon="-4.746875">
        <ele>724.0</ele>
        <time>2020-07-19T09:27:10.672Z</time>
      </trkpt>
      <trkpt lat="41.6651" lon="-4.74687333">
        <ele>724.0</ele>
        <time>2020-07-19T09:27:11.672Z</time>
      </trkpt>
      <trkpt lat="41.66511333" lon="-4.74687167">
        <ele>724.0</ele>
        <time>2020-07-19T09:27:12.672Z</time>
      </trkpt>
      <trkpt lat="41.66513" lon="-4.74687">
        <ele>724.0</ele>
        <time>2020-07-19T09:27:13.672Z</time>
      </trkpt>
      <trkpt lat="41.665145" lon="-4.74687">
        <ele>724.0</ele>
        <time>2020-07-19T09:27:14.672Z</time>
      </trkpt>
      <trkpt lat="41.66516167" lon="-4.74687">
        <ele>724.0</ele>
        <time>2020-07-19T09:27:15.672Z</time>
      </trkpt>
      <trkpt lat="41.66517667" lon="-4.74687">
        <ele>725.0</ele>
        <time>2020-07-19T09:27:16.672Z</time>
      </trkpt>
      <trkpt lat="41.665195" lon="-4.74687333">
        <ele>725.0</ele>
        <time>2020-07-19T09:27:17.672Z</time>
      </trkpt>
      <trkpt lat="41.66521833" lon="-4.74687667">
        <ele>725.0</ele>
        <time>2020-07-19T09:27:18.672Z</time>
      </trkpt>
      <trkpt lat="41.665235" lon="-4.74687667">
        <ele>725.0</ele>
        <time>2020-07-19T09:27:19.672Z</time>
      </trkpt>
      <trkpt lat="41.66525" lon="-4.74688">
        <ele>725.0</ele>
        <time>2020-07-19T09:27:20.672Z</time>
      </trkpt>
      <trkpt lat="41.66526667" lon="-4.74688333">
        <ele>726.0</ele>
        <time>2020-07-19T09:27:21.672Z</time>
      </trkpt>
      <trkpt lat="41.66528167" lon="-4.746885">
        <ele>726.0</ele>
        <time>2020-07-19T09:27:22.672Z</time>
      </trkpt>
      <trkpt lat="41.66529833" lon="-4.74689">
        <ele>726.0</ele>
        <time>2020-07-19T09:27:23.672Z</time>
      </trkpt>
      <trkpt lat="41.665315" lon="-4.74689333">
        <ele>727.0</ele>
        <time>2020-07-19T09:27:24.672Z</time>
      </trkpt>
      <trkpt lat="41.66533" lon="-4.74689667">
        <ele>727.0</ele>
        <time>2020-07-19T09:27:25.672Z</time>
      </trkpt>
      <trkpt lat="41.66534667" lon="-4.746905">
        <ele>727.0</ele>
        <time>2020-07-19T09:27:26.672Z</time>
      </trkpt>
      <trkpt lat="41.66536667" lon="-4.74691667">
        <ele>728.0</ele>
        <time>2020-07-19T09:27:27.672Z</time>
      </trkpt>
      <trkpt lat="41.66538333" lon="-4.74692167">
        <ele>728.0</ele>
        <time>2020-07-19T09:27:28.672Z</time>
      </trkpt>
      <trkpt lat="41.6654" lon="-4.74692667">
        <ele>728.0</ele>
        <time>2020-07-19T09:27:29.672Z</time>
      </trkpt>
      <trkpt lat="41.665415" lon="-4.74692833">
        <ele>728.0</ele>
        <time>2020-07-19T09:27:30.672Z</time>
      </trkpt>
      <trkpt lat="41.66543" lon="-4.74693167">
        <ele>729.0</ele>
        <time>2020-07-19T09:27:31.672Z</time>
      </trkpt>
      <trkpt lat="41.66544333" lon="-4.74693333">
        <ele>729.0</ele>
        <time>2020-07-19T09:27:32.672Z</time>
      </trkpt>
      <trkpt lat="41.66545667" lon="-4.746935">
        <ele>729.0</ele>
        <time>2020-07-19T09:27:33.672Z</time>
      </trkpt>
      <trkpt lat="41.66547" lon="-4.74693333">
        <ele>729.0</ele>
        <time>2020-07-19T09:27:34.672Z</time>
      </trkpt>
      <trkpt lat="41.665485" lon="-4.74693333">
        <ele>730.0</ele>
        <time>2020-07-19T09:27:35.672Z</time>
      </trkpt>
      <trkpt lat="41.66549667" lon="-4.74693333">
        <ele>730.0</ele>
        <time>2020-07-19T09:27:36.672Z</time>
      </trkpt>
      <trkpt lat="41.66551167" lon="-4.746935">
        <ele>730.0</ele>
        <time>2020-07-19T09:27:37.672Z</time>
      </trkpt>
      <trkpt lat="41.665525" lon="-4.746935">
        <ele>730.0</ele>
        <time>2020-07-19T09:27:38.672Z</time>
      </trkpt>
      <trkpt lat="41.66553833" lon="-4.74693667">
        <ele>730.0</ele>
        <time>2020-07-19T09:27:39.672Z</time>
      </trkpt>
      <trkpt lat="41.66555167" lon="-4.74693833">
        <ele>731.0</ele>
        <time>2020-07-19T09:27:40.672Z</time>
      </trkpt>
      <trkpt lat="41.66556833" lon="-4.74693833">
        <ele>731.0</ele>
        <time>2020-07-19T09:27:41.672Z</time>
      </trkpt>
      <trkpt lat="41.66558333" lon="-4.746935">
        <ele>732.0</ele>
        <time>2020-07-19T09:27:42.672Z</time>
      </trkpt>
      <trkpt lat="41.66559667" lon="-4.74693333">
        <ele>732.0</ele>
        <time>2020-07-19T09:27:43.672Z</time>
      </trkpt>
      <trkpt lat="41.66561167" lon="-4.74693333">
        <ele>732.0</ele>
        <time>2020-07-19T09:27:44.672Z</time>
      </trkpt>
      <trkpt lat="41.665625" lon="-4.74693333">
        <ele>732.0</ele>
        <time>2020-07-19T09:27:45.672Z</time>
      </trkpt>
      <trkpt lat="41.66564" lon="-4.74693167">
        <ele>733.0</ele>
        <time>2020-07-19T09:27:46.672Z</time>
      </trkpt>
      <trkpt lat="41.665655" lon="-4.746925">
        <ele>733.0</ele>
        <time>2020-07-19T09:27:47.672Z</time>
      </trkpt>
      <trkpt lat="41.66566833" lon="-4.74692">
        <ele>733.0</ele>
        <time>2020-07-19T09:27:48.672Z</time>
      </trkpt>
      <trkpt lat="41.66568167" lon="-4.74691667">
        <ele>733.0</ele>
        <time>2020-07-19T09:27:49.672Z</time>
      </trkpt>
      <trkpt lat="41.665695" lon="-4.746915">
        <ele>733.0</ele>
        <time>2020-07-19T09:27:50.672Z</time>
      </trkpt>
      <trkpt lat="41.66571" lon="-4.746915">
        <ele>734.0</ele>
        <time>2020-07-19T09:27:51.672Z</time>
      </trkpt>
      <trkpt lat="41.665725" lon="-4.74691667">
        <ele>734.0</ele>
        <time>2020-07-19T09:27:52.672Z</time>
      </trkpt>
      <trkpt lat="41.66574" lon="-4.74691667">
        <ele>734.0</ele>
        <time>2020-07-19T09:27:53.672Z</time>
      </trkpt>
      <trkpt lat="41.665755" lon="-4.74691667">
        <ele>734.0</ele>
        <time>2020-07-19T09:27:54.672Z</time>
      </trkpt>
      <trkpt lat="41.66577167" lon="-4.74691833">
        <ele>734.0</ele>
        <time>2020-07-19T09:27:55.672Z</time>
      </trkpt>
      <trkpt lat="41.66578833" lon="-4.74692">
        <ele>735.0</ele>
        <time>2020-07-19T09:27:56.672Z</time>
      </trkpt>
      <trkpt lat="41.665805" lon="-4.74691833">
        <ele>735.0</ele>
        <time>2020-07-19T09:27:57.672Z</time>
      </trkpt>
      <trkpt lat="41.66581833" lon="-4.74691167">
        <ele>735.0</ele>
        <time>2020-07-19T09:27:58.672Z</time>
      </trkpt>
      <trkpt lat="41.66583167" lon="-4.74690833">
        <ele>735.0</ele>
        <time>2020-07-19T09:27:59.672Z</time>
      </trkpt>
      <trkpt lat="41.66584333" lon="-4.74690667">
        <ele>735.0</ele>
        <time>2020-07-19T09:28:00.672Z</time>
      </trkpt>
      <trkpt lat="41.66585667" lon="-4.746905">
        <ele>736.0</ele>
        <time>2020-07-19T09:28:01.672Z</time>
      </trkpt>
      <trkpt lat="41.66587" lon="-4.74690333">
        <ele>736.0</ele>
        <time>2020-07-19T09:28:02.672Z</time>
      </trkpt>
      <trkpt lat="41.66588333" lon="-4.7469">
        <ele>736.0</ele>
        <time>2020-07-19T09:28:03.672Z</time>
      </trkpt>
      <trkpt lat="41.665895" lon="-4.746895">
        <ele>736.0</ele>
        <time>2020-07-19T09:28:04.672Z</time>
      </trkpt>
      <trkpt lat="41.66590667" lon="-4.74689167">
        <ele>736.0</ele>
        <time>2020-07-19T09:28:05.672Z</time>
      </trkpt>
      <trkpt lat="41.66592" lon="-4.74688833">
        <ele>737.0</ele>
        <time>2020-07-19T09:28:06.672Z</time>
      </trkpt>
      <trkpt lat="41.66593" lon="-4.74689">
        <ele>737.0</ele>
        <time>2020-07-19T09:28:07.672Z</time>
      </trkpt>
      <trkpt lat="41.66594" lon="-4.74689833">
        <ele>737.0</ele>
        <time>2020-07-19T09:28:08.672Z</time>
      </trkpt>
      <trkpt lat="41.66594667" lon="-4.74691167">
        <ele>737.0</ele>
        <time>2020-07-19T09:28:09.672Z</time>
      </trkpt>
      <trkpt lat="41.66595" lon="-4.74693">
        <ele>737.0</ele>
        <time>2020-07-19T09:28:10.672Z</time>
      </trkpt>
      <trkpt lat="41.66595" lon="-4.74694833">
        <ele>737.0</ele>
        <time>2020-07-19T09:28:11.672Z</time>
      </trkpt>
      <trkpt lat="41.66594833" lon="-4.74696833">
        <ele>737.0</ele>
        <time>2020-07-19T09:28:12.672Z</time>
      </trkpt>
      <trkpt lat="41.66594833" lon="-4.74698833">
        <ele>737.0</ele>
        <time>2020-07-19T09:28:13.672Z</time>
      </trkpt>
      <trkpt lat="41.66595" lon="-4.74700667">
        <ele>738.0</ele>
        <time>2020-07-19T09:28:14.672Z</time>
      </trkpt>
      <trkpt lat="41.66595167" lon="-4.74702333">
        <ele>738.0</ele>
        <time>2020-07-19T09:28:15.672Z</time>
      </trkpt>
      <trkpt lat="41.665955" lon="-4.74703833">
        <ele>738.0</ele>
        <time>2020-07-19T09:28:16.672Z</time>
      </trkpt>
      <trkpt lat="41.66595667" lon="-4.747055">
        <ele>738.0</ele>
        <time>2020-07-19T09:28:17.672Z</time>
      </trkpt>
      <trkpt lat="41.66595667" lon="-4.74707">
        <ele>738.0</ele>
        <time>2020-07-19T09:28:18.672Z</time>
      </trkpt>
      <trkpt lat="41.66595667" lon="-4.747085">
        <ele>738.0</ele>
        <time>2020-07-19T09:28:19.672Z</time>
      </trkpt>
      <trkpt lat="41.66596" lon="-4.74709833">
        <ele>738.0</ele>
        <time>2020-07-19T09:28:20.672Z</time>
      </trkpt>
      <trkpt lat="41.66596167" lon="-4.74711667">
        <ele>739.0</ele>
        <time>2020-07-19T09:28:21.672Z</time>
      </trkpt>
      <trkpt lat="41.66596667" lon="-4.74713667">
        <ele>739.0</ele>
        <time>2020-07-19T09:28:22.672Z</time>
      </trkpt>
      <trkpt lat="41.66597" lon="-4.74715833">
        <ele>739.0</ele>
        <time>2020-07-19T09:28:23.672Z</time>
      </trkpt>
      <trkpt lat="41.66597333" lon="-4.74717667">
        <ele>739.0</ele>
        <time>2020-07-19T09:28:24.672Z</time>
      </trkpt>
      <trkpt lat="41.665975" lon="-4.747195">
        <ele>739.0</ele>
        <time>2020-07-19T09:28:25.672Z</time>
      </trkpt>
      <trkpt lat="41.66597333" lon="-4.74721333">
        <ele>739.0</ele>
        <time>2020-07-19T09:28:26.672Z</time>
      </trkpt>
      <trkpt lat="41.66597333" lon="-4.747235">
        <ele>739.0</ele>
        <time>2020-07-19T09:28:27.672Z</time>
      </trkpt>
      <trkpt lat="41.66597167" lon="-4.74725667">
        <ele>739.0</ele>
        <time>2020-07-19T09:28:28.672Z</time>
      </trkpt>
      <trkpt lat="41.66596833" lon="-4.74727667">
        <ele>740.0</ele>
        <time>2020-07-19T09:28:29.672Z</time>
      </trkpt>
      <trkpt lat="41.66596833" lon="-4.74729333">
        <ele>740.0</ele>
        <time>2020-07-19T09:28:30.672Z</time>
      </trkpt>
      <trkpt lat="41.66596667" lon="-4.74731">
        <ele>740.0</ele>
        <time>2020-07-19T09:28:31.672Z</time>
      </trkpt>
      <trkpt lat="41.66596833" lon="-4.74732667">
        <ele>740.0</ele>
        <time>2020-07-19T09:28:32.672Z</time>
      </trkpt>
      <trkpt lat="41.66596833" lon="-4.74734667">
        <ele>740.0</ele>
        <time>2020-07-19T09:28:33.672Z</time>
      </trkpt>
      <trkpt lat="41.66597" lon="-4.747365">
        <ele>740.0</ele>
        <time>2020-07-19T09:28:34.672Z</time>
      </trkpt>
      <trkpt lat="41.66596833" lon="-4.74738167">
        <ele>740.0</ele>
        <time>2020-07-19T09:28:35.672Z</time>
      </trkpt>
      <trkpt lat="41.665965" lon="-4.747395">
        <ele>740.0</ele>
        <time>2020-07-19T09:28:36.672Z</time>
      </trkpt>
      <trkpt lat="41.66595833" lon="-4.74740667">
        <ele>740.0</ele>
        <time>2020-07-19T09:28:37.672Z</time>
      </trkpt>
      <trkpt lat="41.66595" lon="-4.74741667">
        <ele>740.0</ele>
        <time>2020-07-19T09:28:38.672Z</time>
      </trkpt>
      <trkpt lat="41.66593667" lon="-4.74742333">
        <ele>741.0</ele>
        <time>2020-07-19T09:28:39.672Z</time>
      </trkpt>
      <trkpt lat="41.66592" lon="-4.74743333">
        <ele>741.0</ele>
        <time>2020-07-19T09:28:40.672Z</time>
      </trkpt>
      <trkpt lat="41.66590333" lon="-4.74744667">
        <ele>741.0</ele>
        <time>2020-07-19T09:28:41.672Z</time>
      </trkpt>
      <trkpt lat="41.66588667" lon="-4.74745667">
        <ele>741.0</ele>
        <time>2020-07-19T09:28:42.672Z</time>
      </trkpt>
      <trkpt lat="41.66587333" lon="-4.74746833">
        <ele>741.0</ele>
        <time>2020-07-19T09:28:43.672Z</time>
      </trkpt>
      <trkpt lat="41.665865" lon="-4.74747667">
        <ele>741.0</ele>
        <time>2020-07-19T09:28:44.672Z</time>
      </trkpt>
      <trkpt lat="41.66586" lon="-4.74748667">
        <ele>741.0</ele>
        <time>2020-07-19T09:28:45.672Z</time>
      </trkpt>
      <trkpt lat="41.66585833" lon="-4.74749167">
        <ele>741.0</ele>
        <time>2020-07-19T09:28:46.672Z</time>
      </trkpt>
      <trkpt lat="41.66585333" lon="-4.74749833">
        <ele>741.0</ele>
        <time>2020-07-19T09:28:47.672Z</time>
      </trkpt>
      <trkpt lat="41.66585333" lon="-4.74750167">
        <ele>741.0</ele>
        <time>2020-07-19T09:28:48.672Z</time>
      </trkpt>
      <trkpt lat="41.665805" lon="-4.74751833">
        <ele>745.0</ele>
        <time>2020-07-19T09:29:28.078Z</time>
      </trkpt>
      <trkpt lat="41.665805" lon="-4.74751833">
        <ele>745.0</ele>
        <time>2020-07-19T09:29:29.078Z</time>
      </trkpt>
      <trkpt lat="41.66578833" lon="-4.74755167">
        <ele>745.0</ele>
        <time>2020-07-19T09:29:30.078Z</time>
      </trkpt>
      <trkpt lat="41.66578667" lon="-4.74757167">
        <ele>745.0</ele>
        <time>2020-07-19T09:29:31.078Z</time>
      </trkpt>
      <trkpt lat="41.66579167" lon="-4.74758833">
        <ele>745.0</ele>
        <time>2020-07-19T09:29:32.078Z</time>
      </trkpt>
      <trkpt lat="41.6658" lon="-4.74759833">
        <ele>745.0</ele>
        <time>2020-07-19T09:29:33.078Z</time>
      </trkpt>
      <trkpt lat="41.6658" lon="-4.74759833">
        <ele>745.0</ele>
        <time>2020-07-19T09:29:34.078Z</time>
      </trkpt>
      <trkpt lat="41.66581333" lon="-4.74759833">
        <ele>745.0</ele>
        <time>2020-07-19T09:29:35.078Z</time>
      </trkpt>
      <trkpt lat="41.66582167" lon="-4.74758667">
        <ele>745.0</ele>
        <time>2020-07-19T09:29:36.078Z</time>
      </trkpt>
      <trkpt lat="41.66583167" lon="-4.74757">
        <ele>745.0</ele>
        <time>2020-07-19T09:29:37.078Z</time>
      </trkpt>
      <trkpt lat="41.66584333" lon="-4.74755167">
        <ele>745.0</ele>
        <time>2020-07-19T09:29:38.078Z</time>
      </trkpt>
      <trkpt lat="41.66584333" lon="-4.74755167">
        <ele>745.0</ele>
        <time>2020-07-19T09:29:39.078Z</time>
      </trkpt>
      <trkpt lat="41.665875" lon="-4.74752333">
        <ele>745.0</ele>
        <time>2020-07-19T09:29:40.078Z</time>
      </trkpt>
      <trkpt lat="41.66589667" lon="-4.74751167">
        <ele>745.0</ele>
        <time>2020-07-19T09:29:41.078Z</time>
      </trkpt>
      <trkpt lat="41.66591833" lon="-4.74749667">
        <ele>745.0</ele>
        <time>2020-07-19T09:29:42.078Z</time>
      </trkpt>
      <trkpt lat="41.66593667" lon="-4.74747833">
        <ele>745.0</ele>
        <time>2020-07-19T09:29:43.078Z</time>
      </trkpt>
      <trkpt lat="41.66593667" lon="-4.74747833">
        <ele>745.0</ele>
        <time>2020-07-19T09:29:44.078Z</time>
      </trkpt>
      <trkpt lat="41.66596667" lon="-4.747425">
        <ele>745.0</ele>
        <time>2020-07-19T09:29:45.078Z</time>
      </trkpt>
      <trkpt lat="41.665975" lon="-4.74739333">
        <ele>745.0</ele>
        <time>2020-07-19T09:29:46.078Z</time>
      </trkpt>
      <trkpt lat="41.66597833" lon="-4.747355">
        <ele>745.0</ele>
        <time>2020-07-19T09:29:47.078Z</time>
      </trkpt>
      <trkpt lat="41.66597833" lon="-4.74731167">
        <ele>745.0</ele>
        <time>2020-07-19T09:29:48.078Z</time>
      </trkpt>
      <trkpt lat="41.66597833" lon="-4.74731167">
        <ele>745.0</ele>
        <time>2020-07-19T09:29:49.078Z</time>
      </trkpt>
      <trkpt lat="41.66597667" lon="-4.74726167">
        <ele>745.0</ele>
        <time>2020-07-19T09:29:50.078Z</time>
      </trkpt>
      <trkpt lat="41.665975" lon="-4.74720833">
        <ele>745.0</ele>
        <time>2020-07-19T09:29:51.078Z</time>
      </trkpt>
      <trkpt lat="41.665975" lon="-4.74715333">
        <ele>745.0</ele>
        <time>2020-07-19T09:29:52.078Z</time>
      </trkpt>
      <trkpt lat="41.66597" lon="-4.74710333">
        <ele>745.0</ele>
        <time>2020-07-19T09:29:53.078Z</time>
      </trkpt>
      <trkpt lat="41.66596667" lon="-4.74706167">
        <ele>745.0</ele>
        <time>2020-07-19T09:29:54.078Z</time>
      </trkpt>
      <trkpt lat="41.66596333" lon="-4.74698833">
        <ele>745.0</ele>
        <time>2020-07-19T09:29:55.078Z</time>
      </trkpt>
      <trkpt lat="41.66596667" lon="-4.74695833">
        <ele>745.0</ele>
        <time>2020-07-19T09:29:56.078Z</time>
      </trkpt>
      <trkpt lat="41.66597167" lon="-4.746935">
        <ele>745.0</ele>
        <time>2020-07-19T09:29:57.078Z</time>
      </trkpt>
      <trkpt lat="41.665975" lon="-4.74692167">
        <ele>745.0</ele>
        <time>2020-07-19T09:29:58.078Z</time>
      </trkpt>
      <trkpt lat="41.665975" lon="-4.74692167">
        <ele>745.0</ele>
        <time>2020-07-19T09:29:59.078Z</time>
      </trkpt>
      <trkpt lat="41.66597833" lon="-4.74690833">
        <ele>745.0</ele>
        <time>2020-07-19T09:30:00.078Z</time>
      </trkpt>
      <trkpt lat="41.66597833" lon="-4.746905">
        <ele>745.0</ele>
        <time>2020-07-19T09:30:01.078Z</time>
      </trkpt>
      <trkpt lat="41.66601667" lon="-4.746445">
        <ele>746.0</ele>
        <time>2020-07-19T09:31:42.000Z</time>
      </trkpt>
      <trkpt lat="41.66601833" lon="-4.74644333">
        <ele>746.0</ele>
        <time>2020-07-19T09:31:43.000Z</time>
      </trkpt>
      <trkpt lat="41.66602" lon="-4.74644333">
        <ele>746.0</ele>
        <time>2020-07-19T09:31:44.000Z</time>
      </trkpt>
      <trkpt lat="41.66602333" lon="-4.74644333">
        <ele>746.0</ele>
        <time>2020-07-19T09:31:45.000Z</time>
      </trkpt>
      <trkpt lat="41.666025" lon="-4.74644333">
        <ele>746.0</ele>
        <time>2020-07-19T09:31:46.000Z</time>
      </trkpt>
      <trkpt lat="41.66602667" lon="-4.74644167">
        <ele>746.0</ele>
        <time>2020-07-19T09:31:47.000Z</time>
      </trkpt>
      <trkpt lat="41.66602833" lon="-4.74644167">
        <ele>746.0</ele>
        <time>2020-07-19T09:31:48.000Z</time>
      </trkpt>
      <trkpt lat="41.66603" lon="-4.74644167">
        <ele>746.0</ele>
        <time>2020-07-19T09:31:49.000Z</time>
      </trkpt>
      <trkpt lat="41.66603167" lon="-4.74644167">
        <ele>746.0</ele>
        <time>2020-07-19T09:31:50.000Z</time>
      </trkpt>
      <trkpt lat="41.66603333" lon="-4.74644167">
        <ele>745.0</ele>
        <time>2020-07-19T09:31:51.000Z</time>
      </trkpt>
      <trkpt lat="41.666035" lon="-4.74644">
        <ele>745.0</ele>
        <time>2020-07-19T09:31:52.000Z</time>
      </trkpt>
      <trkpt lat="41.66603833" lon="-4.74644">
        <ele>745.0</ele>
        <time>2020-07-19T09:31:53.000Z</time>
      </trkpt>
      <trkpt lat="41.66603833" lon="-4.74644">
        <ele>745.0</ele>
        <time>2020-07-19T09:31:54.000Z</time>
      </trkpt>
      <trkpt lat="41.66603833" lon="-4.74643833">
        <ele>745.0</ele>
        <time>2020-07-19T09:31:55.000Z</time>
      </trkpt>
      <trkpt lat="41.66604" lon="-4.74643833">
        <ele>745.0</ele>
        <time>2020-07-19T09:31:56.000Z</time>
      </trkpt>
      <trkpt lat="41.66604" lon="-4.74643833">
        <ele>745.0</ele>
        <time>2020-07-19T09:31:57.000Z</time>
      </trkpt>
      <trkpt lat="41.66603833" lon="-4.74643833">
        <ele>745.0</ele>
        <time>2020-07-19T09:31:58.000Z</time>
      </trkpt>
      <trkpt lat="41.66603667" lon="-4.746435">
        <ele>745.0</ele>
        <time>2020-07-19T09:31:59.000Z</time>
      </trkpt>
      <trkpt lat="41.666035" lon="-4.74643">
        <ele>746.0</ele>
        <time>2020-07-19T09:32:00.000Z</time>
      </trkpt>
      <trkpt lat="41.66603167" lon="-4.74641833">
        <ele>746.0</ele>
        <time>2020-07-19T09:32:01.000Z</time>
      </trkpt>
      <trkpt lat="41.66603" lon="-4.74640333">
        <ele>746.0</ele>
        <time>2020-07-19T09:32:02.000Z</time>
      </trkpt>
      <trkpt lat="41.66602833" lon="-4.746385">
        <ele>746.0</ele>
        <time>2020-07-19T09:32:03.000Z</time>
      </trkpt>
      <trkpt lat="41.66602333" lon="-4.74636833">
        <ele>747.0</ele>
        <time>2020-07-19T09:32:04.000Z</time>
      </trkpt>
      <trkpt lat="41.66602" lon="-4.74635167">
        <ele>747.0</ele>
        <time>2020-07-19T09:32:05.000Z</time>
      </trkpt>
      <trkpt lat="41.666015" lon="-4.74633667">
        <ele>747.0</ele>
        <time>2020-07-19T09:32:06.000Z</time>
      </trkpt>
      <trkpt lat="41.66601167" lon="-4.74632">
        <ele>747.0</ele>
        <time>2020-07-19T09:32:07.000Z</time>
      </trkpt>
      <trkpt lat="41.66601" lon="-4.746305">
        <ele>747.0</ele>
        <time>2020-07-19T09:32:08.000Z</time>
      </trkpt>
      <trkpt lat="41.66600667" lon="-4.74628833">
        <ele>748.0</ele>
        <time>2020-07-19T09:32:09.000Z</time>
      </trkpt>
      <trkpt lat="41.666005" lon="-4.746275">
        <ele>749.0</ele>
        <time>2020-07-19T09:32:10.000Z</time>
      </trkpt>
      <trkpt lat="41.66600333" lon="-4.74625833">
        <ele>749.0</ele>
        <time>2020-07-19T09:32:11.000Z</time>
      </trkpt>
      <trkpt lat="41.66600167" lon="-4.74624167">
        <ele>749.0</ele>
        <time>2020-07-19T09:32:12.000Z</time>
      </trkpt>
      <trkpt lat="41.666" lon="-4.74622667">
        <ele>749.0</ele>
        <time>2020-07-19T09:32:13.000Z</time>
      </trkpt>
      <trkpt lat="41.66600167" lon="-4.746215">
        <ele>750.0</ele>
        <time>2020-07-19T09:32:14.000Z</time>
      </trkpt>
      <trkpt lat="41.666005" lon="-4.74620167">
        <ele>750.0</ele>
        <time>2020-07-19T09:32:15.000Z</time>
      </trkpt>
      <trkpt lat="41.666005" lon="-4.74618833">
        <ele>750.0</ele>
        <time>2020-07-19T09:32:16.000Z</time>
      </trkpt>
      <trkpt lat="41.666005" lon="-4.74617667">
        <ele>750.0</ele>
        <time>2020-07-19T09:32:17.000Z</time>
      </trkpt>
      <trkpt lat="41.666005" lon="-4.74616333">
        <ele>751.0</ele>
        <time>2020-07-19T09:32:18.000Z</time>
      </trkpt>
      <trkpt lat="41.66600667" lon="-4.74615167">
        <ele>751.0</ele>
        <time>2020-07-19T09:32:19.000Z</time>
      </trkpt>
      <trkpt lat="41.66600667" lon="-4.74614">
        <ele>751.0</ele>
        <time>2020-07-19T09:32:20.000Z</time>
      </trkpt>
      <trkpt lat="41.66600667" lon="-4.74612667">
        <ele>752.0</ele>
        <time>2020-07-19T09:32:21.000Z</time>
      </trkpt>
      <trkpt lat="41.666005" lon="-4.746115">
        <ele>752.0</ele>
        <time>2020-07-19T09:32:22.000Z</time>
      </trkpt>
      <trkpt lat="41.666005" lon="-4.74610333">
        <ele>752.0</ele>
        <time>2020-07-19T09:32:23.000Z</time>
      </trkpt>
      <trkpt lat="41.666005" lon="-4.74609333">
        <ele>752.0</ele>
        <time>2020-07-19T09:32:24.000Z</time>
      </trkpt>
      <trkpt lat="41.666005" lon="-4.746085">
        <ele>752.0</ele>
        <time>2020-07-19T09:32:25.000Z</time>
      </trkpt>
      <trkpt lat="41.66600667" lon="-4.74607833">
        <ele>753.0</ele>
        <time>2020-07-19T09:32:26.000Z</time>
      </trkpt>
      <trkpt lat="41.666005" lon="-4.74606833">
        <ele>753.0</ele>
        <time>2020-07-19T09:32:27.000Z</time>
      </trkpt>
      <trkpt lat="41.666005" lon="-4.74606167">
        <ele>753.0</ele>
        <time>2020-07-19T09:32:28.000Z</time>
      </trkpt>
      <trkpt lat="41.666005" lon="-4.746055">
        <ele>753.0</ele>
        <time>2020-07-19T09:32:29.000Z</time>
      </trkpt>
      <trkpt lat="41.666005" lon="-4.74605167">
        <ele>753.0</ele>
        <time>2020-07-19T09:32:30.000Z</time>
      </trkpt>
      <trkpt lat="41.66600667" lon="-4.74604667">
        <ele>754.0</ele>
        <time>2020-07-19T09:32:31.000Z</time>
      </trkpt>
      <trkpt lat="41.66600667" lon="-4.74603667">
        <ele>754.0</ele>
        <time>2020-07-19T09:32:32.000Z</time>
      </trkpt>
      <trkpt lat="41.66600667" lon="-4.74602833">
        <ele>754.0</ele>
        <time>2020-07-19T09:32:33.000Z</time>
      </trkpt>
      <trkpt lat="41.66601" lon="-4.74602">
        <ele>754.0</ele>
        <time>2020-07-19T09:32:34.000Z</time>
      </trkpt>
      <trkpt lat="41.66601333" lon="-4.74601333">
        <ele>754.0</ele>
        <time>2020-07-19T09:32:35.000Z</time>
      </trkpt>
      <trkpt lat="41.66601667" lon="-4.74600667">
        <ele>754.0</ele>
        <time>2020-07-19T09:32:36.000Z</time>
      </trkpt>
      <trkpt lat="41.66602333" lon="-4.74600167">
        <ele>755.0</ele>
        <time>2020-07-19T09:32:37.000Z</time>
      </trkpt>
      <trkpt lat="41.66602833" lon="-4.74599667">
        <ele>755.0</ele>
        <time>2020-07-19T09:32:38.000Z</time>
      </trkpt>
      <trkpt lat="41.66603167" lon="-4.74599333">
        <ele>755.0</ele>
        <time>2020-07-19T09:32:39.000Z</time>
      </trkpt>
      <trkpt lat="41.666035" lon="-4.74599167">
        <ele>755.0</ele>
        <time>2020-07-19T09:32:40.000Z</time>
      </trkpt>
      <trkpt lat="41.66603667" lon="-4.74598833">
        <ele>755.0</ele>
        <time>2020-07-19T09:32:41.000Z</time>
      </trkpt>
      <trkpt lat="41.66604" lon="-4.74598667">
        <ele>755.0</ele>
        <time>2020-07-19T09:32:42.000Z</time>
      </trkpt>
      <trkpt lat="41.66604" lon="-4.74598667">
        <ele>755.0</ele>
        <time>2020-07-19T09:32:43.000Z</time>
      </trkpt>
      <trkpt lat="41.66604" lon="-4.74598667">
        <ele>755.0</ele>
        <time>2020-07-19T09:32:44.000Z</time>
      </trkpt>
      <trkpt lat="41.66603833" lon="-4.74598667">
        <ele>755.0</ele>
        <time>2020-07-19T09:32:45.000Z</time>
      </trkpt>
      <trkpt lat="41.66603833" lon="-4.74598667">
        <ele>755.0</ele>
        <time>2020-07-19T09:32:46.000Z</time>
      </trkpt>
      <trkpt lat="41.66603833" lon="-4.74598833">
        <ele>755.0</ele>
        <time>2020-07-19T09:32:47.000Z</time>
      </trkpt>
      <trkpt lat="41.66603667" lon="-4.74598833">
        <ele>755.0</ele>
        <time>2020-07-19T09:32:48.000Z</time>
      </trkpt>
      <trkpt lat="41.66603667" lon="-4.74598833">
        <ele>755.0</ele>
        <time>2020-07-19T09:32:49.000Z</time>
      </trkpt>
      <trkpt lat="41.66603667" lon="-4.74598833">
        <ele>755.0</ele>
        <time>2020-07-19T09:32:50.000Z</time>
      </trkpt>
      <trkpt lat="41.66603667" lon="-4.74598833">
        <ele>755.0</ele>
        <time>2020-07-19T09:32:51.000Z</time>
      </trkpt>
      <trkpt lat="41.66603667" lon="-4.74598833">
        <ele>755.0</ele>
        <time>2020-07-19T09:32:52.000Z</time>
      </trkpt>
      <trkpt lat="41.66603667" lon="-4.74598833">
        <ele>755.0</ele>
        <time>2020-07-19T09:32:53.000Z</time>
      </trkpt>
      <trkpt lat="41.66603667" lon="-4.74598833">
        <ele>755.0</ele>
        <time>2020-07-19T09:32:54.000Z</time>
      </trkpt>
      <trkpt lat="41.66603667" lon="-4.74598833">
        <ele>755.0</ele>
        <time>2020-07-19T09:32:55.000Z</time>
      </trkpt>
      <trkpt lat="41.66603667" lon="-4.74598833">
        <ele>755.0</ele>
        <time>2020-07-19T09:32:56.000Z</time>
      </trkpt>
      <trkpt lat="41.66603667" lon="-4.74598833">
        <ele>755.0</ele>
        <time>2020-07-19T09:32:57.000Z</time>
      </trkpt>
      <trkpt lat="41.66603667" lon="-4.74598833">
        <ele>755.0</ele>
        <time>2020-07-19T09:32:58.000Z</time>
      </trkpt>
      <trkpt lat="41.666035" lon="-4.74598833">
        <ele>755.0</ele>
        <time>2020-07-19T09:32:59.000Z</time>
      </trkpt>
      <trkpt lat="41.666035" lon="-4.74598833">
        <ele>755.0</ele>
        <time>2020-07-19T09:33:00.000Z</time>
      </trkpt>
      <trkpt lat="41.66603667" lon="-4.74598333">
        <ele>755.0</ele>
        <time>2020-07-19T09:33:01.000Z</time>
      </trkpt>
      <trkpt lat="41.66603667" lon="-4.74598167">
        <ele>755.0</ele>
        <time>2020-07-19T09:33:02.000Z</time>
      </trkpt>
      <trkpt lat="41.66603833" lon="-4.74598167">
        <ele>755.0</ele>
        <time>2020-07-19T09:33:03.000Z</time>
      </trkpt>
      <trkpt lat="41.66604167" lon="-4.74598">
        <ele>755.0</ele>
        <time>2020-07-19T09:33:04.000Z</time>
      </trkpt>
      <trkpt lat="41.666045" lon="-4.74597833">
        <ele>755.0</ele>
        <time>2020-07-19T09:33:05.000Z</time>
      </trkpt>
      <trkpt lat="41.66604833" lon="-4.74597167">
        <ele>755.0</ele>
        <time>2020-07-19T09:33:06.000Z</time>
      </trkpt>
      <trkpt lat="41.666055" lon="-4.74596833">
        <ele>755.0</ele>
        <time>2020-07-19T09:33:07.000Z</time>
      </trkpt>
      <trkpt lat="41.66606" lon="-4.745965">
        <ele>755.0</ele>
        <time>2020-07-19T09:33:08.000Z</time>
      </trkpt>
      <trkpt lat="41.66606333" lon="-4.74596333">
        <ele>755.0</ele>
        <time>2020-07-19T09:33:09.000Z</time>
      </trkpt>
      <trkpt lat="41.66606333" lon="-4.74596333">
        <ele>755.0</ele>
        <time>2020-07-19T09:33:10.000Z</time>
      </trkpt>
      <trkpt lat="41.66606" lon="-4.74596333">
        <ele>755.0</ele>
        <time>2020-07-19T09:33:11.000Z</time>
      </trkpt>
      <trkpt lat="41.66605667" lon="-4.745965">
        <ele>755.0</ele>
        <time>2020-07-19T09:33:12.000Z</time>
      </trkpt>
      <trkpt lat="41.66605" lon="-4.74597">
        <ele>755.0</ele>
        <time>2020-07-19T09:33:13.000Z</time>
      </trkpt>
      <trkpt lat="41.66604167" lon="-4.745975">
        <ele>754.0</ele>
        <time>2020-07-19T09:33:14.000Z</time>
      </trkpt>
      <trkpt lat="41.666035" lon="-4.74598167">
        <ele>754.0</ele>
        <time>2020-07-19T09:33:15.000Z</time>
      </trkpt>
      <trkpt lat="41.66602667" lon="-4.74598833">
        <ele>754.0</ele>
        <time>2020-07-19T09:33:16.000Z</time>
      </trkpt>
      <trkpt lat="41.66602167" lon="-4.74599333">
        <ele>754.0</ele>
        <time>2020-07-19T09:33:17.000Z</time>
      </trkpt>
      <trkpt lat="41.66601833" lon="-4.74599667">
        <ele>754.0</ele>
        <time>2020-07-19T09:33:18.000Z</time>
      </trkpt>
      <trkpt lat="41.666015" lon="-4.74600167">
        <ele>754.0</ele>
        <time>2020-07-19T09:33:19.000Z</time>
      </trkpt>
      <trkpt lat="41.66601" lon="-4.74600667">
        <ele>754.0</ele>
        <time>2020-07-19T09:33:20.000Z</time>
      </trkpt>
      <trkpt lat="41.66600833" lon="-4.74601333">
        <ele>754.0</ele>
        <time>2020-07-19T09:33:21.000Z</time>
      </trkpt>
      <trkpt lat="41.666005" lon="-4.74601833">
        <ele>754.0</ele>
        <time>2020-07-19T09:33:22.000Z</time>
      </trkpt>
      <trkpt lat="41.66600333" lon="-4.74602333">
        <ele>754.0</ele>
        <time>2020-07-19T09:33:23.000Z</time>
      </trkpt>
      <trkpt lat="41.66600333" lon="-4.74603167">
        <ele>754.0</ele>
        <time>2020-07-19T09:33:24.000Z</time>
      </trkpt>
      <trkpt lat="41.666005" lon="-4.74604">
        <ele>754.0</ele>
        <time>2020-07-19T09:33:25.000Z</time>
      </trkpt>
      <trkpt lat="41.66600667" lon="-4.74604667">
        <ele>754.0</ele>
        <time>2020-07-19T09:33:26.000Z</time>
      </trkpt>
      <trkpt lat="41.666005" lon="-4.74604833">
        <ele>754.0</ele>
        <time>2020-07-19T09:33:27.000Z</time>
      </trkpt>
      <trkpt lat="41.66600333" lon="-4.74605333">
        <ele>754.0</ele>
        <time>2020-07-19T09:33:28.000Z</time>
      </trkpt>
      <trkpt lat="41.666005" lon="-4.74606167">
        <ele>754.0</ele>
        <time>2020-07-19T09:33:29.000Z</time>
      </trkpt>
      <trkpt lat="41.666005" lon="-4.74607">
        <ele>753.0</ele>
        <time>2020-07-19T09:33:30.000Z</time>
      </trkpt>
      <trkpt lat="41.666005" lon="-4.74607667">
        <ele>753.0</ele>
        <time>2020-07-19T09:33:31.000Z</time>
      </trkpt>
      <trkpt lat="41.66600333" lon="-4.746085">
        <ele>753.0</ele>
        <time>2020-07-19T09:33:32.000Z</time>
      </trkpt>
      <trkpt lat="41.66600167" lon="-4.74609667">
        <ele>753.0</ele>
        <time>2020-07-19T09:33:33.000Z</time>
      </trkpt>
      <trkpt lat="41.66600167" lon="-4.74610333">
        <ele>753.0</ele>
        <time>2020-07-19T09:33:34.000Z</time>
      </trkpt>
      <trkpt lat="41.66600167" lon="-4.746105">
        <ele>753.0</ele>
        <time>2020-07-19T09:33:35.000Z</time>
      </trkpt>
      <trkpt lat="41.666" lon="-4.746105">
        <ele>753.0</ele>
        <time>2020-07-19T09:33:36.000Z</time>
      </trkpt>
      <trkpt lat="41.666" lon="-4.74610667">
        <ele>753.0</ele>
        <time>2020-07-19T09:33:37.000Z</time>
      </trkpt>
      <trkpt lat="41.66599667" lon="-4.74610833">
        <ele>753.0</ele>
        <time>2020-07-19T09:33:38.000Z</time>
      </trkpt>
      <trkpt lat="41.66599667" lon="-4.74610833">
        <ele>753.0</ele>
        <time>2020-07-19T09:33:39.000Z</time>
      </trkpt>
      <trkpt lat="41.66599667" lon="-4.74611">
        <ele>752.0</ele>
        <time>2020-07-19T09:33:40.000Z</time>
      </trkpt>
      <trkpt lat="41.66599833" lon="-4.74611333">
        <ele>752.0</ele>
        <time>2020-07-19T09:33:41.000Z</time>
      </trkpt>
      <trkpt lat="41.66599833" lon="-4.74611833">
        <ele>752.0</ele>
        <time>2020-07-19T09:33:42.000Z</time>
      </trkpt>
      <trkpt lat="41.66599833" lon="-4.746125">
        <ele>752.0</ele>
        <time>2020-07-19T09:33:43.000Z</time>
      </trkpt>
      <trkpt lat="41.666" lon="-4.74613167">
        <ele>752.0</ele>
        <time>2020-07-19T09:33:44.000Z</time>
      </trkpt>
      <trkpt lat="41.666" lon="-4.74613833">
        <ele>752.0</ele>
        <time>2020-07-19T09:33:45.000Z</time>
      </trkpt>
      <trkpt lat="41.66599833" lon="-4.74614333">
        <ele>752.0</ele>
        <time>2020-07-19T09:33:46.000Z</time>
      </trkpt>
      <trkpt lat="41.66599833" lon="-4.74614667">
        <ele>752.0</ele>
        <time>2020-07-19T09:33:47.000Z</time>
      </trkpt>
      <trkpt lat="41.666" lon="-4.74615333">
        <ele>752.0</ele>
        <time>2020-07-19T09:33:48.000Z</time>
      </trkpt>
      <trkpt lat="41.66599833" lon="-4.74616333">
        <ele>752.0</ele>
        <time>2020-07-19T09:33:49.000Z</time>
      </trkpt>
      <trkpt lat="41.66599667" lon="-4.746175">
        <ele>752.0</ele>
        <time>2020-07-19T09:33:50.000Z</time>
      </trkpt>
      <trkpt lat="41.665995" lon="-4.74619">
        <ele>752.0</ele>
        <time>2020-07-19T09:33:51.000Z</time>
      </trkpt>
      <trkpt lat="41.66599333" lon="-4.74621167">
        <ele>752.0</ele>
        <time>2020-07-19T09:33:52.000Z</time>
      </trkpt>
      <trkpt lat="41.665995" lon="-4.746235">
        <ele>752.0</ele>
        <time>2020-07-19T09:33:53.000Z</time>
      </trkpt>
      <trkpt lat="41.66599667" lon="-4.74625667">
        <ele>752.0</ele>
        <time>2020-07-19T09:33:54.000Z</time>
      </trkpt>
      <trkpt lat="41.66599833" lon="-4.74628">
        <ele>752.0</ele>
        <time>2020-07-19T09:33:55.000Z</time>
      </trkpt>
      <trkpt lat="41.66600167" lon="-4.74630333">
        <ele>752.0</ele>
        <time>2020-07-19T09:33:56.000Z</time>
      </trkpt>
      <trkpt lat="41.666005" lon="-4.74632667">
        <ele>752.0</ele>
        <time>2020-07-19T09:33:57.000Z</time>
      </trkpt>
      <trkpt lat="41.66600833" lon="-4.74634333">
        <ele>752.0</ele>
        <time>2020-07-19T09:33:58.000Z</time>
      </trkpt>
      <trkpt lat="41.66601" lon="-4.74636">
        <ele>752.0</ele>
        <time>2020-07-19T09:33:59.000Z</time>
      </trkpt>
      <trkpt lat="41.66601167" lon="-4.74637667">
        <ele>752.0</ele>
        <time>2020-07-19T09:34:00.000Z</time>
      </trkpt>
      <trkpt lat="41.66601333" lon="-4.74639167">
        <ele>752.0</ele>
        <time>2020-07-19T09:34:01.000Z</time>
      </trkpt>
      <trkpt lat="41.66601667" lon="-4.74640667">
        <ele>752.0</ele>
        <time>2020-07-19T09:34:02.000Z</time>
      </trkpt>
      <trkpt lat="41.66602333" lon="-4.74641833">
        <ele>751.0</ele>
        <time>2020-07-19T09:34:03.000Z</time>
      </trkpt>
      <trkpt lat="41.66602667" lon="-4.74643167">
        <ele>751.0</ele>
        <time>2020-07-19T09:34:04.000Z</time>
      </trkpt>
      <trkpt lat="41.66603167" lon="-4.74645333">
        <ele>751.0</ele>
        <time>2020-07-19T09:34:05.000Z</time>
      </trkpt>
      <trkpt lat="41.666035" lon="-4.74647833">
        <ele>751.0</ele>
        <time>2020-07-19T09:34:06.000Z</time>
      </trkpt>
      <trkpt lat="41.66604" lon="-4.74650333">
        <ele>751.0</ele>
        <time>2020-07-19T09:34:07.000Z</time>
      </trkpt>
      <trkpt lat="41.666045" lon="-4.74652833">
        <ele>751.0</ele>
        <time>2020-07-19T09:34:08.000Z</time>
      </trkpt>
      <trkpt lat="41.66605167" lon="-4.74655167">
        <ele>751.0</ele>
        <time>2020-07-19T09:34:09.000Z</time>
      </trkpt>
      <trkpt lat="41.66605667" lon="-4.74657667">
        <ele>751.0</ele>
        <time>2020-07-19T09:34:10.000Z</time>
      </trkpt>
      <trkpt lat="41.66606333" lon="-4.74659833">
        <ele>751.0</ele>
        <time>2020-07-19T09:34:11.000Z</time>
      </trkpt>
      <trkpt lat="41.66606667" lon="-4.74662333">
        <ele>751.0</ele>
        <time>2020-07-19T09:34:12.000Z</time>
      </trkpt>
      <trkpt lat="41.66607" lon="-4.74665">
        <ele>751.0</ele>
        <time>2020-07-19T09:34:13.000Z</time>
      </trkpt>
      <trkpt lat="41.66607167" lon="-4.746675">
        <ele>751.0</ele>
        <time>2020-07-19T09:34:14.000Z</time>
      </trkpt>
      <trkpt lat="41.66607167" lon="-4.74669833">
        <ele>750.0</ele>
        <time>2020-07-19T09:34:15.000Z</time>
      </trkpt>
      <trkpt lat="41.66607167" lon="-4.74671833">
        <ele>750.0</ele>
        <time>2020-07-19T09:34:16.000Z</time>
      </trkpt>
      <trkpt lat="41.66607167" lon="-4.74673833">
        <ele>750.0</ele>
        <time>2020-07-19T09:34:17.000Z</time>
      </trkpt>
      <trkpt lat="41.66607" lon="-4.746755">
        <ele>750.0</ele>
        <time>2020-07-19T09:34:18.000Z</time>
      </trkpt>
      <trkpt lat="41.666065" lon="-4.74677333">
        <ele>750.0</ele>
        <time>2020-07-19T09:34:19.000Z</time>
      </trkpt>
      <trkpt lat="41.66606" lon="-4.74679">
        <ele>750.0</ele>
        <time>2020-07-19T09:34:20.000Z</time>
      </trkpt>
      <trkpt lat="41.666055" lon="-4.746805">
        <ele>750.0</ele>
        <time>2020-07-19T09:34:21.000Z</time>
      </trkpt>
      <trkpt lat="41.66605" lon="-4.74682333">
        <ele>750.0</ele>
        <time>2020-07-19T09:34:22.000Z</time>
      </trkpt>
      <trkpt lat="41.66604833" lon="-4.74684">
        <ele>750.0</ele>
        <time>2020-07-19T09:34:23.000Z</time>
      </trkpt>
      <trkpt lat="41.66604833" lon="-4.74684167">
        <ele>750.0</ele>
        <time>2020-07-19T09:34:24.000Z</time>
      </trkpt>
      <trkpt lat="41.66605333" lon="-4.74684667">
        <ele>750.0</ele>
        <time>2020-07-19T09:34:25.000Z</time>
      </trkpt>
      <trkpt lat="41.66606167" lon="-4.74685333">
        <ele>750.0</ele>
        <time>2020-07-19T09:34:26.000Z</time>
      </trkpt>
      <trkpt lat="41.66607167" lon="-4.74686333">
        <ele>750.0</ele>
        <time>2020-07-19T09:34:27.000Z</time>
      </trkpt>
      <trkpt lat="41.66608833" lon="-4.746875">
        <ele>750.0</ele>
        <time>2020-07-19T09:34:28.000Z</time>
      </trkpt>
      <trkpt lat="41.66610833" lon="-4.74688333">
        <ele>750.0</ele>
        <time>2020-07-19T09:34:29.000Z</time>
      </trkpt>
      <trkpt lat="41.66613" lon="-4.74688833">
        <ele>750.0</ele>
        <time>2020-07-19T09:34:30.000Z</time>
      </trkpt>
      <trkpt lat="41.66615167" lon="-4.74689333">
        <ele>750.0</ele>
        <time>2020-07-19T09:34:31.000Z</time>
      </trkpt>
      <trkpt lat="41.66617167" lon="-4.7469">
        <ele>750.0</ele>
        <time>2020-07-19T09:34:32.000Z</time>
      </trkpt>
      <trkpt lat="41.66619" lon="-4.74690833">
        <ele>749.0</ele>
        <time>2020-07-19T09:34:33.000Z</time>
      </trkpt>
      <trkpt lat="41.66620833" lon="-4.746915">
        <ele>749.0</ele>
        <time>2020-07-19T09:34:34.000Z</time>
      </trkpt>
      <trkpt lat="41.66622667" lon="-4.746925">
        <ele>749.0</ele>
        <time>2020-07-19T09:34:35.000Z</time>
      </trkpt>
      <trkpt lat="41.66624833" lon="-4.746935">
        <ele>749.0</ele>
        <time>2020-07-19T09:34:36.000Z</time>
      </trkpt>
      <trkpt lat="41.66627167" lon="-4.74694333">
        <ele>749.0</ele>
        <time>2020-07-19T09:34:37.000Z</time>
      </trkpt>
      <trkpt lat="41.66629333" lon="-4.74695333">
        <ele>750.0</ele>
        <time>2020-07-19T09:34:38.000Z</time>
      </trkpt>
      <trkpt lat="41.666315" lon="-4.74696333">
        <ele>750.0</ele>
        <time>2020-07-19T09:34:39.000Z</time>
      </trkpt>
      <trkpt lat="41.666335" lon="-4.74697167">
        <ele>750.0</ele>
        <time>2020-07-19T09:34:40.000Z</time>
      </trkpt>
      <trkpt lat="41.66635167" lon="-4.74697833">
        <ele>750.0</ele>
        <time>2020-07-19T09:34:41.000Z</time>
      </trkpt>
      <trkpt lat="41.66636833" lon="-4.74698833">
        <ele>750.0</ele>
        <time>2020-07-19T09:34:42.000Z</time>
      </trkpt>
      <trkpt lat="41.666385" lon="-4.74700167">
        <ele>750.0</ele>
        <time>2020-07-19T09:34:43.000Z</time>
      </trkpt>
      <trkpt lat="41.6664" lon="-4.74701833">
        <ele>750.0</ele>
        <time>2020-07-19T09:34:44.000Z</time>
      </trkpt>
      <trkpt lat="41.66641333" lon="-4.74703667">
        <ele>750.0</ele>
        <time>2020-07-19T09:34:45.000Z</time>
      </trkpt>
      <trkpt lat="41.66642667" lon="-4.74705667">
        <ele>750.0</ele>
        <time>2020-07-19T09:34:46.000Z</time>
      </trkpt>
      <trkpt lat="41.66643667" lon="-4.747075">
        <ele>750.0</ele>
        <time>2020-07-19T09:34:47.000Z</time>
      </trkpt>
      <trkpt lat="41.66644667" lon="-4.74709167">
        <ele>750.0</ele>
        <time>2020-07-19T09:34:48.000Z</time>
      </trkpt>
      <trkpt lat="41.666455" lon="-4.74710667">
        <ele>750.0</ele>
        <time>2020-07-19T09:34:49.000Z</time>
      </trkpt>
      <trkpt lat="41.66646" lon="-4.747125">
        <ele>750.0</ele>
        <time>2020-07-19T09:34:50.000Z</time>
      </trkpt>
      <trkpt lat="41.666465" lon="-4.747145">
        <ele>750.0</ele>
        <time>2020-07-19T09:34:51.000Z</time>
      </trkpt>
      <trkpt lat="41.66646833" lon="-4.747165">
        <ele>750.0</ele>
        <time>2020-07-19T09:34:52.000Z</time>
      </trkpt>
      <trkpt lat="41.66647167" lon="-4.74718333">
        <ele>750.0</ele>
        <time>2020-07-19T09:34:53.000Z</time>
      </trkpt>
      <trkpt lat="41.66647333" lon="-4.7472">
        <ele>750.0</ele>
        <time>2020-07-19T09:34:54.000Z</time>
      </trkpt>
      <trkpt lat="41.66647833" lon="-4.74722">
        <ele>750.0</ele>
        <time>2020-07-19T09:34:55.000Z</time>
      </trkpt>
      <trkpt lat="41.666485" lon="-4.74723833">
        <ele>750.0</ele>
        <time>2020-07-19T09:34:56.000Z</time>
      </trkpt>
      <trkpt lat="41.66649333" lon="-4.74725833">
        <ele>749.0</ele>
        <time>2020-07-19T09:34:57.000Z</time>
      </trkpt>
      <trkpt lat="41.66650333" lon="-4.74728">
        <ele>749.0</ele>
        <time>2020-07-19T09:34:58.000Z</time>
      </trkpt>
      <trkpt lat="41.66651167" lon="-4.74729667">
        <ele>750.0</ele>
        <time>2020-07-19T09:34:59.000Z</time>
      </trkpt>
      <trkpt lat="41.66652167" lon="-4.74731333">
        <ele>750.0</ele>
        <time>2020-07-19T09:35:00.000Z</time>
      </trkpt>
      <trkpt lat="41.66653167" lon="-4.74733">
        <ele>750.0</ele>
        <time>2020-07-19T09:35:01.000Z</time>
      </trkpt>
      <trkpt lat="41.66654167" lon="-4.747345">
        <ele>750.0</ele>
        <time>2020-07-19T09:35:02.000Z</time>
      </trkpt>
      <trkpt lat="41.66655167" lon="-4.74735833">
        <ele>750.0</ele>
        <time>2020-07-19T09:35:03.000Z</time>
      </trkpt>
      <trkpt lat="41.66656333" lon="-4.74736833">
        <ele>750.0</ele>
        <time>2020-07-19T09:35:04.000Z</time>
      </trkpt>
      <trkpt lat="41.666575" lon="-4.74738">
        <ele>750.0</ele>
        <time>2020-07-19T09:35:05.000Z</time>
      </trkpt>
      <trkpt lat="41.66658667" lon="-4.74739333">
        <ele>750.0</ele>
        <time>2020-07-19T09:35:06.000Z</time>
      </trkpt>
      <trkpt lat="41.6666" lon="-4.74740667">
        <ele>750.0</ele>
        <time>2020-07-19T09:35:07.000Z</time>
      </trkpt>
      <trkpt lat="41.666615" lon="-4.747415">
        <ele>750.0</ele>
        <time>2020-07-19T09:35:08.000Z</time>
      </trkpt>
      <trkpt lat="41.66662667" lon="-4.747425">
        <ele>750.0</ele>
        <time>2020-07-19T09:35:09.000Z</time>
      </trkpt>
      <trkpt lat="41.66663833" lon="-4.74743667">
        <ele>750.0</ele>
        <time>2020-07-19T09:35:10.000Z</time>
      </trkpt>
      <trkpt lat="41.66664667" lon="-4.74745167">
        <ele>750.0</ele>
        <time>2020-07-19T09:35:11.000Z</time>
      </trkpt>
      <trkpt lat="41.66665667" lon="-4.74746333">
        <ele>750.0</ele>
        <time>2020-07-19T09:35:12.000Z</time>
      </trkpt>
      <trkpt lat="41.66666333" lon="-4.74747667">
        <ele>750.0</ele>
        <time>2020-07-19T09:35:13.000Z</time>
      </trkpt>
      <trkpt lat="41.66667333" lon="-4.74749">
        <ele>750.0</ele>
        <time>2020-07-19T09:35:14.000Z</time>
      </trkpt>
      <trkpt lat="41.66668167" lon="-4.7475">
        <ele>750.0</ele>
        <time>2020-07-19T09:35:15.000Z</time>
      </trkpt>
      <trkpt lat="41.66668667" lon="-4.74751167">
        <ele>750.0</ele>
        <time>2020-07-19T09:35:16.000Z</time>
      </trkpt>
      <trkpt lat="41.66669333" lon="-4.74752333">
        <ele>750.0</ele>
        <time>2020-07-19T09:35:17.000Z</time>
      </trkpt>
      <trkpt lat="41.6667" lon="-4.74753833">
        <ele>750.0</ele>
        <time>2020-07-19T09:35:18.000Z</time>
      </trkpt>
      <trkpt lat="41.66670667" lon="-4.74755">
        <ele>751.0</ele>
        <time>2020-07-19T09:35:19.000Z</time>
      </trkpt>
      <trkpt lat="41.66671333" lon="-4.74756167">
        <ele>751.0</ele>
        <time>2020-07-19T09:35:20.000Z</time>
      </trkpt>
      <trkpt lat="41.66672" lon="-4.747575">
        <ele>751.0</ele>
        <time>2020-07-19T09:35:21.000Z</time>
      </trkpt>
      <trkpt lat="41.66672667" lon="-4.74758667">
        <ele>751.0</ele>
        <time>2020-07-19T09:35:22.000Z</time>
      </trkpt>
      <trkpt lat="41.66673333" lon="-4.74760167">
        <ele>751.0</ele>
        <time>2020-07-19T09:35:23.000Z</time>
      </trkpt>
      <trkpt lat="41.66674167" lon="-4.74761333">
        <ele>751.0</ele>
        <time>2020-07-19T09:35:24.000Z</time>
      </trkpt>
      <trkpt lat="41.66674833" lon="-4.74762667">
        <ele>751.0</ele>
        <time>2020-07-19T09:35:25.000Z</time>
      </trkpt>
      <trkpt lat="41.66675833" lon="-4.74764">
        <ele>751.0</ele>
        <time>2020-07-19T09:35:26.000Z</time>
      </trkpt>
      <trkpt lat="41.66676333" lon="-4.74765">
        <ele>751.0</ele>
        <time>2020-07-19T09:35:27.000Z</time>
      </trkpt>
      <trkpt lat="41.66677167" lon="-4.74766333">
        <ele>751.0</ele>
        <time>2020-07-19T09:35:28.000Z</time>
      </trkpt>
      <trkpt lat="41.66677833" lon="-4.74767833">
        <ele>751.0</ele>
        <time>2020-07-19T09:35:29.000Z</time>
      </trkpt>
      <trkpt lat="41.66678833" lon="-4.74769">
        <ele>751.0</ele>
        <time>2020-07-19T09:35:30.000Z</time>
      </trkpt>
      <trkpt lat="41.666795" lon="-4.74770167">
        <ele>752.0</ele>
        <time>2020-07-19T09:35:31.000Z</time>
      </trkpt>
      <trkpt lat="41.66680167" lon="-4.747715">
        <ele>752.0</ele>
        <time>2020-07-19T09:35:32.000Z</time>
      </trkpt>
      <trkpt lat="41.66680833" lon="-4.74772833">
        <ele>752.0</ele>
        <time>2020-07-19T09:35:33.000Z</time>
      </trkpt>
      <trkpt lat="41.66681667" lon="-4.74774167">
        <ele>752.0</ele>
        <time>2020-07-19T09:35:34.000Z</time>
      </trkpt>
      <trkpt lat="41.666825" lon="-4.74775333">
        <ele>752.0</ele>
        <time>2020-07-19T09:35:35.000Z</time>
      </trkpt>
      <trkpt lat="41.66683333" lon="-4.74776667">
        <ele>752.0</ele>
        <time>2020-07-19T09:35:36.000Z</time>
      </trkpt>
      <trkpt lat="41.66684167" lon="-4.74778167">
        <ele>752.0</ele>
        <time>2020-07-19T09:35:37.000Z</time>
      </trkpt>
      <trkpt lat="41.66685" lon="-4.74779833">
        <ele>752.0</ele>
        <time>2020-07-19T09:35:38.000Z</time>
      </trkpt>
      <trkpt lat="41.66685667" lon="-4.74781167">
        <ele>752.0</ele>
        <time>2020-07-19T09:35:39.000Z</time>
      </trkpt>
      <trkpt lat="41.66686333" lon="-4.74782333">
        <ele>752.0</ele>
        <time>2020-07-19T09:35:40.000Z</time>
      </trkpt>
      <trkpt lat="41.66687" lon="-4.74783667">
        <ele>752.0</ele>
        <time>2020-07-19T09:35:41.000Z</time>
      </trkpt>
      <trkpt lat="41.66687833" lon="-4.74785167">
        <ele>752.0</ele>
        <time>2020-07-19T09:35:42.000Z</time>
      </trkpt>
      <trkpt lat="41.66688333" lon="-4.747865">
        <ele>753.0</ele>
        <time>2020-07-19T09:35:43.000Z</time>
      </trkpt>
      <trkpt lat="41.66689" lon="-4.74788">
        <ele>753.0</ele>
        <time>2020-07-19T09:35:44.000Z</time>
      </trkpt>
      <trkpt lat="41.66689667" lon="-4.74789333">
        <ele>753.0</ele>
        <time>2020-07-19T09:35:45.000Z</time>
      </trkpt>
      <trkpt lat="41.66690167" lon="-4.74790833">
        <ele>753.0</ele>
        <time>2020-07-19T09:35:46.000Z</time>
      </trkpt>
      <trkpt lat="41.66690667" lon="-4.74792333">
        <ele>753.0</ele>
        <time>2020-07-19T09:35:47.000Z</time>
      </trkpt>
      <trkpt lat="41.66691333" lon="-4.74793833">
        <ele>753.0</ele>
        <time>2020-07-19T09:35:48.000Z</time>
      </trkpt>
      <trkpt lat="41.66691833" lon="-4.747955">
        <ele>753.0</ele>
        <time>2020-07-19T09:35:49.000Z</time>
      </trkpt>
      <trkpt lat="41.66692167" lon="-4.74797">
        <ele>753.0</ele>
        <time>2020-07-19T09:35:50.000Z</time>
      </trkpt>
      <trkpt lat="41.66692667" lon="-4.74798833">
        <ele>754.0</ele>
        <time>2020-07-19T09:35:51.000Z</time>
      </trkpt>
      <trkpt lat="41.66693" lon="-4.748005">
        <ele>754.0</ele>
        <time>2020-07-19T09:35:52.000Z</time>
      </trkpt>
      <trkpt lat="41.66693333" lon="-4.74802333">
        <ele>754.0</ele>
        <time>2020-07-19T09:35:53.000Z</time>
      </trkpt>
      <trkpt lat="41.66694" lon="-4.74804">
        <ele>755.0</ele>
        <time>2020-07-19T09:35:54.000Z</time>
      </trkpt>
      <trkpt lat="41.66694667" lon="-4.748055">
        <ele>755.0</ele>
        <time>2020-07-19T09:35:55.000Z</time>
      </trkpt>
      <trkpt lat="41.66695333" lon="-4.74806833">
        <ele>755.0</ele>
        <time>2020-07-19T09:35:56.000Z</time>
      </trkpt>
      <trkpt lat="41.66695833" lon="-4.74808667">
        <ele>755.0</ele>
        <time>2020-07-19T09:35:57.000Z</time>
      </trkpt>
      <trkpt lat="41.666965" lon="-4.74810333">
        <ele>755.0</ele>
        <time>2020-07-19T09:35:58.000Z</time>
      </trkpt>
      <trkpt lat="41.66697" lon="-4.74812">
        <ele>755.0</ele>
        <time>2020-07-19T09:35:59.000Z</time>
      </trkpt>
      <trkpt lat="41.66697667" lon="-4.74813833">
        <ele>755.0</ele>
        <time>2020-07-19T09:36:00.000Z</time>
      </trkpt>
      <trkpt lat="41.66698167" lon="-4.748155">
        <ele>756.0</ele>
        <time>2020-07-19T09:36:01.000Z</time>
      </trkpt>
      <trkpt lat="41.666985" lon="-4.74817333">
        <ele>756.0</ele>
        <time>2020-07-19T09:36:02.000Z</time>
      </trkpt>
      <trkpt lat="41.66699" lon="-4.748195">
        <ele>756.0</ele>
        <time>2020-07-19T09:36:03.000Z</time>
      </trkpt>
      <trkpt lat="41.666995" lon="-4.748215">
        <ele>756.0</ele>
        <time>2020-07-19T09:36:04.000Z</time>
      </trkpt>
      <trkpt lat="41.66700333" lon="-4.74823">
        <ele>756.0</ele>
        <time>2020-07-19T09:36:05.000Z</time>
      </trkpt>
      <trkpt lat="41.66701" lon="-4.74824833">
        <ele>756.0</ele>
        <time>2020-07-19T09:36:06.000Z</time>
      </trkpt>
      <trkpt lat="41.66702" lon="-4.748265">
        <ele>756.0</ele>
        <time>2020-07-19T09:36:07.000Z</time>
      </trkpt>
      <trkpt lat="41.66702833" lon="-4.74828167">
        <ele>756.0</ele>
        <time>2020-07-19T09:36:08.000Z</time>
      </trkpt>
      <trkpt lat="41.66703833" lon="-4.74830167">
        <ele>756.0</ele>
        <time>2020-07-19T09:36:09.000Z</time>
      </trkpt>
      <trkpt lat="41.66704833" lon="-4.74832167">
        <ele>756.0</ele>
        <time>2020-07-19T09:36:10.000Z</time>
      </trkpt>
      <trkpt lat="41.66705833" lon="-4.74834">
        <ele>757.0</ele>
        <time>2020-07-19T09:36:11.000Z</time>
      </trkpt>
      <trkpt lat="41.66707" lon="-4.74836167">
        <ele>757.0</ele>
        <time>2020-07-19T09:36:12.000Z</time>
      </trkpt>
      <trkpt lat="41.66708333" lon="-4.74838167">
        <ele>757.0</ele>
        <time>2020-07-19T09:36:13.000Z</time>
      </trkpt>
      <trkpt lat="41.667095" lon="-4.74840167">
        <ele>757.0</ele>
        <time>2020-07-19T09:36:14.000Z</time>
      </trkpt>
      <trkpt lat="41.66710833" lon="-4.74842333">
        <ele>757.0</ele>
        <time>2020-07-19T09:36:15.000Z</time>
      </trkpt>
      <trkpt lat="41.66712167" lon="-4.74844333">
        <ele>757.0</ele>
        <time>2020-07-19T09:36:16.000Z</time>
      </trkpt>
      <trkpt lat="41.667135" lon="-4.74846333">
        <ele>757.0</ele>
        <time>2020-07-19T09:36:17.000Z</time>
      </trkpt>
      <trkpt lat="41.66714667" lon="-4.74848167">
        <ele>757.0</ele>
        <time>2020-07-19T09:36:18.000Z</time>
      </trkpt>
      <trkpt lat="41.66715833" lon="-4.74849833">
        <ele>757.0</ele>
        <time>2020-07-19T09:36:19.000Z</time>
      </trkpt>
      <trkpt lat="41.66717" lon="-4.748515">
        <ele>757.0</ele>
        <time>2020-07-19T09:36:20.000Z</time>
      </trkpt>
      <trkpt lat="41.66718333" lon="-4.74853167">
        <ele>758.0</ele>
        <time>2020-07-19T09:36:21.000Z</time>
      </trkpt>
      <trkpt lat="41.66719667" lon="-4.74855">
        <ele>758.0</ele>
        <time>2020-07-19T09:36:22.000Z</time>
      </trkpt>
      <trkpt lat="41.66720833" lon="-4.74856833">
        <ele>758.0</ele>
        <time>2020-07-19T09:36:23.000Z</time>
      </trkpt>
      <trkpt lat="41.66722333" lon="-4.74858833">
        <ele>758.0</ele>
        <time>2020-07-19T09:36:24.000Z</time>
      </trkpt>
      <trkpt lat="41.66723667" lon="-4.74860333">
        <ele>758.0</ele>
        <time>2020-07-19T09:36:25.000Z</time>
      </trkpt>
      <trkpt lat="41.66725167" lon="-4.74862">
        <ele>758.0</ele>
        <time>2020-07-19T09:36:26.000Z</time>
      </trkpt>
      <trkpt lat="41.667265" lon="-4.74863667">
        <ele>758.0</ele>
        <time>2020-07-19T09:36:27.000Z</time>
      </trkpt>
      <trkpt lat="41.66727833" lon="-4.74865333">
        <ele>758.0</ele>
        <time>2020-07-19T09:36:28.000Z</time>
      </trkpt>
      <trkpt lat="41.66729167" lon="-4.74866833">
        <ele>758.0</ele>
        <time>2020-07-19T09:36:29.000Z</time>
      </trkpt>
      <trkpt lat="41.667305" lon="-4.748685">
        <ele>759.0</ele>
        <time>2020-07-19T09:36:30.000Z</time>
      </trkpt>
      <trkpt lat="41.66731833" lon="-4.74870167">
        <ele>759.0</ele>
        <time>2020-07-19T09:36:31.000Z</time>
      </trkpt>
      <trkpt lat="41.66733167" lon="-4.74872">
        <ele>759.0</ele>
        <time>2020-07-19T09:36:32.000Z</time>
      </trkpt>
      <trkpt lat="41.667345" lon="-4.74873833">
        <ele>759.0</ele>
        <time>2020-07-19T09:36:33.000Z</time>
      </trkpt>
      <trkpt lat="41.66735833" lon="-4.74875333">
        <ele>760.0</ele>
        <time>2020-07-19T09:36:34.000Z</time>
      </trkpt>
      <trkpt lat="41.66736833" lon="-4.74876667">
        <ele>760.0</ele>
        <time>2020-07-19T09:36:35.000Z</time>
      </trkpt>
      <trkpt lat="41.66738" lon="-4.74877833">
        <ele>760.0</ele>
        <time>2020-07-19T09:36:36.000Z</time>
      </trkpt>
      <trkpt lat="41.66739333" lon="-4.74879333">
        <ele>760.0</ele>
        <time>2020-07-19T09:36:37.000Z</time>
      </trkpt>
      <trkpt lat="41.66741" lon="-4.74880833">
        <ele>760.0</ele>
        <time>2020-07-19T09:36:38.000Z</time>
      </trkpt>
      <trkpt lat="41.66742333" lon="-4.748825">
        <ele>761.0</ele>
        <time>2020-07-19T09:36:39.000Z</time>
      </trkpt>
      <trkpt lat="41.66743667" lon="-4.74884167">
        <ele>761.0</ele>
        <time>2020-07-19T09:36:40.000Z</time>
      </trkpt>
      <trkpt lat="41.66745167" lon="-4.74885833">
        <ele>761.0</ele>
        <time>2020-07-19T09:36:41.000Z</time>
      </trkpt>
      <trkpt lat="41.66746667" lon="-4.74887333">
        <ele>761.0</ele>
        <time>2020-07-19T09:36:42.000Z</time>
      </trkpt>
      <trkpt lat="41.66747833" lon="-4.74889167">
        <ele>762.0</ele>
        <time>2020-07-19T09:36:43.000Z</time>
      </trkpt>
      <trkpt lat="41.66749167" lon="-4.74891167">
        <ele>762.0</ele>
        <time>2020-07-19T09:36:44.000Z</time>
      </trkpt>
      <trkpt lat="41.66750667" lon="-4.74893167">
        <ele>762.0</ele>
        <time>2020-07-19T09:36:45.000Z</time>
      </trkpt>
      <trkpt lat="41.66752" lon="-4.74894833">
        <ele>762.0</ele>
        <time>2020-07-19T09:36:46.000Z</time>
      </trkpt>
      <trkpt lat="41.66753333" lon="-4.748965">
        <ele>762.0</ele>
        <time>2020-07-19T09:36:47.000Z</time>
      </trkpt>
      <trkpt lat="41.66755" lon="-4.74898333">
        <ele>763.0</ele>
        <time>2020-07-19T09:36:48.000Z</time>
      </trkpt>
      <trkpt lat="41.66756667" lon="-4.74900667">
        <ele>763.0</ele>
        <time>2020-07-19T09:36:49.000Z</time>
      </trkpt>
      <trkpt lat="41.66758" lon="-4.749025">
        <ele>763.0</ele>
        <time>2020-07-19T09:36:50.000Z</time>
      </trkpt>
      <trkpt lat="41.667595" lon="-4.749045">
        <ele>763.0</ele>
        <time>2020-07-19T09:36:51.000Z</time>
      </trkpt>
      <trkpt lat="41.66761" lon="-4.749065">
        <ele>763.0</ele>
        <time>2020-07-19T09:36:52.000Z</time>
      </trkpt>
      <trkpt lat="41.667625" lon="-4.74908333">
        <ele>764.0</ele>
        <time>2020-07-19T09:36:53.000Z</time>
      </trkpt>
      <trkpt lat="41.66763833" lon="-4.7491">
        <ele>764.0</ele>
        <time>2020-07-19T09:36:54.000Z</time>
      </trkpt>
      <trkpt lat="41.66765167" lon="-4.74911833">
        <ele>764.0</ele>
        <time>2020-07-19T09:36:55.000Z</time>
      </trkpt>
      <trkpt lat="41.667665" lon="-4.749135">
        <ele>764.0</ele>
        <time>2020-07-19T09:36:56.000Z</time>
      </trkpt>
      <trkpt lat="41.66767833" lon="-4.74915167">
        <ele>764.0</ele>
        <time>2020-07-19T09:36:57.000Z</time>
      </trkpt>
      <trkpt lat="41.66769333" lon="-4.749165">
        <ele>765.0</ele>
        <time>2020-07-19T09:36:58.000Z</time>
      </trkpt>
      <trkpt lat="41.667705" lon="-4.74917833">
        <ele>765.0</ele>
        <time>2020-07-19T09:36:59.000Z</time>
      </trkpt>
      <trkpt lat="41.66771833" lon="-4.74919667">
        <ele>765.0</ele>
        <time>2020-07-19T09:37:00.000Z</time>
      </trkpt>
      <trkpt lat="41.66773333" lon="-4.74921167">
        <ele>765.0</ele>
        <time>2020-07-19T09:37:01.000Z</time>
      </trkpt>
      <trkpt lat="41.66774667" lon="-4.749225">
        <ele>765.0</ele>
        <time>2020-07-19T09:37:02.000Z</time>
      </trkpt>
      <trkpt lat="41.667755" lon="-4.74924">
        <ele>765.0</ele>
        <time>2020-07-19T09:37:03.000Z</time>
      </trkpt>
      <trkpt lat="41.66776833" lon="-4.74925333">
        <ele>766.0</ele>
        <time>2020-07-19T09:37:04.000Z</time>
      </trkpt>
      <trkpt lat="41.66777833" lon="-4.749265">
        <ele>766.0</ele>
        <time>2020-07-19T09:37:05.000Z</time>
      </trkpt>
      <trkpt lat="41.66779" lon="-4.74928">
        <ele>766.0</ele>
        <time>2020-07-19T09:37:06.000Z</time>
      </trkpt>
      <trkpt lat="41.66780333" lon="-4.74929667">
        <ele>766.0</ele>
        <time>2020-07-19T09:37:07.000Z</time>
      </trkpt>
      <trkpt lat="41.66782" lon="-4.74931">
        <ele>766.0</ele>
        <time>2020-07-19T09:37:08.000Z</time>
      </trkpt>
      <trkpt lat="41.66783333" lon="-4.749325">
        <ele>767.0</ele>
        <time>2020-07-19T09:37:09.000Z</time>
      </trkpt>
      <trkpt lat="41.66784667" lon="-4.74933833">
        <ele>767.0</ele>
        <time>2020-07-19T09:37:10.000Z</time>
      </trkpt>
      <trkpt lat="41.66786" lon="-4.74935333">
        <ele>767.0</ele>
        <time>2020-07-19T09:37:11.000Z</time>
      </trkpt>
      <trkpt lat="41.66787167" lon="-4.74937">
        <ele>767.0</ele>
        <time>2020-07-19T09:37:12.000Z</time>
      </trkpt>
      <trkpt lat="41.66788667" lon="-4.749385">
        <ele>767.0</ele>
        <time>2020-07-19T09:37:13.000Z</time>
      </trkpt>
      <trkpt lat="41.66790167" lon="-4.7494">
        <ele>767.0</ele>
        <time>2020-07-19T09:37:14.000Z</time>
      </trkpt>
      <trkpt lat="41.66791833" lon="-4.74941">
        <ele>767.0</ele>
        <time>2020-07-19T09:37:15.000Z</time>
      </trkpt>
      <trkpt lat="41.667935" lon="-4.74942167">
        <ele>767.0</ele>
        <time>2020-07-19T09:37:16.000Z</time>
      </trkpt>
      <trkpt lat="41.66795" lon="-4.74943833">
        <ele>767.0</ele>
        <time>2020-07-19T09:37:17.000Z</time>
      </trkpt>
      <trkpt lat="41.667965" lon="-4.74945333">
        <ele>767.0</ele>
        <time>2020-07-19T09:37:18.000Z</time>
      </trkpt>
      <trkpt lat="41.66797667" lon="-4.74947167">
        <ele>767.0</ele>
        <time>2020-07-19T09:37:19.000Z</time>
      </trkpt>
      <trkpt lat="41.66799167" lon="-4.74948833">
        <ele>768.0</ele>
        <time>2020-07-19T09:37:20.000Z</time>
      </trkpt>
      <trkpt lat="41.66801" lon="-4.749505">
        <ele>768.0</ele>
        <time>2020-07-19T09:37:21.000Z</time>
      </trkpt>
      <trkpt lat="41.66802667" lon="-4.74951833">
        <ele>768.0</ele>
        <time>2020-07-19T09:37:22.000Z</time>
      </trkpt>
      <trkpt lat="41.66804167" lon="-4.74953">
        <ele>768.0</ele>
        <time>2020-07-19T09:37:23.000Z</time>
      </trkpt>
      <trkpt lat="41.668055" lon="-4.74954333">
        <ele>768.0</ele>
        <time>2020-07-19T09:37:24.000Z</time>
      </trkpt>
      <trkpt lat="41.66806667" lon="-4.74955">
        <ele>768.0</ele>
        <time>2020-07-19T09:37:25.000Z</time>
      </trkpt>
      <trkpt lat="41.66808" lon="-4.749555">
        <ele>768.0</ele>
        <time>2020-07-19T09:37:26.000Z</time>
      </trkpt>
      <trkpt lat="41.66809667" lon="-4.74956333">
        <ele>768.0</ele>
        <time>2020-07-19T09:37:27.000Z</time>
      </trkpt>
      <trkpt lat="41.66811333" lon="-4.74957">
        <ele>768.0</ele>
        <time>2020-07-19T09:37:28.000Z</time>
      </trkpt>
      <trkpt lat="41.66812833" lon="-4.74957833">
        <ele>768.0</ele>
        <time>2020-07-19T09:37:29.000Z</time>
      </trkpt>
      <trkpt lat="41.66814333" lon="-4.74958833">
        <ele>768.0</ele>
        <time>2020-07-19T09:37:30.000Z</time>
      </trkpt>
      <trkpt lat="41.66815667" lon="-4.74959833">
        <ele>768.0</ele>
        <time>2020-07-19T09:37:31.000Z</time>
      </trkpt>
      <trkpt lat="41.66817" lon="-4.749605">
        <ele>769.0</ele>
        <time>2020-07-19T09:37:32.000Z</time>
      </trkpt>
      <trkpt lat="41.668185" lon="-4.74961333">
        <ele>769.0</ele>
        <time>2020-07-19T09:37:33.000Z</time>
      </trkpt>
      <trkpt lat="41.6682" lon="-4.74962167">
        <ele>769.0</ele>
        <time>2020-07-19T09:37:34.000Z</time>
      </trkpt>
      <trkpt lat="41.668215" lon="-4.74962833">
        <ele>769.0</ele>
        <time>2020-07-19T09:37:35.000Z</time>
      </trkpt>
      <trkpt lat="41.66823167" lon="-4.74963333">
        <ele>769.0</ele>
        <time>2020-07-19T09:37:36.000Z</time>
      </trkpt>
      <trkpt lat="41.66825" lon="-4.74964">
        <ele>769.0</ele>
        <time>2020-07-19T09:37:37.000Z</time>
      </trkpt>
      <trkpt lat="41.66827" lon="-4.749645">
        <ele>769.0</ele>
        <time>2020-07-19T09:37:38.000Z</time>
      </trkpt>
      <trkpt lat="41.66828833" lon="-4.74965">
        <ele>769.0</ele>
        <time>2020-07-19T09:37:39.000Z</time>
      </trkpt>
      <trkpt lat="41.66830833" lon="-4.74965333">
        <ele>769.0</ele>
        <time>2020-07-19T09:37:40.000Z</time>
      </trkpt>
      <trkpt lat="41.66832833" lon="-4.74965833">
        <ele>769.0</ele>
        <time>2020-07-19T09:37:41.000Z</time>
      </trkpt>
      <trkpt lat="41.66834833" lon="-4.74966667">
        <ele>769.0</ele>
        <time>2020-07-19T09:37:42.000Z</time>
      </trkpt>
      <trkpt lat="41.668365" lon="-4.749675">
        <ele>770.0</ele>
        <time>2020-07-19T09:37:43.000Z</time>
      </trkpt>
      <trkpt lat="41.66838333" lon="-4.74968667">
        <ele>770.0</ele>
        <time>2020-07-19T09:37:44.000Z</time>
      </trkpt>
      <trkpt lat="41.66840167" lon="-4.74969667">
        <ele>770.0</ele>
        <time>2020-07-19T09:37:45.000Z</time>
      </trkpt>
      <trkpt lat="41.66842" lon="-4.749705">
        <ele>770.0</ele>
        <time>2020-07-19T09:37:46.000Z</time>
      </trkpt>
      <trkpt lat="41.66843667" lon="-4.74971833">
        <ele>770.0</ele>
        <time>2020-07-19T09:37:47.000Z</time>
      </trkpt>
      <trkpt lat="41.66845333" lon="-4.74973167">
        <ele>770.0</ele>
        <time>2020-07-19T09:37:48.000Z</time>
      </trkpt>
      <trkpt lat="41.66846833" lon="-4.74974333">
        <ele>770.0</ele>
        <time>2020-07-19T09:37:49.000Z</time>
      </trkpt>
      <trkpt lat="41.66848333" lon="-4.74975667">
        <ele>770.0</ele>
        <time>2020-07-19T09:37:50.000Z</time>
      </trkpt>
      <trkpt lat="41.66849667" lon="-4.74977">
        <ele>771.0</ele>
        <time>2020-07-19T09:37:51.000Z</time>
      </trkpt>
      <trkpt lat="41.66851333" lon="-4.749785">
        <ele>771.0</ele>
        <time>2020-07-19T09:37:52.000Z</time>
      </trkpt>
      <trkpt lat="41.66852833" lon="-4.74979833">
        <ele>771.0</ele>
        <time>2020-07-19T09:37:53.000Z</time>
      </trkpt>
      <trkpt lat="41.66854833" lon="-4.74981">
        <ele>771.0</ele>
        <time>2020-07-19T09:37:54.000Z</time>
      </trkpt>
      <trkpt lat="41.66856667" lon="-4.74982167">
        <ele>771.0</ele>
        <time>2020-07-19T09:37:55.000Z</time>
      </trkpt>
      <trkpt lat="41.66858833" lon="-4.74983333">
        <ele>772.0</ele>
        <time>2020-07-19T09:37:56.000Z</time>
      </trkpt>
      <trkpt lat="41.66861" lon="-4.749845">
        <ele>772.0</ele>
        <time>2020-07-19T09:37:57.000Z</time>
      </trkpt>
      <trkpt lat="41.66863" lon="-4.74985667">
        <ele>772.0</ele>
        <time>2020-07-19T09:37:58.000Z</time>
      </trkpt>
      <trkpt lat="41.66865167" lon="-4.74987167">
        <ele>772.0</ele>
        <time>2020-07-19T09:37:59.000Z</time>
      </trkpt>
      <trkpt lat="41.66867333" lon="-4.74988667">
        <ele>772.0</ele>
        <time>2020-07-19T09:38:00.000Z</time>
      </trkpt>
      <trkpt lat="41.668695" lon="-4.7499">
        <ele>772.0</ele>
        <time>2020-07-19T09:38:01.000Z</time>
      </trkpt>
      <trkpt lat="41.66871833" lon="-4.74991167">
        <ele>772.0</ele>
        <time>2020-07-19T09:38:02.000Z</time>
      </trkpt>
      <trkpt lat="41.66874" lon="-4.74992333">
        <ele>772.0</ele>
        <time>2020-07-19T09:38:03.000Z</time>
      </trkpt>
      <trkpt lat="41.66876167" lon="-4.74993333">
        <ele>772.0</ele>
        <time>2020-07-19T09:38:04.000Z</time>
      </trkpt>
      <trkpt lat="41.66878333" lon="-4.74994333">
        <ele>772.0</ele>
        <time>2020-07-19T09:38:05.000Z</time>
      </trkpt>
      <trkpt lat="41.668805" lon="-4.74995333">
        <ele>772.0</ele>
        <time>2020-07-19T09:38:06.000Z</time>
      </trkpt>
      <trkpt lat="41.66882667" lon="-4.749965">
        <ele>772.0</ele>
        <time>2020-07-19T09:38:07.000Z</time>
      </trkpt>
      <trkpt lat="41.66884833" lon="-4.74997667">
        <ele>773.0</ele>
        <time>2020-07-19T09:38:08.000Z</time>
      </trkpt>
      <trkpt lat="41.66887167" lon="-4.74999">
        <ele>773.0</ele>
        <time>2020-07-19T09:38:09.000Z</time>
      </trkpt>
      <trkpt lat="41.668895" lon="-4.750005">
        <ele>773.0</ele>
        <time>2020-07-19T09:38:10.000Z</time>
      </trkpt>
      <trkpt lat="41.66891667" lon="-4.75001833">
        <ele>773.0</ele>
        <time>2020-07-19T09:38:11.000Z</time>
      </trkpt>
      <trkpt lat="41.66894" lon="-4.75003167">
        <ele>773.0</ele>
        <time>2020-07-19T09:38:12.000Z</time>
      </trkpt>
      <trkpt lat="41.66896333" lon="-4.750045">
        <ele>773.0</ele>
        <time>2020-07-19T09:38:13.000Z</time>
      </trkpt>
      <trkpt lat="41.66898667" lon="-4.75006">
        <ele>773.0</ele>
        <time>2020-07-19T09:38:14.000Z</time>
      </trkpt>
      <trkpt lat="41.66901167" lon="-4.75007667">
        <ele>773.0</ele>
        <time>2020-07-19T09:38:15.000Z</time>
      </trkpt>
      <trkpt lat="41.66903667" lon="-4.75009333">
        <ele>773.0</ele>
        <time>2020-07-19T09:38:16.000Z</time>
      </trkpt>
      <trkpt lat="41.66906167" lon="-4.75010833">
        <ele>773.0</ele>
        <time>2020-07-19T09:38:17.000Z</time>
      </trkpt>
      <trkpt lat="41.66908667" lon="-4.750125">
        <ele>773.0</ele>
        <time>2020-07-19T09:38:18.000Z</time>
      </trkpt>
      <trkpt lat="41.66911167" lon="-4.75014333">
        <ele>773.0</ele>
        <time>2020-07-19T09:38:19.000Z</time>
      </trkpt>
      <trkpt lat="41.669135" lon="-4.75016">
        <ele>773.0</ele>
        <time>2020-07-19T09:38:20.000Z</time>
      </trkpt>
      <trkpt lat="41.66916" lon="-4.75017833">
        <ele>773.0</ele>
        <time>2020-07-19T09:38:21.000Z</time>
      </trkpt>
      <trkpt lat="41.669185" lon="-4.75019667">
        <ele>773.0</ele>
        <time>2020-07-19T09:38:22.000Z</time>
      </trkpt>
      <trkpt lat="41.66921333" lon="-4.750215">
        <ele>773.0</ele>
        <time>2020-07-19T09:38:23.000Z</time>
      </trkpt>
      <trkpt lat="41.66924167" lon="-4.75023333">
        <ele>773.0</ele>
        <time>2020-07-19T09:38:24.000Z</time>
      </trkpt>
      <trkpt lat="41.66927167" lon="-4.75024667">
        <ele>773.0</ele>
        <time>2020-07-19T09:38:25.000Z</time>
      </trkpt>
      <trkpt lat="41.66930167" lon="-4.75026">
        <ele>773.0</ele>
        <time>2020-07-19T09:38:26.000Z</time>
      </trkpt>
      <trkpt lat="41.66933" lon="-4.750275">
        <ele>773.0</ele>
        <time>2020-07-19T09:38:27.000Z</time>
      </trkpt>
      <trkpt lat="41.66935667" lon="-4.75029167">
        <ele>773.0</ele>
        <time>2020-07-19T09:38:28.000Z</time>
      </trkpt>
      <trkpt lat="41.669385" lon="-4.750305">
        <ele>773.0</ele>
        <time>2020-07-19T09:38:29.000Z</time>
      </trkpt>
      <trkpt lat="41.66941333" lon="-4.75031833">
        <ele>773.0</ele>
        <time>2020-07-19T09:38:30.000Z</time>
      </trkpt>
      <trkpt lat="41.66944167" lon="-4.750325">
        <ele>773.0</ele>
        <time>2020-07-19T09:38:31.000Z</time>
      </trkpt>
      <trkpt lat="41.66946833" lon="-4.75032333">
        <ele>773.0</ele>
        <time>2020-07-19T09:38:32.000Z</time>
      </trkpt>
      <trkpt lat="41.669495" lon="-4.75032167">
        <ele>773.0</ele>
        <time>2020-07-19T09:38:33.000Z</time>
      </trkpt>
      <trkpt lat="41.66952167" lon="-4.75032333">
        <ele>773.0</ele>
        <time>2020-07-19T09:38:34.000Z</time>
      </trkpt>
      <trkpt lat="41.66954833" lon="-4.75033">
        <ele>773.0</ele>
        <time>2020-07-19T09:38:35.000Z</time>
      </trkpt>
      <trkpt lat="41.66957667" lon="-4.75033833">
        <ele>773.0</ele>
        <time>2020-07-19T09:38:36.000Z</time>
      </trkpt>
      <trkpt lat="41.669605" lon="-4.75034833">
        <ele>773.0</ele>
        <time>2020-07-19T09:38:37.000Z</time>
      </trkpt>
      <trkpt lat="41.66963333" lon="-4.75035833">
        <ele>773.0</ele>
        <time>2020-07-19T09:38:38.000Z</time>
      </trkpt>
      <trkpt lat="41.66966333" lon="-4.75037167">
        <ele>773.0</ele>
        <time>2020-07-19T09:38:39.000Z</time>
      </trkpt>
      <trkpt lat="41.66969167" lon="-4.75038667">
        <ele>773.0</ele>
        <time>2020-07-19T09:38:40.000Z</time>
      </trkpt>
      <trkpt lat="41.66972" lon="-4.7504">
        <ele>773.0</ele>
        <time>2020-07-19T09:38:41.000Z</time>
      </trkpt>
      <trkpt lat="41.66974833" lon="-4.750415">
        <ele>773.0</ele>
        <time>2020-07-19T09:38:42.000Z</time>
      </trkpt>
      <trkpt lat="41.66977333" lon="-4.75043167">
        <ele>773.0</ele>
        <time>2020-07-19T09:38:43.000Z</time>
      </trkpt>
      <trkpt lat="41.6698" lon="-4.75044667">
        <ele>774.0</ele>
        <time>2020-07-19T09:38:44.000Z</time>
      </trkpt>
      <trkpt lat="41.66982333" lon="-4.75046167">
        <ele>774.0</ele>
        <time>2020-07-19T09:38:45.000Z</time>
      </trkpt>
      <trkpt lat="41.66984833" lon="-4.75047667">
        <ele>774.0</ele>
        <time>2020-07-19T09:38:46.000Z</time>
      </trkpt>
      <trkpt lat="41.66987333" lon="-4.75049333">
        <ele>774.0</ele>
        <time>2020-07-19T09:38:47.000Z</time>
      </trkpt>
      <trkpt lat="41.669895" lon="-4.75051167">
        <ele>774.0</ele>
        <time>2020-07-19T09:38:48.000Z</time>
      </trkpt>
      <trkpt lat="41.66991833" lon="-4.75052833">
        <ele>774.0</ele>
        <time>2020-07-19T09:38:49.000Z</time>
      </trkpt>
      <trkpt lat="41.66994" lon="-4.750545">
        <ele>774.0</ele>
        <time>2020-07-19T09:38:50.000Z</time>
      </trkpt>
      <trkpt lat="41.66996333" lon="-4.75056167">
        <ele>774.0</ele>
        <time>2020-07-19T09:38:51.000Z</time>
      </trkpt>
      <trkpt lat="41.66998667" lon="-4.75057833">
        <ele>774.0</ele>
        <time>2020-07-19T09:38:52.000Z</time>
      </trkpt>
      <trkpt lat="41.67000833" lon="-4.750595">
        <ele>774.0</ele>
        <time>2020-07-19T09:38:53.000Z</time>
      </trkpt>
      <trkpt lat="41.67003" lon="-4.75061167">
        <ele>774.0</ele>
        <time>2020-07-19T09:38:54.000Z</time>
      </trkpt>
      <trkpt lat="41.67005167" lon="-4.75063">
        <ele>774.0</ele>
        <time>2020-07-19T09:38:55.000Z</time>
      </trkpt>
      <trkpt lat="41.670075" lon="-4.75064833">
        <ele>774.0</ele>
        <time>2020-07-19T09:38:56.000Z</time>
      </trkpt>
      <trkpt lat="41.67009833" lon="-4.75066667">
        <ele>774.0</ele>
        <time>2020-07-19T09:38:57.000Z</time>
      </trkpt>
      <trkpt lat="41.67012167" lon="-4.750685">
        <ele>774.0</ele>
        <time>2020-07-19T09:38:58.000Z</time>
      </trkpt>
      <trkpt lat="41.67014333" lon="-4.750705">
        <ele>774.0</ele>
        <time>2020-07-19T09:38:59.000Z</time>
      </trkpt>
      <trkpt lat="41.670165" lon="-4.75072167">
        <ele>774.0</ele>
        <time>2020-07-19T09:39:00.000Z</time>
      </trkpt>
      <trkpt lat="41.67018833" lon="-4.75074">
        <ele>774.0</ele>
        <time>2020-07-19T09:39:01.000Z</time>
      </trkpt>
      <trkpt lat="41.67021" lon="-4.75075667">
        <ele>774.0</ele>
        <time>2020-07-19T09:39:02.000Z</time>
      </trkpt>
      <trkpt lat="41.67023167" lon="-4.75077333">
        <ele>774.0</ele>
        <time>2020-07-19T09:39:03.000Z</time>
      </trkpt>
      <trkpt lat="41.67025333" lon="-4.75078833">
        <ele>774.0</ele>
        <time>2020-07-19T09:39:04.000Z</time>
      </trkpt>
      <trkpt lat="41.67027333" lon="-4.750805">
        <ele>774.0</ele>
        <time>2020-07-19T09:39:05.000Z</time>
      </trkpt>
      <trkpt lat="41.67029167" lon="-4.75081833">
        <ele>774.0</ele>
        <time>2020-07-19T09:39:06.000Z</time>
      </trkpt>
      <trkpt lat="41.67031" lon="-4.75082833">
        <ele>774.0</ele>
        <time>2020-07-19T09:39:07.000Z</time>
      </trkpt>
      <trkpt lat="41.67032833" lon="-4.75083167">
        <ele>774.0</ele>
        <time>2020-07-19T09:39:08.000Z</time>
      </trkpt>
      <trkpt lat="41.67034333" lon="-4.75083833">
        <ele>774.0</ele>
        <time>2020-07-19T09:39:09.000Z</time>
      </trkpt>
      <trkpt lat="41.67035833" lon="-4.750845">
        <ele>774.0</ele>
        <time>2020-07-19T09:39:10.000Z</time>
      </trkpt>
      <trkpt lat="41.67037333" lon="-4.750855">
        <ele>774.0</ele>
        <time>2020-07-19T09:39:11.000Z</time>
      </trkpt>
      <trkpt lat="41.67038833" lon="-4.75086833">
        <ele>774.0</ele>
        <time>2020-07-19T09:39:12.000Z</time>
      </trkpt>
      <trkpt lat="41.67040333" lon="-4.75088167">
        <ele>775.0</ele>
        <time>2020-07-19T09:39:13.000Z</time>
      </trkpt>
      <trkpt lat="41.67041833" lon="-4.75088833">
        <ele>775.0</ele>
        <time>2020-07-19T09:39:14.000Z</time>
      </trkpt>
      <trkpt lat="41.67043667" lon="-4.75089333">
        <ele>775.0</ele>
        <time>2020-07-19T09:39:15.000Z</time>
      </trkpt>
      <trkpt lat="41.67045333" lon="-4.75090333">
        <ele>775.0</ele>
        <time>2020-07-19T09:39:16.000Z</time>
      </trkpt>
      <trkpt lat="41.67047167" lon="-4.75091333">
        <ele>775.0</ele>
        <time>2020-07-19T09:39:17.000Z</time>
      </trkpt>
      <trkpt lat="41.67049167" lon="-4.750925">
        <ele>775.0</ele>
        <time>2020-07-19T09:39:18.000Z</time>
      </trkpt>
      <trkpt lat="41.67051333" lon="-4.750935">
        <ele>775.0</ele>
        <time>2020-07-19T09:39:19.000Z</time>
      </trkpt>
      <trkpt lat="41.67053167" lon="-4.750945">
        <ele>775.0</ele>
        <time>2020-07-19T09:39:20.000Z</time>
      </trkpt>
      <trkpt lat="41.67054667" lon="-4.75095833">
        <ele>775.0</ele>
        <time>2020-07-19T09:39:21.000Z</time>
      </trkpt>
      <trkpt lat="41.67056167" lon="-4.75096667">
        <ele>775.0</ele>
        <time>2020-07-19T09:39:22.000Z</time>
      </trkpt>
      <trkpt lat="41.67057667" lon="-4.75097333">
        <ele>775.0</ele>
        <time>2020-07-19T09:39:23.000Z</time>
      </trkpt>
      <trkpt lat="41.67059333" lon="-4.75097667">
        <ele>775.0</ele>
        <time>2020-07-19T09:39:24.000Z</time>
      </trkpt>
      <trkpt lat="41.67061" lon="-4.75098167">
        <ele>775.0</ele>
        <time>2020-07-19T09:39:25.000Z</time>
      </trkpt>
      <trkpt lat="41.670625" lon="-4.75099">
        <ele>775.0</ele>
        <time>2020-07-19T09:39:26.000Z</time>
      </trkpt>
      <trkpt lat="41.67064333" lon="-4.75100167">
        <ele>775.0</ele>
        <time>2020-07-19T09:39:27.000Z</time>
      </trkpt>
      <trkpt lat="41.67066167" lon="-4.75101167">
        <ele>775.0</ele>
        <time>2020-07-19T09:39:28.000Z</time>
      </trkpt>
      <trkpt lat="41.67068167" lon="-4.75101833">
        <ele>776.0</ele>
        <time>2020-07-19T09:39:29.000Z</time>
      </trkpt>
      <trkpt lat="41.67070167" lon="-4.75102833">
        <ele>776.0</ele>
        <time>2020-07-19T09:39:30.000Z</time>
      </trkpt>
      <trkpt lat="41.67072333" lon="-4.75103667">
        <ele>776.0</ele>
        <time>2020-07-19T09:39:31.000Z</time>
      </trkpt>
      <trkpt lat="41.67074333" lon="-4.75104667">
        <ele>776.0</ele>
        <time>2020-07-19T09:39:32.000Z</time>
      </trkpt>
      <trkpt lat="41.670765" lon="-4.75105667">
        <ele>776.0</ele>
        <time>2020-07-19T09:39:33.000Z</time>
      </trkpt>
      <trkpt lat="41.67078667" lon="-4.75106833">
        <ele>776.0</ele>
        <time>2020-07-19T09:39:34.000Z</time>
      </trkpt>
      <trkpt lat="41.67080667" lon="-4.75108">
        <ele>776.0</ele>
        <time>2020-07-19T09:39:35.000Z</time>
      </trkpt>
      <trkpt lat="41.67082833" lon="-4.75108833">
        <ele>776.0</ele>
        <time>2020-07-19T09:39:36.000Z</time>
      </trkpt>
      <trkpt lat="41.67084833" lon="-4.75109333">
        <ele>776.0</ele>
        <time>2020-07-19T09:39:37.000Z</time>
      </trkpt>
      <trkpt lat="41.67086667" lon="-4.75110167">
        <ele>776.0</ele>
        <time>2020-07-19T09:39:38.000Z</time>
      </trkpt>
      <trkpt lat="41.670885" lon="-4.75111333">
        <ele>776.0</ele>
        <time>2020-07-19T09:39:39.000Z</time>
      </trkpt>
      <trkpt lat="41.67090333" lon="-4.75112333">
        <ele>776.0</ele>
        <time>2020-07-19T09:39:40.000Z</time>
      </trkpt>
      <trkpt lat="41.67092167" lon="-4.75113167">
        <ele>776.0</ele>
        <time>2020-07-19T09:39:41.000Z</time>
      </trkpt>
      <trkpt lat="41.67094" lon="-4.75113667">
        <ele>776.0</ele>
        <time>2020-07-19T09:39:42.000Z</time>
      </trkpt>
      <trkpt lat="41.67095833" lon="-4.751135">
        <ele>776.0</ele>
        <time>2020-07-19T09:39:43.000Z</time>
      </trkpt>
      <trkpt lat="41.67097833" lon="-4.75113333">
        <ele>776.0</ele>
        <time>2020-07-19T09:39:44.000Z</time>
      </trkpt>
      <trkpt lat="41.67099667" lon="-4.751135">
        <ele>776.0</ele>
        <time>2020-07-19T09:39:45.000Z</time>
      </trkpt>
      <trkpt lat="41.67101667" lon="-4.75114167">
        <ele>776.0</ele>
        <time>2020-07-19T09:39:46.000Z</time>
      </trkpt>
      <trkpt lat="41.67103833" lon="-4.75115">
        <ele>776.0</ele>
        <time>2020-07-19T09:39:47.000Z</time>
      </trkpt>
      <trkpt lat="41.67105833" lon="-4.75116333">
        <ele>776.0</ele>
        <time>2020-07-19T09:39:48.000Z</time>
      </trkpt>
      <trkpt lat="41.67108167" lon="-4.75117333">
        <ele>776.0</ele>
        <time>2020-07-19T09:39:49.000Z</time>
      </trkpt>
      <trkpt lat="41.67110333" lon="-4.75118167">
        <ele>776.0</ele>
        <time>2020-07-19T09:39:50.000Z</time>
      </trkpt>
      <trkpt lat="41.671125" lon="-4.75119167">
        <ele>776.0</ele>
        <time>2020-07-19T09:39:51.000Z</time>
      </trkpt>
      <trkpt lat="41.67114833" lon="-4.75120167">
        <ele>776.0</ele>
        <time>2020-07-19T09:39:52.000Z</time>
      </trkpt>
      <trkpt lat="41.67116667" lon="-4.75120833">
        <ele>776.0</ele>
        <time>2020-07-19T09:39:53.000Z</time>
      </trkpt>
      <trkpt lat="41.671185" lon="-4.75121833">
        <ele>776.0</ele>
        <time>2020-07-19T09:39:54.000Z</time>
      </trkpt>
      <trkpt lat="41.67120333" lon="-4.75122833">
        <ele>776.0</ele>
        <time>2020-07-19T09:39:55.000Z</time>
      </trkpt>
      <trkpt lat="41.67122" lon="-4.75123833">
        <ele>776.0</ele>
        <time>2020-07-19T09:39:56.000Z</time>
      </trkpt>
      <trkpt lat="41.67123833" lon="-4.751245">
        <ele>776.0</ele>
        <time>2020-07-19T09:39:57.000Z</time>
      </trkpt>
      <trkpt lat="41.67125667" lon="-4.75125333">
        <ele>776.0</ele>
        <time>2020-07-19T09:39:58.000Z</time>
      </trkpt>
      <trkpt lat="41.67127333" lon="-4.751265">
        <ele>776.0</ele>
        <time>2020-07-19T09:39:59.000Z</time>
      </trkpt>
      <trkpt lat="41.67129167" lon="-4.75127333">
        <ele>776.0</ele>
        <time>2020-07-19T09:40:00.000Z</time>
      </trkpt>
      <trkpt lat="41.67131" lon="-4.751285">
        <ele>776.0</ele>
        <time>2020-07-19T09:40:01.000Z</time>
      </trkpt>
      <trkpt lat="41.67132667" lon="-4.751295">
        <ele>776.0</ele>
        <time>2020-07-19T09:40:02.000Z</time>
      </trkpt>
      <trkpt lat="41.67134333" lon="-4.7513">
        <ele>776.0</ele>
        <time>2020-07-19T09:40:03.000Z</time>
      </trkpt>
      <trkpt lat="41.67135833" lon="-4.75131">
        <ele>776.0</ele>
        <time>2020-07-19T09:40:04.000Z</time>
      </trkpt>
      <trkpt lat="41.671375" lon="-4.75132333">
        <ele>776.0</ele>
        <time>2020-07-19T09:40:05.000Z</time>
      </trkpt>
      <trkpt lat="41.67139167" lon="-4.75133167">
        <ele>776.0</ele>
        <time>2020-07-19T09:40:06.000Z</time>
      </trkpt>
      <trkpt lat="41.67141167" lon="-4.75134">
        <ele>777.0</ele>
        <time>2020-07-19T09:40:07.000Z</time>
      </trkpt>
      <trkpt lat="41.67143167" lon="-4.75135">
        <ele>777.0</ele>
        <time>2020-07-19T09:40:08.000Z</time>
      </trkpt>
      <trkpt lat="41.67144833" lon="-4.751365">
        <ele>777.0</ele>
        <time>2020-07-19T09:40:09.000Z</time>
      </trkpt>
      <trkpt lat="41.67146167" lon="-4.751385">
        <ele>777.0</ele>
        <time>2020-07-19T09:40:10.000Z</time>
      </trkpt>
      <trkpt lat="41.671475" lon="-4.7514">
        <ele>777.0</ele>
        <time>2020-07-19T09:40:11.000Z</time>
      </trkpt>
      <trkpt lat="41.67149333" lon="-4.75141">
        <ele>777.0</ele>
        <time>2020-07-19T09:40:12.000Z</time>
      </trkpt>
      <trkpt lat="41.671515" lon="-4.75142">
        <ele>777.0</ele>
        <time>2020-07-19T09:40:13.000Z</time>
      </trkpt>
      <trkpt lat="41.67153833" lon="-4.75142833">
        <ele>777.0</ele>
        <time>2020-07-19T09:40:14.000Z</time>
      </trkpt>
      <trkpt lat="41.67155833" lon="-4.75144">
        <ele>777.0</ele>
        <time>2020-07-19T09:40:15.000Z</time>
      </trkpt>
      <trkpt lat="41.67157833" lon="-4.75145167">
        <ele>777.0</ele>
        <time>2020-07-19T09:40:16.000Z</time>
      </trkpt>
      <trkpt lat="41.6716" lon="-4.751465">
        <ele>777.0</ele>
        <time>2020-07-19T09:40:17.000Z</time>
      </trkpt>
      <trkpt lat="41.67162167" lon="-4.75147667">
        <ele>777.0</ele>
        <time>2020-07-19T09:40:18.000Z</time>
      </trkpt>
      <trkpt lat="41.67164167" lon="-4.75148833">
        <ele>777.0</ele>
        <time>2020-07-19T09:40:19.000Z</time>
      </trkpt>
      <trkpt lat="41.67166" lon="-4.75150167">
        <ele>777.0</ele>
        <time>2020-07-19T09:40:20.000Z</time>
      </trkpt>
      <trkpt lat="41.67168167" lon="-4.75151667">
        <ele>777.0</ele>
        <time>2020-07-19T09:40:21.000Z</time>
      </trkpt>
      <trkpt lat="41.67170167" lon="-4.751535">
        <ele>777.0</ele>
        <time>2020-07-19T09:40:22.000Z</time>
      </trkpt>
      <trkpt lat="41.67172167" lon="-4.75155333">
        <ele>777.0</ele>
        <time>2020-07-19T09:40:23.000Z</time>
      </trkpt>
      <trkpt lat="41.67174167" lon="-4.751565">
        <ele>777.0</ele>
        <time>2020-07-19T09:40:24.000Z</time>
      </trkpt>
      <trkpt lat="41.67176333" lon="-4.75158">
        <ele>777.0</ele>
        <time>2020-07-19T09:40:25.000Z</time>
      </trkpt>
      <trkpt lat="41.67178333" lon="-4.75159667">
        <ele>777.0</ele>
        <time>2020-07-19T09:40:26.000Z</time>
      </trkpt>
      <trkpt lat="41.671805" lon="-4.75161167">
        <ele>777.0</ele>
        <time>2020-07-19T09:40:27.000Z</time>
      </trkpt>
      <trkpt lat="41.671825" lon="-4.751625">
        <ele>777.0</ele>
        <time>2020-07-19T09:40:28.000Z</time>
      </trkpt>
      <trkpt lat="41.67184333" lon="-4.75164">
        <ele>777.0</ele>
        <time>2020-07-19T09:40:29.000Z</time>
      </trkpt>
      <trkpt lat="41.671865" lon="-4.75165667">
        <ele>777.0</ele>
        <time>2020-07-19T09:40:30.000Z</time>
      </trkpt>
      <trkpt lat="41.671885" lon="-4.75167167">
        <ele>778.0</ele>
        <time>2020-07-19T09:40:31.000Z</time>
      </trkpt>
      <trkpt lat="41.67190833" lon="-4.75168167">
        <ele>778.0</ele>
        <time>2020-07-19T09:40:32.000Z</time>
      </trkpt>
      <trkpt lat="41.67193" lon="-4.751685">
        <ele>778.0</ele>
        <time>2020-07-19T09:40:33.000Z</time>
      </trkpt>
      <trkpt lat="41.67194833" lon="-4.75168833">
        <ele>778.0</ele>
        <time>2020-07-19T09:40:34.000Z</time>
      </trkpt>
      <trkpt lat="41.67196667" lon="-4.751695">
        <ele>778.0</ele>
        <time>2020-07-19T09:40:35.000Z</time>
      </trkpt>
      <trkpt lat="41.67198167" lon="-4.751705">
        <ele>778.0</ele>
        <time>2020-07-19T09:40:36.000Z</time>
      </trkpt>
      <trkpt lat="41.67198833" lon="-4.75171167">
        <ele>778.0</ele>
        <time>2020-07-19T09:40:37.000Z</time>
      </trkpt>
      <trkpt lat="41.67198833" lon="-4.75171333">
        <ele>778.0</ele>
        <time>2020-07-19T09:40:38.000Z</time>
      </trkpt>
      <trkpt lat="41.67199" lon="-4.75171167">
        <ele>778.0</ele>
        <time>2020-07-19T09:40:39.000Z</time>
      </trkpt>
      <trkpt lat="41.67199" lon="-4.75171167">
        <ele>778.0</ele>
        <time>2020-07-19T09:40:40.000Z</time>
      </trkpt>
      <trkpt lat="41.67199" lon="-4.75171167">
        <ele>778.0</ele>
        <time>2020-07-19T09:40:41.000Z</time>
      </trkpt>
      <trkpt lat="41.67199167" lon="-4.75171333">
        <ele>778.0</ele>
        <time>2020-07-19T09:40:42.000Z</time>
      </trkpt>
      <trkpt lat="41.67199167" lon="-4.75171333">
        <ele>778.0</ele>
        <time>2020-07-19T09:40:43.000Z</time>
      </trkpt>
      <trkpt lat="41.67198667" lon="-4.751715">
        <ele>778.0</ele>
        <time>2020-07-19T09:40:44.000Z</time>
      </trkpt>
      <trkpt lat="41.67198" lon="-4.75171667">
        <ele>778.0</ele>
        <time>2020-07-19T09:40:45.000Z</time>
      </trkpt>
      <trkpt lat="41.67197333" lon="-4.75172">
        <ele>778.0</ele>
        <time>2020-07-19T09:40:46.000Z</time>
      </trkpt>
      <trkpt lat="41.67197" lon="-4.75172167">
        <ele>778.0</ele>
        <time>2020-07-19T09:40:47.000Z</time>
      </trkpt>
      <trkpt lat="41.67196667" lon="-4.751725">
        <ele>778.0</ele>
        <time>2020-07-19T09:40:48.000Z</time>
      </trkpt>
      <trkpt lat="41.67196833" lon="-4.751725">
        <ele>778.0</ele>
        <time>2020-07-19T09:40:49.000Z</time>
      </trkpt>
      <trkpt lat="41.67196833" lon="-4.751725">
        <ele>778.0</ele>
        <time>2020-07-19T09:40:50.000Z</time>
      </trkpt>
      <trkpt lat="41.67196833" lon="-4.751725">
        <ele>778.0</ele>
        <time>2020-07-19T09:40:51.000Z</time>
      </trkpt>
      <trkpt lat="41.67196833" lon="-4.751725">
        <ele>778.0</ele>
        <time>2020-07-19T09:40:52.000Z</time>
      </trkpt>
      <trkpt lat="41.67196833" lon="-4.751725">
        <ele>778.0</ele>
        <time>2020-07-19T09:40:53.000Z</time>
      </trkpt>
      <trkpt lat="41.67196833" lon="-4.751725">
        <ele>778.0</ele>
        <time>2020-07-19T09:40:54.000Z</time>
      </trkpt>
      <trkpt lat="41.67197" lon="-4.75172333">
        <ele>778.0</ele>
        <time>2020-07-19T09:40:55.000Z</time>
      </trkpt>
      <trkpt lat="41.67197" lon="-4.75172333">
        <ele>778.0</ele>
        <time>2020-07-19T09:40:56.000Z</time>
      </trkpt>
      <trkpt lat="41.67197" lon="-4.751725">
        <ele>778.0</ele>
        <time>2020-07-19T09:40:57.000Z</time>
      </trkpt>
      <trkpt lat="41.67197" lon="-4.751725">
        <ele>778.0</ele>
        <time>2020-07-19T09:40:58.000Z</time>
      </trkpt>
      <trkpt lat="41.67197" lon="-4.751725">
        <ele>778.0</ele>
        <time>2020-07-19T09:40:59.000Z</time>
      </trkpt>
      <trkpt lat="41.67197" lon="-4.751725">
        <ele>778.0</ele>
        <time>2020-07-19T09:41:00.000Z</time>
      </trkpt>
      <trkpt lat="41.67197" lon="-4.751725">
        <ele>778.0</ele>
        <time>2020-07-19T09:41:01.000Z</time>
      </trkpt>
      <trkpt lat="41.67197" lon="-4.751725">
        <ele>778.0</ele>
        <time>2020-07-19T09:41:02.000Z</time>
      </trkpt>
      <trkpt lat="41.67197167" lon="-4.751725">
        <ele>778.0</ele>
        <time>2020-07-19T09:41:03.000Z</time>
      </trkpt>
      <trkpt lat="41.67197167" lon="-4.751725">
        <ele>778.0</ele>
        <time>2020-07-19T09:41:04.000Z</time>
      </trkpt>
      <trkpt lat="41.67197167" lon="-4.751725">
        <ele>778.0</ele>
        <time>2020-07-19T09:41:05.000Z</time>
      </trkpt>
      <trkpt lat="41.67197167" lon="-4.751725">
        <ele>778.0</ele>
        <time>2020-07-19T09:41:06.000Z</time>
      </trkpt>
      <trkpt lat="41.67197167" lon="-4.751725">
        <ele>778.0</ele>
        <time>2020-07-19T09:41:07.000Z</time>
      </trkpt>
      <trkpt lat="41.67197167" lon="-4.751725">
        <ele>778.0</ele>
        <time>2020-07-19T09:41:08.000Z</time>
      </trkpt>
      <trkpt lat="41.67197167" lon="-4.751725">
        <ele>778.0</ele>
        <time>2020-07-19T09:41:09.000Z</time>
      </trkpt>
      <trkpt lat="41.67197167" lon="-4.751725">
        <ele>778.0</ele>
        <time>2020-07-19T09:41:10.000Z</time>
      </trkpt>
      <trkpt lat="41.67197167" lon="-4.751725">
        <ele>778.0</ele>
        <time>2020-07-19T09:41:11.000Z</time>
      </trkpt>
      <trkpt lat="41.67197167" lon="-4.751725">
        <ele>778.0</ele>
        <time>2020-07-19T09:41:12.000Z</time>
      </trkpt>
      <trkpt lat="41.67197333" lon="-4.75172667">
        <ele>777.0</ele>
        <time>2020-07-19T09:41:13.000Z</time>
      </trkpt>
      <trkpt lat="41.67197167" lon="-4.75172833">
        <ele>777.0</ele>
        <time>2020-07-19T09:41:14.000Z</time>
      </trkpt>
      <trkpt lat="41.67197167" lon="-4.75172833">
        <ele>777.0</ele>
        <time>2020-07-19T09:41:15.000Z</time>
      </trkpt>
      <trkpt lat="41.67197167" lon="-4.75172833">
        <ele>777.0</ele>
        <time>2020-07-19T09:41:16.000Z</time>
      </trkpt>
      <trkpt lat="41.67197167" lon="-4.75172667">
        <ele>777.0</ele>
        <time>2020-07-19T09:41:17.000Z</time>
      </trkpt>
      <trkpt lat="41.67197167" lon="-4.75172667">
        <ele>777.0</ele>
        <time>2020-07-19T09:41:18.000Z</time>
      </trkpt>
      <trkpt lat="41.67197167" lon="-4.75172667">
        <ele>777.0</ele>
        <time>2020-07-19T09:41:19.000Z</time>
      </trkpt>
      <trkpt lat="41.67197167" lon="-4.75172667">
        <ele>777.0</ele>
        <time>2020-07-19T09:41:20.000Z</time>
      </trkpt>
      <trkpt lat="41.67197167" lon="-4.75172667">
        <ele>777.0</ele>
        <time>2020-07-19T09:41:21.000Z</time>
      </trkpt>
      <trkpt lat="41.67197167" lon="-4.75172667">
        <ele>777.0</ele>
        <time>2020-07-19T09:41:22.000Z</time>
      </trkpt>
      <trkpt lat="41.67197167" lon="-4.75172833">
        <ele>777.0</ele>
        <time>2020-07-19T09:41:23.000Z</time>
      </trkpt>
      <trkpt lat="41.67197167" lon="-4.75172833">
        <ele>777.0</ele>
        <time>2020-07-19T09:41:24.000Z</time>
      </trkpt>
      <trkpt lat="41.67197167" lon="-4.75172833">
        <ele>777.0</ele>
        <time>2020-07-19T09:41:25.000Z</time>
      </trkpt>
      <trkpt lat="41.67197167" lon="-4.75172667">
        <ele>777.0</ele>
        <time>2020-07-19T09:41:26.000Z</time>
      </trkpt>
      <trkpt lat="41.67197167" lon="-4.751725">
        <ele>777.0</ele>
        <time>2020-07-19T09:41:27.000Z</time>
      </trkpt>
      <trkpt lat="41.67197333" lon="-4.75172333">
        <ele>777.0</ele>
        <time>2020-07-19T09:41:28.000Z</time>
      </trkpt>
      <trkpt lat="41.67197833" lon="-4.75172167">
        <ele>777.0</ele>
        <time>2020-07-19T09:41:29.000Z</time>
      </trkpt>
      <trkpt lat="41.67198333" lon="-4.75171333">
        <ele>777.0</ele>
        <time>2020-07-19T09:41:30.000Z</time>
      </trkpt>
      <trkpt lat="41.67198667" lon="-4.75169667">
        <ele>777.0</ele>
        <time>2020-07-19T09:41:31.000Z</time>
      </trkpt>
      <trkpt lat="41.67198667" lon="-4.751675">
        <ele>777.0</ele>
        <time>2020-07-19T09:41:32.000Z</time>
      </trkpt>
      <trkpt lat="41.671985" lon="-4.751645">
        <ele>777.0</ele>
        <time>2020-07-19T09:41:33.000Z</time>
      </trkpt>
      <trkpt lat="41.67198167" lon="-4.75161333">
        <ele>777.0</ele>
        <time>2020-07-19T09:41:34.000Z</time>
      </trkpt>
      <trkpt lat="41.67197833" lon="-4.75157667">
        <ele>777.0</ele>
        <time>2020-07-19T09:41:35.000Z</time>
      </trkpt>
      <trkpt lat="41.67197667" lon="-4.75153667">
        <ele>777.0</ele>
        <time>2020-07-19T09:41:36.000Z</time>
      </trkpt>
      <trkpt lat="41.67198" lon="-4.751495">
        <ele>777.0</ele>
        <time>2020-07-19T09:41:37.000Z</time>
      </trkpt>
      <trkpt lat="41.67198167" lon="-4.75144833">
        <ele>777.0</ele>
        <time>2020-07-19T09:41:38.000Z</time>
      </trkpt>
      <trkpt lat="41.671985" lon="-4.75140667">
        <ele>777.0</ele>
        <time>2020-07-19T09:41:39.000Z</time>
      </trkpt>
      <trkpt lat="41.67199667" lon="-4.75136167">
        <ele>777.0</ele>
        <time>2020-07-19T09:41:40.000Z</time>
      </trkpt>
      <trkpt lat="41.67201" lon="-4.75131333">
        <ele>777.0</ele>
        <time>2020-07-19T09:41:41.000Z</time>
      </trkpt>
      <trkpt lat="41.67202333" lon="-4.751265">
        <ele>777.0</ele>
        <time>2020-07-19T09:41:42.000Z</time>
      </trkpt>
      <trkpt lat="41.67203833" lon="-4.75121667">
        <ele>777.0</ele>
        <time>2020-07-19T09:41:43.000Z</time>
      </trkpt>
      <trkpt lat="41.67205167" lon="-4.751165">
        <ele>777.0</ele>
        <time>2020-07-19T09:41:44.000Z</time>
      </trkpt>
      <trkpt lat="41.67206333" lon="-4.75111333">
        <ele>777.0</ele>
        <time>2020-07-19T09:41:45.000Z</time>
      </trkpt>
      <trkpt lat="41.672075" lon="-4.75106">
        <ele>777.0</ele>
        <time>2020-07-19T09:41:46.000Z</time>
      </trkpt>
      <trkpt lat="41.67209" lon="-4.75100667">
        <ele>777.0</ele>
        <time>2020-07-19T09:41:47.000Z</time>
      </trkpt>
      <trkpt lat="41.67210333" lon="-4.750955">
        <ele>777.0</ele>
        <time>2020-07-19T09:41:48.000Z</time>
      </trkpt>
      <trkpt lat="41.67211833" lon="-4.75090333">
        <ele>777.0</ele>
        <time>2020-07-19T09:41:49.000Z</time>
      </trkpt>
      <trkpt lat="41.67213333" lon="-4.75085167">
        <ele>777.0</ele>
        <time>2020-07-19T09:41:50.000Z</time>
      </trkpt>
      <trkpt lat="41.67214667" lon="-4.75080167">
        <ele>777.0</ele>
        <time>2020-07-19T09:41:51.000Z</time>
      </trkpt>
      <trkpt lat="41.67216167" lon="-4.75075">
        <ele>776.0</ele>
        <time>2020-07-19T09:41:52.000Z</time>
      </trkpt>
      <trkpt lat="41.67217833" lon="-4.7507">
        <ele>776.0</ele>
        <time>2020-07-19T09:41:53.000Z</time>
      </trkpt>
      <trkpt lat="41.67219167" lon="-4.75064833">
        <ele>776.0</ele>
        <time>2020-07-19T09:41:54.000Z</time>
      </trkpt>
      <trkpt lat="41.672205" lon="-4.75059833">
        <ele>776.0</ele>
        <time>2020-07-19T09:41:55.000Z</time>
      </trkpt>
      <trkpt lat="41.67221833" lon="-4.75054667">
        <ele>776.0</ele>
        <time>2020-07-19T09:41:56.000Z</time>
      </trkpt>
      <trkpt lat="41.67223333" lon="-4.75049333">
        <ele>776.0</ele>
        <time>2020-07-19T09:41:57.000Z</time>
      </trkpt>
      <trkpt lat="41.67224833" lon="-4.750435">
        <ele>776.0</ele>
        <time>2020-07-19T09:41:58.000Z</time>
      </trkpt>
      <trkpt lat="41.67226333" lon="-4.750375">
        <ele>776.0</ele>
        <time>2020-07-19T09:41:59.000Z</time>
      </trkpt>
      <trkpt lat="41.67227833" lon="-4.750315">
        <ele>776.0</ele>
        <time>2020-07-19T09:42:00.000Z</time>
      </trkpt>
      <trkpt lat="41.67229333" lon="-4.75026167">
        <ele>776.0</ele>
        <time>2020-07-19T09:42:01.000Z</time>
      </trkpt>
      <trkpt lat="41.67230833" lon="-4.75020667">
        <ele>776.0</ele>
        <time>2020-07-19T09:42:02.000Z</time>
      </trkpt>
      <trkpt lat="41.67232333" lon="-4.750145">
        <ele>776.0</ele>
        <time>2020-07-19T09:42:03.000Z</time>
      </trkpt>
      <trkpt lat="41.67233833" lon="-4.75008667">
        <ele>776.0</ele>
        <time>2020-07-19T09:42:04.000Z</time>
      </trkpt>
      <trkpt lat="41.67235333" lon="-4.75003167">
        <ele>776.0</ele>
        <time>2020-07-19T09:42:05.000Z</time>
      </trkpt>
      <trkpt lat="41.67236833" lon="-4.74997667">
        <ele>776.0</ele>
        <time>2020-07-19T09:42:06.000Z</time>
      </trkpt>
      <trkpt lat="41.67238333" lon="-4.749925">
        <ele>776.0</ele>
        <time>2020-07-19T09:42:07.000Z</time>
      </trkpt>
      <trkpt lat="41.67239833" lon="-4.74987333">
        <ele>776.0</ele>
        <time>2020-07-19T09:42:08.000Z</time>
      </trkpt>
      <trkpt lat="41.67241167" lon="-4.749825">
        <ele>776.0</ele>
        <time>2020-07-19T09:42:09.000Z</time>
      </trkpt>
      <trkpt lat="41.67242333" lon="-4.74977667">
        <ele>776.0</ele>
        <time>2020-07-19T09:42:10.000Z</time>
      </trkpt>
      <trkpt lat="41.67243667" lon="-4.74973">
        <ele>775.0</ele>
        <time>2020-07-19T09:42:11.000Z</time>
      </trkpt>
      <trkpt lat="41.67245" lon="-4.74968333">
        <ele>776.0</ele>
        <time>2020-07-19T09:42:12.000Z</time>
      </trkpt>
      <trkpt lat="41.67246333" lon="-4.749635">
        <ele>776.0</ele>
        <time>2020-07-19T09:42:13.000Z</time>
      </trkpt>
      <trkpt lat="41.67247667" lon="-4.74958667">
        <ele>775.0</ele>
        <time>2020-07-19T09:42:14.000Z</time>
      </trkpt>
      <trkpt lat="41.67249" lon="-4.74953667">
        <ele>775.0</ele>
        <time>2020-07-19T09:42:15.000Z</time>
      </trkpt>
      <trkpt lat="41.672505" lon="-4.74948667">
        <ele>775.0</ele>
        <time>2020-07-19T09:42:16.000Z</time>
      </trkpt>
      <trkpt lat="41.67252167" lon="-4.74944">
        <ele>776.0</ele>
        <time>2020-07-19T09:42:17.000Z</time>
      </trkpt>
      <trkpt lat="41.67254167" lon="-4.7494">
        <ele>776.0</ele>
        <time>2020-07-19T09:42:18.000Z</time>
      </trkpt>
      <trkpt lat="41.672565" lon="-4.749365">
        <ele>776.0</ele>
        <time>2020-07-19T09:42:19.000Z</time>
      </trkpt>
      <trkpt lat="41.67259167" lon="-4.74934">
        <ele>776.0</ele>
        <time>2020-07-19T09:42:20.000Z</time>
      </trkpt>
      <trkpt lat="41.67262" lon="-4.749325">
        <ele>776.0</ele>
        <time>2020-07-19T09:42:21.000Z</time>
      </trkpt>
      <trkpt lat="41.67265167" lon="-4.74932667">
        <ele>776.0</ele>
        <time>2020-07-19T09:42:22.000Z</time>
      </trkpt>
      <trkpt lat="41.67267833" lon="-4.74935667">
        <ele>776.0</ele>
        <time>2020-07-19T09:42:23.000Z</time>
      </trkpt>
      <trkpt lat="41.672705" lon="-4.74939667">
        <ele>776.0</ele>
        <time>2020-07-19T09:42:24.000Z</time>
      </trkpt>
      <trkpt lat="41.67272833" lon="-4.74943833">
        <ele>776.0</ele>
        <time>2020-07-19T09:42:25.000Z</time>
      </trkpt>
      <trkpt lat="41.67275167" lon="-4.74948167">
        <ele>776.0</ele>
        <time>2020-07-19T09:42:26.000Z</time>
      </trkpt>
      <trkpt lat="41.67277167" lon="-4.74952667">
        <ele>776.0</ele>
        <time>2020-07-19T09:42:27.000Z</time>
      </trkpt>
      <trkpt lat="41.67279333" lon="-4.74957333">
        <ele>776.0</ele>
        <time>2020-07-19T09:42:28.000Z</time>
      </trkpt>
      <trkpt lat="41.67281833" lon="-4.74962">
        <ele>776.0</ele>
        <time>2020-07-19T09:42:29.000Z</time>
      </trkpt>
      <trkpt lat="41.67284" lon="-4.74966833">
        <ele>776.0</ele>
        <time>2020-07-19T09:42:30.000Z</time>
      </trkpt>
      <trkpt lat="41.67286333" lon="-4.749715">
        <ele>776.0</ele>
        <time>2020-07-19T09:42:31.000Z</time>
      </trkpt>
      <trkpt lat="41.672885" lon="-4.74976167">
        <ele>776.0</ele>
        <time>2020-07-19T09:42:32.000Z</time>
      </trkpt>
      <trkpt lat="41.672905" lon="-4.74981">
        <ele>776.0</ele>
        <time>2020-07-19T09:42:33.000Z</time>
      </trkpt>
      <trkpt lat="41.672925" lon="-4.74986">
        <ele>776.0</ele>
        <time>2020-07-19T09:42:34.000Z</time>
      </trkpt>
      <trkpt lat="41.67294667" lon="-4.74990667">
        <ele>776.0</ele>
        <time>2020-07-19T09:42:35.000Z</time>
      </trkpt>
      <trkpt lat="41.67296667" lon="-4.74995667">
        <ele>776.0</ele>
        <time>2020-07-19T09:42:36.000Z</time>
      </trkpt>
      <trkpt lat="41.67298667" lon="-4.75000333">
        <ele>776.0</ele>
        <time>2020-07-19T09:42:37.000Z</time>
      </trkpt>
      <trkpt lat="41.673005" lon="-4.75004833">
        <ele>776.0</ele>
        <time>2020-07-19T09:42:38.000Z</time>
      </trkpt>
      <trkpt lat="41.67302333" lon="-4.75009333">
        <ele>776.0</ele>
        <time>2020-07-19T09:42:39.000Z</time>
      </trkpt>
      <trkpt lat="41.67304167" lon="-4.75014">
        <ele>776.0</ele>
        <time>2020-07-19T09:42:40.000Z</time>
      </trkpt>
      <trkpt lat="41.67306167" lon="-4.75018833">
        <ele>776.0</ele>
        <time>2020-07-19T09:42:41.000Z</time>
      </trkpt>
      <trkpt lat="41.67308167" lon="-4.75024">
        <ele>776.0</ele>
        <time>2020-07-19T09:42:42.000Z</time>
      </trkpt>
      <trkpt lat="41.67310167" lon="-4.750295">
        <ele>776.0</ele>
        <time>2020-07-19T09:42:43.000Z</time>
      </trkpt>
      <trkpt lat="41.67312" lon="-4.75035167">
        <ele>776.0</ele>
        <time>2020-07-19T09:42:44.000Z</time>
      </trkpt>
      <trkpt lat="41.67314" lon="-4.75040833">
        <ele>776.0</ele>
        <time>2020-07-19T09:42:45.000Z</time>
      </trkpt>
      <trkpt lat="41.67316333" lon="-4.75046333">
        <ele>775.0</ele>
        <time>2020-07-19T09:42:46.000Z</time>
      </trkpt>
      <trkpt lat="41.67318667" lon="-4.75051833">
        <ele>775.0</ele>
        <time>2020-07-19T09:42:47.000Z</time>
      </trkpt>
      <trkpt lat="41.67321167" lon="-4.75057167">
        <ele>775.0</ele>
        <time>2020-07-19T09:42:48.000Z</time>
      </trkpt>
      <trkpt lat="41.67323833" lon="-4.75062333">
        <ele>775.0</ele>
        <time>2020-07-19T09:42:49.000Z</time>
      </trkpt>
      <trkpt lat="41.67326167" lon="-4.75067333">
        <ele>775.0</ele>
        <time>2020-07-19T09:42:50.000Z</time>
      </trkpt>
      <trkpt lat="41.67328833" lon="-4.750725">
        <ele>775.0</ele>
        <time>2020-07-19T09:42:51.000Z</time>
      </trkpt>
      <trkpt lat="41.67331667" lon="-4.75077333">
        <ele>775.0</ele>
        <time>2020-07-19T09:42:52.000Z</time>
      </trkpt>
      <trkpt lat="41.67334667" lon="-4.75082333">
        <ele>775.0</ele>
        <time>2020-07-19T09:42:53.000Z</time>
      </trkpt>
      <trkpt lat="41.673375" lon="-4.75087167">
        <ele>775.0</ele>
        <time>2020-07-19T09:42:54.000Z</time>
      </trkpt>
      <trkpt lat="41.67340333" lon="-4.75092">
        <ele>775.0</ele>
        <time>2020-07-19T09:42:55.000Z</time>
      </trkpt>
      <trkpt lat="41.67343167" lon="-4.75097">
        <ele>774.0</ele>
        <time>2020-07-19T09:42:56.000Z</time>
      </trkpt>
      <trkpt lat="41.67346" lon="-4.75102167">
        <ele>774.0</ele>
        <time>2020-07-19T09:42:57.000Z</time>
      </trkpt>
      <trkpt lat="41.67348667" lon="-4.75107333">
        <ele>774.0</ele>
        <time>2020-07-19T09:42:58.000Z</time>
      </trkpt>
      <trkpt lat="41.67351333" lon="-4.75112333">
        <ele>774.0</ele>
        <time>2020-07-19T09:42:59.000Z</time>
      </trkpt>
      <trkpt lat="41.67354167" lon="-4.751175">
        <ele>774.0</ele>
        <time>2020-07-19T09:43:00.000Z</time>
      </trkpt>
      <trkpt lat="41.673565" lon="-4.75122833">
        <ele>774.0</ele>
        <time>2020-07-19T09:43:01.000Z</time>
      </trkpt>
      <trkpt lat="41.67358833" lon="-4.75128333">
        <ele>774.0</ele>
        <time>2020-07-19T09:43:02.000Z</time>
      </trkpt>
      <trkpt lat="41.673615" lon="-4.75133667">
        <ele>773.0</ele>
        <time>2020-07-19T09:43:03.000Z</time>
      </trkpt>
      <trkpt lat="41.67364333" lon="-4.75139">
        <ele>773.0</ele>
        <time>2020-07-19T09:43:04.000Z</time>
      </trkpt>
      <trkpt lat="41.67367333" lon="-4.75144667">
        <ele>773.0</ele>
        <time>2020-07-19T09:43:05.000Z</time>
      </trkpt>
      <trkpt lat="41.67370667" lon="-4.7515">
        <ele>773.0</ele>
        <time>2020-07-19T09:43:06.000Z</time>
      </trkpt>
      <trkpt lat="41.67374167" lon="-4.75155333">
        <ele>773.0</ele>
        <time>2020-07-19T09:43:07.000Z</time>
      </trkpt>
      <trkpt lat="41.67377833" lon="-4.75160333">
        <ele>773.0</ele>
        <time>2020-07-19T09:43:08.000Z</time>
      </trkpt>
      <trkpt lat="41.673815" lon="-4.75165333">
        <ele>773.0</ele>
        <time>2020-07-19T09:43:09.000Z</time>
      </trkpt>
      <trkpt lat="41.67385333" lon="-4.75170167">
        <ele>773.0</ele>
        <time>2020-07-19T09:43:10.000Z</time>
      </trkpt>
      <trkpt lat="41.673895" lon="-4.751745">
        <ele>772.0</ele>
        <time>2020-07-19T09:43:11.000Z</time>
      </trkpt>
      <trkpt lat="41.67393833" lon="-4.75178333">
        <ele>772.0</ele>
        <time>2020-07-19T09:43:12.000Z</time>
      </trkpt>
      <trkpt lat="41.67398333" lon="-4.75181667">
        <ele>772.0</ele>
        <time>2020-07-19T09:43:13.000Z</time>
      </trkpt>
      <trkpt lat="41.67402833" lon="-4.75185">
        <ele>772.0</ele>
        <time>2020-07-19T09:43:14.000Z</time>
      </trkpt>
      <trkpt lat="41.67407167" lon="-4.75187667">
        <ele>772.0</ele>
        <time>2020-07-19T09:43:15.000Z</time>
      </trkpt>
      <trkpt lat="41.674115" lon="-4.7519">
        <ele>772.0</ele>
        <time>2020-07-19T09:43:16.000Z</time>
      </trkpt>
      <trkpt lat="41.67415667" lon="-4.751915">
        <ele>772.0</ele>
        <time>2020-07-19T09:43:17.000Z</time>
      </trkpt>
      <trkpt lat="41.6742" lon="-4.75192333">
        <ele>772.0</ele>
        <time>2020-07-19T09:43:18.000Z</time>
      </trkpt>
      <trkpt lat="41.674245" lon="-4.751935">
        <ele>772.0</ele>
        <time>2020-07-19T09:43:19.000Z</time>
      </trkpt>
      <trkpt lat="41.67429" lon="-4.75194667">
        <ele>772.0</ele>
        <time>2020-07-19T09:43:20.000Z</time>
      </trkpt>
      <trkpt lat="41.674335" lon="-4.751955">
        <ele>772.0</ele>
        <time>2020-07-19T09:43:21.000Z</time>
      </trkpt>
      <trkpt lat="41.67438" lon="-4.75196333">
        <ele>772.0</ele>
        <time>2020-07-19T09:43:22.000Z</time>
      </trkpt>
      <trkpt lat="41.674425" lon="-4.751975">
        <ele>771.0</ele>
        <time>2020-07-19T09:43:23.000Z</time>
      </trkpt>
      <trkpt lat="41.67447" lon="-4.75199167">
        <ele>771.0</ele>
        <time>2020-07-19T09:43:24.000Z</time>
      </trkpt>
      <trkpt lat="41.67451333" lon="-4.75201">
        <ele>771.0</ele>
        <time>2020-07-19T09:43:25.000Z</time>
      </trkpt>
      <trkpt lat="41.67455667" lon="-4.75203167">
        <ele>771.0</ele>
        <time>2020-07-19T09:43:26.000Z</time>
      </trkpt>
      <trkpt lat="41.6746" lon="-4.752055">
        <ele>771.0</ele>
        <time>2020-07-19T09:43:27.000Z</time>
      </trkpt>
      <trkpt lat="41.67464333" lon="-4.75207667">
        <ele>771.0</ele>
        <time>2020-07-19T09:43:28.000Z</time>
      </trkpt>
      <trkpt lat="41.67468833" lon="-4.75210167">
        <ele>771.0</ele>
        <time>2020-07-19T09:43:29.000Z</time>
      </trkpt>
      <trkpt lat="41.67473167" lon="-4.75213">
        <ele>771.0</ele>
        <time>2020-07-19T09:43:30.000Z</time>
      </trkpt>
      <trkpt lat="41.67477667" lon="-4.75215833">
        <ele>771.0</ele>
        <time>2020-07-19T09:43:31.000Z</time>
      </trkpt>
      <trkpt lat="41.67482" lon="-4.75218667">
        <ele>771.0</ele>
        <time>2020-07-19T09:43:32.000Z</time>
      </trkpt>
      <trkpt lat="41.674865" lon="-4.75221167">
        <ele>771.0</ele>
        <time>2020-07-19T09:43:33.000Z</time>
      </trkpt>
      <trkpt lat="41.67490833" lon="-4.75223833">
        <ele>771.0</ele>
        <time>2020-07-19T09:43:34.000Z</time>
      </trkpt>
      <trkpt lat="41.67495167" lon="-4.752265">
        <ele>771.0</ele>
        <time>2020-07-19T09:43:35.000Z</time>
      </trkpt>
      <trkpt lat="41.67499167" lon="-4.75229333">
        <ele>771.0</ele>
        <time>2020-07-19T09:43:36.000Z</time>
      </trkpt>
      <trkpt lat="41.67503167" lon="-4.75232333">
        <ele>771.0</ele>
        <time>2020-07-19T09:43:37.000Z</time>
      </trkpt>
      <trkpt lat="41.67507167" lon="-4.752355">
        <ele>771.0</ele>
        <time>2020-07-19T09:43:38.000Z</time>
      </trkpt>
      <trkpt lat="41.67511167" lon="-4.75238333">
        <ele>771.0</ele>
        <time>2020-07-19T09:43:39.000Z</time>
      </trkpt>
      <trkpt lat="41.67515167" lon="-4.75240667">
        <ele>771.0</ele>
        <time>2020-07-19T09:43:40.000Z</time>
      </trkpt>
      <trkpt lat="41.67519167" lon="-4.75242833">
        <ele>771.0</ele>
        <time>2020-07-19T09:43:41.000Z</time>
      </trkpt>
      <trkpt lat="41.67522833" lon="-4.752455">
        <ele>771.0</ele>
        <time>2020-07-19T09:43:42.000Z</time>
      </trkpt>
      <trkpt lat="41.67526333" lon="-4.75248">
        <ele>771.0</ele>
        <time>2020-07-19T09:43:43.000Z</time>
      </trkpt>
      <trkpt lat="41.67529833" lon="-4.75250833">
        <ele>771.0</ele>
        <time>2020-07-19T09:43:44.000Z</time>
      </trkpt>
      <trkpt lat="41.67533167" lon="-4.75254">
        <ele>771.0</ele>
        <time>2020-07-19T09:43:45.000Z</time>
      </trkpt>
      <trkpt lat="41.67537" lon="-4.75256667">
        <ele>771.0</ele>
        <time>2020-07-19T09:43:46.000Z</time>
      </trkpt>
      <trkpt lat="41.67540833" lon="-4.752595">
        <ele>771.0</ele>
        <time>2020-07-19T09:43:47.000Z</time>
      </trkpt>
      <trkpt lat="41.675445" lon="-4.75262667">
        <ele>771.0</ele>
        <time>2020-07-19T09:43:48.000Z</time>
      </trkpt>
      <trkpt lat="41.67548333" lon="-4.75266">
        <ele>771.0</ele>
        <time>2020-07-19T09:43:49.000Z</time>
      </trkpt>
      <trkpt lat="41.67552167" lon="-4.75269333">
        <ele>771.0</ele>
        <time>2020-07-19T09:43:50.000Z</time>
      </trkpt>
      <trkpt lat="41.67556167" lon="-4.75272667">
        <ele>771.0</ele>
        <time>2020-07-19T09:43:51.000Z</time>
      </trkpt>
      <trkpt lat="41.67560167" lon="-4.75276167">
        <ele>771.0</ele>
        <time>2020-07-19T09:43:52.000Z</time>
      </trkpt>
      <trkpt lat="41.67564" lon="-4.75279833">
        <ele>770.0</ele>
        <time>2020-07-19T09:43:53.000Z</time>
      </trkpt>
      <trkpt lat="41.67567667" lon="-4.75283667">
        <ele>770.0</ele>
        <time>2020-07-19T09:43:54.000Z</time>
      </trkpt>
      <trkpt lat="41.67571333" lon="-4.75287333">
        <ele>770.0</ele>
        <time>2020-07-19T09:43:55.000Z</time>
      </trkpt>
      <trkpt lat="41.67574833" lon="-4.75290833">
        <ele>770.0</ele>
        <time>2020-07-19T09:43:56.000Z</time>
      </trkpt>
      <trkpt lat="41.67578333" lon="-4.752945">
        <ele>770.0</ele>
        <time>2020-07-19T09:43:57.000Z</time>
      </trkpt>
      <trkpt lat="41.67581667" lon="-4.75298333">
        <ele>770.0</ele>
        <time>2020-07-19T09:43:58.000Z</time>
      </trkpt>
      <trkpt lat="41.67585333" lon="-4.75302">
        <ele>770.0</ele>
        <time>2020-07-19T09:43:59.000Z</time>
      </trkpt>
      <trkpt lat="41.675895" lon="-4.75305">
        <ele>770.0</ele>
        <time>2020-07-19T09:44:00.000Z</time>
      </trkpt>
      <trkpt lat="41.675935" lon="-4.75308">
        <ele>770.0</ele>
        <time>2020-07-19T09:44:01.000Z</time>
      </trkpt>
      <trkpt lat="41.675975" lon="-4.75311">
        <ele>770.0</ele>
        <time>2020-07-19T09:44:02.000Z</time>
      </trkpt>
      <trkpt lat="41.67601167" lon="-4.75314333">
        <ele>770.0</ele>
        <time>2020-07-19T09:44:03.000Z</time>
      </trkpt>
      <trkpt lat="41.67604667" lon="-4.75317833">
        <ele>770.0</ele>
        <time>2020-07-19T09:44:04.000Z</time>
      </trkpt>
      <trkpt lat="41.67608" lon="-4.75321167">
        <ele>770.0</ele>
        <time>2020-07-19T09:44:05.000Z</time>
      </trkpt>
      <trkpt lat="41.67611333" lon="-4.753245">
        <ele>770.0</ele>
        <time>2020-07-19T09:44:06.000Z</time>
      </trkpt>
      <trkpt lat="41.67614833" lon="-4.75327167">
        <ele>770.0</ele>
        <time>2020-07-19T09:44:07.000Z</time>
      </trkpt>
      <trkpt lat="41.67618" lon="-4.75329167">
        <ele>770.0</ele>
        <time>2020-07-19T09:44:08.000Z</time>
      </trkpt>
      <trkpt lat="41.67621" lon="-4.75329167">
        <ele>770.0</ele>
        <time>2020-07-19T09:44:09.000Z</time>
      </trkpt>
      <trkpt lat="41.67622833" lon="-4.75326833">
        <ele>770.0</ele>
        <time>2020-07-19T09:44:10.000Z</time>
      </trkpt>
      <trkpt lat="41.67623167" lon="-4.75323667">
        <ele>770.0</ele>
        <time>2020-07-19T09:44:11.000Z</time>
      </trkpt>
      <trkpt lat="41.676225" lon="-4.75319667">
        <ele>770.0</ele>
        <time>2020-07-19T09:44:12.000Z</time>
      </trkpt>
      <trkpt lat="41.67621833" lon="-4.75315">
        <ele>770.0</ele>
        <time>2020-07-19T09:44:13.000Z</time>
      </trkpt>
      <trkpt lat="41.67621" lon="-4.75309667">
        <ele>770.0</ele>
        <time>2020-07-19T09:44:14.000Z</time>
      </trkpt>
      <trkpt lat="41.6762" lon="-4.75304">
        <ele>769.0</ele>
        <time>2020-07-19T09:44:15.000Z</time>
      </trkpt>
      <trkpt lat="41.67618667" lon="-4.75298167">
        <ele>769.0</ele>
        <time>2020-07-19T09:44:16.000Z</time>
      </trkpt>
      <trkpt lat="41.67617667" lon="-4.75291833">
        <ele>769.0</ele>
        <time>2020-07-19T09:44:17.000Z</time>
      </trkpt>
      <trkpt lat="41.67617" lon="-4.75285333">
        <ele>769.0</ele>
        <time>2020-07-19T09:44:18.000Z</time>
      </trkpt>
      <trkpt lat="41.67617333" lon="-4.75278833">
        <ele>769.0</ele>
        <time>2020-07-19T09:44:19.000Z</time>
      </trkpt>
      <trkpt lat="41.67618167" lon="-4.75272167">
        <ele>769.0</ele>
        <time>2020-07-19T09:44:20.000Z</time>
      </trkpt>
      <trkpt lat="41.67618667" lon="-4.75265167">
        <ele>769.0</ele>
        <time>2020-07-19T09:44:21.000Z</time>
      </trkpt>
      <trkpt lat="41.67618667" lon="-4.75258167">
        <ele>769.0</ele>
        <time>2020-07-19T09:44:22.000Z</time>
      </trkpt>
      <trkpt lat="41.67618667" lon="-4.75251667">
        <ele>769.0</ele>
        <time>2020-07-19T09:44:23.000Z</time>
      </trkpt>
      <trkpt lat="41.67619333" lon="-4.75246167">
        <ele>770.0</ele>
        <time>2020-07-19T09:44:24.000Z</time>
      </trkpt>
      <trkpt lat="41.67620667" lon="-4.75241667">
        <ele>770.0</ele>
        <time>2020-07-19T09:44:25.000Z</time>
      </trkpt>
      <trkpt lat="41.67622833" lon="-4.75238333">
        <ele>770.0</ele>
        <time>2020-07-19T09:44:26.000Z</time>
      </trkpt>
      <trkpt lat="41.67625333" lon="-4.75235833">
        <ele>770.0</ele>
        <time>2020-07-19T09:44:27.000Z</time>
      </trkpt>
      <trkpt lat="41.67628333" lon="-4.75234">
        <ele>770.0</ele>
        <time>2020-07-19T09:44:28.000Z</time>
      </trkpt>
      <trkpt lat="41.67631833" lon="-4.75232833">
        <ele>770.0</ele>
        <time>2020-07-19T09:44:29.000Z</time>
      </trkpt>
      <trkpt lat="41.67635667" lon="-4.75231333">
        <ele>770.0</ele>
        <time>2020-07-19T09:44:30.000Z</time>
      </trkpt>
      <trkpt lat="41.67639167" lon="-4.7523">
        <ele>770.0</ele>
        <time>2020-07-19T09:44:31.000Z</time>
      </trkpt>
      <trkpt lat="41.67642667" lon="-4.75228667">
        <ele>770.0</ele>
        <time>2020-07-19T09:44:32.000Z</time>
      </trkpt>
      <trkpt lat="41.67646333" lon="-4.75227667">
        <ele>770.0</ele>
        <time>2020-07-19T09:44:33.000Z</time>
      </trkpt>
      <trkpt lat="41.67650167" lon="-4.75226333">
        <ele>770.0</ele>
        <time>2020-07-19T09:44:34.000Z</time>
      </trkpt>
      <trkpt lat="41.67654167" lon="-4.75224833">
        <ele>770.0</ele>
        <time>2020-07-19T09:44:35.000Z</time>
      </trkpt>
      <trkpt lat="41.67657833" lon="-4.752235">
        <ele>770.0</ele>
        <time>2020-07-19T09:44:36.000Z</time>
      </trkpt>
      <trkpt lat="41.67661833" lon="-4.75222333">
        <ele>770.0</ele>
        <time>2020-07-19T09:44:37.000Z</time>
      </trkpt>
      <trkpt lat="41.67665833" lon="-4.75221167">
        <ele>770.0</ele>
        <time>2020-07-19T09:44:38.000Z</time>
      </trkpt>
      <trkpt lat="41.67669833" lon="-4.7522">
        <ele>770.0</ele>
        <time>2020-07-19T09:44:39.000Z</time>
      </trkpt>
      <trkpt lat="41.67674" lon="-4.75219167">
        <ele>770.0</ele>
        <time>2020-07-19T09:44:40.000Z</time>
      </trkpt>
      <trkpt lat="41.67678" lon="-4.752185">
        <ele>770.0</ele>
        <time>2020-07-19T09:44:41.000Z</time>
      </trkpt>
      <trkpt lat="41.67681833" lon="-4.75218">
        <ele>770.0</ele>
        <time>2020-07-19T09:44:42.000Z</time>
      </trkpt>
      <trkpt lat="41.67685333" lon="-4.75218">
        <ele>770.0</ele>
        <time>2020-07-19T09:44:43.000Z</time>
      </trkpt>
      <trkpt lat="41.676885" lon="-4.752175">
        <ele>770.0</ele>
        <time>2020-07-19T09:44:44.000Z</time>
      </trkpt>
      <trkpt lat="41.67690833" lon="-4.75216167">
        <ele>770.0</ele>
        <time>2020-07-19T09:44:45.000Z</time>
      </trkpt>
      <trkpt lat="41.67692833" lon="-4.75214">
        <ele>770.0</ele>
        <time>2020-07-19T09:44:46.000Z</time>
      </trkpt>
      <trkpt lat="41.67693833" lon="-4.75210667">
        <ele>770.0</ele>
        <time>2020-07-19T09:44:47.000Z</time>
      </trkpt>
      <trkpt lat="41.67694167" lon="-4.75207">
        <ele>770.0</ele>
        <time>2020-07-19T09:44:48.000Z</time>
      </trkpt>
      <trkpt lat="41.67694167" lon="-4.75202667">
        <ele>770.0</ele>
        <time>2020-07-19T09:44:49.000Z</time>
      </trkpt>
      <trkpt lat="41.676935" lon="-4.75198333">
        <ele>770.0</ele>
        <time>2020-07-19T09:44:50.000Z</time>
      </trkpt>
      <trkpt lat="41.676925" lon="-4.75193667">
        <ele>770.0</ele>
        <time>2020-07-19T09:44:51.000Z</time>
      </trkpt>
      <trkpt lat="41.67691333" lon="-4.75188833">
        <ele>770.0</ele>
        <time>2020-07-19T09:44:52.000Z</time>
      </trkpt>
      <trkpt lat="41.67690333" lon="-4.75183833">
        <ele>770.0</ele>
        <time>2020-07-19T09:44:53.000Z</time>
      </trkpt>
      <trkpt lat="41.67689333" lon="-4.75178667">
        <ele>770.0</ele>
        <time>2020-07-19T09:44:54.000Z</time>
      </trkpt>
      <trkpt lat="41.67688333" lon="-4.751735">
        <ele>770.0</ele>
        <time>2020-07-19T09:44:55.000Z</time>
      </trkpt>
      <trkpt lat="41.67687333" lon="-4.75168333">
        <ele>770.0</ele>
        <time>2020-07-19T09:44:56.000Z</time>
      </trkpt>
      <trkpt lat="41.676865" lon="-4.75162833">
        <ele>770.0</ele>
        <time>2020-07-19T09:44:57.000Z</time>
      </trkpt>
      <trkpt lat="41.67686" lon="-4.75157333">
        <ele>770.0</ele>
        <time>2020-07-19T09:44:58.000Z</time>
      </trkpt>
      <trkpt lat="41.676855" lon="-4.751515">
        <ele>770.0</ele>
        <time>2020-07-19T09:44:59.000Z</time>
      </trkpt>
      <trkpt lat="41.67685333" lon="-4.75145833">
        <ele>770.0</ele>
        <time>2020-07-19T09:45:00.000Z</time>
      </trkpt>
      <trkpt lat="41.67685333" lon="-4.75140833">
        <ele>769.0</ele>
        <time>2020-07-19T09:45:01.000Z</time>
      </trkpt>
      <trkpt lat="41.67685333" lon="-4.75135833">
        <ele>769.0</ele>
        <time>2020-07-19T09:45:02.000Z</time>
      </trkpt>
      <trkpt lat="41.67685333" lon="-4.75131">
        <ele>769.0</ele>
        <time>2020-07-19T09:45:03.000Z</time>
      </trkpt>
      <trkpt lat="41.67686" lon="-4.75126333">
        <ele>769.0</ele>
        <time>2020-07-19T09:45:04.000Z</time>
      </trkpt>
      <trkpt lat="41.676875" lon="-4.75122">
        <ele>769.0</ele>
        <time>2020-07-19T09:45:05.000Z</time>
      </trkpt>
      <trkpt lat="41.67689333" lon="-4.75118667">
        <ele>769.0</ele>
        <time>2020-07-19T09:45:06.000Z</time>
      </trkpt>
      <trkpt lat="41.67691167" lon="-4.75115667">
        <ele>769.0</ele>
        <time>2020-07-19T09:45:07.000Z</time>
      </trkpt>
      <trkpt lat="41.67693" lon="-4.75113167">
        <ele>769.0</ele>
        <time>2020-07-19T09:45:08.000Z</time>
      </trkpt>
      <trkpt lat="41.67694667" lon="-4.75110667">
        <ele>769.0</ele>
        <time>2020-07-19T09:45:09.000Z</time>
      </trkpt>
      <trkpt lat="41.67696167" lon="-4.75108167">
        <ele>769.0</ele>
        <time>2020-07-19T09:45:10.000Z</time>
      </trkpt>
      <trkpt lat="41.676975" lon="-4.75105667">
        <ele>769.0</ele>
        <time>2020-07-19T09:45:11.000Z</time>
      </trkpt>
      <trkpt lat="41.67698833" lon="-4.75102833">
        <ele>769.0</ele>
        <time>2020-07-19T09:45:12.000Z</time>
      </trkpt>
      <trkpt lat="41.67700167" lon="-4.751">
        <ele>769.0</ele>
        <time>2020-07-19T09:45:13.000Z</time>
      </trkpt>
      <trkpt lat="41.67701833" lon="-4.75096833">
        <ele>769.0</ele>
        <time>2020-07-19T09:45:14.000Z</time>
      </trkpt>
      <trkpt lat="41.677035" lon="-4.750935">
        <ele>769.0</ele>
        <time>2020-07-19T09:45:15.000Z</time>
      </trkpt>
      <trkpt lat="41.67705167" lon="-4.75089833">
        <ele>769.0</ele>
        <time>2020-07-19T09:45:16.000Z</time>
      </trkpt>
      <trkpt lat="41.67707" lon="-4.75086167">
        <ele>769.0</ele>
        <time>2020-07-19T09:45:17.000Z</time>
      </trkpt>
      <trkpt lat="41.67709167" lon="-4.750825">
        <ele>768.0</ele>
        <time>2020-07-19T09:45:18.000Z</time>
      </trkpt>
      <trkpt lat="41.67711667" lon="-4.750785">
        <ele>768.0</ele>
        <time>2020-07-19T09:45:19.000Z</time>
      </trkpt>
      <trkpt lat="41.67714167" lon="-4.750745">
        <ele>768.0</ele>
        <time>2020-07-19T09:45:20.000Z</time>
      </trkpt>
      <trkpt lat="41.67716833" lon="-4.75070167">
        <ele>768.0</ele>
        <time>2020-07-19T09:45:21.000Z</time>
      </trkpt>
      <trkpt lat="41.67719667" lon="-4.75066">
        <ele>768.0</ele>
        <time>2020-07-19T09:45:22.000Z</time>
      </trkpt>
      <trkpt lat="41.677225" lon="-4.75061833">
        <ele>768.0</ele>
        <time>2020-07-19T09:45:23.000Z</time>
      </trkpt>
      <trkpt lat="41.67725" lon="-4.75058">
        <ele>768.0</ele>
        <time>2020-07-19T09:45:24.000Z</time>
      </trkpt>
      <trkpt lat="41.67727333" lon="-4.75055">
        <ele>768.0</ele>
        <time>2020-07-19T09:45:25.000Z</time>
      </trkpt>
      <trkpt lat="41.67729333" lon="-4.75052333">
        <ele>769.0</ele>
        <time>2020-07-19T09:45:26.000Z</time>
      </trkpt>
      <trkpt lat="41.67731" lon="-4.75050167">
        <ele>769.0</ele>
        <time>2020-07-19T09:45:27.000Z</time>
      </trkpt>
      <trkpt lat="41.67731" lon="-4.75050167">
        <ele>768.0</ele>
        <time>2020-07-19T09:45:28.000Z</time>
      </trkpt>
      <trkpt lat="41.67730833" lon="-4.75050333">
        <ele>768.0</ele>
        <time>2020-07-19T09:45:29.000Z</time>
      </trkpt>
      <trkpt lat="41.67730667" lon="-4.750505">
        <ele>768.0</ele>
        <time>2020-07-19T09:45:30.000Z</time>
      </trkpt>
      <trkpt lat="41.677305" lon="-4.75050667">
        <ele>768.0</ele>
        <time>2020-07-19T09:45:31.000Z</time>
      </trkpt>
      <trkpt lat="41.67730167" lon="-4.75050833">
        <ele>768.0</ele>
        <time>2020-07-19T09:45:32.000Z</time>
      </trkpt>
      <trkpt lat="41.6773" lon="-4.75050833">
        <ele>768.0</ele>
        <time>2020-07-19T09:45:33.000Z</time>
      </trkpt>
      <trkpt lat="41.67729833" lon="-4.75051">
        <ele>768.0</ele>
        <time>2020-07-19T09:45:34.000Z</time>
      </trkpt>
      <trkpt lat="41.67729833" lon="-4.75051333">
        <ele>768.0</ele>
        <time>2020-07-19T09:45:35.000Z</time>
      </trkpt>
      <trkpt lat="41.67729667" lon="-4.750515">
        <ele>768.0</ele>
        <time>2020-07-19T09:45:36.000Z</time>
      </trkpt>
      <trkpt lat="41.67729667" lon="-4.75051667">
        <ele>768.0</ele>
        <time>2020-07-19T09:45:37.000Z</time>
      </trkpt>
      <trkpt lat="41.677295" lon="-4.75051833">
        <ele>768.0</ele>
        <time>2020-07-19T09:45:38.000Z</time>
      </trkpt>
      <trkpt lat="41.677295" lon="-4.75052">
        <ele>768.0</ele>
        <time>2020-07-19T09:45:39.000Z</time>
      </trkpt>
      <trkpt lat="41.67729333" lon="-4.75052">
        <ele>768.0</ele>
        <time>2020-07-19T09:45:40.000Z</time>
      </trkpt>
      <trkpt lat="41.67729333" lon="-4.75052167">
        <ele>768.0</ele>
        <time>2020-07-19T09:45:41.000Z</time>
      </trkpt>
      <trkpt lat="41.67729167" lon="-4.75052167">
        <ele>768.0</ele>
        <time>2020-07-19T09:45:42.000Z</time>
      </trkpt>
      <trkpt lat="41.67729167" lon="-4.75052333">
        <ele>768.0</ele>
        <time>2020-07-19T09:45:43.000Z</time>
      </trkpt>
      <trkpt lat="41.67729167" lon="-4.75052333">
        <ele>768.0</ele>
        <time>2020-07-19T09:45:44.000Z</time>
      </trkpt>
      <trkpt lat="41.67729" lon="-4.750525">
        <ele>768.0</ele>
        <time>2020-07-19T09:45:45.000Z</time>
      </trkpt>
      <trkpt lat="41.67729" lon="-4.750525">
        <ele>768.0</ele>
        <time>2020-07-19T09:45:46.000Z</time>
      </trkpt>
      <trkpt lat="41.67729" lon="-4.75052667">
        <ele>768.0</ele>
        <time>2020-07-19T09:45:47.000Z</time>
      </trkpt>
      <trkpt lat="41.67728833" lon="-4.75052667">
        <ele>768.0</ele>
        <time>2020-07-19T09:45:48.000Z</time>
      </trkpt>
      <trkpt lat="41.67728833" lon="-4.75052833">
        <ele>768.0</ele>
        <time>2020-07-19T09:45:49.000Z</time>
      </trkpt>
      <trkpt lat="41.67728833" lon="-4.75052833">
        <ele>768.0</ele>
        <time>2020-07-19T09:45:50.000Z</time>
      </trkpt>
      <trkpt lat="41.67728833" lon="-4.75052833">
        <ele>768.0</ele>
        <time>2020-07-19T09:45:51.000Z</time>
      </trkpt>
      <trkpt lat="41.67728833" lon="-4.75052833">
        <ele>768.0</ele>
        <time>2020-07-19T09:45:52.000Z</time>
      </trkpt>
      <trkpt lat="41.67728667" lon="-4.75053">
        <ele>768.0</ele>
        <time>2020-07-19T09:45:53.000Z</time>
      </trkpt>
      <trkpt lat="41.67728667" lon="-4.75053">
        <ele>768.0</ele>
        <time>2020-07-19T09:45:54.000Z</time>
      </trkpt>
      <trkpt lat="41.67728667" lon="-4.75053167">
        <ele>767.0</ele>
        <time>2020-07-19T09:45:55.000Z</time>
      </trkpt>
      <trkpt lat="41.677285" lon="-4.75053167">
        <ele>767.0</ele>
        <time>2020-07-19T09:45:56.000Z</time>
      </trkpt>
      <trkpt lat="41.677285" lon="-4.75053167">
        <ele>767.0</ele>
        <time>2020-07-19T09:45:57.000Z</time>
      </trkpt>
      <trkpt lat="41.677285" lon="-4.75053333">
        <ele>767.0</ele>
        <time>2020-07-19T09:45:58.000Z</time>
      </trkpt>
      <trkpt lat="41.677285" lon="-4.75053333">
        <ele>767.0</ele>
        <time>2020-07-19T09:45:59.000Z</time>
      </trkpt>
      <trkpt lat="41.677285" lon="-4.750535">
        <ele>767.0</ele>
        <time>2020-07-19T09:46:00.000Z</time>
      </trkpt>
      <trkpt lat="41.677285" lon="-4.75053667">
        <ele>767.0</ele>
        <time>2020-07-19T09:46:01.000Z</time>
      </trkpt>
      <trkpt lat="41.67728667" lon="-4.75053667">
        <ele>767.0</ele>
        <time>2020-07-19T09:46:02.000Z</time>
      </trkpt>
      <trkpt lat="41.67728667" lon="-4.75053833">
        <ele>767.0</ele>
        <time>2020-07-19T09:46:03.000Z</time>
      </trkpt>
      <trkpt lat="41.67728667" lon="-4.75054">
        <ele>767.0</ele>
        <time>2020-07-19T09:46:04.000Z</time>
      </trkpt>
      <trkpt lat="41.677285" lon="-4.75054">
        <ele>767.0</ele>
        <time>2020-07-19T09:46:05.000Z</time>
      </trkpt>
      <trkpt lat="41.67728167" lon="-4.75054">
        <ele>767.0</ele>
        <time>2020-07-19T09:46:06.000Z</time>
      </trkpt>
      <trkpt lat="41.67727667" lon="-4.75054333">
        <ele>767.0</ele>
        <time>2020-07-19T09:46:07.000Z</time>
      </trkpt>
      <trkpt lat="41.67726833" lon="-4.750555">
        <ele>767.0</ele>
        <time>2020-07-19T09:46:08.000Z</time>
      </trkpt>
      <trkpt lat="41.67726333" lon="-4.75056333">
        <ele>767.0</ele>
        <time>2020-07-19T09:46:09.000Z</time>
      </trkpt>
      <trkpt lat="41.67725667" lon="-4.75057">
        <ele>767.0</ele>
        <time>2020-07-19T09:46:10.000Z</time>
      </trkpt>
      <trkpt lat="41.67725333" lon="-4.75057667">
        <ele>767.0</ele>
        <time>2020-07-19T09:46:11.000Z</time>
      </trkpt>
      <trkpt lat="41.67724833" lon="-4.75058833">
        <ele>767.0</ele>
        <time>2020-07-19T09:46:12.000Z</time>
      </trkpt>
      <trkpt lat="41.67724167" lon="-4.7506">
        <ele>767.0</ele>
        <time>2020-07-19T09:46:13.000Z</time>
      </trkpt>
      <trkpt lat="41.67723167" lon="-4.750615">
        <ele>767.0</ele>
        <time>2020-07-19T09:46:14.000Z</time>
      </trkpt>
      <trkpt lat="41.67722" lon="-4.75063333">
        <ele>767.0</ele>
        <time>2020-07-19T09:46:15.000Z</time>
      </trkpt>
      <trkpt lat="41.67720667" lon="-4.75065333">
        <ele>768.0</ele>
        <time>2020-07-19T09:46:16.000Z</time>
      </trkpt>
      <trkpt lat="41.67719167" lon="-4.750675">
        <ele>768.0</ele>
        <time>2020-07-19T09:46:17.000Z</time>
      </trkpt>
      <trkpt lat="41.67717833" lon="-4.75069833">
        <ele>768.0</ele>
        <time>2020-07-19T09:46:18.000Z</time>
      </trkpt>
      <trkpt lat="41.67716167" lon="-4.75072333">
        <ele>768.0</ele>
        <time>2020-07-19T09:46:19.000Z</time>
      </trkpt>
      <trkpt lat="41.67714333" lon="-4.75074833">
        <ele>768.0</ele>
        <time>2020-07-19T09:46:20.000Z</time>
      </trkpt>
      <trkpt lat="41.67712667" lon="-4.75077667">
        <ele>768.0</ele>
        <time>2020-07-19T09:46:21.000Z</time>
      </trkpt>
      <trkpt lat="41.67711" lon="-4.750805">
        <ele>768.0</ele>
        <time>2020-07-19T09:46:22.000Z</time>
      </trkpt>
      <trkpt lat="41.67709167" lon="-4.75083333">
        <ele>768.0</ele>
        <time>2020-07-19T09:46:23.000Z</time>
      </trkpt>
      <trkpt lat="41.67707333" lon="-4.75086167">
        <ele>768.0</ele>
        <time>2020-07-19T09:46:24.000Z</time>
      </trkpt>
      <trkpt lat="41.677055" lon="-4.75089333">
        <ele>769.0</ele>
        <time>2020-07-19T09:46:25.000Z</time>
      </trkpt>
      <trkpt lat="41.67703833" lon="-4.75092667">
        <ele>769.0</ele>
        <time>2020-07-19T09:46:26.000Z</time>
      </trkpt>
      <trkpt lat="41.67702" lon="-4.75096167">
        <ele>769.0</ele>
        <time>2020-07-19T09:46:27.000Z</time>
      </trkpt>
      <trkpt lat="41.67700167" lon="-4.75099833">
        <ele>769.0</ele>
        <time>2020-07-19T09:46:28.000Z</time>
      </trkpt>
      <trkpt lat="41.67698" lon="-4.75103667">
        <ele>769.0</ele>
        <time>2020-07-19T09:46:29.000Z</time>
      </trkpt>
      <trkpt lat="41.67696" lon="-4.751075">
        <ele>769.0</ele>
        <time>2020-07-19T09:46:30.000Z</time>
      </trkpt>
      <trkpt lat="41.67694" lon="-4.75111333">
        <ele>769.0</ele>
        <time>2020-07-19T09:46:31.000Z</time>
      </trkpt>
      <trkpt lat="41.67691667" lon="-4.75114833">
        <ele>770.0</ele>
        <time>2020-07-19T09:46:32.000Z</time>
      </trkpt>
      <trkpt lat="41.67689333" lon="-4.75118333">
        <ele>770.0</ele>
        <time>2020-07-19T09:46:33.000Z</time>
      </trkpt>
      <trkpt lat="41.67687333" lon="-4.75122">
        <ele>770.0</ele>
        <time>2020-07-19T09:46:34.000Z</time>
      </trkpt>
      <trkpt lat="41.67685833" lon="-4.75125833">
        <ele>770.0</ele>
        <time>2020-07-19T09:46:35.000Z</time>
      </trkpt>
      <trkpt lat="41.67685" lon="-4.7513">
        <ele>770.0</ele>
        <time>2020-07-19T09:46:36.000Z</time>
      </trkpt>
      <trkpt lat="41.67684833" lon="-4.75134">
        <ele>770.0</ele>
        <time>2020-07-19T09:46:37.000Z</time>
      </trkpt>
      <trkpt lat="41.67684667" lon="-4.75138">
        <ele>770.0</ele>
        <time>2020-07-19T09:46:38.000Z</time>
      </trkpt>
      <trkpt lat="41.67684667" lon="-4.75142167">
        <ele>770.0</ele>
        <time>2020-07-19T09:46:39.000Z</time>
      </trkpt>
      <trkpt lat="41.676845" lon="-4.75146333">
        <ele>770.0</ele>
        <time>2020-07-19T09:46:40.000Z</time>
      </trkpt>
      <trkpt lat="41.676845" lon="-4.75150333">
        <ele>770.0</ele>
        <time>2020-07-19T09:46:41.000Z</time>
      </trkpt>
      <trkpt lat="41.67684833" lon="-4.75154333">
        <ele>770.0</ele>
        <time>2020-07-19T09:46:42.000Z</time>
      </trkpt>
      <trkpt lat="41.67685333" lon="-4.75158167">
        <ele>770.0</ele>
        <time>2020-07-19T09:46:43.000Z</time>
      </trkpt>
      <trkpt lat="41.67685833" lon="-4.75162167">
        <ele>770.0</ele>
        <time>2020-07-19T09:46:44.000Z</time>
      </trkpt>
      <trkpt lat="41.676865" lon="-4.75166167">
        <ele>770.0</ele>
        <time>2020-07-19T09:46:45.000Z</time>
      </trkpt>
      <trkpt lat="41.67687167" lon="-4.75170333">
        <ele>770.0</ele>
        <time>2020-07-19T09:46:46.000Z</time>
      </trkpt>
      <trkpt lat="41.67687833" lon="-4.751745">
        <ele>770.0</ele>
        <time>2020-07-19T09:46:47.000Z</time>
      </trkpt>
      <trkpt lat="41.67688667" lon="-4.75178667">
        <ele>770.0</ele>
        <time>2020-07-19T09:46:48.000Z</time>
      </trkpt>
      <trkpt lat="41.676895" lon="-4.75182667">
        <ele>770.0</ele>
        <time>2020-07-19T09:46:49.000Z</time>
      </trkpt>
      <trkpt lat="41.67690333" lon="-4.75186833">
        <ele>770.0</ele>
        <time>2020-07-19T09:46:50.000Z</time>
      </trkpt>
      <trkpt lat="41.67691167" lon="-4.75190833">
        <ele>770.0</ele>
        <time>2020-07-19T09:46:51.000Z</time>
      </trkpt>
      <trkpt lat="41.67692167" lon="-4.75195">
        <ele>770.0</ele>
        <time>2020-07-19T09:46:52.000Z</time>
      </trkpt>
      <trkpt lat="41.67693167" lon="-4.751995">
        <ele>770.0</ele>
        <time>2020-07-19T09:46:53.000Z</time>
      </trkpt>
      <trkpt lat="41.67693667" lon="-4.75204167">
        <ele>770.0</ele>
        <time>2020-07-19T09:46:54.000Z</time>
      </trkpt>
      <trkpt lat="41.67694333" lon="-4.75209">
        <ele>770.0</ele>
        <time>2020-07-19T09:46:55.000Z</time>
      </trkpt>
      <trkpt lat="41.67695" lon="-4.752135">
        <ele>770.0</ele>
        <time>2020-07-19T09:46:56.000Z</time>
      </trkpt>
      <trkpt lat="41.67695667" lon="-4.75218">
        <ele>770.0</ele>
        <time>2020-07-19T09:46:57.000Z</time>
      </trkpt>
      <trkpt lat="41.67696667" lon="-4.75222167">
        <ele>770.0</ele>
        <time>2020-07-19T09:46:58.000Z</time>
      </trkpt>
      <trkpt lat="41.67697667" lon="-4.75226333">
        <ele>770.0</ele>
        <time>2020-07-19T09:46:59.000Z</time>
      </trkpt>
      <trkpt lat="41.676985" lon="-4.752305">
        <ele>770.0</ele>
        <time>2020-07-19T09:47:00.000Z</time>
      </trkpt>
      <trkpt lat="41.67698833" lon="-4.75234833">
        <ele>770.0</ele>
        <time>2020-07-19T09:47:01.000Z</time>
      </trkpt>
      <trkpt lat="41.67699167" lon="-4.75239">
        <ele>771.0</ele>
        <time>2020-07-19T09:47:02.000Z</time>
      </trkpt>
      <trkpt lat="41.67699833" lon="-4.75243">
        <ele>771.0</ele>
        <time>2020-07-19T09:47:03.000Z</time>
      </trkpt>
      <trkpt lat="41.67700333" lon="-4.75247">
        <ele>771.0</ele>
        <time>2020-07-19T09:47:04.000Z</time>
      </trkpt>
      <trkpt lat="41.67700667" lon="-4.75250833">
        <ele>771.0</ele>
        <time>2020-07-19T09:47:05.000Z</time>
      </trkpt>
      <trkpt lat="41.67701" lon="-4.75254667">
        <ele>771.0</ele>
        <time>2020-07-19T09:47:06.000Z</time>
      </trkpt>
      <trkpt lat="41.67701333" lon="-4.75258667">
        <ele>771.0</ele>
        <time>2020-07-19T09:47:07.000Z</time>
      </trkpt>
      <trkpt lat="41.67701667" lon="-4.75262667">
        <ele>771.0</ele>
        <time>2020-07-19T09:47:08.000Z</time>
      </trkpt>
      <trkpt lat="41.67702167" lon="-4.752665">
        <ele>771.0</ele>
        <time>2020-07-19T09:47:09.000Z</time>
      </trkpt>
      <trkpt lat="41.677025" lon="-4.75270333">
        <ele>771.0</ele>
        <time>2020-07-19T09:47:10.000Z</time>
      </trkpt>
      <trkpt lat="41.67703" lon="-4.75274167">
        <ele>771.0</ele>
        <time>2020-07-19T09:47:11.000Z</time>
      </trkpt>
      <trkpt lat="41.677035" lon="-4.75278167">
        <ele>772.0</ele>
        <time>2020-07-19T09:47:12.000Z</time>
      </trkpt>
      <trkpt lat="41.67703833" lon="-4.75282333">
        <ele>772.0</ele>
        <time>2020-07-19T09:47:13.000Z</time>
      </trkpt>
      <trkpt lat="41.67704167" lon="-4.752865">
        <ele>772.0</ele>
        <time>2020-07-19T09:47:14.000Z</time>
      </trkpt>
      <trkpt lat="41.677045" lon="-4.75290667">
        <ele>772.0</ele>
        <time>2020-07-19T09:47:15.000Z</time>
      </trkpt>
      <trkpt lat="41.67705" lon="-4.75294833">
        <ele>772.0</ele>
        <time>2020-07-19T09:47:16.000Z</time>
      </trkpt>
      <trkpt lat="41.67705667" lon="-4.75299">
        <ele>772.0</ele>
        <time>2020-07-19T09:47:17.000Z</time>
      </trkpt>
      <trkpt lat="41.67706333" lon="-4.75303167">
        <ele>772.0</ele>
        <time>2020-07-19T09:47:18.000Z</time>
      </trkpt>
      <trkpt lat="41.67706833" lon="-4.75307333">
        <ele>772.0</ele>
        <time>2020-07-19T09:47:19.000Z</time>
      </trkpt>
      <trkpt lat="41.677075" lon="-4.753115">
        <ele>772.0</ele>
        <time>2020-07-19T09:47:20.000Z</time>
      </trkpt>
      <trkpt lat="41.67708" lon="-4.75315667">
        <ele>772.0</ele>
        <time>2020-07-19T09:47:21.000Z</time>
      </trkpt>
      <trkpt lat="41.67708333" lon="-4.75319667">
        <ele>772.0</ele>
        <time>2020-07-19T09:47:22.000Z</time>
      </trkpt>
      <trkpt lat="41.67708667" lon="-4.75324">
        <ele>772.0</ele>
        <time>2020-07-19T09:47:23.000Z</time>
      </trkpt>
      <trkpt lat="41.67709167" lon="-4.75328167">
        <ele>772.0</ele>
        <time>2020-07-19T09:47:24.000Z</time>
      </trkpt>
      <trkpt lat="41.677095" lon="-4.75332333">
        <ele>772.0</ele>
        <time>2020-07-19T09:47:25.000Z</time>
      </trkpt>
      <trkpt lat="41.67709833" lon="-4.75336667">
        <ele>772.0</ele>
        <time>2020-07-19T09:47:26.000Z</time>
      </trkpt>
      <trkpt lat="41.67710167" lon="-4.75340833">
        <ele>772.0</ele>
        <time>2020-07-19T09:47:27.000Z</time>
      </trkpt>
      <trkpt lat="41.67710667" lon="-4.75345167">
        <ele>772.0</ele>
        <time>2020-07-19T09:47:28.000Z</time>
      </trkpt>
      <trkpt lat="41.67710833" lon="-4.75349333">
        <ele>772.0</ele>
        <time>2020-07-19T09:47:29.000Z</time>
      </trkpt>
      <trkpt lat="41.67711167" lon="-4.75353667">
        <ele>772.0</ele>
        <time>2020-07-19T09:47:30.000Z</time>
      </trkpt>
      <trkpt lat="41.67711167" lon="-4.75357833">
        <ele>772.0</ele>
        <time>2020-07-19T09:47:31.000Z</time>
      </trkpt>
      <trkpt lat="41.67711333" lon="-4.75362">
        <ele>772.0</ele>
        <time>2020-07-19T09:47:32.000Z</time>
      </trkpt>
      <trkpt lat="41.677115" lon="-4.75366167">
        <ele>772.0</ele>
        <time>2020-07-19T09:47:33.000Z</time>
      </trkpt>
      <trkpt lat="41.67711667" lon="-4.75370333">
        <ele>772.0</ele>
        <time>2020-07-19T09:47:34.000Z</time>
      </trkpt>
      <trkpt lat="41.67711833" lon="-4.753745">
        <ele>772.0</ele>
        <time>2020-07-19T09:47:35.000Z</time>
      </trkpt>
      <trkpt lat="41.67712" lon="-4.75378667">
        <ele>773.0</ele>
        <time>2020-07-19T09:47:36.000Z</time>
      </trkpt>
      <trkpt lat="41.67712" lon="-4.75383">
        <ele>773.0</ele>
        <time>2020-07-19T09:47:37.000Z</time>
      </trkpt>
      <trkpt lat="41.67712167" lon="-4.75387333">
        <ele>773.0</ele>
        <time>2020-07-19T09:47:38.000Z</time>
      </trkpt>
      <trkpt lat="41.67712333" lon="-4.75391833">
        <ele>773.0</ele>
        <time>2020-07-19T09:47:39.000Z</time>
      </trkpt>
      <trkpt lat="41.67712333" lon="-4.75396167">
        <ele>773.0</ele>
        <time>2020-07-19T09:47:40.000Z</time>
      </trkpt>
      <trkpt lat="41.67712167" lon="-4.754005">
        <ele>773.0</ele>
        <time>2020-07-19T09:47:41.000Z</time>
      </trkpt>
      <trkpt lat="41.67712167" lon="-4.75404833">
        <ele>773.0</ele>
        <time>2020-07-19T09:47:42.000Z</time>
      </trkpt>
      <trkpt lat="41.67712167" lon="-4.75409167">
        <ele>773.0</ele>
        <time>2020-07-19T09:47:43.000Z</time>
      </trkpt>
      <trkpt lat="41.67712167" lon="-4.754135">
        <ele>773.0</ele>
        <time>2020-07-19T09:47:44.000Z</time>
      </trkpt>
      <trkpt lat="41.67712333" lon="-4.75417833">
        <ele>773.0</ele>
        <time>2020-07-19T09:47:45.000Z</time>
      </trkpt>
      <trkpt lat="41.67712167" lon="-4.75422167">
        <ele>773.0</ele>
        <time>2020-07-19T09:47:46.000Z</time>
      </trkpt>
      <trkpt lat="41.67712167" lon="-4.754265">
        <ele>773.0</ele>
        <time>2020-07-19T09:47:47.000Z</time>
      </trkpt>
      <trkpt lat="41.67712167" lon="-4.75430833">
        <ele>773.0</ele>
        <time>2020-07-19T09:47:48.000Z</time>
      </trkpt>
      <trkpt lat="41.67712667" lon="-4.754355">
        <ele>773.0</ele>
        <time>2020-07-19T09:47:49.000Z</time>
      </trkpt>
      <trkpt lat="41.67713833" lon="-4.75439833">
        <ele>773.0</ele>
        <time>2020-07-19T09:47:50.000Z</time>
      </trkpt>
      <trkpt lat="41.677155" lon="-4.75444167">
        <ele>773.0</ele>
        <time>2020-07-19T09:47:51.000Z</time>
      </trkpt>
      <trkpt lat="41.67717833" lon="-4.75448333">
        <ele>773.0</ele>
        <time>2020-07-19T09:47:52.000Z</time>
      </trkpt>
      <trkpt lat="41.677205" lon="-4.75452333">
        <ele>773.0</ele>
        <time>2020-07-19T09:47:53.000Z</time>
      </trkpt>
      <trkpt lat="41.67723333" lon="-4.75456333">
        <ele>773.0</ele>
        <time>2020-07-19T09:47:54.000Z</time>
      </trkpt>
      <trkpt lat="41.67726167" lon="-4.754605">
        <ele>773.0</ele>
        <time>2020-07-19T09:47:55.000Z</time>
      </trkpt>
      <trkpt lat="41.67728833" lon="-4.75464833">
        <ele>773.0</ele>
        <time>2020-07-19T09:47:56.000Z</time>
      </trkpt>
      <trkpt lat="41.677315" lon="-4.754695">
        <ele>773.0</ele>
        <time>2020-07-19T09:47:57.000Z</time>
      </trkpt>
      <trkpt lat="41.67733833" lon="-4.75474">
        <ele>773.0</ele>
        <time>2020-07-19T09:47:58.000Z</time>
      </trkpt>
      <trkpt lat="41.67736167" lon="-4.75478833">
        <ele>773.0</ele>
        <time>2020-07-19T09:47:59.000Z</time>
      </trkpt>
      <trkpt lat="41.677385" lon="-4.75483667">
        <ele>773.0</ele>
        <time>2020-07-19T09:48:00.000Z</time>
      </trkpt>
      <trkpt lat="41.67741167" lon="-4.75487833">
        <ele>773.0</ele>
        <time>2020-07-19T09:48:01.000Z</time>
      </trkpt>
      <trkpt lat="41.677435" lon="-4.75491833">
        <ele>773.0</ele>
        <time>2020-07-19T09:48:02.000Z</time>
      </trkpt>
      <trkpt lat="41.67745833" lon="-4.75496167">
        <ele>773.0</ele>
        <time>2020-07-19T09:48:03.000Z</time>
      </trkpt>
      <trkpt lat="41.67748" lon="-4.755005">
        <ele>773.0</ele>
        <time>2020-07-19T09:48:04.000Z</time>
      </trkpt>
      <trkpt lat="41.67750333" lon="-4.75505">
        <ele>773.0</ele>
        <time>2020-07-19T09:48:05.000Z</time>
      </trkpt>
      <trkpt lat="41.67752833" lon="-4.75509167">
        <ele>773.0</ele>
        <time>2020-07-19T09:48:06.000Z</time>
      </trkpt>
      <trkpt lat="41.677555" lon="-4.75513167">
        <ele>773.0</ele>
        <time>2020-07-19T09:48:07.000Z</time>
      </trkpt>
      <trkpt lat="41.67758167" lon="-4.75517">
        <ele>773.0</ele>
        <time>2020-07-19T09:48:08.000Z</time>
      </trkpt>
      <trkpt lat="41.67761167" lon="-4.75520667">
        <ele>773.0</ele>
        <time>2020-07-19T09:48:09.000Z</time>
      </trkpt>
      <trkpt lat="41.67764333" lon="-4.75524167">
        <ele>773.0</ele>
        <time>2020-07-19T09:48:10.000Z</time>
      </trkpt>
      <trkpt lat="41.67767833" lon="-4.75527333">
        <ele>773.0</ele>
        <time>2020-07-19T09:48:11.000Z</time>
      </trkpt>
      <trkpt lat="41.677715" lon="-4.75529667">
        <ele>773.0</ele>
        <time>2020-07-19T09:48:12.000Z</time>
      </trkpt>
      <trkpt lat="41.67775333" lon="-4.75531167">
        <ele>773.0</ele>
        <time>2020-07-19T09:48:13.000Z</time>
      </trkpt>
      <trkpt lat="41.677795" lon="-4.75532167">
        <ele>773.0</ele>
        <time>2020-07-19T09:48:14.000Z</time>
      </trkpt>
      <trkpt lat="41.67783667" lon="-4.75533167">
        <ele>773.0</ele>
        <time>2020-07-19T09:48:15.000Z</time>
      </trkpt>
      <trkpt lat="41.67788" lon="-4.75534">
        <ele>773.0</ele>
        <time>2020-07-19T09:48:16.000Z</time>
      </trkpt>
      <trkpt lat="41.67792167" lon="-4.75535">
        <ele>773.0</ele>
        <time>2020-07-19T09:48:17.000Z</time>
      </trkpt>
      <trkpt lat="41.67796667" lon="-4.75536">
        <ele>773.0</ele>
        <time>2020-07-19T09:48:18.000Z</time>
      </trkpt>
      <trkpt lat="41.67801" lon="-4.75536667">
        <ele>773.0</ele>
        <time>2020-07-19T09:48:19.000Z</time>
      </trkpt>
      <trkpt lat="41.678055" lon="-4.755375">
        <ele>773.0</ele>
        <time>2020-07-19T09:48:20.000Z</time>
      </trkpt>
      <trkpt lat="41.67810167" lon="-4.75538167">
        <ele>773.0</ele>
        <time>2020-07-19T09:48:21.000Z</time>
      </trkpt>
      <trkpt lat="41.67815" lon="-4.75538833">
        <ele>773.0</ele>
        <time>2020-07-19T09:48:22.000Z</time>
      </trkpt>
      <trkpt lat="41.67819833" lon="-4.75539667">
        <ele>773.0</ele>
        <time>2020-07-19T09:48:23.000Z</time>
      </trkpt>
      <trkpt lat="41.67824833" lon="-4.75540333">
        <ele>773.0</ele>
        <time>2020-07-19T09:48:24.000Z</time>
      </trkpt>
      <trkpt lat="41.67829833" lon="-4.75540833">
        <ele>773.0</ele>
        <time>2020-07-19T09:48:25.000Z</time>
      </trkpt>
      <trkpt lat="41.67835167" lon="-4.75541333">
        <ele>773.0</ele>
        <time>2020-07-19T09:48:26.000Z</time>
      </trkpt>
      <trkpt lat="41.678405" lon="-4.755415">
        <ele>773.0</ele>
        <time>2020-07-19T09:48:27.000Z</time>
      </trkpt>
      <trkpt lat="41.67846" lon="-4.75541667">
        <ele>773.0</ele>
        <time>2020-07-19T09:48:28.000Z</time>
      </trkpt>
      <trkpt lat="41.678515" lon="-4.75541667">
        <ele>772.0</ele>
        <time>2020-07-19T09:48:29.000Z</time>
      </trkpt>
      <trkpt lat="41.67857167" lon="-4.75541833">
        <ele>772.0</ele>
        <time>2020-07-19T09:48:30.000Z</time>
      </trkpt>
      <trkpt lat="41.67862667" lon="-4.75542167">
        <ele>772.0</ele>
        <time>2020-07-19T09:48:31.000Z</time>
      </trkpt>
      <trkpt lat="41.67868333" lon="-4.755425">
        <ele>772.0</ele>
        <time>2020-07-19T09:48:32.000Z</time>
      </trkpt>
      <trkpt lat="41.67874" lon="-4.75543167">
        <ele>772.0</ele>
        <time>2020-07-19T09:48:33.000Z</time>
      </trkpt>
      <trkpt lat="41.67879667" lon="-4.75543833">
        <ele>772.0</ele>
        <time>2020-07-19T09:48:34.000Z</time>
      </trkpt>
      <trkpt lat="41.67885167" lon="-4.75545">
        <ele>772.0</ele>
        <time>2020-07-19T09:48:35.000Z</time>
      </trkpt>
      <trkpt lat="41.67890667" lon="-4.75546167">
        <ele>772.0</ele>
        <time>2020-07-19T09:48:36.000Z</time>
      </trkpt>
      <trkpt lat="41.67896" lon="-4.75548">
        <ele>772.0</ele>
        <time>2020-07-19T09:48:37.000Z</time>
      </trkpt>
      <trkpt lat="41.67901167" lon="-4.7555">
        <ele>772.0</ele>
        <time>2020-07-19T09:48:38.000Z</time>
      </trkpt>
      <trkpt lat="41.67906167" lon="-4.75552667">
        <ele>772.0</ele>
        <time>2020-07-19T09:48:39.000Z</time>
      </trkpt>
      <trkpt lat="41.67911167" lon="-4.75555667">
        <ele>772.0</ele>
        <time>2020-07-19T09:48:40.000Z</time>
      </trkpt>
      <trkpt lat="41.67916333" lon="-4.75557833">
        <ele>772.0</ele>
        <time>2020-07-19T09:48:41.000Z</time>
      </trkpt>
      <trkpt lat="41.67921833" lon="-4.75558833">
        <ele>772.0</ele>
        <time>2020-07-19T09:48:42.000Z</time>
      </trkpt>
      <trkpt lat="41.67927167" lon="-4.75559167">
        <ele>772.0</ele>
        <time>2020-07-19T09:48:43.000Z</time>
      </trkpt>
      <trkpt lat="41.679325" lon="-4.75558833">
        <ele>772.0</ele>
        <time>2020-07-19T09:48:44.000Z</time>
      </trkpt>
      <trkpt lat="41.679375" lon="-4.75558167">
        <ele>772.0</ele>
        <time>2020-07-19T09:48:45.000Z</time>
      </trkpt>
      <trkpt lat="41.679425" lon="-4.75557667">
        <ele>772.0</ele>
        <time>2020-07-19T09:48:46.000Z</time>
      </trkpt>
      <trkpt lat="41.67947333" lon="-4.75557167">
        <ele>772.0</ele>
        <time>2020-07-19T09:48:47.000Z</time>
      </trkpt>
      <trkpt lat="41.67952" lon="-4.75557">
        <ele>772.0</ele>
        <time>2020-07-19T09:48:48.000Z</time>
      </trkpt>
      <trkpt lat="41.67956333" lon="-4.75556667">
        <ele>772.0</ele>
        <time>2020-07-19T09:48:49.000Z</time>
      </trkpt>
      <trkpt lat="41.67960667" lon="-4.75556333">
        <ele>772.0</ele>
        <time>2020-07-19T09:48:50.000Z</time>
      </trkpt>
      <trkpt lat="41.67965167" lon="-4.75555833">
        <ele>772.0</ele>
        <time>2020-07-19T09:48:51.000Z</time>
      </trkpt>
      <trkpt lat="41.67969333" lon="-4.75555667">
        <ele>772.0</ele>
        <time>2020-07-19T09:48:52.000Z</time>
      </trkpt>
      <trkpt lat="41.679735" lon="-4.755555">
        <ele>772.0</ele>
        <time>2020-07-19T09:48:53.000Z</time>
      </trkpt>
      <trkpt lat="41.679775" lon="-4.75555667">
        <ele>772.0</ele>
        <time>2020-07-19T09:48:54.000Z</time>
      </trkpt>
      <trkpt lat="41.679815" lon="-4.75555667">
        <ele>773.0</ele>
        <time>2020-07-19T09:48:55.000Z</time>
      </trkpt>
      <trkpt lat="41.67985333" lon="-4.75555667">
        <ele>773.0</ele>
        <time>2020-07-19T09:48:56.000Z</time>
      </trkpt>
      <trkpt lat="41.67989167" lon="-4.75555333">
        <ele>773.0</ele>
        <time>2020-07-19T09:48:57.000Z</time>
      </trkpt>
      <trkpt lat="41.67992667" lon="-4.75555833">
        <ele>773.0</ele>
        <time>2020-07-19T09:48:58.000Z</time>
      </trkpt>
      <trkpt lat="41.67996167" lon="-4.75556667">
        <ele>773.0</ele>
        <time>2020-07-19T09:48:59.000Z</time>
      </trkpt>
      <trkpt lat="41.67999333" lon="-4.75557333">
        <ele>773.0</ele>
        <time>2020-07-19T09:49:00.000Z</time>
      </trkpt>
      <trkpt lat="41.68002667" lon="-4.75557667">
        <ele>773.0</ele>
        <time>2020-07-19T09:49:01.000Z</time>
      </trkpt>
      <trkpt lat="41.68005833" lon="-4.75558">
        <ele>773.0</ele>
        <time>2020-07-19T09:49:02.000Z</time>
      </trkpt>
      <trkpt lat="41.68009" lon="-4.75558333">
        <ele>773.0</ele>
        <time>2020-07-19T09:49:03.000Z</time>
      </trkpt>
      <trkpt lat="41.68012" lon="-4.75558667">
        <ele>773.0</ele>
        <time>2020-07-19T09:49:04.000Z</time>
      </trkpt>
      <trkpt lat="41.68015" lon="-4.75559167">
        <ele>773.0</ele>
        <time>2020-07-19T09:49:05.000Z</time>
      </trkpt>
      <trkpt lat="41.68017833" lon="-4.75559667">
        <ele>774.0</ele>
        <time>2020-07-19T09:49:06.000Z</time>
      </trkpt>
      <trkpt lat="41.68020667" lon="-4.75560333">
        <ele>774.0</ele>
        <time>2020-07-19T09:49:07.000Z</time>
      </trkpt>
      <trkpt lat="41.68023333" lon="-4.75561">
        <ele>774.0</ele>
        <time>2020-07-19T09:49:08.000Z</time>
      </trkpt>
      <trkpt lat="41.68026167" lon="-4.75561667">
        <ele>774.0</ele>
        <time>2020-07-19T09:49:09.000Z</time>
      </trkpt>
      <trkpt lat="41.68028833" lon="-4.75562">
        <ele>774.0</ele>
        <time>2020-07-19T09:49:10.000Z</time>
      </trkpt>
      <trkpt lat="41.68031833" lon="-4.75562333">
        <ele>774.0</ele>
        <time>2020-07-19T09:49:11.000Z</time>
      </trkpt>
      <trkpt lat="41.680345" lon="-4.75562833">
        <ele>775.0</ele>
        <time>2020-07-19T09:49:12.000Z</time>
      </trkpt>
      <trkpt lat="41.68037167" lon="-4.75563667">
        <ele>775.0</ele>
        <time>2020-07-19T09:49:13.000Z</time>
      </trkpt>
      <trkpt lat="41.68039833" lon="-4.75565">
        <ele>775.0</ele>
        <time>2020-07-19T09:49:14.000Z</time>
      </trkpt>
      <trkpt lat="41.68042333" lon="-4.75566333">
        <ele>775.0</ele>
        <time>2020-07-19T09:49:15.000Z</time>
      </trkpt>
      <trkpt lat="41.68045" lon="-4.755675">
        <ele>775.0</ele>
        <time>2020-07-19T09:49:16.000Z</time>
      </trkpt>
      <trkpt lat="41.68047667" lon="-4.75568833">
        <ele>775.0</ele>
        <time>2020-07-19T09:49:17.000Z</time>
      </trkpt>
      <trkpt lat="41.68050167" lon="-4.7557">
        <ele>775.0</ele>
        <time>2020-07-19T09:49:18.000Z</time>
      </trkpt>
      <trkpt lat="41.68052833" lon="-4.755715">
        <ele>775.0</ele>
        <time>2020-07-19T09:49:19.000Z</time>
      </trkpt>
      <trkpt lat="41.680555" lon="-4.75573167">
        <ele>775.0</ele>
        <time>2020-07-19T09:49:20.000Z</time>
      </trkpt>
      <trkpt lat="41.68058" lon="-4.75574833">
        <ele>775.0</ele>
        <time>2020-07-19T09:49:21.000Z</time>
      </trkpt>
      <trkpt lat="41.68060667" lon="-4.755765">
        <ele>775.0</ele>
        <time>2020-07-19T09:49:22.000Z</time>
      </trkpt>
      <trkpt lat="41.68063167" lon="-4.75578333">
        <ele>776.0</ele>
        <time>2020-07-19T09:49:23.000Z</time>
      </trkpt>
      <trkpt lat="41.68065667" lon="-4.75580167">
        <ele>776.0</ele>
        <time>2020-07-19T09:49:24.000Z</time>
      </trkpt>
      <trkpt lat="41.68068" lon="-4.75581833">
        <ele>776.0</ele>
        <time>2020-07-19T09:49:25.000Z</time>
      </trkpt>
      <trkpt lat="41.680705" lon="-4.755835">
        <ele>776.0</ele>
        <time>2020-07-19T09:49:26.000Z</time>
      </trkpt>
      <trkpt lat="41.68072833" lon="-4.75585167">
        <ele>776.0</ele>
        <time>2020-07-19T09:49:27.000Z</time>
      </trkpt>
      <trkpt lat="41.68075167" lon="-4.75586833">
        <ele>776.0</ele>
        <time>2020-07-19T09:49:28.000Z</time>
      </trkpt>
      <trkpt lat="41.680775" lon="-4.75588667">
        <ele>776.0</ele>
        <time>2020-07-19T09:49:29.000Z</time>
      </trkpt>
      <trkpt lat="41.68079833" lon="-4.75590167">
        <ele>777.0</ele>
        <time>2020-07-19T09:49:30.000Z</time>
      </trkpt>
      <trkpt lat="41.68082333" lon="-4.75591833">
        <ele>777.0</ele>
        <time>2020-07-19T09:49:31.000Z</time>
      </trkpt>
      <trkpt lat="41.68084667" lon="-4.75593333">
        <ele>777.0</ele>
        <time>2020-07-19T09:49:32.000Z</time>
      </trkpt>
      <trkpt lat="41.68087167" lon="-4.75595">
        <ele>777.0</ele>
        <time>2020-07-19T09:49:33.000Z</time>
      </trkpt>
      <trkpt lat="41.68089333" lon="-4.755965">
        <ele>777.0</ele>
        <time>2020-07-19T09:49:34.000Z</time>
      </trkpt>
      <trkpt lat="41.68091667" lon="-4.75598">
        <ele>777.0</ele>
        <time>2020-07-19T09:49:35.000Z</time>
      </trkpt>
      <trkpt lat="41.68094" lon="-4.755995">
        <ele>777.0</ele>
        <time>2020-07-19T09:49:36.000Z</time>
      </trkpt>
      <trkpt lat="41.68096167" lon="-4.75601">
        <ele>777.0</ele>
        <time>2020-07-19T09:49:37.000Z</time>
      </trkpt>
      <trkpt lat="41.680985" lon="-4.756025">
        <ele>777.0</ele>
        <time>2020-07-19T09:49:38.000Z</time>
      </trkpt>
      <trkpt lat="41.68100667" lon="-4.75603667">
        <ele>777.0</ele>
        <time>2020-07-19T09:49:39.000Z</time>
      </trkpt>
      <trkpt lat="41.68102667" lon="-4.75605167">
        <ele>777.0</ele>
        <time>2020-07-19T09:49:40.000Z</time>
      </trkpt>
      <trkpt lat="41.68104833" lon="-4.75606667">
        <ele>777.0</ele>
        <time>2020-07-19T09:49:41.000Z</time>
      </trkpt>
      <trkpt lat="41.68107" lon="-4.75608">
        <ele>778.0</ele>
        <time>2020-07-19T09:49:42.000Z</time>
      </trkpt>
      <trkpt lat="41.68109167" lon="-4.75609333">
        <ele>778.0</ele>
        <time>2020-07-19T09:49:43.000Z</time>
      </trkpt>
      <trkpt lat="41.68111333" lon="-4.75611">
        <ele>778.0</ele>
        <time>2020-07-19T09:49:44.000Z</time>
      </trkpt>
      <trkpt lat="41.68113667" lon="-4.75612333">
        <ele>778.0</ele>
        <time>2020-07-19T09:49:45.000Z</time>
      </trkpt>
      <trkpt lat="41.68115833" lon="-4.75613667">
        <ele>778.0</ele>
        <time>2020-07-19T09:49:46.000Z</time>
      </trkpt>
      <trkpt lat="41.68118" lon="-4.75615">
        <ele>778.0</ele>
        <time>2020-07-19T09:49:47.000Z</time>
      </trkpt>
      <trkpt lat="41.68120333" lon="-4.75616667">
        <ele>778.0</ele>
        <time>2020-07-19T09:49:48.000Z</time>
      </trkpt>
      <trkpt lat="41.68122667" lon="-4.75618167">
        <ele>778.0</ele>
        <time>2020-07-19T09:49:49.000Z</time>
      </trkpt>
      <trkpt lat="41.68124667" lon="-4.75619667">
        <ele>779.0</ele>
        <time>2020-07-19T09:49:50.000Z</time>
      </trkpt>
      <trkpt lat="41.68127" lon="-4.75621167">
        <ele>779.0</ele>
        <time>2020-07-19T09:49:51.000Z</time>
      </trkpt>
      <trkpt lat="41.68129167" lon="-4.75622167">
        <ele>779.0</ele>
        <time>2020-07-19T09:49:52.000Z</time>
      </trkpt>
      <trkpt lat="41.68131333" lon="-4.75623333">
        <ele>779.0</ele>
        <time>2020-07-19T09:49:53.000Z</time>
      </trkpt>
      <trkpt lat="41.68133333" lon="-4.75624167">
        <ele>779.0</ele>
        <time>2020-07-19T09:49:54.000Z</time>
      </trkpt>
      <trkpt lat="41.681355" lon="-4.75625333">
        <ele>779.0</ele>
        <time>2020-07-19T09:49:55.000Z</time>
      </trkpt>
      <trkpt lat="41.681375" lon="-4.75626667">
        <ele>779.0</ele>
        <time>2020-07-19T09:49:56.000Z</time>
      </trkpt>
      <trkpt lat="41.68139667" lon="-4.75627833">
        <ele>779.0</ele>
        <time>2020-07-19T09:49:57.000Z</time>
      </trkpt>
      <trkpt lat="41.68142" lon="-4.75628167">
        <ele>779.0</ele>
        <time>2020-07-19T09:49:58.000Z</time>
      </trkpt>
      <trkpt lat="41.68144167" lon="-4.75629">
        <ele>779.0</ele>
        <time>2020-07-19T09:49:59.000Z</time>
      </trkpt>
      <trkpt lat="41.68146333" lon="-4.75630333">
        <ele>779.0</ele>
        <time>2020-07-19T09:50:00.000Z</time>
      </trkpt>
      <trkpt lat="41.681485" lon="-4.75631333">
        <ele>780.0</ele>
        <time>2020-07-19T09:50:01.000Z</time>
      </trkpt>
      <trkpt lat="41.68150667" lon="-4.756325">
        <ele>780.0</ele>
        <time>2020-07-19T09:50:02.000Z</time>
      </trkpt>
      <trkpt lat="41.68152833" lon="-4.75633667">
        <ele>780.0</ele>
        <time>2020-07-19T09:50:03.000Z</time>
      </trkpt>
      <trkpt lat="41.68155333" lon="-4.75634667">
        <ele>780.0</ele>
        <time>2020-07-19T09:50:04.000Z</time>
      </trkpt>
      <trkpt lat="41.68157833" lon="-4.75635667">
        <ele>780.0</ele>
        <time>2020-07-19T09:50:05.000Z</time>
      </trkpt>
      <trkpt lat="41.68160333" lon="-4.75636667">
        <ele>780.0</ele>
        <time>2020-07-19T09:50:06.000Z</time>
      </trkpt>
      <trkpt lat="41.68162833" lon="-4.75637833">
        <ele>780.0</ele>
        <time>2020-07-19T09:50:07.000Z</time>
      </trkpt>
      <trkpt lat="41.68165333" lon="-4.75638833">
        <ele>780.0</ele>
        <time>2020-07-19T09:50:08.000Z</time>
      </trkpt>
      <trkpt lat="41.68167833" lon="-4.75639833">
        <ele>780.0</ele>
        <time>2020-07-19T09:50:09.000Z</time>
      </trkpt>
      <trkpt lat="41.681705" lon="-4.75640667">
        <ele>781.0</ele>
        <time>2020-07-19T09:50:10.000Z</time>
      </trkpt>
      <trkpt lat="41.68173" lon="-4.75642333">
        <ele>781.0</ele>
        <time>2020-07-19T09:50:11.000Z</time>
      </trkpt>
      <trkpt lat="41.681755" lon="-4.75644">
        <ele>781.0</ele>
        <time>2020-07-19T09:50:12.000Z</time>
      </trkpt>
      <trkpt lat="41.68178333" lon="-4.75645">
        <ele>781.0</ele>
        <time>2020-07-19T09:50:13.000Z</time>
      </trkpt>
      <trkpt lat="41.68181" lon="-4.756455">
        <ele>781.0</ele>
        <time>2020-07-19T09:50:14.000Z</time>
      </trkpt>
      <trkpt lat="41.681835" lon="-4.75645667">
        <ele>781.0</ele>
        <time>2020-07-19T09:50:15.000Z</time>
      </trkpt>
      <trkpt lat="41.68186333" lon="-4.75645667">
        <ele>781.0</ele>
        <time>2020-07-19T09:50:16.000Z</time>
      </trkpt>
      <trkpt lat="41.68188667" lon="-4.75645833">
        <ele>781.0</ele>
        <time>2020-07-19T09:50:17.000Z</time>
      </trkpt>
      <trkpt lat="41.68191" lon="-4.75646">
        <ele>781.0</ele>
        <time>2020-07-19T09:50:18.000Z</time>
      </trkpt>
      <trkpt lat="41.68193333" lon="-4.75646">
        <ele>781.0</ele>
        <time>2020-07-19T09:50:19.000Z</time>
      </trkpt>
      <trkpt lat="41.68195833" lon="-4.75646167">
        <ele>781.0</ele>
        <time>2020-07-19T09:50:20.000Z</time>
      </trkpt>
      <trkpt lat="41.68198333" lon="-4.756465">
        <ele>781.0</ele>
        <time>2020-07-19T09:50:21.000Z</time>
      </trkpt>
      <trkpt lat="41.68201" lon="-4.75646833">
        <ele>782.0</ele>
        <time>2020-07-19T09:50:22.000Z</time>
      </trkpt>
      <trkpt lat="41.68203833" lon="-4.75647167">
        <ele>782.0</ele>
        <time>2020-07-19T09:50:23.000Z</time>
      </trkpt>
      <trkpt lat="41.68206667" lon="-4.756475">
        <ele>782.0</ele>
        <time>2020-07-19T09:50:24.000Z</time>
      </trkpt>
      <trkpt lat="41.682095" lon="-4.75647833">
        <ele>782.0</ele>
        <time>2020-07-19T09:50:25.000Z</time>
      </trkpt>
      <trkpt lat="41.68212333" lon="-4.75647833">
        <ele>782.0</ele>
        <time>2020-07-19T09:50:26.000Z</time>
      </trkpt>
      <trkpt lat="41.68215" lon="-4.75647833">
        <ele>783.0</ele>
        <time>2020-07-19T09:50:27.000Z</time>
      </trkpt>
      <trkpt lat="41.68217833" lon="-4.75647167">
        <ele>783.0</ele>
        <time>2020-07-19T09:50:28.000Z</time>
      </trkpt>
      <trkpt lat="41.682205" lon="-4.75647167">
        <ele>783.0</ele>
        <time>2020-07-19T09:50:29.000Z</time>
      </trkpt>
      <trkpt lat="41.68223333" lon="-4.75647333">
        <ele>783.0</ele>
        <time>2020-07-19T09:50:30.000Z</time>
      </trkpt>
      <trkpt lat="41.68226167" lon="-4.75647667">
        <ele>783.0</ele>
        <time>2020-07-19T09:50:31.000Z</time>
      </trkpt>
      <trkpt lat="41.68229" lon="-4.75647833">
        <ele>783.0</ele>
        <time>2020-07-19T09:50:32.000Z</time>
      </trkpt>
      <trkpt lat="41.68231667" lon="-4.75648333">
        <ele>783.0</ele>
        <time>2020-07-19T09:50:33.000Z</time>
      </trkpt>
      <trkpt lat="41.682345" lon="-4.756485">
        <ele>783.0</ele>
        <time>2020-07-19T09:50:34.000Z</time>
      </trkpt>
      <trkpt lat="41.68237167" lon="-4.75648833">
        <ele>783.0</ele>
        <time>2020-07-19T09:50:35.000Z</time>
      </trkpt>
      <trkpt lat="41.68239667" lon="-4.75649333">
        <ele>783.0</ele>
        <time>2020-07-19T09:50:36.000Z</time>
      </trkpt>
      <trkpt lat="41.682425" lon="-4.75649667">
        <ele>783.0</ele>
        <time>2020-07-19T09:50:37.000Z</time>
      </trkpt>
      <trkpt lat="41.68245333" lon="-4.75650167">
        <ele>783.0</ele>
        <time>2020-07-19T09:50:38.000Z</time>
      </trkpt>
      <trkpt lat="41.682485" lon="-4.756505">
        <ele>783.0</ele>
        <time>2020-07-19T09:50:39.000Z</time>
      </trkpt>
      <trkpt lat="41.68251833" lon="-4.75650833">
        <ele>783.0</ele>
        <time>2020-07-19T09:50:40.000Z</time>
      </trkpt>
      <trkpt lat="41.68255167" lon="-4.75651167">
        <ele>783.0</ele>
        <time>2020-07-19T09:50:41.000Z</time>
      </trkpt>
      <trkpt lat="41.68258833" lon="-4.75651333">
        <ele>783.0</ele>
        <time>2020-07-19T09:50:42.000Z</time>
      </trkpt>
      <trkpt lat="41.68262167" lon="-4.756515">
        <ele>783.0</ele>
        <time>2020-07-19T09:50:43.000Z</time>
      </trkpt>
      <trkpt lat="41.68265833" lon="-4.75651833">
        <ele>783.0</ele>
        <time>2020-07-19T09:50:44.000Z</time>
      </trkpt>
      <trkpt lat="41.682695" lon="-4.75652167">
        <ele>783.0</ele>
        <time>2020-07-19T09:50:45.000Z</time>
      </trkpt>
      <trkpt lat="41.68273333" lon="-4.75652667">
        <ele>783.0</ele>
        <time>2020-07-19T09:50:46.000Z</time>
      </trkpt>
      <trkpt lat="41.68277167" lon="-4.756535">
        <ele>783.0</ele>
        <time>2020-07-19T09:50:47.000Z</time>
      </trkpt>
      <trkpt lat="41.68281167" lon="-4.75654333">
        <ele>783.0</ele>
        <time>2020-07-19T09:50:48.000Z</time>
      </trkpt>
      <trkpt lat="41.68285" lon="-4.75655">
        <ele>783.0</ele>
        <time>2020-07-19T09:50:49.000Z</time>
      </trkpt>
      <trkpt lat="41.68288667" lon="-4.756555">
        <ele>783.0</ele>
        <time>2020-07-19T09:50:50.000Z</time>
      </trkpt>
      <trkpt lat="41.68292333" lon="-4.75655833">
        <ele>783.0</ele>
        <time>2020-07-19T09:50:51.000Z</time>
      </trkpt>
      <trkpt lat="41.68296" lon="-4.75656167">
        <ele>783.0</ele>
        <time>2020-07-19T09:50:52.000Z</time>
      </trkpt>
      <trkpt lat="41.68299667" lon="-4.75655833">
        <ele>783.0</ele>
        <time>2020-07-19T09:50:53.000Z</time>
      </trkpt>
      <trkpt lat="41.68303167" lon="-4.75655333">
        <ele>783.0</ele>
        <time>2020-07-19T09:50:54.000Z</time>
      </trkpt>
      <trkpt lat="41.68306667" lon="-4.756545">
        <ele>783.0</ele>
        <time>2020-07-19T09:50:55.000Z</time>
      </trkpt>
      <trkpt lat="41.68309833" lon="-4.75653167">
        <ele>783.0</ele>
        <time>2020-07-19T09:50:56.000Z</time>
      </trkpt>
      <trkpt lat="41.68312833" lon="-4.75651667">
        <ele>784.0</ele>
        <time>2020-07-19T09:50:57.000Z</time>
      </trkpt>
      <trkpt lat="41.683155" lon="-4.7565">
        <ele>784.0</ele>
        <time>2020-07-19T09:50:58.000Z</time>
      </trkpt>
      <trkpt lat="41.68318833" lon="-4.75648333">
        <ele>784.0</ele>
        <time>2020-07-19T09:50:59.000Z</time>
      </trkpt>
      <trkpt lat="41.68322167" lon="-4.75647">
        <ele>784.0</ele>
        <time>2020-07-19T09:51:00.000Z</time>
      </trkpt>
      <trkpt lat="41.68326" lon="-4.756465">
        <ele>784.0</ele>
        <time>2020-07-19T09:51:01.000Z</time>
      </trkpt>
      <trkpt lat="41.68330167" lon="-4.75646333">
        <ele>784.0</ele>
        <time>2020-07-19T09:51:02.000Z</time>
      </trkpt>
      <trkpt lat="41.68334833" lon="-4.756465">
        <ele>784.0</ele>
        <time>2020-07-19T09:51:03.000Z</time>
      </trkpt>
      <trkpt lat="41.68339667" lon="-4.75647">
        <ele>784.0</ele>
        <time>2020-07-19T09:51:04.000Z</time>
      </trkpt>
      <trkpt lat="41.68344833" lon="-4.75647333">
        <ele>784.0</ele>
        <time>2020-07-19T09:51:05.000Z</time>
      </trkpt>
      <trkpt lat="41.6835" lon="-4.75648">
        <ele>784.0</ele>
        <time>2020-07-19T09:51:06.000Z</time>
      </trkpt>
      <trkpt lat="41.68355167" lon="-4.75648667">
        <ele>784.0</ele>
        <time>2020-07-19T09:51:07.000Z</time>
      </trkpt>
      <trkpt lat="41.68360167" lon="-4.756495">
        <ele>784.0</ele>
        <time>2020-07-19T09:51:08.000Z</time>
      </trkpt>
      <trkpt lat="41.683655" lon="-4.756505">
        <ele>783.0</ele>
        <time>2020-07-19T09:51:09.000Z</time>
      </trkpt>
      <trkpt lat="41.68370667" lon="-4.75651667">
        <ele>783.0</ele>
        <time>2020-07-19T09:51:10.000Z</time>
      </trkpt>
      <trkpt lat="41.68376" lon="-4.75653333">
        <ele>783.0</ele>
        <time>2020-07-19T09:51:11.000Z</time>
      </trkpt>
      <trkpt lat="41.68381167" lon="-4.75655167">
        <ele>783.0</ele>
        <time>2020-07-19T09:51:12.000Z</time>
      </trkpt>
      <trkpt lat="41.68386333" lon="-4.75657167">
        <ele>782.0</ele>
        <time>2020-07-19T09:51:13.000Z</time>
      </trkpt>
      <trkpt lat="41.68391833" lon="-4.75658333">
        <ele>782.0</ele>
        <time>2020-07-19T09:51:14.000Z</time>
      </trkpt>
      <trkpt lat="41.683975" lon="-4.75659333">
        <ele>782.0</ele>
        <time>2020-07-19T09:51:15.000Z</time>
      </trkpt>
      <trkpt lat="41.68403167" lon="-4.75660333">
        <ele>782.0</ele>
        <time>2020-07-19T09:51:16.000Z</time>
      </trkpt>
      <trkpt lat="41.68409" lon="-4.75661667">
        <ele>782.0</ele>
        <time>2020-07-19T09:51:17.000Z</time>
      </trkpt>
      <trkpt lat="41.68414667" lon="-4.75663167">
        <ele>781.0</ele>
        <time>2020-07-19T09:51:18.000Z</time>
      </trkpt>
      <trkpt lat="41.68420167" lon="-4.75664667">
        <ele>781.0</ele>
        <time>2020-07-19T09:51:19.000Z</time>
      </trkpt>
      <trkpt lat="41.68425667" lon="-4.75666">
        <ele>781.0</ele>
        <time>2020-07-19T09:51:20.000Z</time>
      </trkpt>
      <trkpt lat="41.68431" lon="-4.75667">
        <ele>781.0</ele>
        <time>2020-07-19T09:51:21.000Z</time>
      </trkpt>
      <trkpt lat="41.684365" lon="-4.75667833">
        <ele>781.0</ele>
        <time>2020-07-19T09:51:22.000Z</time>
      </trkpt>
      <trkpt lat="41.68442" lon="-4.756685">
        <ele>780.0</ele>
        <time>2020-07-19T09:51:23.000Z</time>
      </trkpt>
      <trkpt lat="41.68447667" lon="-4.75669">
        <ele>780.0</ele>
        <time>2020-07-19T09:51:24.000Z</time>
      </trkpt>
      <trkpt lat="41.684535" lon="-4.75669667">
        <ele>780.0</ele>
        <time>2020-07-19T09:51:25.000Z</time>
      </trkpt>
      <trkpt lat="41.68459167" lon="-4.75669833">
        <ele>780.0</ele>
        <time>2020-07-19T09:51:26.000Z</time>
      </trkpt>
      <trkpt lat="41.68465" lon="-4.756695">
        <ele>780.0</ele>
        <time>2020-07-19T09:51:27.000Z</time>
      </trkpt>
      <trkpt lat="41.68470833" lon="-4.756685">
        <ele>780.0</ele>
        <time>2020-07-19T09:51:28.000Z</time>
      </trkpt>
      <trkpt lat="41.684765" lon="-4.75667167">
        <ele>779.0</ele>
        <time>2020-07-19T09:51:29.000Z</time>
      </trkpt>
      <trkpt lat="41.684825" lon="-4.75665833">
        <ele>779.0</ele>
        <time>2020-07-19T09:51:30.000Z</time>
      </trkpt>
      <trkpt lat="41.68488833" lon="-4.75664167">
        <ele>779.0</ele>
        <time>2020-07-19T09:51:31.000Z</time>
      </trkpt>
      <trkpt lat="41.68495167" lon="-4.75662167">
        <ele>779.0</ele>
        <time>2020-07-19T09:51:32.000Z</time>
      </trkpt>
      <trkpt lat="41.68501667" lon="-4.75659667">
        <ele>779.0</ele>
        <time>2020-07-19T09:51:33.000Z</time>
      </trkpt>
      <trkpt lat="41.68508667" lon="-4.75657">
        <ele>779.0</ele>
        <time>2020-07-19T09:51:34.000Z</time>
      </trkpt>
      <trkpt lat="41.68516" lon="-4.75654167">
        <ele>779.0</ele>
        <time>2020-07-19T09:51:35.000Z</time>
      </trkpt>
      <trkpt lat="41.68523333" lon="-4.75650833">
        <ele>779.0</ele>
        <time>2020-07-19T09:51:36.000Z</time>
      </trkpt>
      <trkpt lat="41.68530333" lon="-4.75647167">
        <ele>779.0</ele>
        <time>2020-07-19T09:51:37.000Z</time>
      </trkpt>
      <trkpt lat="41.68536833" lon="-4.75643333">
        <ele>778.0</ele>
        <time>2020-07-19T09:51:38.000Z</time>
      </trkpt>
      <trkpt lat="41.68543" lon="-4.75639667">
        <ele>778.0</ele>
        <time>2020-07-19T09:51:39.000Z</time>
      </trkpt>
      <trkpt lat="41.68548833" lon="-4.75637">
        <ele>778.0</ele>
        <time>2020-07-19T09:51:40.000Z</time>
      </trkpt>
      <trkpt lat="41.68555" lon="-4.75635667">
        <ele>778.0</ele>
        <time>2020-07-19T09:51:41.000Z</time>
      </trkpt>
      <trkpt lat="41.685615" lon="-4.75635333">
        <ele>778.0</ele>
        <time>2020-07-19T09:51:42.000Z</time>
      </trkpt>
      <trkpt lat="41.68567833" lon="-4.75635667">
        <ele>778.0</ele>
        <time>2020-07-19T09:51:43.000Z</time>
      </trkpt>
      <trkpt lat="41.68574167" lon="-4.75636">
        <ele>777.0</ele>
        <time>2020-07-19T09:51:44.000Z</time>
      </trkpt>
      <trkpt lat="41.68580167" lon="-4.75636167">
        <ele>777.0</ele>
        <time>2020-07-19T09:51:45.000Z</time>
      </trkpt>
      <trkpt lat="41.68585833" lon="-4.75636833">
        <ele>777.0</ele>
        <time>2020-07-19T09:51:46.000Z</time>
      </trkpt>
      <trkpt lat="41.68590833" lon="-4.75638167">
        <ele>777.0</ele>
        <time>2020-07-19T09:51:47.000Z</time>
      </trkpt>
      <trkpt lat="41.68595333" lon="-4.75640167">
        <ele>777.0</ele>
        <time>2020-07-19T09:51:48.000Z</time>
      </trkpt>
      <trkpt lat="41.68599333" lon="-4.75642333">
        <ele>777.0</ele>
        <time>2020-07-19T09:51:49.000Z</time>
      </trkpt>
      <trkpt lat="41.68602833" lon="-4.75644667">
        <ele>777.0</ele>
        <time>2020-07-19T09:51:50.000Z</time>
      </trkpt>
      <trkpt lat="41.68606333" lon="-4.75647333">
        <ele>777.0</ele>
        <time>2020-07-19T09:51:51.000Z</time>
      </trkpt>
      <trkpt lat="41.68609667" lon="-4.7565">
        <ele>776.0</ele>
        <time>2020-07-19T09:51:52.000Z</time>
      </trkpt>
      <trkpt lat="41.68613" lon="-4.75652833">
        <ele>776.0</ele>
        <time>2020-07-19T09:51:53.000Z</time>
      </trkpt>
      <trkpt lat="41.68616167" lon="-4.75655833">
        <ele>776.0</ele>
        <time>2020-07-19T09:51:54.000Z</time>
      </trkpt>
      <trkpt lat="41.68619333" lon="-4.75658833">
        <ele>775.0</ele>
        <time>2020-07-19T09:51:55.000Z</time>
      </trkpt>
      <trkpt lat="41.68622667" lon="-4.75662167">
        <ele>774.0</ele>
        <time>2020-07-19T09:51:56.000Z</time>
      </trkpt>
      <trkpt lat="41.68626167" lon="-4.75665667">
        <ele>774.0</ele>
        <time>2020-07-19T09:51:57.000Z</time>
      </trkpt>
      <trkpt lat="41.686295" lon="-4.75669">
        <ele>774.0</ele>
        <time>2020-07-19T09:51:58.000Z</time>
      </trkpt>
      <trkpt lat="41.68633333" lon="-4.75672667">
        <ele>774.0</ele>
        <time>2020-07-19T09:51:59.000Z</time>
      </trkpt>
      <trkpt lat="41.68637333" lon="-4.75676167">
        <ele>774.0</ele>
        <time>2020-07-19T09:52:00.000Z</time>
      </trkpt>
      <trkpt lat="41.68641833" lon="-4.75679667">
        <ele>772.0</ele>
        <time>2020-07-19T09:52:01.000Z</time>
      </trkpt>
      <trkpt lat="41.68646833" lon="-4.75683">
        <ele>772.0</ele>
        <time>2020-07-19T09:52:02.000Z</time>
      </trkpt>
      <trkpt lat="41.68652167" lon="-4.75686167">
        <ele>771.0</ele>
        <time>2020-07-19T09:52:03.000Z</time>
      </trkpt>
      <trkpt lat="41.68658" lon="-4.75689167">
        <ele>771.0</ele>
        <time>2020-07-19T09:52:04.000Z</time>
      </trkpt>
      <trkpt lat="41.68664" lon="-4.75692167">
        <ele>769.0</ele>
        <time>2020-07-19T09:52:05.000Z</time>
      </trkpt>
      <trkpt lat="41.68669833" lon="-4.75695167">
        <ele>769.0</ele>
        <time>2020-07-19T09:52:06.000Z</time>
      </trkpt>
      <trkpt lat="41.68675667" lon="-4.75698167">
        <ele>769.0</ele>
        <time>2020-07-19T09:52:07.000Z</time>
      </trkpt>
      <trkpt lat="41.68681333" lon="-4.75701667">
        <ele>769.0</ele>
        <time>2020-07-19T09:52:08.000Z</time>
      </trkpt>
      <trkpt lat="41.68686833" lon="-4.75705167">
        <ele>766.0</ele>
        <time>2020-07-19T09:52:09.000Z</time>
      </trkpt>
      <trkpt lat="41.68692" lon="-4.75708667">
        <ele>765.0</ele>
        <time>2020-07-19T09:52:10.000Z</time>
      </trkpt>
      <trkpt lat="41.68697333" lon="-4.75712">
        <ele>765.0</ele>
        <time>2020-07-19T09:52:11.000Z</time>
      </trkpt>
      <trkpt lat="41.68702333" lon="-4.75715333">
        <ele>763.0</ele>
        <time>2020-07-19T09:52:12.000Z</time>
      </trkpt>
      <trkpt lat="41.68707333" lon="-4.75718667">
        <ele>763.0</ele>
        <time>2020-07-19T09:52:13.000Z</time>
      </trkpt>
      <trkpt lat="41.68712167" lon="-4.75722167">
        <ele>762.0</ele>
        <time>2020-07-19T09:52:14.000Z</time>
      </trkpt>
      <trkpt lat="41.68717167" lon="-4.75725667">
        <ele>762.0</ele>
        <time>2020-07-19T09:52:15.000Z</time>
      </trkpt>
      <trkpt lat="41.68721833" lon="-4.75728833">
        <ele>760.0</ele>
        <time>2020-07-19T09:52:16.000Z</time>
      </trkpt>
      <trkpt lat="41.68726333" lon="-4.75731833">
        <ele>759.0</ele>
        <time>2020-07-19T09:52:17.000Z</time>
      </trkpt>
      <trkpt lat="41.68731" lon="-4.75734833">
        <ele>759.0</ele>
        <time>2020-07-19T09:52:18.000Z</time>
      </trkpt>
      <trkpt lat="41.68736167" lon="-4.75738333">
        <ele>758.0</ele>
        <time>2020-07-19T09:52:19.000Z</time>
      </trkpt>
      <trkpt lat="41.68742167" lon="-4.757425">
        <ele>757.0</ele>
        <time>2020-07-19T09:52:20.000Z</time>
      </trkpt>
      <trkpt lat="41.68748333" lon="-4.75748167">
        <ele>757.0</ele>
        <time>2020-07-19T09:52:21.000Z</time>
      </trkpt>
      <trkpt lat="41.68754167" lon="-4.75755">
        <ele>757.0</ele>
        <time>2020-07-19T09:52:22.000Z</time>
      </trkpt>
      <trkpt lat="41.68760167" lon="-4.75762">
        <ele>754.0</ele>
        <time>2020-07-19T09:52:23.000Z</time>
      </trkpt>
      <trkpt lat="41.68767" lon="-4.75767333">
        <ele>754.0</ele>
        <time>2020-07-19T09:52:24.000Z</time>
      </trkpt>
      <trkpt lat="41.68774333" lon="-4.757705">
        <ele>754.0</ele>
        <time>2020-07-19T09:52:25.000Z</time>
      </trkpt>
      <trkpt lat="41.68781667" lon="-4.75771">
        <ele>754.0</ele>
        <time>2020-07-19T09:52:26.000Z</time>
      </trkpt>
      <trkpt lat="41.68788667" lon="-4.75769667">
        <ele>754.0</ele>
        <time>2020-07-19T09:52:27.000Z</time>
      </trkpt>
      <trkpt lat="41.68795167" lon="-4.75767667">
        <ele>754.0</ele>
        <time>2020-07-19T09:52:28.000Z</time>
      </trkpt>
      <trkpt lat="41.688015" lon="-4.757655">
        <ele>753.0</ele>
        <time>2020-07-19T09:52:29.000Z</time>
      </trkpt>
      <trkpt lat="41.68807667" lon="-4.75763167">
        <ele>753.0</ele>
        <time>2020-07-19T09:52:30.000Z</time>
      </trkpt>
      <trkpt lat="41.688135" lon="-4.75761">
        <ele>753.0</ele>
        <time>2020-07-19T09:52:31.000Z</time>
      </trkpt>
      <trkpt lat="41.68819333" lon="-4.75758833">
        <ele>753.0</ele>
        <time>2020-07-19T09:52:32.000Z</time>
      </trkpt>
      <trkpt lat="41.68824833" lon="-4.757565">
        <ele>753.0</ele>
        <time>2020-07-19T09:52:33.000Z</time>
      </trkpt>
      <trkpt lat="41.688305" lon="-4.75754">
        <ele>753.0</ele>
        <time>2020-07-19T09:52:34.000Z</time>
      </trkpt>
      <trkpt lat="41.68836333" lon="-4.757515">
        <ele>753.0</ele>
        <time>2020-07-19T09:52:35.000Z</time>
      </trkpt>
      <trkpt lat="41.68842167" lon="-4.75748833">
        <ele>752.0</ele>
        <time>2020-07-19T09:52:36.000Z</time>
      </trkpt>
      <trkpt lat="41.68848167" lon="-4.75746333">
        <ele>752.0</ele>
        <time>2020-07-19T09:52:37.000Z</time>
      </trkpt>
      <trkpt lat="41.688545" lon="-4.75743833">
        <ele>752.0</ele>
        <time>2020-07-19T09:52:38.000Z</time>
      </trkpt>
      <trkpt lat="41.68860833" lon="-4.75741667">
        <ele>752.0</ele>
        <time>2020-07-19T09:52:39.000Z</time>
      </trkpt>
      <trkpt lat="41.68867667" lon="-4.75739833">
        <ele>752.0</ele>
        <time>2020-07-19T09:52:40.000Z</time>
      </trkpt>
      <trkpt lat="41.68874333" lon="-4.75738333">
        <ele>752.0</ele>
        <time>2020-07-19T09:52:41.000Z</time>
      </trkpt>
      <trkpt lat="41.68880833" lon="-4.757375">
        <ele>752.0</ele>
        <time>2020-07-19T09:52:42.000Z</time>
      </trkpt>
      <trkpt lat="41.68887333" lon="-4.75737">
        <ele>750.0</ele>
        <time>2020-07-19T09:52:43.000Z</time>
      </trkpt>
      <trkpt lat="41.68893833" lon="-4.75737">
        <ele>750.0</ele>
        <time>2020-07-19T09:52:44.000Z</time>
      </trkpt>
      <trkpt lat="41.68900333" lon="-4.757375">
        <ele>750.0</ele>
        <time>2020-07-19T09:52:45.000Z</time>
      </trkpt>
      <trkpt lat="41.689065" lon="-4.75738">
        <ele>750.0</ele>
        <time>2020-07-19T09:52:46.000Z</time>
      </trkpt>
      <trkpt lat="41.689125" lon="-4.75738167">
        <ele>749.0</ele>
        <time>2020-07-19T09:52:47.000Z</time>
      </trkpt>
      <trkpt lat="41.68918333" lon="-4.75738667">
        <ele>749.0</ele>
        <time>2020-07-19T09:52:48.000Z</time>
      </trkpt>
      <trkpt lat="41.68924167" lon="-4.75739167">
        <ele>749.0</ele>
        <time>2020-07-19T09:52:49.000Z</time>
      </trkpt>
      <trkpt lat="41.68930167" lon="-4.757395">
        <ele>748.0</ele>
        <time>2020-07-19T09:52:50.000Z</time>
      </trkpt>
      <trkpt lat="41.68936167" lon="-4.75739667">
        <ele>748.0</ele>
        <time>2020-07-19T09:52:51.000Z</time>
      </trkpt>
      <trkpt lat="41.689425" lon="-4.75739667">
        <ele>748.0</ele>
        <time>2020-07-19T09:52:52.000Z</time>
      </trkpt>
      <trkpt lat="41.68949" lon="-4.75740167">
        <ele>747.0</ele>
        <time>2020-07-19T09:52:53.000Z</time>
      </trkpt>
      <trkpt lat="41.68955667" lon="-4.75740333">
        <ele>746.0</ele>
        <time>2020-07-19T09:52:54.000Z</time>
      </trkpt>
      <trkpt lat="41.68962" lon="-4.75740833">
        <ele>746.0</ele>
        <time>2020-07-19T09:52:55.000Z</time>
      </trkpt>
      <trkpt lat="41.68968333" lon="-4.75741167">
        <ele>746.0</ele>
        <time>2020-07-19T09:52:56.000Z</time>
      </trkpt>
      <trkpt lat="41.68974333" lon="-4.75741667">
        <ele>746.0</ele>
        <time>2020-07-19T09:52:57.000Z</time>
      </trkpt>
      <trkpt lat="41.68980333" lon="-4.75742">
        <ele>745.0</ele>
        <time>2020-07-19T09:52:58.000Z</time>
      </trkpt>
      <trkpt lat="41.68985667" lon="-4.75742333">
        <ele>745.0</ele>
        <time>2020-07-19T09:52:59.000Z</time>
      </trkpt>
      <trkpt lat="41.68990667" lon="-4.757425">
        <ele>745.0</ele>
        <time>2020-07-19T09:53:00.000Z</time>
      </trkpt>
      <trkpt lat="41.68995167" lon="-4.75742667">
        <ele>745.0</ele>
        <time>2020-07-19T09:53:01.000Z</time>
      </trkpt>
      <trkpt lat="41.68999667" lon="-4.75742667">
        <ele>745.0</ele>
        <time>2020-07-19T09:53:02.000Z</time>
      </trkpt>
      <trkpt lat="41.69003833" lon="-4.75742667">
        <ele>743.0</ele>
        <time>2020-07-19T09:53:03.000Z</time>
      </trkpt>
      <trkpt lat="41.690075" lon="-4.757425">
        <ele>743.0</ele>
        <time>2020-07-19T09:53:04.000Z</time>
      </trkpt>
      <trkpt lat="41.69010333" lon="-4.75742833">
        <ele>743.0</ele>
        <time>2020-07-19T09:53:05.000Z</time>
      </trkpt>
      <trkpt lat="41.69013" lon="-4.75743167">
        <ele>742.0</ele>
        <time>2020-07-19T09:53:06.000Z</time>
      </trkpt>
      <trkpt lat="41.69014667" lon="-4.75743667">
        <ele>742.0</ele>
        <time>2020-07-19T09:53:07.000Z</time>
      </trkpt>
      <trkpt lat="41.69015" lon="-4.75744">
        <ele>742.0</ele>
        <time>2020-07-19T09:53:08.000Z</time>
      </trkpt>
      <trkpt lat="41.69015" lon="-4.75744167">
        <ele>742.0</ele>
        <time>2020-07-19T09:53:09.000Z</time>
      </trkpt>
      <trkpt lat="41.69015" lon="-4.75744333">
        <ele>742.0</ele>
        <time>2020-07-19T09:53:10.000Z</time>
      </trkpt>
      <trkpt lat="41.69015167" lon="-4.75744333">
        <ele>742.0</ele>
        <time>2020-07-19T09:53:11.000Z</time>
      </trkpt>
      <trkpt lat="41.69015333" lon="-4.757445">
        <ele>741.0</ele>
        <time>2020-07-19T09:53:12.000Z</time>
      </trkpt>
      <trkpt lat="41.69015333" lon="-4.75744333">
        <ele>741.0</ele>
        <time>2020-07-19T09:53:13.000Z</time>
      </trkpt>
      <trkpt lat="41.69015333" lon="-4.75744333">
        <ele>741.0</ele>
        <time>2020-07-19T09:53:14.000Z</time>
      </trkpt>
      <trkpt lat="41.690155" lon="-4.757445">
        <ele>741.0</ele>
        <time>2020-07-19T09:53:15.000Z</time>
      </trkpt>
      <trkpt lat="41.690155" lon="-4.757445">
        <ele>741.0</ele>
        <time>2020-07-19T09:53:16.000Z</time>
      </trkpt>
      <trkpt lat="41.690155" lon="-4.757445">
        <ele>741.0</ele>
        <time>2020-07-19T09:53:17.000Z</time>
      </trkpt>
      <trkpt lat="41.69015667" lon="-4.75744667">
        <ele>741.0</ele>
        <time>2020-07-19T09:53:18.000Z</time>
      </trkpt>
      <trkpt lat="41.69015667" lon="-4.75744667">
        <ele>741.0</ele>
        <time>2020-07-19T09:53:19.000Z</time>
      </trkpt>
      <trkpt lat="41.69015667" lon="-4.75744667">
        <ele>740.0</ele>
        <time>2020-07-19T09:53:20.000Z</time>
      </trkpt>
      <trkpt lat="41.69015667" lon="-4.75744833">
        <ele>740.0</ele>
        <time>2020-07-19T09:53:21.000Z</time>
      </trkpt>
      <trkpt lat="41.69015667" lon="-4.75744833">
        <ele>740.0</ele>
        <time>2020-07-19T09:53:22.000Z</time>
      </trkpt>
      <trkpt lat="41.69015833" lon="-4.75744833">
        <ele>740.0</ele>
        <time>2020-07-19T09:53:23.000Z</time>
      </trkpt>
      <trkpt lat="41.69015833" lon="-4.75744833">
        <ele>740.0</ele>
        <time>2020-07-19T09:53:24.000Z</time>
      </trkpt>
      <trkpt lat="41.69015833" lon="-4.75744833">
        <ele>740.0</ele>
        <time>2020-07-19T09:53:25.000Z</time>
      </trkpt>
      <trkpt lat="41.69015833" lon="-4.75744833">
        <ele>740.0</ele>
        <time>2020-07-19T09:53:26.000Z</time>
      </trkpt>
      <trkpt lat="41.69015833" lon="-4.75745">
        <ele>740.0</ele>
        <time>2020-07-19T09:53:27.000Z</time>
      </trkpt>
      <trkpt lat="41.69015833" lon="-4.75745167">
        <ele>740.0</ele>
        <time>2020-07-19T09:53:28.000Z</time>
      </trkpt>
      <trkpt lat="41.69015833" lon="-4.75745">
        <ele>740.0</ele>
        <time>2020-07-19T09:53:29.000Z</time>
      </trkpt>
      <trkpt lat="41.69015833" lon="-4.75745">
        <ele>740.0</ele>
        <time>2020-07-19T09:53:30.000Z</time>
      </trkpt>
      <trkpt lat="41.69015833" lon="-4.75745167">
        <ele>740.0</ele>
        <time>2020-07-19T09:53:31.000Z</time>
      </trkpt>
      <trkpt lat="41.69015833" lon="-4.75745167">
        <ele>740.0</ele>
        <time>2020-07-19T09:53:32.000Z</time>
      </trkpt>
      <trkpt lat="41.69015833" lon="-4.75745333">
        <ele>739.0</ele>
        <time>2020-07-19T09:53:33.000Z</time>
      </trkpt>
      <trkpt lat="41.69015833" lon="-4.75745333">
        <ele>739.0</ele>
        <time>2020-07-19T09:53:34.000Z</time>
      </trkpt>
      <trkpt lat="41.69016" lon="-4.75745333">
        <ele>739.0</ele>
        <time>2020-07-19T09:53:35.000Z</time>
      </trkpt>
      <trkpt lat="41.69016333" lon="-4.75745333">
        <ele>739.0</ele>
        <time>2020-07-19T09:53:36.000Z</time>
      </trkpt>
      <trkpt lat="41.69017167" lon="-4.75745667">
        <ele>739.0</ele>
        <time>2020-07-19T09:53:37.000Z</time>
      </trkpt>
      <trkpt lat="41.69017667" lon="-4.75746833">
        <ele>739.0</ele>
        <time>2020-07-19T09:53:38.000Z</time>
      </trkpt>
      <trkpt lat="41.69017667" lon="-4.75748667">
        <ele>739.0</ele>
        <time>2020-07-19T09:53:39.000Z</time>
      </trkpt>
      <trkpt lat="41.69017333" lon="-4.75751667">
        <ele>739.0</ele>
        <time>2020-07-19T09:53:40.000Z</time>
      </trkpt>
      <trkpt lat="41.69016833" lon="-4.75754833">
        <ele>739.0</ele>
        <time>2020-07-19T09:53:41.000Z</time>
      </trkpt>
      <trkpt lat="41.690165" lon="-4.75758333">
        <ele>739.0</ele>
        <time>2020-07-19T09:53:42.000Z</time>
      </trkpt>
      <trkpt lat="41.690165" lon="-4.75762">
        <ele>739.0</ele>
        <time>2020-07-19T09:53:43.000Z</time>
      </trkpt>
      <trkpt lat="41.690165" lon="-4.75765833">
        <ele>738.0</ele>
        <time>2020-07-19T09:53:44.000Z</time>
      </trkpt>
      <trkpt lat="41.690165" lon="-4.75769833">
        <ele>738.0</ele>
        <time>2020-07-19T09:53:45.000Z</time>
      </trkpt>
      <trkpt lat="41.69016667" lon="-4.75773833">
        <ele>738.0</ele>
        <time>2020-07-19T09:53:46.000Z</time>
      </trkpt>
      <trkpt lat="41.690165" lon="-4.75778167">
        <ele>738.0</ele>
        <time>2020-07-19T09:53:47.000Z</time>
      </trkpt>
      <trkpt lat="41.69016333" lon="-4.75782667">
        <ele>738.0</ele>
        <time>2020-07-19T09:53:48.000Z</time>
      </trkpt>
      <trkpt lat="41.69016333" lon="-4.75787167">
        <ele>738.0</ele>
        <time>2020-07-19T09:53:49.000Z</time>
      </trkpt>
      <trkpt lat="41.69016167" lon="-4.75791833">
        <ele>738.0</ele>
        <time>2020-07-19T09:53:50.000Z</time>
      </trkpt>
      <trkpt lat="41.69015833" lon="-4.757965">
        <ele>738.0</ele>
        <time>2020-07-19T09:53:51.000Z</time>
      </trkpt>
      <trkpt lat="41.69015167" lon="-4.75801167">
        <ele>738.0</ele>
        <time>2020-07-19T09:53:52.000Z</time>
      </trkpt>
      <trkpt lat="41.69015" lon="-4.75805833">
        <ele>738.0</ele>
        <time>2020-07-19T09:53:53.000Z</time>
      </trkpt>
      <trkpt lat="41.690145" lon="-4.758105">
        <ele>738.0</ele>
        <time>2020-07-19T09:53:54.000Z</time>
      </trkpt>
      <trkpt lat="41.69014167" lon="-4.758155">
        <ele>738.0</ele>
        <time>2020-07-19T09:53:55.000Z</time>
      </trkpt>
      <trkpt lat="41.69014" lon="-4.75820333">
        <ele>738.0</ele>
        <time>2020-07-19T09:53:56.000Z</time>
      </trkpt>
      <trkpt lat="41.69014" lon="-4.75825333">
        <ele>737.0</ele>
        <time>2020-07-19T09:53:57.000Z</time>
      </trkpt>
      <trkpt lat="41.69013833" lon="-4.75830333">
        <ele>737.0</ele>
        <time>2020-07-19T09:53:58.000Z</time>
      </trkpt>
      <trkpt lat="41.69014167" lon="-4.75835167">
        <ele>737.0</ele>
        <time>2020-07-19T09:53:59.000Z</time>
      </trkpt>
      <trkpt lat="41.69014667" lon="-4.7584">
        <ele>737.0</ele>
        <time>2020-07-19T09:54:00.000Z</time>
      </trkpt>
      <trkpt lat="41.69015167" lon="-4.75844833">
        <ele>737.0</ele>
        <time>2020-07-19T09:54:01.000Z</time>
      </trkpt>
      <trkpt lat="41.69015667" lon="-4.75849833">
        <ele>737.0</ele>
        <time>2020-07-19T09:54:02.000Z</time>
      </trkpt>
      <trkpt lat="41.69016333" lon="-4.758545">
        <ele>737.0</ele>
        <time>2020-07-19T09:54:03.000Z</time>
      </trkpt>
      <trkpt lat="41.69016833" lon="-4.75859333">
        <ele>737.0</ele>
        <time>2020-07-19T09:54:04.000Z</time>
      </trkpt>
      <trkpt lat="41.69017" lon="-4.75864167">
        <ele>737.0</ele>
        <time>2020-07-19T09:54:05.000Z</time>
      </trkpt>
      <trkpt lat="41.69017167" lon="-4.75869">
        <ele>737.0</ele>
        <time>2020-07-19T09:54:06.000Z</time>
      </trkpt>
      <trkpt lat="41.690175" lon="-4.758735">
        <ele>737.0</ele>
        <time>2020-07-19T09:54:07.000Z</time>
      </trkpt>
      <trkpt lat="41.69018" lon="-4.75878">
        <ele>736.0</ele>
        <time>2020-07-19T09:54:08.000Z</time>
      </trkpt>
      <trkpt lat="41.69018167" lon="-4.75882667">
        <ele>736.0</ele>
        <time>2020-07-19T09:54:09.000Z</time>
      </trkpt>
      <trkpt lat="41.69018333" lon="-4.75887333">
        <ele>736.0</ele>
        <time>2020-07-19T09:54:10.000Z</time>
      </trkpt>
      <trkpt lat="41.69018667" lon="-4.75891833">
        <ele>736.0</ele>
        <time>2020-07-19T09:54:11.000Z</time>
      </trkpt>
      <trkpt lat="41.69019" lon="-4.758965">
        <ele>736.0</ele>
        <time>2020-07-19T09:54:12.000Z</time>
      </trkpt>
      <trkpt lat="41.690195" lon="-4.75901167">
        <ele>736.0</ele>
        <time>2020-07-19T09:54:13.000Z</time>
      </trkpt>
      <trkpt lat="41.69019833" lon="-4.75906167">
        <ele>736.0</ele>
        <time>2020-07-19T09:54:14.000Z</time>
      </trkpt>
      <trkpt lat="41.6902" lon="-4.75911333">
        <ele>736.0</ele>
        <time>2020-07-19T09:54:15.000Z</time>
      </trkpt>
      <trkpt lat="41.69020167" lon="-4.759165">
        <ele>736.0</ele>
        <time>2020-07-19T09:54:16.000Z</time>
      </trkpt>
      <trkpt lat="41.69020333" lon="-4.75921833">
        <ele>736.0</ele>
        <time>2020-07-19T09:54:17.000Z</time>
      </trkpt>
      <trkpt lat="41.69020333" lon="-4.75927167">
        <ele>736.0</ele>
        <time>2020-07-19T09:54:18.000Z</time>
      </trkpt>
      <trkpt lat="41.69020333" lon="-4.75932333">
        <ele>736.0</ele>
        <time>2020-07-19T09:54:19.000Z</time>
      </trkpt>
      <trkpt lat="41.69020667" lon="-4.75937333">
        <ele>736.0</ele>
        <time>2020-07-19T09:54:20.000Z</time>
      </trkpt>
      <trkpt lat="41.69021333" lon="-4.75942167">
        <ele>736.0</ele>
        <time>2020-07-19T09:54:21.000Z</time>
      </trkpt>
      <trkpt lat="41.690225" lon="-4.75946833">
        <ele>736.0</ele>
        <time>2020-07-19T09:54:22.000Z</time>
      </trkpt>
      <trkpt lat="41.690235" lon="-4.759515">
        <ele>736.0</ele>
        <time>2020-07-19T09:54:23.000Z</time>
      </trkpt>
      <trkpt lat="41.69024833" lon="-4.75956167">
        <ele>736.0</ele>
        <time>2020-07-19T09:54:24.000Z</time>
      </trkpt>
      <trkpt lat="41.69026333" lon="-4.75960833">
        <ele>735.0</ele>
        <time>2020-07-19T09:54:25.000Z</time>
      </trkpt>
      <trkpt lat="41.69027833" lon="-4.75965667">
        <ele>735.0</ele>
        <time>2020-07-19T09:54:26.000Z</time>
      </trkpt>
      <trkpt lat="41.69029333" lon="-4.75970667">
        <ele>735.0</ele>
        <time>2020-07-19T09:54:27.000Z</time>
      </trkpt>
      <trkpt lat="41.69030833" lon="-4.75975667">
        <ele>735.0</ele>
        <time>2020-07-19T09:54:28.000Z</time>
      </trkpt>
      <trkpt lat="41.690325" lon="-4.75980667">
        <ele>735.0</ele>
        <time>2020-07-19T09:54:29.000Z</time>
      </trkpt>
      <trkpt lat="41.69034167" lon="-4.75985667">
        <ele>735.0</ele>
        <time>2020-07-19T09:54:30.000Z</time>
      </trkpt>
      <trkpt lat="41.69035833" lon="-4.759905">
        <ele>735.0</ele>
        <time>2020-07-19T09:54:31.000Z</time>
      </trkpt>
      <trkpt lat="41.690375" lon="-4.75995667">
        <ele>735.0</ele>
        <time>2020-07-19T09:54:32.000Z</time>
      </trkpt>
      <trkpt lat="41.69039" lon="-4.76000667">
        <ele>735.0</ele>
        <time>2020-07-19T09:54:33.000Z</time>
      </trkpt>
      <trkpt lat="41.69040667" lon="-4.76005667">
        <ele>735.0</ele>
        <time>2020-07-19T09:54:34.000Z</time>
      </trkpt>
      <trkpt lat="41.69042167" lon="-4.76010667">
        <ele>735.0</ele>
        <time>2020-07-19T09:54:35.000Z</time>
      </trkpt>
      <trkpt lat="41.69043833" lon="-4.76015667">
        <ele>735.0</ele>
        <time>2020-07-19T09:54:36.000Z</time>
      </trkpt>
      <trkpt lat="41.690455" lon="-4.760205">
        <ele>735.0</ele>
        <time>2020-07-19T09:54:37.000Z</time>
      </trkpt>
      <trkpt lat="41.69047167" lon="-4.760255">
        <ele>735.0</ele>
        <time>2020-07-19T09:54:38.000Z</time>
      </trkpt>
      <trkpt lat="41.69048667" lon="-4.76030333">
        <ele>735.0</ele>
        <time>2020-07-19T09:54:39.000Z</time>
      </trkpt>
      <trkpt lat="41.69050333" lon="-4.760355">
        <ele>735.0</ele>
        <time>2020-07-19T09:54:40.000Z</time>
      </trkpt>
      <trkpt lat="41.69052" lon="-4.760405">
        <ele>735.0</ele>
        <time>2020-07-19T09:54:41.000Z</time>
      </trkpt>
      <trkpt lat="41.69053667" lon="-4.760455">
        <ele>735.0</ele>
        <time>2020-07-19T09:54:42.000Z</time>
      </trkpt>
      <trkpt lat="41.69055333" lon="-4.760505">
        <ele>735.0</ele>
        <time>2020-07-19T09:54:43.000Z</time>
      </trkpt>
      <trkpt lat="41.69057167" lon="-4.760555">
        <ele>735.0</ele>
        <time>2020-07-19T09:54:44.000Z</time>
      </trkpt>
      <trkpt lat="41.69059333" lon="-4.7606">
        <ele>735.0</ele>
        <time>2020-07-19T09:54:45.000Z</time>
      </trkpt>
      <trkpt lat="41.69062" lon="-4.76064167">
        <ele>735.0</ele>
        <time>2020-07-19T09:54:46.000Z</time>
      </trkpt>
      <trkpt lat="41.69064833" lon="-4.76067833">
        <ele>735.0</ele>
        <time>2020-07-19T09:54:47.000Z</time>
      </trkpt>
      <trkpt lat="41.69068167" lon="-4.76071">
        <ele>735.0</ele>
        <time>2020-07-19T09:54:48.000Z</time>
      </trkpt>
      <trkpt lat="41.690715" lon="-4.76073667">
        <ele>735.0</ele>
        <time>2020-07-19T09:54:49.000Z</time>
      </trkpt>
      <trkpt lat="41.69075167" lon="-4.76075833">
        <ele>735.0</ele>
        <time>2020-07-19T09:54:50.000Z</time>
      </trkpt>
      <trkpt lat="41.69078833" lon="-4.76078">
        <ele>735.0</ele>
        <time>2020-07-19T09:54:51.000Z</time>
      </trkpt>
      <trkpt lat="41.69082333" lon="-4.76080167">
        <ele>734.0</ele>
        <time>2020-07-19T09:54:52.000Z</time>
      </trkpt>
      <trkpt lat="41.69085833" lon="-4.76082667">
        <ele>734.0</ele>
        <time>2020-07-19T09:54:53.000Z</time>
      </trkpt>
      <trkpt lat="41.69089333" lon="-4.76085">
        <ele>735.0</ele>
        <time>2020-07-19T09:54:54.000Z</time>
      </trkpt>
      <trkpt lat="41.69092833" lon="-4.76087167">
        <ele>735.0</ele>
        <time>2020-07-19T09:54:55.000Z</time>
      </trkpt>
      <trkpt lat="41.69096333" lon="-4.76088833">
        <ele>735.0</ele>
        <time>2020-07-19T09:54:56.000Z</time>
      </trkpt>
      <trkpt lat="41.690995" lon="-4.76090333">
        <ele>735.0</ele>
        <time>2020-07-19T09:54:57.000Z</time>
      </trkpt>
      <trkpt lat="41.69102667" lon="-4.76091833">
        <ele>735.0</ele>
        <time>2020-07-19T09:54:58.000Z</time>
      </trkpt>
      <trkpt lat="41.69105833" lon="-4.760935">
        <ele>735.0</ele>
        <time>2020-07-19T09:54:59.000Z</time>
      </trkpt>
      <trkpt lat="41.69108833" lon="-4.76094833">
        <ele>735.0</ele>
        <time>2020-07-19T09:55:00.000Z</time>
      </trkpt>
      <trkpt lat="41.69111833" lon="-4.76096167">
        <ele>735.0</ele>
        <time>2020-07-19T09:55:01.000Z</time>
      </trkpt>
      <trkpt lat="41.69115" lon="-4.760975">
        <ele>735.0</ele>
        <time>2020-07-19T09:55:02.000Z</time>
      </trkpt>
      <trkpt lat="41.69118333" lon="-4.76098833">
        <ele>735.0</ele>
        <time>2020-07-19T09:55:03.000Z</time>
      </trkpt>
      <trkpt lat="41.69121333" lon="-4.76100667">
        <ele>735.0</ele>
        <time>2020-07-19T09:55:04.000Z</time>
      </trkpt>
      <trkpt lat="41.69124667" lon="-4.76102">
        <ele>735.0</ele>
        <time>2020-07-19T09:55:05.000Z</time>
      </trkpt>
      <trkpt lat="41.69127833" lon="-4.76103333">
        <ele>735.0</ele>
        <time>2020-07-19T09:55:06.000Z</time>
      </trkpt>
      <trkpt lat="41.69131167" lon="-4.76104667">
        <ele>735.0</ele>
        <time>2020-07-19T09:55:07.000Z</time>
      </trkpt>
      <trkpt lat="41.69134667" lon="-4.761065">
        <ele>735.0</ele>
        <time>2020-07-19T09:55:08.000Z</time>
      </trkpt>
      <trkpt lat="41.69138167" lon="-4.76107833">
        <ele>735.0</ele>
        <time>2020-07-19T09:55:09.000Z</time>
      </trkpt>
      <trkpt lat="41.69141667" lon="-4.76109333">
        <ele>735.0</ele>
        <time>2020-07-19T09:55:10.000Z</time>
      </trkpt>
      <trkpt lat="41.69145333" lon="-4.76111">
        <ele>735.0</ele>
        <time>2020-07-19T09:55:11.000Z</time>
      </trkpt>
      <trkpt lat="41.69148833" lon="-4.76112667">
        <ele>735.0</ele>
        <time>2020-07-19T09:55:12.000Z</time>
      </trkpt>
      <trkpt lat="41.69152667" lon="-4.76114">
        <ele>735.0</ele>
        <time>2020-07-19T09:55:13.000Z</time>
      </trkpt>
      <trkpt lat="41.69156333" lon="-4.761145">
        <ele>735.0</ele>
        <time>2020-07-19T09:55:14.000Z</time>
      </trkpt>
      <trkpt lat="41.69160167" lon="-4.76115333">
        <ele>735.0</ele>
        <time>2020-07-19T09:55:15.000Z</time>
      </trkpt>
      <trkpt lat="41.69164" lon="-4.76115833">
        <ele>735.0</ele>
        <time>2020-07-19T09:55:16.000Z</time>
      </trkpt>
      <trkpt lat="41.69167833" lon="-4.761165">
        <ele>735.0</ele>
        <time>2020-07-19T09:55:17.000Z</time>
      </trkpt>
      <trkpt lat="41.69171667" lon="-4.76117">
        <ele>735.0</ele>
        <time>2020-07-19T09:55:18.000Z</time>
      </trkpt>
      <trkpt lat="41.69175833" lon="-4.76117">
        <ele>735.0</ele>
        <time>2020-07-19T09:55:19.000Z</time>
      </trkpt>
      <trkpt lat="41.6918" lon="-4.76116667">
        <ele>735.0</ele>
        <time>2020-07-19T09:55:20.000Z</time>
      </trkpt>
      <trkpt lat="41.69184167" lon="-4.76116667">
        <ele>735.0</ele>
        <time>2020-07-19T09:55:21.000Z</time>
      </trkpt>
      <trkpt lat="41.691885" lon="-4.76116333">
        <ele>735.0</ele>
        <time>2020-07-19T09:55:22.000Z</time>
      </trkpt>
      <trkpt lat="41.69192833" lon="-4.76115667">
        <ele>736.0</ele>
        <time>2020-07-19T09:55:23.000Z</time>
      </trkpt>
      <trkpt lat="41.69197167" lon="-4.76115167">
        <ele>736.0</ele>
        <time>2020-07-19T09:55:24.000Z</time>
      </trkpt>
      <trkpt lat="41.69201667" lon="-4.76114833">
        <ele>736.0</ele>
        <time>2020-07-19T09:55:25.000Z</time>
      </trkpt>
      <trkpt lat="41.69205667" lon="-4.76114333">
        <ele>736.0</ele>
        <time>2020-07-19T09:55:26.000Z</time>
      </trkpt>
      <trkpt lat="41.69209667" lon="-4.761135">
        <ele>736.0</ele>
        <time>2020-07-19T09:55:27.000Z</time>
      </trkpt>
      <trkpt lat="41.69214" lon="-4.76113">
        <ele>736.0</ele>
        <time>2020-07-19T09:55:28.000Z</time>
      </trkpt>
      <trkpt lat="41.69218667" lon="-4.761125">
        <ele>736.0</ele>
        <time>2020-07-19T09:55:29.000Z</time>
      </trkpt>
      <trkpt lat="41.69223167" lon="-4.76111667">
        <ele>736.0</ele>
        <time>2020-07-19T09:55:30.000Z</time>
      </trkpt>
      <trkpt lat="41.692275" lon="-4.76110667">
        <ele>736.0</ele>
        <time>2020-07-19T09:55:31.000Z</time>
      </trkpt>
      <trkpt lat="41.69231833" lon="-4.76109667">
        <ele>736.0</ele>
        <time>2020-07-19T09:55:32.000Z</time>
      </trkpt>
      <trkpt lat="41.69236167" lon="-4.76108667">
        <ele>736.0</ele>
        <time>2020-07-19T09:55:33.000Z</time>
      </trkpt>
      <trkpt lat="41.692405" lon="-4.76108">
        <ele>736.0</ele>
        <time>2020-07-19T09:55:34.000Z</time>
      </trkpt>
      <trkpt lat="41.69244667" lon="-4.76106667">
        <ele>736.0</ele>
        <time>2020-07-19T09:55:35.000Z</time>
      </trkpt>
      <trkpt lat="41.69249" lon="-4.76105333">
        <ele>736.0</ele>
        <time>2020-07-19T09:55:36.000Z</time>
      </trkpt>
      <trkpt lat="41.69253167" lon="-4.76104">
        <ele>736.0</ele>
        <time>2020-07-19T09:55:37.000Z</time>
      </trkpt>
      <trkpt lat="41.69257333" lon="-4.76103167">
        <ele>737.0</ele>
        <time>2020-07-19T09:55:38.000Z</time>
      </trkpt>
      <trkpt lat="41.69261333" lon="-4.76102">
        <ele>737.0</ele>
        <time>2020-07-19T09:55:39.000Z</time>
      </trkpt>
      <trkpt lat="41.692655" lon="-4.76101167">
        <ele>737.0</ele>
        <time>2020-07-19T09:55:40.000Z</time>
      </trkpt>
      <trkpt lat="41.69269667" lon="-4.76100167">
        <ele>737.0</ele>
        <time>2020-07-19T09:55:41.000Z</time>
      </trkpt>
      <trkpt lat="41.69273833" lon="-4.76099">
        <ele>737.0</ele>
        <time>2020-07-19T09:55:42.000Z</time>
      </trkpt>
      <trkpt lat="41.69278167" lon="-4.76097667">
        <ele>737.0</ele>
        <time>2020-07-19T09:55:43.000Z</time>
      </trkpt>
      <trkpt lat="41.69282333" lon="-4.76096">
        <ele>737.0</ele>
        <time>2020-07-19T09:55:44.000Z</time>
      </trkpt>
      <trkpt lat="41.69286667" lon="-4.76094167">
        <ele>737.0</ele>
        <time>2020-07-19T09:55:45.000Z</time>
      </trkpt>
      <trkpt lat="41.69291167" lon="-4.76092667">
        <ele>737.0</ele>
        <time>2020-07-19T09:55:46.000Z</time>
      </trkpt>
      <trkpt lat="41.69295333" lon="-4.76090833">
        <ele>737.0</ele>
        <time>2020-07-19T09:55:47.000Z</time>
      </trkpt>
      <trkpt lat="41.69299667" lon="-4.76089">
        <ele>737.0</ele>
        <time>2020-07-19T09:55:48.000Z</time>
      </trkpt>
      <trkpt lat="41.69304" lon="-4.76087">
        <ele>737.0</ele>
        <time>2020-07-19T09:55:49.000Z</time>
      </trkpt>
      <trkpt lat="41.69308167" lon="-4.76085">
        <ele>737.0</ele>
        <time>2020-07-19T09:55:50.000Z</time>
      </trkpt>
      <trkpt lat="41.69312167" lon="-4.760835">
        <ele>737.0</ele>
        <time>2020-07-19T09:55:51.000Z</time>
      </trkpt>
      <trkpt lat="41.69316167" lon="-4.76082167">
        <ele>737.0</ele>
        <time>2020-07-19T09:55:52.000Z</time>
      </trkpt>
      <trkpt lat="41.69320333" lon="-4.76081">
        <ele>737.0</ele>
        <time>2020-07-19T09:55:53.000Z</time>
      </trkpt>
      <trkpt lat="41.69324167" lon="-4.7608">
        <ele>737.0</ele>
        <time>2020-07-19T09:55:54.000Z</time>
      </trkpt>
      <trkpt lat="41.69328167" lon="-4.76079167">
        <ele>737.0</ele>
        <time>2020-07-19T09:55:55.000Z</time>
      </trkpt>
      <trkpt lat="41.69332167" lon="-4.76078333">
        <ele>737.0</ele>
        <time>2020-07-19T09:55:56.000Z</time>
      </trkpt>
      <trkpt lat="41.69336333" lon="-4.76077833">
        <ele>737.0</ele>
        <time>2020-07-19T09:55:57.000Z</time>
      </trkpt>
      <trkpt lat="41.693405" lon="-4.76077333">
        <ele>737.0</ele>
        <time>2020-07-19T09:55:58.000Z</time>
      </trkpt>
      <trkpt lat="41.69344833" lon="-4.76077">
        <ele>737.0</ele>
        <time>2020-07-19T09:55:59.000Z</time>
      </trkpt>
      <trkpt lat="41.69349167" lon="-4.76077">
        <ele>737.0</ele>
        <time>2020-07-19T09:56:00.000Z</time>
      </trkpt>
      <trkpt lat="41.69353667" lon="-4.76077">
        <ele>737.0</ele>
        <time>2020-07-19T09:56:01.000Z</time>
      </trkpt>
      <trkpt lat="41.69358" lon="-4.76077167">
        <ele>737.0</ele>
        <time>2020-07-19T09:56:02.000Z</time>
      </trkpt>
      <trkpt lat="41.693625" lon="-4.76077667">
        <ele>737.0</ele>
        <time>2020-07-19T09:56:03.000Z</time>
      </trkpt>
      <trkpt lat="41.69366833" lon="-4.76078167">
        <ele>737.0</ele>
        <time>2020-07-19T09:56:04.000Z</time>
      </trkpt>
      <trkpt lat="41.69371167" lon="-4.760785">
        <ele>737.0</ele>
        <time>2020-07-19T09:56:05.000Z</time>
      </trkpt>
      <trkpt lat="41.69375333" lon="-4.76079">
        <ele>737.0</ele>
        <time>2020-07-19T09:56:06.000Z</time>
      </trkpt>
      <trkpt lat="41.69379667" lon="-4.760795">
        <ele>737.0</ele>
        <time>2020-07-19T09:56:07.000Z</time>
      </trkpt>
      <trkpt lat="41.69383833" lon="-4.7608">
        <ele>737.0</ele>
        <time>2020-07-19T09:56:08.000Z</time>
      </trkpt>
      <trkpt lat="41.69387833" lon="-4.76080167">
        <ele>737.0</ele>
        <time>2020-07-19T09:56:09.000Z</time>
      </trkpt>
      <trkpt lat="41.69392167" lon="-4.760805">
        <ele>737.0</ele>
        <time>2020-07-19T09:56:10.000Z</time>
      </trkpt>
      <trkpt lat="41.693965" lon="-4.76080833">
        <ele>737.0</ele>
        <time>2020-07-19T09:56:11.000Z</time>
      </trkpt>
      <trkpt lat="41.69400667" lon="-4.76081333">
        <ele>737.0</ele>
        <time>2020-07-19T09:56:12.000Z</time>
      </trkpt>
      <trkpt lat="41.69405" lon="-4.76082">
        <ele>737.0</ele>
        <time>2020-07-19T09:56:13.000Z</time>
      </trkpt>
      <trkpt lat="41.69409167" lon="-4.76082333">
        <ele>737.0</ele>
        <time>2020-07-19T09:56:14.000Z</time>
      </trkpt>
      <trkpt lat="41.69413333" lon="-4.760825">
        <ele>737.0</ele>
        <time>2020-07-19T09:56:15.000Z</time>
      </trkpt>
      <trkpt lat="41.69417667" lon="-4.76082667">
        <ele>737.0</ele>
        <time>2020-07-19T09:56:16.000Z</time>
      </trkpt>
      <trkpt lat="41.69422" lon="-4.76082833">
        <ele>737.0</ele>
        <time>2020-07-19T09:56:17.000Z</time>
      </trkpt>
      <trkpt lat="41.69426" lon="-4.76083">
        <ele>737.0</ele>
        <time>2020-07-19T09:56:18.000Z</time>
      </trkpt>
      <trkpt lat="41.69430167" lon="-4.76083167">
        <ele>737.0</ele>
        <time>2020-07-19T09:56:19.000Z</time>
      </trkpt>
      <trkpt lat="41.69434167" lon="-4.760835">
        <ele>737.0</ele>
        <time>2020-07-19T09:56:20.000Z</time>
      </trkpt>
      <trkpt lat="41.69438167" lon="-4.76083667">
        <ele>737.0</ele>
        <time>2020-07-19T09:56:21.000Z</time>
      </trkpt>
      <trkpt lat="41.69442167" lon="-4.76084">
        <ele>737.0</ele>
        <time>2020-07-19T09:56:22.000Z</time>
      </trkpt>
      <trkpt lat="41.69446167" lon="-4.76084333">
        <ele>737.0</ele>
        <time>2020-07-19T09:56:23.000Z</time>
      </trkpt>
      <trkpt lat="41.69450167" lon="-4.76084333">
        <ele>737.0</ele>
        <time>2020-07-19T09:56:24.000Z</time>
      </trkpt>
      <trkpt lat="41.69454167" lon="-4.76084667">
        <ele>737.0</ele>
        <time>2020-07-19T09:56:25.000Z</time>
      </trkpt>
      <trkpt lat="41.69458" lon="-4.76085167">
        <ele>737.0</ele>
        <time>2020-07-19T09:56:26.000Z</time>
      </trkpt>
      <trkpt lat="41.69461833" lon="-4.760855">
        <ele>737.0</ele>
        <time>2020-07-19T09:56:27.000Z</time>
      </trkpt>
      <trkpt lat="41.694655" lon="-4.76085333">
        <ele>737.0</ele>
        <time>2020-07-19T09:56:28.000Z</time>
      </trkpt>
      <trkpt lat="41.694695" lon="-4.76085167">
        <ele>737.0</ele>
        <time>2020-07-19T09:56:29.000Z</time>
      </trkpt>
      <trkpt lat="41.69473833" lon="-4.760845">
        <ele>737.0</ele>
        <time>2020-07-19T09:56:30.000Z</time>
      </trkpt>
      <trkpt lat="41.69477667" lon="-4.76084833">
        <ele>738.0</ele>
        <time>2020-07-19T09:56:31.000Z</time>
      </trkpt>
      <trkpt lat="41.69481667" lon="-4.76085167">
        <ele>738.0</ele>
        <time>2020-07-19T09:56:32.000Z</time>
      </trkpt>
      <trkpt lat="41.69485667" lon="-4.760855">
        <ele>738.0</ele>
        <time>2020-07-19T09:56:33.000Z</time>
      </trkpt>
      <trkpt lat="41.694895" lon="-4.76086">
        <ele>738.0</ele>
        <time>2020-07-19T09:56:34.000Z</time>
      </trkpt>
      <trkpt lat="41.694935" lon="-4.76086333">
        <ele>738.0</ele>
        <time>2020-07-19T09:56:35.000Z</time>
      </trkpt>
      <trkpt lat="41.69497333" lon="-4.760865">
        <ele>738.0</ele>
        <time>2020-07-19T09:56:36.000Z</time>
      </trkpt>
      <trkpt lat="41.69501167" lon="-4.76087">
        <ele>738.0</ele>
        <time>2020-07-19T09:56:37.000Z</time>
      </trkpt>
      <trkpt lat="41.69504833" lon="-4.76087167">
        <ele>738.0</ele>
        <time>2020-07-19T09:56:38.000Z</time>
      </trkpt>
      <trkpt lat="41.69508667" lon="-4.760875">
        <ele>738.0</ele>
        <time>2020-07-19T09:56:39.000Z</time>
      </trkpt>
      <trkpt lat="41.69512333" lon="-4.76087667">
        <ele>738.0</ele>
        <time>2020-07-19T09:56:40.000Z</time>
      </trkpt>
      <trkpt lat="41.69516" lon="-4.76087833">
        <ele>739.0</ele>
        <time>2020-07-19T09:56:41.000Z</time>
      </trkpt>
      <trkpt lat="41.695195" lon="-4.76088333">
        <ele>739.0</ele>
        <time>2020-07-19T09:56:42.000Z</time>
      </trkpt>
      <trkpt lat="41.69522833" lon="-4.76088667">
        <ele>739.0</ele>
        <time>2020-07-19T09:56:43.000Z</time>
      </trkpt>
      <trkpt lat="41.69526167" lon="-4.76089">
        <ele>739.0</ele>
        <time>2020-07-19T09:56:44.000Z</time>
      </trkpt>
      <trkpt lat="41.69529333" lon="-4.76089167">
        <ele>739.0</ele>
        <time>2020-07-19T09:56:45.000Z</time>
      </trkpt>
      <trkpt lat="41.69532333" lon="-4.76089167">
        <ele>739.0</ele>
        <time>2020-07-19T09:56:46.000Z</time>
      </trkpt>
      <trkpt lat="41.695355" lon="-4.76089167">
        <ele>739.0</ele>
        <time>2020-07-19T09:56:47.000Z</time>
      </trkpt>
      <trkpt lat="41.69538667" lon="-4.76089167">
        <ele>740.0</ele>
        <time>2020-07-19T09:56:48.000Z</time>
      </trkpt>
      <trkpt lat="41.695415" lon="-4.760895">
        <ele>740.0</ele>
        <time>2020-07-19T09:56:49.000Z</time>
      </trkpt>
      <trkpt lat="41.69544167" lon="-4.76089833">
        <ele>740.0</ele>
        <time>2020-07-19T09:56:50.000Z</time>
      </trkpt>
      <trkpt lat="41.69547" lon="-4.76089833">
        <ele>740.0</ele>
        <time>2020-07-19T09:56:51.000Z</time>
      </trkpt>
      <trkpt lat="41.69549833" lon="-4.76090167">
        <ele>740.0</ele>
        <time>2020-07-19T09:56:52.000Z</time>
      </trkpt>
      <trkpt lat="41.69552667" lon="-4.760905">
        <ele>741.0</ele>
        <time>2020-07-19T09:56:53.000Z</time>
      </trkpt>
      <trkpt lat="41.695555" lon="-4.76090833">
        <ele>741.0</ele>
        <time>2020-07-19T09:56:54.000Z</time>
      </trkpt>
      <trkpt lat="41.69558333" lon="-4.76091167">
        <ele>741.0</ele>
        <time>2020-07-19T09:56:55.000Z</time>
      </trkpt>
      <trkpt lat="41.69561333" lon="-4.76091333">
        <ele>741.0</ele>
        <time>2020-07-19T09:56:56.000Z</time>
      </trkpt>
      <trkpt lat="41.69564333" lon="-4.76091333">
        <ele>741.0</ele>
        <time>2020-07-19T09:56:57.000Z</time>
      </trkpt>
      <trkpt lat="41.69567167" lon="-4.76091667">
        <ele>741.0</ele>
        <time>2020-07-19T09:56:58.000Z</time>
      </trkpt>
      <trkpt lat="41.69570167" lon="-4.760915">
        <ele>741.0</ele>
        <time>2020-07-19T09:56:59.000Z</time>
      </trkpt>
      <trkpt lat="41.69573167" lon="-4.76091667">
        <ele>742.0</ele>
        <time>2020-07-19T09:57:00.000Z</time>
      </trkpt>
      <trkpt lat="41.69576167" lon="-4.76092">
        <ele>742.0</ele>
        <time>2020-07-19T09:57:01.000Z</time>
      </trkpt>
      <trkpt lat="41.69579333" lon="-4.76092167">
        <ele>742.0</ele>
        <time>2020-07-19T09:57:02.000Z</time>
      </trkpt>
      <trkpt lat="41.69582333" lon="-4.76092333">
        <ele>742.0</ele>
        <time>2020-07-19T09:57:03.000Z</time>
      </trkpt>
      <trkpt lat="41.695855" lon="-4.76092667">
        <ele>742.0</ele>
        <time>2020-07-19T09:57:04.000Z</time>
      </trkpt>
      <trkpt lat="41.69588667" lon="-4.76092833">
        <ele>742.0</ele>
        <time>2020-07-19T09:57:05.000Z</time>
      </trkpt>
      <trkpt lat="41.69591667" lon="-4.76093167">
        <ele>742.0</ele>
        <time>2020-07-19T09:57:06.000Z</time>
      </trkpt>
      <trkpt lat="41.69594833" lon="-4.760935">
        <ele>742.0</ele>
        <time>2020-07-19T09:57:07.000Z</time>
      </trkpt>
      <trkpt lat="41.69597833" lon="-4.76093833">
        <ele>742.0</ele>
        <time>2020-07-19T09:57:08.000Z</time>
      </trkpt>
      <trkpt lat="41.69600833" lon="-4.76094">
        <ele>742.0</ele>
        <time>2020-07-19T09:57:09.000Z</time>
      </trkpt>
      <trkpt lat="41.69604" lon="-4.76094167">
        <ele>742.0</ele>
        <time>2020-07-19T09:57:10.000Z</time>
      </trkpt>
      <trkpt lat="41.69607167" lon="-4.760945">
        <ele>743.0</ele>
        <time>2020-07-19T09:57:11.000Z</time>
      </trkpt>
      <trkpt lat="41.69610167" lon="-4.76094833">
        <ele>743.0</ele>
        <time>2020-07-19T09:57:12.000Z</time>
      </trkpt>
      <trkpt lat="41.69613333" lon="-4.76095">
        <ele>743.0</ele>
        <time>2020-07-19T09:57:13.000Z</time>
      </trkpt>
      <trkpt lat="41.69616333" lon="-4.76095333">
        <ele>743.0</ele>
        <time>2020-07-19T09:57:14.000Z</time>
      </trkpt>
      <trkpt lat="41.696195" lon="-4.76095667">
        <ele>743.0</ele>
        <time>2020-07-19T09:57:15.000Z</time>
      </trkpt>
      <trkpt lat="41.69622833" lon="-4.76095833">
        <ele>743.0</ele>
        <time>2020-07-19T09:57:16.000Z</time>
      </trkpt>
      <trkpt lat="41.69626" lon="-4.76096">
        <ele>743.0</ele>
        <time>2020-07-19T09:57:17.000Z</time>
      </trkpt>
      <trkpt lat="41.69629167" lon="-4.76096333">
        <ele>743.0</ele>
        <time>2020-07-19T09:57:18.000Z</time>
      </trkpt>
      <trkpt lat="41.696325" lon="-4.760965">
        <ele>743.0</ele>
        <time>2020-07-19T09:57:19.000Z</time>
      </trkpt>
      <trkpt lat="41.69635833" lon="-4.76096667">
        <ele>743.0</ele>
        <time>2020-07-19T09:57:20.000Z</time>
      </trkpt>
      <trkpt lat="41.69639167" lon="-4.76097">
        <ele>743.0</ele>
        <time>2020-07-19T09:57:21.000Z</time>
      </trkpt>
      <trkpt lat="41.696425" lon="-4.76097167">
        <ele>744.0</ele>
        <time>2020-07-19T09:57:22.000Z</time>
      </trkpt>
      <trkpt lat="41.69646167" lon="-4.760975">
        <ele>744.0</ele>
        <time>2020-07-19T09:57:23.000Z</time>
      </trkpt>
      <trkpt lat="41.69649833" lon="-4.76097667">
        <ele>744.0</ele>
        <time>2020-07-19T09:57:24.000Z</time>
      </trkpt>
      <trkpt lat="41.69653333" lon="-4.76098">
        <ele>744.0</ele>
        <time>2020-07-19T09:57:25.000Z</time>
      </trkpt>
      <trkpt lat="41.69657" lon="-4.76098333">
        <ele>744.0</ele>
        <time>2020-07-19T09:57:26.000Z</time>
      </trkpt>
      <trkpt lat="41.69660667" lon="-4.760985">
        <ele>744.0</ele>
        <time>2020-07-19T09:57:27.000Z</time>
      </trkpt>
      <trkpt lat="41.69664333" lon="-4.76098667">
        <ele>744.0</ele>
        <time>2020-07-19T09:57:28.000Z</time>
      </trkpt>
      <trkpt lat="41.69668167" lon="-4.76099">
        <ele>744.0</ele>
        <time>2020-07-19T09:57:29.000Z</time>
      </trkpt>
      <trkpt lat="41.69672167" lon="-4.76099333">
        <ele>744.0</ele>
        <time>2020-07-19T09:57:30.000Z</time>
      </trkpt>
      <trkpt lat="41.69676333" lon="-4.76099667">
        <ele>744.0</ele>
        <time>2020-07-19T09:57:31.000Z</time>
      </trkpt>
      <trkpt lat="41.69680667" lon="-4.76100167">
        <ele>744.0</ele>
        <time>2020-07-19T09:57:32.000Z</time>
      </trkpt>
      <trkpt lat="41.69685" lon="-4.761005">
        <ele>744.0</ele>
        <time>2020-07-19T09:57:33.000Z</time>
      </trkpt>
      <trkpt lat="41.69689333" lon="-4.76100833">
        <ele>744.0</ele>
        <time>2020-07-19T09:57:34.000Z</time>
      </trkpt>
      <trkpt lat="41.69693833" lon="-4.76101167">
        <ele>744.0</ele>
        <time>2020-07-19T09:57:35.000Z</time>
      </trkpt>
      <trkpt lat="41.69698167" lon="-4.761015">
        <ele>744.0</ele>
        <time>2020-07-19T09:57:36.000Z</time>
      </trkpt>
      <trkpt lat="41.697025" lon="-4.76101833">
        <ele>744.0</ele>
        <time>2020-07-19T09:57:37.000Z</time>
      </trkpt>
      <trkpt lat="41.69707" lon="-4.76102333">
        <ele>744.0</ele>
        <time>2020-07-19T09:57:38.000Z</time>
      </trkpt>
      <trkpt lat="41.697115" lon="-4.761025">
        <ele>744.0</ele>
        <time>2020-07-19T09:57:39.000Z</time>
      </trkpt>
      <trkpt lat="41.69716167" lon="-4.76102833">
        <ele>744.0</ele>
        <time>2020-07-19T09:57:40.000Z</time>
      </trkpt>
      <trkpt lat="41.69720833" lon="-4.76103333">
        <ele>744.0</ele>
        <time>2020-07-19T09:57:41.000Z</time>
      </trkpt>
      <trkpt lat="41.697255" lon="-4.76104167">
        <ele>744.0</ele>
        <time>2020-07-19T09:57:42.000Z</time>
      </trkpt>
      <trkpt lat="41.69730333" lon="-4.761045">
        <ele>744.0</ele>
        <time>2020-07-19T09:57:43.000Z</time>
      </trkpt>
      <trkpt lat="41.69735167" lon="-4.76104333">
        <ele>744.0</ele>
        <time>2020-07-19T09:57:44.000Z</time>
      </trkpt>
      <trkpt lat="41.6974" lon="-4.76104167">
        <ele>744.0</ele>
        <time>2020-07-19T09:57:45.000Z</time>
      </trkpt>
      <trkpt lat="41.69744833" lon="-4.76104167">
        <ele>744.0</ele>
        <time>2020-07-19T09:57:46.000Z</time>
      </trkpt>
      <trkpt lat="41.697495" lon="-4.76104333">
        <ele>744.0</ele>
        <time>2020-07-19T09:57:47.000Z</time>
      </trkpt>
      <trkpt lat="41.69754167" lon="-4.76104833">
        <ele>744.0</ele>
        <time>2020-07-19T09:57:48.000Z</time>
      </trkpt>
      <trkpt lat="41.697585" lon="-4.76105333">
        <ele>744.0</ele>
        <time>2020-07-19T09:57:49.000Z</time>
      </trkpt>
      <trkpt lat="41.69762833" lon="-4.76106">
        <ele>744.0</ele>
        <time>2020-07-19T09:57:50.000Z</time>
      </trkpt>
      <trkpt lat="41.69766833" lon="-4.76107167">
        <ele>744.0</ele>
        <time>2020-07-19T09:57:51.000Z</time>
      </trkpt>
      <trkpt lat="41.697705" lon="-4.76108667">
        <ele>744.0</ele>
        <time>2020-07-19T09:57:52.000Z</time>
      </trkpt>
      <trkpt lat="41.69774" lon="-4.76110167">
        <ele>744.0</ele>
        <time>2020-07-19T09:57:53.000Z</time>
      </trkpt>
      <trkpt lat="41.69777167" lon="-4.761125">
        <ele>744.0</ele>
        <time>2020-07-19T09:57:54.000Z</time>
      </trkpt>
      <trkpt lat="41.69780333" lon="-4.76114833">
        <ele>744.0</ele>
        <time>2020-07-19T09:57:55.000Z</time>
      </trkpt>
      <trkpt lat="41.697835" lon="-4.761175">
        <ele>744.0</ele>
        <time>2020-07-19T09:57:56.000Z</time>
      </trkpt>
      <trkpt lat="41.69786833" lon="-4.7612">
        <ele>744.0</ele>
        <time>2020-07-19T09:57:57.000Z</time>
      </trkpt>
      <trkpt lat="41.69790333" lon="-4.76122333">
        <ele>744.0</ele>
        <time>2020-07-19T09:57:58.000Z</time>
      </trkpt>
      <trkpt lat="41.69793667" lon="-4.76125">
        <ele>744.0</ele>
        <time>2020-07-19T09:57:59.000Z</time>
      </trkpt>
      <trkpt lat="41.69797" lon="-4.76127833">
        <ele>744.0</ele>
        <time>2020-07-19T09:58:00.000Z</time>
      </trkpt>
      <trkpt lat="41.69800333" lon="-4.761305">
        <ele>744.0</ele>
        <time>2020-07-19T09:58:01.000Z</time>
      </trkpt>
      <trkpt lat="41.69803667" lon="-4.761335">
        <ele>744.0</ele>
        <time>2020-07-19T09:58:02.000Z</time>
      </trkpt>
      <trkpt lat="41.69806833" lon="-4.76136667">
        <ele>744.0</ele>
        <time>2020-07-19T09:58:03.000Z</time>
      </trkpt>
      <trkpt lat="41.6981" lon="-4.76139667">
        <ele>744.0</ele>
        <time>2020-07-19T09:58:04.000Z</time>
      </trkpt>
      <trkpt lat="41.69813167" lon="-4.76142667">
        <ele>744.0</ele>
        <time>2020-07-19T09:58:05.000Z</time>
      </trkpt>
      <trkpt lat="41.69816167" lon="-4.76145833">
        <ele>744.0</ele>
        <time>2020-07-19T09:58:06.000Z</time>
      </trkpt>
      <trkpt lat="41.69819167" lon="-4.76149167">
        <ele>744.0</ele>
        <time>2020-07-19T09:58:07.000Z</time>
      </trkpt>
      <trkpt lat="41.69822" lon="-4.76152333">
        <ele>744.0</ele>
        <time>2020-07-19T09:58:08.000Z</time>
      </trkpt>
      <trkpt lat="41.69825" lon="-4.761555">
        <ele>744.0</ele>
        <time>2020-07-19T09:58:09.000Z</time>
      </trkpt>
      <trkpt lat="41.69827667" lon="-4.76158833">
        <ele>744.0</ele>
        <time>2020-07-19T09:58:10.000Z</time>
      </trkpt>
      <trkpt lat="41.69830333" lon="-4.76162">
        <ele>744.0</ele>
        <time>2020-07-19T09:58:11.000Z</time>
      </trkpt>
      <trkpt lat="41.69833" lon="-4.76165333">
        <ele>744.0</ele>
        <time>2020-07-19T09:58:12.000Z</time>
      </trkpt>
      <trkpt lat="41.698355" lon="-4.761685">
        <ele>744.0</ele>
        <time>2020-07-19T09:58:13.000Z</time>
      </trkpt>
      <trkpt lat="41.69837833" lon="-4.76171833">
        <ele>744.0</ele>
        <time>2020-07-19T09:58:14.000Z</time>
      </trkpt>
      <trkpt lat="41.69840167" lon="-4.76175333">
        <ele>745.0</ele>
        <time>2020-07-19T09:58:15.000Z</time>
      </trkpt>
      <trkpt lat="41.698425" lon="-4.76178833">
        <ele>745.0</ele>
        <time>2020-07-19T09:58:16.000Z</time>
      </trkpt>
      <trkpt lat="41.69844667" lon="-4.76182333">
        <ele>745.0</ele>
        <time>2020-07-19T09:58:17.000Z</time>
      </trkpt>
      <trkpt lat="41.69846833" lon="-4.76185833">
        <ele>745.0</ele>
        <time>2020-07-19T09:58:18.000Z</time>
      </trkpt>
      <trkpt lat="41.69848833" lon="-4.76189167">
        <ele>745.0</ele>
        <time>2020-07-19T09:58:19.000Z</time>
      </trkpt>
      <trkpt lat="41.69850833" lon="-4.76192833">
        <ele>745.0</ele>
        <time>2020-07-19T09:58:20.000Z</time>
      </trkpt>
      <trkpt lat="41.69852833" lon="-4.76196333">
        <ele>745.0</ele>
        <time>2020-07-19T09:58:21.000Z</time>
      </trkpt>
      <trkpt lat="41.69854833" lon="-4.762">
        <ele>745.0</ele>
        <time>2020-07-19T09:58:22.000Z</time>
      </trkpt>
      <trkpt lat="41.69856667" lon="-4.76203667">
        <ele>745.0</ele>
        <time>2020-07-19T09:58:23.000Z</time>
      </trkpt>
      <trkpt lat="41.69858667" lon="-4.76207333">
        <ele>745.0</ele>
        <time>2020-07-19T09:58:24.000Z</time>
      </trkpt>
      <trkpt lat="41.698605" lon="-4.76210833">
        <ele>745.0</ele>
        <time>2020-07-19T09:58:25.000Z</time>
      </trkpt>
      <trkpt lat="41.69862333" lon="-4.76214333">
        <ele>746.0</ele>
        <time>2020-07-19T09:58:26.000Z</time>
      </trkpt>
      <trkpt lat="41.69864167" lon="-4.76217833">
        <ele>746.0</ele>
        <time>2020-07-19T09:58:27.000Z</time>
      </trkpt>
      <trkpt lat="41.69865833" lon="-4.76221">
        <ele>746.0</ele>
        <time>2020-07-19T09:58:28.000Z</time>
      </trkpt>
      <trkpt lat="41.698675" lon="-4.762245">
        <ele>746.0</ele>
        <time>2020-07-19T09:58:29.000Z</time>
      </trkpt>
      <trkpt lat="41.69869167" lon="-4.76227833">
        <ele>746.0</ele>
        <time>2020-07-19T09:58:30.000Z</time>
      </trkpt>
      <trkpt lat="41.69870667" lon="-4.76231">
        <ele>746.0</ele>
        <time>2020-07-19T09:58:31.000Z</time>
      </trkpt>
      <trkpt lat="41.69872333" lon="-4.76234167">
        <ele>747.0</ele>
        <time>2020-07-19T09:58:32.000Z</time>
      </trkpt>
      <trkpt lat="41.69874" lon="-4.76237167">
        <ele>747.0</ele>
        <time>2020-07-19T09:58:33.000Z</time>
      </trkpt>
      <trkpt lat="41.69875667" lon="-4.76240167">
        <ele>747.0</ele>
        <time>2020-07-19T09:58:34.000Z</time>
      </trkpt>
      <trkpt lat="41.698775" lon="-4.76243167">
        <ele>747.0</ele>
        <time>2020-07-19T09:58:35.000Z</time>
      </trkpt>
      <trkpt lat="41.69879167" lon="-4.76246">
        <ele>747.0</ele>
        <time>2020-07-19T09:58:36.000Z</time>
      </trkpt>
      <trkpt lat="41.69880833" lon="-4.762485">
        <ele>747.0</ele>
        <time>2020-07-19T09:58:37.000Z</time>
      </trkpt>
      <trkpt lat="41.698825" lon="-4.76251">
        <ele>747.0</ele>
        <time>2020-07-19T09:58:38.000Z</time>
      </trkpt>
      <trkpt lat="41.69884" lon="-4.762535">
        <ele>748.0</ele>
        <time>2020-07-19T09:58:39.000Z</time>
      </trkpt>
      <trkpt lat="41.69885833" lon="-4.76255667">
        <ele>748.0</ele>
        <time>2020-07-19T09:58:40.000Z</time>
      </trkpt>
      <trkpt lat="41.69887667" lon="-4.762575">
        <ele>748.0</ele>
        <time>2020-07-19T09:58:41.000Z</time>
      </trkpt>
      <trkpt lat="41.69889167" lon="-4.762595">
        <ele>748.0</ele>
        <time>2020-07-19T09:58:42.000Z</time>
      </trkpt>
      <trkpt lat="41.69890667" lon="-4.76261667">
        <ele>748.0</ele>
        <time>2020-07-19T09:58:43.000Z</time>
      </trkpt>
      <trkpt lat="41.69892" lon="-4.76263833">
        <ele>749.0</ele>
        <time>2020-07-19T09:58:44.000Z</time>
      </trkpt>
      <trkpt lat="41.698935" lon="-4.76265667">
        <ele>749.0</ele>
        <time>2020-07-19T09:58:45.000Z</time>
      </trkpt>
      <trkpt lat="41.69895" lon="-4.762675">
        <ele>749.0</ele>
        <time>2020-07-19T09:58:46.000Z</time>
      </trkpt>
      <trkpt lat="41.698965" lon="-4.76269167">
        <ele>749.0</ele>
        <time>2020-07-19T09:58:47.000Z</time>
      </trkpt>
      <trkpt lat="41.69898167" lon="-4.76270833">
        <ele>749.0</ele>
        <time>2020-07-19T09:58:48.000Z</time>
      </trkpt>
      <trkpt lat="41.69899667" lon="-4.76272">
        <ele>749.0</ele>
        <time>2020-07-19T09:58:49.000Z</time>
      </trkpt>
      <trkpt lat="41.69901333" lon="-4.76273333">
        <ele>749.0</ele>
        <time>2020-07-19T09:58:50.000Z</time>
      </trkpt>
      <trkpt lat="41.69902833" lon="-4.76274667">
        <ele>749.0</ele>
        <time>2020-07-19T09:58:51.000Z</time>
      </trkpt>
      <trkpt lat="41.69904167" lon="-4.76276">
        <ele>749.0</ele>
        <time>2020-07-19T09:58:52.000Z</time>
      </trkpt>
      <trkpt lat="41.699055" lon="-4.76277333">
        <ele>749.0</ele>
        <time>2020-07-19T09:58:53.000Z</time>
      </trkpt>
      <trkpt lat="41.69907" lon="-4.762785">
        <ele>750.0</ele>
        <time>2020-07-19T09:58:54.000Z</time>
      </trkpt>
      <trkpt lat="41.69908333" lon="-4.76279833">
        <ele>751.0</ele>
        <time>2020-07-19T09:58:55.000Z</time>
      </trkpt>
      <trkpt lat="41.6991" lon="-4.76281">
        <ele>751.0</ele>
        <time>2020-07-19T09:58:56.000Z</time>
      </trkpt>
      <trkpt lat="41.69911333" lon="-4.76282">
        <ele>751.0</ele>
        <time>2020-07-19T09:58:57.000Z</time>
      </trkpt>
      <trkpt lat="41.69912833" lon="-4.76283167">
        <ele>751.0</ele>
        <time>2020-07-19T09:58:58.000Z</time>
      </trkpt>
      <trkpt lat="41.69914333" lon="-4.76284333">
        <ele>751.0</ele>
        <time>2020-07-19T09:58:59.000Z</time>
      </trkpt>
      <trkpt lat="41.69915833" lon="-4.762855">
        <ele>751.0</ele>
        <time>2020-07-19T09:59:00.000Z</time>
      </trkpt>
      <trkpt lat="41.69917333" lon="-4.76286333">
        <ele>751.0</ele>
        <time>2020-07-19T09:59:01.000Z</time>
      </trkpt>
      <trkpt lat="41.69918833" lon="-4.76287333">
        <ele>752.0</ele>
        <time>2020-07-19T09:59:02.000Z</time>
      </trkpt>
      <trkpt lat="41.69920333" lon="-4.762885">
        <ele>752.0</ele>
        <time>2020-07-19T09:59:03.000Z</time>
      </trkpt>
      <trkpt lat="41.69921833" lon="-4.762895">
        <ele>752.0</ele>
        <time>2020-07-19T09:59:04.000Z</time>
      </trkpt>
      <trkpt lat="41.699235" lon="-4.76290333">
        <ele>753.0</ele>
        <time>2020-07-19T09:59:05.000Z</time>
      </trkpt>
      <trkpt lat="41.69925" lon="-4.76291">
        <ele>753.0</ele>
        <time>2020-07-19T09:59:06.000Z</time>
      </trkpt>
      <trkpt lat="41.699265" lon="-4.76291833">
        <ele>753.0</ele>
        <time>2020-07-19T09:59:07.000Z</time>
      </trkpt>
      <trkpt lat="41.69927833" lon="-4.76292667">
        <ele>753.0</ele>
        <time>2020-07-19T09:59:08.000Z</time>
      </trkpt>
      <trkpt lat="41.69929333" lon="-4.762935">
        <ele>754.0</ele>
        <time>2020-07-19T09:59:09.000Z</time>
      </trkpt>
      <trkpt lat="41.69930667" lon="-4.76294167">
        <ele>754.0</ele>
        <time>2020-07-19T09:59:10.000Z</time>
      </trkpt>
      <trkpt lat="41.69932" lon="-4.76294833">
        <ele>754.0</ele>
        <time>2020-07-19T09:59:11.000Z</time>
      </trkpt>
      <trkpt lat="41.69933333" lon="-4.762955">
        <ele>754.0</ele>
        <time>2020-07-19T09:59:12.000Z</time>
      </trkpt>
      <trkpt lat="41.69934667" lon="-4.76296333">
        <ele>754.0</ele>
        <time>2020-07-19T09:59:13.000Z</time>
      </trkpt>
      <trkpt lat="41.69936" lon="-4.76297333">
        <ele>755.0</ele>
        <time>2020-07-19T09:59:14.000Z</time>
      </trkpt>
      <trkpt lat="41.69937667" lon="-4.76298333">
        <ele>755.0</ele>
        <time>2020-07-19T09:59:15.000Z</time>
      </trkpt>
      <trkpt lat="41.699395" lon="-4.76299167">
        <ele>755.0</ele>
        <time>2020-07-19T09:59:16.000Z</time>
      </trkpt>
      <trkpt lat="41.699415" lon="-4.76300167">
        <ele>755.0</ele>
        <time>2020-07-19T09:59:17.000Z</time>
      </trkpt>
      <trkpt lat="41.69943167" lon="-4.76301167">
        <ele>755.0</ele>
        <time>2020-07-19T09:59:18.000Z</time>
      </trkpt>
      <trkpt lat="41.69945167" lon="-4.76302333">
        <ele>756.0</ele>
        <time>2020-07-19T09:59:19.000Z</time>
      </trkpt>
      <trkpt lat="41.69947" lon="-4.76303167">
        <ele>756.0</ele>
        <time>2020-07-19T09:59:20.000Z</time>
      </trkpt>
      <trkpt lat="41.69948833" lon="-4.76303833">
        <ele>756.0</ele>
        <time>2020-07-19T09:59:21.000Z</time>
      </trkpt>
      <trkpt lat="41.69950667" lon="-4.76304667">
        <ele>756.0</ele>
        <time>2020-07-19T09:59:22.000Z</time>
      </trkpt>
      <trkpt lat="41.699525" lon="-4.76305333">
        <ele>757.0</ele>
        <time>2020-07-19T09:59:23.000Z</time>
      </trkpt>
      <trkpt lat="41.69954167" lon="-4.76306">
        <ele>757.0</ele>
        <time>2020-07-19T09:59:24.000Z</time>
      </trkpt>
      <trkpt lat="41.69955833" lon="-4.76306667">
        <ele>757.0</ele>
        <time>2020-07-19T09:59:25.000Z</time>
      </trkpt>
      <trkpt lat="41.699575" lon="-4.76307167">
        <ele>758.0</ele>
        <time>2020-07-19T09:59:26.000Z</time>
      </trkpt>
      <trkpt lat="41.69959167" lon="-4.76307667">
        <ele>758.0</ele>
        <time>2020-07-19T09:59:27.000Z</time>
      </trkpt>
      <trkpt lat="41.69961167" lon="-4.76308">
        <ele>758.0</ele>
        <time>2020-07-19T09:59:28.000Z</time>
      </trkpt>
      <trkpt lat="41.69962833" lon="-4.76308333">
        <ele>758.0</ele>
        <time>2020-07-19T09:59:29.000Z</time>
      </trkpt>
      <trkpt lat="41.699645" lon="-4.76309167">
        <ele>758.0</ele>
        <time>2020-07-19T09:59:30.000Z</time>
      </trkpt>
      <trkpt lat="41.69966167" lon="-4.76309667">
        <ele>759.0</ele>
        <time>2020-07-19T09:59:31.000Z</time>
      </trkpt>
      <trkpt lat="41.69967833" lon="-4.76310333">
        <ele>759.0</ele>
        <time>2020-07-19T09:59:32.000Z</time>
      </trkpt>
      <trkpt lat="41.699695" lon="-4.76310833">
        <ele>759.0</ele>
        <time>2020-07-19T09:59:33.000Z</time>
      </trkpt>
      <trkpt lat="41.69971" lon="-4.76311667">
        <ele>759.0</ele>
        <time>2020-07-19T09:59:34.000Z</time>
      </trkpt>
      <trkpt lat="41.69972167" lon="-4.76312667">
        <ele>759.0</ele>
        <time>2020-07-19T09:59:35.000Z</time>
      </trkpt>
      <trkpt lat="41.69973667" lon="-4.76313667">
        <ele>759.0</ele>
        <time>2020-07-19T09:59:36.000Z</time>
      </trkpt>
      <trkpt lat="41.69975167" lon="-4.763145">
        <ele>759.0</ele>
        <time>2020-07-19T09:59:37.000Z</time>
      </trkpt>
      <trkpt lat="41.69976667" lon="-4.76315">
        <ele>759.0</ele>
        <time>2020-07-19T09:59:38.000Z</time>
      </trkpt>
      <trkpt lat="41.69978333" lon="-4.76315667">
        <ele>759.0</ele>
        <time>2020-07-19T09:59:39.000Z</time>
      </trkpt>
      <trkpt lat="41.69979667" lon="-4.76316333">
        <ele>759.0</ele>
        <time>2020-07-19T09:59:40.000Z</time>
      </trkpt>
      <trkpt lat="41.69981167" lon="-4.76317">
        <ele>759.0</ele>
        <time>2020-07-19T09:59:41.000Z</time>
      </trkpt>
      <trkpt lat="41.69982833" lon="-4.76317667">
        <ele>761.0</ele>
        <time>2020-07-19T09:59:42.000Z</time>
      </trkpt>
      <trkpt lat="41.69984333" lon="-4.76318333">
        <ele>761.0</ele>
        <time>2020-07-19T09:59:43.000Z</time>
      </trkpt>
      <trkpt lat="41.69985833" lon="-4.76318833">
        <ele>761.0</ele>
        <time>2020-07-19T09:59:44.000Z</time>
      </trkpt>
      <trkpt lat="41.69987167" lon="-4.76319667">
        <ele>761.0</ele>
        <time>2020-07-19T09:59:45.000Z</time>
      </trkpt>
      <trkpt lat="41.69988667" lon="-4.76320667">
        <ele>761.0</ele>
        <time>2020-07-19T09:59:46.000Z</time>
      </trkpt>
      <trkpt lat="41.69990167" lon="-4.76321667">
        <ele>761.0</ele>
        <time>2020-07-19T09:59:47.000Z</time>
      </trkpt>
      <trkpt lat="41.699915" lon="-4.76322667">
        <ele>761.0</ele>
        <time>2020-07-19T09:59:48.000Z</time>
      </trkpt>
      <trkpt lat="41.69993" lon="-4.76323667">
        <ele>761.0</ele>
        <time>2020-07-19T09:59:49.000Z</time>
      </trkpt>
      <trkpt lat="41.69994333" lon="-4.763245">
        <ele>761.0</ele>
        <time>2020-07-19T09:59:50.000Z</time>
      </trkpt>
      <trkpt lat="41.69995833" lon="-4.76325667">
        <ele>762.0</ele>
        <time>2020-07-19T09:59:51.000Z</time>
      </trkpt>
      <trkpt lat="41.69997333" lon="-4.76326833">
        <ele>762.0</ele>
        <time>2020-07-19T09:59:52.000Z</time>
      </trkpt>
      <trkpt lat="41.69999167" lon="-4.76328667">
        <ele>762.0</ele>
        <time>2020-07-19T09:59:53.000Z</time>
      </trkpt>
      <trkpt lat="41.70001" lon="-4.7633">
        <ele>762.0</ele>
        <time>2020-07-19T09:59:54.000Z</time>
      </trkpt>
      <trkpt lat="41.70003" lon="-4.763315">
        <ele>762.0</ele>
        <time>2020-07-19T09:59:55.000Z</time>
      </trkpt>
      <trkpt lat="41.70004833" lon="-4.76333167">
        <ele>762.0</ele>
        <time>2020-07-19T09:59:56.000Z</time>
      </trkpt>
      <trkpt lat="41.70006667" lon="-4.76334833">
        <ele>762.0</ele>
        <time>2020-07-19T09:59:57.000Z</time>
      </trkpt>
      <trkpt lat="41.70008667" lon="-4.76336333">
        <ele>762.0</ele>
        <time>2020-07-19T09:59:58.000Z</time>
      </trkpt>
      <trkpt lat="41.70010333" lon="-4.76338">
        <ele>762.0</ele>
        <time>2020-07-19T09:59:59.000Z</time>
      </trkpt>
      <trkpt lat="41.700125" lon="-4.76339667">
        <ele>762.0</ele>
        <time>2020-07-19T10:00:00.000Z</time>
      </trkpt>
      <trkpt lat="41.70014333" lon="-4.763415">
        <ele>762.0</ele>
        <time>2020-07-19T10:00:01.000Z</time>
      </trkpt>
      <trkpt lat="41.70016167" lon="-4.763435">
        <ele>762.0</ele>
        <time>2020-07-19T10:00:02.000Z</time>
      </trkpt>
      <trkpt lat="41.70018167" lon="-4.76344833">
        <ele>762.0</ele>
        <time>2020-07-19T10:00:03.000Z</time>
      </trkpt>
      <trkpt lat="41.70020667" lon="-4.763465">
        <ele>762.0</ele>
        <time>2020-07-19T10:00:04.000Z</time>
      </trkpt>
      <trkpt lat="41.700225" lon="-4.76348333">
        <ele>762.0</ele>
        <time>2020-07-19T10:00:05.000Z</time>
      </trkpt>
      <trkpt lat="41.700245" lon="-4.76349833">
        <ele>762.0</ele>
        <time>2020-07-19T10:00:06.000Z</time>
      </trkpt>
      <trkpt lat="41.700265" lon="-4.76351667">
        <ele>763.0</ele>
        <time>2020-07-19T10:00:07.000Z</time>
      </trkpt>
      <trkpt lat="41.70028333" lon="-4.76353667">
        <ele>763.0</ele>
        <time>2020-07-19T10:00:08.000Z</time>
      </trkpt>
      <trkpt lat="41.70030333" lon="-4.76355667">
        <ele>763.0</ele>
        <time>2020-07-19T10:00:09.000Z</time>
      </trkpt>
      <trkpt lat="41.70032333" lon="-4.763575">
        <ele>763.0</ele>
        <time>2020-07-19T10:00:10.000Z</time>
      </trkpt>
      <trkpt lat="41.70034167" lon="-4.763595">
        <ele>763.0</ele>
        <time>2020-07-19T10:00:11.000Z</time>
      </trkpt>
      <trkpt lat="41.70036" lon="-4.763615">
        <ele>763.0</ele>
        <time>2020-07-19T10:00:12.000Z</time>
      </trkpt>
      <trkpt lat="41.70038" lon="-4.76362833">
        <ele>763.0</ele>
        <time>2020-07-19T10:00:13.000Z</time>
      </trkpt>
      <trkpt lat="41.70039667" lon="-4.763645">
        <ele>763.0</ele>
        <time>2020-07-19T10:00:14.000Z</time>
      </trkpt>
      <trkpt lat="41.700415" lon="-4.76366333">
        <ele>763.0</ele>
        <time>2020-07-19T10:00:15.000Z</time>
      </trkpt>
      <trkpt lat="41.700435" lon="-4.76367667">
        <ele>763.0</ele>
        <time>2020-07-19T10:00:16.000Z</time>
      </trkpt>
      <trkpt lat="41.70045333" lon="-4.763695">
        <ele>763.0</ele>
        <time>2020-07-19T10:00:17.000Z</time>
      </trkpt>
      <trkpt lat="41.70047333" lon="-4.763715">
        <ele>763.0</ele>
        <time>2020-07-19T10:00:18.000Z</time>
      </trkpt>
      <trkpt lat="41.70049333" lon="-4.76373333">
        <ele>763.0</ele>
        <time>2020-07-19T10:00:19.000Z</time>
      </trkpt>
      <trkpt lat="41.70051167" lon="-4.76375333">
        <ele>763.0</ele>
        <time>2020-07-19T10:00:20.000Z</time>
      </trkpt>
      <trkpt lat="41.70053333" lon="-4.76377167">
        <ele>763.0</ele>
        <time>2020-07-19T10:00:21.000Z</time>
      </trkpt>
      <trkpt lat="41.70055333" lon="-4.76379">
        <ele>763.0</ele>
        <time>2020-07-19T10:00:22.000Z</time>
      </trkpt>
      <trkpt lat="41.700575" lon="-4.76380833">
        <ele>763.0</ele>
        <time>2020-07-19T10:00:23.000Z</time>
      </trkpt>
      <trkpt lat="41.70059833" lon="-4.76382667">
        <ele>763.0</ele>
        <time>2020-07-19T10:00:24.000Z</time>
      </trkpt>
      <trkpt lat="41.70062333" lon="-4.763845">
        <ele>763.0</ele>
        <time>2020-07-19T10:00:25.000Z</time>
      </trkpt>
      <trkpt lat="41.70064667" lon="-4.763865">
        <ele>763.0</ele>
        <time>2020-07-19T10:00:26.000Z</time>
      </trkpt>
      <trkpt lat="41.70067" lon="-4.763885">
        <ele>763.0</ele>
        <time>2020-07-19T10:00:27.000Z</time>
      </trkpt>
      <trkpt lat="41.70069333" lon="-4.763905">
        <ele>763.0</ele>
        <time>2020-07-19T10:00:28.000Z</time>
      </trkpt>
      <trkpt lat="41.70071833" lon="-4.763925">
        <ele>763.0</ele>
        <time>2020-07-19T10:00:29.000Z</time>
      </trkpt>
      <trkpt lat="41.70074" lon="-4.76394333">
        <ele>763.0</ele>
        <time>2020-07-19T10:00:30.000Z</time>
      </trkpt>
      <trkpt lat="41.70076167" lon="-4.76396167">
        <ele>763.0</ele>
        <time>2020-07-19T10:00:31.000Z</time>
      </trkpt>
      <trkpt lat="41.70078333" lon="-4.76398">
        <ele>763.0</ele>
        <time>2020-07-19T10:00:32.000Z</time>
      </trkpt>
      <trkpt lat="41.700805" lon="-4.763995">
        <ele>763.0</ele>
        <time>2020-07-19T10:00:33.000Z</time>
      </trkpt>
      <trkpt lat="41.70082833" lon="-4.76401">
        <ele>763.0</ele>
        <time>2020-07-19T10:00:34.000Z</time>
      </trkpt>
      <trkpt lat="41.70085" lon="-4.76402667">
        <ele>763.0</ele>
        <time>2020-07-19T10:00:35.000Z</time>
      </trkpt>
      <trkpt lat="41.700875" lon="-4.76404167">
        <ele>764.0</ele>
        <time>2020-07-19T10:00:36.000Z</time>
      </trkpt>
      <trkpt lat="41.70089833" lon="-4.76406167">
        <ele>764.0</ele>
        <time>2020-07-19T10:00:37.000Z</time>
      </trkpt>
      <trkpt lat="41.700925" lon="-4.76408167">
        <ele>763.0</ele>
        <time>2020-07-19T10:00:38.000Z</time>
      </trkpt>
      <trkpt lat="41.700955" lon="-4.76410167">
        <ele>763.0</ele>
        <time>2020-07-19T10:00:39.000Z</time>
      </trkpt>
      <trkpt lat="41.70098667" lon="-4.76412167">
        <ele>763.0</ele>
        <time>2020-07-19T10:00:40.000Z</time>
      </trkpt>
      <trkpt lat="41.70101833" lon="-4.76414167">
        <ele>763.0</ele>
        <time>2020-07-19T10:00:41.000Z</time>
      </trkpt>
      <trkpt lat="41.70105333" lon="-4.76416333">
        <ele>763.0</ele>
        <time>2020-07-19T10:00:42.000Z</time>
      </trkpt>
      <trkpt lat="41.70109167" lon="-4.76418333">
        <ele>763.0</ele>
        <time>2020-07-19T10:00:43.000Z</time>
      </trkpt>
      <trkpt lat="41.70113" lon="-4.76420333">
        <ele>763.0</ele>
        <time>2020-07-19T10:00:44.000Z</time>
      </trkpt>
      <trkpt lat="41.70117333" lon="-4.76422167">
        <ele>763.0</ele>
        <time>2020-07-19T10:00:45.000Z</time>
      </trkpt>
      <trkpt lat="41.70121667" lon="-4.76423833">
        <ele>762.0</ele>
        <time>2020-07-19T10:00:46.000Z</time>
      </trkpt>
      <trkpt lat="41.70126333" lon="-4.764255">
        <ele>762.0</ele>
        <time>2020-07-19T10:00:47.000Z</time>
      </trkpt>
      <trkpt lat="41.70131167" lon="-4.76426667">
        <ele>762.0</ele>
        <time>2020-07-19T10:00:48.000Z</time>
      </trkpt>
      <trkpt lat="41.70136" lon="-4.76427667">
        <ele>762.0</ele>
        <time>2020-07-19T10:00:49.000Z</time>
      </trkpt>
      <trkpt lat="41.70140833" lon="-4.76428333">
        <ele>762.0</ele>
        <time>2020-07-19T10:00:50.000Z</time>
      </trkpt>
      <trkpt lat="41.701455" lon="-4.76427667">
        <ele>762.0</ele>
        <time>2020-07-19T10:00:51.000Z</time>
      </trkpt>
      <trkpt lat="41.70150167" lon="-4.76426167">
        <ele>762.0</ele>
        <time>2020-07-19T10:00:52.000Z</time>
      </trkpt>
      <trkpt lat="41.701545" lon="-4.76424167">
        <ele>762.0</ele>
        <time>2020-07-19T10:00:53.000Z</time>
      </trkpt>
      <trkpt lat="41.70158833" lon="-4.76422333">
        <ele>762.0</ele>
        <time>2020-07-19T10:00:54.000Z</time>
      </trkpt>
      <trkpt lat="41.70163167" lon="-4.76420333">
        <ele>762.0</ele>
        <time>2020-07-19T10:00:55.000Z</time>
      </trkpt>
      <trkpt lat="41.70167333" lon="-4.76418">
        <ele>762.0</ele>
        <time>2020-07-19T10:00:56.000Z</time>
      </trkpt>
      <trkpt lat="41.70171167" lon="-4.76415667">
        <ele>762.0</ele>
        <time>2020-07-19T10:00:57.000Z</time>
      </trkpt>
      <trkpt lat="41.70174833" lon="-4.76412833">
        <ele>762.0</ele>
        <time>2020-07-19T10:00:58.000Z</time>
      </trkpt>
      <trkpt lat="41.70178333" lon="-4.7641">
        <ele>762.0</ele>
        <time>2020-07-19T10:00:59.000Z</time>
      </trkpt>
      <trkpt lat="41.70181833" lon="-4.764075">
        <ele>762.0</ele>
        <time>2020-07-19T10:01:00.000Z</time>
      </trkpt>
      <trkpt lat="41.70185167" lon="-4.76405167">
        <ele>762.0</ele>
        <time>2020-07-19T10:01:01.000Z</time>
      </trkpt>
      <trkpt lat="41.70188833" lon="-4.76402667">
        <ele>762.0</ele>
        <time>2020-07-19T10:01:02.000Z</time>
      </trkpt>
      <trkpt lat="41.701925" lon="-4.764005">
        <ele>762.0</ele>
        <time>2020-07-19T10:01:03.000Z</time>
      </trkpt>
      <trkpt lat="41.701965" lon="-4.76398667">
        <ele>762.0</ele>
        <time>2020-07-19T10:01:04.000Z</time>
      </trkpt>
      <trkpt lat="41.702005" lon="-4.763975">
        <ele>762.0</ele>
        <time>2020-07-19T10:01:05.000Z</time>
      </trkpt>
      <trkpt lat="41.70204667" lon="-4.76396667">
        <ele>762.0</ele>
        <time>2020-07-19T10:01:06.000Z</time>
      </trkpt>
      <trkpt lat="41.70209" lon="-4.76395667">
        <ele>762.0</ele>
        <time>2020-07-19T10:01:07.000Z</time>
      </trkpt>
      <trkpt lat="41.70213167" lon="-4.76394833">
        <ele>762.0</ele>
        <time>2020-07-19T10:01:08.000Z</time>
      </trkpt>
      <trkpt lat="41.702175" lon="-4.76394">
        <ele>762.0</ele>
        <time>2020-07-19T10:01:09.000Z</time>
      </trkpt>
      <trkpt lat="41.70221833" lon="-4.76393167">
        <ele>761.0</ele>
        <time>2020-07-19T10:01:10.000Z</time>
      </trkpt>
      <trkpt lat="41.70226333" lon="-4.763925">
        <ele>761.0</ele>
        <time>2020-07-19T10:01:11.000Z</time>
      </trkpt>
      <trkpt lat="41.70231" lon="-4.76391833">
        <ele>761.0</ele>
        <time>2020-07-19T10:01:12.000Z</time>
      </trkpt>
      <trkpt lat="41.702355" lon="-4.76391333">
        <ele>761.0</ele>
        <time>2020-07-19T10:01:13.000Z</time>
      </trkpt>
      <trkpt lat="41.70240167" lon="-4.76390833">
        <ele>761.0</ele>
        <time>2020-07-19T10:01:14.000Z</time>
      </trkpt>
      <trkpt lat="41.70244833" lon="-4.76390667">
        <ele>761.0</ele>
        <time>2020-07-19T10:01:15.000Z</time>
      </trkpt>
      <trkpt lat="41.702495" lon="-4.76390833">
        <ele>761.0</ele>
        <time>2020-07-19T10:01:16.000Z</time>
      </trkpt>
      <trkpt lat="41.702545" lon="-4.76390833">
        <ele>761.0</ele>
        <time>2020-07-19T10:01:17.000Z</time>
      </trkpt>
      <trkpt lat="41.702595" lon="-4.76390667">
        <ele>760.0</ele>
        <time>2020-07-19T10:01:18.000Z</time>
      </trkpt>
      <trkpt lat="41.70264333" lon="-4.76390333">
        <ele>760.0</ele>
        <time>2020-07-19T10:01:19.000Z</time>
      </trkpt>
      <trkpt lat="41.70269333" lon="-4.76390167">
        <ele>760.0</ele>
        <time>2020-07-19T10:01:20.000Z</time>
      </trkpt>
      <trkpt lat="41.70274333" lon="-4.76390167">
        <ele>760.0</ele>
        <time>2020-07-19T10:01:21.000Z</time>
      </trkpt>
      <trkpt lat="41.70279333" lon="-4.76390167">
        <ele>760.0</ele>
        <time>2020-07-19T10:01:22.000Z</time>
      </trkpt>
      <trkpt lat="41.70284333" lon="-4.76390333">
        <ele>759.0</ele>
        <time>2020-07-19T10:01:23.000Z</time>
      </trkpt>
      <trkpt lat="41.70289167" lon="-4.76391">
        <ele>759.0</ele>
        <time>2020-07-19T10:01:24.000Z</time>
      </trkpt>
      <trkpt lat="41.70294167" lon="-4.763915">
        <ele>759.0</ele>
        <time>2020-07-19T10:01:25.000Z</time>
      </trkpt>
      <trkpt lat="41.70299" lon="-4.76392833">
        <ele>759.0</ele>
        <time>2020-07-19T10:01:26.000Z</time>
      </trkpt>
      <trkpt lat="41.70304167" lon="-4.76394">
        <ele>759.0</ele>
        <time>2020-07-19T10:01:27.000Z</time>
      </trkpt>
      <trkpt lat="41.70309167" lon="-4.76395333">
        <ele>759.0</ele>
        <time>2020-07-19T10:01:28.000Z</time>
      </trkpt>
      <trkpt lat="41.70314167" lon="-4.76396833">
        <ele>759.0</ele>
        <time>2020-07-19T10:01:29.000Z</time>
      </trkpt>
      <trkpt lat="41.70319167" lon="-4.76399">
        <ele>758.0</ele>
        <time>2020-07-19T10:01:30.000Z</time>
      </trkpt>
      <trkpt lat="41.70324333" lon="-4.76401333">
        <ele>758.0</ele>
        <time>2020-07-19T10:01:31.000Z</time>
      </trkpt>
      <trkpt lat="41.70329333" lon="-4.76403667">
        <ele>758.0</ele>
        <time>2020-07-19T10:01:32.000Z</time>
      </trkpt>
      <trkpt lat="41.703345" lon="-4.76406">
        <ele>758.0</ele>
        <time>2020-07-19T10:01:33.000Z</time>
      </trkpt>
      <trkpt lat="41.703395" lon="-4.76408667">
        <ele>758.0</ele>
        <time>2020-07-19T10:01:34.000Z</time>
      </trkpt>
      <trkpt lat="41.703445" lon="-4.76411667">
        <ele>758.0</ele>
        <time>2020-07-19T10:01:35.000Z</time>
      </trkpt>
      <trkpt lat="41.70349333" lon="-4.764145">
        <ele>758.0</ele>
        <time>2020-07-19T10:01:36.000Z</time>
      </trkpt>
      <trkpt lat="41.70354" lon="-4.764175">
        <ele>757.0</ele>
        <time>2020-07-19T10:01:37.000Z</time>
      </trkpt>
      <trkpt lat="41.70358667" lon="-4.76420667">
        <ele>757.0</ele>
        <time>2020-07-19T10:01:38.000Z</time>
      </trkpt>
      <trkpt lat="41.70363667" lon="-4.76423833">
        <ele>756.0</ele>
        <time>2020-07-19T10:01:39.000Z</time>
      </trkpt>
      <trkpt lat="41.70369167" lon="-4.764265">
        <ele>756.0</ele>
        <time>2020-07-19T10:01:40.000Z</time>
      </trkpt>
      <trkpt lat="41.70375167" lon="-4.76428333">
        <ele>756.0</ele>
        <time>2020-07-19T10:01:41.000Z</time>
      </trkpt>
      <trkpt lat="41.70381333" lon="-4.76429333">
        <ele>756.0</ele>
        <time>2020-07-19T10:01:42.000Z</time>
      </trkpt>
      <trkpt lat="41.70387833" lon="-4.764295">
        <ele>756.0</ele>
        <time>2020-07-19T10:01:43.000Z</time>
      </trkpt>
      <trkpt lat="41.703945" lon="-4.76429333">
        <ele>756.0</ele>
        <time>2020-07-19T10:01:44.000Z</time>
      </trkpt>
      <trkpt lat="41.70401" lon="-4.764295">
        <ele>755.0</ele>
        <time>2020-07-19T10:01:45.000Z</time>
      </trkpt>
      <trkpt lat="41.70407667" lon="-4.764295">
        <ele>755.0</ele>
        <time>2020-07-19T10:01:46.000Z</time>
      </trkpt>
      <trkpt lat="41.70414333" lon="-4.7643">
        <ele>755.0</ele>
        <time>2020-07-19T10:01:47.000Z</time>
      </trkpt>
      <trkpt lat="41.704205" lon="-4.764315">
        <ele>755.0</ele>
        <time>2020-07-19T10:01:48.000Z</time>
      </trkpt>
      <trkpt lat="41.70426667" lon="-4.76433">
        <ele>755.0</ele>
        <time>2020-07-19T10:01:49.000Z</time>
      </trkpt>
      <trkpt lat="41.70432833" lon="-4.76434333">
        <ele>755.0</ele>
        <time>2020-07-19T10:01:50.000Z</time>
      </trkpt>
      <trkpt lat="41.704385" lon="-4.76435833">
        <ele>755.0</ele>
        <time>2020-07-19T10:01:51.000Z</time>
      </trkpt>
      <trkpt lat="41.70443667" lon="-4.76437">
        <ele>755.0</ele>
        <time>2020-07-19T10:01:52.000Z</time>
      </trkpt>
      <trkpt lat="41.70448833" lon="-4.76438">
        <ele>755.0</ele>
        <time>2020-07-19T10:01:53.000Z</time>
      </trkpt>
      <trkpt lat="41.70453833" lon="-4.76438833">
        <ele>755.0</ele>
        <time>2020-07-19T10:01:54.000Z</time>
      </trkpt>
      <trkpt lat="41.70458833" lon="-4.76439333">
        <ele>755.0</ele>
        <time>2020-07-19T10:01:55.000Z</time>
      </trkpt>
      <trkpt lat="41.70463667" lon="-4.764395">
        <ele>755.0</ele>
        <time>2020-07-19T10:01:56.000Z</time>
      </trkpt>
      <trkpt lat="41.70468167" lon="-4.76438667">
        <ele>755.0</ele>
        <time>2020-07-19T10:01:57.000Z</time>
      </trkpt>
      <trkpt lat="41.70472167" lon="-4.76438333">
        <ele>755.0</ele>
        <time>2020-07-19T10:01:58.000Z</time>
      </trkpt>
      <trkpt lat="41.70475667" lon="-4.76438333">
        <ele>755.0</ele>
        <time>2020-07-19T10:01:59.000Z</time>
      </trkpt>
      <trkpt lat="41.70479" lon="-4.764385">
        <ele>755.0</ele>
        <time>2020-07-19T10:02:00.000Z</time>
      </trkpt>
      <trkpt lat="41.70481833" lon="-4.76438833">
        <ele>755.0</ele>
        <time>2020-07-19T10:02:01.000Z</time>
      </trkpt>
      <trkpt lat="41.70484" lon="-4.76439167">
        <ele>755.0</ele>
        <time>2020-07-19T10:02:02.000Z</time>
      </trkpt>
      <trkpt lat="41.70485833" lon="-4.764395">
        <ele>755.0</ele>
        <time>2020-07-19T10:02:03.000Z</time>
      </trkpt>
      <trkpt lat="41.70486833" lon="-4.76439667">
        <ele>756.0</ele>
        <time>2020-07-19T10:02:04.000Z</time>
      </trkpt>
      <trkpt lat="41.70487167" lon="-4.76439833">
        <ele>756.0</ele>
        <time>2020-07-19T10:02:05.000Z</time>
      </trkpt>
      <trkpt lat="41.70487333" lon="-4.76439833">
        <ele>756.0</ele>
        <time>2020-07-19T10:02:06.000Z</time>
      </trkpt>
      <trkpt lat="41.70487333" lon="-4.76439833">
        <ele>756.0</ele>
        <time>2020-07-19T10:02:07.000Z</time>
      </trkpt>
      <trkpt lat="41.704875" lon="-4.76439833">
        <ele>756.0</ele>
        <time>2020-07-19T10:02:08.000Z</time>
      </trkpt>
      <trkpt lat="41.704875" lon="-4.7644">
        <ele>756.0</ele>
        <time>2020-07-19T10:02:09.000Z</time>
      </trkpt>
      <trkpt lat="41.70487667" lon="-4.76440167">
        <ele>756.0</ele>
        <time>2020-07-19T10:02:10.000Z</time>
      </trkpt>
      <trkpt lat="41.70487833" lon="-4.76440167">
        <ele>756.0</ele>
        <time>2020-07-19T10:02:11.000Z</time>
      </trkpt>
      <trkpt lat="41.70487833" lon="-4.76440333">
        <ele>756.0</ele>
        <time>2020-07-19T10:02:12.000Z</time>
      </trkpt>
      <trkpt lat="41.70487833" lon="-4.76440333">
        <ele>756.0</ele>
        <time>2020-07-19T10:02:13.000Z</time>
      </trkpt>
      <trkpt lat="41.70488" lon="-4.764405">
        <ele>756.0</ele>
        <time>2020-07-19T10:02:14.000Z</time>
      </trkpt>
      <trkpt lat="41.70488" lon="-4.764405">
        <ele>756.0</ele>
        <time>2020-07-19T10:02:15.000Z</time>
      </trkpt>
      <trkpt lat="41.70488" lon="-4.764405">
        <ele>756.0</ele>
        <time>2020-07-19T10:02:16.000Z</time>
      </trkpt>
      <trkpt lat="41.70488" lon="-4.76440667">
        <ele>756.0</ele>
        <time>2020-07-19T10:02:17.000Z</time>
      </trkpt>
      <trkpt lat="41.70488" lon="-4.76440667">
        <ele>756.0</ele>
        <time>2020-07-19T10:02:18.000Z</time>
      </trkpt>
      <trkpt lat="41.70488" lon="-4.76440667">
        <ele>756.0</ele>
        <time>2020-07-19T10:02:19.000Z</time>
      </trkpt>
      <trkpt lat="41.70488" lon="-4.76440667">
        <ele>756.0</ele>
        <time>2020-07-19T10:02:20.000Z</time>
      </trkpt>
      <trkpt lat="41.70488" lon="-4.76440667">
        <ele>756.0</ele>
        <time>2020-07-19T10:02:21.000Z</time>
      </trkpt>
      <trkpt lat="41.70488" lon="-4.76440667">
        <ele>756.0</ele>
        <time>2020-07-19T10:02:22.000Z</time>
      </trkpt>
      <trkpt lat="41.70488" lon="-4.76440667">
        <ele>756.0</ele>
        <time>2020-07-19T10:02:23.000Z</time>
      </trkpt>
      <trkpt lat="41.70488" lon="-4.76440833">
        <ele>756.0</ele>
        <time>2020-07-19T10:02:24.000Z</time>
      </trkpt>
      <trkpt lat="41.70488" lon="-4.76440833">
        <ele>756.0</ele>
        <time>2020-07-19T10:02:25.000Z</time>
      </trkpt>
      <trkpt lat="41.70488" lon="-4.76440833">
        <ele>756.0</ele>
        <time>2020-07-19T10:02:26.000Z</time>
      </trkpt>
      <trkpt lat="41.70488167" lon="-4.76440833">
        <ele>756.0</ele>
        <time>2020-07-19T10:02:27.000Z</time>
      </trkpt>
      <trkpt lat="41.70488" lon="-4.76440833">
        <ele>756.0</ele>
        <time>2020-07-19T10:02:28.000Z</time>
      </trkpt>
      <trkpt lat="41.70488" lon="-4.76441">
        <ele>757.0</ele>
        <time>2020-07-19T10:02:29.000Z</time>
      </trkpt>
      <trkpt lat="41.70488" lon="-4.76441">
        <ele>757.0</ele>
        <time>2020-07-19T10:02:30.000Z</time>
      </trkpt>
      <trkpt lat="41.70488167" lon="-4.76441">
        <ele>757.0</ele>
        <time>2020-07-19T10:02:31.000Z</time>
      </trkpt>
      <trkpt lat="41.70488167" lon="-4.76441">
        <ele>757.0</ele>
        <time>2020-07-19T10:02:32.000Z</time>
      </trkpt>
      <trkpt lat="41.70488167" lon="-4.76441167">
        <ele>757.0</ele>
        <time>2020-07-19T10:02:33.000Z</time>
      </trkpt>
      <trkpt lat="41.70488167" lon="-4.76441167">
        <ele>757.0</ele>
        <time>2020-07-19T10:02:34.000Z</time>
      </trkpt>
      <trkpt lat="41.70488167" lon="-4.76441167">
        <ele>757.0</ele>
        <time>2020-07-19T10:02:35.000Z</time>
      </trkpt>
      <trkpt lat="41.70488167" lon="-4.76441333">
        <ele>757.0</ele>
        <time>2020-07-19T10:02:36.000Z</time>
      </trkpt>
      <trkpt lat="41.70488167" lon="-4.76441333">
        <ele>757.0</ele>
        <time>2020-07-19T10:02:37.000Z</time>
      </trkpt>
      <trkpt lat="41.70488" lon="-4.76441333">
        <ele>757.0</ele>
        <time>2020-07-19T10:02:38.000Z</time>
      </trkpt>
      <trkpt lat="41.70488" lon="-4.76441333">
        <ele>757.0</ele>
        <time>2020-07-19T10:02:39.000Z</time>
      </trkpt>
      <trkpt lat="41.70488" lon="-4.76441333">
        <ele>757.0</ele>
        <time>2020-07-19T10:02:40.000Z</time>
      </trkpt>
      <trkpt lat="41.70488167" lon="-4.76441333">
        <ele>757.0</ele>
        <time>2020-07-19T10:02:41.000Z</time>
      </trkpt>
      <trkpt lat="41.70488167" lon="-4.76441167">
        <ele>757.0</ele>
        <time>2020-07-19T10:02:42.000Z</time>
      </trkpt>
      <trkpt lat="41.70488167" lon="-4.76441333">
        <ele>757.0</ele>
        <time>2020-07-19T10:02:43.000Z</time>
      </trkpt>
      <trkpt lat="41.70488167" lon="-4.76441333">
        <ele>757.0</ele>
        <time>2020-07-19T10:02:44.000Z</time>
      </trkpt>
      <trkpt lat="41.70487833" lon="-4.76441333">
        <ele>757.0</ele>
        <time>2020-07-19T10:02:45.000Z</time>
      </trkpt>
      <trkpt lat="41.70488167" lon="-4.76441333">
        <ele>757.0</ele>
        <time>2020-07-19T10:02:46.000Z</time>
      </trkpt>
      <trkpt lat="41.70488833" lon="-4.76442167">
        <ele>757.0</ele>
        <time>2020-07-19T10:02:47.000Z</time>
      </trkpt>
      <trkpt lat="41.70488833" lon="-4.76442167">
        <ele>757.0</ele>
        <time>2020-07-19T10:02:48.000Z</time>
      </trkpt>
      <trkpt lat="41.70488667" lon="-4.76442">
        <ele>757.0</ele>
        <time>2020-07-19T10:02:49.000Z</time>
      </trkpt>
      <trkpt lat="41.70488667" lon="-4.76442">
        <ele>757.0</ele>
        <time>2020-07-19T10:02:50.000Z</time>
      </trkpt>
      <trkpt lat="41.704885" lon="-4.76442">
        <ele>757.0</ele>
        <time>2020-07-19T10:02:51.000Z</time>
      </trkpt>
      <trkpt lat="41.70488333" lon="-4.76441833">
        <ele>757.0</ele>
        <time>2020-07-19T10:02:52.000Z</time>
      </trkpt>
      <trkpt lat="41.70488333" lon="-4.76441833">
        <ele>757.0</ele>
        <time>2020-07-19T10:02:53.000Z</time>
      </trkpt>
      <trkpt lat="41.70489167" lon="-4.76441333">
        <ele>757.0</ele>
        <time>2020-07-19T10:02:54.000Z</time>
      </trkpt>
      <trkpt lat="41.7049" lon="-4.76441333">
        <ele>757.0</ele>
        <time>2020-07-19T10:02:55.000Z</time>
      </trkpt>
      <trkpt lat="41.70490833" lon="-4.76441833">
        <ele>757.0</ele>
        <time>2020-07-19T10:02:56.000Z</time>
      </trkpt>
      <trkpt lat="41.70492" lon="-4.76442833">
        <ele>757.0</ele>
        <time>2020-07-19T10:02:57.000Z</time>
      </trkpt>
      <trkpt lat="41.70493" lon="-4.76444333">
        <ele>757.0</ele>
        <time>2020-07-19T10:02:58.000Z</time>
      </trkpt>
      <trkpt lat="41.70493667" lon="-4.76446667">
        <ele>758.0</ele>
        <time>2020-07-19T10:02:59.000Z</time>
      </trkpt>
      <trkpt lat="41.70494167" lon="-4.76449333">
        <ele>758.0</ele>
        <time>2020-07-19T10:03:00.000Z</time>
      </trkpt>
      <trkpt lat="41.70494667" lon="-4.764525">
        <ele>758.0</ele>
        <time>2020-07-19T10:03:01.000Z</time>
      </trkpt>
      <trkpt lat="41.70494833" lon="-4.76456">
        <ele>758.0</ele>
        <time>2020-07-19T10:03:02.000Z</time>
      </trkpt>
      <trkpt lat="41.70494833" lon="-4.764595">
        <ele>758.0</ele>
        <time>2020-07-19T10:03:03.000Z</time>
      </trkpt>
      <trkpt lat="41.70494833" lon="-4.76463167">
        <ele>758.0</ele>
        <time>2020-07-19T10:03:04.000Z</time>
      </trkpt>
      <trkpt lat="41.70494667" lon="-4.76466833">
        <ele>758.0</ele>
        <time>2020-07-19T10:03:05.000Z</time>
      </trkpt>
      <trkpt lat="41.70494667" lon="-4.76470667">
        <ele>758.0</ele>
        <time>2020-07-19T10:03:06.000Z</time>
      </trkpt>
      <trkpt lat="41.70494667" lon="-4.76474667">
        <ele>758.0</ele>
        <time>2020-07-19T10:03:07.000Z</time>
      </trkpt>
      <trkpt lat="41.70494833" lon="-4.76478667">
        <ele>758.0</ele>
        <time>2020-07-19T10:03:08.000Z</time>
      </trkpt>
      <trkpt lat="41.70494667" lon="-4.76482667">
        <ele>758.0</ele>
        <time>2020-07-19T10:03:09.000Z</time>
      </trkpt>
      <trkpt lat="41.70494833" lon="-4.76486833">
        <ele>758.0</ele>
        <time>2020-07-19T10:03:10.000Z</time>
      </trkpt>
      <trkpt lat="41.70495" lon="-4.76491">
        <ele>757.0</ele>
        <time>2020-07-19T10:03:11.000Z</time>
      </trkpt>
      <trkpt lat="41.704955" lon="-4.76495167">
        <ele>757.0</ele>
        <time>2020-07-19T10:03:12.000Z</time>
      </trkpt>
      <trkpt lat="41.70495833" lon="-4.76499333">
        <ele>757.0</ele>
        <time>2020-07-19T10:03:13.000Z</time>
      </trkpt>
      <trkpt lat="41.70496333" lon="-4.76503333">
        <ele>757.0</ele>
        <time>2020-07-19T10:03:14.000Z</time>
      </trkpt>
      <trkpt lat="41.70496833" lon="-4.76507333">
        <ele>757.0</ele>
        <time>2020-07-19T10:03:15.000Z</time>
      </trkpt>
      <trkpt lat="41.70497667" lon="-4.76511333">
        <ele>757.0</ele>
        <time>2020-07-19T10:03:16.000Z</time>
      </trkpt>
      <trkpt lat="41.704985" lon="-4.76515">
        <ele>757.0</ele>
        <time>2020-07-19T10:03:17.000Z</time>
      </trkpt>
      <trkpt lat="41.70499333" lon="-4.76519">
        <ele>757.0</ele>
        <time>2020-07-19T10:03:18.000Z</time>
      </trkpt>
      <trkpt lat="41.70500167" lon="-4.76522833">
        <ele>757.0</ele>
        <time>2020-07-19T10:03:19.000Z</time>
      </trkpt>
      <trkpt lat="41.70501" lon="-4.76526833">
        <ele>757.0</ele>
        <time>2020-07-19T10:03:20.000Z</time>
      </trkpt>
      <trkpt lat="41.70501833" lon="-4.76530667">
        <ele>757.0</ele>
        <time>2020-07-19T10:03:21.000Z</time>
      </trkpt>
      <trkpt lat="41.705025" lon="-4.76534833">
        <ele>757.0</ele>
        <time>2020-07-19T10:03:22.000Z</time>
      </trkpt>
      <trkpt lat="41.70503333" lon="-4.76539">
        <ele>757.0</ele>
        <time>2020-07-19T10:03:23.000Z</time>
      </trkpt>
      <trkpt lat="41.70504333" lon="-4.76543">
        <ele>757.0</ele>
        <time>2020-07-19T10:03:24.000Z</time>
      </trkpt>
      <trkpt lat="41.70505333" lon="-4.76546833">
        <ele>757.0</ele>
        <time>2020-07-19T10:03:25.000Z</time>
      </trkpt>
      <trkpt lat="41.70506333" lon="-4.76550833">
        <ele>757.0</ele>
        <time>2020-07-19T10:03:26.000Z</time>
      </trkpt>
      <trkpt lat="41.70507333" lon="-4.76554667">
        <ele>757.0</ele>
        <time>2020-07-19T10:03:27.000Z</time>
      </trkpt>
      <trkpt lat="41.70509333" lon="-4.76557167">
        <ele>757.0</ele>
        <time>2020-07-19T10:03:28.000Z</time>
      </trkpt>
      <trkpt lat="41.70511833" lon="-4.76558167">
        <ele>757.0</ele>
        <time>2020-07-19T10:03:29.000Z</time>
      </trkpt>
      <trkpt lat="41.70514833" lon="-4.76558167">
        <ele>757.0</ele>
        <time>2020-07-19T10:03:30.000Z</time>
      </trkpt>
      <trkpt lat="41.70518" lon="-4.76557833">
        <ele>757.0</ele>
        <time>2020-07-19T10:03:31.000Z</time>
      </trkpt>
      <trkpt lat="41.70521167" lon="-4.76557667">
        <ele>757.0</ele>
        <time>2020-07-19T10:03:32.000Z</time>
      </trkpt>
      <trkpt lat="41.70524667" lon="-4.76557333">
        <ele>758.0</ele>
        <time>2020-07-19T10:03:33.000Z</time>
      </trkpt>
      <trkpt lat="41.70528167" lon="-4.76557">
        <ele>758.0</ele>
        <time>2020-07-19T10:03:34.000Z</time>
      </trkpt>
      <trkpt lat="41.70531667" lon="-4.76557">
        <ele>758.0</ele>
        <time>2020-07-19T10:03:35.000Z</time>
      </trkpt>
      <trkpt lat="41.70535333" lon="-4.76556833">
        <ele>758.0</ele>
        <time>2020-07-19T10:03:36.000Z</time>
      </trkpt>
      <trkpt lat="41.70539" lon="-4.76556833">
        <ele>758.0</ele>
        <time>2020-07-19T10:03:37.000Z</time>
      </trkpt>
      <trkpt lat="41.70542667" lon="-4.76556167">
        <ele>758.0</ele>
        <time>2020-07-19T10:03:38.000Z</time>
      </trkpt>
      <trkpt lat="41.705465" lon="-4.76556">
        <ele>758.0</ele>
        <time>2020-07-19T10:03:39.000Z</time>
      </trkpt>
      <trkpt lat="41.70550667" lon="-4.76555833">
        <ele>758.0</ele>
        <time>2020-07-19T10:03:40.000Z</time>
      </trkpt>
      <trkpt lat="41.705545" lon="-4.76556">
        <ele>758.0</ele>
        <time>2020-07-19T10:03:41.000Z</time>
      </trkpt>
      <trkpt lat="41.70558833" lon="-4.765555">
        <ele>757.0</ele>
        <time>2020-07-19T10:03:42.000Z</time>
      </trkpt>
      <trkpt lat="41.70563" lon="-4.765555">
        <ele>757.0</ele>
        <time>2020-07-19T10:03:43.000Z</time>
      </trkpt>
      <trkpt lat="41.70566833" lon="-4.765555">
        <ele>757.0</ele>
        <time>2020-07-19T10:03:44.000Z</time>
      </trkpt>
      <trkpt lat="41.70570167" lon="-4.76555333">
        <ele>757.0</ele>
        <time>2020-07-19T10:03:45.000Z</time>
      </trkpt>
      <trkpt lat="41.70573" lon="-4.76554833">
        <ele>757.0</ele>
        <time>2020-07-19T10:03:46.000Z</time>
      </trkpt>
      <trkpt lat="41.705755" lon="-4.76553333">
        <ele>757.0</ele>
        <time>2020-07-19T10:03:47.000Z</time>
      </trkpt>
      <trkpt lat="41.70577667" lon="-4.76550833">
        <ele>757.0</ele>
        <time>2020-07-19T10:03:48.000Z</time>
      </trkpt>
      <trkpt lat="41.70579667" lon="-4.76548">
        <ele>757.0</ele>
        <time>2020-07-19T10:03:49.000Z</time>
      </trkpt>
      <trkpt lat="41.70582167" lon="-4.76545333">
        <ele>757.0</ele>
        <time>2020-07-19T10:03:50.000Z</time>
      </trkpt>
      <trkpt lat="41.70585" lon="-4.765425">
        <ele>757.0</ele>
        <time>2020-07-19T10:03:51.000Z</time>
      </trkpt>
      <trkpt lat="41.70588333" lon="-4.76540167">
        <ele>757.0</ele>
        <time>2020-07-19T10:03:52.000Z</time>
      </trkpt>
      <trkpt lat="41.70592" lon="-4.76538">
        <ele>757.0</ele>
        <time>2020-07-19T10:03:53.000Z</time>
      </trkpt>
      <trkpt lat="41.70595667" lon="-4.76536">
        <ele>757.0</ele>
        <time>2020-07-19T10:03:54.000Z</time>
      </trkpt>
      <trkpt lat="41.705995" lon="-4.76534167">
        <ele>757.0</ele>
        <time>2020-07-19T10:03:55.000Z</time>
      </trkpt>
      <trkpt lat="41.706035" lon="-4.76532667">
        <ele>757.0</ele>
        <time>2020-07-19T10:03:56.000Z</time>
      </trkpt>
      <trkpt lat="41.70607833" lon="-4.76531333">
        <ele>757.0</ele>
        <time>2020-07-19T10:03:57.000Z</time>
      </trkpt>
      <trkpt lat="41.70612167" lon="-4.76530333">
        <ele>757.0</ele>
        <time>2020-07-19T10:03:58.000Z</time>
      </trkpt>
      <trkpt lat="41.70617" lon="-4.76529667">
        <ele>757.0</ele>
        <time>2020-07-19T10:03:59.000Z</time>
      </trkpt>
      <trkpt lat="41.70621667" lon="-4.76529333">
        <ele>757.0</ele>
        <time>2020-07-19T10:04:00.000Z</time>
      </trkpt>
      <trkpt lat="41.70626667" lon="-4.765295">
        <ele>757.0</ele>
        <time>2020-07-19T10:04:01.000Z</time>
      </trkpt>
      <trkpt lat="41.70631833" lon="-4.7653">
        <ele>757.0</ele>
        <time>2020-07-19T10:04:02.000Z</time>
      </trkpt>
      <trkpt lat="41.70637" lon="-4.76530167">
        <ele>757.0</ele>
        <time>2020-07-19T10:04:03.000Z</time>
      </trkpt>
      <trkpt lat="41.70641833" lon="-4.76530167">
        <ele>757.0</ele>
        <time>2020-07-19T10:04:04.000Z</time>
      </trkpt>
      <trkpt lat="41.706465" lon="-4.76530333">
        <ele>756.0</ele>
        <time>2020-07-19T10:04:05.000Z</time>
      </trkpt>
      <trkpt lat="41.70650833" lon="-4.76530667">
        <ele>756.0</ele>
        <time>2020-07-19T10:04:06.000Z</time>
      </trkpt>
      <trkpt lat="41.70654667" lon="-4.76530667">
        <ele>756.0</ele>
        <time>2020-07-19T10:04:07.000Z</time>
      </trkpt>
      <trkpt lat="41.70657667" lon="-4.765305">
        <ele>756.0</ele>
        <time>2020-07-19T10:04:08.000Z</time>
      </trkpt>
      <trkpt lat="41.70660333" lon="-4.76530167">
        <ele>756.0</ele>
        <time>2020-07-19T10:04:09.000Z</time>
      </trkpt>
      <trkpt lat="41.70662667" lon="-4.76529833">
        <ele>756.0</ele>
        <time>2020-07-19T10:04:10.000Z</time>
      </trkpt>
      <trkpt lat="41.70663667" lon="-4.76530333">
        <ele>756.0</ele>
        <time>2020-07-19T10:04:11.000Z</time>
      </trkpt>
      <trkpt lat="41.70664" lon="-4.76531333">
        <ele>756.0</ele>
        <time>2020-07-19T10:04:12.000Z</time>
      </trkpt>
      <trkpt lat="41.70664" lon="-4.76533">
        <ele>756.0</ele>
        <time>2020-07-19T10:04:13.000Z</time>
      </trkpt>
      <trkpt lat="41.70664" lon="-4.76535167">
        <ele>756.0</ele>
        <time>2020-07-19T10:04:14.000Z</time>
      </trkpt>
      <trkpt lat="41.70663833" lon="-4.76538">
        <ele>756.0</ele>
        <time>2020-07-19T10:04:15.000Z</time>
      </trkpt>
      <trkpt lat="41.706635" lon="-4.76540667">
        <ele>756.0</ele>
        <time>2020-07-19T10:04:16.000Z</time>
      </trkpt>
      <trkpt lat="41.70662667" lon="-4.765445">
        <ele>756.0</ele>
        <time>2020-07-19T10:04:17.000Z</time>
      </trkpt>
      <trkpt lat="41.70662" lon="-4.76549167">
        <ele>756.0</ele>
        <time>2020-07-19T10:04:18.000Z</time>
      </trkpt>
      <trkpt lat="41.70661167" lon="-4.76554167">
        <ele>756.0</ele>
        <time>2020-07-19T10:04:19.000Z</time>
      </trkpt>
      <trkpt lat="41.706605" lon="-4.76559333">
        <ele>756.0</ele>
        <time>2020-07-19T10:04:20.000Z</time>
      </trkpt>
      <trkpt lat="41.70659667" lon="-4.765645">
        <ele>756.0</ele>
        <time>2020-07-19T10:04:21.000Z</time>
      </trkpt>
      <trkpt lat="41.70658833" lon="-4.76569833">
        <ele>756.0</ele>
        <time>2020-07-19T10:04:22.000Z</time>
      </trkpt>
      <trkpt lat="41.70658" lon="-4.76575167">
        <ele>756.0</ele>
        <time>2020-07-19T10:04:23.000Z</time>
      </trkpt>
      <trkpt lat="41.70657167" lon="-4.765805">
        <ele>756.0</ele>
        <time>2020-07-19T10:04:24.000Z</time>
      </trkpt>
      <trkpt lat="41.706565" lon="-4.76585833">
        <ele>757.0</ele>
        <time>2020-07-19T10:04:25.000Z</time>
      </trkpt>
      <trkpt lat="41.70656" lon="-4.76591">
        <ele>757.0</ele>
        <time>2020-07-19T10:04:26.000Z</time>
      </trkpt>
      <trkpt lat="41.70655333" lon="-4.76596">
        <ele>757.0</ele>
        <time>2020-07-19T10:04:27.000Z</time>
      </trkpt>
      <trkpt lat="41.70654833" lon="-4.76600833">
        <ele>757.0</ele>
        <time>2020-07-19T10:04:28.000Z</time>
      </trkpt>
      <trkpt lat="41.706545" lon="-4.76605667">
        <ele>757.0</ele>
        <time>2020-07-19T10:04:29.000Z</time>
      </trkpt>
      <trkpt lat="41.70654167" lon="-4.76610333">
        <ele>757.0</ele>
        <time>2020-07-19T10:04:30.000Z</time>
      </trkpt>
      <trkpt lat="41.70654" lon="-4.76615">
        <ele>757.0</ele>
        <time>2020-07-19T10:04:31.000Z</time>
      </trkpt>
      <trkpt lat="41.70654167" lon="-4.76619667">
        <ele>757.0</ele>
        <time>2020-07-19T10:04:32.000Z</time>
      </trkpt>
      <trkpt lat="41.70654167" lon="-4.76624167">
        <ele>757.0</ele>
        <time>2020-07-19T10:04:33.000Z</time>
      </trkpt>
      <trkpt lat="41.70654333" lon="-4.76628833">
        <ele>757.0</ele>
        <time>2020-07-19T10:04:34.000Z</time>
      </trkpt>
      <trkpt lat="41.70654667" lon="-4.76633">
        <ele>757.0</ele>
        <time>2020-07-19T10:04:35.000Z</time>
      </trkpt>
      <trkpt lat="41.70654833" lon="-4.76637167">
        <ele>757.0</ele>
        <time>2020-07-19T10:04:36.000Z</time>
      </trkpt>
      <trkpt lat="41.70655" lon="-4.76641333">
        <ele>757.0</ele>
        <time>2020-07-19T10:04:37.000Z</time>
      </trkpt>
      <trkpt lat="41.70654833" lon="-4.766455">
        <ele>757.0</ele>
        <time>2020-07-19T10:04:38.000Z</time>
      </trkpt>
      <trkpt lat="41.70654333" lon="-4.766495">
        <ele>757.0</ele>
        <time>2020-07-19T10:04:39.000Z</time>
      </trkpt>
      <trkpt lat="41.70653833" lon="-4.76653333">
        <ele>757.0</ele>
        <time>2020-07-19T10:04:40.000Z</time>
      </trkpt>
      <trkpt lat="41.70653167" lon="-4.76657">
        <ele>757.0</ele>
        <time>2020-07-19T10:04:41.000Z</time>
      </trkpt>
      <trkpt lat="41.706525" lon="-4.76660333">
        <ele>757.0</ele>
        <time>2020-07-19T10:04:42.000Z</time>
      </trkpt>
      <trkpt lat="41.70651667" lon="-4.766635">
        <ele>757.0</ele>
        <time>2020-07-19T10:04:43.000Z</time>
      </trkpt>
      <trkpt lat="41.70650333" lon="-4.76666333">
        <ele>757.0</ele>
        <time>2020-07-19T10:04:44.000Z</time>
      </trkpt>
      <trkpt lat="41.70648667" lon="-4.76668333">
        <ele>757.0</ele>
        <time>2020-07-19T10:04:45.000Z</time>
      </trkpt>
      <trkpt lat="41.70647" lon="-4.76669167">
        <ele>757.0</ele>
        <time>2020-07-19T10:04:46.000Z</time>
      </trkpt>
      <trkpt lat="41.706455" lon="-4.76669167">
        <ele>757.0</ele>
        <time>2020-07-19T10:04:47.000Z</time>
      </trkpt>
      <trkpt lat="41.70644167" lon="-4.76669333">
        <ele>757.0</ele>
        <time>2020-07-19T10:04:48.000Z</time>
      </trkpt>
      <trkpt lat="41.70643667" lon="-4.76669333">
        <ele>757.0</ele>
        <time>2020-07-19T10:04:49.000Z</time>
      </trkpt>
      <trkpt lat="41.70643667" lon="-4.766695">
        <ele>757.0</ele>
        <time>2020-07-19T10:04:50.000Z</time>
      </trkpt>
      <trkpt lat="41.70650833" lon="-4.76668833">
        <ele>756.0</ele>
        <time>2020-07-19T10:06:47.031Z</time>
      </trkpt>
      <trkpt lat="41.70651167" lon="-4.76666333">
        <ele>756.0</ele>
        <time>2020-07-19T10:06:48.031Z</time>
      </trkpt>
      <trkpt lat="41.70651167" lon="-4.766635">
        <ele>756.0</ele>
        <time>2020-07-19T10:06:49.031Z</time>
      </trkpt>
      <trkpt lat="41.70651" lon="-4.76660333">
        <ele>756.0</ele>
        <time>2020-07-19T10:06:50.031Z</time>
      </trkpt>
      <trkpt lat="41.70651333" lon="-4.76656333">
        <ele>756.0</ele>
        <time>2020-07-19T10:06:51.031Z</time>
      </trkpt>
      <trkpt lat="41.70651333" lon="-4.76652">
        <ele>756.0</ele>
        <time>2020-07-19T10:06:52.031Z</time>
      </trkpt>
      <trkpt lat="41.706515" lon="-4.766475">
        <ele>756.0</ele>
        <time>2020-07-19T10:06:53.031Z</time>
      </trkpt>
      <trkpt lat="41.70651667" lon="-4.76642667">
        <ele>756.0</ele>
        <time>2020-07-19T10:06:54.031Z</time>
      </trkpt>
      <trkpt lat="41.70651333" lon="-4.76637667">
        <ele>756.0</ele>
        <time>2020-07-19T10:06:55.031Z</time>
      </trkpt>
      <trkpt lat="41.70650833" lon="-4.766325">
        <ele>756.0</ele>
        <time>2020-07-19T10:06:56.031Z</time>
      </trkpt>
      <trkpt lat="41.70650667" lon="-4.76627167">
        <ele>756.0</ele>
        <time>2020-07-19T10:06:57.031Z</time>
      </trkpt>
      <trkpt lat="41.70650833" lon="-4.76621833">
        <ele>756.0</ele>
        <time>2020-07-19T10:06:58.031Z</time>
      </trkpt>
      <trkpt lat="41.70650833" lon="-4.76616333">
        <ele>756.0</ele>
        <time>2020-07-19T10:06:59.031Z</time>
      </trkpt>
      <trkpt lat="41.70651" lon="-4.76610833">
        <ele>756.0</ele>
        <time>2020-07-19T10:07:00.031Z</time>
      </trkpt>
      <trkpt lat="41.70651167" lon="-4.76605333">
        <ele>756.0</ele>
        <time>2020-07-19T10:07:01.031Z</time>
      </trkpt>
      <trkpt lat="41.70651667" lon="-4.76599667">
        <ele>756.0</ele>
        <time>2020-07-19T10:07:02.031Z</time>
      </trkpt>
      <trkpt lat="41.70652333" lon="-4.76593833">
        <ele>756.0</ele>
        <time>2020-07-19T10:07:03.031Z</time>
      </trkpt>
      <trkpt lat="41.70653167" lon="-4.76587667">
        <ele>756.0</ele>
        <time>2020-07-19T10:07:04.031Z</time>
      </trkpt>
      <trkpt lat="41.70654" lon="-4.76581667">
        <ele>756.0</ele>
        <time>2020-07-19T10:07:05.031Z</time>
      </trkpt>
      <trkpt lat="41.70654833" lon="-4.76575333">
        <ele>756.0</ele>
        <time>2020-07-19T10:07:06.031Z</time>
      </trkpt>
      <trkpt lat="41.70656" lon="-4.76569">
        <ele>756.0</ele>
        <time>2020-07-19T10:07:07.031Z</time>
      </trkpt>
      <trkpt lat="41.70657" lon="-4.765625">
        <ele>756.0</ele>
        <time>2020-07-19T10:07:08.031Z</time>
      </trkpt>
      <trkpt lat="41.70658333" lon="-4.76556167">
        <ele>756.0</ele>
        <time>2020-07-19T10:07:09.031Z</time>
      </trkpt>
      <trkpt lat="41.70659333" lon="-4.76550333">
        <ele>756.0</ele>
        <time>2020-07-19T10:07:10.031Z</time>
      </trkpt>
      <trkpt lat="41.70660167" lon="-4.76545333">
        <ele>756.0</ele>
        <time>2020-07-19T10:07:11.031Z</time>
      </trkpt>
      <trkpt lat="41.70661" lon="-4.76540833">
        <ele>756.0</ele>
        <time>2020-07-19T10:07:12.031Z</time>
      </trkpt>
      <trkpt lat="41.70661667" lon="-4.76537">
        <ele>756.0</ele>
        <time>2020-07-19T10:07:13.031Z</time>
      </trkpt>
      <trkpt lat="41.70661667" lon="-4.76533667">
        <ele>756.0</ele>
        <time>2020-07-19T10:07:14.031Z</time>
      </trkpt>
      <trkpt lat="41.70660333" lon="-4.765305">
        <ele>756.0</ele>
        <time>2020-07-19T10:07:15.031Z</time>
      </trkpt>
      <trkpt lat="41.70658167" lon="-4.765285">
        <ele>756.0</ele>
        <time>2020-07-19T10:07:16.031Z</time>
      </trkpt>
      <trkpt lat="41.70655333" lon="-4.76528167">
        <ele>756.0</ele>
        <time>2020-07-19T10:07:17.031Z</time>
      </trkpt>
      <trkpt lat="41.70652333" lon="-4.76528167">
        <ele>756.0</ele>
        <time>2020-07-19T10:07:18.031Z</time>
      </trkpt>
      <trkpt lat="41.706495" lon="-4.76528">
        <ele>756.0</ele>
        <time>2020-07-19T10:07:19.031Z</time>
      </trkpt>
      <trkpt lat="41.70646667" lon="-4.76527833">
        <ele>756.0</ele>
        <time>2020-07-19T10:07:20.031Z</time>
      </trkpt>
      <trkpt lat="41.70643667" lon="-4.76527833">
        <ele>756.0</ele>
        <time>2020-07-19T10:07:21.031Z</time>
      </trkpt>
      <trkpt lat="41.70641" lon="-4.76528">
        <ele>756.0</ele>
        <time>2020-07-19T10:07:22.031Z</time>
      </trkpt>
      <trkpt lat="41.70638333" lon="-4.76528667">
        <ele>756.0</ele>
        <time>2020-07-19T10:07:23.031Z</time>
      </trkpt>
      <trkpt lat="41.70635167" lon="-4.76528333">
        <ele>756.0</ele>
        <time>2020-07-19T10:07:24.031Z</time>
      </trkpt>
      <trkpt lat="41.70631667" lon="-4.76528">
        <ele>755.0</ele>
        <time>2020-07-19T10:07:25.031Z</time>
      </trkpt>
      <trkpt lat="41.706285" lon="-4.76528167">
        <ele>755.0</ele>
        <time>2020-07-19T10:07:26.031Z</time>
      </trkpt>
      <trkpt lat="41.70625333" lon="-4.76528">
        <ele>755.0</ele>
        <time>2020-07-19T10:07:27.031Z</time>
      </trkpt>
      <trkpt lat="41.70622167" lon="-4.76527667">
        <ele>755.0</ele>
        <time>2020-07-19T10:07:28.031Z</time>
      </trkpt>
      <trkpt lat="41.70619" lon="-4.76528167">
        <ele>755.0</ele>
        <time>2020-07-19T10:07:29.031Z</time>
      </trkpt>
      <trkpt lat="41.70615833" lon="-4.765285">
        <ele>755.0</ele>
        <time>2020-07-19T10:07:30.031Z</time>
      </trkpt>
      <trkpt lat="41.70612833" lon="-4.76528833">
        <ele>755.0</ele>
        <time>2020-07-19T10:07:31.031Z</time>
      </trkpt>
      <trkpt lat="41.70609833" lon="-4.76529333">
        <ele>755.0</ele>
        <time>2020-07-19T10:07:32.031Z</time>
      </trkpt>
      <trkpt lat="41.70606833" lon="-4.7653">
        <ele>755.0</ele>
        <time>2020-07-19T10:07:33.031Z</time>
      </trkpt>
      <trkpt lat="41.70603833" lon="-4.76530833">
        <ele>755.0</ele>
        <time>2020-07-19T10:07:34.031Z</time>
      </trkpt>
      <trkpt lat="41.70601" lon="-4.76531667">
        <ele>755.0</ele>
        <time>2020-07-19T10:07:35.031Z</time>
      </trkpt>
      <trkpt lat="41.70598167" lon="-4.76532833">
        <ele>755.0</ele>
        <time>2020-07-19T10:07:36.031Z</time>
      </trkpt>
      <trkpt lat="41.70595333" lon="-4.76534">
        <ele>755.0</ele>
        <time>2020-07-19T10:07:37.031Z</time>
      </trkpt>
      <trkpt lat="41.70592667" lon="-4.76535333">
        <ele>755.0</ele>
        <time>2020-07-19T10:07:38.031Z</time>
      </trkpt>
      <trkpt lat="41.70590167" lon="-4.76536667">
        <ele>756.0</ele>
        <time>2020-07-19T10:07:39.031Z</time>
      </trkpt>
      <trkpt lat="41.70587833" lon="-4.765385">
        <ele>756.0</ele>
        <time>2020-07-19T10:07:40.031Z</time>
      </trkpt>
      <trkpt lat="41.70585333" lon="-4.76540333">
        <ele>756.0</ele>
        <time>2020-07-19T10:07:41.031Z</time>
      </trkpt>
      <trkpt lat="41.70583333" lon="-4.765425">
        <ele>756.0</ele>
        <time>2020-07-19T10:07:42.031Z</time>
      </trkpt>
      <trkpt lat="41.70581333" lon="-4.76544667">
        <ele>756.0</ele>
        <time>2020-07-19T10:07:43.031Z</time>
      </trkpt>
      <trkpt lat="41.705795" lon="-4.76547167">
        <ele>756.0</ele>
        <time>2020-07-19T10:07:44.031Z</time>
      </trkpt>
      <trkpt lat="41.70578" lon="-4.76549833">
        <ele>756.0</ele>
        <time>2020-07-19T10:07:45.031Z</time>
      </trkpt>
      <trkpt lat="41.70575833" lon="-4.76552167">
        <ele>756.0</ele>
        <time>2020-07-19T10:07:46.031Z</time>
      </trkpt>
      <trkpt lat="41.70573333" lon="-4.76553667">
        <ele>756.0</ele>
        <time>2020-07-19T10:07:47.031Z</time>
      </trkpt>
      <trkpt lat="41.705705" lon="-4.765545">
        <ele>756.0</ele>
        <time>2020-07-19T10:07:48.031Z</time>
      </trkpt>
      <trkpt lat="41.70567333" lon="-4.76554833">
        <ele>756.0</ele>
        <time>2020-07-19T10:07:49.031Z</time>
      </trkpt>
      <trkpt lat="41.70564333" lon="-4.76555">
        <ele>756.0</ele>
        <time>2020-07-19T10:07:50.031Z</time>
      </trkpt>
      <trkpt lat="41.70561167" lon="-4.76555">
        <ele>756.0</ele>
        <time>2020-07-19T10:07:51.031Z</time>
      </trkpt>
      <trkpt lat="41.70558333" lon="-4.76554833">
        <ele>756.0</ele>
        <time>2020-07-19T10:07:52.031Z</time>
      </trkpt>
      <trkpt lat="41.70555333" lon="-4.76555">
        <ele>756.0</ele>
        <time>2020-07-19T10:07:53.031Z</time>
      </trkpt>
      <trkpt lat="41.70552167" lon="-4.76554833">
        <ele>756.0</ele>
        <time>2020-07-19T10:07:54.031Z</time>
      </trkpt>
      <trkpt lat="41.70549167" lon="-4.76555">
        <ele>756.0</ele>
        <time>2020-07-19T10:07:55.031Z</time>
      </trkpt>
      <trkpt lat="41.70546167" lon="-4.76555167">
        <ele>756.0</ele>
        <time>2020-07-19T10:07:56.031Z</time>
      </trkpt>
      <trkpt lat="41.70543333" lon="-4.765555">
        <ele>756.0</ele>
        <time>2020-07-19T10:07:57.031Z</time>
      </trkpt>
      <trkpt lat="41.70540167" lon="-4.76555667">
        <ele>756.0</ele>
        <time>2020-07-19T10:07:58.031Z</time>
      </trkpt>
      <trkpt lat="41.70537167" lon="-4.76555833">
        <ele>756.0</ele>
        <time>2020-07-19T10:07:59.031Z</time>
      </trkpt>
      <trkpt lat="41.70534" lon="-4.76555833">
        <ele>756.0</ele>
        <time>2020-07-19T10:08:00.031Z</time>
      </trkpt>
      <trkpt lat="41.70531" lon="-4.76556">
        <ele>756.0</ele>
        <time>2020-07-19T10:08:01.031Z</time>
      </trkpt>
      <trkpt lat="41.70527833" lon="-4.76555833">
        <ele>756.0</ele>
        <time>2020-07-19T10:08:02.031Z</time>
      </trkpt>
      <trkpt lat="41.70524667" lon="-4.76555833">
        <ele>756.0</ele>
        <time>2020-07-19T10:08:03.031Z</time>
      </trkpt>
      <trkpt lat="41.70521667" lon="-4.76555833">
        <ele>756.0</ele>
        <time>2020-07-19T10:08:04.031Z</time>
      </trkpt>
      <trkpt lat="41.70518667" lon="-4.76556">
        <ele>756.0</ele>
        <time>2020-07-19T10:08:05.031Z</time>
      </trkpt>
      <trkpt lat="41.70516" lon="-4.76555833">
        <ele>756.0</ele>
        <time>2020-07-19T10:08:06.031Z</time>
      </trkpt>
      <trkpt lat="41.70513667" lon="-4.765555">
        <ele>756.0</ele>
        <time>2020-07-19T10:08:07.031Z</time>
      </trkpt>
      <trkpt lat="41.705115" lon="-4.76555">
        <ele>755.0</ele>
        <time>2020-07-19T10:08:08.031Z</time>
      </trkpt>
      <trkpt lat="41.70509167" lon="-4.76554">
        <ele>755.0</ele>
        <time>2020-07-19T10:08:09.031Z</time>
      </trkpt>
      <trkpt lat="41.70506833" lon="-4.76552167">
        <ele>755.0</ele>
        <time>2020-07-19T10:08:10.031Z</time>
      </trkpt>
      <trkpt lat="41.70504833" lon="-4.76549333">
        <ele>755.0</ele>
        <time>2020-07-19T10:08:11.031Z</time>
      </trkpt>
      <trkpt lat="41.70503" lon="-4.76545833">
        <ele>755.0</ele>
        <time>2020-07-19T10:08:12.031Z</time>
      </trkpt>
      <trkpt lat="41.70501167" lon="-4.76541833">
        <ele>755.0</ele>
        <time>2020-07-19T10:08:13.031Z</time>
      </trkpt>
      <trkpt lat="41.70499667" lon="-4.765375">
        <ele>755.0</ele>
        <time>2020-07-19T10:08:14.031Z</time>
      </trkpt>
      <trkpt lat="41.70498333" lon="-4.76532667">
        <ele>755.0</ele>
        <time>2020-07-19T10:08:15.031Z</time>
      </trkpt>
      <trkpt lat="41.70497333" lon="-4.76527667">
        <ele>755.0</ele>
        <time>2020-07-19T10:08:16.031Z</time>
      </trkpt>
      <trkpt lat="41.70496333" lon="-4.76522667">
        <ele>755.0</ele>
        <time>2020-07-19T10:08:17.031Z</time>
      </trkpt>
      <trkpt lat="41.70495667" lon="-4.765175">
        <ele>755.0</ele>
        <time>2020-07-19T10:08:18.031Z</time>
      </trkpt>
      <trkpt lat="41.70494667" lon="-4.765125">
        <ele>755.0</ele>
        <time>2020-07-19T10:08:19.031Z</time>
      </trkpt>
      <trkpt lat="41.70493833" lon="-4.76507333">
        <ele>755.0</ele>
        <time>2020-07-19T10:08:20.031Z</time>
      </trkpt>
      <trkpt lat="41.70493167" lon="-4.76502">
        <ele>755.0</ele>
        <time>2020-07-19T10:08:21.031Z</time>
      </trkpt>
      <trkpt lat="41.704925" lon="-4.76496667">
        <ele>755.0</ele>
        <time>2020-07-19T10:08:22.031Z</time>
      </trkpt>
      <trkpt lat="41.70492167" lon="-4.764915">
        <ele>754.0</ele>
        <time>2020-07-19T10:08:23.031Z</time>
      </trkpt>
      <trkpt lat="41.70491667" lon="-4.76486167">
        <ele>754.0</ele>
        <time>2020-07-19T10:08:24.031Z</time>
      </trkpt>
      <trkpt lat="41.70491333" lon="-4.76480833">
        <ele>754.0</ele>
        <time>2020-07-19T10:08:25.031Z</time>
      </trkpt>
      <trkpt lat="41.70491333" lon="-4.76475333">
        <ele>754.0</ele>
        <time>2020-07-19T10:08:26.031Z</time>
      </trkpt>
      <trkpt lat="41.70491333" lon="-4.7647">
        <ele>754.0</ele>
        <time>2020-07-19T10:08:27.031Z</time>
      </trkpt>
      <trkpt lat="41.70491333" lon="-4.764645">
        <ele>754.0</ele>
        <time>2020-07-19T10:08:28.031Z</time>
      </trkpt>
      <trkpt lat="41.70491333" lon="-4.76459">
        <ele>754.0</ele>
        <time>2020-07-19T10:08:29.031Z</time>
      </trkpt>
      <trkpt lat="41.70491333" lon="-4.76453667">
        <ele>754.0</ele>
        <time>2020-07-19T10:08:30.031Z</time>
      </trkpt>
      <trkpt lat="41.70490333" lon="-4.76448333">
        <ele>754.0</ele>
        <time>2020-07-19T10:08:31.031Z</time>
      </trkpt>
      <trkpt lat="41.70488333" lon="-4.76444167">
        <ele>754.0</ele>
        <time>2020-07-19T10:08:32.031Z</time>
      </trkpt>
      <trkpt lat="41.70485" lon="-4.76441333">
        <ele>754.0</ele>
        <time>2020-07-19T10:08:33.031Z</time>
      </trkpt>
      <trkpt lat="41.70481167" lon="-4.76440167">
        <ele>754.0</ele>
        <time>2020-07-19T10:08:34.031Z</time>
      </trkpt>
      <trkpt lat="41.70477333" lon="-4.764395">
        <ele>754.0</ele>
        <time>2020-07-19T10:08:35.031Z</time>
      </trkpt>
      <trkpt lat="41.70473667" lon="-4.76438667">
        <ele>754.0</ele>
        <time>2020-07-19T10:08:36.031Z</time>
      </trkpt>
      <trkpt lat="41.704705" lon="-4.764375">
        <ele>754.0</ele>
        <time>2020-07-19T10:08:37.031Z</time>
      </trkpt>
      <trkpt lat="41.70468" lon="-4.76435667">
        <ele>754.0</ele>
        <time>2020-07-19T10:08:38.031Z</time>
      </trkpt>
      <trkpt lat="41.70465833" lon="-4.76434667">
        <ele>754.0</ele>
        <time>2020-07-19T10:08:39.031Z</time>
      </trkpt>
      <trkpt lat="41.70464667" lon="-4.76434333">
        <ele>754.0</ele>
        <time>2020-07-19T10:08:40.031Z</time>
      </trkpt>
      <trkpt lat="41.70464667" lon="-4.76434167">
        <ele>755.0</ele>
        <time>2020-07-19T10:08:41.031Z</time>
      </trkpt>
      <trkpt lat="41.704645" lon="-4.76434167">
        <ele>755.0</ele>
        <time>2020-07-19T10:08:42.031Z</time>
      </trkpt>
      <trkpt lat="41.70464333" lon="-4.76434167">
        <ele>755.0</ele>
        <time>2020-07-19T10:08:43.031Z</time>
      </trkpt>
      <trkpt lat="41.70446167" lon="-4.76446333">
        <ele>760.0</ele>
        <time>2020-07-19T10:10:21.453Z</time>
      </trkpt>
      <trkpt lat="41.70444" lon="-4.764455">
        <ele>761.0</ele>
        <time>2020-07-19T10:10:22.453Z</time>
      </trkpt>
      <trkpt lat="41.70442" lon="-4.76444833">
        <ele>761.0</ele>
        <time>2020-07-19T10:10:23.453Z</time>
      </trkpt>
      <trkpt lat="41.7044" lon="-4.764445">
        <ele>761.0</ele>
        <time>2020-07-19T10:10:24.453Z</time>
      </trkpt>
      <trkpt lat="41.704385" lon="-4.76444333">
        <ele>761.0</ele>
        <time>2020-07-19T10:10:25.453Z</time>
      </trkpt>
      <trkpt lat="41.70436833" lon="-4.76444333">
        <ele>761.0</ele>
        <time>2020-07-19T10:10:26.453Z</time>
      </trkpt>
      <trkpt lat="41.70435" lon="-4.76444167">
        <ele>761.0</ele>
        <time>2020-07-19T10:10:27.453Z</time>
      </trkpt>
      <trkpt lat="41.70432833" lon="-4.764435">
        <ele>761.0</ele>
        <time>2020-07-19T10:10:28.453Z</time>
      </trkpt>
      <trkpt lat="41.704305" lon="-4.76443">
        <ele>761.0</ele>
        <time>2020-07-19T10:10:29.453Z</time>
      </trkpt>
      <trkpt lat="41.70428167" lon="-4.76442167">
        <ele>762.0</ele>
        <time>2020-07-19T10:10:30.453Z</time>
      </trkpt>
      <trkpt lat="41.70426" lon="-4.764415">
        <ele>762.0</ele>
        <time>2020-07-19T10:10:31.453Z</time>
      </trkpt>
      <trkpt lat="41.70424" lon="-4.76441">
        <ele>762.0</ele>
        <time>2020-07-19T10:10:32.453Z</time>
      </trkpt>
      <trkpt lat="41.70422167" lon="-4.764405">
        <ele>762.0</ele>
        <time>2020-07-19T10:10:33.453Z</time>
      </trkpt>
      <trkpt lat="41.704205" lon="-4.76439833">
        <ele>762.0</ele>
        <time>2020-07-19T10:10:34.453Z</time>
      </trkpt>
      <trkpt lat="41.70417667" lon="-4.76439333">
        <ele>762.0</ele>
        <time>2020-07-19T10:10:35.453Z</time>
      </trkpt>
      <trkpt lat="41.70414667" lon="-4.76438">
        <ele>762.0</ele>
        <time>2020-07-19T10:10:36.453Z</time>
      </trkpt>
      <trkpt lat="41.70411667" lon="-4.76437333">
        <ele>761.0</ele>
        <time>2020-07-19T10:10:37.453Z</time>
      </trkpt>
      <trkpt lat="41.70409" lon="-4.76437167">
        <ele>761.0</ele>
        <time>2020-07-19T10:10:38.453Z</time>
      </trkpt>
      <trkpt lat="41.70406167" lon="-4.76437">
        <ele>761.0</ele>
        <time>2020-07-19T10:10:39.453Z</time>
      </trkpt>
      <trkpt lat="41.70403333" lon="-4.76436833">
        <ele>761.0</ele>
        <time>2020-07-19T10:10:40.453Z</time>
      </trkpt>
      <trkpt lat="41.70401" lon="-4.76436833">
        <ele>761.0</ele>
        <time>2020-07-19T10:10:41.453Z</time>
      </trkpt>
      <trkpt lat="41.70398667" lon="-4.76436667">
        <ele>761.0</ele>
        <time>2020-07-19T10:10:42.453Z</time>
      </trkpt>
      <trkpt lat="41.70397333" lon="-4.764365">
        <ele>761.0</ele>
        <time>2020-07-19T10:10:43.453Z</time>
      </trkpt>
      <trkpt lat="41.70397167" lon="-4.76436167">
        <ele>761.0</ele>
        <time>2020-07-19T10:10:44.453Z</time>
      </trkpt>
      <trkpt lat="41.70397167" lon="-4.76436">
        <ele>761.0</ele>
        <time>2020-07-19T10:10:45.453Z</time>
      </trkpt>
      <trkpt lat="41.70397" lon="-4.76435833">
        <ele>761.0</ele>
        <time>2020-07-19T10:10:46.453Z</time>
      </trkpt>
      <trkpt lat="41.70397" lon="-4.76435667">
        <ele>761.0</ele>
        <time>2020-07-19T10:10:47.453Z</time>
      </trkpt>
      <trkpt lat="41.70397" lon="-4.764355">
        <ele>761.0</ele>
        <time>2020-07-19T10:10:48.453Z</time>
      </trkpt>
      <trkpt lat="41.70396833" lon="-4.76435333">
        <ele>761.0</ele>
        <time>2020-07-19T10:10:49.453Z</time>
      </trkpt>
      <trkpt lat="41.70396833" lon="-4.76435167">
        <ele>761.0</ele>
        <time>2020-07-19T10:10:50.453Z</time>
      </trkpt>
      <trkpt lat="41.70396333" lon="-4.76435">
        <ele>761.0</ele>
        <time>2020-07-19T10:10:51.453Z</time>
      </trkpt>
      <trkpt lat="41.70394833" lon="-4.76434833">
        <ele>760.0</ele>
        <time>2020-07-19T10:10:52.453Z</time>
      </trkpt>
      <trkpt lat="41.70393167" lon="-4.764345">
        <ele>760.0</ele>
        <time>2020-07-19T10:10:53.453Z</time>
      </trkpt>
      <trkpt lat="41.70391333" lon="-4.76434">
        <ele>760.0</ele>
        <time>2020-07-19T10:10:54.453Z</time>
      </trkpt>
      <trkpt lat="41.70389167" lon="-4.76433833">
        <ele>760.0</ele>
        <time>2020-07-19T10:10:55.453Z</time>
      </trkpt>
      <trkpt lat="41.70387167" lon="-4.76433667">
        <ele>760.0</ele>
        <time>2020-07-19T10:10:56.453Z</time>
      </trkpt>
      <trkpt lat="41.70385" lon="-4.764335">
        <ele>760.0</ele>
        <time>2020-07-19T10:10:57.453Z</time>
      </trkpt>
      <trkpt lat="41.70382833" lon="-4.76433167">
        <ele>760.0</ele>
        <time>2020-07-19T10:10:58.453Z</time>
      </trkpt>
      <trkpt lat="41.703805" lon="-4.76432833">
        <ele>760.0</ele>
        <time>2020-07-19T10:10:59.453Z</time>
      </trkpt>
      <trkpt lat="41.703785" lon="-4.764325">
        <ele>760.0</ele>
        <time>2020-07-19T10:11:00.453Z</time>
      </trkpt>
      <trkpt lat="41.70376333" lon="-4.76431833">
        <ele>760.0</ele>
        <time>2020-07-19T10:11:01.453Z</time>
      </trkpt>
      <trkpt lat="41.70374167" lon="-4.76431333">
        <ele>760.0</ele>
        <time>2020-07-19T10:11:02.453Z</time>
      </trkpt>
      <trkpt lat="41.70372" lon="-4.76430833">
        <ele>760.0</ele>
        <time>2020-07-19T10:11:03.453Z</time>
      </trkpt>
      <trkpt lat="41.7037" lon="-4.7643">
        <ele>760.0</ele>
        <time>2020-07-19T10:11:04.453Z</time>
      </trkpt>
      <trkpt lat="41.703675" lon="-4.76428833">
        <ele>760.0</ele>
        <time>2020-07-19T10:11:05.453Z</time>
      </trkpt>
      <trkpt lat="41.70364667" lon="-4.764275">
        <ele>760.0</ele>
        <time>2020-07-19T10:11:06.453Z</time>
      </trkpt>
      <trkpt lat="41.70361833" lon="-4.76426">
        <ele>760.0</ele>
        <time>2020-07-19T10:11:07.453Z</time>
      </trkpt>
      <trkpt lat="41.70359167" lon="-4.76423833">
        <ele>760.0</ele>
        <time>2020-07-19T10:11:08.453Z</time>
      </trkpt>
      <trkpt lat="41.703565" lon="-4.76422">
        <ele>760.0</ele>
        <time>2020-07-19T10:11:09.453Z</time>
      </trkpt>
      <trkpt lat="41.70353833" lon="-4.76420167">
        <ele>760.0</ele>
        <time>2020-07-19T10:11:10.453Z</time>
      </trkpt>
      <trkpt lat="41.70351167" lon="-4.764185">
        <ele>760.0</ele>
        <time>2020-07-19T10:11:11.453Z</time>
      </trkpt>
      <trkpt lat="41.70348667" lon="-4.76416833">
        <ele>760.0</ele>
        <time>2020-07-19T10:11:12.453Z</time>
      </trkpt>
      <trkpt lat="41.70346333" lon="-4.76414833">
        <ele>760.0</ele>
        <time>2020-07-19T10:11:13.453Z</time>
      </trkpt>
      <trkpt lat="41.70344" lon="-4.76413167">
        <ele>760.0</ele>
        <time>2020-07-19T10:11:14.453Z</time>
      </trkpt>
      <trkpt lat="41.703415" lon="-4.764115">
        <ele>760.0</ele>
        <time>2020-07-19T10:11:15.453Z</time>
      </trkpt>
      <trkpt lat="41.70338833" lon="-4.76410167">
        <ele>760.0</ele>
        <time>2020-07-19T10:11:16.453Z</time>
      </trkpt>
      <trkpt lat="41.70336667" lon="-4.76409167">
        <ele>760.0</ele>
        <time>2020-07-19T10:11:17.453Z</time>
      </trkpt>
      <trkpt lat="41.70334167" lon="-4.76407833">
        <ele>760.0</ele>
        <time>2020-07-19T10:11:18.453Z</time>
      </trkpt>
      <trkpt lat="41.70331667" lon="-4.76406167">
        <ele>760.0</ele>
        <time>2020-07-19T10:11:19.453Z</time>
      </trkpt>
      <trkpt lat="41.70329333" lon="-4.764045">
        <ele>760.0</ele>
        <time>2020-07-19T10:11:20.453Z</time>
      </trkpt>
      <trkpt lat="41.70326833" lon="-4.76403333">
        <ele>760.0</ele>
        <time>2020-07-19T10:11:21.453Z</time>
      </trkpt>
      <trkpt lat="41.70324167" lon="-4.76402333">
        <ele>760.0</ele>
        <time>2020-07-19T10:11:22.453Z</time>
      </trkpt>
      <trkpt lat="41.70321333" lon="-4.76401167">
        <ele>760.0</ele>
        <time>2020-07-19T10:11:23.453Z</time>
      </trkpt>
      <trkpt lat="41.703185" lon="-4.764">
        <ele>760.0</ele>
        <time>2020-07-19T10:11:24.453Z</time>
      </trkpt>
      <trkpt lat="41.70315667" lon="-4.76398833">
        <ele>760.0</ele>
        <time>2020-07-19T10:11:25.453Z</time>
      </trkpt>
      <trkpt lat="41.70312667" lon="-4.76397667">
        <ele>760.0</ele>
        <time>2020-07-19T10:11:26.453Z</time>
      </trkpt>
      <trkpt lat="41.70309667" lon="-4.76396667">
        <ele>760.0</ele>
        <time>2020-07-19T10:11:27.453Z</time>
      </trkpt>
      <trkpt lat="41.70306667" lon="-4.76396">
        <ele>760.0</ele>
        <time>2020-07-19T10:11:28.453Z</time>
      </trkpt>
      <trkpt lat="41.70303667" lon="-4.76395333">
        <ele>760.0</ele>
        <time>2020-07-19T10:11:29.453Z</time>
      </trkpt>
      <trkpt lat="41.70301167" lon="-4.763955">
        <ele>760.0</ele>
        <time>2020-07-19T10:11:30.453Z</time>
      </trkpt>
      <trkpt lat="41.702985" lon="-4.76395333">
        <ele>760.0</ele>
        <time>2020-07-19T10:11:31.453Z</time>
      </trkpt>
      <trkpt lat="41.702955" lon="-4.76394667">
        <ele>760.0</ele>
        <time>2020-07-19T10:11:32.453Z</time>
      </trkpt>
      <trkpt lat="41.70292167" lon="-4.76393833">
        <ele>760.0</ele>
        <time>2020-07-19T10:11:33.453Z</time>
      </trkpt>
      <trkpt lat="41.70289167" lon="-4.76393167">
        <ele>760.0</ele>
        <time>2020-07-19T10:11:34.453Z</time>
      </trkpt>
      <trkpt lat="41.70286" lon="-4.76392667">
        <ele>760.0</ele>
        <time>2020-07-19T10:11:35.453Z</time>
      </trkpt>
      <trkpt lat="41.70282833" lon="-4.76392167">
        <ele>760.0</ele>
        <time>2020-07-19T10:11:36.453Z</time>
      </trkpt>
      <trkpt lat="41.70279833" lon="-4.76391833">
        <ele>760.0</ele>
        <time>2020-07-19T10:11:37.453Z</time>
      </trkpt>
      <trkpt lat="41.70277167" lon="-4.76391833">
        <ele>760.0</ele>
        <time>2020-07-19T10:11:38.453Z</time>
      </trkpt>
      <trkpt lat="41.70274167" lon="-4.76392">
        <ele>760.0</ele>
        <time>2020-07-19T10:11:39.453Z</time>
      </trkpt>
      <trkpt lat="41.70271167" lon="-4.76392167">
        <ele>760.0</ele>
        <time>2020-07-19T10:11:40.453Z</time>
      </trkpt>
      <trkpt lat="41.70268333" lon="-4.763925">
        <ele>761.0</ele>
        <time>2020-07-19T10:11:41.453Z</time>
      </trkpt>
      <trkpt lat="41.70265667" lon="-4.763925">
        <ele>761.0</ele>
        <time>2020-07-19T10:11:42.453Z</time>
      </trkpt>
      <trkpt lat="41.70262833" lon="-4.76392167">
        <ele>761.0</ele>
        <time>2020-07-19T10:11:43.453Z</time>
      </trkpt>
      <trkpt lat="41.70259833" lon="-4.76392">
        <ele>761.0</ele>
        <time>2020-07-19T10:11:44.453Z</time>
      </trkpt>
      <trkpt lat="41.70257" lon="-4.76392333">
        <ele>761.0</ele>
        <time>2020-07-19T10:11:45.453Z</time>
      </trkpt>
      <trkpt lat="41.70254" lon="-4.76393">
        <ele>761.0</ele>
        <time>2020-07-19T10:11:46.453Z</time>
      </trkpt>
      <trkpt lat="41.70251" lon="-4.76393333">
        <ele>761.0</ele>
        <time>2020-07-19T10:11:47.453Z</time>
      </trkpt>
      <trkpt lat="41.70248" lon="-4.76393333">
        <ele>761.0</ele>
        <time>2020-07-19T10:11:48.453Z</time>
      </trkpt>
      <trkpt lat="41.70244833" lon="-4.76392833">
        <ele>761.0</ele>
        <time>2020-07-19T10:11:49.453Z</time>
      </trkpt>
      <trkpt lat="41.70241833" lon="-4.76393">
        <ele>761.0</ele>
        <time>2020-07-19T10:11:50.453Z</time>
      </trkpt>
      <trkpt lat="41.70239167" lon="-4.763925">
        <ele>761.0</ele>
        <time>2020-07-19T10:11:51.453Z</time>
      </trkpt>
      <trkpt lat="41.702365" lon="-4.763915">
        <ele>761.0</ele>
        <time>2020-07-19T10:11:52.453Z</time>
      </trkpt>
      <trkpt lat="41.70234" lon="-4.76390167">
        <ele>761.0</ele>
        <time>2020-07-19T10:11:53.453Z</time>
      </trkpt>
      <trkpt lat="41.70231833" lon="-4.763885">
        <ele>761.0</ele>
        <time>2020-07-19T10:11:54.453Z</time>
      </trkpt>
      <trkpt lat="41.70229833" lon="-4.76387167">
        <ele>761.0</ele>
        <time>2020-07-19T10:11:55.453Z</time>
      </trkpt>
      <trkpt lat="41.702285" lon="-4.76386333">
        <ele>761.0</ele>
        <time>2020-07-19T10:11:56.453Z</time>
      </trkpt>
      <trkpt lat="41.70228333" lon="-4.76386">
        <ele>761.0</ele>
        <time>2020-07-19T10:11:57.453Z</time>
      </trkpt>
      <trkpt lat="41.70228333" lon="-4.76386">
        <ele>761.0</ele>
        <time>2020-07-19T10:11:58.453Z</time>
      </trkpt>
      <trkpt lat="41.70228333" lon="-4.76386">
        <ele>761.0</ele>
        <time>2020-07-19T10:11:59.453Z</time>
      </trkpt>
      <trkpt lat="41.70228167" lon="-4.76386167">
        <ele>761.0</ele>
        <time>2020-07-19T10:12:00.453Z</time>
      </trkpt>
      <trkpt lat="41.70228167" lon="-4.76386167">
        <ele>761.0</ele>
        <time>2020-07-19T10:12:01.453Z</time>
      </trkpt>
      <trkpt lat="41.70228" lon="-4.76386167">
        <ele>761.0</ele>
        <time>2020-07-19T10:12:02.453Z</time>
      </trkpt>
      <trkpt lat="41.70228" lon="-4.76386">
        <ele>761.0</ele>
        <time>2020-07-19T10:12:03.453Z</time>
      </trkpt>
      <trkpt lat="41.70227833" lon="-4.76386">
        <ele>761.0</ele>
        <time>2020-07-19T10:12:04.453Z</time>
      </trkpt>
      <trkpt lat="41.70227833" lon="-4.76386">
        <ele>761.0</ele>
        <time>2020-07-19T10:12:05.453Z</time>
      </trkpt>
      <trkpt lat="41.70227833" lon="-4.76386">
        <ele>761.0</ele>
        <time>2020-07-19T10:12:06.453Z</time>
      </trkpt>
      <trkpt lat="41.70227667" lon="-4.76386">
        <ele>761.0</ele>
        <time>2020-07-19T10:12:07.453Z</time>
      </trkpt>
      <trkpt lat="41.70227667" lon="-4.76386">
        <ele>761.0</ele>
        <time>2020-07-19T10:12:08.453Z</time>
      </trkpt>
      <trkpt lat="41.70227667" lon="-4.76386">
        <ele>761.0</ele>
        <time>2020-07-19T10:12:09.453Z</time>
      </trkpt>
      <trkpt lat="41.70227667" lon="-4.76386">
        <ele>761.0</ele>
        <time>2020-07-19T10:12:10.453Z</time>
      </trkpt>
      <trkpt lat="41.702275" lon="-4.76386">
        <ele>761.0</ele>
        <time>2020-07-19T10:12:11.453Z</time>
      </trkpt>
      <trkpt lat="41.702275" lon="-4.76386">
        <ele>761.0</ele>
        <time>2020-07-19T10:12:12.453Z</time>
      </trkpt>
      <trkpt lat="41.702275" lon="-4.76386">
        <ele>761.0</ele>
        <time>2020-07-19T10:12:13.453Z</time>
      </trkpt>
      <trkpt lat="41.702275" lon="-4.76386">
        <ele>761.0</ele>
        <time>2020-07-19T10:12:14.453Z</time>
      </trkpt>
      <trkpt lat="41.702275" lon="-4.76386">
        <ele>761.0</ele>
        <time>2020-07-19T10:12:15.453Z</time>
      </trkpt>
      <trkpt lat="41.702275" lon="-4.76386">
        <ele>761.0</ele>
        <time>2020-07-19T10:12:16.453Z</time>
      </trkpt>
      <trkpt lat="41.702275" lon="-4.76386">
        <ele>761.0</ele>
        <time>2020-07-19T10:12:17.453Z</time>
      </trkpt>
      <trkpt lat="41.70227333" lon="-4.76386">
        <ele>761.0</ele>
        <time>2020-07-19T10:12:18.453Z</time>
      </trkpt>
      <trkpt lat="41.70227333" lon="-4.76386">
        <ele>761.0</ele>
        <time>2020-07-19T10:12:19.453Z</time>
      </trkpt>
      <trkpt lat="41.70227333" lon="-4.76386">
        <ele>761.0</ele>
        <time>2020-07-19T10:12:20.453Z</time>
      </trkpt>
      <trkpt lat="41.702275" lon="-4.76386">
        <ele>761.0</ele>
        <time>2020-07-19T10:12:21.453Z</time>
      </trkpt>
      <trkpt lat="41.70227833" lon="-4.76385833">
        <ele>761.0</ele>
        <time>2020-07-19T10:12:22.453Z</time>
      </trkpt>
      <trkpt lat="41.70227833" lon="-4.76385667">
        <ele>761.0</ele>
        <time>2020-07-19T10:12:23.453Z</time>
      </trkpt>
      <trkpt lat="41.70228" lon="-4.763855">
        <ele>761.0</ele>
        <time>2020-07-19T10:12:24.453Z</time>
      </trkpt>
      <trkpt lat="41.70228" lon="-4.763855">
        <ele>761.0</ele>
        <time>2020-07-19T10:12:25.453Z</time>
      </trkpt>
      <trkpt lat="41.70228" lon="-4.763855">
        <ele>761.0</ele>
        <time>2020-07-19T10:12:26.453Z</time>
      </trkpt>
      <trkpt lat="41.70227833" lon="-4.763855">
        <ele>761.0</ele>
        <time>2020-07-19T10:12:27.453Z</time>
      </trkpt>
      <trkpt lat="41.70227" lon="-4.76385833">
        <ele>761.0</ele>
        <time>2020-07-19T10:12:28.453Z</time>
      </trkpt>
      <trkpt lat="41.70226167" lon="-4.76386167">
        <ele>761.0</ele>
        <time>2020-07-19T10:12:29.453Z</time>
      </trkpt>
      <trkpt lat="41.70225" lon="-4.76387">
        <ele>761.0</ele>
        <time>2020-07-19T10:12:30.453Z</time>
      </trkpt>
      <trkpt lat="41.702235" lon="-4.76387833">
        <ele>761.0</ele>
        <time>2020-07-19T10:12:31.453Z</time>
      </trkpt>
      <trkpt lat="41.702215" lon="-4.76388333">
        <ele>761.0</ele>
        <time>2020-07-19T10:12:32.453Z</time>
      </trkpt>
      <trkpt lat="41.702195" lon="-4.76389">
        <ele>761.0</ele>
        <time>2020-07-19T10:12:33.453Z</time>
      </trkpt>
      <trkpt lat="41.702175" lon="-4.76390167">
        <ele>761.0</ele>
        <time>2020-07-19T10:12:34.453Z</time>
      </trkpt>
      <trkpt lat="41.70215333" lon="-4.763915">
        <ele>761.0</ele>
        <time>2020-07-19T10:12:35.453Z</time>
      </trkpt>
      <trkpt lat="41.70212833" lon="-4.76392667">
        <ele>761.0</ele>
        <time>2020-07-19T10:12:36.453Z</time>
      </trkpt>
      <trkpt lat="41.70210167" lon="-4.76393833">
        <ele>761.0</ele>
        <time>2020-07-19T10:12:37.453Z</time>
      </trkpt>
      <trkpt lat="41.702075" lon="-4.76395167">
        <ele>761.0</ele>
        <time>2020-07-19T10:12:38.453Z</time>
      </trkpt>
      <trkpt lat="41.70204833" lon="-4.76396333">
        <ele>761.0</ele>
        <time>2020-07-19T10:12:39.453Z</time>
      </trkpt>
      <trkpt lat="41.70202167" lon="-4.763975">
        <ele>761.0</ele>
        <time>2020-07-19T10:12:40.453Z</time>
      </trkpt>
      <trkpt lat="41.701995" lon="-4.76398833">
        <ele>761.0</ele>
        <time>2020-07-19T10:12:41.453Z</time>
      </trkpt>
      <trkpt lat="41.70197" lon="-4.76400167">
        <ele>761.0</ele>
        <time>2020-07-19T10:12:42.453Z</time>
      </trkpt>
      <trkpt lat="41.70194333" lon="-4.76401333">
        <ele>761.0</ele>
        <time>2020-07-19T10:12:43.453Z</time>
      </trkpt>
      <trkpt lat="41.70192" lon="-4.764025">
        <ele>761.0</ele>
        <time>2020-07-19T10:12:44.453Z</time>
      </trkpt>
      <trkpt lat="41.70189667" lon="-4.76403833">
        <ele>762.0</ele>
        <time>2020-07-19T10:12:45.453Z</time>
      </trkpt>
      <trkpt lat="41.70187667" lon="-4.76405">
        <ele>762.0</ele>
        <time>2020-07-19T10:12:46.453Z</time>
      </trkpt>
      <trkpt lat="41.70185667" lon="-4.76406">
        <ele>762.0</ele>
        <time>2020-07-19T10:12:47.453Z</time>
      </trkpt>
      <trkpt lat="41.70184" lon="-4.76406667">
        <ele>762.0</ele>
        <time>2020-07-19T10:12:48.453Z</time>
      </trkpt>
      <trkpt lat="41.70182667" lon="-4.76407167">
        <ele>762.0</ele>
        <time>2020-07-19T10:12:49.453Z</time>
      </trkpt>
      <trkpt lat="41.70181167" lon="-4.76407167">
        <ele>762.0</ele>
        <time>2020-07-19T10:12:50.453Z</time>
      </trkpt>
      <trkpt lat="41.701795" lon="-4.76407667">
        <ele>762.0</ele>
        <time>2020-07-19T10:12:51.453Z</time>
      </trkpt>
      <trkpt lat="41.70177667" lon="-4.76408">
        <ele>763.0</ele>
        <time>2020-07-19T10:12:52.453Z</time>
      </trkpt>
      <trkpt lat="41.70176" lon="-4.76408333">
        <ele>763.0</ele>
        <time>2020-07-19T10:12:53.453Z</time>
      </trkpt>
      <trkpt lat="41.701745" lon="-4.76408833">
        <ele>763.0</ele>
        <time>2020-07-19T10:12:54.453Z</time>
      </trkpt>
      <trkpt lat="41.70173667" lon="-4.76409167">
        <ele>763.0</ele>
        <time>2020-07-19T10:12:55.453Z</time>
      </trkpt>
      <trkpt lat="41.70173333" lon="-4.76409">
        <ele>763.0</ele>
        <time>2020-07-19T10:12:56.453Z</time>
      </trkpt>
      <trkpt lat="41.70173167" lon="-4.76408667">
        <ele>763.0</ele>
        <time>2020-07-19T10:12:57.453Z</time>
      </trkpt>
      <trkpt lat="41.70173167" lon="-4.76408667">
        <ele>763.0</ele>
        <time>2020-07-19T10:12:58.453Z</time>
      </trkpt>
      <trkpt lat="41.70173" lon="-4.76408667">
        <ele>763.0</ele>
        <time>2020-07-19T10:12:59.453Z</time>
      </trkpt>
      <trkpt lat="41.70173" lon="-4.76408667">
        <ele>763.0</ele>
        <time>2020-07-19T10:13:00.453Z</time>
      </trkpt>
      <trkpt lat="41.70172833" lon="-4.76408667">
        <ele>763.0</ele>
        <time>2020-07-19T10:13:01.453Z</time>
      </trkpt>
      <trkpt lat="41.70172833" lon="-4.76408667">
        <ele>763.0</ele>
        <time>2020-07-19T10:13:02.453Z</time>
      </trkpt>
      <trkpt lat="41.70172667" lon="-4.76408667">
        <ele>763.0</ele>
        <time>2020-07-19T10:13:03.453Z</time>
      </trkpt>
      <trkpt lat="41.70172667" lon="-4.76408667">
        <ele>763.0</ele>
        <time>2020-07-19T10:13:04.453Z</time>
      </trkpt>
      <trkpt lat="41.70172667" lon="-4.76408667">
        <ele>763.0</ele>
        <time>2020-07-19T10:13:05.453Z</time>
      </trkpt>
      <trkpt lat="41.70172667" lon="-4.76408667">
        <ele>763.0</ele>
        <time>2020-07-19T10:13:06.453Z</time>
      </trkpt>
      <trkpt lat="41.701725" lon="-4.76408667">
        <ele>763.0</ele>
        <time>2020-07-19T10:13:07.453Z</time>
      </trkpt>
      <trkpt lat="41.701725" lon="-4.76408667">
        <ele>763.0</ele>
        <time>2020-07-19T10:13:08.453Z</time>
      </trkpt>
      <trkpt lat="41.701725" lon="-4.76408667">
        <ele>763.0</ele>
        <time>2020-07-19T10:13:09.453Z</time>
      </trkpt>
      <trkpt lat="41.701725" lon="-4.76408667">
        <ele>763.0</ele>
        <time>2020-07-19T10:13:10.453Z</time>
      </trkpt>
      <trkpt lat="41.701725" lon="-4.76408667">
        <ele>763.0</ele>
        <time>2020-07-19T10:13:11.453Z</time>
      </trkpt>
      <trkpt lat="41.701725" lon="-4.76408667">
        <ele>763.0</ele>
        <time>2020-07-19T10:13:12.453Z</time>
      </trkpt>
      <trkpt lat="41.701725" lon="-4.76408667">
        <ele>763.0</ele>
        <time>2020-07-19T10:13:13.453Z</time>
      </trkpt>
      <trkpt lat="41.70172333" lon="-4.76408833">
        <ele>763.0</ele>
        <time>2020-07-19T10:13:14.453Z</time>
      </trkpt>
      <trkpt lat="41.701725" lon="-4.76408833">
        <ele>763.0</ele>
        <time>2020-07-19T10:13:15.453Z</time>
      </trkpt>
      <trkpt lat="41.701725" lon="-4.76408667">
        <ele>763.0</ele>
        <time>2020-07-19T10:13:16.453Z</time>
      </trkpt>
      <trkpt lat="41.701725" lon="-4.764085">
        <ele>763.0</ele>
        <time>2020-07-19T10:13:17.453Z</time>
      </trkpt>
      <trkpt lat="41.701725" lon="-4.764085">
        <ele>763.0</ele>
        <time>2020-07-19T10:13:18.453Z</time>
      </trkpt>
      <trkpt lat="41.701725" lon="-4.764085">
        <ele>763.0</ele>
        <time>2020-07-19T10:13:19.453Z</time>
      </trkpt>
      <trkpt lat="41.70172333" lon="-4.76408667">
        <ele>763.0</ele>
        <time>2020-07-19T10:13:20.453Z</time>
      </trkpt>
      <trkpt lat="41.70172167" lon="-4.76409333">
        <ele>763.0</ele>
        <time>2020-07-19T10:13:21.453Z</time>
      </trkpt>
      <trkpt lat="41.70171667" lon="-4.764105">
        <ele>763.0</ele>
        <time>2020-07-19T10:13:22.453Z</time>
      </trkpt>
      <trkpt lat="41.70170833" lon="-4.76411667">
        <ele>763.0</ele>
        <time>2020-07-19T10:13:23.453Z</time>
      </trkpt>
      <trkpt lat="41.70170167" lon="-4.76414167">
        <ele>763.0</ele>
        <time>2020-07-19T10:13:24.453Z</time>
      </trkpt>
      <trkpt lat="41.70169333" lon="-4.76417">
        <ele>763.0</ele>
        <time>2020-07-19T10:13:25.453Z</time>
      </trkpt>
      <trkpt lat="41.70168333" lon="-4.76420167">
        <ele>763.0</ele>
        <time>2020-07-19T10:13:26.453Z</time>
      </trkpt>
      <trkpt lat="41.70166333" lon="-4.76422333">
        <ele>763.0</ele>
        <time>2020-07-19T10:13:27.453Z</time>
      </trkpt>
      <trkpt lat="41.70163833" lon="-4.76423833">
        <ele>763.0</ele>
        <time>2020-07-19T10:13:28.453Z</time>
      </trkpt>
      <trkpt lat="41.70161333" lon="-4.76425">
        <ele>763.0</ele>
        <time>2020-07-19T10:13:29.453Z</time>
      </trkpt>
      <trkpt lat="41.70158667" lon="-4.76425667">
        <ele>763.0</ele>
        <time>2020-07-19T10:13:30.453Z</time>
      </trkpt>
      <trkpt lat="41.70155833" lon="-4.76426167">
        <ele>763.0</ele>
        <time>2020-07-19T10:13:31.453Z</time>
      </trkpt>
      <trkpt lat="41.70153333" lon="-4.76426667">
        <ele>763.0</ele>
        <time>2020-07-19T10:13:32.453Z</time>
      </trkpt>
      <trkpt lat="41.70151" lon="-4.764275">
        <ele>763.0</ele>
        <time>2020-07-19T10:13:33.453Z</time>
      </trkpt>
      <trkpt lat="41.70148333" lon="-4.76428167">
        <ele>763.0</ele>
        <time>2020-07-19T10:13:34.453Z</time>
      </trkpt>
      <trkpt lat="41.70145667" lon="-4.764285">
        <ele>763.0</ele>
        <time>2020-07-19T10:13:35.453Z</time>
      </trkpt>
      <trkpt lat="41.70142833" lon="-4.76428667">
        <ele>764.0</ele>
        <time>2020-07-19T10:13:36.453Z</time>
      </trkpt>
      <trkpt lat="41.7014" lon="-4.76428333">
        <ele>764.0</ele>
        <time>2020-07-19T10:13:37.453Z</time>
      </trkpt>
      <trkpt lat="41.70137" lon="-4.76428">
        <ele>764.0</ele>
        <time>2020-07-19T10:13:38.453Z</time>
      </trkpt>
      <trkpt lat="41.70133833" lon="-4.76427333">
        <ele>764.0</ele>
        <time>2020-07-19T10:13:39.453Z</time>
      </trkpt>
      <trkpt lat="41.70131167" lon="-4.764265">
        <ele>764.0</ele>
        <time>2020-07-19T10:13:40.453Z</time>
      </trkpt>
      <trkpt lat="41.70128" lon="-4.764255">
        <ele>764.0</ele>
        <time>2020-07-19T10:13:41.453Z</time>
      </trkpt>
      <trkpt lat="41.70125" lon="-4.76424167">
        <ele>764.0</ele>
        <time>2020-07-19T10:13:42.453Z</time>
      </trkpt>
      <trkpt lat="41.70122" lon="-4.76422667">
        <ele>764.0</ele>
        <time>2020-07-19T10:13:43.453Z</time>
      </trkpt>
      <trkpt lat="41.70118833" lon="-4.76421167">
        <ele>764.0</ele>
        <time>2020-07-19T10:13:44.453Z</time>
      </trkpt>
      <trkpt lat="41.70115833" lon="-4.76419833">
        <ele>764.0</ele>
        <time>2020-07-19T10:13:45.453Z</time>
      </trkpt>
      <trkpt lat="41.70113" lon="-4.76418667">
        <ele>764.0</ele>
        <time>2020-07-19T10:13:46.453Z</time>
      </trkpt>
      <trkpt lat="41.7011" lon="-4.764175">
        <ele>765.0</ele>
        <time>2020-07-19T10:13:47.453Z</time>
      </trkpt>
      <trkpt lat="41.70107167" lon="-4.764165">
        <ele>765.0</ele>
        <time>2020-07-19T10:13:48.453Z</time>
      </trkpt>
      <trkpt lat="41.70104333" lon="-4.76415167">
        <ele>765.0</ele>
        <time>2020-07-19T10:13:49.453Z</time>
      </trkpt>
      <trkpt lat="41.70101667" lon="-4.76413667">
        <ele>765.0</ele>
        <time>2020-07-19T10:13:50.453Z</time>
      </trkpt>
      <trkpt lat="41.70098833" lon="-4.764125">
        <ele>765.0</ele>
        <time>2020-07-19T10:13:51.453Z</time>
      </trkpt>
      <trkpt lat="41.70095833" lon="-4.76411167">
        <ele>765.0</ele>
        <time>2020-07-19T10:13:52.453Z</time>
      </trkpt>
      <trkpt lat="41.70093333" lon="-4.764095">
        <ele>765.0</ele>
        <time>2020-07-19T10:13:53.453Z</time>
      </trkpt>
      <trkpt lat="41.70090833" lon="-4.76407833">
        <ele>765.0</ele>
        <time>2020-07-19T10:13:54.453Z</time>
      </trkpt>
      <trkpt lat="41.70088333" lon="-4.76406167">
        <ele>765.0</ele>
        <time>2020-07-19T10:13:55.453Z</time>
      </trkpt>
      <trkpt lat="41.70086" lon="-4.76404167">
        <ele>765.0</ele>
        <time>2020-07-19T10:13:56.453Z</time>
      </trkpt>
      <trkpt lat="41.700835" lon="-4.76402167">
        <ele>766.0</ele>
        <time>2020-07-19T10:13:57.453Z</time>
      </trkpt>
      <trkpt lat="41.70080833" lon="-4.76400167">
        <ele>766.0</ele>
        <time>2020-07-19T10:13:58.453Z</time>
      </trkpt>
      <trkpt lat="41.70078333" lon="-4.76398">
        <ele>766.0</ele>
        <time>2020-07-19T10:13:59.453Z</time>
      </trkpt>
      <trkpt lat="41.70075333" lon="-4.76396">
        <ele>766.0</ele>
        <time>2020-07-19T10:14:00.453Z</time>
      </trkpt>
      <trkpt lat="41.700725" lon="-4.76393667">
        <ele>766.0</ele>
        <time>2020-07-19T10:14:01.453Z</time>
      </trkpt>
      <trkpt lat="41.70069833" lon="-4.763915">
        <ele>766.0</ele>
        <time>2020-07-19T10:14:02.453Z</time>
      </trkpt>
      <trkpt lat="41.70067333" lon="-4.76388667">
        <ele>766.0</ele>
        <time>2020-07-19T10:14:03.453Z</time>
      </trkpt>
      <trkpt lat="41.70064833" lon="-4.76386167">
        <ele>766.0</ele>
        <time>2020-07-19T10:14:04.453Z</time>
      </trkpt>
      <trkpt lat="41.70061833" lon="-4.76384167">
        <ele>766.0</ele>
        <time>2020-07-19T10:14:05.453Z</time>
      </trkpt>
      <trkpt lat="41.70059167" lon="-4.76382333">
        <ele>766.0</ele>
        <time>2020-07-19T10:14:06.453Z</time>
      </trkpt>
      <trkpt lat="41.70056333" lon="-4.763805">
        <ele>766.0</ele>
        <time>2020-07-19T10:14:07.453Z</time>
      </trkpt>
      <trkpt lat="41.70053333" lon="-4.76378333">
        <ele>766.0</ele>
        <time>2020-07-19T10:14:08.453Z</time>
      </trkpt>
      <trkpt lat="41.700505" lon="-4.76376">
        <ele>766.0</ele>
        <time>2020-07-19T10:14:09.453Z</time>
      </trkpt>
      <trkpt lat="41.700475" lon="-4.76373167">
        <ele>766.0</ele>
        <time>2020-07-19T10:14:10.453Z</time>
      </trkpt>
      <trkpt lat="41.70044667" lon="-4.76370333">
        <ele>766.0</ele>
        <time>2020-07-19T10:14:11.453Z</time>
      </trkpt>
      <trkpt lat="41.70041667" lon="-4.763675">
        <ele>766.0</ele>
        <time>2020-07-19T10:14:12.453Z</time>
      </trkpt>
      <trkpt lat="41.70038667" lon="-4.76364833">
        <ele>766.0</ele>
        <time>2020-07-19T10:14:13.453Z</time>
      </trkpt>
      <trkpt lat="41.70036" lon="-4.76361833">
        <ele>766.0</ele>
        <time>2020-07-19T10:14:14.453Z</time>
      </trkpt>
      <trkpt lat="41.70033167" lon="-4.76359333">
        <ele>766.0</ele>
        <time>2020-07-19T10:14:15.453Z</time>
      </trkpt>
      <trkpt lat="41.70030167" lon="-4.763565">
        <ele>766.0</ele>
        <time>2020-07-19T10:14:16.453Z</time>
      </trkpt>
      <trkpt lat="41.70027167" lon="-4.76353833">
        <ele>766.0</ele>
        <time>2020-07-19T10:14:17.453Z</time>
      </trkpt>
      <trkpt lat="41.70024167" lon="-4.76351">
        <ele>766.0</ele>
        <time>2020-07-19T10:14:18.453Z</time>
      </trkpt>
      <trkpt lat="41.70021" lon="-4.76348167">
        <ele>766.0</ele>
        <time>2020-07-19T10:14:19.453Z</time>
      </trkpt>
      <trkpt lat="41.70018" lon="-4.76345667">
        <ele>766.0</ele>
        <time>2020-07-19T10:14:20.453Z</time>
      </trkpt>
      <trkpt lat="41.70014833" lon="-4.76343">
        <ele>766.0</ele>
        <time>2020-07-19T10:14:21.453Z</time>
      </trkpt>
      <trkpt lat="41.70011833" lon="-4.76340333">
        <ele>766.0</ele>
        <time>2020-07-19T10:14:22.453Z</time>
      </trkpt>
      <trkpt lat="41.70009" lon="-4.76337667">
        <ele>766.0</ele>
        <time>2020-07-19T10:14:23.453Z</time>
      </trkpt>
      <trkpt lat="41.70006167" lon="-4.763355">
        <ele>766.0</ele>
        <time>2020-07-19T10:14:24.453Z</time>
      </trkpt>
      <trkpt lat="41.70003333" lon="-4.76333667">
        <ele>766.0</ele>
        <time>2020-07-19T10:14:25.453Z</time>
      </trkpt>
      <trkpt lat="41.700005" lon="-4.76331333">
        <ele>766.0</ele>
        <time>2020-07-19T10:14:26.453Z</time>
      </trkpt>
      <trkpt lat="41.69997333" lon="-4.76328833">
        <ele>766.0</ele>
        <time>2020-07-19T10:14:27.453Z</time>
      </trkpt>
      <trkpt lat="41.699945" lon="-4.76326333">
        <ele>766.0</ele>
        <time>2020-07-19T10:14:28.453Z</time>
      </trkpt>
      <trkpt lat="41.69991667" lon="-4.76323833">
        <ele>766.0</ele>
        <time>2020-07-19T10:14:29.453Z</time>
      </trkpt>
      <trkpt lat="41.69988833" lon="-4.76322333">
        <ele>766.0</ele>
        <time>2020-07-19T10:14:30.453Z</time>
      </trkpt>
      <trkpt lat="41.69985333" lon="-4.76320333">
        <ele>766.0</ele>
        <time>2020-07-19T10:14:31.453Z</time>
      </trkpt>
      <trkpt lat="41.699815" lon="-4.76318333">
        <ele>766.0</ele>
        <time>2020-07-19T10:14:32.453Z</time>
      </trkpt>
      <trkpt lat="41.69977333" lon="-4.76316167">
        <ele>766.0</ele>
        <time>2020-07-19T10:14:33.453Z</time>
      </trkpt>
      <trkpt lat="41.69972833" lon="-4.76314333">
        <ele>766.0</ele>
        <time>2020-07-19T10:14:34.453Z</time>
      </trkpt>
      <trkpt lat="41.69967833" lon="-4.76312333">
        <ele>765.0</ele>
        <time>2020-07-19T10:14:35.453Z</time>
      </trkpt>
      <trkpt lat="41.69962667" lon="-4.7631">
        <ele>764.0</ele>
        <time>2020-07-19T10:14:36.453Z</time>
      </trkpt>
      <trkpt lat="41.699575" lon="-4.763075">
        <ele>764.0</ele>
        <time>2020-07-19T10:14:37.453Z</time>
      </trkpt>
      <trkpt lat="41.69952" lon="-4.76305">
        <ele>764.0</ele>
        <time>2020-07-19T10:14:38.453Z</time>
      </trkpt>
      <trkpt lat="41.699465" lon="-4.76302333">
        <ele>763.0</ele>
        <time>2020-07-19T10:14:39.453Z</time>
      </trkpt>
      <trkpt lat="41.69940833" lon="-4.762995">
        <ele>762.0</ele>
        <time>2020-07-19T10:14:40.453Z</time>
      </trkpt>
      <trkpt lat="41.69935167" lon="-4.762965">
        <ele>762.0</ele>
        <time>2020-07-19T10:14:41.453Z</time>
      </trkpt>
      <trkpt lat="41.699295" lon="-4.76293167">
        <ele>761.0</ele>
        <time>2020-07-19T10:14:42.453Z</time>
      </trkpt>
      <trkpt lat="41.69923667" lon="-4.76289833">
        <ele>761.0</ele>
        <time>2020-07-19T10:14:43.453Z</time>
      </trkpt>
      <trkpt lat="41.69917667" lon="-4.76286">
        <ele>759.0</ele>
        <time>2020-07-19T10:14:44.453Z</time>
      </trkpt>
      <trkpt lat="41.699115" lon="-4.762815">
        <ele>758.0</ele>
        <time>2020-07-19T10:14:45.453Z</time>
      </trkpt>
      <trkpt lat="41.69905167" lon="-4.76276167">
        <ele>757.0</ele>
        <time>2020-07-19T10:14:46.453Z</time>
      </trkpt>
      <trkpt lat="41.69898333" lon="-4.7627">
        <ele>756.0</ele>
        <time>2020-07-19T10:14:47.453Z</time>
      </trkpt>
      <trkpt lat="41.698915" lon="-4.76263">
        <ele>756.0</ele>
        <time>2020-07-19T10:14:48.453Z</time>
      </trkpt>
      <trkpt lat="41.69885" lon="-4.76255167">
        <ele>756.0</ele>
        <time>2020-07-19T10:14:49.453Z</time>
      </trkpt>
      <trkpt lat="41.69878833" lon="-4.76246667">
        <ele>756.0</ele>
        <time>2020-07-19T10:14:50.453Z</time>
      </trkpt>
      <trkpt lat="41.69873" lon="-4.76237667">
        <ele>756.0</ele>
        <time>2020-07-19T10:14:51.453Z</time>
      </trkpt>
      <trkpt lat="41.69867333" lon="-4.76228167">
        <ele>753.0</ele>
        <time>2020-07-19T10:14:52.453Z</time>
      </trkpt>
      <trkpt lat="41.69861833" lon="-4.76218333">
        <ele>753.0</ele>
        <time>2020-07-19T10:14:53.453Z</time>
      </trkpt>
      <trkpt lat="41.69856333" lon="-4.762085">
        <ele>752.0</ele>
        <time>2020-07-19T10:14:54.453Z</time>
      </trkpt>
      <trkpt lat="41.69850833" lon="-4.76198667">
        <ele>752.0</ele>
        <time>2020-07-19T10:14:55.453Z</time>
      </trkpt>
      <trkpt lat="41.69845667" lon="-4.76188667">
        <ele>752.0</ele>
        <time>2020-07-19T10:14:56.453Z</time>
      </trkpt>
      <trkpt lat="41.6984" lon="-4.76179167">
        <ele>750.0</ele>
        <time>2020-07-19T10:14:57.453Z</time>
      </trkpt>
      <trkpt lat="41.69834" lon="-4.76170333">
        <ele>750.0</ele>
        <time>2020-07-19T10:14:58.453Z</time>
      </trkpt>
      <trkpt lat="41.69827667" lon="-4.76162333">
        <ele>749.0</ele>
        <time>2020-07-19T10:14:59.453Z</time>
      </trkpt>
      <trkpt lat="41.69821167" lon="-4.761545">
        <ele>749.0</ele>
        <time>2020-07-19T10:15:00.453Z</time>
      </trkpt>
      <trkpt lat="41.69814667" lon="-4.76147167">
        <ele>749.0</ele>
        <time>2020-07-19T10:15:01.453Z</time>
      </trkpt>
      <trkpt lat="41.69808167" lon="-4.76140167">
        <ele>749.0</ele>
        <time>2020-07-19T10:15:02.453Z</time>
      </trkpt>
      <trkpt lat="41.698015" lon="-4.76133333">
        <ele>748.0</ele>
        <time>2020-07-19T10:15:03.453Z</time>
      </trkpt>
      <trkpt lat="41.69794833" lon="-4.76127167">
        <ele>748.0</ele>
        <time>2020-07-19T10:15:04.453Z</time>
      </trkpt>
      <trkpt lat="41.69788" lon="-4.761215">
        <ele>748.0</ele>
        <time>2020-07-19T10:15:05.453Z</time>
      </trkpt>
      <trkpt lat="41.69781333" lon="-4.761165">
        <ele>748.0</ele>
        <time>2020-07-19T10:15:06.453Z</time>
      </trkpt>
      <trkpt lat="41.697745" lon="-4.76112167">
        <ele>748.0</ele>
        <time>2020-07-19T10:15:07.453Z</time>
      </trkpt>
      <trkpt lat="41.69767667" lon="-4.76108667">
        <ele>748.0</ele>
        <time>2020-07-19T10:15:08.453Z</time>
      </trkpt>
      <trkpt lat="41.69760833" lon="-4.76106333">
        <ele>748.0</ele>
        <time>2020-07-19T10:15:09.453Z</time>
      </trkpt>
      <trkpt lat="41.69754167" lon="-4.76104833">
        <ele>748.0</ele>
        <time>2020-07-19T10:15:10.453Z</time>
      </trkpt>
      <trkpt lat="41.69747667" lon="-4.76104167">
        <ele>748.0</ele>
        <time>2020-07-19T10:15:11.453Z</time>
      </trkpt>
      <trkpt lat="41.69741333" lon="-4.76103833">
        <ele>748.0</ele>
        <time>2020-07-19T10:15:12.453Z</time>
      </trkpt>
      <trkpt lat="41.697355" lon="-4.76103333">
        <ele>748.0</ele>
        <time>2020-07-19T10:15:13.453Z</time>
      </trkpt>
      <trkpt lat="41.69729833" lon="-4.76102833">
        <ele>748.0</ele>
        <time>2020-07-19T10:15:14.453Z</time>
      </trkpt>
      <trkpt lat="41.69724167" lon="-4.761025">
        <ele>748.0</ele>
        <time>2020-07-19T10:15:15.453Z</time>
      </trkpt>
      <trkpt lat="41.69718667" lon="-4.76102167">
        <ele>748.0</ele>
        <time>2020-07-19T10:15:16.453Z</time>
      </trkpt>
      <trkpt lat="41.69713167" lon="-4.76101833">
        <ele>748.0</ele>
        <time>2020-07-19T10:15:17.453Z</time>
      </trkpt>
      <trkpt lat="41.69707667" lon="-4.761015">
        <ele>748.0</ele>
        <time>2020-07-19T10:15:18.453Z</time>
      </trkpt>
      <trkpt lat="41.69702167" lon="-4.76101167">
        <ele>748.0</ele>
        <time>2020-07-19T10:15:19.453Z</time>
      </trkpt>
      <trkpt lat="41.69696833" lon="-4.76100833">
        <ele>748.0</ele>
        <time>2020-07-19T10:15:20.453Z</time>
      </trkpt>
      <trkpt lat="41.69691333" lon="-4.761005">
        <ele>748.0</ele>
        <time>2020-07-19T10:15:21.453Z</time>
      </trkpt>
      <trkpt lat="41.69685833" lon="-4.76100333">
        <ele>748.0</ele>
        <time>2020-07-19T10:15:22.453Z</time>
      </trkpt>
      <trkpt lat="41.696805" lon="-4.761">
        <ele>748.0</ele>
        <time>2020-07-19T10:15:23.453Z</time>
      </trkpt>
      <trkpt lat="41.69675333" lon="-4.760995">
        <ele>748.0</ele>
        <time>2020-07-19T10:15:24.453Z</time>
      </trkpt>
      <trkpt lat="41.69670167" lon="-4.76099167">
        <ele>748.0</ele>
        <time>2020-07-19T10:15:25.453Z</time>
      </trkpt>
      <trkpt lat="41.69665" lon="-4.76099167">
        <ele>748.0</ele>
        <time>2020-07-19T10:15:26.453Z</time>
      </trkpt>
      <trkpt lat="41.69659833" lon="-4.76098833">
        <ele>748.0</ele>
        <time>2020-07-19T10:15:27.453Z</time>
      </trkpt>
      <trkpt lat="41.69654667" lon="-4.76098667">
        <ele>748.0</ele>
        <time>2020-07-19T10:15:28.453Z</time>
      </trkpt>
      <trkpt lat="41.696495" lon="-4.76098333">
        <ele>748.0</ele>
        <time>2020-07-19T10:15:29.453Z</time>
      </trkpt>
      <trkpt lat="41.696445" lon="-4.76097833">
        <ele>748.0</ele>
        <time>2020-07-19T10:15:30.453Z</time>
      </trkpt>
      <trkpt lat="41.696395" lon="-4.760975">
        <ele>748.0</ele>
        <time>2020-07-19T10:15:31.453Z</time>
      </trkpt>
      <trkpt lat="41.696345" lon="-4.76097">
        <ele>748.0</ele>
        <time>2020-07-19T10:15:32.453Z</time>
      </trkpt>
      <trkpt lat="41.696295" lon="-4.76096667">
        <ele>748.0</ele>
        <time>2020-07-19T10:15:33.453Z</time>
      </trkpt>
      <trkpt lat="41.69624333" lon="-4.76096167">
        <ele>748.0</ele>
        <time>2020-07-19T10:15:34.453Z</time>
      </trkpt>
      <trkpt lat="41.69619333" lon="-4.76096">
        <ele>748.0</ele>
        <time>2020-07-19T10:15:35.453Z</time>
      </trkpt>
      <trkpt lat="41.69614333" lon="-4.76096">
        <ele>748.0</ele>
        <time>2020-07-19T10:15:36.453Z</time>
      </trkpt>
      <trkpt lat="41.69609333" lon="-4.760955">
        <ele>747.0</ele>
        <time>2020-07-19T10:15:37.453Z</time>
      </trkpt>
      <trkpt lat="41.69604167" lon="-4.76095">
        <ele>747.0</ele>
        <time>2020-07-19T10:15:38.453Z</time>
      </trkpt>
      <trkpt lat="41.69598667" lon="-4.76094667">
        <ele>747.0</ele>
        <time>2020-07-19T10:15:39.453Z</time>
      </trkpt>
      <trkpt lat="41.69593" lon="-4.76094333">
        <ele>747.0</ele>
        <time>2020-07-19T10:15:40.453Z</time>
      </trkpt>
      <trkpt lat="41.69587" lon="-4.76093833">
        <ele>747.0</ele>
        <time>2020-07-19T10:15:41.453Z</time>
      </trkpt>
      <trkpt lat="41.69580667" lon="-4.76093333">
        <ele>747.0</ele>
        <time>2020-07-19T10:15:42.453Z</time>
      </trkpt>
      <trkpt lat="41.695745" lon="-4.76092833">
        <ele>746.0</ele>
        <time>2020-07-19T10:15:43.453Z</time>
      </trkpt>
      <trkpt lat="41.69568167" lon="-4.76092333">
        <ele>746.0</ele>
        <time>2020-07-19T10:15:44.453Z</time>
      </trkpt>
      <trkpt lat="41.69561833" lon="-4.76092">
        <ele>746.0</ele>
        <time>2020-07-19T10:15:45.453Z</time>
      </trkpt>
      <trkpt lat="41.695555" lon="-4.76091667">
        <ele>746.0</ele>
        <time>2020-07-19T10:15:46.453Z</time>
      </trkpt>
      <trkpt lat="41.69549333" lon="-4.76091">
        <ele>745.0</ele>
        <time>2020-07-19T10:15:47.453Z</time>
      </trkpt>
      <trkpt lat="41.69542833" lon="-4.76090667">
        <ele>745.0</ele>
        <time>2020-07-19T10:15:48.453Z</time>
      </trkpt>
      <trkpt lat="41.69536167" lon="-4.76090333">
        <ele>745.0</ele>
        <time>2020-07-19T10:15:49.453Z</time>
      </trkpt>
      <trkpt lat="41.69529333" lon="-4.7609">
        <ele>744.0</ele>
        <time>2020-07-19T10:15:50.453Z</time>
      </trkpt>
      <trkpt lat="41.69522167" lon="-4.76089667">
        <ele>744.0</ele>
        <time>2020-07-19T10:15:51.453Z</time>
      </trkpt>
      <trkpt lat="41.69515" lon="-4.76089333">
        <ele>743.0</ele>
        <time>2020-07-19T10:15:52.453Z</time>
      </trkpt>
      <trkpt lat="41.695075" lon="-4.76088833">
        <ele>743.0</ele>
        <time>2020-07-19T10:15:53.453Z</time>
      </trkpt>
      <trkpt lat="41.69500167" lon="-4.760885">
        <ele>743.0</ele>
        <time>2020-07-19T10:15:54.453Z</time>
      </trkpt>
      <trkpt lat="41.69492833" lon="-4.76088">
        <ele>743.0</ele>
        <time>2020-07-19T10:15:55.453Z</time>
      </trkpt>
      <trkpt lat="41.69485333" lon="-4.76087667">
        <ele>743.0</ele>
        <time>2020-07-19T10:15:56.453Z</time>
      </trkpt>
      <trkpt lat="41.69478167" lon="-4.76087333">
        <ele>743.0</ele>
        <time>2020-07-19T10:15:57.453Z</time>
      </trkpt>
      <trkpt lat="41.69471" lon="-4.76086833">
        <ele>741.0</ele>
        <time>2020-07-19T10:15:58.453Z</time>
      </trkpt>
      <trkpt lat="41.69464" lon="-4.760865">
        <ele>741.0</ele>
        <time>2020-07-19T10:15:59.453Z</time>
      </trkpt>
      <trkpt lat="41.69457167" lon="-4.76086167">
        <ele>741.0</ele>
        <time>2020-07-19T10:16:00.453Z</time>
      </trkpt>
      <trkpt lat="41.694505" lon="-4.76086">
        <ele>741.0</ele>
        <time>2020-07-19T10:16:01.453Z</time>
      </trkpt>
      <trkpt lat="41.69444" lon="-4.76085667">
        <ele>741.0</ele>
        <time>2020-07-19T10:16:02.453Z</time>
      </trkpt>
      <trkpt lat="41.694375" lon="-4.760855">
        <ele>740.0</ele>
        <time>2020-07-19T10:16:03.453Z</time>
      </trkpt>
      <trkpt lat="41.69431" lon="-4.76085333">
        <ele>740.0</ele>
        <time>2020-07-19T10:16:04.453Z</time>
      </trkpt>
      <trkpt lat="41.69424833" lon="-4.76085167">
        <ele>740.0</ele>
        <time>2020-07-19T10:16:05.453Z</time>
      </trkpt>
      <trkpt lat="41.69418667" lon="-4.76084833">
        <ele>740.0</ele>
        <time>2020-07-19T10:16:06.453Z</time>
      </trkpt>
      <trkpt lat="41.69412833" lon="-4.76084667">
        <ele>740.0</ele>
        <time>2020-07-19T10:16:07.453Z</time>
      </trkpt>
      <trkpt lat="41.69407167" lon="-4.760845">
        <ele>740.0</ele>
        <time>2020-07-19T10:16:08.453Z</time>
      </trkpt>
      <trkpt lat="41.69401333" lon="-4.76084167">
        <ele>740.0</ele>
        <time>2020-07-19T10:16:09.453Z</time>
      </trkpt>
      <trkpt lat="41.69395667" lon="-4.76083667">
        <ele>740.0</ele>
        <time>2020-07-19T10:16:10.453Z</time>
      </trkpt>
      <trkpt lat="41.69389667" lon="-4.76083">
        <ele>740.0</ele>
        <time>2020-07-19T10:16:11.453Z</time>
      </trkpt>
      <trkpt lat="41.69383833" lon="-4.76082333">
        <ele>740.0</ele>
        <time>2020-07-19T10:16:12.453Z</time>
      </trkpt>
      <trkpt lat="41.69378" lon="-4.76081833">
        <ele>740.0</ele>
        <time>2020-07-19T10:16:13.453Z</time>
      </trkpt>
      <trkpt lat="41.69372167" lon="-4.76081167">
        <ele>740.0</ele>
        <time>2020-07-19T10:16:14.453Z</time>
      </trkpt>
      <trkpt lat="41.69366333" lon="-4.76080833">
        <ele>740.0</ele>
        <time>2020-07-19T10:16:15.453Z</time>
      </trkpt>
      <trkpt lat="41.693605" lon="-4.76080167">
        <ele>739.0</ele>
        <time>2020-07-19T10:16:16.453Z</time>
      </trkpt>
      <trkpt lat="41.69354833" lon="-4.76079833">
        <ele>739.0</ele>
        <time>2020-07-19T10:16:17.453Z</time>
      </trkpt>
      <trkpt lat="41.69349167" lon="-4.760795">
        <ele>739.0</ele>
        <time>2020-07-19T10:16:18.453Z</time>
      </trkpt>
      <trkpt lat="41.693435" lon="-4.76079333">
        <ele>739.0</ele>
        <time>2020-07-19T10:16:19.453Z</time>
      </trkpt>
      <trkpt lat="41.69337833" lon="-4.76079333">
        <ele>739.0</ele>
        <time>2020-07-19T10:16:20.453Z</time>
      </trkpt>
      <trkpt lat="41.69332167" lon="-4.7608">
        <ele>739.0</ele>
        <time>2020-07-19T10:16:21.453Z</time>
      </trkpt>
      <trkpt lat="41.693265" lon="-4.76081">
        <ele>739.0</ele>
        <time>2020-07-19T10:16:22.453Z</time>
      </trkpt>
      <trkpt lat="41.69320833" lon="-4.760825">
        <ele>739.0</ele>
        <time>2020-07-19T10:16:23.453Z</time>
      </trkpt>
      <trkpt lat="41.69315167" lon="-4.76084333">
        <ele>739.0</ele>
        <time>2020-07-19T10:16:24.453Z</time>
      </trkpt>
      <trkpt lat="41.69309333" lon="-4.76086667">
        <ele>738.0</ele>
        <time>2020-07-19T10:16:25.453Z</time>
      </trkpt>
      <trkpt lat="41.693035" lon="-4.76089">
        <ele>738.0</ele>
        <time>2020-07-19T10:16:26.453Z</time>
      </trkpt>
      <trkpt lat="41.692975" lon="-4.760915">
        <ele>738.0</ele>
        <time>2020-07-19T10:16:27.453Z</time>
      </trkpt>
      <trkpt lat="41.69291667" lon="-4.76094">
        <ele>738.0</ele>
        <time>2020-07-19T10:16:28.453Z</time>
      </trkpt>
      <trkpt lat="41.69285667" lon="-4.760965">
        <ele>738.0</ele>
        <time>2020-07-19T10:16:29.453Z</time>
      </trkpt>
      <trkpt lat="41.69279833" lon="-4.760985">
        <ele>738.0</ele>
        <time>2020-07-19T10:16:30.453Z</time>
      </trkpt>
      <trkpt lat="41.69273833" lon="-4.761005">
        <ele>738.0</ele>
        <time>2020-07-19T10:16:31.453Z</time>
      </trkpt>
      <trkpt lat="41.69267833" lon="-4.76102167">
        <ele>738.0</ele>
        <time>2020-07-19T10:16:32.453Z</time>
      </trkpt>
      <trkpt lat="41.69261833" lon="-4.761035">
        <ele>738.0</ele>
        <time>2020-07-19T10:16:33.453Z</time>
      </trkpt>
      <trkpt lat="41.69256" lon="-4.76104667">
        <ele>738.0</ele>
        <time>2020-07-19T10:16:34.453Z</time>
      </trkpt>
      <trkpt lat="41.6925" lon="-4.76106">
        <ele>737.0</ele>
        <time>2020-07-19T10:16:35.453Z</time>
      </trkpt>
      <trkpt lat="41.69244167" lon="-4.76107167">
        <ele>737.0</ele>
        <time>2020-07-19T10:16:36.453Z</time>
      </trkpt>
      <trkpt lat="41.69238333" lon="-4.76108167">
        <ele>737.0</ele>
        <time>2020-07-19T10:16:37.453Z</time>
      </trkpt>
      <trkpt lat="41.69232667" lon="-4.761095">
        <ele>737.0</ele>
        <time>2020-07-19T10:16:38.453Z</time>
      </trkpt>
      <trkpt lat="41.69227" lon="-4.761105">
        <ele>737.0</ele>
        <time>2020-07-19T10:16:39.453Z</time>
      </trkpt>
      <trkpt lat="41.69221333" lon="-4.76111333">
        <ele>737.0</ele>
        <time>2020-07-19T10:16:40.453Z</time>
      </trkpt>
      <trkpt lat="41.69216" lon="-4.76112667">
        <ele>737.0</ele>
        <time>2020-07-19T10:16:41.453Z</time>
      </trkpt>
      <trkpt lat="41.69211" lon="-4.76113667">
        <ele>737.0</ele>
        <time>2020-07-19T10:16:42.453Z</time>
      </trkpt>
      <trkpt lat="41.69206" lon="-4.761145">
        <ele>737.0</ele>
        <time>2020-07-19T10:16:43.453Z</time>
      </trkpt>
      <trkpt lat="41.69201167" lon="-4.76115667">
        <ele>737.0</ele>
        <time>2020-07-19T10:16:44.453Z</time>
      </trkpt>
      <trkpt lat="41.69196333" lon="-4.76116833">
        <ele>737.0</ele>
        <time>2020-07-19T10:16:45.453Z</time>
      </trkpt>
      <trkpt lat="41.69191667" lon="-4.76117833">
        <ele>737.0</ele>
        <time>2020-07-19T10:16:46.453Z</time>
      </trkpt>
      <trkpt lat="41.69187" lon="-4.761185">
        <ele>737.0</ele>
        <time>2020-07-19T10:16:47.453Z</time>
      </trkpt>
      <trkpt lat="41.69182167" lon="-4.76118667">
        <ele>737.0</ele>
        <time>2020-07-19T10:16:48.453Z</time>
      </trkpt>
      <trkpt lat="41.691775" lon="-4.76118833">
        <ele>736.0</ele>
        <time>2020-07-19T10:16:49.453Z</time>
      </trkpt>
      <trkpt lat="41.69172833" lon="-4.76118667">
        <ele>736.0</ele>
        <time>2020-07-19T10:16:50.453Z</time>
      </trkpt>
      <trkpt lat="41.69168167" lon="-4.76118167">
        <ele>736.0</ele>
        <time>2020-07-19T10:16:51.453Z</time>
      </trkpt>
      <trkpt lat="41.691635" lon="-4.76117333">
        <ele>736.0</ele>
        <time>2020-07-19T10:16:52.453Z</time>
      </trkpt>
      <trkpt lat="41.69159" lon="-4.76116">
        <ele>736.0</ele>
        <time>2020-07-19T10:16:53.453Z</time>
      </trkpt>
      <trkpt lat="41.691545" lon="-4.76114667">
        <ele>736.0</ele>
        <time>2020-07-19T10:16:54.453Z</time>
      </trkpt>
      <trkpt lat="41.6915" lon="-4.76113333">
        <ele>736.0</ele>
        <time>2020-07-19T10:16:55.453Z</time>
      </trkpt>
      <trkpt lat="41.69145667" lon="-4.76111667">
        <ele>736.0</ele>
        <time>2020-07-19T10:16:56.453Z</time>
      </trkpt>
      <trkpt lat="41.69141167" lon="-4.76109667">
        <ele>737.0</ele>
        <time>2020-07-19T10:16:57.453Z</time>
      </trkpt>
      <trkpt lat="41.69136833" lon="-4.761075">
        <ele>737.0</ele>
        <time>2020-07-19T10:16:58.453Z</time>
      </trkpt>
      <trkpt lat="41.691325" lon="-4.76105833">
        <ele>737.0</ele>
        <time>2020-07-19T10:16:59.453Z</time>
      </trkpt>
      <trkpt lat="41.69128" lon="-4.76104167">
        <ele>737.0</ele>
        <time>2020-07-19T10:17:00.453Z</time>
      </trkpt>
      <trkpt lat="41.69123833" lon="-4.76102167">
        <ele>737.0</ele>
        <time>2020-07-19T10:17:01.453Z</time>
      </trkpt>
      <trkpt lat="41.69119667" lon="-4.76100167">
        <ele>737.0</ele>
        <time>2020-07-19T10:17:02.453Z</time>
      </trkpt>
      <trkpt lat="41.691155" lon="-4.76098333">
        <ele>737.0</ele>
        <time>2020-07-19T10:17:03.453Z</time>
      </trkpt>
      <trkpt lat="41.69111333" lon="-4.760965">
        <ele>737.0</ele>
        <time>2020-07-19T10:17:04.453Z</time>
      </trkpt>
      <trkpt lat="41.69107" lon="-4.76094667">
        <ele>737.0</ele>
        <time>2020-07-19T10:17:05.453Z</time>
      </trkpt>
      <trkpt lat="41.69102833" lon="-4.76092833">
        <ele>737.0</ele>
        <time>2020-07-19T10:17:06.453Z</time>
      </trkpt>
      <trkpt lat="41.69098333" lon="-4.760905">
        <ele>737.0</ele>
        <time>2020-07-19T10:17:07.453Z</time>
      </trkpt>
      <trkpt lat="41.69093833" lon="-4.76088">
        <ele>737.0</ele>
        <time>2020-07-19T10:17:08.453Z</time>
      </trkpt>
      <trkpt lat="41.69089167" lon="-4.76085333">
        <ele>736.0</ele>
        <time>2020-07-19T10:17:09.453Z</time>
      </trkpt>
      <trkpt lat="41.69084667" lon="-4.760825">
        <ele>736.0</ele>
        <time>2020-07-19T10:17:10.453Z</time>
      </trkpt>
      <trkpt lat="41.69080167" lon="-4.7608">
        <ele>736.0</ele>
        <time>2020-07-19T10:17:11.453Z</time>
      </trkpt>
      <trkpt lat="41.69075667" lon="-4.760775">
        <ele>736.0</ele>
        <time>2020-07-19T10:17:12.453Z</time>
      </trkpt>
      <trkpt lat="41.690715" lon="-4.76075">
        <ele>736.0</ele>
        <time>2020-07-19T10:17:13.453Z</time>
      </trkpt>
      <trkpt lat="41.69067667" lon="-4.76072167">
        <ele>736.0</ele>
        <time>2020-07-19T10:17:14.453Z</time>
      </trkpt>
      <trkpt lat="41.69064333" lon="-4.76068833">
        <ele>736.0</ele>
        <time>2020-07-19T10:17:15.453Z</time>
      </trkpt>
      <trkpt lat="41.690615" lon="-4.76065167">
        <ele>736.0</ele>
        <time>2020-07-19T10:17:16.453Z</time>
      </trkpt>
      <trkpt lat="41.69059167" lon="-4.76060667">
        <ele>736.0</ele>
        <time>2020-07-19T10:17:17.453Z</time>
      </trkpt>
      <trkpt lat="41.69057167" lon="-4.760555">
        <ele>736.0</ele>
        <time>2020-07-19T10:17:18.453Z</time>
      </trkpt>
      <trkpt lat="41.69055167" lon="-4.76050167">
        <ele>736.0</ele>
        <time>2020-07-19T10:17:19.453Z</time>
      </trkpt>
      <trkpt lat="41.69053333" lon="-4.76044667">
        <ele>736.0</ele>
        <time>2020-07-19T10:17:20.453Z</time>
      </trkpt>
      <trkpt lat="41.690515" lon="-4.76039167">
        <ele>736.0</ele>
        <time>2020-07-19T10:17:21.453Z</time>
      </trkpt>
      <trkpt lat="41.69049833" lon="-4.76033667">
        <ele>736.0</ele>
        <time>2020-07-19T10:17:22.453Z</time>
      </trkpt>
      <trkpt lat="41.69048" lon="-4.76028">
        <ele>736.0</ele>
        <time>2020-07-19T10:17:23.453Z</time>
      </trkpt>
      <trkpt lat="41.69046333" lon="-4.760225">
        <ele>736.0</ele>
        <time>2020-07-19T10:17:24.453Z</time>
      </trkpt>
      <trkpt lat="41.69044333" lon="-4.76016833">
        <ele>736.0</ele>
        <time>2020-07-19T10:17:25.453Z</time>
      </trkpt>
      <trkpt lat="41.69042333" lon="-4.76011167">
        <ele>736.0</ele>
        <time>2020-07-19T10:17:26.453Z</time>
      </trkpt>
      <trkpt lat="41.690405" lon="-4.76005333">
        <ele>736.0</ele>
        <time>2020-07-19T10:17:27.453Z</time>
      </trkpt>
      <trkpt lat="41.69038833" lon="-4.759995">
        <ele>736.0</ele>
        <time>2020-07-19T10:17:28.453Z</time>
      </trkpt>
      <trkpt lat="41.69037" lon="-4.75993667">
        <ele>736.0</ele>
        <time>2020-07-19T10:17:29.453Z</time>
      </trkpt>
      <trkpt lat="41.69035" lon="-4.75987833">
        <ele>736.0</ele>
        <time>2020-07-19T10:17:30.453Z</time>
      </trkpt>
      <trkpt lat="41.69033167" lon="-4.75982167">
        <ele>736.0</ele>
        <time>2020-07-19T10:17:31.453Z</time>
      </trkpt>
      <trkpt lat="41.690315" lon="-4.759765">
        <ele>736.0</ele>
        <time>2020-07-19T10:17:32.453Z</time>
      </trkpt>
      <trkpt lat="41.69029833" lon="-4.75971">
        <ele>736.0</ele>
        <time>2020-07-19T10:17:33.453Z</time>
      </trkpt>
      <trkpt lat="41.69027833" lon="-4.75965667">
        <ele>736.0</ele>
        <time>2020-07-19T10:17:34.453Z</time>
      </trkpt>
      <trkpt lat="41.69026167" lon="-4.75960333">
        <ele>737.0</ele>
        <time>2020-07-19T10:17:35.453Z</time>
      </trkpt>
      <trkpt lat="41.690245" lon="-4.75955333">
        <ele>737.0</ele>
        <time>2020-07-19T10:17:36.453Z</time>
      </trkpt>
      <trkpt lat="41.69023167" lon="-4.75950167">
        <ele>737.0</ele>
        <time>2020-07-19T10:17:37.453Z</time>
      </trkpt>
      <trkpt lat="41.69021667" lon="-4.75944833">
        <ele>737.0</ele>
        <time>2020-07-19T10:17:38.453Z</time>
      </trkpt>
      <trkpt lat="41.69020667" lon="-4.75939333">
        <ele>737.0</ele>
        <time>2020-07-19T10:17:39.453Z</time>
      </trkpt>
      <trkpt lat="41.69019833" lon="-4.759335">
        <ele>737.0</ele>
        <time>2020-07-19T10:17:40.453Z</time>
      </trkpt>
      <trkpt lat="41.69019333" lon="-4.759275">
        <ele>737.0</ele>
        <time>2020-07-19T10:17:41.453Z</time>
      </trkpt>
      <trkpt lat="41.69019167" lon="-4.75921167">
        <ele>737.0</ele>
        <time>2020-07-19T10:17:42.453Z</time>
      </trkpt>
      <trkpt lat="41.69019167" lon="-4.75915">
        <ele>737.0</ele>
        <time>2020-07-19T10:17:43.453Z</time>
      </trkpt>
      <trkpt lat="41.69019167" lon="-4.75908833">
        <ele>737.0</ele>
        <time>2020-07-19T10:17:44.453Z</time>
      </trkpt>
      <trkpt lat="41.69019167" lon="-4.75903">
        <ele>737.0</ele>
        <time>2020-07-19T10:17:45.453Z</time>
      </trkpt>
      <trkpt lat="41.69019" lon="-4.75897">
        <ele>737.0</ele>
        <time>2020-07-19T10:17:46.453Z</time>
      </trkpt>
      <trkpt lat="41.690185" lon="-4.75891167">
        <ele>736.0</ele>
        <time>2020-07-19T10:17:47.453Z</time>
      </trkpt>
      <trkpt lat="41.690175" lon="-4.758855">
        <ele>736.0</ele>
        <time>2020-07-19T10:17:48.453Z</time>
      </trkpt>
      <trkpt lat="41.69016833" lon="-4.75879833">
        <ele>736.0</ele>
        <time>2020-07-19T10:17:49.453Z</time>
      </trkpt>
      <trkpt lat="41.69016333" lon="-4.75874167">
        <ele>736.0</ele>
        <time>2020-07-19T10:17:50.453Z</time>
      </trkpt>
      <trkpt lat="41.69015667" lon="-4.758685">
        <ele>736.0</ele>
        <time>2020-07-19T10:17:51.453Z</time>
      </trkpt>
      <trkpt lat="41.69015" lon="-4.75862833">
        <ele>736.0</ele>
        <time>2020-07-19T10:17:52.453Z</time>
      </trkpt>
      <trkpt lat="41.69014833" lon="-4.75857">
        <ele>736.0</ele>
        <time>2020-07-19T10:17:53.453Z</time>
      </trkpt>
      <trkpt lat="41.690145" lon="-4.75851167">
        <ele>736.0</ele>
        <time>2020-07-19T10:17:54.453Z</time>
      </trkpt>
      <trkpt lat="41.69013667" lon="-4.75845333">
        <ele>736.0</ele>
        <time>2020-07-19T10:17:55.453Z</time>
      </trkpt>
      <trkpt lat="41.69012833" lon="-4.758395">
        <ele>736.0</ele>
        <time>2020-07-19T10:17:56.453Z</time>
      </trkpt>
      <trkpt lat="41.69012167" lon="-4.75833333">
        <ele>736.0</ele>
        <time>2020-07-19T10:17:57.453Z</time>
      </trkpt>
      <trkpt lat="41.69012" lon="-4.75827167">
        <ele>736.0</ele>
        <time>2020-07-19T10:17:58.453Z</time>
      </trkpt>
      <trkpt lat="41.69012" lon="-4.75820833">
        <ele>736.0</ele>
        <time>2020-07-19T10:17:59.453Z</time>
      </trkpt>
      <trkpt lat="41.69012167" lon="-4.758145">
        <ele>736.0</ele>
        <time>2020-07-19T10:18:00.453Z</time>
      </trkpt>
      <trkpt lat="41.69012333" lon="-4.75808167">
        <ele>736.0</ele>
        <time>2020-07-19T10:18:01.453Z</time>
      </trkpt>
      <trkpt lat="41.69012833" lon="-4.75801667">
        <ele>736.0</ele>
        <time>2020-07-19T10:18:02.453Z</time>
      </trkpt>
      <trkpt lat="41.69013333" lon="-4.75795333">
        <ele>736.0</ele>
        <time>2020-07-19T10:18:03.453Z</time>
      </trkpt>
      <trkpt lat="41.69013667" lon="-4.75788833">
        <ele>736.0</ele>
        <time>2020-07-19T10:18:04.453Z</time>
      </trkpt>
      <trkpt lat="41.69013833" lon="-4.75782333">
        <ele>736.0</ele>
        <time>2020-07-19T10:18:05.453Z</time>
      </trkpt>
      <trkpt lat="41.69014" lon="-4.75775667">
        <ele>736.0</ele>
        <time>2020-07-19T10:18:06.453Z</time>
      </trkpt>
      <trkpt lat="41.69014833" lon="-4.75769333">
        <ele>736.0</ele>
        <time>2020-07-19T10:18:07.453Z</time>
      </trkpt>
      <trkpt lat="41.69016" lon="-4.75762833">
        <ele>736.0</ele>
        <time>2020-07-19T10:18:08.453Z</time>
      </trkpt>
      <trkpt lat="41.69017333" lon="-4.75756333">
        <ele>736.0</ele>
        <time>2020-07-19T10:18:09.453Z</time>
      </trkpt>
      <trkpt lat="41.690185" lon="-4.75749833">
        <ele>736.0</ele>
        <time>2020-07-19T10:18:10.453Z</time>
      </trkpt>
      <trkpt lat="41.690195" lon="-4.75743333">
        <ele>736.0</ele>
        <time>2020-07-19T10:18:11.453Z</time>
      </trkpt>
      <trkpt lat="41.69020167" lon="-4.75736833">
        <ele>736.0</ele>
        <time>2020-07-19T10:18:12.453Z</time>
      </trkpt>
      <trkpt lat="41.69020833" lon="-4.757305">
        <ele>736.0</ele>
        <time>2020-07-19T10:18:13.453Z</time>
      </trkpt>
      <trkpt lat="41.69021333" lon="-4.75724">
        <ele>736.0</ele>
        <time>2020-07-19T10:18:14.453Z</time>
      </trkpt>
      <trkpt lat="41.69021833" lon="-4.75717667">
        <ele>736.0</ele>
        <time>2020-07-19T10:18:15.453Z</time>
      </trkpt>
      <trkpt lat="41.69022833" lon="-4.75711333">
        <ele>736.0</ele>
        <time>2020-07-19T10:18:16.453Z</time>
      </trkpt>
      <trkpt lat="41.690235" lon="-4.75705">
        <ele>736.0</ele>
        <time>2020-07-19T10:18:17.453Z</time>
      </trkpt>
      <trkpt lat="41.69024333" lon="-4.75698667">
        <ele>736.0</ele>
        <time>2020-07-19T10:18:18.453Z</time>
      </trkpt>
      <trkpt lat="41.69025333" lon="-4.756925">
        <ele>736.0</ele>
        <time>2020-07-19T10:18:19.453Z</time>
      </trkpt>
      <trkpt lat="41.69026167" lon="-4.75686">
        <ele>736.0</ele>
        <time>2020-07-19T10:18:20.453Z</time>
      </trkpt>
      <trkpt lat="41.69027167" lon="-4.75679667">
        <ele>736.0</ele>
        <time>2020-07-19T10:18:21.453Z</time>
      </trkpt>
      <trkpt lat="41.69027833" lon="-4.75673">
        <ele>736.0</ele>
        <time>2020-07-19T10:18:22.453Z</time>
      </trkpt>
      <trkpt lat="41.69029" lon="-4.75666333">
        <ele>736.0</ele>
        <time>2020-07-19T10:18:23.453Z</time>
      </trkpt>
      <trkpt lat="41.6903" lon="-4.75659">
        <ele>736.0</ele>
        <time>2020-07-19T10:18:24.453Z</time>
      </trkpt>
      <trkpt lat="41.690305" lon="-4.75651333">
        <ele>736.0</ele>
        <time>2020-07-19T10:18:25.453Z</time>
      </trkpt>
      <trkpt lat="41.69031167" lon="-4.756435">
        <ele>736.0</ele>
        <time>2020-07-19T10:18:26.453Z</time>
      </trkpt>
      <trkpt lat="41.69032" lon="-4.75635667">
        <ele>736.0</ele>
        <time>2020-07-19T10:18:27.453Z</time>
      </trkpt>
      <trkpt lat="41.69033" lon="-4.75627833">
        <ele>736.0</ele>
        <time>2020-07-19T10:18:28.453Z</time>
      </trkpt>
      <trkpt lat="41.69033833" lon="-4.7562">
        <ele>736.0</ele>
        <time>2020-07-19T10:18:29.453Z</time>
      </trkpt>
      <trkpt lat="41.69034667" lon="-4.75612167">
        <ele>736.0</ele>
        <time>2020-07-19T10:18:30.453Z</time>
      </trkpt>
      <trkpt lat="41.69035667" lon="-4.75604667">
        <ele>736.0</ele>
        <time>2020-07-19T10:18:31.453Z</time>
      </trkpt>
      <trkpt lat="41.690365" lon="-4.75597333">
        <ele>736.0</ele>
        <time>2020-07-19T10:18:32.453Z</time>
      </trkpt>
      <trkpt lat="41.69037333" lon="-4.7559">
        <ele>736.0</ele>
        <time>2020-07-19T10:18:33.453Z</time>
      </trkpt>
      <trkpt lat="41.69038167" lon="-4.75583">
        <ele>736.0</ele>
        <time>2020-07-19T10:18:34.453Z</time>
      </trkpt>
      <trkpt lat="41.69038833" lon="-4.75575833">
        <ele>736.0</ele>
        <time>2020-07-19T10:18:35.453Z</time>
      </trkpt>
      <trkpt lat="41.69039667" lon="-4.75569">
        <ele>736.0</ele>
        <time>2020-07-19T10:18:36.453Z</time>
      </trkpt>
      <trkpt lat="41.69040167" lon="-4.75562">
        <ele>736.0</ele>
        <time>2020-07-19T10:18:37.453Z</time>
      </trkpt>
      <trkpt lat="41.69040667" lon="-4.75555167">
        <ele>736.0</ele>
        <time>2020-07-19T10:18:38.453Z</time>
      </trkpt>
      <trkpt lat="41.69041" lon="-4.75548167">
        <ele>736.0</ele>
        <time>2020-07-19T10:18:39.453Z</time>
      </trkpt>
      <trkpt lat="41.690415" lon="-4.755415">
        <ele>736.0</ele>
        <time>2020-07-19T10:18:40.453Z</time>
      </trkpt>
      <trkpt lat="41.69042167" lon="-4.75534667">
        <ele>736.0</ele>
        <time>2020-07-19T10:18:41.453Z</time>
      </trkpt>
      <trkpt lat="41.69042833" lon="-4.75528">
        <ele>736.0</ele>
        <time>2020-07-19T10:18:42.453Z</time>
      </trkpt>
      <trkpt lat="41.69043333" lon="-4.755215">
        <ele>736.0</ele>
        <time>2020-07-19T10:18:43.453Z</time>
      </trkpt>
      <trkpt lat="41.69043833" lon="-4.75514833">
        <ele>736.0</ele>
        <time>2020-07-19T10:18:44.453Z</time>
      </trkpt>
      <trkpt lat="41.69044667" lon="-4.755085">
        <ele>736.0</ele>
        <time>2020-07-19T10:18:45.453Z</time>
      </trkpt>
      <trkpt lat="41.690455" lon="-4.75502167">
        <ele>736.0</ele>
        <time>2020-07-19T10:18:46.453Z</time>
      </trkpt>
      <trkpt lat="41.69046333" lon="-4.75495833">
        <ele>736.0</ele>
        <time>2020-07-19T10:18:47.453Z</time>
      </trkpt>
      <trkpt lat="41.69046667" lon="-4.75489667">
        <ele>736.0</ele>
        <time>2020-07-19T10:18:48.453Z</time>
      </trkpt>
      <trkpt lat="41.69046833" lon="-4.754835">
        <ele>736.0</ele>
        <time>2020-07-19T10:18:49.453Z</time>
      </trkpt>
      <trkpt lat="41.69047" lon="-4.75477333">
        <ele>736.0</ele>
        <time>2020-07-19T10:18:50.453Z</time>
      </trkpt>
      <trkpt lat="41.69047" lon="-4.75471167">
        <ele>736.0</ele>
        <time>2020-07-19T10:18:51.453Z</time>
      </trkpt>
      <trkpt lat="41.69047" lon="-4.75465">
        <ele>736.0</ele>
        <time>2020-07-19T10:18:52.453Z</time>
      </trkpt>
      <trkpt lat="41.69047167" lon="-4.75458667">
        <ele>736.0</ele>
        <time>2020-07-19T10:18:53.453Z</time>
      </trkpt>
      <trkpt lat="41.69046833" lon="-4.75452167">
        <ele>736.0</ele>
        <time>2020-07-19T10:18:54.453Z</time>
      </trkpt>
      <trkpt lat="41.69046667" lon="-4.754455">
        <ele>735.0</ele>
        <time>2020-07-19T10:18:55.453Z</time>
      </trkpt>
      <trkpt lat="41.69046167" lon="-4.75438667">
        <ele>735.0</ele>
        <time>2020-07-19T10:18:56.453Z</time>
      </trkpt>
      <trkpt lat="41.69045667" lon="-4.75431833">
        <ele>735.0</ele>
        <time>2020-07-19T10:18:57.453Z</time>
      </trkpt>
      <trkpt lat="41.69045167" lon="-4.75425">
        <ele>735.0</ele>
        <time>2020-07-19T10:18:58.453Z</time>
      </trkpt>
      <trkpt lat="41.69044667" lon="-4.75418167">
        <ele>735.0</ele>
        <time>2020-07-19T10:18:59.453Z</time>
      </trkpt>
      <trkpt lat="41.69044" lon="-4.75411333">
        <ele>735.0</ele>
        <time>2020-07-19T10:19:00.453Z</time>
      </trkpt>
      <trkpt lat="41.69043167" lon="-4.75404667">
        <ele>735.0</ele>
        <time>2020-07-19T10:19:01.453Z</time>
      </trkpt>
      <trkpt lat="41.69042333" lon="-4.75398167">
        <ele>735.0</ele>
        <time>2020-07-19T10:19:02.453Z</time>
      </trkpt>
      <trkpt lat="41.690415" lon="-4.75391667">
        <ele>735.0</ele>
        <time>2020-07-19T10:19:03.453Z</time>
      </trkpt>
      <trkpt lat="41.690405" lon="-4.75385333">
        <ele>735.0</ele>
        <time>2020-07-19T10:19:04.453Z</time>
      </trkpt>
      <trkpt lat="41.690395" lon="-4.75379">
        <ele>735.0</ele>
        <time>2020-07-19T10:19:05.453Z</time>
      </trkpt>
      <trkpt lat="41.69038833" lon="-4.753725">
        <ele>735.0</ele>
        <time>2020-07-19T10:19:06.453Z</time>
      </trkpt>
      <trkpt lat="41.69038333" lon="-4.75366167">
        <ele>735.0</ele>
        <time>2020-07-19T10:19:07.453Z</time>
      </trkpt>
      <trkpt lat="41.69037667" lon="-4.75359667">
        <ele>735.0</ele>
        <time>2020-07-19T10:19:08.453Z</time>
      </trkpt>
      <trkpt lat="41.69036833" lon="-4.75353333">
        <ele>735.0</ele>
        <time>2020-07-19T10:19:09.453Z</time>
      </trkpt>
      <trkpt lat="41.69035667" lon="-4.75347">
        <ele>735.0</ele>
        <time>2020-07-19T10:19:10.453Z</time>
      </trkpt>
      <trkpt lat="41.69034" lon="-4.75341">
        <ele>735.0</ele>
        <time>2020-07-19T10:19:11.453Z</time>
      </trkpt>
      <trkpt lat="41.690325" lon="-4.75335">
        <ele>735.0</ele>
        <time>2020-07-19T10:19:12.453Z</time>
      </trkpt>
      <trkpt lat="41.69031667" lon="-4.75328667">
        <ele>735.0</ele>
        <time>2020-07-19T10:19:13.453Z</time>
      </trkpt>
      <trkpt lat="41.69030833" lon="-4.75322333">
        <ele>735.0</ele>
        <time>2020-07-19T10:19:14.453Z</time>
      </trkpt>
      <trkpt lat="41.69030167" lon="-4.75316">
        <ele>735.0</ele>
        <time>2020-07-19T10:19:15.453Z</time>
      </trkpt>
      <trkpt lat="41.69029333" lon="-4.75309667">
        <ele>735.0</ele>
        <time>2020-07-19T10:19:16.453Z</time>
      </trkpt>
      <trkpt lat="41.69028833" lon="-4.75303333">
        <ele>735.0</ele>
        <time>2020-07-19T10:19:17.453Z</time>
      </trkpt>
      <trkpt lat="41.69028333" lon="-4.75297167">
        <ele>735.0</ele>
        <time>2020-07-19T10:19:18.453Z</time>
      </trkpt>
      <trkpt lat="41.69028" lon="-4.75290833">
        <ele>735.0</ele>
        <time>2020-07-19T10:19:19.453Z</time>
      </trkpt>
      <trkpt lat="41.69027833" lon="-4.75284667">
        <ele>735.0</ele>
        <time>2020-07-19T10:19:20.453Z</time>
      </trkpt>
      <trkpt lat="41.69027667" lon="-4.75278333">
        <ele>735.0</ele>
        <time>2020-07-19T10:19:21.453Z</time>
      </trkpt>
      <trkpt lat="41.690275" lon="-4.75272">
        <ele>735.0</ele>
        <time>2020-07-19T10:19:22.453Z</time>
      </trkpt>
      <trkpt lat="41.690275" lon="-4.75265667">
        <ele>735.0</ele>
        <time>2020-07-19T10:19:23.453Z</time>
      </trkpt>
      <trkpt lat="41.69027833" lon="-4.752595">
        <ele>735.0</ele>
        <time>2020-07-19T10:19:24.453Z</time>
      </trkpt>
      <trkpt lat="41.690285" lon="-4.75253333">
        <ele>735.0</ele>
        <time>2020-07-19T10:19:25.453Z</time>
      </trkpt>
      <trkpt lat="41.69029333" lon="-4.75247333">
        <ele>735.0</ele>
        <time>2020-07-19T10:19:26.453Z</time>
      </trkpt>
      <trkpt lat="41.69030167" lon="-4.75241333">
        <ele>735.0</ele>
        <time>2020-07-19T10:19:27.453Z</time>
      </trkpt>
      <trkpt lat="41.69031333" lon="-4.75235333">
        <ele>735.0</ele>
        <time>2020-07-19T10:19:28.453Z</time>
      </trkpt>
      <trkpt lat="41.69032333" lon="-4.752295">
        <ele>735.0</ele>
        <time>2020-07-19T10:19:29.453Z</time>
      </trkpt>
      <trkpt lat="41.69033167" lon="-4.752235">
        <ele>735.0</ele>
        <time>2020-07-19T10:19:30.453Z</time>
      </trkpt>
      <trkpt lat="41.69034167" lon="-4.752175">
        <ele>735.0</ele>
        <time>2020-07-19T10:19:31.453Z</time>
      </trkpt>
      <trkpt lat="41.69035167" lon="-4.75211667">
        <ele>735.0</ele>
        <time>2020-07-19T10:19:32.453Z</time>
      </trkpt>
      <trkpt lat="41.690365" lon="-4.75206">
        <ele>735.0</ele>
        <time>2020-07-19T10:19:33.453Z</time>
      </trkpt>
      <trkpt lat="41.69037833" lon="-4.75200333">
        <ele>735.0</ele>
        <time>2020-07-19T10:19:34.453Z</time>
      </trkpt>
      <trkpt lat="41.69039" lon="-4.75194667">
        <ele>735.0</ele>
        <time>2020-07-19T10:19:35.453Z</time>
      </trkpt>
      <trkpt lat="41.69040167" lon="-4.75189">
        <ele>735.0</ele>
        <time>2020-07-19T10:19:36.453Z</time>
      </trkpt>
      <trkpt lat="41.69041833" lon="-4.751835">
        <ele>735.0</ele>
        <time>2020-07-19T10:19:37.453Z</time>
      </trkpt>
      <trkpt lat="41.69043333" lon="-4.75178">
        <ele>735.0</ele>
        <time>2020-07-19T10:19:38.453Z</time>
      </trkpt>
      <trkpt lat="41.69045" lon="-4.75172667">
        <ele>735.0</ele>
        <time>2020-07-19T10:19:39.453Z</time>
      </trkpt>
      <trkpt lat="41.69047" lon="-4.75167333">
        <ele>735.0</ele>
        <time>2020-07-19T10:19:40.453Z</time>
      </trkpt>
      <trkpt lat="41.69049167" lon="-4.75162167">
        <ele>735.0</ele>
        <time>2020-07-19T10:19:41.453Z</time>
      </trkpt>
      <trkpt lat="41.690515" lon="-4.75157">
        <ele>735.0</ele>
        <time>2020-07-19T10:19:42.453Z</time>
      </trkpt>
      <trkpt lat="41.69053833" lon="-4.75151833">
        <ele>735.0</ele>
        <time>2020-07-19T10:19:43.453Z</time>
      </trkpt>
      <trkpt lat="41.690565" lon="-4.75146667">
        <ele>735.0</ele>
        <time>2020-07-19T10:19:44.453Z</time>
      </trkpt>
      <trkpt lat="41.69059167" lon="-4.751415">
        <ele>735.0</ele>
        <time>2020-07-19T10:19:45.453Z</time>
      </trkpt>
      <trkpt lat="41.69061833" lon="-4.75136333">
        <ele>735.0</ele>
        <time>2020-07-19T10:19:46.453Z</time>
      </trkpt>
      <trkpt lat="41.69064833" lon="-4.75131167">
        <ele>735.0</ele>
        <time>2020-07-19T10:19:47.453Z</time>
      </trkpt>
      <trkpt lat="41.690675" lon="-4.75126">
        <ele>735.0</ele>
        <time>2020-07-19T10:19:48.453Z</time>
      </trkpt>
      <trkpt lat="41.6907" lon="-4.751205">
        <ele>735.0</ele>
        <time>2020-07-19T10:19:49.453Z</time>
      </trkpt>
      <trkpt lat="41.69072667" lon="-4.75115333">
        <ele>735.0</ele>
        <time>2020-07-19T10:19:50.453Z</time>
      </trkpt>
      <trkpt lat="41.69075" lon="-4.75109833">
        <ele>735.0</ele>
        <time>2020-07-19T10:19:51.453Z</time>
      </trkpt>
      <trkpt lat="41.690775" lon="-4.751045">
        <ele>735.0</ele>
        <time>2020-07-19T10:19:52.453Z</time>
      </trkpt>
      <trkpt lat="41.69079667" lon="-4.75098833">
        <ele>735.0</ele>
        <time>2020-07-19T10:19:53.453Z</time>
      </trkpt>
      <trkpt lat="41.69081667" lon="-4.75093">
        <ele>735.0</ele>
        <time>2020-07-19T10:19:54.453Z</time>
      </trkpt>
      <trkpt lat="41.69083667" lon="-4.75087167">
        <ele>735.0</ele>
        <time>2020-07-19T10:19:55.453Z</time>
      </trkpt>
      <trkpt lat="41.690855" lon="-4.75081">
        <ele>735.0</ele>
        <time>2020-07-19T10:19:56.453Z</time>
      </trkpt>
      <trkpt lat="41.69087167" lon="-4.75075167">
        <ele>735.0</ele>
        <time>2020-07-19T10:19:57.453Z</time>
      </trkpt>
      <trkpt lat="41.69088833" lon="-4.75069167">
        <ele>735.0</ele>
        <time>2020-07-19T10:19:58.453Z</time>
      </trkpt>
      <trkpt lat="41.690905" lon="-4.75063">
        <ele>735.0</ele>
        <time>2020-07-19T10:19:59.453Z</time>
      </trkpt>
      <trkpt lat="41.69092167" lon="-4.75056833">
        <ele>735.0</ele>
        <time>2020-07-19T10:20:00.453Z</time>
      </trkpt>
      <trkpt lat="41.69093667" lon="-4.750505">
        <ele>735.0</ele>
        <time>2020-07-19T10:20:01.453Z</time>
      </trkpt>
      <trkpt lat="41.69095167" lon="-4.75044333">
        <ele>735.0</ele>
        <time>2020-07-19T10:20:02.453Z</time>
      </trkpt>
      <trkpt lat="41.69096667" lon="-4.75038">
        <ele>734.0</ele>
        <time>2020-07-19T10:20:03.453Z</time>
      </trkpt>
      <trkpt lat="41.69098333" lon="-4.75031667">
        <ele>734.0</ele>
        <time>2020-07-19T10:20:04.453Z</time>
      </trkpt>
      <trkpt lat="41.691" lon="-4.75025333">
        <ele>734.0</ele>
        <time>2020-07-19T10:20:05.453Z</time>
      </trkpt>
      <trkpt lat="41.691015" lon="-4.75019">
        <ele>734.0</ele>
        <time>2020-07-19T10:20:06.453Z</time>
      </trkpt>
      <trkpt lat="41.69103167" lon="-4.75012833">
        <ele>734.0</ele>
        <time>2020-07-19T10:20:07.453Z</time>
      </trkpt>
      <trkpt lat="41.69104833" lon="-4.75007333">
        <ele>734.0</ele>
        <time>2020-07-19T10:20:08.453Z</time>
      </trkpt>
      <trkpt lat="41.69106167" lon="-4.75002333">
        <ele>734.0</ele>
        <time>2020-07-19T10:20:09.453Z</time>
      </trkpt>
      <trkpt lat="41.691075" lon="-4.74998">
        <ele>734.0</ele>
        <time>2020-07-19T10:20:10.453Z</time>
      </trkpt>
      <trkpt lat="41.69109167" lon="-4.74994167">
        <ele>734.0</ele>
        <time>2020-07-19T10:20:11.453Z</time>
      </trkpt>
      <trkpt lat="41.69110167" lon="-4.74990667">
        <ele>734.0</ele>
        <time>2020-07-19T10:20:12.453Z</time>
      </trkpt>
      <trkpt lat="41.69110833" lon="-4.74987833">
        <ele>734.0</ele>
        <time>2020-07-19T10:20:13.453Z</time>
      </trkpt>
      <trkpt lat="41.69110833" lon="-4.74986">
        <ele>734.0</ele>
        <time>2020-07-19T10:20:14.453Z</time>
      </trkpt>
      <trkpt lat="41.69111" lon="-4.74985667">
        <ele>734.0</ele>
        <time>2020-07-19T10:20:15.453Z</time>
      </trkpt>
      <trkpt lat="41.69110833" lon="-4.74985833">
        <ele>734.0</ele>
        <time>2020-07-19T10:20:16.453Z</time>
      </trkpt>
      <trkpt lat="41.69111167" lon="-4.749855">
        <ele>734.0</ele>
        <time>2020-07-19T10:20:17.453Z</time>
      </trkpt>
      <trkpt lat="41.69111333" lon="-4.749855">
        <ele>734.0</ele>
        <time>2020-07-19T10:20:18.453Z</time>
      </trkpt>
      <trkpt lat="41.69111333" lon="-4.749855">
        <ele>734.0</ele>
        <time>2020-07-19T10:20:19.453Z</time>
      </trkpt>
      <trkpt lat="41.691115" lon="-4.749855">
        <ele>734.0</ele>
        <time>2020-07-19T10:20:20.453Z</time>
      </trkpt>
      <trkpt lat="41.69111333" lon="-4.74985167">
        <ele>734.0</ele>
        <time>2020-07-19T10:20:21.453Z</time>
      </trkpt>
      <trkpt lat="41.69111333" lon="-4.74985167">
        <ele>734.0</ele>
        <time>2020-07-19T10:20:22.453Z</time>
      </trkpt>
      <trkpt lat="41.69111333" lon="-4.74985167">
        <ele>734.0</ele>
        <time>2020-07-19T10:20:23.453Z</time>
      </trkpt>
      <trkpt lat="41.69111333" lon="-4.74985">
        <ele>734.0</ele>
        <time>2020-07-19T10:20:24.453Z</time>
      </trkpt>
      <trkpt lat="41.69111333" lon="-4.74985">
        <ele>734.0</ele>
        <time>2020-07-19T10:20:25.453Z</time>
      </trkpt>
      <trkpt lat="41.69111333" lon="-4.74985">
        <ele>734.0</ele>
        <time>2020-07-19T10:20:26.453Z</time>
      </trkpt>
      <trkpt lat="41.69111333" lon="-4.74985">
        <ele>734.0</ele>
        <time>2020-07-19T10:20:27.453Z</time>
      </trkpt>
      <trkpt lat="41.69111333" lon="-4.74985">
        <ele>734.0</ele>
        <time>2020-07-19T10:20:28.453Z</time>
      </trkpt>
      <trkpt lat="41.69111167" lon="-4.74985">
        <ele>734.0</ele>
        <time>2020-07-19T10:20:29.453Z</time>
      </trkpt>
      <trkpt lat="41.69111167" lon="-4.74985">
        <ele>734.0</ele>
        <time>2020-07-19T10:20:30.453Z</time>
      </trkpt>
      <trkpt lat="41.69111333" lon="-4.74985">
        <ele>734.0</ele>
        <time>2020-07-19T10:20:31.453Z</time>
      </trkpt>
      <trkpt lat="41.69111333" lon="-4.74985">
        <ele>734.0</ele>
        <time>2020-07-19T10:20:32.453Z</time>
      </trkpt>
      <trkpt lat="41.69111333" lon="-4.74985">
        <ele>734.0</ele>
        <time>2020-07-19T10:20:33.453Z</time>
      </trkpt>
      <trkpt lat="41.69111333" lon="-4.74985">
        <ele>734.0</ele>
        <time>2020-07-19T10:20:34.453Z</time>
      </trkpt>
      <trkpt lat="41.69111333" lon="-4.74985">
        <ele>734.0</ele>
        <time>2020-07-19T10:20:35.453Z</time>
      </trkpt>
      <trkpt lat="41.69111333" lon="-4.74985">
        <ele>734.0</ele>
        <time>2020-07-19T10:20:36.453Z</time>
      </trkpt>
      <trkpt lat="41.69111333" lon="-4.74985">
        <ele>734.0</ele>
        <time>2020-07-19T10:20:37.453Z</time>
      </trkpt>
      <trkpt lat="41.69111333" lon="-4.74985">
        <ele>734.0</ele>
        <time>2020-07-19T10:20:38.453Z</time>
      </trkpt>
      <trkpt lat="41.69111333" lon="-4.74985">
        <ele>734.0</ele>
        <time>2020-07-19T10:20:39.453Z</time>
      </trkpt>
      <trkpt lat="41.69111333" lon="-4.74985">
        <ele>734.0</ele>
        <time>2020-07-19T10:20:40.453Z</time>
      </trkpt>
      <trkpt lat="41.69111333" lon="-4.74985">
        <ele>734.0</ele>
        <time>2020-07-19T10:20:41.453Z</time>
      </trkpt>
      <trkpt lat="41.69111333" lon="-4.74985167">
        <ele>734.0</ele>
        <time>2020-07-19T10:20:42.453Z</time>
      </trkpt>
      <trkpt lat="41.69111333" lon="-4.74985167">
        <ele>734.0</ele>
        <time>2020-07-19T10:20:43.453Z</time>
      </trkpt>
      <trkpt lat="41.69111333" lon="-4.74985167">
        <ele>734.0</ele>
        <time>2020-07-19T10:20:44.453Z</time>
      </trkpt>
      <trkpt lat="41.69111333" lon="-4.74985167">
        <ele>734.0</ele>
        <time>2020-07-19T10:20:45.453Z</time>
      </trkpt>
      <trkpt lat="41.69111333" lon="-4.74985167">
        <ele>734.0</ele>
        <time>2020-07-19T10:20:46.453Z</time>
      </trkpt>
      <trkpt lat="41.69111333" lon="-4.74985167">
        <ele>734.0</ele>
        <time>2020-07-19T10:20:47.453Z</time>
      </trkpt>
      <trkpt lat="41.69111333" lon="-4.74985167">
        <ele>734.0</ele>
        <time>2020-07-19T10:20:48.453Z</time>
      </trkpt>
      <trkpt lat="41.69111333" lon="-4.74985167">
        <ele>734.0</ele>
        <time>2020-07-19T10:20:49.453Z</time>
      </trkpt>
      <trkpt lat="41.69111333" lon="-4.74985167">
        <ele>734.0</ele>
        <time>2020-07-19T10:20:50.453Z</time>
      </trkpt>
      <trkpt lat="41.69111167" lon="-4.74985167">
        <ele>734.0</ele>
        <time>2020-07-19T10:20:51.453Z</time>
      </trkpt>
      <trkpt lat="41.69111167" lon="-4.74985167">
        <ele>734.0</ele>
        <time>2020-07-19T10:20:52.453Z</time>
      </trkpt>
      <trkpt lat="41.69111167" lon="-4.74985167">
        <ele>734.0</ele>
        <time>2020-07-19T10:20:53.453Z</time>
      </trkpt>
      <trkpt lat="41.69111167" lon="-4.74985167">
        <ele>734.0</ele>
        <time>2020-07-19T10:20:54.453Z</time>
      </trkpt>
      <trkpt lat="41.69111333" lon="-4.74985167">
        <ele>734.0</ele>
        <time>2020-07-19T10:20:55.453Z</time>
      </trkpt>
      <trkpt lat="41.69111167" lon="-4.74985167">
        <ele>734.0</ele>
        <time>2020-07-19T10:20:56.453Z</time>
      </trkpt>
      <trkpt lat="41.69111167" lon="-4.74985167">
        <ele>734.0</ele>
        <time>2020-07-19T10:20:57.453Z</time>
      </trkpt>
      <trkpt lat="41.69111167" lon="-4.74985167">
        <ele>734.0</ele>
        <time>2020-07-19T10:20:58.453Z</time>
      </trkpt>
      <trkpt lat="41.69111167" lon="-4.74985167">
        <ele>734.0</ele>
        <time>2020-07-19T10:20:59.453Z</time>
      </trkpt>
      <trkpt lat="41.69111167" lon="-4.74985167">
        <ele>734.0</ele>
        <time>2020-07-19T10:21:00.453Z</time>
      </trkpt>
      <trkpt lat="41.69111167" lon="-4.74985167">
        <ele>734.0</ele>
        <time>2020-07-19T10:21:01.453Z</time>
      </trkpt>
      <trkpt lat="41.69111167" lon="-4.74985167">
        <ele>734.0</ele>
        <time>2020-07-19T10:21:02.453Z</time>
      </trkpt>
      <trkpt lat="41.69111167" lon="-4.74985167">
        <ele>734.0</ele>
        <time>2020-07-19T10:21:03.453Z</time>
      </trkpt>
      <trkpt lat="41.69111167" lon="-4.74985167">
        <ele>734.0</ele>
        <time>2020-07-19T10:21:04.453Z</time>
      </trkpt>
      <trkpt lat="41.69111167" lon="-4.74985167">
        <ele>733.0</ele>
        <time>2020-07-19T10:21:05.453Z</time>
      </trkpt>
      <trkpt lat="41.69111167" lon="-4.74985167">
        <ele>733.0</ele>
        <time>2020-07-19T10:21:06.453Z</time>
      </trkpt>
      <trkpt lat="41.69111167" lon="-4.74985167">
        <ele>733.0</ele>
        <time>2020-07-19T10:21:07.453Z</time>
      </trkpt>
      <trkpt lat="41.69111167" lon="-4.74985167">
        <ele>733.0</ele>
        <time>2020-07-19T10:21:08.453Z</time>
      </trkpt>
      <trkpt lat="41.69111167" lon="-4.74985167">
        <ele>733.0</ele>
        <time>2020-07-19T10:21:09.453Z</time>
      </trkpt>
      <trkpt lat="41.69111167" lon="-4.74985167">
        <ele>733.0</ele>
        <time>2020-07-19T10:21:10.453Z</time>
      </trkpt>
      <trkpt lat="41.69111167" lon="-4.74985167">
        <ele>733.0</ele>
        <time>2020-07-19T10:21:11.453Z</time>
      </trkpt>
      <trkpt lat="41.69111167" lon="-4.74985167">
        <ele>733.0</ele>
        <time>2020-07-19T10:21:12.453Z</time>
      </trkpt>
      <trkpt lat="41.69111167" lon="-4.74985167">
        <ele>733.0</ele>
        <time>2020-07-19T10:21:13.453Z</time>
      </trkpt>
      <trkpt lat="41.69111167" lon="-4.74985167">
        <ele>733.0</ele>
        <time>2020-07-19T10:21:14.453Z</time>
      </trkpt>
      <trkpt lat="41.69111167" lon="-4.74985167">
        <ele>733.0</ele>
        <time>2020-07-19T10:21:15.453Z</time>
      </trkpt>
      <trkpt lat="41.69111167" lon="-4.74985167">
        <ele>733.0</ele>
        <time>2020-07-19T10:21:16.453Z</time>
      </trkpt>
      <trkpt lat="41.69111167" lon="-4.74985167">
        <ele>733.0</ele>
        <time>2020-07-19T10:21:17.453Z</time>
      </trkpt>
      <trkpt lat="41.69111167" lon="-4.74985167">
        <ele>733.0</ele>
        <time>2020-07-19T10:21:18.453Z</time>
      </trkpt>
      <trkpt lat="41.69111167" lon="-4.74985167">
        <ele>733.0</ele>
        <time>2020-07-19T10:21:19.453Z</time>
      </trkpt>
      <trkpt lat="41.69111167" lon="-4.74985167">
        <ele>733.0</ele>
        <time>2020-07-19T10:21:20.453Z</time>
      </trkpt>
      <trkpt lat="41.69111167" lon="-4.74985167">
        <ele>733.0</ele>
        <time>2020-07-19T10:21:21.453Z</time>
      </trkpt>
      <trkpt lat="41.69111167" lon="-4.74985167">
        <ele>733.0</ele>
        <time>2020-07-19T10:21:22.453Z</time>
      </trkpt>
      <trkpt lat="41.69111167" lon="-4.74985167">
        <ele>733.0</ele>
        <time>2020-07-19T10:21:23.453Z</time>
      </trkpt>
      <trkpt lat="41.69111167" lon="-4.74985167">
        <ele>733.0</ele>
        <time>2020-07-19T10:21:24.453Z</time>
      </trkpt>
      <trkpt lat="41.69111" lon="-4.74985167">
        <ele>733.0</ele>
        <time>2020-07-19T10:21:25.453Z</time>
      </trkpt>
      <trkpt lat="41.69111" lon="-4.74985167">
        <ele>733.0</ele>
        <time>2020-07-19T10:21:26.453Z</time>
      </trkpt>
      <trkpt lat="41.69111" lon="-4.74985167">
        <ele>733.0</ele>
        <time>2020-07-19T10:21:27.453Z</time>
      </trkpt>
      <trkpt lat="41.69111" lon="-4.74985167">
        <ele>733.0</ele>
        <time>2020-07-19T10:21:28.453Z</time>
      </trkpt>
      <trkpt lat="41.69111" lon="-4.74985167">
        <ele>733.0</ele>
        <time>2020-07-19T10:21:29.453Z</time>
      </trkpt>
      <trkpt lat="41.69111" lon="-4.74985167">
        <ele>733.0</ele>
        <time>2020-07-19T10:21:30.453Z</time>
      </trkpt>
      <trkpt lat="41.69111167" lon="-4.74985167">
        <ele>733.0</ele>
        <time>2020-07-19T10:21:31.453Z</time>
      </trkpt>
      <trkpt lat="41.69111667" lon="-4.74985667">
        <ele>733.0</ele>
        <time>2020-07-19T10:21:32.453Z</time>
      </trkpt>
      <trkpt lat="41.69112" lon="-4.74985833">
        <ele>733.0</ele>
        <time>2020-07-19T10:21:33.453Z</time>
      </trkpt>
      <trkpt lat="41.69112" lon="-4.74985833">
        <ele>733.0</ele>
        <time>2020-07-19T10:21:34.453Z</time>
      </trkpt>
      <trkpt lat="41.69111833" lon="-4.74985833">
        <ele>733.0</ele>
        <time>2020-07-19T10:21:35.453Z</time>
      </trkpt>
      <trkpt lat="41.69111833" lon="-4.74985833">
        <ele>733.0</ele>
        <time>2020-07-19T10:21:36.453Z</time>
      </trkpt>
      <trkpt lat="41.69111833" lon="-4.74985833">
        <ele>733.0</ele>
        <time>2020-07-19T10:21:37.453Z</time>
      </trkpt>
      <trkpt lat="41.69111667" lon="-4.74985833">
        <ele>733.0</ele>
        <time>2020-07-19T10:21:38.453Z</time>
      </trkpt>
      <trkpt lat="41.69111667" lon="-4.74985833">
        <ele>733.0</ele>
        <time>2020-07-19T10:21:39.453Z</time>
      </trkpt>
      <trkpt lat="41.69111667" lon="-4.74985667">
        <ele>733.0</ele>
        <time>2020-07-19T10:21:40.453Z</time>
      </trkpt>
      <trkpt lat="41.69111667" lon="-4.74985">
        <ele>733.0</ele>
        <time>2020-07-19T10:21:41.453Z</time>
      </trkpt>
      <trkpt lat="41.69112167" lon="-4.74984167">
        <ele>733.0</ele>
        <time>2020-07-19T10:21:42.453Z</time>
      </trkpt>
      <trkpt lat="41.691125" lon="-4.74984833">
        <ele>734.0</ele>
        <time>2020-07-19T10:21:43.453Z</time>
      </trkpt>
      <trkpt lat="41.69113333" lon="-4.74986167">
        <ele>734.0</ele>
        <time>2020-07-19T10:21:44.453Z</time>
      </trkpt>
      <trkpt lat="41.69113167" lon="-4.74988167">
        <ele>734.0</ele>
        <time>2020-07-19T10:21:45.453Z</time>
      </trkpt>
      <trkpt lat="41.69112167" lon="-4.74991">
        <ele>733.0</ele>
        <time>2020-07-19T10:21:46.453Z</time>
      </trkpt>
      <trkpt lat="41.69111167" lon="-4.74995167">
        <ele>733.0</ele>
        <time>2020-07-19T10:21:47.453Z</time>
      </trkpt>
      <trkpt lat="41.69110333" lon="-4.74999833">
        <ele>733.0</ele>
        <time>2020-07-19T10:21:48.453Z</time>
      </trkpt>
      <trkpt lat="41.69109333" lon="-4.75004833">
        <ele>733.0</ele>
        <time>2020-07-19T10:21:49.453Z</time>
      </trkpt>
      <trkpt lat="41.69107833" lon="-4.75009833">
        <ele>733.0</ele>
        <time>2020-07-19T10:21:50.453Z</time>
      </trkpt>
      <trkpt lat="41.69106167" lon="-4.75015">
        <ele>733.0</ele>
        <time>2020-07-19T10:21:51.453Z</time>
      </trkpt>
      <trkpt lat="41.691045" lon="-4.75020333">
        <ele>733.0</ele>
        <time>2020-07-19T10:21:52.453Z</time>
      </trkpt>
      <trkpt lat="41.69103" lon="-4.75025667">
        <ele>733.0</ele>
        <time>2020-07-19T10:21:53.453Z</time>
      </trkpt>
      <trkpt lat="41.69101667" lon="-4.75031167">
        <ele>733.0</ele>
        <time>2020-07-19T10:21:54.453Z</time>
      </trkpt>
      <trkpt lat="41.69100333" lon="-4.75036667">
        <ele>733.0</ele>
        <time>2020-07-19T10:21:55.453Z</time>
      </trkpt>
      <trkpt lat="41.69098833" lon="-4.75042333">
        <ele>733.0</ele>
        <time>2020-07-19T10:21:56.453Z</time>
      </trkpt>
      <trkpt lat="41.690975" lon="-4.75047833">
        <ele>733.0</ele>
        <time>2020-07-19T10:21:57.453Z</time>
      </trkpt>
      <trkpt lat="41.69096167" lon="-4.750535">
        <ele>733.0</ele>
        <time>2020-07-19T10:21:58.453Z</time>
      </trkpt>
      <trkpt lat="41.69094833" lon="-4.75059167">
        <ele>733.0</ele>
        <time>2020-07-19T10:21:59.453Z</time>
      </trkpt>
      <trkpt lat="41.69093333" lon="-4.75064667">
        <ele>733.0</ele>
        <time>2020-07-19T10:22:00.453Z</time>
      </trkpt>
      <trkpt lat="41.69091667" lon="-4.75070333">
        <ele>733.0</ele>
        <time>2020-07-19T10:22:01.453Z</time>
      </trkpt>
      <trkpt lat="41.6909" lon="-4.75076">
        <ele>733.0</ele>
        <time>2020-07-19T10:22:02.453Z</time>
      </trkpt>
      <trkpt lat="41.69088167" lon="-4.75081667">
        <ele>733.0</ele>
        <time>2020-07-19T10:22:03.453Z</time>
      </trkpt>
      <trkpt lat="41.69086333" lon="-4.75087333">
        <ele>733.0</ele>
        <time>2020-07-19T10:22:04.453Z</time>
      </trkpt>
      <trkpt lat="41.69084167" lon="-4.75093">
        <ele>733.0</ele>
        <time>2020-07-19T10:22:05.453Z</time>
      </trkpt>
      <trkpt lat="41.69082167" lon="-4.75098833">
        <ele>733.0</ele>
        <time>2020-07-19T10:22:06.453Z</time>
      </trkpt>
      <trkpt lat="41.6908" lon="-4.751045">
        <ele>733.0</ele>
        <time>2020-07-19T10:22:07.453Z</time>
      </trkpt>
      <trkpt lat="41.690775" lon="-4.7511">
        <ele>733.0</ele>
        <time>2020-07-19T10:22:08.453Z</time>
      </trkpt>
      <trkpt lat="41.69075" lon="-4.751155">
        <ele>733.0</ele>
        <time>2020-07-19T10:22:09.453Z</time>
      </trkpt>
      <trkpt lat="41.69072333" lon="-4.75120833">
        <ele>733.0</ele>
        <time>2020-07-19T10:22:10.453Z</time>
      </trkpt>
      <trkpt lat="41.69069667" lon="-4.75126167">
        <ele>733.0</ele>
        <time>2020-07-19T10:22:11.453Z</time>
      </trkpt>
      <trkpt lat="41.69067167" lon="-4.751315">
        <ele>733.0</ele>
        <time>2020-07-19T10:22:12.453Z</time>
      </trkpt>
      <trkpt lat="41.69064333" lon="-4.75136833">
        <ele>733.0</ele>
        <time>2020-07-19T10:22:13.453Z</time>
      </trkpt>
      <trkpt lat="41.690615" lon="-4.75142">
        <ele>733.0</ele>
        <time>2020-07-19T10:22:14.453Z</time>
      </trkpt>
      <trkpt lat="41.69058667" lon="-4.75147333">
        <ele>733.0</ele>
        <time>2020-07-19T10:22:15.453Z</time>
      </trkpt>
      <trkpt lat="41.69055833" lon="-4.751525">
        <ele>733.0</ele>
        <time>2020-07-19T10:22:16.453Z</time>
      </trkpt>
      <trkpt lat="41.69053" lon="-4.75157667">
        <ele>733.0</ele>
        <time>2020-07-19T10:22:17.453Z</time>
      </trkpt>
      <trkpt lat="41.690505" lon="-4.75163333">
        <ele>733.0</ele>
        <time>2020-07-19T10:22:18.453Z</time>
      </trkpt>
      <trkpt lat="41.690485" lon="-4.75169167">
        <ele>733.0</ele>
        <time>2020-07-19T10:22:19.453Z</time>
      </trkpt>
      <trkpt lat="41.690465" lon="-4.75175167">
        <ele>733.0</ele>
        <time>2020-07-19T10:22:20.453Z</time>
      </trkpt>
      <trkpt lat="41.690445" lon="-4.75181333">
        <ele>733.0</ele>
        <time>2020-07-19T10:22:21.453Z</time>
      </trkpt>
      <trkpt lat="41.69042667" lon="-4.75187667">
        <ele>733.0</ele>
        <time>2020-07-19T10:22:22.453Z</time>
      </trkpt>
      <trkpt lat="41.69041167" lon="-4.75194167">
        <ele>733.0</ele>
        <time>2020-07-19T10:22:23.453Z</time>
      </trkpt>
      <trkpt lat="41.6904" lon="-4.75200667">
        <ele>733.0</ele>
        <time>2020-07-19T10:22:24.453Z</time>
      </trkpt>
      <trkpt lat="41.69038667" lon="-4.75207167">
        <ele>733.0</ele>
        <time>2020-07-19T10:22:25.453Z</time>
      </trkpt>
      <trkpt lat="41.69037167" lon="-4.752135">
        <ele>733.0</ele>
        <time>2020-07-19T10:22:26.453Z</time>
      </trkpt>
      <trkpt lat="41.69035833" lon="-4.75220167">
        <ele>733.0</ele>
        <time>2020-07-19T10:22:27.453Z</time>
      </trkpt>
      <trkpt lat="41.69034333" lon="-4.75226833">
        <ele>733.0</ele>
        <time>2020-07-19T10:22:28.453Z</time>
      </trkpt>
      <trkpt lat="41.69033167" lon="-4.752335">
        <ele>733.0</ele>
        <time>2020-07-19T10:22:29.453Z</time>
      </trkpt>
      <trkpt lat="41.69032" lon="-4.75240167">
        <ele>733.0</ele>
        <time>2020-07-19T10:22:30.453Z</time>
      </trkpt>
      <trkpt lat="41.69030833" lon="-4.75246833">
        <ele>733.0</ele>
        <time>2020-07-19T10:22:31.453Z</time>
      </trkpt>
      <trkpt lat="41.6903" lon="-4.75253667">
        <ele>733.0</ele>
        <time>2020-07-19T10:22:32.453Z</time>
      </trkpt>
      <trkpt lat="41.69029167" lon="-4.752605">
        <ele>733.0</ele>
        <time>2020-07-19T10:22:33.453Z</time>
      </trkpt>
      <trkpt lat="41.69028833" lon="-4.75267333">
        <ele>733.0</ele>
        <time>2020-07-19T10:22:34.453Z</time>
      </trkpt>
      <trkpt lat="41.690285" lon="-4.75274167">
        <ele>733.0</ele>
        <time>2020-07-19T10:22:35.453Z</time>
      </trkpt>
      <trkpt lat="41.69028333" lon="-4.75281167">
        <ele>733.0</ele>
        <time>2020-07-19T10:22:36.453Z</time>
      </trkpt>
      <trkpt lat="41.690285" lon="-4.75288167">
        <ele>734.0</ele>
        <time>2020-07-19T10:22:37.453Z</time>
      </trkpt>
      <trkpt lat="41.69028833" lon="-4.75295">
        <ele>734.0</ele>
        <time>2020-07-19T10:22:38.453Z</time>
      </trkpt>
      <trkpt lat="41.69029333" lon="-4.75301833">
        <ele>734.0</ele>
        <time>2020-07-19T10:22:39.453Z</time>
      </trkpt>
      <trkpt lat="41.6903" lon="-4.75308667">
        <ele>734.0</ele>
        <time>2020-07-19T10:22:40.453Z</time>
      </trkpt>
      <trkpt lat="41.69030667" lon="-4.753155">
        <ele>734.0</ele>
        <time>2020-07-19T10:22:41.453Z</time>
      </trkpt>
      <trkpt lat="41.69031333" lon="-4.75322167">
        <ele>734.0</ele>
        <time>2020-07-19T10:22:42.453Z</time>
      </trkpt>
      <trkpt lat="41.69032167" lon="-4.75328833">
        <ele>734.0</ele>
        <time>2020-07-19T10:22:43.453Z</time>
      </trkpt>
      <trkpt lat="41.69033" lon="-4.753355">
        <ele>734.0</ele>
        <time>2020-07-19T10:22:44.453Z</time>
      </trkpt>
      <trkpt lat="41.69033667" lon="-4.75342167">
        <ele>734.0</ele>
        <time>2020-07-19T10:22:45.453Z</time>
      </trkpt>
      <trkpt lat="41.690345" lon="-4.75348833">
        <ele>734.0</ele>
        <time>2020-07-19T10:22:46.453Z</time>
      </trkpt>
      <trkpt lat="41.69035333" lon="-4.75355333">
        <ele>734.0</ele>
        <time>2020-07-19T10:22:47.453Z</time>
      </trkpt>
      <trkpt lat="41.69036167" lon="-4.75361667">
        <ele>734.0</ele>
        <time>2020-07-19T10:22:48.453Z</time>
      </trkpt>
      <trkpt lat="41.69037167" lon="-4.75368167">
        <ele>734.0</ele>
        <time>2020-07-19T10:22:49.453Z</time>
      </trkpt>
      <trkpt lat="41.69038167" lon="-4.75374667">
        <ele>734.0</ele>
        <time>2020-07-19T10:22:50.453Z</time>
      </trkpt>
      <trkpt lat="41.69039167" lon="-4.75381333">
        <ele>734.0</ele>
        <time>2020-07-19T10:22:51.453Z</time>
      </trkpt>
      <trkpt lat="41.69040167" lon="-4.75388167">
        <ele>734.0</ele>
        <time>2020-07-19T10:22:52.453Z</time>
      </trkpt>
      <trkpt lat="41.69041167" lon="-4.75394833">
        <ele>734.0</ele>
        <time>2020-07-19T10:22:53.453Z</time>
      </trkpt>
      <trkpt lat="41.69042" lon="-4.75401667">
        <ele>734.0</ele>
        <time>2020-07-19T10:22:54.453Z</time>
      </trkpt>
      <trkpt lat="41.69042833" lon="-4.754085">
        <ele>734.0</ele>
        <time>2020-07-19T10:22:55.453Z</time>
      </trkpt>
      <trkpt lat="41.69043667" lon="-4.75415333">
        <ele>734.0</ele>
        <time>2020-07-19T10:22:56.453Z</time>
      </trkpt>
      <trkpt lat="41.69044333" lon="-4.75422167">
        <ele>734.0</ele>
        <time>2020-07-19T10:22:57.453Z</time>
      </trkpt>
      <trkpt lat="41.69045" lon="-4.75428833">
        <ele>735.0</ele>
        <time>2020-07-19T10:22:58.453Z</time>
      </trkpt>
      <trkpt lat="41.690455" lon="-4.754355">
        <ele>735.0</ele>
        <time>2020-07-19T10:22:59.453Z</time>
      </trkpt>
      <trkpt lat="41.69046" lon="-4.75441833">
        <ele>735.0</ele>
        <time>2020-07-19T10:23:00.453Z</time>
      </trkpt>
      <trkpt lat="41.690465" lon="-4.75448">
        <ele>735.0</ele>
        <time>2020-07-19T10:23:01.453Z</time>
      </trkpt>
      <trkpt lat="41.690475" lon="-4.75454167">
        <ele>735.0</ele>
        <time>2020-07-19T10:23:02.453Z</time>
      </trkpt>
      <trkpt lat="41.69047833" lon="-4.75460333">
        <ele>735.0</ele>
        <time>2020-07-19T10:23:03.453Z</time>
      </trkpt>
      <trkpt lat="41.69047833" lon="-4.75466167">
        <ele>735.0</ele>
        <time>2020-07-19T10:23:04.453Z</time>
      </trkpt>
      <trkpt lat="41.69047833" lon="-4.75472167">
        <ele>735.0</ele>
        <time>2020-07-19T10:23:05.453Z</time>
      </trkpt>
      <trkpt lat="41.69047833" lon="-4.75478">
        <ele>735.0</ele>
        <time>2020-07-19T10:23:06.453Z</time>
      </trkpt>
      <trkpt lat="41.69047833" lon="-4.75484">
        <ele>735.0</ele>
        <time>2020-07-19T10:23:07.453Z</time>
      </trkpt>
      <trkpt lat="41.690475" lon="-4.7549">
        <ele>735.0</ele>
        <time>2020-07-19T10:23:08.453Z</time>
      </trkpt>
      <trkpt lat="41.69047167" lon="-4.75496">
        <ele>735.0</ele>
        <time>2020-07-19T10:23:09.453Z</time>
      </trkpt>
      <trkpt lat="41.69046833" lon="-4.75502">
        <ele>735.0</ele>
        <time>2020-07-19T10:23:10.453Z</time>
      </trkpt>
      <trkpt lat="41.69046333" lon="-4.75508">
        <ele>735.0</ele>
        <time>2020-07-19T10:23:11.453Z</time>
      </trkpt>
      <trkpt lat="41.69045833" lon="-4.75514167">
        <ele>735.0</ele>
        <time>2020-07-19T10:23:12.453Z</time>
      </trkpt>
      <trkpt lat="41.69045333" lon="-4.75520167">
        <ele>736.0</ele>
        <time>2020-07-19T10:23:13.453Z</time>
      </trkpt>
      <trkpt lat="41.69044833" lon="-4.755265">
        <ele>736.0</ele>
        <time>2020-07-19T10:23:14.453Z</time>
      </trkpt>
      <trkpt lat="41.69044" lon="-4.75533">
        <ele>736.0</ele>
        <time>2020-07-19T10:23:15.453Z</time>
      </trkpt>
      <trkpt lat="41.690435" lon="-4.755395">
        <ele>736.0</ele>
        <time>2020-07-19T10:23:16.453Z</time>
      </trkpt>
      <trkpt lat="41.69043" lon="-4.75546167">
        <ele>736.0</ele>
        <time>2020-07-19T10:23:17.453Z</time>
      </trkpt>
      <trkpt lat="41.690425" lon="-4.75552833">
        <ele>736.0</ele>
        <time>2020-07-19T10:23:18.453Z</time>
      </trkpt>
      <trkpt lat="41.69041833" lon="-4.755595">
        <ele>736.0</ele>
        <time>2020-07-19T10:23:19.453Z</time>
      </trkpt>
      <trkpt lat="41.69041167" lon="-4.75565833">
        <ele>736.0</ele>
        <time>2020-07-19T10:23:20.453Z</time>
      </trkpt>
      <trkpt lat="41.69041" lon="-4.75572167">
        <ele>736.0</ele>
        <time>2020-07-19T10:23:21.453Z</time>
      </trkpt>
      <trkpt lat="41.69040333" lon="-4.755785">
        <ele>736.0</ele>
        <time>2020-07-19T10:23:22.453Z</time>
      </trkpt>
      <trkpt lat="41.69039667" lon="-4.75584833">
        <ele>736.0</ele>
        <time>2020-07-19T10:23:23.453Z</time>
      </trkpt>
      <trkpt lat="41.69039" lon="-4.75591333">
        <ele>736.0</ele>
        <time>2020-07-19T10:23:24.453Z</time>
      </trkpt>
      <trkpt lat="41.690385" lon="-4.75597833">
        <ele>736.0</ele>
        <time>2020-07-19T10:23:25.453Z</time>
      </trkpt>
      <trkpt lat="41.69037833" lon="-4.75604167">
        <ele>736.0</ele>
        <time>2020-07-19T10:23:26.453Z</time>
      </trkpt>
      <trkpt lat="41.69037167" lon="-4.756105">
        <ele>736.0</ele>
        <time>2020-07-19T10:23:27.453Z</time>
      </trkpt>
      <trkpt lat="41.690365" lon="-4.75616833">
        <ele>736.0</ele>
        <time>2020-07-19T10:23:28.453Z</time>
      </trkpt>
      <trkpt lat="41.690355" lon="-4.75623">
        <ele>736.0</ele>
        <time>2020-07-19T10:23:29.453Z</time>
      </trkpt>
      <trkpt lat="41.69034667" lon="-4.75629333">
        <ele>736.0</ele>
        <time>2020-07-19T10:23:30.453Z</time>
      </trkpt>
      <trkpt lat="41.69033667" lon="-4.756355">
        <ele>736.0</ele>
        <time>2020-07-19T10:23:31.453Z</time>
      </trkpt>
      <trkpt lat="41.69032667" lon="-4.75641667">
        <ele>736.0</ele>
        <time>2020-07-19T10:23:32.453Z</time>
      </trkpt>
      <trkpt lat="41.69031667" lon="-4.75647833">
        <ele>736.0</ele>
        <time>2020-07-19T10:23:33.453Z</time>
      </trkpt>
      <trkpt lat="41.69030667" lon="-4.75653833">
        <ele>736.0</ele>
        <time>2020-07-19T10:23:34.453Z</time>
      </trkpt>
      <trkpt lat="41.69030167" lon="-4.7566">
        <ele>736.0</ele>
        <time>2020-07-19T10:23:35.453Z</time>
      </trkpt>
      <trkpt lat="41.69029333" lon="-4.75666">
        <ele>736.0</ele>
        <time>2020-07-19T10:23:36.453Z</time>
      </trkpt>
      <trkpt lat="41.69028167" lon="-4.75671833">
        <ele>736.0</ele>
        <time>2020-07-19T10:23:37.453Z</time>
      </trkpt>
      <trkpt lat="41.69027333" lon="-4.75677667">
        <ele>736.0</ele>
        <time>2020-07-19T10:23:38.453Z</time>
      </trkpt>
      <trkpt lat="41.69026667" lon="-4.75683333">
        <ele>736.0</ele>
        <time>2020-07-19T10:23:39.453Z</time>
      </trkpt>
      <trkpt lat="41.69025833" lon="-4.75688833">
        <ele>736.0</ele>
        <time>2020-07-19T10:23:40.453Z</time>
      </trkpt>
      <trkpt lat="41.69025" lon="-4.756945">
        <ele>736.0</ele>
        <time>2020-07-19T10:23:41.453Z</time>
      </trkpt>
      <trkpt lat="41.69024333" lon="-4.75700167">
        <ele>736.0</ele>
        <time>2020-07-19T10:23:42.453Z</time>
      </trkpt>
      <trkpt lat="41.690235" lon="-4.757055">
        <ele>736.0</ele>
        <time>2020-07-19T10:23:43.453Z</time>
      </trkpt>
      <trkpt lat="41.69022667" lon="-4.75710667">
        <ele>736.0</ele>
        <time>2020-07-19T10:23:44.453Z</time>
      </trkpt>
      <trkpt lat="41.69022" lon="-4.75715833">
        <ele>736.0</ele>
        <time>2020-07-19T10:23:45.453Z</time>
      </trkpt>
      <trkpt lat="41.69021667" lon="-4.75720667">
        <ele>736.0</ele>
        <time>2020-07-19T10:23:46.453Z</time>
      </trkpt>
      <trkpt lat="41.69021333" lon="-4.757255">
        <ele>736.0</ele>
        <time>2020-07-19T10:23:47.453Z</time>
      </trkpt>
      <trkpt lat="41.69020833" lon="-4.75730167">
        <ele>736.0</ele>
        <time>2020-07-19T10:23:48.453Z</time>
      </trkpt>
      <trkpt lat="41.69020333" lon="-4.75734667">
        <ele>736.0</ele>
        <time>2020-07-19T10:23:49.453Z</time>
      </trkpt>
      <trkpt lat="41.690195" lon="-4.75738833">
        <ele>736.0</ele>
        <time>2020-07-19T10:23:50.453Z</time>
      </trkpt>
      <trkpt lat="41.69018167" lon="-4.75742333">
        <ele>736.0</ele>
        <time>2020-07-19T10:23:51.453Z</time>
      </trkpt>
      <trkpt lat="41.69016833" lon="-4.75744833">
        <ele>736.0</ele>
        <time>2020-07-19T10:23:52.453Z</time>
      </trkpt>
      <trkpt lat="41.69016167" lon="-4.75745333">
        <ele>736.0</ele>
        <time>2020-07-19T10:23:53.453Z</time>
      </trkpt>
      <trkpt lat="41.69016167" lon="-4.75745333">
        <ele>736.0</ele>
        <time>2020-07-19T10:23:54.453Z</time>
      </trkpt>
      <trkpt lat="41.69016167" lon="-4.757455">
        <ele>736.0</ele>
        <time>2020-07-19T10:23:55.453Z</time>
      </trkpt>
      <trkpt lat="41.69016167" lon="-4.75745667">
        <ele>736.0</ele>
        <time>2020-07-19T10:23:56.453Z</time>
      </trkpt>
      <trkpt lat="41.69016833" lon="-4.75745167">
        <ele>736.0</ele>
        <time>2020-07-19T10:23:57.453Z</time>
      </trkpt>
      <trkpt lat="41.69016833" lon="-4.75745167">
        <ele>736.0</ele>
        <time>2020-07-19T10:23:58.453Z</time>
      </trkpt>
      <trkpt lat="41.69016833" lon="-4.75745333">
        <ele>736.0</ele>
        <time>2020-07-19T10:23:59.453Z</time>
      </trkpt>
      <trkpt lat="41.69016667" lon="-4.757455">
        <ele>736.0</ele>
        <time>2020-07-19T10:24:00.453Z</time>
      </trkpt>
      <trkpt lat="41.69016667" lon="-4.757455">
        <ele>736.0</ele>
        <time>2020-07-19T10:24:01.453Z</time>
      </trkpt>
      <trkpt lat="41.69016667" lon="-4.75745667">
        <ele>736.0</ele>
        <time>2020-07-19T10:24:02.453Z</time>
      </trkpt>
      <trkpt lat="41.690165" lon="-4.75745667">
        <ele>736.0</ele>
        <time>2020-07-19T10:24:03.453Z</time>
      </trkpt>
      <trkpt lat="41.690165" lon="-4.75745833">
        <ele>736.0</ele>
        <time>2020-07-19T10:24:04.453Z</time>
      </trkpt>
      <trkpt lat="41.690165" lon="-4.75745833">
        <ele>736.0</ele>
        <time>2020-07-19T10:24:05.453Z</time>
      </trkpt>
      <trkpt lat="41.690165" lon="-4.75746">
        <ele>736.0</ele>
        <time>2020-07-19T10:24:06.453Z</time>
      </trkpt>
      <trkpt lat="41.69016333" lon="-4.75746">
        <ele>736.0</ele>
        <time>2020-07-19T10:24:07.453Z</time>
      </trkpt>
      <trkpt lat="41.69016333" lon="-4.75746">
        <ele>736.0</ele>
        <time>2020-07-19T10:24:08.453Z</time>
      </trkpt>
      <trkpt lat="41.69017667" lon="-4.757455">
        <ele>736.0</ele>
        <time>2020-07-19T10:24:09.453Z</time>
      </trkpt>
      <trkpt lat="41.69018" lon="-4.75745">
        <ele>736.0</ele>
        <time>2020-07-19T10:24:10.453Z</time>
      </trkpt>
      <trkpt lat="41.69018" lon="-4.75745">
        <ele>736.0</ele>
        <time>2020-07-19T10:24:11.453Z</time>
      </trkpt>
      <trkpt lat="41.69017833" lon="-4.75745">
        <ele>736.0</ele>
        <time>2020-07-19T10:24:12.453Z</time>
      </trkpt>
      <trkpt lat="41.69017833" lon="-4.75745167">
        <ele>736.0</ele>
        <time>2020-07-19T10:24:13.453Z</time>
      </trkpt>
      <trkpt lat="41.690175" lon="-4.757455">
        <ele>736.0</ele>
        <time>2020-07-19T10:24:14.453Z</time>
      </trkpt>
      <trkpt lat="41.69017167" lon="-4.75746167">
        <ele>736.0</ele>
        <time>2020-07-19T10:24:15.453Z</time>
      </trkpt>
      <trkpt lat="41.69016333" lon="-4.75746833">
        <ele>736.0</ele>
        <time>2020-07-19T10:24:16.453Z</time>
      </trkpt>
      <trkpt lat="41.69014833" lon="-4.757475">
        <ele>736.0</ele>
        <time>2020-07-19T10:24:17.453Z</time>
      </trkpt>
      <trkpt lat="41.69012833" lon="-4.757475">
        <ele>736.0</ele>
        <time>2020-07-19T10:24:18.453Z</time>
      </trkpt>
      <trkpt lat="41.69010667" lon="-4.75747">
        <ele>736.0</ele>
        <time>2020-07-19T10:24:19.453Z</time>
      </trkpt>
      <trkpt lat="41.690085" lon="-4.757465">
        <ele>736.0</ele>
        <time>2020-07-19T10:24:20.453Z</time>
      </trkpt>
      <trkpt lat="41.69005833" lon="-4.75746167">
        <ele>736.0</ele>
        <time>2020-07-19T10:24:21.453Z</time>
      </trkpt>
      <trkpt lat="41.69003333" lon="-4.75746167">
        <ele>736.0</ele>
        <time>2020-07-19T10:24:22.453Z</time>
      </trkpt>
      <trkpt lat="41.69000667" lon="-4.75746167">
        <ele>736.0</ele>
        <time>2020-07-19T10:24:23.453Z</time>
      </trkpt>
      <trkpt lat="41.68998167" lon="-4.75745833">
        <ele>736.0</ele>
        <time>2020-07-19T10:24:24.453Z</time>
      </trkpt>
      <trkpt lat="41.689955" lon="-4.757455">
        <ele>737.0</ele>
        <time>2020-07-19T10:24:25.453Z</time>
      </trkpt>
      <trkpt lat="41.68993167" lon="-4.75745667">
        <ele>737.0</ele>
        <time>2020-07-19T10:24:26.453Z</time>
      </trkpt>
      <trkpt lat="41.68990833" lon="-4.75746">
        <ele>737.0</ele>
        <time>2020-07-19T10:24:27.453Z</time>
      </trkpt>
      <trkpt lat="41.689885" lon="-4.757465">
        <ele>737.0</ele>
        <time>2020-07-19T10:24:28.453Z</time>
      </trkpt>
      <trkpt lat="41.68986167" lon="-4.75747333">
        <ele>737.0</ele>
        <time>2020-07-19T10:24:29.453Z</time>
      </trkpt>
      <trkpt lat="41.68983667" lon="-4.757475">
        <ele>737.0</ele>
        <time>2020-07-19T10:24:30.453Z</time>
      </trkpt>
      <trkpt lat="41.689815" lon="-4.75747">
        <ele>737.0</ele>
        <time>2020-07-19T10:24:31.453Z</time>
      </trkpt>
      <trkpt lat="41.68979" lon="-4.75746833">
        <ele>738.0</ele>
        <time>2020-07-19T10:24:32.453Z</time>
      </trkpt>
      <trkpt lat="41.68976167" lon="-4.757465">
        <ele>738.0</ele>
        <time>2020-07-19T10:24:33.453Z</time>
      </trkpt>
      <trkpt lat="41.68973667" lon="-4.75746">
        <ele>738.0</ele>
        <time>2020-07-19T10:24:34.453Z</time>
      </trkpt>
      <trkpt lat="41.68971333" lon="-4.75745667">
        <ele>738.0</ele>
        <time>2020-07-19T10:24:35.453Z</time>
      </trkpt>
      <trkpt lat="41.68968167" lon="-4.75745833">
        <ele>738.0</ele>
        <time>2020-07-19T10:24:36.453Z</time>
      </trkpt>
      <trkpt lat="41.68965333" lon="-4.75745667">
        <ele>738.0</ele>
        <time>2020-07-19T10:24:37.453Z</time>
      </trkpt>
      <trkpt lat="41.68963" lon="-4.75744833">
        <ele>738.0</ele>
        <time>2020-07-19T10:24:38.453Z</time>
      </trkpt>
      <trkpt lat="41.68960333" lon="-4.757445">
        <ele>738.0</ele>
        <time>2020-07-19T10:24:39.453Z</time>
      </trkpt>
      <trkpt lat="41.68957167" lon="-4.75744333">
        <ele>738.0</ele>
        <time>2020-07-19T10:24:40.453Z</time>
      </trkpt>
      <trkpt lat="41.68954" lon="-4.75744333">
        <ele>738.0</ele>
        <time>2020-07-19T10:24:41.453Z</time>
      </trkpt>
      <trkpt lat="41.68951333" lon="-4.75744">
        <ele>739.0</ele>
        <time>2020-07-19T10:24:42.453Z</time>
      </trkpt>
      <trkpt lat="41.68948833" lon="-4.75744">
        <ele>739.0</ele>
        <time>2020-07-19T10:24:43.453Z</time>
      </trkpt>
      <trkpt lat="41.68946" lon="-4.75744">
        <ele>739.0</ele>
        <time>2020-07-19T10:24:44.453Z</time>
      </trkpt>
      <trkpt lat="41.68943333" lon="-4.75743833">
        <ele>739.0</ele>
        <time>2020-07-19T10:24:45.453Z</time>
      </trkpt>
      <trkpt lat="41.68940833" lon="-4.75744">
        <ele>739.0</ele>
        <time>2020-07-19T10:24:46.453Z</time>
      </trkpt>
      <trkpt lat="41.68938833" lon="-4.75744167">
        <ele>740.0</ele>
        <time>2020-07-19T10:24:47.453Z</time>
      </trkpt>
      <trkpt lat="41.68936833" lon="-4.75744167">
        <ele>740.0</ele>
        <time>2020-07-19T10:24:48.453Z</time>
      </trkpt>
      <trkpt lat="41.689345" lon="-4.75744">
        <ele>740.0</ele>
        <time>2020-07-19T10:24:49.453Z</time>
      </trkpt>
      <trkpt lat="41.68932333" lon="-4.75744">
        <ele>741.0</ele>
        <time>2020-07-19T10:24:50.453Z</time>
      </trkpt>
      <trkpt lat="41.68930333" lon="-4.75744167">
        <ele>741.0</ele>
        <time>2020-07-19T10:24:51.453Z</time>
      </trkpt>
      <trkpt lat="41.68928333" lon="-4.75744">
        <ele>741.0</ele>
        <time>2020-07-19T10:24:52.453Z</time>
      </trkpt>
      <trkpt lat="41.68926167" lon="-4.75743833">
        <ele>741.0</ele>
        <time>2020-07-19T10:24:53.453Z</time>
      </trkpt>
      <trkpt lat="41.68924333" lon="-4.757435">
        <ele>742.0</ele>
        <time>2020-07-19T10:24:54.453Z</time>
      </trkpt>
      <trkpt lat="41.689225" lon="-4.75743333">
        <ele>742.0</ele>
        <time>2020-07-19T10:24:55.453Z</time>
      </trkpt>
      <trkpt lat="41.68920667" lon="-4.75743167">
        <ele>742.0</ele>
        <time>2020-07-19T10:24:56.453Z</time>
      </trkpt>
      <trkpt lat="41.68918667" lon="-4.75743167">
        <ele>742.0</ele>
        <time>2020-07-19T10:24:57.453Z</time>
      </trkpt>
      <trkpt lat="41.68916833" lon="-4.75742833">
        <ele>742.0</ele>
        <time>2020-07-19T10:24:58.453Z</time>
      </trkpt>
      <trkpt lat="41.68915167" lon="-4.757425">
        <ele>742.0</ele>
        <time>2020-07-19T10:24:59.453Z</time>
      </trkpt>
      <trkpt lat="41.68913333" lon="-4.75742333">
        <ele>742.0</ele>
        <time>2020-07-19T10:25:00.453Z</time>
      </trkpt>
      <trkpt lat="41.689115" lon="-4.75742167">
        <ele>743.0</ele>
        <time>2020-07-19T10:25:01.453Z</time>
      </trkpt>
      <trkpt lat="41.68909833" lon="-4.75742">
        <ele>743.0</ele>
        <time>2020-07-19T10:25:02.453Z</time>
      </trkpt>
      <trkpt lat="41.68908167" lon="-4.757415">
        <ele>743.0</ele>
        <time>2020-07-19T10:25:03.453Z</time>
      </trkpt>
      <trkpt lat="41.68906167" lon="-4.757415">
        <ele>743.0</ele>
        <time>2020-07-19T10:25:04.453Z</time>
      </trkpt>
      <trkpt lat="41.689045" lon="-4.75741333">
        <ele>744.0</ele>
        <time>2020-07-19T10:25:05.453Z</time>
      </trkpt>
      <trkpt lat="41.68902833" lon="-4.75740833">
        <ele>744.0</ele>
        <time>2020-07-19T10:25:06.453Z</time>
      </trkpt>
      <trkpt lat="41.68901333" lon="-4.75740167">
        <ele>744.0</ele>
        <time>2020-07-19T10:25:07.453Z</time>
      </trkpt>
      <trkpt lat="41.68899167" lon="-4.7574">
        <ele>744.0</ele>
        <time>2020-07-19T10:25:08.453Z</time>
      </trkpt>
      <trkpt lat="41.68897667" lon="-4.75739833">
        <ele>744.0</ele>
        <time>2020-07-19T10:25:09.453Z</time>
      </trkpt>
      <trkpt lat="41.68895833" lon="-4.757395">
        <ele>744.0</ele>
        <time>2020-07-19T10:25:10.453Z</time>
      </trkpt>
      <trkpt lat="41.68893667" lon="-4.75739667">
        <ele>744.0</ele>
        <time>2020-07-19T10:25:11.453Z</time>
      </trkpt>
      <trkpt lat="41.68891167" lon="-4.75739667">
        <ele>744.0</ele>
        <time>2020-07-19T10:25:12.453Z</time>
      </trkpt>
      <trkpt lat="41.68888833" lon="-4.757395">
        <ele>744.0</ele>
        <time>2020-07-19T10:25:13.453Z</time>
      </trkpt>
      <trkpt lat="41.68886667" lon="-4.757395">
        <ele>745.0</ele>
        <time>2020-07-19T10:25:14.453Z</time>
      </trkpt>
      <trkpt lat="41.68884667" lon="-4.757395">
        <ele>745.0</ele>
        <time>2020-07-19T10:25:15.453Z</time>
      </trkpt>
      <trkpt lat="41.68883" lon="-4.75739167">
        <ele>745.0</ele>
        <time>2020-07-19T10:25:16.453Z</time>
      </trkpt>
      <trkpt lat="41.68881" lon="-4.75739167">
        <ele>745.0</ele>
        <time>2020-07-19T10:25:17.453Z</time>
      </trkpt>
      <trkpt lat="41.68878833" lon="-4.75739333">
        <ele>745.0</ele>
        <time>2020-07-19T10:25:18.453Z</time>
      </trkpt>
      <trkpt lat="41.68876833" lon="-4.75739333">
        <ele>745.0</ele>
        <time>2020-07-19T10:25:19.453Z</time>
      </trkpt>
      <trkpt lat="41.68875333" lon="-4.75738833">
        <ele>745.0</ele>
        <time>2020-07-19T10:25:20.453Z</time>
      </trkpt>
      <trkpt lat="41.68873667" lon="-4.75738833">
        <ele>745.0</ele>
        <time>2020-07-19T10:25:21.453Z</time>
      </trkpt>
      <trkpt lat="41.688715" lon="-4.75739">
        <ele>745.0</ele>
        <time>2020-07-19T10:25:22.453Z</time>
      </trkpt>
      <trkpt lat="41.688695" lon="-4.75739167">
        <ele>745.0</ele>
        <time>2020-07-19T10:25:23.453Z</time>
      </trkpt>
      <trkpt lat="41.68868167" lon="-4.75739167">
        <ele>745.0</ele>
        <time>2020-07-19T10:25:24.453Z</time>
      </trkpt>
      <trkpt lat="41.68865833" lon="-4.75739833">
        <ele>745.0</ele>
        <time>2020-07-19T10:25:25.453Z</time>
      </trkpt>
      <trkpt lat="41.68864" lon="-4.75740333">
        <ele>745.0</ele>
        <time>2020-07-19T10:25:26.453Z</time>
      </trkpt>
      <trkpt lat="41.688625" lon="-4.75740333">
        <ele>745.0</ele>
        <time>2020-07-19T10:25:27.453Z</time>
      </trkpt>
      <trkpt lat="41.68860667" lon="-4.75741333">
        <ele>745.0</ele>
        <time>2020-07-19T10:25:28.453Z</time>
      </trkpt>
      <trkpt lat="41.68858167" lon="-4.757425">
        <ele>745.0</ele>
        <time>2020-07-19T10:25:29.453Z</time>
      </trkpt>
      <trkpt lat="41.68855833" lon="-4.75743">
        <ele>745.0</ele>
        <time>2020-07-19T10:25:30.453Z</time>
      </trkpt>
      <trkpt lat="41.68854167" lon="-4.75743333">
        <ele>745.0</ele>
        <time>2020-07-19T10:25:31.453Z</time>
      </trkpt>
      <trkpt lat="41.68852333" lon="-4.75744833">
        <ele>745.0</ele>
        <time>2020-07-19T10:25:32.453Z</time>
      </trkpt>
      <trkpt lat="41.688505" lon="-4.75746">
        <ele>745.0</ele>
        <time>2020-07-19T10:25:33.453Z</time>
      </trkpt>
      <trkpt lat="41.68848833" lon="-4.75746333">
        <ele>746.0</ele>
        <time>2020-07-19T10:25:34.453Z</time>
      </trkpt>
      <trkpt lat="41.688475" lon="-4.75746333">
        <ele>746.0</ele>
        <time>2020-07-19T10:25:35.453Z</time>
      </trkpt>
      <trkpt lat="41.68845833" lon="-4.75747">
        <ele>746.0</ele>
        <time>2020-07-19T10:25:36.453Z</time>
      </trkpt>
      <trkpt lat="41.68844167" lon="-4.75747667">
        <ele>746.0</ele>
        <time>2020-07-19T10:25:37.453Z</time>
      </trkpt>
      <trkpt lat="41.68842333" lon="-4.757485">
        <ele>746.0</ele>
        <time>2020-07-19T10:25:38.453Z</time>
      </trkpt>
      <trkpt lat="41.688405" lon="-4.75749167">
        <ele>746.0</ele>
        <time>2020-07-19T10:25:39.453Z</time>
      </trkpt>
      <trkpt lat="41.68838833" lon="-4.75750167">
        <ele>746.0</ele>
        <time>2020-07-19T10:25:40.453Z</time>
      </trkpt>
      <trkpt lat="41.68837" lon="-4.75751167">
        <ele>746.0</ele>
        <time>2020-07-19T10:25:41.453Z</time>
      </trkpt>
      <trkpt lat="41.68835333" lon="-4.75752167">
        <ele>747.0</ele>
        <time>2020-07-19T10:25:42.453Z</time>
      </trkpt>
      <trkpt lat="41.688335" lon="-4.75753167">
        <ele>747.0</ele>
        <time>2020-07-19T10:25:43.453Z</time>
      </trkpt>
      <trkpt lat="41.688315" lon="-4.75754167">
        <ele>747.0</ele>
        <time>2020-07-19T10:25:44.453Z</time>
      </trkpt>
      <trkpt lat="41.688295" lon="-4.75755333">
        <ele>747.0</ele>
        <time>2020-07-19T10:25:45.453Z</time>
      </trkpt>
      <trkpt lat="41.68827667" lon="-4.75756167">
        <ele>747.0</ele>
        <time>2020-07-19T10:25:46.453Z</time>
      </trkpt>
      <trkpt lat="41.68825667" lon="-4.75756833">
        <ele>747.0</ele>
        <time>2020-07-19T10:25:47.453Z</time>
      </trkpt>
      <trkpt lat="41.68823667" lon="-4.75757667">
        <ele>747.0</ele>
        <time>2020-07-19T10:25:48.453Z</time>
      </trkpt>
      <trkpt lat="41.68821833" lon="-4.75758667">
        <ele>748.0</ele>
        <time>2020-07-19T10:25:49.453Z</time>
      </trkpt>
      <trkpt lat="41.68819833" lon="-4.757595">
        <ele>748.0</ele>
        <time>2020-07-19T10:25:50.453Z</time>
      </trkpt>
      <trkpt lat="41.68817667" lon="-4.75759833">
        <ele>748.0</ele>
        <time>2020-07-19T10:25:51.453Z</time>
      </trkpt>
      <trkpt lat="41.68815333" lon="-4.75760833">
        <ele>748.0</ele>
        <time>2020-07-19T10:25:52.453Z</time>
      </trkpt>
      <trkpt lat="41.68812833" lon="-4.75761833">
        <ele>748.0</ele>
        <time>2020-07-19T10:25:53.453Z</time>
      </trkpt>
      <trkpt lat="41.68809833" lon="-4.757635">
        <ele>748.0</ele>
        <time>2020-07-19T10:25:54.453Z</time>
      </trkpt>
      <trkpt lat="41.68807167" lon="-4.75764333">
        <ele>748.0</ele>
        <time>2020-07-19T10:25:55.453Z</time>
      </trkpt>
      <trkpt lat="41.688045" lon="-4.757655">
        <ele>748.0</ele>
        <time>2020-07-19T10:25:56.453Z</time>
      </trkpt>
      <trkpt lat="41.68802333" lon="-4.75766333">
        <ele>748.0</ele>
        <time>2020-07-19T10:25:57.453Z</time>
      </trkpt>
      <trkpt lat="41.687995" lon="-4.757675">
        <ele>748.0</ele>
        <time>2020-07-19T10:25:58.453Z</time>
      </trkpt>
      <trkpt lat="41.68796667" lon="-4.757685">
        <ele>748.0</ele>
        <time>2020-07-19T10:25:59.453Z</time>
      </trkpt>
      <trkpt lat="41.68793333" lon="-4.75769833">
        <ele>748.0</ele>
        <time>2020-07-19T10:26:00.453Z</time>
      </trkpt>
      <trkpt lat="41.68791" lon="-4.75770333">
        <ele>749.0</ele>
        <time>2020-07-19T10:26:01.453Z</time>
      </trkpt>
      <trkpt lat="41.687885" lon="-4.75771167">
        <ele>749.0</ele>
        <time>2020-07-19T10:26:02.453Z</time>
      </trkpt>
      <trkpt lat="41.68785833" lon="-4.75771667">
        <ele>749.0</ele>
        <time>2020-07-19T10:26:03.453Z</time>
      </trkpt>
      <trkpt lat="41.68783" lon="-4.75772333">
        <ele>749.0</ele>
        <time>2020-07-19T10:26:04.453Z</time>
      </trkpt>
      <trkpt lat="41.68781" lon="-4.75772">
        <ele>749.0</ele>
        <time>2020-07-19T10:26:05.453Z</time>
      </trkpt>
      <trkpt lat="41.68778833" lon="-4.75771833">
        <ele>749.0</ele>
        <time>2020-07-19T10:26:06.453Z</time>
      </trkpt>
      <trkpt lat="41.68776" lon="-4.75771667">
        <ele>749.0</ele>
        <time>2020-07-19T10:26:07.453Z</time>
      </trkpt>
      <trkpt lat="41.68773" lon="-4.75771667">
        <ele>749.0</ele>
        <time>2020-07-19T10:26:08.453Z</time>
      </trkpt>
      <trkpt lat="41.68770667" lon="-4.757705">
        <ele>750.0</ele>
        <time>2020-07-19T10:26:09.453Z</time>
      </trkpt>
      <trkpt lat="41.68768167" lon="-4.75769">
        <ele>750.0</ele>
        <time>2020-07-19T10:26:10.453Z</time>
      </trkpt>
      <trkpt lat="41.68765667" lon="-4.75767">
        <ele>750.0</ele>
        <time>2020-07-19T10:26:11.453Z</time>
      </trkpt>
      <trkpt lat="41.68763333" lon="-4.75764667">
        <ele>750.0</ele>
        <time>2020-07-19T10:26:12.453Z</time>
      </trkpt>
      <trkpt lat="41.68761667" lon="-4.75761667">
        <ele>750.0</ele>
        <time>2020-07-19T10:26:13.453Z</time>
      </trkpt>
      <trkpt lat="41.68759667" lon="-4.757595">
        <ele>750.0</ele>
        <time>2020-07-19T10:26:14.453Z</time>
      </trkpt>
      <trkpt lat="41.68757833" lon="-4.75757333">
        <ele>750.0</ele>
        <time>2020-07-19T10:26:15.453Z</time>
      </trkpt>
      <trkpt lat="41.68755667" lon="-4.75755167">
        <ele>750.0</ele>
        <time>2020-07-19T10:26:16.453Z</time>
      </trkpt>
      <trkpt lat="41.68753667" lon="-4.75752833">
        <ele>750.0</ele>
        <time>2020-07-19T10:26:17.453Z</time>
      </trkpt>
      <trkpt lat="41.68751333" lon="-4.757505">
        <ele>750.0</ele>
        <time>2020-07-19T10:26:18.453Z</time>
      </trkpt>
      <trkpt lat="41.68749" lon="-4.75748667">
        <ele>750.0</ele>
        <time>2020-07-19T10:26:19.453Z</time>
      </trkpt>
      <trkpt lat="41.68747333" lon="-4.75746167">
        <ele>750.0</ele>
        <time>2020-07-19T10:26:20.453Z</time>
      </trkpt>
      <trkpt lat="41.68745167" lon="-4.75744667">
        <ele>750.0</ele>
        <time>2020-07-19T10:26:21.453Z</time>
      </trkpt>
      <trkpt lat="41.68743167" lon="-4.75743167">
        <ele>750.0</ele>
        <time>2020-07-19T10:26:22.453Z</time>
      </trkpt>
      <trkpt lat="41.68740667" lon="-4.75742">
        <ele>750.0</ele>
        <time>2020-07-19T10:26:23.453Z</time>
      </trkpt>
      <trkpt lat="41.68738167" lon="-4.75740667">
        <ele>750.0</ele>
        <time>2020-07-19T10:26:24.453Z</time>
      </trkpt>
      <trkpt lat="41.68736333" lon="-4.75739667">
        <ele>750.0</ele>
        <time>2020-07-19T10:26:25.453Z</time>
      </trkpt>
      <trkpt lat="41.68735167" lon="-4.75737833">
        <ele>750.0</ele>
        <time>2020-07-19T10:26:26.453Z</time>
      </trkpt>
      <trkpt lat="41.68734333" lon="-4.75736167">
        <ele>750.0</ele>
        <time>2020-07-19T10:26:27.453Z</time>
      </trkpt>
      <trkpt lat="41.68732" lon="-4.75735333">
        <ele>750.0</ele>
        <time>2020-07-19T10:26:28.453Z</time>
      </trkpt>
      <trkpt lat="41.687295" lon="-4.75734833">
        <ele>750.0</ele>
        <time>2020-07-19T10:26:29.453Z</time>
      </trkpt>
      <trkpt lat="41.68728" lon="-4.75733333">
        <ele>751.0</ele>
        <time>2020-07-19T10:26:30.453Z</time>
      </trkpt>
      <trkpt lat="41.687265" lon="-4.757325">
        <ele>751.0</ele>
        <time>2020-07-19T10:26:31.453Z</time>
      </trkpt>
      <trkpt lat="41.68724167" lon="-4.75731833">
        <ele>751.0</ele>
        <time>2020-07-19T10:26:32.453Z</time>
      </trkpt>
      <trkpt lat="41.687225" lon="-4.75730667">
        <ele>751.0</ele>
        <time>2020-07-19T10:26:33.453Z</time>
      </trkpt>
      <trkpt lat="41.68720833" lon="-4.757295">
        <ele>751.0</ele>
        <time>2020-07-19T10:26:34.453Z</time>
      </trkpt>
      <trkpt lat="41.68719333" lon="-4.757285">
        <ele>752.0</ele>
        <time>2020-07-19T10:26:35.453Z</time>
      </trkpt>
      <trkpt lat="41.68717667" lon="-4.75727333">
        <ele>752.0</ele>
        <time>2020-07-19T10:26:36.453Z</time>
      </trkpt>
      <trkpt lat="41.68716" lon="-4.75726833">
        <ele>752.0</ele>
        <time>2020-07-19T10:26:37.453Z</time>
      </trkpt>
      <trkpt lat="41.68714667" lon="-4.75726167">
        <ele>752.0</ele>
        <time>2020-07-19T10:26:38.453Z</time>
      </trkpt>
      <trkpt lat="41.687135" lon="-4.75725333">
        <ele>752.0</ele>
        <time>2020-07-19T10:26:39.453Z</time>
      </trkpt>
      <trkpt lat="41.68712167" lon="-4.75724167">
        <ele>752.0</ele>
        <time>2020-07-19T10:26:40.453Z</time>
      </trkpt>
      <trkpt lat="41.68711833" lon="-4.75722167">
        <ele>753.0</ele>
        <time>2020-07-19T10:26:41.453Z</time>
      </trkpt>
      <trkpt lat="41.68710667" lon="-4.75721">
        <ele>753.0</ele>
        <time>2020-07-19T10:26:42.453Z</time>
      </trkpt>
      <trkpt lat="41.687085" lon="-4.75720833">
        <ele>753.0</ele>
        <time>2020-07-19T10:26:43.453Z</time>
      </trkpt>
      <trkpt lat="41.68706667" lon="-4.757205">
        <ele>753.0</ele>
        <time>2020-07-19T10:26:44.453Z</time>
      </trkpt>
      <trkpt lat="41.68706167" lon="-4.757185">
        <ele>753.0</ele>
        <time>2020-07-19T10:26:45.453Z</time>
      </trkpt>
      <trkpt lat="41.68705167" lon="-4.757175">
        <ele>753.0</ele>
        <time>2020-07-19T10:26:46.453Z</time>
      </trkpt>
      <trkpt lat="41.68703833" lon="-4.75716667">
        <ele>754.0</ele>
        <time>2020-07-19T10:26:47.453Z</time>
      </trkpt>
      <trkpt lat="41.68702167" lon="-4.75715833">
        <ele>754.0</ele>
        <time>2020-07-19T10:26:48.453Z</time>
      </trkpt>
      <trkpt lat="41.68700667" lon="-4.75715">
        <ele>754.0</ele>
        <time>2020-07-19T10:26:49.453Z</time>
      </trkpt>
      <trkpt lat="41.68699333" lon="-4.75714333">
        <ele>754.0</ele>
        <time>2020-07-19T10:26:50.453Z</time>
      </trkpt>
      <trkpt lat="41.68697667" lon="-4.757135">
        <ele>755.0</ele>
        <time>2020-07-19T10:26:51.453Z</time>
      </trkpt>
      <trkpt lat="41.68696" lon="-4.75712667">
        <ele>755.0</ele>
        <time>2020-07-19T10:26:52.453Z</time>
      </trkpt>
      <trkpt lat="41.68694667" lon="-4.75711833">
        <ele>755.0</ele>
        <time>2020-07-19T10:26:53.453Z</time>
      </trkpt>
      <trkpt lat="41.68693167" lon="-4.75711">
        <ele>755.0</ele>
        <time>2020-07-19T10:26:54.453Z</time>
      </trkpt>
      <trkpt lat="41.68691667" lon="-4.75710167">
        <ele>755.0</ele>
        <time>2020-07-19T10:26:55.453Z</time>
      </trkpt>
      <trkpt lat="41.68690333" lon="-4.75709333">
        <ele>755.0</ele>
        <time>2020-07-19T10:26:56.453Z</time>
      </trkpt>
      <trkpt lat="41.68688833" lon="-4.75708333">
        <ele>755.0</ele>
        <time>2020-07-19T10:26:57.453Z</time>
      </trkpt>
      <trkpt lat="41.68687333" lon="-4.757075">
        <ele>757.0</ele>
        <time>2020-07-19T10:26:58.453Z</time>
      </trkpt>
      <trkpt lat="41.68685833" lon="-4.75706833">
        <ele>757.0</ele>
        <time>2020-07-19T10:26:59.453Z</time>
      </trkpt>
      <trkpt lat="41.686845" lon="-4.75705833">
        <ele>757.0</ele>
        <time>2020-07-19T10:27:00.453Z</time>
      </trkpt>
      <trkpt lat="41.68683" lon="-4.75705">
        <ele>757.0</ele>
        <time>2020-07-19T10:27:01.453Z</time>
      </trkpt>
      <trkpt lat="41.68681333" lon="-4.75704167">
        <ele>757.0</ele>
        <time>2020-07-19T10:27:02.453Z</time>
      </trkpt>
      <trkpt lat="41.68679833" lon="-4.75703333">
        <ele>757.0</ele>
        <time>2020-07-19T10:27:03.453Z</time>
      </trkpt>
      <trkpt lat="41.68678333" lon="-4.757025">
        <ele>758.0</ele>
        <time>2020-07-19T10:27:04.453Z</time>
      </trkpt>
      <trkpt lat="41.68676833" lon="-4.75701667">
        <ele>759.0</ele>
        <time>2020-07-19T10:27:05.453Z</time>
      </trkpt>
      <trkpt lat="41.686755" lon="-4.75700833">
        <ele>759.0</ele>
        <time>2020-07-19T10:27:06.453Z</time>
      </trkpt>
      <trkpt lat="41.68674" lon="-4.757">
        <ele>759.0</ele>
        <time>2020-07-19T10:27:07.453Z</time>
      </trkpt>
      <trkpt lat="41.686725" lon="-4.75699167">
        <ele>759.0</ele>
        <time>2020-07-19T10:27:08.453Z</time>
      </trkpt>
      <trkpt lat="41.68671" lon="-4.75698333">
        <ele>759.0</ele>
        <time>2020-07-19T10:27:09.453Z</time>
      </trkpt>
      <trkpt lat="41.68669167" lon="-4.75697667">
        <ele>760.0</ele>
        <time>2020-07-19T10:27:10.453Z</time>
      </trkpt>
      <trkpt lat="41.68667833" lon="-4.75697">
        <ele>760.0</ele>
        <time>2020-07-19T10:27:11.453Z</time>
      </trkpt>
      <trkpt lat="41.68666333" lon="-4.75696">
        <ele>760.0</ele>
        <time>2020-07-19T10:27:12.453Z</time>
      </trkpt>
      <trkpt lat="41.68664833" lon="-4.75695333">
        <ele>760.0</ele>
        <time>2020-07-19T10:27:13.453Z</time>
      </trkpt>
      <trkpt lat="41.68663" lon="-4.75694">
        <ele>760.0</ele>
        <time>2020-07-19T10:27:14.453Z</time>
      </trkpt>
      <trkpt lat="41.68661" lon="-4.75692333">
        <ele>761.0</ele>
        <time>2020-07-19T10:27:15.453Z</time>
      </trkpt>
      <trkpt lat="41.68659667" lon="-4.75691167">
        <ele>761.0</ele>
        <time>2020-07-19T10:27:16.453Z</time>
      </trkpt>
      <trkpt lat="41.686585" lon="-4.75690667">
        <ele>761.0</ele>
        <time>2020-07-19T10:27:17.453Z</time>
      </trkpt>
      <trkpt lat="41.68657" lon="-4.7569">
        <ele>761.0</ele>
        <time>2020-07-19T10:27:18.453Z</time>
      </trkpt>
      <trkpt lat="41.68655333" lon="-4.756895">
        <ele>761.0</ele>
        <time>2020-07-19T10:27:19.453Z</time>
      </trkpt>
      <trkpt lat="41.68654" lon="-4.75688833">
        <ele>761.0</ele>
        <time>2020-07-19T10:27:20.453Z</time>
      </trkpt>
      <trkpt lat="41.68652833" lon="-4.75687667">
        <ele>761.0</ele>
        <time>2020-07-19T10:27:21.453Z</time>
      </trkpt>
      <trkpt lat="41.68651167" lon="-4.75687">
        <ele>761.0</ele>
        <time>2020-07-19T10:27:22.453Z</time>
      </trkpt>
      <trkpt lat="41.68649667" lon="-4.75686167">
        <ele>761.0</ele>
        <time>2020-07-19T10:27:23.453Z</time>
      </trkpt>
      <trkpt lat="41.686485" lon="-4.756845">
        <ele>761.0</ele>
        <time>2020-07-19T10:27:24.453Z</time>
      </trkpt>
      <trkpt lat="41.68647333" lon="-4.75684333">
        <ele>761.0</ele>
        <time>2020-07-19T10:27:25.453Z</time>
      </trkpt>
      <trkpt lat="41.68645333" lon="-4.75684">
        <ele>761.0</ele>
        <time>2020-07-19T10:27:26.453Z</time>
      </trkpt>
      <trkpt lat="41.686445" lon="-4.75683333">
        <ele>761.0</ele>
        <time>2020-07-19T10:27:27.453Z</time>
      </trkpt>
      <trkpt lat="41.68643833" lon="-4.75681833">
        <ele>761.0</ele>
        <time>2020-07-19T10:27:28.453Z</time>
      </trkpt>
      <trkpt lat="41.686425" lon="-4.75680833">
        <ele>764.0</ele>
        <time>2020-07-19T10:27:29.453Z</time>
      </trkpt>
      <trkpt lat="41.68641" lon="-4.7568">
        <ele>764.0</ele>
        <time>2020-07-19T10:27:30.453Z</time>
      </trkpt>
      <trkpt lat="41.6864" lon="-4.75679333">
        <ele>765.0</ele>
        <time>2020-07-19T10:27:31.453Z</time>
      </trkpt>
      <trkpt lat="41.68639167" lon="-4.756785">
        <ele>765.0</ele>
        <time>2020-07-19T10:27:32.453Z</time>
      </trkpt>
      <trkpt lat="41.68637833" lon="-4.756775">
        <ele>765.0</ele>
        <time>2020-07-19T10:27:33.453Z</time>
      </trkpt>
      <trkpt lat="41.68636167" lon="-4.75676333">
        <ele>765.0</ele>
        <time>2020-07-19T10:27:34.453Z</time>
      </trkpt>
      <trkpt lat="41.68634667" lon="-4.75675167">
        <ele>765.0</ele>
        <time>2020-07-19T10:27:35.453Z</time>
      </trkpt>
      <trkpt lat="41.68633333" lon="-4.75674167">
        <ele>766.0</ele>
        <time>2020-07-19T10:27:36.453Z</time>
      </trkpt>
      <trkpt lat="41.68632" lon="-4.75673">
        <ele>766.0</ele>
        <time>2020-07-19T10:27:37.453Z</time>
      </trkpt>
      <trkpt lat="41.68630667" lon="-4.75671833">
        <ele>766.0</ele>
        <time>2020-07-19T10:27:38.453Z</time>
      </trkpt>
      <trkpt lat="41.68629167" lon="-4.756705">
        <ele>767.0</ele>
        <time>2020-07-19T10:27:39.453Z</time>
      </trkpt>
      <trkpt lat="41.686275" lon="-4.75669">
        <ele>767.0</ele>
        <time>2020-07-19T10:27:40.453Z</time>
      </trkpt>
      <trkpt lat="41.68626" lon="-4.75667667">
        <ele>767.0</ele>
        <time>2020-07-19T10:27:41.453Z</time>
      </trkpt>
      <trkpt lat="41.686245" lon="-4.75666167">
        <ele>767.0</ele>
        <time>2020-07-19T10:27:42.453Z</time>
      </trkpt>
      <trkpt lat="41.68622833" lon="-4.75665167">
        <ele>767.0</ele>
        <time>2020-07-19T10:27:43.453Z</time>
      </trkpt>
      <trkpt lat="41.686215" lon="-4.756635">
        <ele>767.0</ele>
        <time>2020-07-19T10:27:44.453Z</time>
      </trkpt>
      <trkpt lat="41.68620167" lon="-4.75661833">
        <ele>767.0</ele>
        <time>2020-07-19T10:27:45.453Z</time>
      </trkpt>
      <trkpt lat="41.68618833" lon="-4.75660333">
        <ele>768.0</ele>
        <time>2020-07-19T10:27:46.453Z</time>
      </trkpt>
      <trkpt lat="41.686175" lon="-4.75659167">
        <ele>768.0</ele>
        <time>2020-07-19T10:27:47.453Z</time>
      </trkpt>
      <trkpt lat="41.68616" lon="-4.75658">
        <ele>768.0</ele>
        <time>2020-07-19T10:27:48.453Z</time>
      </trkpt>
      <trkpt lat="41.686145" lon="-4.75656667">
        <ele>769.0</ele>
        <time>2020-07-19T10:27:49.453Z</time>
      </trkpt>
      <trkpt lat="41.68613" lon="-4.756555">
        <ele>769.0</ele>
        <time>2020-07-19T10:27:50.453Z</time>
      </trkpt>
      <trkpt lat="41.686115" lon="-4.75654167">
        <ele>769.0</ele>
        <time>2020-07-19T10:27:51.453Z</time>
      </trkpt>
      <trkpt lat="41.68610167" lon="-4.75653167">
        <ele>769.0</ele>
        <time>2020-07-19T10:27:52.453Z</time>
      </trkpt>
      <trkpt lat="41.686085" lon="-4.75652">
        <ele>769.0</ele>
        <time>2020-07-19T10:27:53.453Z</time>
      </trkpt>
      <trkpt lat="41.68607167" lon="-4.75651">
        <ele>769.0</ele>
        <time>2020-07-19T10:27:54.453Z</time>
      </trkpt>
      <trkpt lat="41.686055" lon="-4.756495">
        <ele>769.0</ele>
        <time>2020-07-19T10:27:55.453Z</time>
      </trkpt>
      <trkpt lat="41.68603833" lon="-4.75648333">
        <ele>769.0</ele>
        <time>2020-07-19T10:27:56.453Z</time>
      </trkpt>
      <trkpt lat="41.68602167" lon="-4.75646667">
        <ele>769.0</ele>
        <time>2020-07-19T10:27:57.453Z</time>
      </trkpt>
      <trkpt lat="41.68600167" lon="-4.75645167">
        <ele>769.0</ele>
        <time>2020-07-19T10:27:58.453Z</time>
      </trkpt>
      <trkpt lat="41.68598" lon="-4.75643833">
        <ele>769.0</ele>
        <time>2020-07-19T10:27:59.453Z</time>
      </trkpt>
      <trkpt lat="41.685955" lon="-4.756425">
        <ele>769.0</ele>
        <time>2020-07-19T10:28:00.453Z</time>
      </trkpt>
      <trkpt lat="41.68592667" lon="-4.75641333">
        <ele>769.0</ele>
        <time>2020-07-19T10:28:01.453Z</time>
      </trkpt>
      <trkpt lat="41.685895" lon="-4.756405">
        <ele>769.0</ele>
        <time>2020-07-19T10:28:02.453Z</time>
      </trkpt>
      <trkpt lat="41.685865" lon="-4.75640167">
        <ele>769.0</ele>
        <time>2020-07-19T10:28:03.453Z</time>
      </trkpt>
      <trkpt lat="41.68583333" lon="-4.75639667">
        <ele>769.0</ele>
        <time>2020-07-19T10:28:04.453Z</time>
      </trkpt>
      <trkpt lat="41.68580333" lon="-4.756395">
        <ele>769.0</ele>
        <time>2020-07-19T10:28:05.453Z</time>
      </trkpt>
      <trkpt lat="41.68577167" lon="-4.75639333">
        <ele>769.0</ele>
        <time>2020-07-19T10:28:06.453Z</time>
      </trkpt>
      <trkpt lat="41.68573833" lon="-4.756395">
        <ele>770.0</ele>
        <time>2020-07-19T10:28:07.453Z</time>
      </trkpt>
      <trkpt lat="41.68570333" lon="-4.75639167">
        <ele>770.0</ele>
        <time>2020-07-19T10:28:08.453Z</time>
      </trkpt>
      <trkpt lat="41.68567167" lon="-4.75638667">
        <ele>770.0</ele>
        <time>2020-07-19T10:28:09.453Z</time>
      </trkpt>
      <trkpt lat="41.68563833" lon="-4.756385">
        <ele>770.0</ele>
        <time>2020-07-19T10:28:10.453Z</time>
      </trkpt>
      <trkpt lat="41.68560667" lon="-4.75638167">
        <ele>770.0</ele>
        <time>2020-07-19T10:28:11.453Z</time>
      </trkpt>
      <trkpt lat="41.68557667" lon="-4.75638167">
        <ele>770.0</ele>
        <time>2020-07-19T10:28:12.453Z</time>
      </trkpt>
      <trkpt lat="41.68554833" lon="-4.75638333">
        <ele>770.0</ele>
        <time>2020-07-19T10:28:13.453Z</time>
      </trkpt>
      <trkpt lat="41.68552333" lon="-4.75639">
        <ele>770.0</ele>
        <time>2020-07-19T10:28:14.453Z</time>
      </trkpt>
      <trkpt lat="41.68550167" lon="-4.756395">
        <ele>770.0</ele>
        <time>2020-07-19T10:28:15.453Z</time>
      </trkpt>
      <trkpt lat="41.68548167" lon="-4.756405">
        <ele>770.0</ele>
        <time>2020-07-19T10:28:16.453Z</time>
      </trkpt>
      <trkpt lat="41.68546167" lon="-4.756415">
        <ele>770.0</ele>
        <time>2020-07-19T10:28:17.453Z</time>
      </trkpt>
      <trkpt lat="41.68544167" lon="-4.756425">
        <ele>771.0</ele>
        <time>2020-07-19T10:28:18.453Z</time>
      </trkpt>
      <trkpt lat="41.68541833" lon="-4.75643667">
        <ele>771.0</ele>
        <time>2020-07-19T10:28:19.453Z</time>
      </trkpt>
      <trkpt lat="41.68539833" lon="-4.75645">
        <ele>771.0</ele>
        <time>2020-07-19T10:28:20.453Z</time>
      </trkpt>
      <trkpt lat="41.68537667" lon="-4.75646167">
        <ele>771.0</ele>
        <time>2020-07-19T10:28:21.453Z</time>
      </trkpt>
      <trkpt lat="41.68535667" lon="-4.75647333">
        <ele>771.0</ele>
        <time>2020-07-19T10:28:22.453Z</time>
      </trkpt>
      <trkpt lat="41.68533667" lon="-4.75648667">
        <ele>771.0</ele>
        <time>2020-07-19T10:28:23.453Z</time>
      </trkpt>
      <trkpt lat="41.68531833" lon="-4.75649667">
        <ele>771.0</ele>
        <time>2020-07-19T10:28:24.453Z</time>
      </trkpt>
      <trkpt lat="41.6853" lon="-4.75650667">
        <ele>771.0</ele>
        <time>2020-07-19T10:28:25.453Z</time>
      </trkpt>
      <trkpt lat="41.68528" lon="-4.75651833">
        <ele>771.0</ele>
        <time>2020-07-19T10:28:26.453Z</time>
      </trkpt>
      <trkpt lat="41.68525833" lon="-4.75652667">
        <ele>771.0</ele>
        <time>2020-07-19T10:28:27.453Z</time>
      </trkpt>
      <trkpt lat="41.68523833" lon="-4.75653667">
        <ele>771.0</ele>
        <time>2020-07-19T10:28:28.453Z</time>
      </trkpt>
      <trkpt lat="41.68522" lon="-4.756545">
        <ele>771.0</ele>
        <time>2020-07-19T10:28:29.453Z</time>
      </trkpt>
      <trkpt lat="41.68519833" lon="-4.756555">
        <ele>771.0</ele>
        <time>2020-07-19T10:28:30.453Z</time>
      </trkpt>
      <trkpt lat="41.68517833" lon="-4.75656333">
        <ele>771.0</ele>
        <time>2020-07-19T10:28:31.453Z</time>
      </trkpt>
      <trkpt lat="41.68515833" lon="-4.75657167">
        <ele>772.0</ele>
        <time>2020-07-19T10:28:32.453Z</time>
      </trkpt>
      <trkpt lat="41.68513833" lon="-4.75657667">
        <ele>772.0</ele>
        <time>2020-07-19T10:28:33.453Z</time>
      </trkpt>
      <trkpt lat="41.68511833" lon="-4.75658333">
        <ele>772.0</ele>
        <time>2020-07-19T10:28:34.453Z</time>
      </trkpt>
      <trkpt lat="41.68509667" lon="-4.75659">
        <ele>772.0</ele>
        <time>2020-07-19T10:28:35.453Z</time>
      </trkpt>
      <trkpt lat="41.685075" lon="-4.75659667">
        <ele>772.0</ele>
        <time>2020-07-19T10:28:36.453Z</time>
      </trkpt>
      <trkpt lat="41.68505333" lon="-4.756605">
        <ele>772.0</ele>
        <time>2020-07-19T10:28:37.453Z</time>
      </trkpt>
      <trkpt lat="41.68503333" lon="-4.75661333">
        <ele>772.0</ele>
        <time>2020-07-19T10:28:38.453Z</time>
      </trkpt>
      <trkpt lat="41.685015" lon="-4.75662">
        <ele>773.0</ele>
        <time>2020-07-19T10:28:39.453Z</time>
      </trkpt>
      <trkpt lat="41.684995" lon="-4.75662833">
        <ele>773.0</ele>
        <time>2020-07-19T10:28:40.453Z</time>
      </trkpt>
      <trkpt lat="41.684975" lon="-4.756635">
        <ele>773.0</ele>
        <time>2020-07-19T10:28:41.453Z</time>
      </trkpt>
      <trkpt lat="41.684955" lon="-4.75664333">
        <ele>773.0</ele>
        <time>2020-07-19T10:28:42.453Z</time>
      </trkpt>
      <trkpt lat="41.68493667" lon="-4.75665">
        <ele>773.0</ele>
        <time>2020-07-19T10:28:43.453Z</time>
      </trkpt>
      <trkpt lat="41.68491833" lon="-4.75665667">
        <ele>773.0</ele>
        <time>2020-07-19T10:28:44.453Z</time>
      </trkpt>
      <trkpt lat="41.6849" lon="-4.75666333">
        <ele>773.0</ele>
        <time>2020-07-19T10:28:45.453Z</time>
      </trkpt>
      <trkpt lat="41.68488167" lon="-4.75667">
        <ele>773.0</ele>
        <time>2020-07-19T10:28:46.453Z</time>
      </trkpt>
      <trkpt lat="41.68486333" lon="-4.756675">
        <ele>774.0</ele>
        <time>2020-07-19T10:28:47.453Z</time>
      </trkpt>
      <trkpt lat="41.68484667" lon="-4.75668">
        <ele>774.0</ele>
        <time>2020-07-19T10:28:48.453Z</time>
      </trkpt>
      <trkpt lat="41.68483" lon="-4.756685">
        <ele>774.0</ele>
        <time>2020-07-19T10:28:49.453Z</time>
      </trkpt>
      <trkpt lat="41.684815" lon="-4.756685">
        <ele>774.0</ele>
        <time>2020-07-19T10:28:50.453Z</time>
      </trkpt>
      <trkpt lat="41.68479667" lon="-4.75668833">
        <ele>774.0</ele>
        <time>2020-07-19T10:28:51.453Z</time>
      </trkpt>
      <trkpt lat="41.68478" lon="-4.75669333">
        <ele>774.0</ele>
        <time>2020-07-19T10:28:52.453Z</time>
      </trkpt>
      <trkpt lat="41.684765" lon="-4.75669833">
        <ele>774.0</ele>
        <time>2020-07-19T10:28:53.453Z</time>
      </trkpt>
      <trkpt lat="41.68474833" lon="-4.75670167">
        <ele>775.0</ele>
        <time>2020-07-19T10:28:54.453Z</time>
      </trkpt>
      <trkpt lat="41.68472833" lon="-4.75670333">
        <ele>775.0</ele>
        <time>2020-07-19T10:28:55.453Z</time>
      </trkpt>
      <trkpt lat="41.68471167" lon="-4.75670833">
        <ele>775.0</ele>
        <time>2020-07-19T10:28:56.453Z</time>
      </trkpt>
      <trkpt lat="41.684695" lon="-4.75671333">
        <ele>775.0</ele>
        <time>2020-07-19T10:28:57.453Z</time>
      </trkpt>
      <trkpt lat="41.68467833" lon="-4.75671833">
        <ele>775.0</ele>
        <time>2020-07-19T10:28:58.453Z</time>
      </trkpt>
      <trkpt lat="41.68466" lon="-4.75672167">
        <ele>776.0</ele>
        <time>2020-07-19T10:28:59.453Z</time>
      </trkpt>
      <trkpt lat="41.68464167" lon="-4.75672667">
        <ele>776.0</ele>
        <time>2020-07-19T10:29:00.453Z</time>
      </trkpt>
      <trkpt lat="41.684625" lon="-4.75672667">
        <ele>776.0</ele>
        <time>2020-07-19T10:29:01.453Z</time>
      </trkpt>
      <trkpt lat="41.68461" lon="-4.75672833">
        <ele>776.0</ele>
        <time>2020-07-19T10:29:02.453Z</time>
      </trkpt>
      <trkpt lat="41.68459333" lon="-4.75672667">
        <ele>776.0</ele>
        <time>2020-07-19T10:29:03.453Z</time>
      </trkpt>
      <trkpt lat="41.68457667" lon="-4.75672667">
        <ele>777.0</ele>
        <time>2020-07-19T10:29:04.453Z</time>
      </trkpt>
      <trkpt lat="41.68456" lon="-4.756725">
        <ele>777.0</ele>
        <time>2020-07-19T10:29:05.453Z</time>
      </trkpt>
      <trkpt lat="41.684545" lon="-4.75672667">
        <ele>777.0</ele>
        <time>2020-07-19T10:29:06.453Z</time>
      </trkpt>
      <trkpt lat="41.68452833" lon="-4.75672667">
        <ele>777.0</ele>
        <time>2020-07-19T10:29:07.453Z</time>
      </trkpt>
      <trkpt lat="41.68451167" lon="-4.75672333">
        <ele>777.0</ele>
        <time>2020-07-19T10:29:08.453Z</time>
      </trkpt>
      <trkpt lat="41.684495" lon="-4.75672">
        <ele>777.0</ele>
        <time>2020-07-19T10:29:09.453Z</time>
      </trkpt>
      <trkpt lat="41.68448" lon="-4.75672">
        <ele>777.0</ele>
        <time>2020-07-19T10:29:10.453Z</time>
      </trkpt>
      <trkpt lat="41.684465" lon="-4.75671833">
        <ele>778.0</ele>
        <time>2020-07-19T10:29:11.453Z</time>
      </trkpt>
      <trkpt lat="41.68444667" lon="-4.75671667">
        <ele>778.0</ele>
        <time>2020-07-19T10:29:12.453Z</time>
      </trkpt>
      <trkpt lat="41.68443" lon="-4.75671333">
        <ele>778.0</ele>
        <time>2020-07-19T10:29:13.453Z</time>
      </trkpt>
      <trkpt lat="41.684415" lon="-4.75671">
        <ele>778.0</ele>
        <time>2020-07-19T10:29:14.453Z</time>
      </trkpt>
      <trkpt lat="41.68439667" lon="-4.75670833">
        <ele>778.0</ele>
        <time>2020-07-19T10:29:15.453Z</time>
      </trkpt>
      <trkpt lat="41.68438167" lon="-4.75670833">
        <ele>778.0</ele>
        <time>2020-07-19T10:29:16.453Z</time>
      </trkpt>
      <trkpt lat="41.684365" lon="-4.75670667">
        <ele>778.0</ele>
        <time>2020-07-19T10:29:17.453Z</time>
      </trkpt>
      <trkpt lat="41.68435" lon="-4.75670167">
        <ele>778.0</ele>
        <time>2020-07-19T10:29:18.453Z</time>
      </trkpt>
      <trkpt lat="41.68433167" lon="-4.7567">
        <ele>779.0</ele>
        <time>2020-07-19T10:29:19.453Z</time>
      </trkpt>
      <trkpt lat="41.684315" lon="-4.75669667">
        <ele>779.0</ele>
        <time>2020-07-19T10:29:20.453Z</time>
      </trkpt>
      <trkpt lat="41.68429833" lon="-4.756695">
        <ele>779.0</ele>
        <time>2020-07-19T10:29:21.453Z</time>
      </trkpt>
      <trkpt lat="41.68428167" lon="-4.75669333">
        <ele>779.0</ele>
        <time>2020-07-19T10:29:22.453Z</time>
      </trkpt>
      <trkpt lat="41.68426667" lon="-4.75668833">
        <ele>779.0</ele>
        <time>2020-07-19T10:29:23.453Z</time>
      </trkpt>
      <trkpt lat="41.68424667" lon="-4.756685">
        <ele>779.0</ele>
        <time>2020-07-19T10:29:24.453Z</time>
      </trkpt>
      <trkpt lat="41.68423" lon="-4.75668333">
        <ele>779.0</ele>
        <time>2020-07-19T10:29:25.453Z</time>
      </trkpt>
      <trkpt lat="41.68421167" lon="-4.75667667">
        <ele>779.0</ele>
        <time>2020-07-19T10:29:26.453Z</time>
      </trkpt>
      <trkpt lat="41.68419333" lon="-4.75667333">
        <ele>780.0</ele>
        <time>2020-07-19T10:29:27.453Z</time>
      </trkpt>
      <trkpt lat="41.68417833" lon="-4.75666833">
        <ele>780.0</ele>
        <time>2020-07-19T10:29:28.453Z</time>
      </trkpt>
      <trkpt lat="41.68416" lon="-4.75666333">
        <ele>780.0</ele>
        <time>2020-07-19T10:29:29.453Z</time>
      </trkpt>
      <trkpt lat="41.68414167" lon="-4.75665833">
        <ele>780.0</ele>
        <time>2020-07-19T10:29:30.453Z</time>
      </trkpt>
      <trkpt lat="41.68412333" lon="-4.756655">
        <ele>780.0</ele>
        <time>2020-07-19T10:29:31.453Z</time>
      </trkpt>
      <trkpt lat="41.68410667" lon="-4.75664833">
        <ele>780.0</ele>
        <time>2020-07-19T10:29:32.453Z</time>
      </trkpt>
      <trkpt lat="41.68409" lon="-4.756645">
        <ele>780.0</ele>
        <time>2020-07-19T10:29:33.453Z</time>
      </trkpt>
      <trkpt lat="41.68407167" lon="-4.75664">
        <ele>780.0</ele>
        <time>2020-07-19T10:29:34.453Z</time>
      </trkpt>
      <trkpt lat="41.68405333" lon="-4.756635">
        <ele>780.0</ele>
        <time>2020-07-19T10:29:35.453Z</time>
      </trkpt>
      <trkpt lat="41.68403333" lon="-4.75663167">
        <ele>780.0</ele>
        <time>2020-07-19T10:29:36.453Z</time>
      </trkpt>
      <trkpt lat="41.684015" lon="-4.75662833">
        <ele>780.0</ele>
        <time>2020-07-19T10:29:37.453Z</time>
      </trkpt>
      <trkpt lat="41.68399333" lon="-4.75662667">
        <ele>781.0</ele>
        <time>2020-07-19T10:29:38.453Z</time>
      </trkpt>
      <trkpt lat="41.683975" lon="-4.75662333">
        <ele>781.0</ele>
        <time>2020-07-19T10:29:39.453Z</time>
      </trkpt>
      <trkpt lat="41.68395667" lon="-4.75662">
        <ele>781.0</ele>
        <time>2020-07-19T10:29:40.453Z</time>
      </trkpt>
      <trkpt lat="41.68393833" lon="-4.75661667">
        <ele>781.0</ele>
        <time>2020-07-19T10:29:41.453Z</time>
      </trkpt>
      <trkpt lat="41.68392167" lon="-4.75661333">
        <ele>781.0</ele>
        <time>2020-07-19T10:29:42.453Z</time>
      </trkpt>
      <trkpt lat="41.683905" lon="-4.75661">
        <ele>781.0</ele>
        <time>2020-07-19T10:29:43.453Z</time>
      </trkpt>
      <trkpt lat="41.68388667" lon="-4.756605">
        <ele>781.0</ele>
        <time>2020-07-19T10:29:44.453Z</time>
      </trkpt>
      <trkpt lat="41.68387" lon="-4.7566">
        <ele>781.0</ele>
        <time>2020-07-19T10:29:45.453Z</time>
      </trkpt>
      <trkpt lat="41.68385167" lon="-4.756595">
        <ele>781.0</ele>
        <time>2020-07-19T10:29:46.453Z</time>
      </trkpt>
      <trkpt lat="41.68383667" lon="-4.75659">
        <ele>781.0</ele>
        <time>2020-07-19T10:29:47.453Z</time>
      </trkpt>
      <trkpt lat="41.68381667" lon="-4.75658333">
        <ele>781.0</ele>
        <time>2020-07-19T10:29:48.453Z</time>
      </trkpt>
      <trkpt lat="41.68379833" lon="-4.75657667">
        <ele>782.0</ele>
        <time>2020-07-19T10:29:49.453Z</time>
      </trkpt>
      <trkpt lat="41.68377667" lon="-4.75657">
        <ele>782.0</ele>
        <time>2020-07-19T10:29:50.453Z</time>
      </trkpt>
      <trkpt lat="41.68375667" lon="-4.75656333">
        <ele>782.0</ele>
        <time>2020-07-19T10:29:51.453Z</time>
      </trkpt>
      <trkpt lat="41.68373833" lon="-4.75655667">
        <ele>782.0</ele>
        <time>2020-07-19T10:29:52.453Z</time>
      </trkpt>
      <trkpt lat="41.68371667" lon="-4.75655">
        <ele>782.0</ele>
        <time>2020-07-19T10:29:53.453Z</time>
      </trkpt>
      <trkpt lat="41.683695" lon="-4.756545">
        <ele>782.0</ele>
        <time>2020-07-19T10:29:54.453Z</time>
      </trkpt>
      <trkpt lat="41.683675" lon="-4.75654167">
        <ele>782.0</ele>
        <time>2020-07-19T10:29:55.453Z</time>
      </trkpt>
      <trkpt lat="41.683655" lon="-4.75653833">
        <ele>782.0</ele>
        <time>2020-07-19T10:29:56.453Z</time>
      </trkpt>
      <trkpt lat="41.68364167" lon="-4.756535">
        <ele>782.0</ele>
        <time>2020-07-19T10:29:57.453Z</time>
      </trkpt>
      <trkpt lat="41.683625" lon="-4.75653167">
        <ele>782.0</ele>
        <time>2020-07-19T10:29:58.453Z</time>
      </trkpt>
      <trkpt lat="41.683605" lon="-4.75653167">
        <ele>783.0</ele>
        <time>2020-07-19T10:29:59.453Z</time>
      </trkpt>
      <trkpt lat="41.683585" lon="-4.75652833">
        <ele>783.0</ele>
        <time>2020-07-19T10:30:00.453Z</time>
      </trkpt>
      <trkpt lat="41.683565" lon="-4.75652667">
        <ele>783.0</ele>
        <time>2020-07-19T10:30:01.453Z</time>
      </trkpt>
      <trkpt lat="41.683545" lon="-4.75652333">
        <ele>783.0</ele>
        <time>2020-07-19T10:30:02.453Z</time>
      </trkpt>
      <trkpt lat="41.683525" lon="-4.75652">
        <ele>783.0</ele>
        <time>2020-07-19T10:30:03.453Z</time>
      </trkpt>
      <trkpt lat="41.683505" lon="-4.75651833">
        <ele>783.0</ele>
        <time>2020-07-19T10:30:04.453Z</time>
      </trkpt>
      <trkpt lat="41.683485" lon="-4.75651667">
        <ele>783.0</ele>
        <time>2020-07-19T10:30:05.453Z</time>
      </trkpt>
      <trkpt lat="41.68346333" lon="-4.756515">
        <ele>783.0</ele>
        <time>2020-07-19T10:30:06.453Z</time>
      </trkpt>
      <trkpt lat="41.683445" lon="-4.75651167">
        <ele>783.0</ele>
        <time>2020-07-19T10:30:07.453Z</time>
      </trkpt>
      <trkpt lat="41.68342667" lon="-4.75650833">
        <ele>783.0</ele>
        <time>2020-07-19T10:30:08.453Z</time>
      </trkpt>
      <trkpt lat="41.68341167" lon="-4.75650833">
        <ele>783.0</ele>
        <time>2020-07-19T10:30:09.453Z</time>
      </trkpt>
      <trkpt lat="41.683395" lon="-4.75650667">
        <ele>783.0</ele>
        <time>2020-07-19T10:30:10.453Z</time>
      </trkpt>
      <trkpt lat="41.68337667" lon="-4.756505">
        <ele>783.0</ele>
        <time>2020-07-19T10:30:11.453Z</time>
      </trkpt>
      <trkpt lat="41.68335833" lon="-4.75650167">
        <ele>783.0</ele>
        <time>2020-07-19T10:30:12.453Z</time>
      </trkpt>
      <trkpt lat="41.68334" lon="-4.75649833">
        <ele>783.0</ele>
        <time>2020-07-19T10:30:13.453Z</time>
      </trkpt>
      <trkpt lat="41.68332" lon="-4.756495">
        <ele>783.0</ele>
        <time>2020-07-19T10:30:14.453Z</time>
      </trkpt>
      <trkpt lat="41.68330167" lon="-4.75649167">
        <ele>784.0</ele>
        <time>2020-07-19T10:30:15.453Z</time>
      </trkpt>
      <trkpt lat="41.68328167" lon="-4.75649">
        <ele>784.0</ele>
        <time>2020-07-19T10:30:16.453Z</time>
      </trkpt>
      <trkpt lat="41.683265" lon="-4.75648833">
        <ele>784.0</ele>
        <time>2020-07-19T10:30:17.453Z</time>
      </trkpt>
      <trkpt lat="41.68324667" lon="-4.75649167">
        <ele>784.0</ele>
        <time>2020-07-19T10:30:18.453Z</time>
      </trkpt>
      <trkpt lat="41.68322667" lon="-4.756495">
        <ele>784.0</ele>
        <time>2020-07-19T10:30:19.453Z</time>
      </trkpt>
      <trkpt lat="41.68320667" lon="-4.7565">
        <ele>784.0</ele>
        <time>2020-07-19T10:30:20.453Z</time>
      </trkpt>
      <trkpt lat="41.68319167" lon="-4.75650667">
        <ele>784.0</ele>
        <time>2020-07-19T10:30:21.453Z</time>
      </trkpt>
      <trkpt lat="41.68317667" lon="-4.75651333">
        <ele>784.0</ele>
        <time>2020-07-19T10:30:22.453Z</time>
      </trkpt>
      <trkpt lat="41.68316333" lon="-4.756515">
        <ele>784.0</ele>
        <time>2020-07-19T10:30:23.453Z</time>
      </trkpt>
      <trkpt lat="41.683155" lon="-4.75651333">
        <ele>784.0</ele>
        <time>2020-07-19T10:30:24.453Z</time>
      </trkpt>
      <trkpt lat="41.68315167" lon="-4.75651">
        <ele>784.0</ele>
        <time>2020-07-19T10:30:25.453Z</time>
      </trkpt>
      <trkpt lat="41.683155" lon="-4.756505">
        <ele>784.0</ele>
        <time>2020-07-19T10:30:26.453Z</time>
      </trkpt>
      <trkpt lat="41.68315667" lon="-4.756505">
        <ele>784.0</ele>
        <time>2020-07-19T10:30:27.453Z</time>
      </trkpt>
      <trkpt lat="41.68315667" lon="-4.756505">
        <ele>784.0</ele>
        <time>2020-07-19T10:30:28.453Z</time>
      </trkpt>
      <trkpt lat="41.68315667" lon="-4.756505">
        <ele>784.0</ele>
        <time>2020-07-19T10:30:29.453Z</time>
      </trkpt>
      <trkpt lat="41.68315833" lon="-4.756505">
        <ele>785.0</ele>
        <time>2020-07-19T10:30:30.453Z</time>
      </trkpt>
      <trkpt lat="41.68315833" lon="-4.756505">
        <ele>785.0</ele>
        <time>2020-07-19T10:30:31.453Z</time>
      </trkpt>
      <trkpt lat="41.68315833" lon="-4.756505">
        <ele>785.0</ele>
        <time>2020-07-19T10:30:32.453Z</time>
      </trkpt>
      <trkpt lat="41.68315667" lon="-4.75650167">
        <ele>785.0</ele>
        <time>2020-07-19T10:30:33.453Z</time>
      </trkpt>
      <trkpt lat="41.683155" lon="-4.7565">
        <ele>785.0</ele>
        <time>2020-07-19T10:30:34.453Z</time>
      </trkpt>
      <trkpt lat="41.683155" lon="-4.75649667">
        <ele>785.0</ele>
        <time>2020-07-19T10:30:35.453Z</time>
      </trkpt>
      <trkpt lat="41.683155" lon="-4.75649833">
        <ele>785.0</ele>
        <time>2020-07-19T10:30:36.453Z</time>
      </trkpt>
      <trkpt lat="41.683155" lon="-4.7565">
        <ele>785.0</ele>
        <time>2020-07-19T10:30:37.453Z</time>
      </trkpt>
      <trkpt lat="41.68315333" lon="-4.75650167">
        <ele>785.0</ele>
        <time>2020-07-19T10:30:38.453Z</time>
      </trkpt>
      <trkpt lat="41.68315333" lon="-4.75650167">
        <ele>785.0</ele>
        <time>2020-07-19T10:30:39.453Z</time>
      </trkpt>
      <trkpt lat="41.68315333" lon="-4.75650167">
        <ele>785.0</ele>
        <time>2020-07-19T10:30:40.453Z</time>
      </trkpt>
      <trkpt lat="41.68315333" lon="-4.75650167">
        <ele>785.0</ele>
        <time>2020-07-19T10:30:41.453Z</time>
      </trkpt>
      <trkpt lat="41.68315333" lon="-4.75650167">
        <ele>785.0</ele>
        <time>2020-07-19T10:30:42.453Z</time>
      </trkpt>
      <trkpt lat="41.68315333" lon="-4.75650167">
        <ele>785.0</ele>
        <time>2020-07-19T10:30:43.453Z</time>
      </trkpt>
      <trkpt lat="41.68315167" lon="-4.75650167">
        <ele>785.0</ele>
        <time>2020-07-19T10:30:44.453Z</time>
      </trkpt>
      <trkpt lat="41.68315167" lon="-4.7565">
        <ele>785.0</ele>
        <time>2020-07-19T10:30:45.453Z</time>
      </trkpt>
      <trkpt lat="41.68315167" lon="-4.7565">
        <ele>785.0</ele>
        <time>2020-07-19T10:30:46.453Z</time>
      </trkpt>
      <trkpt lat="41.68315167" lon="-4.7565">
        <ele>785.0</ele>
        <time>2020-07-19T10:30:47.453Z</time>
      </trkpt>
      <trkpt lat="41.68315167" lon="-4.75650167">
        <ele>785.0</ele>
        <time>2020-07-19T10:30:48.453Z</time>
      </trkpt>
      <trkpt lat="41.68315333" lon="-4.75650167">
        <ele>785.0</ele>
        <time>2020-07-19T10:30:49.453Z</time>
      </trkpt>
      <trkpt lat="41.68315333" lon="-4.75650167">
        <ele>785.0</ele>
        <time>2020-07-19T10:30:50.453Z</time>
      </trkpt>
      <trkpt lat="41.68315167" lon="-4.75650167">
        <ele>785.0</ele>
        <time>2020-07-19T10:30:51.453Z</time>
      </trkpt>
      <trkpt lat="41.68315167" lon="-4.75650167">
        <ele>785.0</ele>
        <time>2020-07-19T10:30:52.453Z</time>
      </trkpt>
      <trkpt lat="41.68315" lon="-4.756505">
        <ele>785.0</ele>
        <time>2020-07-19T10:30:53.453Z</time>
      </trkpt>
      <trkpt lat="41.68315167" lon="-4.756505">
        <ele>785.0</ele>
        <time>2020-07-19T10:30:54.453Z</time>
      </trkpt>
      <trkpt lat="41.68315167" lon="-4.75650667">
        <ele>785.0</ele>
        <time>2020-07-19T10:30:55.453Z</time>
      </trkpt>
      <trkpt lat="41.68315" lon="-4.75650667">
        <ele>785.0</ele>
        <time>2020-07-19T10:30:56.453Z</time>
      </trkpt>
      <trkpt lat="41.68315" lon="-4.75650667">
        <ele>785.0</ele>
        <time>2020-07-19T10:30:57.453Z</time>
      </trkpt>
      <trkpt lat="41.68315" lon="-4.75650667">
        <ele>785.0</ele>
        <time>2020-07-19T10:30:58.453Z</time>
      </trkpt>
      <trkpt lat="41.68315" lon="-4.75650667">
        <ele>786.0</ele>
        <time>2020-07-19T10:30:59.453Z</time>
      </trkpt>
      <trkpt lat="41.68315" lon="-4.75650667">
        <ele>786.0</ele>
        <time>2020-07-19T10:31:00.453Z</time>
      </trkpt>
      <trkpt lat="41.68314833" lon="-4.756505">
        <ele>786.0</ele>
        <time>2020-07-19T10:31:01.453Z</time>
      </trkpt>
      <trkpt lat="41.68314833" lon="-4.756505">
        <ele>786.0</ele>
        <time>2020-07-19T10:31:02.453Z</time>
      </trkpt>
      <trkpt lat="41.68314833" lon="-4.756505">
        <ele>786.0</ele>
        <time>2020-07-19T10:31:03.453Z</time>
      </trkpt>
      <trkpt lat="41.68314833" lon="-4.756505">
        <ele>786.0</ele>
        <time>2020-07-19T10:31:04.453Z</time>
      </trkpt>
      <trkpt lat="41.683145" lon="-4.756505">
        <ele>786.0</ele>
        <time>2020-07-19T10:31:05.453Z</time>
      </trkpt>
      <trkpt lat="41.683135" lon="-4.75650833">
        <ele>786.0</ele>
        <time>2020-07-19T10:31:06.453Z</time>
      </trkpt>
      <trkpt lat="41.68312667" lon="-4.75651333">
        <ele>786.0</ele>
        <time>2020-07-19T10:31:07.453Z</time>
      </trkpt>
      <trkpt lat="41.68311333" lon="-4.75652">
        <ele>786.0</ele>
        <time>2020-07-19T10:31:08.453Z</time>
      </trkpt>
      <trkpt lat="41.68309333" lon="-4.75652833">
        <ele>786.0</ele>
        <time>2020-07-19T10:31:09.453Z</time>
      </trkpt>
      <trkpt lat="41.68307333" lon="-4.75653833">
        <ele>786.0</ele>
        <time>2020-07-19T10:31:10.453Z</time>
      </trkpt>
      <trkpt lat="41.68305" lon="-4.756545">
        <ele>786.0</ele>
        <time>2020-07-19T10:31:11.453Z</time>
      </trkpt>
      <trkpt lat="41.683025" lon="-4.75654833">
        <ele>786.0</ele>
        <time>2020-07-19T10:31:12.453Z</time>
      </trkpt>
      <trkpt lat="41.68300167" lon="-4.75655167">
        <ele>786.0</ele>
        <time>2020-07-19T10:31:13.453Z</time>
      </trkpt>
      <trkpt lat="41.68298" lon="-4.75655333">
        <ele>786.0</ele>
        <time>2020-07-19T10:31:14.453Z</time>
      </trkpt>
      <trkpt lat="41.68295833" lon="-4.75655667">
        <ele>786.0</ele>
        <time>2020-07-19T10:31:15.453Z</time>
      </trkpt>
      <trkpt lat="41.68293833" lon="-4.75655667">
        <ele>786.0</ele>
        <time>2020-07-19T10:31:16.453Z</time>
      </trkpt>
      <trkpt lat="41.682915" lon="-4.75655667">
        <ele>786.0</ele>
        <time>2020-07-19T10:31:17.453Z</time>
      </trkpt>
      <trkpt lat="41.68289" lon="-4.756555">
        <ele>786.0</ele>
        <time>2020-07-19T10:31:18.453Z</time>
      </trkpt>
      <trkpt lat="41.682865" lon="-4.75655333">
        <ele>787.0</ele>
        <time>2020-07-19T10:31:19.453Z</time>
      </trkpt>
      <trkpt lat="41.68283833" lon="-4.75654833">
        <ele>787.0</ele>
        <time>2020-07-19T10:31:20.453Z</time>
      </trkpt>
      <trkpt lat="41.68281333" lon="-4.75654667">
        <ele>787.0</ele>
        <time>2020-07-19T10:31:21.453Z</time>
      </trkpt>
      <trkpt lat="41.68278833" lon="-4.75654">
        <ele>787.0</ele>
        <time>2020-07-19T10:31:22.453Z</time>
      </trkpt>
      <trkpt lat="41.68276333" lon="-4.75653333">
        <ele>787.0</ele>
        <time>2020-07-19T10:31:23.453Z</time>
      </trkpt>
      <trkpt lat="41.68274" lon="-4.75652833">
        <ele>787.0</ele>
        <time>2020-07-19T10:31:24.453Z</time>
      </trkpt>
      <trkpt lat="41.68271667" lon="-4.75652667">
        <ele>787.0</ele>
        <time>2020-07-19T10:31:25.453Z</time>
      </trkpt>
      <trkpt lat="41.68269333" lon="-4.756525">
        <ele>787.0</ele>
        <time>2020-07-19T10:31:26.453Z</time>
      </trkpt>
      <trkpt lat="41.68267167" lon="-4.75652167">
        <ele>787.0</ele>
        <time>2020-07-19T10:31:27.453Z</time>
      </trkpt>
      <trkpt lat="41.68264833" lon="-4.75651833">
        <ele>788.0</ele>
        <time>2020-07-19T10:31:28.453Z</time>
      </trkpt>
      <trkpt lat="41.682625" lon="-4.75651833">
        <ele>788.0</ele>
        <time>2020-07-19T10:31:29.453Z</time>
      </trkpt>
      <trkpt lat="41.6826" lon="-4.75651667">
        <ele>788.0</ele>
        <time>2020-07-19T10:31:30.453Z</time>
      </trkpt>
      <trkpt lat="41.682575" lon="-4.75651833">
        <ele>788.0</ele>
        <time>2020-07-19T10:31:31.453Z</time>
      </trkpt>
      <trkpt lat="41.68255333" lon="-4.75651333">
        <ele>788.0</ele>
        <time>2020-07-19T10:31:32.453Z</time>
      </trkpt>
      <trkpt lat="41.682535" lon="-4.75650833">
        <ele>788.0</ele>
        <time>2020-07-19T10:31:33.453Z</time>
      </trkpt>
      <trkpt lat="41.682525" lon="-4.75650667">
        <ele>788.0</ele>
        <time>2020-07-19T10:31:34.453Z</time>
      </trkpt>
      <trkpt lat="41.68252333" lon="-4.75650667">
        <ele>788.0</ele>
        <time>2020-07-19T10:31:35.453Z</time>
      </trkpt>
      <trkpt lat="41.68252" lon="-4.75650167">
        <ele>788.0</ele>
        <time>2020-07-19T10:31:36.453Z</time>
      </trkpt>
      <trkpt lat="41.68252" lon="-4.75650167">
        <ele>788.0</ele>
        <time>2020-07-19T10:31:37.453Z</time>
      </trkpt>
      <trkpt lat="41.68251833" lon="-4.75650167">
        <ele>789.0</ele>
        <time>2020-07-19T10:31:38.453Z</time>
      </trkpt>
      <trkpt lat="41.682515" lon="-4.7565">
        <ele>789.0</ele>
        <time>2020-07-19T10:31:39.453Z</time>
      </trkpt>
      <trkpt lat="41.68251333" lon="-4.75649833">
        <ele>789.0</ele>
        <time>2020-07-19T10:31:40.453Z</time>
      </trkpt>
      <trkpt lat="41.68251167" lon="-4.7565">
        <ele>789.0</ele>
        <time>2020-07-19T10:31:41.453Z</time>
      </trkpt>
      <trkpt lat="41.68251167" lon="-4.75650167">
        <ele>789.0</ele>
        <time>2020-07-19T10:31:42.453Z</time>
      </trkpt>
      <trkpt lat="41.68251" lon="-4.7565">
        <ele>789.0</ele>
        <time>2020-07-19T10:31:43.453Z</time>
      </trkpt>
      <trkpt lat="41.68251" lon="-4.7565">
        <ele>789.0</ele>
        <time>2020-07-19T10:31:44.453Z</time>
      </trkpt>
      <trkpt lat="41.68251167" lon="-4.7565">
        <ele>789.0</ele>
        <time>2020-07-19T10:31:45.453Z</time>
      </trkpt>
      <trkpt lat="41.68251167" lon="-4.7565">
        <ele>789.0</ele>
        <time>2020-07-19T10:31:46.453Z</time>
      </trkpt>
      <trkpt lat="41.68251167" lon="-4.7565">
        <ele>789.0</ele>
        <time>2020-07-19T10:31:47.453Z</time>
      </trkpt>
      <trkpt lat="41.68251" lon="-4.7565">
        <ele>789.0</ele>
        <time>2020-07-19T10:31:48.453Z</time>
      </trkpt>
      <trkpt lat="41.68251" lon="-4.7565">
        <ele>789.0</ele>
        <time>2020-07-19T10:31:49.453Z</time>
      </trkpt>
      <trkpt lat="41.68251" lon="-4.7565">
        <ele>789.0</ele>
        <time>2020-07-19T10:31:50.453Z</time>
      </trkpt>
      <trkpt lat="41.68251" lon="-4.7565">
        <ele>789.0</ele>
        <time>2020-07-19T10:31:51.453Z</time>
      </trkpt>
      <trkpt lat="41.68250833" lon="-4.75649667">
        <ele>789.0</ele>
        <time>2020-07-19T10:31:52.453Z</time>
      </trkpt>
      <trkpt lat="41.68251167" lon="-4.756495">
        <ele>789.0</ele>
        <time>2020-07-19T10:31:53.453Z</time>
      </trkpt>
      <trkpt lat="41.68251" lon="-4.75649667">
        <ele>789.0</ele>
        <time>2020-07-19T10:31:54.453Z</time>
      </trkpt>
      <trkpt lat="41.68251" lon="-4.756495">
        <ele>789.0</ele>
        <time>2020-07-19T10:31:55.453Z</time>
      </trkpt>
      <trkpt lat="41.68251" lon="-4.756495">
        <ele>789.0</ele>
        <time>2020-07-19T10:31:56.453Z</time>
      </trkpt>
      <trkpt lat="41.68251167" lon="-4.75649667">
        <ele>789.0</ele>
        <time>2020-07-19T10:31:57.453Z</time>
      </trkpt>
      <trkpt lat="41.68251167" lon="-4.75649667">
        <ele>789.0</ele>
        <time>2020-07-19T10:31:58.453Z</time>
      </trkpt>
      <trkpt lat="41.68251167" lon="-4.75649833">
        <ele>789.0</ele>
        <time>2020-07-19T10:31:59.453Z</time>
      </trkpt>
      <trkpt lat="41.68251167" lon="-4.75649833">
        <ele>789.0</ele>
        <time>2020-07-19T10:32:00.453Z</time>
      </trkpt>
      <trkpt lat="41.68251167" lon="-4.75649333">
        <ele>789.0</ele>
        <time>2020-07-19T10:32:01.453Z</time>
      </trkpt>
      <trkpt lat="41.68251167" lon="-4.75649333">
        <ele>789.0</ele>
        <time>2020-07-19T10:32:02.453Z</time>
      </trkpt>
      <trkpt lat="41.68250833" lon="-4.756495">
        <ele>789.0</ele>
        <time>2020-07-19T10:32:03.453Z</time>
      </trkpt>
      <trkpt lat="41.682505" lon="-4.75649833">
        <ele>789.0</ele>
        <time>2020-07-19T10:32:04.453Z</time>
      </trkpt>
      <trkpt lat="41.68250167" lon="-4.7565">
        <ele>789.0</ele>
        <time>2020-07-19T10:32:05.453Z</time>
      </trkpt>
      <trkpt lat="41.68249" lon="-4.75650333">
        <ele>789.0</ele>
        <time>2020-07-19T10:32:06.453Z</time>
      </trkpt>
      <trkpt lat="41.68247667" lon="-4.75650833">
        <ele>789.0</ele>
        <time>2020-07-19T10:32:07.453Z</time>
      </trkpt>
      <trkpt lat="41.68246" lon="-4.75650833">
        <ele>789.0</ele>
        <time>2020-07-19T10:32:08.453Z</time>
      </trkpt>
      <trkpt lat="41.68244" lon="-4.75650833">
        <ele>789.0</ele>
        <time>2020-07-19T10:32:09.453Z</time>
      </trkpt>
      <trkpt lat="41.68242" lon="-4.75650833">
        <ele>789.0</ele>
        <time>2020-07-19T10:32:10.453Z</time>
      </trkpt>
      <trkpt lat="41.68239833" lon="-4.756505">
        <ele>789.0</ele>
        <time>2020-07-19T10:32:11.453Z</time>
      </trkpt>
      <trkpt lat="41.682375" lon="-4.7565">
        <ele>789.0</ele>
        <time>2020-07-19T10:32:12.453Z</time>
      </trkpt>
      <trkpt lat="41.68235" lon="-4.75650167">
        <ele>789.0</ele>
        <time>2020-07-19T10:32:13.453Z</time>
      </trkpt>
      <trkpt lat="41.68232333" lon="-4.7565">
        <ele>789.0</ele>
        <time>2020-07-19T10:32:14.453Z</time>
      </trkpt>
      <trkpt lat="41.68229333" lon="-4.7565">
        <ele>789.0</ele>
        <time>2020-07-19T10:32:15.453Z</time>
      </trkpt>
      <trkpt lat="41.68226167" lon="-4.75649667">
        <ele>788.0</ele>
        <time>2020-07-19T10:32:16.453Z</time>
      </trkpt>
      <trkpt lat="41.68222667" lon="-4.756495">
        <ele>788.0</ele>
        <time>2020-07-19T10:32:17.453Z</time>
      </trkpt>
      <trkpt lat="41.68219" lon="-4.75649167">
        <ele>788.0</ele>
        <time>2020-07-19T10:32:18.453Z</time>
      </trkpt>
      <trkpt lat="41.68215333" lon="-4.75648833">
        <ele>788.0</ele>
        <time>2020-07-19T10:32:19.453Z</time>
      </trkpt>
      <trkpt lat="41.68211667" lon="-4.75648333">
        <ele>788.0</ele>
        <time>2020-07-19T10:32:20.453Z</time>
      </trkpt>
      <trkpt lat="41.68207833" lon="-4.75648">
        <ele>788.0</ele>
        <time>2020-07-19T10:32:21.453Z</time>
      </trkpt>
      <trkpt lat="41.68204" lon="-4.75647667">
        <ele>788.0</ele>
        <time>2020-07-19T10:32:22.453Z</time>
      </trkpt>
      <trkpt lat="41.682" lon="-4.756475">
        <ele>788.0</ele>
        <time>2020-07-19T10:32:23.453Z</time>
      </trkpt>
      <trkpt lat="41.68195833" lon="-4.75647167">
        <ele>788.0</ele>
        <time>2020-07-19T10:32:24.453Z</time>
      </trkpt>
      <trkpt lat="41.68191667" lon="-4.75646833">
        <ele>788.0</ele>
        <time>2020-07-19T10:32:25.453Z</time>
      </trkpt>
      <trkpt lat="41.68187333" lon="-4.75646833">
        <ele>787.0</ele>
        <time>2020-07-19T10:32:26.453Z</time>
      </trkpt>
      <trkpt lat="41.68182333" lon="-4.75646667">
        <ele>787.0</ele>
        <time>2020-07-19T10:32:27.453Z</time>
      </trkpt>
      <trkpt lat="41.68177" lon="-4.75646">
        <ele>787.0</ele>
        <time>2020-07-19T10:32:28.453Z</time>
      </trkpt>
      <trkpt lat="41.681715" lon="-4.75644833">
        <ele>787.0</ele>
        <time>2020-07-19T10:32:29.453Z</time>
      </trkpt>
      <trkpt lat="41.68166333" lon="-4.75643667">
        <ele>787.0</ele>
        <time>2020-07-19T10:32:30.453Z</time>
      </trkpt>
      <trkpt lat="41.68160833" lon="-4.75642">
        <ele>787.0</ele>
        <time>2020-07-19T10:32:31.453Z</time>
      </trkpt>
      <trkpt lat="41.68155333" lon="-4.7564">
        <ele>787.0</ele>
        <time>2020-07-19T10:32:32.453Z</time>
      </trkpt>
      <trkpt lat="41.68149833" lon="-4.75637667">
        <ele>787.0</ele>
        <time>2020-07-19T10:32:33.453Z</time>
      </trkpt>
      <trkpt lat="41.681445" lon="-4.75635167">
        <ele>787.0</ele>
        <time>2020-07-19T10:32:34.453Z</time>
      </trkpt>
      <trkpt lat="41.68138833" lon="-4.75632333">
        <ele>787.0</ele>
        <time>2020-07-19T10:32:35.453Z</time>
      </trkpt>
      <trkpt lat="41.68133333" lon="-4.75629333">
        <ele>787.0</ele>
        <time>2020-07-19T10:32:36.453Z</time>
      </trkpt>
      <trkpt lat="41.681275" lon="-4.75626">
        <ele>787.0</ele>
        <time>2020-07-19T10:32:37.453Z</time>
      </trkpt>
      <trkpt lat="41.68121667" lon="-4.756225">
        <ele>787.0</ele>
        <time>2020-07-19T10:32:38.453Z</time>
      </trkpt>
      <trkpt lat="41.68115667" lon="-4.75618833">
        <ele>786.0</ele>
        <time>2020-07-19T10:32:39.453Z</time>
      </trkpt>
      <trkpt lat="41.68109667" lon="-4.75615333">
        <ele>786.0</ele>
        <time>2020-07-19T10:32:40.453Z</time>
      </trkpt>
      <trkpt lat="41.68103667" lon="-4.756115">
        <ele>786.0</ele>
        <time>2020-07-19T10:32:41.453Z</time>
      </trkpt>
      <trkpt lat="41.68097667" lon="-4.756075">
        <ele>786.0</ele>
        <time>2020-07-19T10:32:42.453Z</time>
      </trkpt>
      <trkpt lat="41.68091333" lon="-4.75603667">
        <ele>786.0</ele>
        <time>2020-07-19T10:32:43.453Z</time>
      </trkpt>
      <trkpt lat="41.68085" lon="-4.75599667">
        <ele>786.0</ele>
        <time>2020-07-19T10:32:44.453Z</time>
      </trkpt>
      <trkpt lat="41.680785" lon="-4.75595333">
        <ele>786.0</ele>
        <time>2020-07-19T10:32:45.453Z</time>
      </trkpt>
      <trkpt lat="41.68071667" lon="-4.75591">
        <ele>786.0</ele>
        <time>2020-07-19T10:32:46.453Z</time>
      </trkpt>
      <trkpt lat="41.68064833" lon="-4.755865">
        <ele>786.0</ele>
        <time>2020-07-19T10:32:47.453Z</time>
      </trkpt>
      <trkpt lat="41.68058" lon="-4.75582">
        <ele>784.0</ele>
        <time>2020-07-19T10:32:48.453Z</time>
      </trkpt>
      <trkpt lat="41.68051167" lon="-4.75578167">
        <ele>784.0</ele>
        <time>2020-07-19T10:32:49.453Z</time>
      </trkpt>
      <trkpt lat="41.68044333" lon="-4.755745">
        <ele>784.0</ele>
        <time>2020-07-19T10:32:50.453Z</time>
      </trkpt>
      <trkpt lat="41.68037333" lon="-4.75571">
        <ele>783.0</ele>
        <time>2020-07-19T10:32:51.453Z</time>
      </trkpt>
      <trkpt lat="41.6803" lon="-4.755685">
        <ele>783.0</ele>
        <time>2020-07-19T10:32:52.453Z</time>
      </trkpt>
      <trkpt lat="41.680225" lon="-4.75566833">
        <ele>782.0</ele>
        <time>2020-07-19T10:32:53.453Z</time>
      </trkpt>
      <trkpt lat="41.68015167" lon="-4.755655">
        <ele>782.0</ele>
        <time>2020-07-19T10:32:54.453Z</time>
      </trkpt>
      <trkpt lat="41.68008" lon="-4.75564667">
        <ele>782.0</ele>
        <time>2020-07-19T10:32:55.453Z</time>
      </trkpt>
      <trkpt lat="41.68001" lon="-4.75563833">
        <ele>782.0</ele>
        <time>2020-07-19T10:32:56.453Z</time>
      </trkpt>
      <trkpt lat="41.67994" lon="-4.75562833">
        <ele>782.0</ele>
        <time>2020-07-19T10:32:57.453Z</time>
      </trkpt>
      <trkpt lat="41.67987333" lon="-4.75561833">
        <ele>782.0</ele>
        <time>2020-07-19T10:32:58.453Z</time>
      </trkpt>
      <trkpt lat="41.67980667" lon="-4.75561">
        <ele>782.0</ele>
        <time>2020-07-19T10:32:59.453Z</time>
      </trkpt>
      <trkpt lat="41.67974167" lon="-4.755605">
        <ele>782.0</ele>
        <time>2020-07-19T10:33:00.453Z</time>
      </trkpt>
      <trkpt lat="41.67968167" lon="-4.755595">
        <ele>780.0</ele>
        <time>2020-07-19T10:33:01.453Z</time>
      </trkpt>
      <trkpt lat="41.67962333" lon="-4.75559">
        <ele>780.0</ele>
        <time>2020-07-19T10:33:02.453Z</time>
      </trkpt>
      <trkpt lat="41.679565" lon="-4.75559">
        <ele>779.0</ele>
        <time>2020-07-19T10:33:03.453Z</time>
      </trkpt>
      <trkpt lat="41.67950667" lon="-4.75559167">
        <ele>779.0</ele>
        <time>2020-07-19T10:33:04.453Z</time>
      </trkpt>
      <trkpt lat="41.67944833" lon="-4.75559333">
        <ele>779.0</ele>
        <time>2020-07-19T10:33:05.453Z</time>
      </trkpt>
      <trkpt lat="41.67939333" lon="-4.7556">
        <ele>778.0</ele>
        <time>2020-07-19T10:33:06.453Z</time>
      </trkpt>
      <trkpt lat="41.67933833" lon="-4.75560833">
        <ele>778.0</ele>
        <time>2020-07-19T10:33:07.453Z</time>
      </trkpt>
      <trkpt lat="41.67928667" lon="-4.75561333">
        <ele>778.0</ele>
        <time>2020-07-19T10:33:08.453Z</time>
      </trkpt>
      <trkpt lat="41.679235" lon="-4.755615">
        <ele>778.0</ele>
        <time>2020-07-19T10:33:09.453Z</time>
      </trkpt>
      <trkpt lat="41.67918333" lon="-4.75560667">
        <ele>778.0</ele>
        <time>2020-07-19T10:33:10.453Z</time>
      </trkpt>
      <trkpt lat="41.67913167" lon="-4.75559333">
        <ele>777.0</ele>
        <time>2020-07-19T10:33:11.453Z</time>
      </trkpt>
      <trkpt lat="41.67908167" lon="-4.75556833">
        <ele>777.0</ele>
        <time>2020-07-19T10:33:12.453Z</time>
      </trkpt>
      <trkpt lat="41.67903667" lon="-4.75553833">
        <ele>777.0</ele>
        <time>2020-07-19T10:33:13.453Z</time>
      </trkpt>
      <trkpt lat="41.67899333" lon="-4.75550667">
        <ele>777.0</ele>
        <time>2020-07-19T10:33:14.453Z</time>
      </trkpt>
      <trkpt lat="41.67895167" lon="-4.75548167">
        <ele>776.0</ele>
        <time>2020-07-19T10:33:15.453Z</time>
      </trkpt>
      <trkpt lat="41.67891" lon="-4.75546333">
        <ele>776.0</ele>
        <time>2020-07-19T10:33:16.453Z</time>
      </trkpt>
      <trkpt lat="41.67886667" lon="-4.75545167">
        <ele>776.0</ele>
        <time>2020-07-19T10:33:17.453Z</time>
      </trkpt>
      <trkpt lat="41.678825" lon="-4.755445">
        <ele>776.0</ele>
        <time>2020-07-19T10:33:18.453Z</time>
      </trkpt>
      <trkpt lat="41.67878333" lon="-4.75543833">
        <ele>775.0</ele>
        <time>2020-07-19T10:33:19.453Z</time>
      </trkpt>
      <trkpt lat="41.67874167" lon="-4.75543167">
        <ele>775.0</ele>
        <time>2020-07-19T10:33:20.453Z</time>
      </trkpt>
      <trkpt lat="41.67870167" lon="-4.755425">
        <ele>775.0</ele>
        <time>2020-07-19T10:33:21.453Z</time>
      </trkpt>
      <trkpt lat="41.67866167" lon="-4.75542">
        <ele>775.0</ele>
        <time>2020-07-19T10:33:22.453Z</time>
      </trkpt>
      <trkpt lat="41.67862167" lon="-4.75541667">
        <ele>775.0</ele>
        <time>2020-07-19T10:33:23.453Z</time>
      </trkpt>
      <trkpt lat="41.67858167" lon="-4.75541167">
        <ele>775.0</ele>
        <time>2020-07-19T10:33:24.453Z</time>
      </trkpt>
      <trkpt lat="41.67854333" lon="-4.75541">
        <ele>775.0</ele>
        <time>2020-07-19T10:33:25.453Z</time>
      </trkpt>
      <trkpt lat="41.678505" lon="-4.75541">
        <ele>775.0</ele>
        <time>2020-07-19T10:33:26.453Z</time>
      </trkpt>
      <trkpt lat="41.67846833" lon="-4.75540833">
        <ele>775.0</ele>
        <time>2020-07-19T10:33:27.453Z</time>
      </trkpt>
      <trkpt lat="41.67843333" lon="-4.75540833">
        <ele>775.0</ele>
        <time>2020-07-19T10:33:28.453Z</time>
      </trkpt>
      <trkpt lat="41.67839833" lon="-4.75540667">
        <ele>775.0</ele>
        <time>2020-07-19T10:33:29.453Z</time>
      </trkpt>
      <trkpt lat="41.678365" lon="-4.755405">
        <ele>775.0</ele>
        <time>2020-07-19T10:33:30.453Z</time>
      </trkpt>
      <trkpt lat="41.67833167" lon="-4.75540333">
        <ele>775.0</ele>
        <time>2020-07-19T10:33:31.453Z</time>
      </trkpt>
      <trkpt lat="41.67829833" lon="-4.7554">
        <ele>775.0</ele>
        <time>2020-07-19T10:33:32.453Z</time>
      </trkpt>
      <trkpt lat="41.678265" lon="-4.75539667">
        <ele>775.0</ele>
        <time>2020-07-19T10:33:33.453Z</time>
      </trkpt>
      <trkpt lat="41.67823167" lon="-4.75539333">
        <ele>775.0</ele>
        <time>2020-07-19T10:33:34.453Z</time>
      </trkpt>
      <trkpt lat="41.67819833" lon="-4.75538833">
        <ele>775.0</ele>
        <time>2020-07-19T10:33:35.453Z</time>
      </trkpt>
      <trkpt lat="41.67816833" lon="-4.755385">
        <ele>775.0</ele>
        <time>2020-07-19T10:33:36.453Z</time>
      </trkpt>
      <trkpt lat="41.678135" lon="-4.75538">
        <ele>775.0</ele>
        <time>2020-07-19T10:33:37.453Z</time>
      </trkpt>
      <trkpt lat="41.67810333" lon="-4.75537333">
        <ele>776.0</ele>
        <time>2020-07-19T10:33:38.453Z</time>
      </trkpt>
      <trkpt lat="41.67807" lon="-4.75536667">
        <ele>776.0</ele>
        <time>2020-07-19T10:33:39.453Z</time>
      </trkpt>
      <trkpt lat="41.67803667" lon="-4.75536167">
        <ele>776.0</ele>
        <time>2020-07-19T10:33:40.453Z</time>
      </trkpt>
      <trkpt lat="41.678005" lon="-4.75535667">
        <ele>776.0</ele>
        <time>2020-07-19T10:33:41.453Z</time>
      </trkpt>
      <trkpt lat="41.67797333" lon="-4.75535333">
        <ele>776.0</ele>
        <time>2020-07-19T10:33:42.453Z</time>
      </trkpt>
      <trkpt lat="41.67794167" lon="-4.75534833">
        <ele>776.0</ele>
        <time>2020-07-19T10:33:43.453Z</time>
      </trkpt>
      <trkpt lat="41.67790833" lon="-4.75534167">
        <ele>776.0</ele>
        <time>2020-07-19T10:33:44.453Z</time>
      </trkpt>
      <trkpt lat="41.67787667" lon="-4.755335">
        <ele>776.0</ele>
        <time>2020-07-19T10:33:45.453Z</time>
      </trkpt>
      <trkpt lat="41.67784333" lon="-4.75532833">
        <ele>776.0</ele>
        <time>2020-07-19T10:33:46.453Z</time>
      </trkpt>
      <trkpt lat="41.67781" lon="-4.75532">
        <ele>776.0</ele>
        <time>2020-07-19T10:33:47.453Z</time>
      </trkpt>
      <trkpt lat="41.67777667" lon="-4.75531">
        <ele>776.0</ele>
        <time>2020-07-19T10:33:48.453Z</time>
      </trkpt>
      <trkpt lat="41.67774333" lon="-4.7553">
        <ele>776.0</ele>
        <time>2020-07-19T10:33:49.453Z</time>
      </trkpt>
      <trkpt lat="41.67771167" lon="-4.75529">
        <ele>776.0</ele>
        <time>2020-07-19T10:33:50.453Z</time>
      </trkpt>
      <trkpt lat="41.67768167" lon="-4.75527333">
        <ele>776.0</ele>
        <time>2020-07-19T10:33:51.453Z</time>
      </trkpt>
      <trkpt lat="41.67765333" lon="-4.75525333">
        <ele>776.0</ele>
        <time>2020-07-19T10:33:52.453Z</time>
      </trkpt>
      <trkpt lat="41.67763" lon="-4.755225">
        <ele>776.0</ele>
        <time>2020-07-19T10:33:53.453Z</time>
      </trkpt>
      <trkpt lat="41.67760333" lon="-4.75519">
        <ele>776.0</ele>
        <time>2020-07-19T10:33:54.453Z</time>
      </trkpt>
      <trkpt lat="41.67757667" lon="-4.75515333">
        <ele>776.0</ele>
        <time>2020-07-19T10:33:55.453Z</time>
      </trkpt>
      <trkpt lat="41.67754833" lon="-4.75511667">
        <ele>776.0</ele>
        <time>2020-07-19T10:33:56.453Z</time>
      </trkpt>
      <trkpt lat="41.67752333" lon="-4.75507833">
        <ele>776.0</ele>
        <time>2020-07-19T10:33:57.453Z</time>
      </trkpt>
      <trkpt lat="41.6775" lon="-4.75504167">
        <ele>776.0</ele>
        <time>2020-07-19T10:33:58.453Z</time>
      </trkpt>
      <trkpt lat="41.67748" lon="-4.75499667">
        <ele>776.0</ele>
        <time>2020-07-19T10:33:59.453Z</time>
      </trkpt>
      <trkpt lat="41.67746167" lon="-4.75495333">
        <ele>775.0</ele>
        <time>2020-07-19T10:34:00.453Z</time>
      </trkpt>
      <trkpt lat="41.67744" lon="-4.754905">
        <ele>775.0</ele>
        <time>2020-07-19T10:34:01.453Z</time>
      </trkpt>
      <trkpt lat="41.67741667" lon="-4.75486333">
        <ele>775.0</ele>
        <time>2020-07-19T10:34:02.453Z</time>
      </trkpt>
      <trkpt lat="41.67739333" lon="-4.75482167">
        <ele>775.0</ele>
        <time>2020-07-19T10:34:03.453Z</time>
      </trkpt>
      <trkpt lat="41.67736833" lon="-4.75477833">
        <ele>775.0</ele>
        <time>2020-07-19T10:34:04.453Z</time>
      </trkpt>
      <trkpt lat="41.677345" lon="-4.75473667">
        <ele>775.0</ele>
        <time>2020-07-19T10:34:05.453Z</time>
      </trkpt>
      <trkpt lat="41.67732333" lon="-4.754695">
        <ele>775.0</ele>
        <time>2020-07-19T10:34:06.453Z</time>
      </trkpt>
      <trkpt lat="41.67730333" lon="-4.75465333">
        <ele>775.0</ele>
        <time>2020-07-19T10:34:07.453Z</time>
      </trkpt>
      <trkpt lat="41.67728" lon="-4.75461833">
        <ele>775.0</ele>
        <time>2020-07-19T10:34:08.453Z</time>
      </trkpt>
      <trkpt lat="41.677255" lon="-4.75458833">
        <ele>775.0</ele>
        <time>2020-07-19T10:34:09.453Z</time>
      </trkpt>
      <trkpt lat="41.67723" lon="-4.75455833">
        <ele>775.0</ele>
        <time>2020-07-19T10:34:10.453Z</time>
      </trkpt>
      <trkpt lat="41.67720833" lon="-4.75452833">
        <ele>775.0</ele>
        <time>2020-07-19T10:34:11.453Z</time>
      </trkpt>
      <trkpt lat="41.67718667" lon="-4.75449667">
        <ele>775.0</ele>
        <time>2020-07-19T10:34:12.453Z</time>
      </trkpt>
      <trkpt lat="41.67716833" lon="-4.75446667">
        <ele>775.0</ele>
        <time>2020-07-19T10:34:13.453Z</time>
      </trkpt>
      <trkpt lat="41.67715167" lon="-4.754435">
        <ele>775.0</ele>
        <time>2020-07-19T10:34:14.453Z</time>
      </trkpt>
      <trkpt lat="41.67714" lon="-4.754405">
        <ele>775.0</ele>
        <time>2020-07-19T10:34:15.453Z</time>
      </trkpt>
      <trkpt lat="41.67713167" lon="-4.75437167">
        <ele>775.0</ele>
        <time>2020-07-19T10:34:16.453Z</time>
      </trkpt>
      <trkpt lat="41.67712667" lon="-4.754335">
        <ele>775.0</ele>
        <time>2020-07-19T10:34:17.453Z</time>
      </trkpt>
      <trkpt lat="41.677125" lon="-4.754295">
        <ele>775.0</ele>
        <time>2020-07-19T10:34:18.453Z</time>
      </trkpt>
      <trkpt lat="41.677125" lon="-4.75425333">
        <ele>775.0</ele>
        <time>2020-07-19T10:34:19.453Z</time>
      </trkpt>
      <trkpt lat="41.67712333" lon="-4.75421167">
        <ele>775.0</ele>
        <time>2020-07-19T10:34:20.453Z</time>
      </trkpt>
      <trkpt lat="41.67712333" lon="-4.75416667">
        <ele>775.0</ele>
        <time>2020-07-19T10:34:21.453Z</time>
      </trkpt>
      <trkpt lat="41.67712333" lon="-4.75411833">
        <ele>775.0</ele>
        <time>2020-07-19T10:34:22.453Z</time>
      </trkpt>
      <trkpt lat="41.67712" lon="-4.75407333">
        <ele>775.0</ele>
        <time>2020-07-19T10:34:23.453Z</time>
      </trkpt>
      <trkpt lat="41.67712" lon="-4.75402667">
        <ele>775.0</ele>
        <time>2020-07-19T10:34:24.453Z</time>
      </trkpt>
      <trkpt lat="41.67711833" lon="-4.75397833">
        <ele>775.0</ele>
        <time>2020-07-19T10:34:25.453Z</time>
      </trkpt>
      <trkpt lat="41.67711833" lon="-4.75393">
        <ele>775.0</ele>
        <time>2020-07-19T10:34:26.453Z</time>
      </trkpt>
      <trkpt lat="41.67711667" lon="-4.75388">
        <ele>775.0</ele>
        <time>2020-07-19T10:34:27.453Z</time>
      </trkpt>
      <trkpt lat="41.677115" lon="-4.75382833">
        <ele>775.0</ele>
        <time>2020-07-19T10:34:28.453Z</time>
      </trkpt>
      <trkpt lat="41.67711333" lon="-4.75377333">
        <ele>775.0</ele>
        <time>2020-07-19T10:34:29.453Z</time>
      </trkpt>
      <trkpt lat="41.67711167" lon="-4.75371833">
        <ele>775.0</ele>
        <time>2020-07-19T10:34:30.453Z</time>
      </trkpt>
      <trkpt lat="41.67711167" lon="-4.75365833">
        <ele>774.0</ele>
        <time>2020-07-19T10:34:31.453Z</time>
      </trkpt>
      <trkpt lat="41.67710833" lon="-4.75359667">
        <ele>774.0</ele>
        <time>2020-07-19T10:34:32.453Z</time>
      </trkpt>
      <trkpt lat="41.677105" lon="-4.753535">
        <ele>774.0</ele>
        <time>2020-07-19T10:34:33.453Z</time>
      </trkpt>
      <trkpt lat="41.67710167" lon="-4.75347167">
        <ele>774.0</ele>
        <time>2020-07-19T10:34:34.453Z</time>
      </trkpt>
      <trkpt lat="41.67709667" lon="-4.75340833">
        <ele>774.0</ele>
        <time>2020-07-19T10:34:35.453Z</time>
      </trkpt>
      <trkpt lat="41.67709" lon="-4.75334333">
        <ele>774.0</ele>
        <time>2020-07-19T10:34:36.453Z</time>
      </trkpt>
      <trkpt lat="41.67708333" lon="-4.75328">
        <ele>774.0</ele>
        <time>2020-07-19T10:34:37.453Z</time>
      </trkpt>
      <trkpt lat="41.67707667" lon="-4.753215">
        <ele>774.0</ele>
        <time>2020-07-19T10:34:38.453Z</time>
      </trkpt>
      <trkpt lat="41.67707" lon="-4.75315">
        <ele>774.0</ele>
        <time>2020-07-19T10:34:39.453Z</time>
      </trkpt>
      <trkpt lat="41.67706333" lon="-4.753085">
        <ele>774.0</ele>
        <time>2020-07-19T10:34:40.453Z</time>
      </trkpt>
      <trkpt lat="41.677055" lon="-4.75302">
        <ele>773.0</ele>
        <time>2020-07-19T10:34:41.453Z</time>
      </trkpt>
      <trkpt lat="41.67704667" lon="-4.75295667">
        <ele>773.0</ele>
        <time>2020-07-19T10:34:42.453Z</time>
      </trkpt>
      <trkpt lat="41.67703833" lon="-4.75289167">
        <ele>773.0</ele>
        <time>2020-07-19T10:34:43.453Z</time>
      </trkpt>
      <trkpt lat="41.67703167" lon="-4.752825">
        <ele>773.0</ele>
        <time>2020-07-19T10:34:44.453Z</time>
      </trkpt>
      <trkpt lat="41.677025" lon="-4.75276">
        <ele>773.0</ele>
        <time>2020-07-19T10:34:45.453Z</time>
      </trkpt>
      <trkpt lat="41.67701667" lon="-4.75269333">
        <ele>773.0</ele>
        <time>2020-07-19T10:34:46.453Z</time>
      </trkpt>
      <trkpt lat="41.67701" lon="-4.75262833">
        <ele>773.0</ele>
        <time>2020-07-19T10:34:47.453Z</time>
      </trkpt>
      <trkpt lat="41.67700333" lon="-4.752565">
        <ele>772.0</ele>
        <time>2020-07-19T10:34:48.453Z</time>
      </trkpt>
      <trkpt lat="41.67699833" lon="-4.752505">
        <ele>772.0</ele>
        <time>2020-07-19T10:34:49.453Z</time>
      </trkpt>
      <trkpt lat="41.67699167" lon="-4.75245">
        <ele>772.0</ele>
        <time>2020-07-19T10:34:50.453Z</time>
      </trkpt>
      <trkpt lat="41.67698667" lon="-4.75239667">
        <ele>772.0</ele>
        <time>2020-07-19T10:34:51.453Z</time>
      </trkpt>
      <trkpt lat="41.67698167" lon="-4.752345">
        <ele>772.0</ele>
        <time>2020-07-19T10:34:52.453Z</time>
      </trkpt>
      <trkpt lat="41.67697333" lon="-4.75229333">
        <ele>772.0</ele>
        <time>2020-07-19T10:34:53.453Z</time>
      </trkpt>
      <trkpt lat="41.67696" lon="-4.75224667">
        <ele>772.0</ele>
        <time>2020-07-19T10:34:54.453Z</time>
      </trkpt>
      <trkpt lat="41.67693333" lon="-4.75221167">
        <ele>772.0</ele>
        <time>2020-07-19T10:34:55.453Z</time>
      </trkpt>
      <trkpt lat="41.67689833" lon="-4.75220167">
        <ele>771.0</ele>
        <time>2020-07-19T10:34:56.453Z</time>
      </trkpt>
      <trkpt lat="41.676865" lon="-4.752205">
        <ele>772.0</ele>
        <time>2020-07-19T10:34:57.453Z</time>
      </trkpt>
      <trkpt lat="41.67683667" lon="-4.75221167">
        <ele>772.0</ele>
        <time>2020-07-19T10:34:58.453Z</time>
      </trkpt>
      <trkpt lat="41.67681" lon="-4.75221667">
        <ele>772.0</ele>
        <time>2020-07-19T10:34:59.453Z</time>
      </trkpt>
      <trkpt lat="41.67678333" lon="-4.75222667">
        <ele>772.0</ele>
        <time>2020-07-19T10:35:00.453Z</time>
      </trkpt>
      <trkpt lat="41.67676167" lon="-4.752235">
        <ele>772.0</ele>
        <time>2020-07-19T10:35:01.453Z</time>
      </trkpt>
      <trkpt lat="41.67675" lon="-4.75223833">
        <ele>771.0</ele>
        <time>2020-07-19T10:35:02.453Z</time>
      </trkpt>
      <trkpt lat="41.67674667" lon="-4.752235">
        <ele>771.0</ele>
        <time>2020-07-19T10:35:03.453Z</time>
      </trkpt>
      <trkpt lat="41.67674667" lon="-4.75223333">
        <ele>771.0</ele>
        <time>2020-07-19T10:35:04.453Z</time>
      </trkpt>
      <trkpt lat="41.676745" lon="-4.75223667">
        <ele>771.0</ele>
        <time>2020-07-19T10:35:05.453Z</time>
      </trkpt>
      <trkpt lat="41.676745" lon="-4.75224333">
        <ele>771.0</ele>
        <time>2020-07-19T10:35:06.453Z</time>
      </trkpt>
      <trkpt lat="41.67674333" lon="-4.752245">
        <ele>771.0</ele>
        <time>2020-07-19T10:35:07.453Z</time>
      </trkpt>
      <trkpt lat="41.67674333" lon="-4.752245">
        <ele>771.0</ele>
        <time>2020-07-19T10:35:08.453Z</time>
      </trkpt>
      <trkpt lat="41.67674167" lon="-4.75225">
        <ele>771.0</ele>
        <time>2020-07-19T10:35:09.453Z</time>
      </trkpt>
      <trkpt lat="41.67674167" lon="-4.75225167">
        <ele>772.0</ele>
        <time>2020-07-19T10:35:10.453Z</time>
      </trkpt>
      <trkpt lat="41.67674333" lon="-4.75225">
        <ele>772.0</ele>
        <time>2020-07-19T10:35:11.453Z</time>
      </trkpt>
      <trkpt lat="41.67674333" lon="-4.752245">
        <ele>772.0</ele>
        <time>2020-07-19T10:35:12.453Z</time>
      </trkpt>
      <trkpt lat="41.676745" lon="-4.75223667">
        <ele>772.0</ele>
        <time>2020-07-19T10:35:13.453Z</time>
      </trkpt>
      <trkpt lat="41.67674333" lon="-4.75223167">
        <ele>772.0</ele>
        <time>2020-07-19T10:35:14.453Z</time>
      </trkpt>
      <trkpt lat="41.67673833" lon="-4.752225">
        <ele>772.0</ele>
        <time>2020-07-19T10:35:15.453Z</time>
      </trkpt>
      <trkpt lat="41.67673833" lon="-4.752215">
        <ele>772.0</ele>
        <time>2020-07-19T10:35:16.453Z</time>
      </trkpt>
      <trkpt lat="41.67673833" lon="-4.75221167">
        <ele>772.0</ele>
        <time>2020-07-19T10:35:17.453Z</time>
      </trkpt>
      <trkpt lat="41.67674167" lon="-4.75221167">
        <ele>772.0</ele>
        <time>2020-07-19T10:35:18.453Z</time>
      </trkpt>
      <trkpt lat="41.67674167" lon="-4.75221167">
        <ele>772.0</ele>
        <time>2020-07-19T10:35:19.453Z</time>
      </trkpt>
      <trkpt lat="41.67674167" lon="-4.75221167">
        <ele>772.0</ele>
        <time>2020-07-19T10:35:20.453Z</time>
      </trkpt>
      <trkpt lat="41.67674" lon="-4.75221167">
        <ele>772.0</ele>
        <time>2020-07-19T10:35:21.453Z</time>
      </trkpt>
      <trkpt lat="41.67674" lon="-4.75221167">
        <ele>772.0</ele>
        <time>2020-07-19T10:35:22.453Z</time>
      </trkpt>
      <trkpt lat="41.67674" lon="-4.75221167">
        <ele>772.0</ele>
        <time>2020-07-19T10:35:23.453Z</time>
      </trkpt>
      <trkpt lat="41.67674" lon="-4.75221167">
        <ele>772.0</ele>
        <time>2020-07-19T10:35:24.453Z</time>
      </trkpt>
      <trkpt lat="41.67674" lon="-4.75221167">
        <ele>772.0</ele>
        <time>2020-07-19T10:35:25.453Z</time>
      </trkpt>
      <trkpt lat="41.67674" lon="-4.75221167">
        <ele>772.0</ele>
        <time>2020-07-19T10:35:26.453Z</time>
      </trkpt>
      <trkpt lat="41.67674" lon="-4.75221167">
        <ele>772.0</ele>
        <time>2020-07-19T10:35:27.453Z</time>
      </trkpt>
      <trkpt lat="41.67674167" lon="-4.75221667">
        <ele>772.0</ele>
        <time>2020-07-19T10:35:28.453Z</time>
      </trkpt>
      <trkpt lat="41.676745" lon="-4.75222333">
        <ele>772.0</ele>
        <time>2020-07-19T10:35:29.453Z</time>
      </trkpt>
      <trkpt lat="41.676745" lon="-4.75222833">
        <ele>772.0</ele>
        <time>2020-07-19T10:35:30.453Z</time>
      </trkpt>
      <trkpt lat="41.676745" lon="-4.75223">
        <ele>772.0</ele>
        <time>2020-07-19T10:35:31.453Z</time>
      </trkpt>
      <trkpt lat="41.676745" lon="-4.75223">
        <ele>772.0</ele>
        <time>2020-07-19T10:35:32.453Z</time>
      </trkpt>
      <trkpt lat="41.676745" lon="-4.75223667">
        <ele>772.0</ele>
        <time>2020-07-19T10:35:33.453Z</time>
      </trkpt>
      <trkpt lat="41.676745" lon="-4.75224667">
        <ele>772.0</ele>
        <time>2020-07-19T10:35:34.453Z</time>
      </trkpt>
      <trkpt lat="41.67674167" lon="-4.75225333">
        <ele>772.0</ele>
        <time>2020-07-19T10:35:35.453Z</time>
      </trkpt>
      <trkpt lat="41.67674" lon="-4.75224833">
        <ele>772.0</ele>
        <time>2020-07-19T10:35:36.453Z</time>
      </trkpt>
      <trkpt lat="41.676735" lon="-4.752245">
        <ele>772.0</ele>
        <time>2020-07-19T10:35:37.453Z</time>
      </trkpt>
      <trkpt lat="41.67672833" lon="-4.75223833">
        <ele>772.0</ele>
        <time>2020-07-19T10:35:38.453Z</time>
      </trkpt>
      <trkpt lat="41.67672333" lon="-4.75222833">
        <ele>772.0</ele>
        <time>2020-07-19T10:35:39.453Z</time>
      </trkpt>
      <trkpt lat="41.67671833" lon="-4.75221833">
        <ele>772.0</ele>
        <time>2020-07-19T10:35:40.453Z</time>
      </trkpt>
      <trkpt lat="41.67671333" lon="-4.75220667">
        <ele>772.0</ele>
        <time>2020-07-19T10:35:41.453Z</time>
      </trkpt>
      <trkpt lat="41.676715" lon="-4.75219667">
        <ele>772.0</ele>
        <time>2020-07-19T10:35:42.453Z</time>
      </trkpt>
      <trkpt lat="41.67671333" lon="-4.75219333">
        <ele>772.0</ele>
        <time>2020-07-19T10:35:43.453Z</time>
      </trkpt>
      <trkpt lat="41.67671167" lon="-4.75219">
        <ele>772.0</ele>
        <time>2020-07-19T10:35:44.453Z</time>
      </trkpt>
      <trkpt lat="41.67671333" lon="-4.752185">
        <ele>772.0</ele>
        <time>2020-07-19T10:35:45.453Z</time>
      </trkpt>
      <trkpt lat="41.676715" lon="-4.75218167">
        <ele>773.0</ele>
        <time>2020-07-19T10:35:46.453Z</time>
      </trkpt>
      <trkpt lat="41.676715" lon="-4.75218167">
        <ele>773.0</ele>
        <time>2020-07-19T10:35:47.453Z</time>
      </trkpt>
      <trkpt lat="41.67671333" lon="-4.75219">
        <ele>773.0</ele>
        <time>2020-07-19T10:35:48.453Z</time>
      </trkpt>
      <trkpt lat="41.67671333" lon="-4.75219667">
        <ele>773.0</ele>
        <time>2020-07-19T10:35:49.453Z</time>
      </trkpt>
      <trkpt lat="41.676715" lon="-4.75220167">
        <ele>773.0</ele>
        <time>2020-07-19T10:35:50.453Z</time>
      </trkpt>
      <trkpt lat="41.67671333" lon="-4.752205">
        <ele>773.0</ele>
        <time>2020-07-19T10:35:51.453Z</time>
      </trkpt>
      <trkpt lat="41.67671333" lon="-4.752205">
        <ele>773.0</ele>
        <time>2020-07-19T10:35:52.453Z</time>
      </trkpt>
      <trkpt lat="41.67671333" lon="-4.752205">
        <ele>773.0</ele>
        <time>2020-07-19T10:35:53.453Z</time>
      </trkpt>
      <trkpt lat="41.67671333" lon="-4.752205">
        <ele>773.0</ele>
        <time>2020-07-19T10:35:54.453Z</time>
      </trkpt>
      <trkpt lat="41.67671333" lon="-4.75220667">
        <ele>773.0</ele>
        <time>2020-07-19T10:35:55.453Z</time>
      </trkpt>
      <trkpt lat="41.676715" lon="-4.75220167">
        <ele>773.0</ele>
        <time>2020-07-19T10:35:56.453Z</time>
      </trkpt>
      <trkpt lat="41.67671333" lon="-4.75219667">
        <ele>773.0</ele>
        <time>2020-07-19T10:35:57.453Z</time>
      </trkpt>
      <trkpt lat="41.67671" lon="-4.75219333">
        <ele>773.0</ele>
        <time>2020-07-19T10:35:58.453Z</time>
      </trkpt>
      <trkpt lat="41.67671" lon="-4.752195">
        <ele>773.0</ele>
        <time>2020-07-19T10:35:59.453Z</time>
      </trkpt>
      <trkpt lat="41.67671" lon="-4.75219333">
        <ele>773.0</ele>
        <time>2020-07-19T10:36:00.453Z</time>
      </trkpt>
      <trkpt lat="41.67671" lon="-4.752195">
        <ele>773.0</ele>
        <time>2020-07-19T10:36:01.453Z</time>
      </trkpt>
      <trkpt lat="41.67670667" lon="-4.75219833">
        <ele>773.0</ele>
        <time>2020-07-19T10:36:02.453Z</time>
      </trkpt>
      <trkpt lat="41.67670667" lon="-4.75219833">
        <ele>772.0</ele>
        <time>2020-07-19T10:36:03.453Z</time>
      </trkpt>
      <trkpt lat="41.67670667" lon="-4.75219833">
        <ele>772.0</ele>
        <time>2020-07-19T10:36:04.453Z</time>
      </trkpt>
      <trkpt lat="41.67670667" lon="-4.75219833">
        <ele>772.0</ele>
        <time>2020-07-19T10:36:05.453Z</time>
      </trkpt>
      <trkpt lat="41.67670667" lon="-4.75219833">
        <ele>772.0</ele>
        <time>2020-07-19T10:36:06.453Z</time>
      </trkpt>
      <trkpt lat="41.67670667" lon="-4.75219833">
        <ele>772.0</ele>
        <time>2020-07-19T10:36:07.453Z</time>
      </trkpt>
      <trkpt lat="41.67670833" lon="-4.7522">
        <ele>772.0</ele>
        <time>2020-07-19T10:36:08.453Z</time>
      </trkpt>
      <trkpt lat="41.67670833" lon="-4.7522">
        <ele>772.0</ele>
        <time>2020-07-19T10:36:09.453Z</time>
      </trkpt>
      <trkpt lat="41.67670833" lon="-4.7522">
        <ele>772.0</ele>
        <time>2020-07-19T10:36:10.453Z</time>
      </trkpt>
      <trkpt lat="41.67670833" lon="-4.7522">
        <ele>772.0</ele>
        <time>2020-07-19T10:36:11.453Z</time>
      </trkpt>
      <trkpt lat="41.67670833" lon="-4.7522">
        <ele>772.0</ele>
        <time>2020-07-19T10:36:12.453Z</time>
      </trkpt>
      <trkpt lat="41.67670833" lon="-4.7522">
        <ele>772.0</ele>
        <time>2020-07-19T10:36:13.453Z</time>
      </trkpt>
      <trkpt lat="41.67670833" lon="-4.7522">
        <ele>772.0</ele>
        <time>2020-07-19T10:36:14.453Z</time>
      </trkpt>
      <trkpt lat="41.67670833" lon="-4.7522">
        <ele>772.0</ele>
        <time>2020-07-19T10:36:15.453Z</time>
      </trkpt>
      <trkpt lat="41.67670833" lon="-4.7522">
        <ele>772.0</ele>
        <time>2020-07-19T10:36:16.453Z</time>
      </trkpt>
      <trkpt lat="41.67670833" lon="-4.7522">
        <ele>772.0</ele>
        <time>2020-07-19T10:36:17.453Z</time>
      </trkpt>
      <trkpt lat="41.67670833" lon="-4.75220167">
        <ele>772.0</ele>
        <time>2020-07-19T10:36:18.453Z</time>
      </trkpt>
      <trkpt lat="41.67670833" lon="-4.75220167">
        <ele>772.0</ele>
        <time>2020-07-19T10:36:19.453Z</time>
      </trkpt>
      <trkpt lat="41.67670833" lon="-4.75220167">
        <ele>772.0</ele>
        <time>2020-07-19T10:36:20.453Z</time>
      </trkpt>
      <trkpt lat="41.67670833" lon="-4.75220167">
        <ele>772.0</ele>
        <time>2020-07-19T10:36:21.453Z</time>
      </trkpt>
      <trkpt lat="41.67670833" lon="-4.75220167">
        <ele>772.0</ele>
        <time>2020-07-19T10:36:22.453Z</time>
      </trkpt>
      <trkpt lat="41.67670833" lon="-4.75220167">
        <ele>772.0</ele>
        <time>2020-07-19T10:36:23.453Z</time>
      </trkpt>
      <trkpt lat="41.67670833" lon="-4.75220167">
        <ele>772.0</ele>
        <time>2020-07-19T10:36:24.453Z</time>
      </trkpt>
      <trkpt lat="41.67670833" lon="-4.75220167">
        <ele>772.0</ele>
        <time>2020-07-19T10:36:25.453Z</time>
      </trkpt>
      <trkpt lat="41.67670833" lon="-4.75220167">
        <ele>772.0</ele>
        <time>2020-07-19T10:36:26.453Z</time>
      </trkpt>
      <trkpt lat="41.67670833" lon="-4.75220167">
        <ele>772.0</ele>
        <time>2020-07-19T10:36:27.453Z</time>
      </trkpt>
      <trkpt lat="41.67670833" lon="-4.75220167">
        <ele>772.0</ele>
        <time>2020-07-19T10:36:28.453Z</time>
      </trkpt>
      <trkpt lat="41.67670833" lon="-4.75220167">
        <ele>772.0</ele>
        <time>2020-07-19T10:36:29.453Z</time>
      </trkpt>
      <trkpt lat="41.67670833" lon="-4.75220167">
        <ele>772.0</ele>
        <time>2020-07-19T10:36:30.453Z</time>
      </trkpt>
      <trkpt lat="41.67670833" lon="-4.75220167">
        <ele>772.0</ele>
        <time>2020-07-19T10:36:31.453Z</time>
      </trkpt>
      <trkpt lat="41.67670833" lon="-4.75220167">
        <ele>772.0</ele>
        <time>2020-07-19T10:36:32.453Z</time>
      </trkpt>
      <trkpt lat="41.67670833" lon="-4.75220167">
        <ele>772.0</ele>
        <time>2020-07-19T10:36:33.453Z</time>
      </trkpt>
      <trkpt lat="41.67670833" lon="-4.75220167">
        <ele>772.0</ele>
        <time>2020-07-19T10:36:34.453Z</time>
      </trkpt>
      <trkpt lat="41.67670833" lon="-4.752205">
        <ele>772.0</ele>
        <time>2020-07-19T10:36:35.453Z</time>
      </trkpt>
      <trkpt lat="41.67671" lon="-4.75220667">
        <ele>772.0</ele>
        <time>2020-07-19T10:36:36.453Z</time>
      </trkpt>
      <trkpt lat="41.67671" lon="-4.75220667">
        <ele>772.0</ele>
        <time>2020-07-19T10:36:37.453Z</time>
      </trkpt>
      <trkpt lat="41.67671" lon="-4.75220667">
        <ele>772.0</ele>
        <time>2020-07-19T10:36:38.453Z</time>
      </trkpt>
      <trkpt lat="41.67671" lon="-4.75220667">
        <ele>772.0</ele>
        <time>2020-07-19T10:36:39.453Z</time>
      </trkpt>
      <trkpt lat="41.67671333" lon="-4.7522">
        <ele>772.0</ele>
        <time>2020-07-19T10:36:40.453Z</time>
      </trkpt>
      <trkpt lat="41.67671667" lon="-4.75219833">
        <ele>772.0</ele>
        <time>2020-07-19T10:36:41.453Z</time>
      </trkpt>
      <trkpt lat="41.67672" lon="-4.7522">
        <ele>772.0</ele>
        <time>2020-07-19T10:36:42.453Z</time>
      </trkpt>
      <trkpt lat="41.67671833" lon="-4.752205">
        <ele>772.0</ele>
        <time>2020-07-19T10:36:43.453Z</time>
      </trkpt>
      <trkpt lat="41.67671833" lon="-4.752205">
        <ele>772.0</ele>
        <time>2020-07-19T10:36:44.453Z</time>
      </trkpt>
      <trkpt lat="41.67672" lon="-4.75220833">
        <ele>772.0</ele>
        <time>2020-07-19T10:36:45.453Z</time>
      </trkpt>
      <trkpt lat="41.67672167" lon="-4.75221667">
        <ele>772.0</ele>
        <time>2020-07-19T10:36:46.453Z</time>
      </trkpt>
      <trkpt lat="41.67672" lon="-4.75222833">
        <ele>772.0</ele>
        <time>2020-07-19T10:36:47.453Z</time>
      </trkpt>
      <trkpt lat="41.67671333" lon="-4.75224">
        <ele>772.0</ele>
        <time>2020-07-19T10:36:48.453Z</time>
      </trkpt>
      <trkpt lat="41.6767" lon="-4.75224833">
        <ele>772.0</ele>
        <time>2020-07-19T10:36:49.453Z</time>
      </trkpt>
      <trkpt lat="41.676685" lon="-4.75225333">
        <ele>772.0</ele>
        <time>2020-07-19T10:36:50.453Z</time>
      </trkpt>
      <trkpt lat="41.676665" lon="-4.75225667">
        <ele>772.0</ele>
        <time>2020-07-19T10:36:51.453Z</time>
      </trkpt>
      <trkpt lat="41.67664333" lon="-4.75226">
        <ele>772.0</ele>
        <time>2020-07-19T10:36:52.453Z</time>
      </trkpt>
      <trkpt lat="41.67662" lon="-4.752265">
        <ele>772.0</ele>
        <time>2020-07-19T10:36:53.453Z</time>
      </trkpt>
      <trkpt lat="41.67659167" lon="-4.75227167">
        <ele>772.0</ele>
        <time>2020-07-19T10:36:54.453Z</time>
      </trkpt>
      <trkpt lat="41.67656167" lon="-4.752275">
        <ele>772.0</ele>
        <time>2020-07-19T10:36:55.453Z</time>
      </trkpt>
      <trkpt lat="41.67653333" lon="-4.75228333">
        <ele>772.0</ele>
        <time>2020-07-19T10:36:56.453Z</time>
      </trkpt>
      <trkpt lat="41.676505" lon="-4.752295">
        <ele>772.0</ele>
        <time>2020-07-19T10:36:57.453Z</time>
      </trkpt>
      <trkpt lat="41.67647667" lon="-4.75230167">
        <ele>772.0</ele>
        <time>2020-07-19T10:36:58.453Z</time>
      </trkpt>
      <trkpt lat="41.67644667" lon="-4.752305">
        <ele>772.0</ele>
        <time>2020-07-19T10:36:59.453Z</time>
      </trkpt>
      <trkpt lat="41.67641333" lon="-4.75231">
        <ele>772.0</ele>
        <time>2020-07-19T10:37:00.453Z</time>
      </trkpt>
      <trkpt lat="41.67638167" lon="-4.75231333">
        <ele>772.0</ele>
        <time>2020-07-19T10:37:01.453Z</time>
      </trkpt>
      <trkpt lat="41.67634667" lon="-4.75231833">
        <ele>772.0</ele>
        <time>2020-07-19T10:37:02.453Z</time>
      </trkpt>
      <trkpt lat="41.67631" lon="-4.752325">
        <ele>772.0</ele>
        <time>2020-07-19T10:37:03.453Z</time>
      </trkpt>
      <trkpt lat="41.676275" lon="-4.75233833">
        <ele>772.0</ele>
        <time>2020-07-19T10:37:04.453Z</time>
      </trkpt>
      <trkpt lat="41.67624167" lon="-4.75235167">
        <ele>772.0</ele>
        <time>2020-07-19T10:37:05.453Z</time>
      </trkpt>
      <trkpt lat="41.67620667" lon="-4.75236667">
        <ele>772.0</ele>
        <time>2020-07-19T10:37:06.453Z</time>
      </trkpt>
      <trkpt lat="41.67617167" lon="-4.75239">
        <ele>772.0</ele>
        <time>2020-07-19T10:37:07.453Z</time>
      </trkpt>
      <trkpt lat="41.67613833" lon="-4.75241833">
        <ele>772.0</ele>
        <time>2020-07-19T10:37:08.453Z</time>
      </trkpt>
      <trkpt lat="41.676105" lon="-4.75244833">
        <ele>772.0</ele>
        <time>2020-07-19T10:37:09.453Z</time>
      </trkpt>
      <trkpt lat="41.67607167" lon="-4.75248167">
        <ele>772.0</ele>
        <time>2020-07-19T10:37:10.453Z</time>
      </trkpt>
      <trkpt lat="41.67604" lon="-4.75251667">
        <ele>772.0</ele>
        <time>2020-07-19T10:37:11.453Z</time>
      </trkpt>
      <trkpt lat="41.67600667" lon="-4.75255167">
        <ele>772.0</ele>
        <time>2020-07-19T10:37:12.453Z</time>
      </trkpt>
      <trkpt lat="41.67597667" lon="-4.75259">
        <ele>772.0</ele>
        <time>2020-07-19T10:37:13.453Z</time>
      </trkpt>
      <trkpt lat="41.67594667" lon="-4.75263">
        <ele>772.0</ele>
        <time>2020-07-19T10:37:14.453Z</time>
      </trkpt>
      <trkpt lat="41.67592" lon="-4.75267167">
        <ele>772.0</ele>
        <time>2020-07-19T10:37:15.453Z</time>
      </trkpt>
      <trkpt lat="41.675895" lon="-4.75271667">
        <ele>772.0</ele>
        <time>2020-07-19T10:37:16.453Z</time>
      </trkpt>
      <trkpt lat="41.67587" lon="-4.75276">
        <ele>772.0</ele>
        <time>2020-07-19T10:37:17.453Z</time>
      </trkpt>
      <trkpt lat="41.67584333" lon="-4.7528">
        <ele>772.0</ele>
        <time>2020-07-19T10:37:18.453Z</time>
      </trkpt>
      <trkpt lat="41.67581333" lon="-4.75283333">
        <ele>772.0</ele>
        <time>2020-07-19T10:37:19.453Z</time>
      </trkpt>
      <trkpt lat="41.67577833" lon="-4.75286">
        <ele>772.0</ele>
        <time>2020-07-19T10:37:20.453Z</time>
      </trkpt>
      <trkpt lat="41.67574" lon="-4.75286833">
        <ele>772.0</ele>
        <time>2020-07-19T10:37:21.453Z</time>
      </trkpt>
      <trkpt lat="41.675705" lon="-4.75286167">
        <ele>772.0</ele>
        <time>2020-07-19T10:37:22.453Z</time>
      </trkpt>
      <trkpt lat="41.67567" lon="-4.752845">
        <ele>772.0</ele>
        <time>2020-07-19T10:37:23.453Z</time>
      </trkpt>
      <trkpt lat="41.67563833" lon="-4.75282">
        <ele>772.0</ele>
        <time>2020-07-19T10:37:24.453Z</time>
      </trkpt>
      <trkpt lat="41.67560667" lon="-4.75279">
        <ele>772.0</ele>
        <time>2020-07-19T10:37:25.453Z</time>
      </trkpt>
      <trkpt lat="41.67557167" lon="-4.75276167">
        <ele>772.0</ele>
        <time>2020-07-19T10:37:26.453Z</time>
      </trkpt>
      <trkpt lat="41.67553833" lon="-4.752735">
        <ele>772.0</ele>
        <time>2020-07-19T10:37:27.453Z</time>
      </trkpt>
      <trkpt lat="41.675505" lon="-4.75270833">
        <ele>772.0</ele>
        <time>2020-07-19T10:37:28.453Z</time>
      </trkpt>
      <trkpt lat="41.67547167" lon="-4.75268167">
        <ele>772.0</ele>
        <time>2020-07-19T10:37:29.453Z</time>
      </trkpt>
      <trkpt lat="41.67543833" lon="-4.75265667">
        <ele>772.0</ele>
        <time>2020-07-19T10:37:30.453Z</time>
      </trkpt>
      <trkpt lat="41.675405" lon="-4.75263">
        <ele>772.0</ele>
        <time>2020-07-19T10:37:31.453Z</time>
      </trkpt>
      <trkpt lat="41.67537167" lon="-4.752605">
        <ele>772.0</ele>
        <time>2020-07-19T10:37:32.453Z</time>
      </trkpt>
      <trkpt lat="41.67533833" lon="-4.75258">
        <ele>772.0</ele>
        <time>2020-07-19T10:37:33.453Z</time>
      </trkpt>
      <trkpt lat="41.675305" lon="-4.752555">
        <ele>772.0</ele>
        <time>2020-07-19T10:37:34.453Z</time>
      </trkpt>
      <trkpt lat="41.67527167" lon="-4.75252833">
        <ele>772.0</ele>
        <time>2020-07-19T10:37:35.453Z</time>
      </trkpt>
      <trkpt lat="41.67523833" lon="-4.75250167">
        <ele>772.0</ele>
        <time>2020-07-19T10:37:36.453Z</time>
      </trkpt>
      <trkpt lat="41.675205" lon="-4.75247667">
        <ele>772.0</ele>
        <time>2020-07-19T10:37:37.453Z</time>
      </trkpt>
      <trkpt lat="41.67517" lon="-4.75245167">
        <ele>772.0</ele>
        <time>2020-07-19T10:37:38.453Z</time>
      </trkpt>
      <trkpt lat="41.67513667" lon="-4.75242667">
        <ele>772.0</ele>
        <time>2020-07-19T10:37:39.453Z</time>
      </trkpt>
      <trkpt lat="41.67510167" lon="-4.7524">
        <ele>772.0</ele>
        <time>2020-07-19T10:37:40.453Z</time>
      </trkpt>
      <trkpt lat="41.67506667" lon="-4.75237333">
        <ele>772.0</ele>
        <time>2020-07-19T10:37:41.453Z</time>
      </trkpt>
      <trkpt lat="41.67503333" lon="-4.75234167">
        <ele>772.0</ele>
        <time>2020-07-19T10:37:42.453Z</time>
      </trkpt>
      <trkpt lat="41.67499667" lon="-4.75231333">
        <ele>772.0</ele>
        <time>2020-07-19T10:37:43.453Z</time>
      </trkpt>
      <trkpt lat="41.67496" lon="-4.75229">
        <ele>772.0</ele>
        <time>2020-07-19T10:37:44.453Z</time>
      </trkpt>
      <trkpt lat="41.67492333" lon="-4.75226667">
        <ele>772.0</ele>
        <time>2020-07-19T10:37:45.453Z</time>
      </trkpt>
      <trkpt lat="41.674885" lon="-4.75224167">
        <ele>772.0</ele>
        <time>2020-07-19T10:37:46.453Z</time>
      </trkpt>
      <trkpt lat="41.67484667" lon="-4.752215">
        <ele>772.0</ele>
        <time>2020-07-19T10:37:47.453Z</time>
      </trkpt>
      <trkpt lat="41.67480833" lon="-4.75219">
        <ele>772.0</ele>
        <time>2020-07-19T10:37:48.453Z</time>
      </trkpt>
      <trkpt lat="41.67477" lon="-4.752165">
        <ele>772.0</ele>
        <time>2020-07-19T10:37:49.453Z</time>
      </trkpt>
      <trkpt lat="41.67473333" lon="-4.75213833">
        <ele>772.0</ele>
        <time>2020-07-19T10:37:50.453Z</time>
      </trkpt>
      <trkpt lat="41.67469667" lon="-4.75211167">
        <ele>772.0</ele>
        <time>2020-07-19T10:37:51.453Z</time>
      </trkpt>
      <trkpt lat="41.67465833" lon="-4.752085">
        <ele>772.0</ele>
        <time>2020-07-19T10:37:52.453Z</time>
      </trkpt>
      <trkpt lat="41.67462" lon="-4.75206167">
        <ele>772.0</ele>
        <time>2020-07-19T10:37:53.453Z</time>
      </trkpt>
      <trkpt lat="41.67458" lon="-4.75204333">
        <ele>772.0</ele>
        <time>2020-07-19T10:37:54.453Z</time>
      </trkpt>
      <trkpt lat="41.67454" lon="-4.75202667">
        <ele>772.0</ele>
        <time>2020-07-19T10:37:55.453Z</time>
      </trkpt>
      <trkpt lat="41.67449833" lon="-4.75201167">
        <ele>772.0</ele>
        <time>2020-07-19T10:37:56.453Z</time>
      </trkpt>
      <trkpt lat="41.67445667" lon="-4.751995">
        <ele>772.0</ele>
        <time>2020-07-19T10:37:57.453Z</time>
      </trkpt>
      <trkpt lat="41.67441333" lon="-4.75198167">
        <ele>772.0</ele>
        <time>2020-07-19T10:37:58.453Z</time>
      </trkpt>
      <trkpt lat="41.67437" lon="-4.75196667">
        <ele>772.0</ele>
        <time>2020-07-19T10:37:59.453Z</time>
      </trkpt>
      <trkpt lat="41.67432833" lon="-4.75195333">
        <ele>772.0</ele>
        <time>2020-07-19T10:38:00.453Z</time>
      </trkpt>
      <trkpt lat="41.674285" lon="-4.75194167">
        <ele>772.0</ele>
        <time>2020-07-19T10:38:01.453Z</time>
      </trkpt>
      <trkpt lat="41.67424167" lon="-4.75193">
        <ele>772.0</ele>
        <time>2020-07-19T10:38:02.453Z</time>
      </trkpt>
      <trkpt lat="41.67419833" lon="-4.75192">
        <ele>772.0</ele>
        <time>2020-07-19T10:38:03.453Z</time>
      </trkpt>
      <trkpt lat="41.67415667" lon="-4.75191">
        <ele>772.0</ele>
        <time>2020-07-19T10:38:04.453Z</time>
      </trkpt>
      <trkpt lat="41.674115" lon="-4.751895">
        <ele>772.0</ele>
        <time>2020-07-19T10:38:05.453Z</time>
      </trkpt>
      <trkpt lat="41.67407333" lon="-4.75188">
        <ele>772.0</ele>
        <time>2020-07-19T10:38:06.453Z</time>
      </trkpt>
      <trkpt lat="41.67403167" lon="-4.75186333">
        <ele>772.0</ele>
        <time>2020-07-19T10:38:07.453Z</time>
      </trkpt>
      <trkpt lat="41.67399333" lon="-4.75184">
        <ele>772.0</ele>
        <time>2020-07-19T10:38:08.453Z</time>
      </trkpt>
      <trkpt lat="41.67395667" lon="-4.75181333">
        <ele>772.0</ele>
        <time>2020-07-19T10:38:09.453Z</time>
      </trkpt>
      <trkpt lat="41.67391833" lon="-4.751785">
        <ele>772.0</ele>
        <time>2020-07-19T10:38:10.453Z</time>
      </trkpt>
      <trkpt lat="41.673885" lon="-4.75175167">
        <ele>772.0</ele>
        <time>2020-07-19T10:38:11.453Z</time>
      </trkpt>
      <trkpt lat="41.67385167" lon="-4.751715">
        <ele>772.0</ele>
        <time>2020-07-19T10:38:12.453Z</time>
      </trkpt>
      <trkpt lat="41.67381833" lon="-4.75167833">
        <ele>772.0</ele>
        <time>2020-07-19T10:38:13.453Z</time>
      </trkpt>
      <trkpt lat="41.673785" lon="-4.75163833">
        <ele>772.0</ele>
        <time>2020-07-19T10:38:14.453Z</time>
      </trkpt>
      <trkpt lat="41.673755" lon="-4.75159833">
        <ele>772.0</ele>
        <time>2020-07-19T10:38:15.453Z</time>
      </trkpt>
      <trkpt lat="41.673725" lon="-4.75155667">
        <ele>772.0</ele>
        <time>2020-07-19T10:38:16.453Z</time>
      </trkpt>
      <trkpt lat="41.67369833" lon="-4.751515">
        <ele>772.0</ele>
        <time>2020-07-19T10:38:17.453Z</time>
      </trkpt>
      <trkpt lat="41.67366833" lon="-4.75147167">
        <ele>772.0</ele>
        <time>2020-07-19T10:38:18.453Z</time>
      </trkpt>
      <trkpt lat="41.67364333" lon="-4.75143">
        <ele>772.0</ele>
        <time>2020-07-19T10:38:19.453Z</time>
      </trkpt>
      <trkpt lat="41.67362" lon="-4.75138667">
        <ele>772.0</ele>
        <time>2020-07-19T10:38:20.453Z</time>
      </trkpt>
      <trkpt lat="41.67359833" lon="-4.751345">
        <ele>772.0</ele>
        <time>2020-07-19T10:38:21.453Z</time>
      </trkpt>
      <trkpt lat="41.67357667" lon="-4.75130167">
        <ele>772.0</ele>
        <time>2020-07-19T10:38:22.453Z</time>
      </trkpt>
      <trkpt lat="41.67355333" lon="-4.75125833">
        <ele>772.0</ele>
        <time>2020-07-19T10:38:23.453Z</time>
      </trkpt>
      <trkpt lat="41.67353" lon="-4.751215">
        <ele>772.0</ele>
        <time>2020-07-19T10:38:24.453Z</time>
      </trkpt>
      <trkpt lat="41.67350833" lon="-4.75117167">
        <ele>772.0</ele>
        <time>2020-07-19T10:38:25.453Z</time>
      </trkpt>
      <trkpt lat="41.67348667" lon="-4.75112833">
        <ele>772.0</ele>
        <time>2020-07-19T10:38:26.453Z</time>
      </trkpt>
      <trkpt lat="41.673465" lon="-4.75108667">
        <ele>773.0</ele>
        <time>2020-07-19T10:38:27.453Z</time>
      </trkpt>
      <trkpt lat="41.67344" lon="-4.751045">
        <ele>773.0</ele>
        <time>2020-07-19T10:38:28.453Z</time>
      </trkpt>
      <trkpt lat="41.67341833" lon="-4.75100333">
        <ele>773.0</ele>
        <time>2020-07-19T10:38:29.453Z</time>
      </trkpt>
      <trkpt lat="41.673395" lon="-4.75096">
        <ele>773.0</ele>
        <time>2020-07-19T10:38:30.453Z</time>
      </trkpt>
      <trkpt lat="41.67337167" lon="-4.75091833">
        <ele>773.0</ele>
        <time>2020-07-19T10:38:31.453Z</time>
      </trkpt>
      <trkpt lat="41.67334833" lon="-4.750875">
        <ele>773.0</ele>
        <time>2020-07-19T10:38:32.453Z</time>
      </trkpt>
      <trkpt lat="41.673325" lon="-4.750835">
        <ele>773.0</ele>
        <time>2020-07-19T10:38:33.453Z</time>
      </trkpt>
      <trkpt lat="41.673305" lon="-4.75079167">
        <ele>773.0</ele>
        <time>2020-07-19T10:38:34.453Z</time>
      </trkpt>
      <trkpt lat="41.67328333" lon="-4.75074667">
        <ele>773.0</ele>
        <time>2020-07-19T10:38:35.453Z</time>
      </trkpt>
      <trkpt lat="41.67326167" lon="-4.750705">
        <ele>773.0</ele>
        <time>2020-07-19T10:38:36.453Z</time>
      </trkpt>
      <trkpt lat="41.67324167" lon="-4.75066167">
        <ele>773.0</ele>
        <time>2020-07-19T10:38:37.453Z</time>
      </trkpt>
      <trkpt lat="41.67322" lon="-4.75061667">
        <ele>773.0</ele>
        <time>2020-07-19T10:38:38.453Z</time>
      </trkpt>
      <trkpt lat="41.6732" lon="-4.75057167">
        <ele>773.0</ele>
        <time>2020-07-19T10:38:39.453Z</time>
      </trkpt>
      <trkpt lat="41.67318167" lon="-4.75052667">
        <ele>773.0</ele>
        <time>2020-07-19T10:38:40.453Z</time>
      </trkpt>
      <trkpt lat="41.67316333" lon="-4.75048167">
        <ele>773.0</ele>
        <time>2020-07-19T10:38:41.453Z</time>
      </trkpt>
      <trkpt lat="41.67314333" lon="-4.75043833">
        <ele>773.0</ele>
        <time>2020-07-19T10:38:42.453Z</time>
      </trkpt>
      <trkpt lat="41.673125" lon="-4.750395">
        <ele>773.0</ele>
        <time>2020-07-19T10:38:43.453Z</time>
      </trkpt>
      <trkpt lat="41.67310833" lon="-4.75035">
        <ele>773.0</ele>
        <time>2020-07-19T10:38:44.453Z</time>
      </trkpt>
      <trkpt lat="41.67309" lon="-4.75030667">
        <ele>773.0</ele>
        <time>2020-07-19T10:38:45.453Z</time>
      </trkpt>
      <trkpt lat="41.67307167" lon="-4.75026167">
        <ele>773.0</ele>
        <time>2020-07-19T10:38:46.453Z</time>
      </trkpt>
      <trkpt lat="41.67305667" lon="-4.75021833">
        <ele>773.0</ele>
        <time>2020-07-19T10:38:47.453Z</time>
      </trkpt>
      <trkpt lat="41.67303833" lon="-4.75017333">
        <ele>773.0</ele>
        <time>2020-07-19T10:38:48.453Z</time>
      </trkpt>
      <trkpt lat="41.67302167" lon="-4.75012667">
        <ele>773.0</ele>
        <time>2020-07-19T10:38:49.453Z</time>
      </trkpt>
      <trkpt lat="41.67300333" lon="-4.75008167">
        <ele>773.0</ele>
        <time>2020-07-19T10:38:50.453Z</time>
      </trkpt>
      <trkpt lat="41.67298" lon="-4.75004">
        <ele>773.0</ele>
        <time>2020-07-19T10:38:51.453Z</time>
      </trkpt>
      <trkpt lat="41.67295833" lon="-4.74999667">
        <ele>773.0</ele>
        <time>2020-07-19T10:38:52.453Z</time>
      </trkpt>
      <trkpt lat="41.67293833" lon="-4.74995333">
        <ele>773.0</ele>
        <time>2020-07-19T10:38:53.453Z</time>
      </trkpt>
      <trkpt lat="41.67292" lon="-4.74991">
        <ele>774.0</ele>
        <time>2020-07-19T10:38:54.453Z</time>
      </trkpt>
      <trkpt lat="41.6729" lon="-4.749875">
        <ele>774.0</ele>
        <time>2020-07-19T10:38:55.453Z</time>
      </trkpt>
      <trkpt lat="41.67288333" lon="-4.74983667">
        <ele>774.0</ele>
        <time>2020-07-19T10:38:56.453Z</time>
      </trkpt>
      <trkpt lat="41.672865" lon="-4.749795">
        <ele>774.0</ele>
        <time>2020-07-19T10:38:57.453Z</time>
      </trkpt>
      <trkpt lat="41.67284333" lon="-4.74974833">
        <ele>774.0</ele>
        <time>2020-07-19T10:38:58.453Z</time>
      </trkpt>
      <trkpt lat="41.67282333" lon="-4.7497">
        <ele>774.0</ele>
        <time>2020-07-19T10:38:59.453Z</time>
      </trkpt>
      <trkpt lat="41.67280333" lon="-4.74965333">
        <ele>774.0</ele>
        <time>2020-07-19T10:39:00.453Z</time>
      </trkpt>
      <trkpt lat="41.67278" lon="-4.74960667">
        <ele>774.0</ele>
        <time>2020-07-19T10:39:01.453Z</time>
      </trkpt>
      <trkpt lat="41.67275833" lon="-4.74956">
        <ele>774.0</ele>
        <time>2020-07-19T10:39:02.453Z</time>
      </trkpt>
      <trkpt lat="41.67273667" lon="-4.749515">
        <ele>774.0</ele>
        <time>2020-07-19T10:39:03.453Z</time>
      </trkpt>
      <trkpt lat="41.67271333" lon="-4.74947167">
        <ele>775.0</ele>
        <time>2020-07-19T10:39:04.453Z</time>
      </trkpt>
      <trkpt lat="41.67268833" lon="-4.74943">
        <ele>775.0</ele>
        <time>2020-07-19T10:39:05.453Z</time>
      </trkpt>
      <trkpt lat="41.67266667" lon="-4.74938667">
        <ele>775.0</ele>
        <time>2020-07-19T10:39:06.453Z</time>
      </trkpt>
      <trkpt lat="41.67264667" lon="-4.749345">
        <ele>775.0</ele>
        <time>2020-07-19T10:39:07.453Z</time>
      </trkpt>
      <trkpt lat="41.672625" lon="-4.74930333">
        <ele>775.0</ele>
        <time>2020-07-19T10:39:08.453Z</time>
      </trkpt>
      <trkpt lat="41.67260333" lon="-4.74926167">
        <ele>775.0</ele>
        <time>2020-07-19T10:39:09.453Z</time>
      </trkpt>
      <trkpt lat="41.67258167" lon="-4.74921833">
        <ele>775.0</ele>
        <time>2020-07-19T10:39:10.453Z</time>
      </trkpt>
      <trkpt lat="41.67256333" lon="-4.74917333">
        <ele>775.0</ele>
        <time>2020-07-19T10:39:11.453Z</time>
      </trkpt>
      <trkpt lat="41.672545" lon="-4.74912833">
        <ele>775.0</ele>
        <time>2020-07-19T10:39:12.453Z</time>
      </trkpt>
      <trkpt lat="41.67252333" lon="-4.74908167">
        <ele>775.0</ele>
        <time>2020-07-19T10:39:13.453Z</time>
      </trkpt>
      <trkpt lat="41.6725" lon="-4.74904167">
        <ele>775.0</ele>
        <time>2020-07-19T10:39:14.453Z</time>
      </trkpt>
      <trkpt lat="41.67247667" lon="-4.749">
        <ele>775.0</ele>
        <time>2020-07-19T10:39:15.453Z</time>
      </trkpt>
      <trkpt lat="41.67245833" lon="-4.74895333">
        <ele>775.0</ele>
        <time>2020-07-19T10:39:16.453Z</time>
      </trkpt>
      <trkpt lat="41.67243833" lon="-4.74890833">
        <ele>775.0</ele>
        <time>2020-07-19T10:39:17.453Z</time>
      </trkpt>
      <trkpt lat="41.67241833" lon="-4.748865">
        <ele>775.0</ele>
        <time>2020-07-19T10:39:18.453Z</time>
      </trkpt>
      <trkpt lat="41.67239833" lon="-4.74882">
        <ele>775.0</ele>
        <time>2020-07-19T10:39:19.453Z</time>
      </trkpt>
      <trkpt lat="41.67238" lon="-4.74877333">
        <ele>775.0</ele>
        <time>2020-07-19T10:39:20.453Z</time>
      </trkpt>
      <trkpt lat="41.67236333" lon="-4.74873">
        <ele>775.0</ele>
        <time>2020-07-19T10:39:21.453Z</time>
      </trkpt>
      <trkpt lat="41.672345" lon="-4.74868333">
        <ele>775.0</ele>
        <time>2020-07-19T10:39:22.453Z</time>
      </trkpt>
      <trkpt lat="41.672325" lon="-4.74863833">
        <ele>775.0</ele>
        <time>2020-07-19T10:39:23.453Z</time>
      </trkpt>
      <trkpt lat="41.672305" lon="-4.74859333">
        <ele>775.0</ele>
        <time>2020-07-19T10:39:24.453Z</time>
      </trkpt>
      <trkpt lat="41.672285" lon="-4.74855">
        <ele>775.0</ele>
        <time>2020-07-19T10:39:25.453Z</time>
      </trkpt>
      <trkpt lat="41.67226833" lon="-4.748505">
        <ele>775.0</ele>
        <time>2020-07-19T10:39:26.453Z</time>
      </trkpt>
      <trkpt lat="41.67224833" lon="-4.74845833">
        <ele>775.0</ele>
        <time>2020-07-19T10:39:27.453Z</time>
      </trkpt>
      <trkpt lat="41.67222833" lon="-4.74841333">
        <ele>775.0</ele>
        <time>2020-07-19T10:39:28.453Z</time>
      </trkpt>
      <trkpt lat="41.67221167" lon="-4.74837">
        <ele>775.0</ele>
        <time>2020-07-19T10:39:29.453Z</time>
      </trkpt>
      <trkpt lat="41.67219" lon="-4.74832333">
        <ele>775.0</ele>
        <time>2020-07-19T10:39:30.453Z</time>
      </trkpt>
      <trkpt lat="41.67216833" lon="-4.74827333">
        <ele>775.0</ele>
        <time>2020-07-19T10:39:31.453Z</time>
      </trkpt>
      <trkpt lat="41.67214667" lon="-4.74822333">
        <ele>775.0</ele>
        <time>2020-07-19T10:39:32.453Z</time>
      </trkpt>
      <trkpt lat="41.67212667" lon="-4.748175">
        <ele>775.0</ele>
        <time>2020-07-19T10:39:33.453Z</time>
      </trkpt>
      <trkpt lat="41.67210167" lon="-4.748125">
        <ele>775.0</ele>
        <time>2020-07-19T10:39:34.453Z</time>
      </trkpt>
      <trkpt lat="41.67207167" lon="-4.748075">
        <ele>775.0</ele>
        <time>2020-07-19T10:39:35.453Z</time>
      </trkpt>
      <trkpt lat="41.67204333" lon="-4.74802333">
        <ele>775.0</ele>
        <time>2020-07-19T10:39:36.453Z</time>
      </trkpt>
      <trkpt lat="41.672015" lon="-4.74797167">
        <ele>775.0</ele>
        <time>2020-07-19T10:39:37.453Z</time>
      </trkpt>
      <trkpt lat="41.67198667" lon="-4.74791833">
        <ele>775.0</ele>
        <time>2020-07-19T10:39:38.453Z</time>
      </trkpt>
      <trkpt lat="41.67195667" lon="-4.74786667">
        <ele>775.0</ele>
        <time>2020-07-19T10:39:39.453Z</time>
      </trkpt>
      <trkpt lat="41.67192833" lon="-4.747815">
        <ele>775.0</ele>
        <time>2020-07-19T10:39:40.453Z</time>
      </trkpt>
      <trkpt lat="41.67189667" lon="-4.74776667">
        <ele>775.0</ele>
        <time>2020-07-19T10:39:41.453Z</time>
      </trkpt>
      <trkpt lat="41.67186333" lon="-4.74771333">
        <ele>775.0</ele>
        <time>2020-07-19T10:39:42.453Z</time>
      </trkpt>
      <trkpt lat="41.67183333" lon="-4.74766167">
        <ele>775.0</ele>
        <time>2020-07-19T10:39:43.453Z</time>
      </trkpt>
      <trkpt lat="41.67180333" lon="-4.74761">
        <ele>775.0</ele>
        <time>2020-07-19T10:39:44.453Z</time>
      </trkpt>
      <trkpt lat="41.671775" lon="-4.74755667">
        <ele>775.0</ele>
        <time>2020-07-19T10:39:45.453Z</time>
      </trkpt>
      <trkpt lat="41.67174667" lon="-4.74750167">
        <ele>775.0</ele>
        <time>2020-07-19T10:39:46.453Z</time>
      </trkpt>
      <trkpt lat="41.67171833" lon="-4.747445">
        <ele>775.0</ele>
        <time>2020-07-19T10:39:47.453Z</time>
      </trkpt>
      <trkpt lat="41.67169333" lon="-4.74739">
        <ele>775.0</ele>
        <time>2020-07-19T10:39:48.453Z</time>
      </trkpt>
      <trkpt lat="41.67166833" lon="-4.74733333">
        <ele>775.0</ele>
        <time>2020-07-19T10:39:49.453Z</time>
      </trkpt>
      <trkpt lat="41.67164333" lon="-4.74727333">
        <ele>775.0</ele>
        <time>2020-07-19T10:39:50.453Z</time>
      </trkpt>
      <trkpt lat="41.67162" lon="-4.74721167">
        <ele>775.0</ele>
        <time>2020-07-19T10:39:51.453Z</time>
      </trkpt>
      <trkpt lat="41.67159667" lon="-4.74715333">
        <ele>775.0</ele>
        <time>2020-07-19T10:39:52.453Z</time>
      </trkpt>
      <trkpt lat="41.67157" lon="-4.74709333">
        <ele>775.0</ele>
        <time>2020-07-19T10:39:53.453Z</time>
      </trkpt>
      <trkpt lat="41.67154333" lon="-4.74703333">
        <ele>774.0</ele>
        <time>2020-07-19T10:39:54.453Z</time>
      </trkpt>
      <trkpt lat="41.671515" lon="-4.746975">
        <ele>774.0</ele>
        <time>2020-07-19T10:39:55.453Z</time>
      </trkpt>
      <trkpt lat="41.67148667" lon="-4.74691167">
        <ele>774.0</ele>
        <time>2020-07-19T10:39:56.453Z</time>
      </trkpt>
      <trkpt lat="41.671455" lon="-4.74684833">
        <ele>774.0</ele>
        <time>2020-07-19T10:39:57.453Z</time>
      </trkpt>
      <trkpt lat="41.671425" lon="-4.74678333">
        <ele>774.0</ele>
        <time>2020-07-19T10:39:58.453Z</time>
      </trkpt>
      <trkpt lat="41.67139167" lon="-4.746715">
        <ele>774.0</ele>
        <time>2020-07-19T10:39:59.453Z</time>
      </trkpt>
      <trkpt lat="41.67136" lon="-4.746645">
        <ele>774.0</ele>
        <time>2020-07-19T10:40:00.453Z</time>
      </trkpt>
      <trkpt lat="41.671325" lon="-4.746575">
        <ele>774.0</ele>
        <time>2020-07-19T10:40:01.453Z</time>
      </trkpt>
      <trkpt lat="41.67128833" lon="-4.74650167">
        <ele>774.0</ele>
        <time>2020-07-19T10:40:02.453Z</time>
      </trkpt>
      <trkpt lat="41.67124833" lon="-4.74642833">
        <ele>774.0</ele>
        <time>2020-07-19T10:40:03.453Z</time>
      </trkpt>
      <trkpt lat="41.67120667" lon="-4.74635333">
        <ele>774.0</ele>
        <time>2020-07-19T10:40:04.453Z</time>
      </trkpt>
      <trkpt lat="41.67116333" lon="-4.74627667">
        <ele>774.0</ele>
        <time>2020-07-19T10:40:05.453Z</time>
      </trkpt>
      <trkpt lat="41.67111667" lon="-4.74619833">
        <ele>774.0</ele>
        <time>2020-07-19T10:40:06.453Z</time>
      </trkpt>
      <trkpt lat="41.67107" lon="-4.74611667">
        <ele>772.0</ele>
        <time>2020-07-19T10:40:07.453Z</time>
      </trkpt>
      <trkpt lat="41.67102333" lon="-4.74603333">
        <ele>772.0</ele>
        <time>2020-07-19T10:40:08.453Z</time>
      </trkpt>
      <trkpt lat="41.670975" lon="-4.74594833">
        <ele>772.0</ele>
        <time>2020-07-19T10:40:09.453Z</time>
      </trkpt>
      <trkpt lat="41.67092333" lon="-4.74586167">
        <ele>771.0</ele>
        <time>2020-07-19T10:40:10.453Z</time>
      </trkpt>
      <trkpt lat="41.67087167" lon="-4.745775">
        <ele>771.0</ele>
        <time>2020-07-19T10:40:11.453Z</time>
      </trkpt>
      <trkpt lat="41.67082" lon="-4.745685">
        <ele>771.0</ele>
        <time>2020-07-19T10:40:12.453Z</time>
      </trkpt>
      <trkpt lat="41.67076667" lon="-4.74559667">
        <ele>771.0</ele>
        <time>2020-07-19T10:40:13.453Z</time>
      </trkpt>
      <trkpt lat="41.67071" lon="-4.74551">
        <ele>771.0</ele>
        <time>2020-07-19T10:40:14.453Z</time>
      </trkpt>
      <trkpt lat="41.67065333" lon="-4.74542333">
        <ele>770.0</ele>
        <time>2020-07-19T10:40:15.453Z</time>
      </trkpt>
      <trkpt lat="41.67059667" lon="-4.74533833">
        <ele>769.0</ele>
        <time>2020-07-19T10:40:16.453Z</time>
      </trkpt>
      <trkpt lat="41.67054167" lon="-4.745255">
        <ele>769.0</ele>
        <time>2020-07-19T10:40:17.453Z</time>
      </trkpt>
      <trkpt lat="41.67048833" lon="-4.74518">
        <ele>769.0</ele>
        <time>2020-07-19T10:40:18.453Z</time>
      </trkpt>
      <trkpt lat="41.67043833" lon="-4.74510667">
        <ele>769.0</ele>
        <time>2020-07-19T10:40:19.453Z</time>
      </trkpt>
      <trkpt lat="41.67039167" lon="-4.74503667">
        <ele>769.0</ele>
        <time>2020-07-19T10:40:20.453Z</time>
      </trkpt>
      <trkpt lat="41.67034833" lon="-4.74496833">
        <ele>769.0</ele>
        <time>2020-07-19T10:40:21.453Z</time>
      </trkpt>
      <trkpt lat="41.67030833" lon="-4.74489833">
        <ele>769.0</ele>
        <time>2020-07-19T10:40:22.453Z</time>
      </trkpt>
      <trkpt lat="41.67026833" lon="-4.74483167">
        <ele>766.0</ele>
        <time>2020-07-19T10:40:23.453Z</time>
      </trkpt>
      <trkpt lat="41.67023" lon="-4.744765">
        <ele>766.0</ele>
        <time>2020-07-19T10:40:24.453Z</time>
      </trkpt>
      <trkpt lat="41.67019" lon="-4.74469667">
        <ele>766.0</ele>
        <time>2020-07-19T10:40:25.453Z</time>
      </trkpt>
      <trkpt lat="41.67014833" lon="-4.74462833">
        <ele>766.0</ele>
        <time>2020-07-19T10:40:26.453Z</time>
      </trkpt>
      <trkpt lat="41.67010667" lon="-4.74455833">
        <ele>765.0</ele>
        <time>2020-07-19T10:40:27.453Z</time>
      </trkpt>
      <trkpt lat="41.67006667" lon="-4.74449167">
        <ele>765.0</ele>
        <time>2020-07-19T10:40:28.453Z</time>
      </trkpt>
      <trkpt lat="41.670025" lon="-4.744425">
        <ele>765.0</ele>
        <time>2020-07-19T10:40:29.453Z</time>
      </trkpt>
      <trkpt lat="41.66998333" lon="-4.74435667">
        <ele>764.0</ele>
        <time>2020-07-19T10:40:30.453Z</time>
      </trkpt>
      <trkpt lat="41.669945" lon="-4.74429167">
        <ele>764.0</ele>
        <time>2020-07-19T10:40:31.453Z</time>
      </trkpt>
      <trkpt lat="41.66990833" lon="-4.74422833">
        <ele>764.0</ele>
        <time>2020-07-19T10:40:32.453Z</time>
      </trkpt>
      <trkpt lat="41.66986667" lon="-4.74416333">
        <ele>764.0</ele>
        <time>2020-07-19T10:40:33.453Z</time>
      </trkpt>
      <trkpt lat="41.66983" lon="-4.7441">
        <ele>764.0</ele>
        <time>2020-07-19T10:40:34.453Z</time>
      </trkpt>
      <trkpt lat="41.669795" lon="-4.74404667">
        <ele>764.0</ele>
        <time>2020-07-19T10:40:35.453Z</time>
      </trkpt>
      <trkpt lat="41.66976" lon="-4.74399833">
        <ele>763.0</ele>
        <time>2020-07-19T10:40:36.453Z</time>
      </trkpt>
      <trkpt lat="41.66972167" lon="-4.74396167">
        <ele>763.0</ele>
        <time>2020-07-19T10:40:37.453Z</time>
      </trkpt>
      <trkpt lat="41.66969333" lon="-4.74393833">
        <ele>763.0</ele>
        <time>2020-07-19T10:40:38.453Z</time>
      </trkpt>
      <trkpt lat="41.66968333" lon="-4.74392667">
        <ele>763.0</ele>
        <time>2020-07-19T10:40:39.453Z</time>
      </trkpt>
      <trkpt lat="41.66968333" lon="-4.743925">
        <ele>762.0</ele>
        <time>2020-07-19T10:40:40.453Z</time>
      </trkpt>
      <trkpt lat="41.66968333" lon="-4.743925">
        <ele>762.0</ele>
        <time>2020-07-19T10:40:41.453Z</time>
      </trkpt>
      <trkpt lat="41.66968333" lon="-4.743925">
        <ele>762.0</ele>
        <time>2020-07-19T10:40:42.453Z</time>
      </trkpt>
      <trkpt lat="41.66968333" lon="-4.74392667">
        <ele>762.0</ele>
        <time>2020-07-19T10:40:43.453Z</time>
      </trkpt>
      <trkpt lat="41.66968333" lon="-4.74392667">
        <ele>761.0</ele>
        <time>2020-07-19T10:40:44.453Z</time>
      </trkpt>
      <trkpt lat="41.66968333" lon="-4.74392667">
        <ele>761.0</ele>
        <time>2020-07-19T10:40:45.453Z</time>
      </trkpt>
      <trkpt lat="41.66968333" lon="-4.74392667">
        <ele>761.0</ele>
        <time>2020-07-19T10:40:46.453Z</time>
      </trkpt>
      <trkpt lat="41.66968333" lon="-4.74392667">
        <ele>761.0</ele>
        <time>2020-07-19T10:40:47.453Z</time>
      </trkpt>
      <trkpt lat="41.66968333" lon="-4.74392667">
        <ele>761.0</ele>
        <time>2020-07-19T10:40:48.453Z</time>
      </trkpt>
      <trkpt lat="41.66968333" lon="-4.74392667">
        <ele>761.0</ele>
        <time>2020-07-19T10:40:49.453Z</time>
      </trkpt>
      <trkpt lat="41.66968333" lon="-4.74392833">
        <ele>761.0</ele>
        <time>2020-07-19T10:40:50.453Z</time>
      </trkpt>
      <trkpt lat="41.669685" lon="-4.74392833">
        <ele>760.0</ele>
        <time>2020-07-19T10:40:51.453Z</time>
      </trkpt>
      <trkpt lat="41.669685" lon="-4.74392833">
        <ele>760.0</ele>
        <time>2020-07-19T10:40:52.453Z</time>
      </trkpt>
      <trkpt lat="41.669685" lon="-4.74392833">
        <ele>760.0</ele>
        <time>2020-07-19T10:40:53.453Z</time>
      </trkpt>
      <trkpt lat="41.669685" lon="-4.74392833">
        <ele>760.0</ele>
        <time>2020-07-19T10:40:54.453Z</time>
      </trkpt>
      <trkpt lat="41.669685" lon="-4.74392833">
        <ele>760.0</ele>
        <time>2020-07-19T10:40:55.453Z</time>
      </trkpt>
      <trkpt lat="41.66968667" lon="-4.74392833">
        <ele>760.0</ele>
        <time>2020-07-19T10:40:56.453Z</time>
      </trkpt>
      <trkpt lat="41.66968667" lon="-4.74392833">
        <ele>759.0</ele>
        <time>2020-07-19T10:40:57.453Z</time>
      </trkpt>
      <trkpt lat="41.66968667" lon="-4.74392833">
        <ele>759.0</ele>
        <time>2020-07-19T10:40:58.453Z</time>
      </trkpt>
      <trkpt lat="41.66968667" lon="-4.74392833">
        <ele>759.0</ele>
        <time>2020-07-19T10:40:59.453Z</time>
      </trkpt>
      <trkpt lat="41.66968667" lon="-4.74392833">
        <ele>759.0</ele>
        <time>2020-07-19T10:41:00.453Z</time>
      </trkpt>
      <trkpt lat="41.66968833" lon="-4.74392833">
        <ele>759.0</ele>
        <time>2020-07-19T10:41:01.453Z</time>
      </trkpt>
      <trkpt lat="41.66968833" lon="-4.74392833">
        <ele>759.0</ele>
        <time>2020-07-19T10:41:02.453Z</time>
      </trkpt>
      <trkpt lat="41.66968833" lon="-4.74392833">
        <ele>759.0</ele>
        <time>2020-07-19T10:41:03.453Z</time>
      </trkpt>
      <trkpt lat="41.66968833" lon="-4.74392833">
        <ele>759.0</ele>
        <time>2020-07-19T10:41:04.453Z</time>
      </trkpt>
      <trkpt lat="41.66968833" lon="-4.74392833">
        <ele>759.0</ele>
        <time>2020-07-19T10:41:05.453Z</time>
      </trkpt>
      <trkpt lat="41.66968833" lon="-4.74392833">
        <ele>759.0</ele>
        <time>2020-07-19T10:41:06.453Z</time>
      </trkpt>
      <trkpt lat="41.66968833" lon="-4.74392833">
        <ele>758.0</ele>
        <time>2020-07-19T10:41:07.453Z</time>
      </trkpt>
      <trkpt lat="41.66968833" lon="-4.74392833">
        <ele>758.0</ele>
        <time>2020-07-19T10:41:08.453Z</time>
      </trkpt>
      <trkpt lat="41.66968833" lon="-4.74392833">
        <ele>758.0</ele>
        <time>2020-07-19T10:41:09.453Z</time>
      </trkpt>
      <trkpt lat="41.66969" lon="-4.74392833">
        <ele>758.0</ele>
        <time>2020-07-19T10:41:10.453Z</time>
      </trkpt>
      <trkpt lat="41.66969333" lon="-4.74393">
        <ele>758.0</ele>
        <time>2020-07-19T10:41:11.453Z</time>
      </trkpt>
      <trkpt lat="41.669695" lon="-4.74393167">
        <ele>758.0</ele>
        <time>2020-07-19T10:41:12.453Z</time>
      </trkpt>
      <trkpt lat="41.669695" lon="-4.74393167">
        <ele>758.0</ele>
        <time>2020-07-19T10:41:13.453Z</time>
      </trkpt>
      <trkpt lat="41.669695" lon="-4.74393167">
        <ele>758.0</ele>
        <time>2020-07-19T10:41:14.453Z</time>
      </trkpt>
      <trkpt lat="41.66969333" lon="-4.74393">
        <ele>758.0</ele>
        <time>2020-07-19T10:41:15.453Z</time>
      </trkpt>
      <trkpt lat="41.66968667" lon="-4.74393">
        <ele>758.0</ele>
        <time>2020-07-19T10:41:16.453Z</time>
      </trkpt>
      <trkpt lat="41.66967333" lon="-4.74392333">
        <ele>758.0</ele>
        <time>2020-07-19T10:41:17.453Z</time>
      </trkpt>
      <trkpt lat="41.669655" lon="-4.743915">
        <ele>758.0</ele>
        <time>2020-07-19T10:41:18.453Z</time>
      </trkpt>
      <trkpt lat="41.66963833" lon="-4.74390167">
        <ele>758.0</ele>
        <time>2020-07-19T10:41:19.453Z</time>
      </trkpt>
      <trkpt lat="41.66962" lon="-4.74389">
        <ele>757.0</ele>
        <time>2020-07-19T10:41:20.453Z</time>
      </trkpt>
      <trkpt lat="41.66960333" lon="-4.743885">
        <ele>757.0</ele>
        <time>2020-07-19T10:41:21.453Z</time>
      </trkpt>
      <trkpt lat="41.669585" lon="-4.74387833">
        <ele>757.0</ele>
        <time>2020-07-19T10:41:22.453Z</time>
      </trkpt>
      <trkpt lat="41.669565" lon="-4.74386333">
        <ele>757.0</ele>
        <time>2020-07-19T10:41:23.453Z</time>
      </trkpt>
      <trkpt lat="41.66955" lon="-4.74384167">
        <ele>757.0</ele>
        <time>2020-07-19T10:41:24.453Z</time>
      </trkpt>
      <trkpt lat="41.66952833" lon="-4.743825">
        <ele>757.0</ele>
        <time>2020-07-19T10:41:25.453Z</time>
      </trkpt>
      <trkpt lat="41.669505" lon="-4.74381">
        <ele>757.0</ele>
        <time>2020-07-19T10:41:26.453Z</time>
      </trkpt>
      <trkpt lat="41.669485" lon="-4.743785">
        <ele>757.0</ele>
        <time>2020-07-19T10:41:27.453Z</time>
      </trkpt>
      <trkpt lat="41.669465" lon="-4.743755">
        <ele>756.0</ele>
        <time>2020-07-19T10:41:28.453Z</time>
      </trkpt>
      <trkpt lat="41.66944333" lon="-4.74372667">
        <ele>756.0</ele>
        <time>2020-07-19T10:41:29.453Z</time>
      </trkpt>
      <trkpt lat="41.66941833" lon="-4.74370667">
        <ele>756.0</ele>
        <time>2020-07-19T10:41:30.453Z</time>
      </trkpt>
      <trkpt lat="41.66939333" lon="-4.74369667">
        <ele>756.0</ele>
        <time>2020-07-19T10:41:31.453Z</time>
      </trkpt>
      <trkpt lat="41.66937" lon="-4.74370333">
        <ele>756.0</ele>
        <time>2020-07-19T10:41:32.453Z</time>
      </trkpt>
      <trkpt lat="41.66935167" lon="-4.74372333">
        <ele>756.0</ele>
        <time>2020-07-19T10:41:33.453Z</time>
      </trkpt>
      <trkpt lat="41.669335" lon="-4.74374833">
        <ele>756.0</ele>
        <time>2020-07-19T10:41:34.453Z</time>
      </trkpt>
      <trkpt lat="41.66932333" lon="-4.74378">
        <ele>756.0</ele>
        <time>2020-07-19T10:41:35.453Z</time>
      </trkpt>
      <trkpt lat="41.669315" lon="-4.74380833">
        <ele>756.0</ele>
        <time>2020-07-19T10:41:36.453Z</time>
      </trkpt>
      <trkpt lat="41.66931" lon="-4.74382667">
        <ele>756.0</ele>
        <time>2020-07-19T10:41:37.453Z</time>
      </trkpt>
      <trkpt lat="41.66930167" lon="-4.74384667">
        <ele>756.0</ele>
        <time>2020-07-19T10:41:38.453Z</time>
      </trkpt>
      <trkpt lat="41.66929667" lon="-4.74386333">
        <ele>756.0</ele>
        <time>2020-07-19T10:41:39.453Z</time>
      </trkpt>
      <trkpt lat="41.66928833" lon="-4.743885">
        <ele>756.0</ele>
        <time>2020-07-19T10:41:40.453Z</time>
      </trkpt>
      <trkpt lat="41.66928333" lon="-4.74390833">
        <ele>756.0</ele>
        <time>2020-07-19T10:41:41.453Z</time>
      </trkpt>
      <trkpt lat="41.66927833" lon="-4.74393">
        <ele>756.0</ele>
        <time>2020-07-19T10:41:42.453Z</time>
      </trkpt>
      <trkpt lat="41.66927" lon="-4.74395167">
        <ele>756.0</ele>
        <time>2020-07-19T10:41:43.453Z</time>
      </trkpt>
      <trkpt lat="41.669265" lon="-4.74397">
        <ele>756.0</ele>
        <time>2020-07-19T10:41:44.453Z</time>
      </trkpt>
      <trkpt lat="41.66925833" lon="-4.74398667">
        <ele>756.0</ele>
        <time>2020-07-19T10:41:45.453Z</time>
      </trkpt>
      <trkpt lat="41.66925333" lon="-4.74400667">
        <ele>756.0</ele>
        <time>2020-07-19T10:41:46.453Z</time>
      </trkpt>
      <trkpt lat="41.66924833" lon="-4.74403167">
        <ele>756.0</ele>
        <time>2020-07-19T10:41:47.453Z</time>
      </trkpt>
      <trkpt lat="41.66924167" lon="-4.74405833">
        <ele>756.0</ele>
        <time>2020-07-19T10:41:48.453Z</time>
      </trkpt>
      <trkpt lat="41.66923667" lon="-4.74407833">
        <ele>756.0</ele>
        <time>2020-07-19T10:41:49.453Z</time>
      </trkpt>
      <trkpt lat="41.669225" lon="-4.74409833">
        <ele>756.0</ele>
        <time>2020-07-19T10:41:50.453Z</time>
      </trkpt>
      <trkpt lat="41.66921333" lon="-4.74411667">
        <ele>756.0</ele>
        <time>2020-07-19T10:41:51.453Z</time>
      </trkpt>
      <trkpt lat="41.6692" lon="-4.744135">
        <ele>756.0</ele>
        <time>2020-07-19T10:41:52.453Z</time>
      </trkpt>
      <trkpt lat="41.66918167" lon="-4.74414833">
        <ele>756.0</ele>
        <time>2020-07-19T10:41:53.453Z</time>
      </trkpt>
      <trkpt lat="41.669165" lon="-4.744155">
        <ele>756.0</ele>
        <time>2020-07-19T10:41:54.453Z</time>
      </trkpt>
      <trkpt lat="41.66915167" lon="-4.74415167">
        <ele>757.0</ele>
        <time>2020-07-19T10:41:55.453Z</time>
      </trkpt>
      <trkpt lat="41.66914167" lon="-4.74414833">
        <ele>757.0</ele>
        <time>2020-07-19T10:41:56.453Z</time>
      </trkpt>
      <trkpt lat="41.66914167" lon="-4.74415">
        <ele>757.0</ele>
        <time>2020-07-19T10:41:57.453Z</time>
      </trkpt>
      <trkpt lat="41.66914" lon="-4.74415167">
        <ele>757.0</ele>
        <time>2020-07-19T10:41:58.453Z</time>
      </trkpt>
      <trkpt lat="41.66914" lon="-4.74415333">
        <ele>757.0</ele>
        <time>2020-07-19T10:41:59.453Z</time>
      </trkpt>
      <trkpt lat="41.66913833" lon="-4.74415667">
        <ele>757.0</ele>
        <time>2020-07-19T10:42:00.453Z</time>
      </trkpt>
      <trkpt lat="41.66913667" lon="-4.74416">
        <ele>757.0</ele>
        <time>2020-07-19T10:42:01.453Z</time>
      </trkpt>
      <trkpt lat="41.66913667" lon="-4.74416167">
        <ele>757.0</ele>
        <time>2020-07-19T10:42:02.453Z</time>
      </trkpt>
      <trkpt lat="41.66913667" lon="-4.74416333">
        <ele>757.0</ele>
        <time>2020-07-19T10:42:03.453Z</time>
      </trkpt>
      <trkpt lat="41.66913667" lon="-4.744165">
        <ele>757.0</ele>
        <time>2020-07-19T10:42:04.453Z</time>
      </trkpt>
      <trkpt lat="41.66913667" lon="-4.74416667">
        <ele>757.0</ele>
        <time>2020-07-19T10:42:05.453Z</time>
      </trkpt>
      <trkpt lat="41.66913667" lon="-4.74416833">
        <ele>757.0</ele>
        <time>2020-07-19T10:42:06.453Z</time>
      </trkpt>
      <trkpt lat="41.66913667" lon="-4.74416833">
        <ele>757.0</ele>
        <time>2020-07-19T10:42:07.453Z</time>
      </trkpt>
      <trkpt lat="41.66913667" lon="-4.74417">
        <ele>757.0</ele>
        <time>2020-07-19T10:42:08.453Z</time>
      </trkpt>
      <trkpt lat="41.66913667" lon="-4.74417167">
        <ele>757.0</ele>
        <time>2020-07-19T10:42:09.453Z</time>
      </trkpt>
      <trkpt lat="41.66913667" lon="-4.74417167">
        <ele>757.0</ele>
        <time>2020-07-19T10:42:10.453Z</time>
      </trkpt>
      <trkpt lat="41.669135" lon="-4.74417167">
        <ele>757.0</ele>
        <time>2020-07-19T10:42:11.453Z</time>
      </trkpt>
      <trkpt lat="41.669135" lon="-4.74417167">
        <ele>757.0</ele>
        <time>2020-07-19T10:42:12.453Z</time>
      </trkpt>
      <trkpt lat="41.669135" lon="-4.74417333">
        <ele>757.0</ele>
        <time>2020-07-19T10:42:13.453Z</time>
      </trkpt>
      <trkpt lat="41.669135" lon="-4.74417333">
        <ele>757.0</ele>
        <time>2020-07-19T10:42:14.453Z</time>
      </trkpt>
      <trkpt lat="41.66913333" lon="-4.74417333">
        <ele>757.0</ele>
        <time>2020-07-19T10:42:15.453Z</time>
      </trkpt>
      <trkpt lat="41.66913333" lon="-4.74417333">
        <ele>757.0</ele>
        <time>2020-07-19T10:42:16.453Z</time>
      </trkpt>
      <trkpt lat="41.66913333" lon="-4.744175">
        <ele>757.0</ele>
        <time>2020-07-19T10:42:17.453Z</time>
      </trkpt>
      <trkpt lat="41.669135" lon="-4.744175">
        <ele>757.0</ele>
        <time>2020-07-19T10:42:18.453Z</time>
      </trkpt>
      <trkpt lat="41.669135" lon="-4.74417167">
        <ele>757.0</ele>
        <time>2020-07-19T10:42:19.453Z</time>
      </trkpt>
      <trkpt lat="41.66913667" lon="-4.74417">
        <ele>757.0</ele>
        <time>2020-07-19T10:42:20.453Z</time>
      </trkpt>
      <trkpt lat="41.669135" lon="-4.74417167">
        <ele>757.0</ele>
        <time>2020-07-19T10:42:21.453Z</time>
      </trkpt>
      <trkpt lat="41.669135" lon="-4.74417333">
        <ele>757.0</ele>
        <time>2020-07-19T10:42:22.453Z</time>
      </trkpt>
      <trkpt lat="41.66913333" lon="-4.74417167">
        <ele>757.0</ele>
        <time>2020-07-19T10:42:23.453Z</time>
      </trkpt>
      <trkpt lat="41.66913333" lon="-4.74417167">
        <ele>757.0</ele>
        <time>2020-07-19T10:42:24.453Z</time>
      </trkpt>
      <trkpt lat="41.66913167" lon="-4.74417167">
        <ele>757.0</ele>
        <time>2020-07-19T10:42:25.453Z</time>
      </trkpt>
      <trkpt lat="41.66913167" lon="-4.74417">
        <ele>757.0</ele>
        <time>2020-07-19T10:42:26.453Z</time>
      </trkpt>
      <trkpt lat="41.66913" lon="-4.74417">
        <ele>757.0</ele>
        <time>2020-07-19T10:42:27.453Z</time>
      </trkpt>
      <trkpt lat="41.66912833" lon="-4.74417">
        <ele>757.0</ele>
        <time>2020-07-19T10:42:28.453Z</time>
      </trkpt>
      <trkpt lat="41.66912833" lon="-4.74417">
        <ele>757.0</ele>
        <time>2020-07-19T10:42:29.453Z</time>
      </trkpt>
      <trkpt lat="41.66912667" lon="-4.74417">
        <ele>757.0</ele>
        <time>2020-07-19T10:42:30.453Z</time>
      </trkpt>
      <trkpt lat="41.66912667" lon="-4.74416833">
        <ele>757.0</ele>
        <time>2020-07-19T10:42:31.453Z</time>
      </trkpt>
      <trkpt lat="41.66912667" lon="-4.74416833">
        <ele>757.0</ele>
        <time>2020-07-19T10:42:32.453Z</time>
      </trkpt>
      <trkpt lat="41.669125" lon="-4.74416833">
        <ele>757.0</ele>
        <time>2020-07-19T10:42:33.453Z</time>
      </trkpt>
      <trkpt lat="41.669125" lon="-4.74417">
        <ele>757.0</ele>
        <time>2020-07-19T10:42:34.453Z</time>
      </trkpt>
      <trkpt lat="41.66912333" lon="-4.74416833">
        <ele>757.0</ele>
        <time>2020-07-19T10:42:35.453Z</time>
      </trkpt>
      <trkpt lat="41.66912333" lon="-4.74416833">
        <ele>757.0</ele>
        <time>2020-07-19T10:42:36.453Z</time>
      </trkpt>
      <trkpt lat="41.66912333" lon="-4.74416833">
        <ele>757.0</ele>
        <time>2020-07-19T10:42:37.453Z</time>
      </trkpt>
      <trkpt lat="41.66912167" lon="-4.74416833">
        <ele>757.0</ele>
        <time>2020-07-19T10:42:38.453Z</time>
      </trkpt>
      <trkpt lat="41.66912167" lon="-4.74416833">
        <ele>757.0</ele>
        <time>2020-07-19T10:42:39.453Z</time>
      </trkpt>
      <trkpt lat="41.66912167" lon="-4.74416833">
        <ele>757.0</ele>
        <time>2020-07-19T10:42:40.453Z</time>
      </trkpt>
      <trkpt lat="41.66912167" lon="-4.74416833">
        <ele>757.0</ele>
        <time>2020-07-19T10:42:41.453Z</time>
      </trkpt>
      <trkpt lat="41.66912167" lon="-4.74416833">
        <ele>757.0</ele>
        <time>2020-07-19T10:42:42.453Z</time>
      </trkpt>
      <trkpt lat="41.66912" lon="-4.74416833">
        <ele>757.0</ele>
        <time>2020-07-19T10:42:43.453Z</time>
      </trkpt>
      <trkpt lat="41.66912" lon="-4.74416833">
        <ele>757.0</ele>
        <time>2020-07-19T10:42:44.453Z</time>
      </trkpt>
      <trkpt lat="41.66912" lon="-4.74416833">
        <ele>757.0</ele>
        <time>2020-07-19T10:42:45.453Z</time>
      </trkpt>
      <trkpt lat="41.66912" lon="-4.74416833">
        <ele>757.0</ele>
        <time>2020-07-19T10:42:46.453Z</time>
      </trkpt>
      <trkpt lat="41.66911667" lon="-4.74416833">
        <ele>757.0</ele>
        <time>2020-07-19T10:42:47.453Z</time>
      </trkpt>
      <trkpt lat="41.66911667" lon="-4.74416833">
        <ele>757.0</ele>
        <time>2020-07-19T10:42:48.453Z</time>
      </trkpt>
      <trkpt lat="41.669115" lon="-4.74416833">
        <ele>757.0</ele>
        <time>2020-07-19T10:42:49.453Z</time>
      </trkpt>
      <trkpt lat="41.669115" lon="-4.74416833">
        <ele>757.0</ele>
        <time>2020-07-19T10:42:50.453Z</time>
      </trkpt>
      <trkpt lat="41.669115" lon="-4.74416833">
        <ele>757.0</ele>
        <time>2020-07-19T10:42:51.453Z</time>
      </trkpt>
      <trkpt lat="41.669115" lon="-4.74416833">
        <ele>757.0</ele>
        <time>2020-07-19T10:42:52.453Z</time>
      </trkpt>
      <trkpt lat="41.66912333" lon="-4.74417">
        <ele>757.0</ele>
        <time>2020-07-19T10:42:53.453Z</time>
      </trkpt>
      <trkpt lat="41.669125" lon="-4.74416833">
        <ele>757.0</ele>
        <time>2020-07-19T10:42:54.453Z</time>
      </trkpt>
      <trkpt lat="41.66911667" lon="-4.74416833">
        <ele>757.0</ele>
        <time>2020-07-19T10:42:55.453Z</time>
      </trkpt>
      <trkpt lat="41.66911167" lon="-4.74416833">
        <ele>757.0</ele>
        <time>2020-07-19T10:42:56.453Z</time>
      </trkpt>
      <trkpt lat="41.66911167" lon="-4.74416833">
        <ele>757.0</ele>
        <time>2020-07-19T10:42:57.453Z</time>
      </trkpt>
      <trkpt lat="41.66911167" lon="-4.74416833">
        <ele>757.0</ele>
        <time>2020-07-19T10:42:58.453Z</time>
      </trkpt>
      <trkpt lat="41.66911167" lon="-4.74416833">
        <ele>757.0</ele>
        <time>2020-07-19T10:42:59.453Z</time>
      </trkpt>
      <trkpt lat="41.66911167" lon="-4.74416833">
        <ele>757.0</ele>
        <time>2020-07-19T10:43:00.453Z</time>
      </trkpt>
      <trkpt lat="41.66911167" lon="-4.74417">
        <ele>757.0</ele>
        <time>2020-07-19T10:43:01.453Z</time>
      </trkpt>
      <trkpt lat="41.66911" lon="-4.74417">
        <ele>757.0</ele>
        <time>2020-07-19T10:43:02.453Z</time>
      </trkpt>
      <trkpt lat="41.66911167" lon="-4.74417">
        <ele>757.0</ele>
        <time>2020-07-19T10:43:03.453Z</time>
      </trkpt>
      <trkpt lat="41.66911333" lon="-4.74417167">
        <ele>757.0</ele>
        <time>2020-07-19T10:43:04.453Z</time>
      </trkpt>
      <trkpt lat="41.66911333" lon="-4.74417333">
        <ele>757.0</ele>
        <time>2020-07-19T10:43:05.453Z</time>
      </trkpt>
      <trkpt lat="41.66911333" lon="-4.74417333">
        <ele>757.0</ele>
        <time>2020-07-19T10:43:06.453Z</time>
      </trkpt>
      <trkpt lat="41.66911333" lon="-4.74417333">
        <ele>757.0</ele>
        <time>2020-07-19T10:43:07.453Z</time>
      </trkpt>
      <trkpt lat="41.66911333" lon="-4.74417167">
        <ele>757.0</ele>
        <time>2020-07-19T10:43:08.453Z</time>
      </trkpt>
      <trkpt lat="41.66911333" lon="-4.74417167">
        <ele>757.0</ele>
        <time>2020-07-19T10:43:09.453Z</time>
      </trkpt>
      <trkpt lat="41.66911333" lon="-4.74417167">
        <ele>757.0</ele>
        <time>2020-07-19T10:43:10.453Z</time>
      </trkpt>
      <trkpt lat="41.66911333" lon="-4.74417167">
        <ele>757.0</ele>
        <time>2020-07-19T10:43:11.453Z</time>
      </trkpt>
      <trkpt lat="41.66911333" lon="-4.74416833">
        <ele>757.0</ele>
        <time>2020-07-19T10:43:12.453Z</time>
      </trkpt>
      <trkpt lat="41.66911167" lon="-4.74416333">
        <ele>757.0</ele>
        <time>2020-07-19T10:43:13.453Z</time>
      </trkpt>
      <trkpt lat="41.66911167" lon="-4.74416167">
        <ele>757.0</ele>
        <time>2020-07-19T10:43:14.453Z</time>
      </trkpt>
      <trkpt lat="41.66911167" lon="-4.74416167">
        <ele>757.0</ele>
        <time>2020-07-19T10:43:15.453Z</time>
      </trkpt>
      <trkpt lat="41.66911167" lon="-4.74416167">
        <ele>757.0</ele>
        <time>2020-07-19T10:43:16.453Z</time>
      </trkpt>
      <trkpt lat="41.66910833" lon="-4.74416333">
        <ele>757.0</ele>
        <time>2020-07-19T10:43:17.453Z</time>
      </trkpt>
      <trkpt lat="41.669095" lon="-4.744165">
        <ele>757.0</ele>
        <time>2020-07-19T10:43:18.453Z</time>
      </trkpt>
      <trkpt lat="41.66908333" lon="-4.74417">
        <ele>757.0</ele>
        <time>2020-07-19T10:43:19.453Z</time>
      </trkpt>
      <trkpt lat="41.66907167" lon="-4.74418">
        <ele>757.0</ele>
        <time>2020-07-19T10:43:20.453Z</time>
      </trkpt>
      <trkpt lat="41.66906333" lon="-4.74419333">
        <ele>757.0</ele>
        <time>2020-07-19T10:43:21.453Z</time>
      </trkpt>
      <trkpt lat="41.66905667" lon="-4.74421167">
        <ele>757.0</ele>
        <time>2020-07-19T10:43:22.453Z</time>
      </trkpt>
      <trkpt lat="41.66905333" lon="-4.744235">
        <ele>757.0</ele>
        <time>2020-07-19T10:43:23.453Z</time>
      </trkpt>
      <trkpt lat="41.66905" lon="-4.74425833">
        <ele>757.0</ele>
        <time>2020-07-19T10:43:24.453Z</time>
      </trkpt>
      <trkpt lat="41.669045" lon="-4.74427833">
        <ele>757.0</ele>
        <time>2020-07-19T10:43:25.453Z</time>
      </trkpt>
      <trkpt lat="41.66903833" lon="-4.74429833">
        <ele>757.0</ele>
        <time>2020-07-19T10:43:26.453Z</time>
      </trkpt>
      <trkpt lat="41.66903167" lon="-4.74432">
        <ele>757.0</ele>
        <time>2020-07-19T10:43:27.453Z</time>
      </trkpt>
      <trkpt lat="41.66902167" lon="-4.74434167">
        <ele>757.0</ele>
        <time>2020-07-19T10:43:28.453Z</time>
      </trkpt>
      <trkpt lat="41.66901167" lon="-4.74436667">
        <ele>756.0</ele>
        <time>2020-07-19T10:43:29.453Z</time>
      </trkpt>
      <trkpt lat="41.66900167" lon="-4.74438833">
        <ele>756.0</ele>
        <time>2020-07-19T10:43:30.453Z</time>
      </trkpt>
      <trkpt lat="41.66898833" lon="-4.74440667">
        <ele>756.0</ele>
        <time>2020-07-19T10:43:31.453Z</time>
      </trkpt>
      <trkpt lat="41.668975" lon="-4.74442833">
        <ele>756.0</ele>
        <time>2020-07-19T10:43:32.453Z</time>
      </trkpt>
      <trkpt lat="41.66896" lon="-4.74444667">
        <ele>756.0</ele>
        <time>2020-07-19T10:43:33.453Z</time>
      </trkpt>
      <trkpt lat="41.66894333" lon="-4.74446667">
        <ele>756.0</ele>
        <time>2020-07-19T10:43:34.453Z</time>
      </trkpt>
      <trkpt lat="41.668925" lon="-4.74448833">
        <ele>756.0</ele>
        <time>2020-07-19T10:43:35.453Z</time>
      </trkpt>
      <trkpt lat="41.66890833" lon="-4.74451167">
        <ele>756.0</ele>
        <time>2020-07-19T10:43:36.453Z</time>
      </trkpt>
      <trkpt lat="41.66889" lon="-4.74453167">
        <ele>757.0</ele>
        <time>2020-07-19T10:43:37.453Z</time>
      </trkpt>
      <trkpt lat="41.66887333" lon="-4.74455167">
        <ele>757.0</ele>
        <time>2020-07-19T10:43:38.453Z</time>
      </trkpt>
      <trkpt lat="41.668855" lon="-4.74456833">
        <ele>757.0</ele>
        <time>2020-07-19T10:43:39.453Z</time>
      </trkpt>
      <trkpt lat="41.66883667" lon="-4.74458833">
        <ele>757.0</ele>
        <time>2020-07-19T10:43:40.453Z</time>
      </trkpt>
      <trkpt lat="41.66881833" lon="-4.74460833">
        <ele>757.0</ele>
        <time>2020-07-19T10:43:41.453Z</time>
      </trkpt>
      <trkpt lat="41.6688" lon="-4.744625">
        <ele>757.0</ele>
        <time>2020-07-19T10:43:42.453Z</time>
      </trkpt>
      <trkpt lat="41.66878333" lon="-4.74464333">
        <ele>757.0</ele>
        <time>2020-07-19T10:43:43.453Z</time>
      </trkpt>
      <trkpt lat="41.668765" lon="-4.74466">
        <ele>757.0</ele>
        <time>2020-07-19T10:43:44.453Z</time>
      </trkpt>
      <trkpt lat="41.66874667" lon="-4.74468">
        <ele>757.0</ele>
        <time>2020-07-19T10:43:45.453Z</time>
      </trkpt>
      <trkpt lat="41.66872833" lon="-4.7447">
        <ele>757.0</ele>
        <time>2020-07-19T10:43:46.453Z</time>
      </trkpt>
      <trkpt lat="41.66871" lon="-4.74472333">
        <ele>757.0</ele>
        <time>2020-07-19T10:43:47.453Z</time>
      </trkpt>
      <trkpt lat="41.66869167" lon="-4.74474667">
        <ele>757.0</ele>
        <time>2020-07-19T10:43:48.453Z</time>
      </trkpt>
      <trkpt lat="41.66867667" lon="-4.74477167">
        <ele>758.0</ele>
        <time>2020-07-19T10:43:49.453Z</time>
      </trkpt>
      <trkpt lat="41.66866167" lon="-4.74479667">
        <ele>758.0</ele>
        <time>2020-07-19T10:43:50.453Z</time>
      </trkpt>
      <trkpt lat="41.668645" lon="-4.74481833">
        <ele>758.0</ele>
        <time>2020-07-19T10:43:51.453Z</time>
      </trkpt>
      <trkpt lat="41.66863" lon="-4.74484333">
        <ele>758.0</ele>
        <time>2020-07-19T10:43:52.453Z</time>
      </trkpt>
      <trkpt lat="41.668615" lon="-4.74486667">
        <ele>758.0</ele>
        <time>2020-07-19T10:43:53.453Z</time>
      </trkpt>
      <trkpt lat="41.6686" lon="-4.74489">
        <ele>758.0</ele>
        <time>2020-07-19T10:43:54.453Z</time>
      </trkpt>
      <trkpt lat="41.66858333" lon="-4.74491167">
        <ele>758.0</ele>
        <time>2020-07-19T10:43:55.453Z</time>
      </trkpt>
      <trkpt lat="41.66856667" lon="-4.744935">
        <ele>758.0</ele>
        <time>2020-07-19T10:43:56.453Z</time>
      </trkpt>
      <trkpt lat="41.66855167" lon="-4.74495667">
        <ele>758.0</ele>
        <time>2020-07-19T10:43:57.453Z</time>
      </trkpt>
      <trkpt lat="41.668535" lon="-4.744975">
        <ele>758.0</ele>
        <time>2020-07-19T10:43:58.453Z</time>
      </trkpt>
      <trkpt lat="41.66851833" lon="-4.74498667">
        <ele>759.0</ele>
        <time>2020-07-19T10:43:59.453Z</time>
      </trkpt>
      <trkpt lat="41.66849833" lon="-4.744995">
        <ele>759.0</ele>
        <time>2020-07-19T10:44:00.453Z</time>
      </trkpt>
      <trkpt lat="41.66847833" lon="-4.74499833">
        <ele>759.0</ele>
        <time>2020-07-19T10:44:01.453Z</time>
      </trkpt>
      <trkpt lat="41.66846" lon="-4.744995">
        <ele>759.0</ele>
        <time>2020-07-19T10:44:02.453Z</time>
      </trkpt>
      <trkpt lat="41.66844167" lon="-4.74498667">
        <ele>759.0</ele>
        <time>2020-07-19T10:44:03.453Z</time>
      </trkpt>
      <trkpt lat="41.668425" lon="-4.744975">
        <ele>759.0</ele>
        <time>2020-07-19T10:44:04.453Z</time>
      </trkpt>
      <trkpt lat="41.66841" lon="-4.74496333">
        <ele>759.0</ele>
        <time>2020-07-19T10:44:05.453Z</time>
      </trkpt>
      <trkpt lat="41.66839" lon="-4.744955">
        <ele>759.0</ele>
        <time>2020-07-19T10:44:06.453Z</time>
      </trkpt>
      <trkpt lat="41.668375" lon="-4.74494167">
        <ele>759.0</ele>
        <time>2020-07-19T10:44:07.453Z</time>
      </trkpt>
      <trkpt lat="41.66835667" lon="-4.74493">
        <ele>759.0</ele>
        <time>2020-07-19T10:44:08.453Z</time>
      </trkpt>
      <trkpt lat="41.66834167" lon="-4.74491167">
        <ele>759.0</ele>
        <time>2020-07-19T10:44:09.453Z</time>
      </trkpt>
      <trkpt lat="41.668325" lon="-4.744895">
        <ele>759.0</ele>
        <time>2020-07-19T10:44:10.453Z</time>
      </trkpt>
      <trkpt lat="41.66831" lon="-4.74487833">
        <ele>759.0</ele>
        <time>2020-07-19T10:44:11.453Z</time>
      </trkpt>
      <trkpt lat="41.668295" lon="-4.74486167">
        <ele>760.0</ele>
        <time>2020-07-19T10:44:12.453Z</time>
      </trkpt>
      <trkpt lat="41.66827833" lon="-4.744845">
        <ele>760.0</ele>
        <time>2020-07-19T10:44:13.453Z</time>
      </trkpt>
      <trkpt lat="41.66826333" lon="-4.74482833">
        <ele>760.0</ele>
        <time>2020-07-19T10:44:14.453Z</time>
      </trkpt>
      <trkpt lat="41.66824833" lon="-4.74481333">
        <ele>760.0</ele>
        <time>2020-07-19T10:44:15.453Z</time>
      </trkpt>
      <trkpt lat="41.668235" lon="-4.7448">
        <ele>760.0</ele>
        <time>2020-07-19T10:44:16.453Z</time>
      </trkpt>
      <trkpt lat="41.66823" lon="-4.74479333">
        <ele>760.0</ele>
        <time>2020-07-19T10:44:17.453Z</time>
      </trkpt>
      <trkpt lat="41.66823" lon="-4.74479">
        <ele>760.0</ele>
        <time>2020-07-19T10:44:18.453Z</time>
      </trkpt>
      <trkpt lat="41.66822833" lon="-4.74479167">
        <ele>760.0</ele>
        <time>2020-07-19T10:44:19.453Z</time>
      </trkpt>
      <trkpt lat="41.66822833" lon="-4.74479">
        <ele>760.0</ele>
        <time>2020-07-19T10:44:20.453Z</time>
      </trkpt>
      <trkpt lat="41.66822667" lon="-4.74479">
        <ele>760.0</ele>
        <time>2020-07-19T10:44:21.453Z</time>
      </trkpt>
      <trkpt lat="41.66822333" lon="-4.74479">
        <ele>760.0</ele>
        <time>2020-07-19T10:44:22.453Z</time>
      </trkpt>
      <trkpt lat="41.66822167" lon="-4.74478667">
        <ele>760.0</ele>
        <time>2020-07-19T10:44:23.453Z</time>
      </trkpt>
      <trkpt lat="41.66822" lon="-4.74478667">
        <ele>760.0</ele>
        <time>2020-07-19T10:44:24.453Z</time>
      </trkpt>
      <trkpt lat="41.66822" lon="-4.74478667">
        <ele>760.0</ele>
        <time>2020-07-19T10:44:25.453Z</time>
      </trkpt>
      <trkpt lat="41.66822" lon="-4.74478667">
        <ele>760.0</ele>
        <time>2020-07-19T10:44:26.453Z</time>
      </trkpt>
      <trkpt lat="41.66822" lon="-4.744785">
        <ele>760.0</ele>
        <time>2020-07-19T10:44:27.453Z</time>
      </trkpt>
      <trkpt lat="41.66822167" lon="-4.74478667">
        <ele>760.0</ele>
        <time>2020-07-19T10:44:28.453Z</time>
      </trkpt>
      <trkpt lat="41.66822167" lon="-4.74478667">
        <ele>760.0</ele>
        <time>2020-07-19T10:44:29.453Z</time>
      </trkpt>
      <trkpt lat="41.66822167" lon="-4.74478667">
        <ele>760.0</ele>
        <time>2020-07-19T10:44:30.453Z</time>
      </trkpt>
      <trkpt lat="41.66822333" lon="-4.74478833">
        <ele>760.0</ele>
        <time>2020-07-19T10:44:31.453Z</time>
      </trkpt>
      <trkpt lat="41.66822333" lon="-4.74478833">
        <ele>760.0</ele>
        <time>2020-07-19T10:44:32.453Z</time>
      </trkpt>
      <trkpt lat="41.66822167" lon="-4.74478667">
        <ele>760.0</ele>
        <time>2020-07-19T10:44:33.453Z</time>
      </trkpt>
      <trkpt lat="41.66822167" lon="-4.74478667">
        <ele>760.0</ele>
        <time>2020-07-19T10:44:34.453Z</time>
      </trkpt>
      <trkpt lat="41.66822167" lon="-4.74478667">
        <ele>760.0</ele>
        <time>2020-07-19T10:44:35.453Z</time>
      </trkpt>
      <trkpt lat="41.66822167" lon="-4.74478667">
        <ele>760.0</ele>
        <time>2020-07-19T10:44:36.453Z</time>
      </trkpt>
      <trkpt lat="41.66822167" lon="-4.744785">
        <ele>761.0</ele>
        <time>2020-07-19T10:44:37.453Z</time>
      </trkpt>
      <trkpt lat="41.66822167" lon="-4.744785">
        <ele>761.0</ele>
        <time>2020-07-19T10:44:38.453Z</time>
      </trkpt>
      <trkpt lat="41.66822167" lon="-4.744785">
        <ele>761.0</ele>
        <time>2020-07-19T10:44:39.453Z</time>
      </trkpt>
      <trkpt lat="41.66822167" lon="-4.744785">
        <ele>761.0</ele>
        <time>2020-07-19T10:44:40.453Z</time>
      </trkpt>
      <trkpt lat="41.66822167" lon="-4.744785">
        <ele>761.0</ele>
        <time>2020-07-19T10:44:41.453Z</time>
      </trkpt>
      <trkpt lat="41.66822167" lon="-4.74478333">
        <ele>761.0</ele>
        <time>2020-07-19T10:44:42.453Z</time>
      </trkpt>
      <trkpt lat="41.66822167" lon="-4.74478333">
        <ele>761.0</ele>
        <time>2020-07-19T10:44:43.453Z</time>
      </trkpt>
      <trkpt lat="41.66822167" lon="-4.74478333">
        <ele>761.0</ele>
        <time>2020-07-19T10:44:44.453Z</time>
      </trkpt>
      <trkpt lat="41.66822167" lon="-4.74478333">
        <ele>761.0</ele>
        <time>2020-07-19T10:44:45.453Z</time>
      </trkpt>
      <trkpt lat="41.66822167" lon="-4.74478333">
        <ele>761.0</ele>
        <time>2020-07-19T10:44:46.453Z</time>
      </trkpt>
      <trkpt lat="41.66822167" lon="-4.74478333">
        <ele>761.0</ele>
        <time>2020-07-19T10:44:47.453Z</time>
      </trkpt>
      <trkpt lat="41.66822167" lon="-4.74478333">
        <ele>761.0</ele>
        <time>2020-07-19T10:44:48.453Z</time>
      </trkpt>
      <trkpt lat="41.66822167" lon="-4.74478333">
        <ele>761.0</ele>
        <time>2020-07-19T10:44:49.453Z</time>
      </trkpt>
      <trkpt lat="41.66822167" lon="-4.74478333">
        <ele>761.0</ele>
        <time>2020-07-19T10:44:50.453Z</time>
      </trkpt>
      <trkpt lat="41.66822167" lon="-4.74478333">
        <ele>761.0</ele>
        <time>2020-07-19T10:44:51.453Z</time>
      </trkpt>
      <trkpt lat="41.66822333" lon="-4.74478333">
        <ele>761.0</ele>
        <time>2020-07-19T10:44:52.453Z</time>
      </trkpt>
      <trkpt lat="41.66822333" lon="-4.74478333">
        <ele>761.0</ele>
        <time>2020-07-19T10:44:53.453Z</time>
      </trkpt>
      <trkpt lat="41.66822333" lon="-4.74478333">
        <ele>761.0</ele>
        <time>2020-07-19T10:44:54.453Z</time>
      </trkpt>
      <trkpt lat="41.66822333" lon="-4.74478333">
        <ele>761.0</ele>
        <time>2020-07-19T10:44:55.453Z</time>
      </trkpt>
      <trkpt lat="41.66822333" lon="-4.74478333">
        <ele>761.0</ele>
        <time>2020-07-19T10:44:56.453Z</time>
      </trkpt>
      <trkpt lat="41.66822333" lon="-4.74478333">
        <ele>761.0</ele>
        <time>2020-07-19T10:44:57.453Z</time>
      </trkpt>
      <trkpt lat="41.66822333" lon="-4.74478333">
        <ele>761.0</ele>
        <time>2020-07-19T10:44:58.453Z</time>
      </trkpt>
      <trkpt lat="41.66822333" lon="-4.74478167">
        <ele>761.0</ele>
        <time>2020-07-19T10:44:59.453Z</time>
      </trkpt>
      <trkpt lat="41.66822667" lon="-4.74478">
        <ele>761.0</ele>
        <time>2020-07-19T10:45:00.453Z</time>
      </trkpt>
      <trkpt lat="41.66822667" lon="-4.74478">
        <ele>761.0</ele>
        <time>2020-07-19T10:45:01.453Z</time>
      </trkpt>
      <trkpt lat="41.66822667" lon="-4.74478">
        <ele>761.0</ele>
        <time>2020-07-19T10:45:02.453Z</time>
      </trkpt>
      <trkpt lat="41.66822833" lon="-4.74478">
        <ele>761.0</ele>
        <time>2020-07-19T10:45:03.453Z</time>
      </trkpt>
      <trkpt lat="41.66822833" lon="-4.74478">
        <ele>761.0</ele>
        <time>2020-07-19T10:45:04.453Z</time>
      </trkpt>
      <trkpt lat="41.66822833" lon="-4.74478">
        <ele>761.0</ele>
        <time>2020-07-19T10:45:05.453Z</time>
      </trkpt>
      <trkpt lat="41.66822667" lon="-4.744775">
        <ele>761.0</ele>
        <time>2020-07-19T10:45:06.453Z</time>
      </trkpt>
      <trkpt lat="41.66822667" lon="-4.744775">
        <ele>761.0</ele>
        <time>2020-07-19T10:45:07.453Z</time>
      </trkpt>
      <trkpt lat="41.66822667" lon="-4.744775">
        <ele>761.0</ele>
        <time>2020-07-19T10:45:08.453Z</time>
      </trkpt>
      <trkpt lat="41.66822667" lon="-4.744775">
        <ele>761.0</ele>
        <time>2020-07-19T10:45:09.453Z</time>
      </trkpt>
      <trkpt lat="41.66822667" lon="-4.744775">
        <ele>761.0</ele>
        <time>2020-07-19T10:45:10.453Z</time>
      </trkpt>
      <trkpt lat="41.66822333" lon="-4.74477333">
        <ele>761.0</ele>
        <time>2020-07-19T10:45:11.453Z</time>
      </trkpt>
      <trkpt lat="41.668215" lon="-4.744765">
        <ele>761.0</ele>
        <time>2020-07-19T10:45:12.453Z</time>
      </trkpt>
      <trkpt lat="41.66820333" lon="-4.74475167">
        <ele>761.0</ele>
        <time>2020-07-19T10:45:13.453Z</time>
      </trkpt>
      <trkpt lat="41.66819" lon="-4.74473667">
        <ele>761.0</ele>
        <time>2020-07-19T10:45:14.453Z</time>
      </trkpt>
      <trkpt lat="41.66817167" lon="-4.74471833">
        <ele>761.0</ele>
        <time>2020-07-19T10:45:15.453Z</time>
      </trkpt>
      <trkpt lat="41.66815" lon="-4.744695">
        <ele>761.0</ele>
        <time>2020-07-19T10:45:16.453Z</time>
      </trkpt>
      <trkpt lat="41.66812833" lon="-4.74466833">
        <ele>761.0</ele>
        <time>2020-07-19T10:45:17.453Z</time>
      </trkpt>
      <trkpt lat="41.66810333" lon="-4.74463667">
        <ele>761.0</ele>
        <time>2020-07-19T10:45:18.453Z</time>
      </trkpt>
      <trkpt lat="41.66807667" lon="-4.744605">
        <ele>761.0</ele>
        <time>2020-07-19T10:45:19.453Z</time>
      </trkpt>
      <trkpt lat="41.668045" lon="-4.74457333">
        <ele>761.0</ele>
        <time>2020-07-19T10:45:20.453Z</time>
      </trkpt>
      <trkpt lat="41.668015" lon="-4.74454">
        <ele>761.0</ele>
        <time>2020-07-19T10:45:21.453Z</time>
      </trkpt>
      <trkpt lat="41.667985" lon="-4.744505">
        <ele>761.0</ele>
        <time>2020-07-19T10:45:22.453Z</time>
      </trkpt>
      <trkpt lat="41.667955" lon="-4.74447">
        <ele>761.0</ele>
        <time>2020-07-19T10:45:23.453Z</time>
      </trkpt>
      <trkpt lat="41.667925" lon="-4.74443333">
        <ele>761.0</ele>
        <time>2020-07-19T10:45:24.453Z</time>
      </trkpt>
      <trkpt lat="41.66789167" lon="-4.7444">
        <ele>761.0</ele>
        <time>2020-07-19T10:45:25.453Z</time>
      </trkpt>
      <trkpt lat="41.66786" lon="-4.74436167">
        <ele>761.0</ele>
        <time>2020-07-19T10:45:26.453Z</time>
      </trkpt>
      <trkpt lat="41.66783" lon="-4.74432667">
        <ele>761.0</ele>
        <time>2020-07-19T10:45:27.453Z</time>
      </trkpt>
      <trkpt lat="41.6678" lon="-4.74429167">
        <ele>761.0</ele>
        <time>2020-07-19T10:45:28.453Z</time>
      </trkpt>
      <trkpt lat="41.66776667" lon="-4.74426">
        <ele>761.0</ele>
        <time>2020-07-19T10:45:29.453Z</time>
      </trkpt>
      <trkpt lat="41.667735" lon="-4.74423167">
        <ele>761.0</ele>
        <time>2020-07-19T10:45:30.453Z</time>
      </trkpt>
      <trkpt lat="41.66770167" lon="-4.7442">
        <ele>761.0</ele>
        <time>2020-07-19T10:45:31.453Z</time>
      </trkpt>
      <trkpt lat="41.66766667" lon="-4.74417167">
        <ele>761.0</ele>
        <time>2020-07-19T10:45:32.453Z</time>
      </trkpt>
      <trkpt lat="41.66763667" lon="-4.744145">
        <ele>761.0</ele>
        <time>2020-07-19T10:45:33.453Z</time>
      </trkpt>
      <trkpt lat="41.66761" lon="-4.74412167">
        <ele>761.0</ele>
        <time>2020-07-19T10:45:34.453Z</time>
      </trkpt>
      <trkpt lat="41.66758667" lon="-4.74410333">
        <ele>761.0</ele>
        <time>2020-07-19T10:45:35.453Z</time>
      </trkpt>
      <trkpt lat="41.66757333" lon="-4.74409">
        <ele>761.0</ele>
        <time>2020-07-19T10:45:36.453Z</time>
      </trkpt>
      <trkpt lat="41.66757333" lon="-4.74408667">
        <ele>761.0</ele>
        <time>2020-07-19T10:45:37.453Z</time>
      </trkpt>
      <trkpt lat="41.66757167" lon="-4.744085">
        <ele>761.0</ele>
        <time>2020-07-19T10:45:38.453Z</time>
      </trkpt>
      <trkpt lat="41.66757167" lon="-4.744085">
        <ele>761.0</ele>
        <time>2020-07-19T10:45:39.453Z</time>
      </trkpt>
      <trkpt lat="41.66757" lon="-4.74408333">
        <ele>761.0</ele>
        <time>2020-07-19T10:45:40.453Z</time>
      </trkpt>
      <trkpt lat="41.66756833" lon="-4.744085">
        <ele>761.0</ele>
        <time>2020-07-19T10:45:41.453Z</time>
      </trkpt>
      <trkpt lat="41.66756833" lon="-4.744085">
        <ele>761.0</ele>
        <time>2020-07-19T10:45:42.453Z</time>
      </trkpt>
      <trkpt lat="41.66756667" lon="-4.74408333">
        <ele>761.0</ele>
        <time>2020-07-19T10:45:43.453Z</time>
      </trkpt>
      <trkpt lat="41.66756667" lon="-4.74408333">
        <ele>761.0</ele>
        <time>2020-07-19T10:45:44.453Z</time>
      </trkpt>
      <trkpt lat="41.66756667" lon="-4.74408333">
        <ele>761.0</ele>
        <time>2020-07-19T10:45:45.453Z</time>
      </trkpt>
      <trkpt lat="41.667565" lon="-4.74408167">
        <ele>761.0</ele>
        <time>2020-07-19T10:45:46.453Z</time>
      </trkpt>
      <trkpt lat="41.667565" lon="-4.74408167">
        <ele>761.0</ele>
        <time>2020-07-19T10:45:47.453Z</time>
      </trkpt>
      <trkpt lat="41.667565" lon="-4.74408167">
        <ele>761.0</ele>
        <time>2020-07-19T10:45:48.453Z</time>
      </trkpt>
      <trkpt lat="41.667565" lon="-4.74408167">
        <ele>761.0</ele>
        <time>2020-07-19T10:45:49.453Z</time>
      </trkpt>
      <trkpt lat="41.667565" lon="-4.74408">
        <ele>761.0</ele>
        <time>2020-07-19T10:45:50.453Z</time>
      </trkpt>
      <trkpt lat="41.66756333" lon="-4.74408">
        <ele>761.0</ele>
        <time>2020-07-19T10:45:51.453Z</time>
      </trkpt>
      <trkpt lat="41.66756333" lon="-4.74408">
        <ele>761.0</ele>
        <time>2020-07-19T10:45:52.453Z</time>
      </trkpt>
      <trkpt lat="41.66756333" lon="-4.74407833">
        <ele>761.0</ele>
        <time>2020-07-19T10:45:53.453Z</time>
      </trkpt>
      <trkpt lat="41.66756333" lon="-4.74407833">
        <ele>761.0</ele>
        <time>2020-07-19T10:45:54.453Z</time>
      </trkpt>
      <trkpt lat="41.66756333" lon="-4.74407833">
        <ele>761.0</ele>
        <time>2020-07-19T10:45:55.453Z</time>
      </trkpt>
      <trkpt lat="41.66756333" lon="-4.74407833">
        <ele>761.0</ele>
        <time>2020-07-19T10:45:56.453Z</time>
      </trkpt>
      <trkpt lat="41.66756167" lon="-4.74407833">
        <ele>761.0</ele>
        <time>2020-07-19T10:45:57.453Z</time>
      </trkpt>
      <trkpt lat="41.66756167" lon="-4.74407833">
        <ele>761.0</ele>
        <time>2020-07-19T10:45:58.453Z</time>
      </trkpt>
      <trkpt lat="41.66756167" lon="-4.74407833">
        <ele>761.0</ele>
        <time>2020-07-19T10:45:59.453Z</time>
      </trkpt>
      <trkpt lat="41.66756167" lon="-4.74407833">
        <ele>761.0</ele>
        <time>2020-07-19T10:46:00.453Z</time>
      </trkpt>
      <trkpt lat="41.66756167" lon="-4.74407833">
        <ele>761.0</ele>
        <time>2020-07-19T10:46:01.453Z</time>
      </trkpt>
      <trkpt lat="41.66756167" lon="-4.74407833">
        <ele>761.0</ele>
        <time>2020-07-19T10:46:02.453Z</time>
      </trkpt>
      <trkpt lat="41.66756167" lon="-4.74407833">
        <ele>761.0</ele>
        <time>2020-07-19T10:46:03.453Z</time>
      </trkpt>
      <trkpt lat="41.66756167" lon="-4.74407833">
        <ele>761.0</ele>
        <time>2020-07-19T10:46:04.453Z</time>
      </trkpt>
      <trkpt lat="41.66756167" lon="-4.74407833">
        <ele>761.0</ele>
        <time>2020-07-19T10:46:05.453Z</time>
      </trkpt>
      <trkpt lat="41.66756167" lon="-4.74407833">
        <ele>761.0</ele>
        <time>2020-07-19T10:46:06.453Z</time>
      </trkpt>
      <trkpt lat="41.66756167" lon="-4.74407833">
        <ele>761.0</ele>
        <time>2020-07-19T10:46:07.453Z</time>
      </trkpt>
      <trkpt lat="41.66756167" lon="-4.74407833">
        <ele>761.0</ele>
        <time>2020-07-19T10:46:08.453Z</time>
      </trkpt>
      <trkpt lat="41.66756167" lon="-4.74407667">
        <ele>761.0</ele>
        <time>2020-07-19T10:46:09.453Z</time>
      </trkpt>
      <trkpt lat="41.66756167" lon="-4.74407833">
        <ele>761.0</ele>
        <time>2020-07-19T10:46:10.453Z</time>
      </trkpt>
      <trkpt lat="41.66756167" lon="-4.74407667">
        <ele>761.0</ele>
        <time>2020-07-19T10:46:11.453Z</time>
      </trkpt>
      <trkpt lat="41.66756167" lon="-4.74407667">
        <ele>761.0</ele>
        <time>2020-07-19T10:46:12.453Z</time>
      </trkpt>
      <trkpt lat="41.66756167" lon="-4.74407667">
        <ele>761.0</ele>
        <time>2020-07-19T10:46:13.453Z</time>
      </trkpt>
      <trkpt lat="41.66756167" lon="-4.74407667">
        <ele>761.0</ele>
        <time>2020-07-19T10:46:14.453Z</time>
      </trkpt>
      <trkpt lat="41.66756167" lon="-4.74407667">
        <ele>761.0</ele>
        <time>2020-07-19T10:46:15.453Z</time>
      </trkpt>
      <trkpt lat="41.66756167" lon="-4.74407667">
        <ele>761.0</ele>
        <time>2020-07-19T10:46:16.453Z</time>
      </trkpt>
      <trkpt lat="41.66756167" lon="-4.74407667">
        <ele>761.0</ele>
        <time>2020-07-19T10:46:17.453Z</time>
      </trkpt>
      <trkpt lat="41.66756167" lon="-4.74407667">
        <ele>761.0</ele>
        <time>2020-07-19T10:46:18.453Z</time>
      </trkpt>
      <trkpt lat="41.66756333" lon="-4.74407333">
        <ele>761.0</ele>
        <time>2020-07-19T10:46:19.453Z</time>
      </trkpt>
      <trkpt lat="41.66756333" lon="-4.74407333">
        <ele>761.0</ele>
        <time>2020-07-19T10:46:20.453Z</time>
      </trkpt>
      <trkpt lat="41.667565" lon="-4.744075">
        <ele>761.0</ele>
        <time>2020-07-19T10:46:21.453Z</time>
      </trkpt>
      <trkpt lat="41.667565" lon="-4.74407333">
        <ele>761.0</ele>
        <time>2020-07-19T10:46:22.453Z</time>
      </trkpt>
      <trkpt lat="41.667565" lon="-4.74407333">
        <ele>761.0</ele>
        <time>2020-07-19T10:46:23.453Z</time>
      </trkpt>
      <trkpt lat="41.667565" lon="-4.74407333">
        <ele>761.0</ele>
        <time>2020-07-19T10:46:24.453Z</time>
      </trkpt>
      <trkpt lat="41.667565" lon="-4.74407333">
        <ele>761.0</ele>
        <time>2020-07-19T10:46:25.453Z</time>
      </trkpt>
      <trkpt lat="41.66756333" lon="-4.74407333">
        <ele>761.0</ele>
        <time>2020-07-19T10:46:26.453Z</time>
      </trkpt>
      <trkpt lat="41.66755667" lon="-4.744075">
        <ele>761.0</ele>
        <time>2020-07-19T10:46:27.453Z</time>
      </trkpt>
      <trkpt lat="41.66754667" lon="-4.74408333">
        <ele>761.0</ele>
        <time>2020-07-19T10:46:28.453Z</time>
      </trkpt>
      <trkpt lat="41.667535" lon="-4.74409167">
        <ele>761.0</ele>
        <time>2020-07-19T10:46:29.453Z</time>
      </trkpt>
      <trkpt lat="41.667525" lon="-4.74410667">
        <ele>761.0</ele>
        <time>2020-07-19T10:46:30.453Z</time>
      </trkpt>
      <trkpt lat="41.66751333" lon="-4.744125">
        <ele>761.0</ele>
        <time>2020-07-19T10:46:31.453Z</time>
      </trkpt>
      <trkpt lat="41.66750167" lon="-4.74414833">
        <ele>761.0</ele>
        <time>2020-07-19T10:46:32.453Z</time>
      </trkpt>
      <trkpt lat="41.66748333" lon="-4.74416833">
        <ele>761.0</ele>
        <time>2020-07-19T10:46:33.453Z</time>
      </trkpt>
      <trkpt lat="41.66746667" lon="-4.74418667">
        <ele>761.0</ele>
        <time>2020-07-19T10:46:34.453Z</time>
      </trkpt>
      <trkpt lat="41.66744667" lon="-4.74421">
        <ele>761.0</ele>
        <time>2020-07-19T10:46:35.453Z</time>
      </trkpt>
      <trkpt lat="41.66742667" lon="-4.74424">
        <ele>761.0</ele>
        <time>2020-07-19T10:46:36.453Z</time>
      </trkpt>
      <trkpt lat="41.667405" lon="-4.74427">
        <ele>761.0</ele>
        <time>2020-07-19T10:46:37.453Z</time>
      </trkpt>
      <trkpt lat="41.66738167" lon="-4.74430167">
        <ele>761.0</ele>
        <time>2020-07-19T10:46:38.453Z</time>
      </trkpt>
      <trkpt lat="41.66735833" lon="-4.744335">
        <ele>761.0</ele>
        <time>2020-07-19T10:46:39.453Z</time>
      </trkpt>
      <trkpt lat="41.667335" lon="-4.74437">
        <ele>761.0</ele>
        <time>2020-07-19T10:46:40.453Z</time>
      </trkpt>
      <trkpt lat="41.66731" lon="-4.744405">
        <ele>761.0</ele>
        <time>2020-07-19T10:46:41.453Z</time>
      </trkpt>
      <trkpt lat="41.66728333" lon="-4.74444167">
        <ele>761.0</ele>
        <time>2020-07-19T10:46:42.453Z</time>
      </trkpt>
      <trkpt lat="41.66726" lon="-4.74448">
        <ele>761.0</ele>
        <time>2020-07-19T10:46:43.453Z</time>
      </trkpt>
      <trkpt lat="41.66723833" lon="-4.74452">
        <ele>761.0</ele>
        <time>2020-07-19T10:46:44.453Z</time>
      </trkpt>
      <trkpt lat="41.66721667" lon="-4.74456">
        <ele>761.0</ele>
        <time>2020-07-19T10:46:45.453Z</time>
      </trkpt>
      <trkpt lat="41.66719333" lon="-4.7446">
        <ele>761.0</ele>
        <time>2020-07-19T10:46:46.453Z</time>
      </trkpt>
      <trkpt lat="41.66717" lon="-4.74463833">
        <ele>761.0</ele>
        <time>2020-07-19T10:46:47.453Z</time>
      </trkpt>
      <trkpt lat="41.66714833" lon="-4.74467667">
        <ele>761.0</ele>
        <time>2020-07-19T10:46:48.453Z</time>
      </trkpt>
      <trkpt lat="41.66712833" lon="-4.744715">
        <ele>761.0</ele>
        <time>2020-07-19T10:46:49.453Z</time>
      </trkpt>
      <trkpt lat="41.667105" lon="-4.74475">
        <ele>760.0</ele>
        <time>2020-07-19T10:46:50.453Z</time>
      </trkpt>
      <trkpt lat="41.66708167" lon="-4.744785">
        <ele>760.0</ele>
        <time>2020-07-19T10:46:51.453Z</time>
      </trkpt>
      <trkpt lat="41.66705667" lon="-4.74482167">
        <ele>760.0</ele>
        <time>2020-07-19T10:46:52.453Z</time>
      </trkpt>
      <trkpt lat="41.66703" lon="-4.744855">
        <ele>760.0</ele>
        <time>2020-07-19T10:46:53.453Z</time>
      </trkpt>
      <trkpt lat="41.667005" lon="-4.74489167">
        <ele>760.0</ele>
        <time>2020-07-19T10:46:54.453Z</time>
      </trkpt>
      <trkpt lat="41.66697833" lon="-4.74492667">
        <ele>760.0</ele>
        <time>2020-07-19T10:46:55.453Z</time>
      </trkpt>
      <trkpt lat="41.66695333" lon="-4.74496333">
        <ele>760.0</ele>
        <time>2020-07-19T10:46:56.453Z</time>
      </trkpt>
      <trkpt lat="41.66692667" lon="-4.745">
        <ele>760.0</ele>
        <time>2020-07-19T10:46:57.453Z</time>
      </trkpt>
      <trkpt lat="41.6669" lon="-4.745035">
        <ele>760.0</ele>
        <time>2020-07-19T10:46:58.453Z</time>
      </trkpt>
      <trkpt lat="41.66687333" lon="-4.74507">
        <ele>760.0</ele>
        <time>2020-07-19T10:46:59.453Z</time>
      </trkpt>
      <trkpt lat="41.666845" lon="-4.74510333">
        <ele>760.0</ele>
        <time>2020-07-19T10:47:00.453Z</time>
      </trkpt>
      <trkpt lat="41.66681833" lon="-4.74513833">
        <ele>760.0</ele>
        <time>2020-07-19T10:47:01.453Z</time>
      </trkpt>
      <trkpt lat="41.66679167" lon="-4.74517333">
        <ele>760.0</ele>
        <time>2020-07-19T10:47:02.453Z</time>
      </trkpt>
      <trkpt lat="41.666765" lon="-4.74521">
        <ele>760.0</ele>
        <time>2020-07-19T10:47:03.453Z</time>
      </trkpt>
      <trkpt lat="41.66674" lon="-4.745245">
        <ele>760.0</ele>
        <time>2020-07-19T10:47:04.453Z</time>
      </trkpt>
      <trkpt lat="41.66671333" lon="-4.74528">
        <ele>760.0</ele>
        <time>2020-07-19T10:47:05.453Z</time>
      </trkpt>
      <trkpt lat="41.66668833" lon="-4.74531333">
        <ele>760.0</ele>
        <time>2020-07-19T10:47:06.453Z</time>
      </trkpt>
      <trkpt lat="41.66666333" lon="-4.745345">
        <ele>760.0</ele>
        <time>2020-07-19T10:47:07.453Z</time>
      </trkpt>
      <trkpt lat="41.66664" lon="-4.74537333">
        <ele>760.0</ele>
        <time>2020-07-19T10:47:08.453Z</time>
      </trkpt>
      <trkpt lat="41.666615" lon="-4.745395">
        <ele>760.0</ele>
        <time>2020-07-19T10:47:09.453Z</time>
      </trkpt>
      <trkpt lat="41.66659" lon="-4.74541167">
        <ele>760.0</ele>
        <time>2020-07-19T10:47:10.453Z</time>
      </trkpt>
      <trkpt lat="41.66656833" lon="-4.74542833">
        <ele>760.0</ele>
        <time>2020-07-19T10:47:11.453Z</time>
      </trkpt>
      <trkpt lat="41.66654667" lon="-4.74544667">
        <ele>760.0</ele>
        <time>2020-07-19T10:47:12.453Z</time>
      </trkpt>
      <trkpt lat="41.66652833" lon="-4.745465">
        <ele>760.0</ele>
        <time>2020-07-19T10:47:13.453Z</time>
      </trkpt>
      <trkpt lat="41.66651167" lon="-4.745485">
        <ele>760.0</ele>
        <time>2020-07-19T10:47:14.453Z</time>
      </trkpt>
      <trkpt lat="41.66649833" lon="-4.74550667">
        <ele>760.0</ele>
        <time>2020-07-19T10:47:15.453Z</time>
      </trkpt>
      <trkpt lat="41.66648667" lon="-4.74552833">
        <ele>760.0</ele>
        <time>2020-07-19T10:47:16.453Z</time>
      </trkpt>
      <trkpt lat="41.666475" lon="-4.74555">
        <ele>760.0</ele>
        <time>2020-07-19T10:47:17.453Z</time>
      </trkpt>
      <trkpt lat="41.666465" lon="-4.745565">
        <ele>760.0</ele>
        <time>2020-07-19T10:47:18.453Z</time>
      </trkpt>
      <trkpt lat="41.66646167" lon="-4.74556667">
        <ele>760.0</ele>
        <time>2020-07-19T10:47:19.453Z</time>
      </trkpt>
      <trkpt lat="41.666465" lon="-4.74557333">
        <ele>760.0</ele>
        <time>2020-07-19T10:47:20.453Z</time>
      </trkpt>
      <trkpt lat="41.66646833" lon="-4.74557333">
        <ele>760.0</ele>
        <time>2020-07-19T10:47:21.453Z</time>
      </trkpt>
      <trkpt lat="41.66646833" lon="-4.74557333">
        <ele>760.0</ele>
        <time>2020-07-19T10:47:22.453Z</time>
      </trkpt>
      <trkpt lat="41.66646833" lon="-4.74557667">
        <ele>760.0</ele>
        <time>2020-07-19T10:47:23.453Z</time>
      </trkpt>
      <trkpt lat="41.66646667" lon="-4.74558167">
        <ele>760.0</ele>
        <time>2020-07-19T10:47:24.453Z</time>
      </trkpt>
      <trkpt lat="41.666465" lon="-4.74558167">
        <ele>760.0</ele>
        <time>2020-07-19T10:47:25.453Z</time>
      </trkpt>
      <trkpt lat="41.66646333" lon="-4.74558167">
        <ele>760.0</ele>
        <time>2020-07-19T10:47:26.453Z</time>
      </trkpt>
      <trkpt lat="41.66646333" lon="-4.74558167">
        <ele>760.0</ele>
        <time>2020-07-19T10:47:27.453Z</time>
      </trkpt>
      <trkpt lat="41.66646333" lon="-4.74558167">
        <ele>760.0</ele>
        <time>2020-07-19T10:47:28.453Z</time>
      </trkpt>
      <trkpt lat="41.66646333" lon="-4.74558167">
        <ele>760.0</ele>
        <time>2020-07-19T10:47:29.453Z</time>
      </trkpt>
      <trkpt lat="41.66646333" lon="-4.74558333">
        <ele>760.0</ele>
        <time>2020-07-19T10:47:30.453Z</time>
      </trkpt>
      <trkpt lat="41.66646333" lon="-4.74558333">
        <ele>760.0</ele>
        <time>2020-07-19T10:47:31.453Z</time>
      </trkpt>
      <trkpt lat="41.66646333" lon="-4.745585">
        <ele>760.0</ele>
        <time>2020-07-19T10:47:32.453Z</time>
      </trkpt>
      <trkpt lat="41.66646333" lon="-4.745585">
        <ele>760.0</ele>
        <time>2020-07-19T10:47:33.453Z</time>
      </trkpt>
      <trkpt lat="41.66646333" lon="-4.745585">
        <ele>760.0</ele>
        <time>2020-07-19T10:47:34.453Z</time>
      </trkpt>
      <trkpt lat="41.66646333" lon="-4.745585">
        <ele>760.0</ele>
        <time>2020-07-19T10:47:35.453Z</time>
      </trkpt>
      <trkpt lat="41.66646333" lon="-4.74558667">
        <ele>760.0</ele>
        <time>2020-07-19T10:47:36.453Z</time>
      </trkpt>
      <trkpt lat="41.66646333" lon="-4.745585">
        <ele>760.0</ele>
        <time>2020-07-19T10:47:37.453Z</time>
      </trkpt>
      <trkpt lat="41.66646333" lon="-4.745585">
        <ele>760.0</ele>
        <time>2020-07-19T10:47:38.453Z</time>
      </trkpt>
      <trkpt lat="41.66646333" lon="-4.745585">
        <ele>760.0</ele>
        <time>2020-07-19T10:47:39.453Z</time>
      </trkpt>
      <trkpt lat="41.66646333" lon="-4.745585">
        <ele>760.0</ele>
        <time>2020-07-19T10:47:40.453Z</time>
      </trkpt>
      <trkpt lat="41.66646333" lon="-4.74558333">
        <ele>760.0</ele>
        <time>2020-07-19T10:47:41.453Z</time>
      </trkpt>
      <trkpt lat="41.66646333" lon="-4.74557833">
        <ele>760.0</ele>
        <time>2020-07-19T10:47:42.453Z</time>
      </trkpt>
      <trkpt lat="41.666465" lon="-4.74557833">
        <ele>760.0</ele>
        <time>2020-07-19T10:47:43.453Z</time>
      </trkpt>
      <trkpt lat="41.666465" lon="-4.74558">
        <ele>760.0</ele>
        <time>2020-07-19T10:47:44.453Z</time>
      </trkpt>
      <trkpt lat="41.666465" lon="-4.74558">
        <ele>759.0</ele>
        <time>2020-07-19T10:47:45.453Z</time>
      </trkpt>
      <trkpt lat="41.666465" lon="-4.74558">
        <ele>759.0</ele>
        <time>2020-07-19T10:47:46.453Z</time>
      </trkpt>
      <trkpt lat="41.666465" lon="-4.74557833">
        <ele>759.0</ele>
        <time>2020-07-19T10:47:47.453Z</time>
      </trkpt>
      <trkpt lat="41.666465" lon="-4.74557833">
        <ele>759.0</ele>
        <time>2020-07-19T10:47:48.453Z</time>
      </trkpt>
      <trkpt lat="41.666465" lon="-4.74557833">
        <ele>759.0</ele>
        <time>2020-07-19T10:47:49.453Z</time>
      </trkpt>
      <trkpt lat="41.666465" lon="-4.74557833">
        <ele>759.0</ele>
        <time>2020-07-19T10:47:50.453Z</time>
      </trkpt>
      <trkpt lat="41.666465" lon="-4.74557833">
        <ele>759.0</ele>
        <time>2020-07-19T10:47:51.453Z</time>
      </trkpt>
      <trkpt lat="41.666465" lon="-4.74557833">
        <ele>759.0</ele>
        <time>2020-07-19T10:47:52.453Z</time>
      </trkpt>
      <trkpt lat="41.666465" lon="-4.74557833">
        <ele>759.0</ele>
        <time>2020-07-19T10:47:53.453Z</time>
      </trkpt>
      <trkpt lat="41.666465" lon="-4.74557833">
        <ele>759.0</ele>
        <time>2020-07-19T10:47:54.453Z</time>
      </trkpt>
      <trkpt lat="41.666465" lon="-4.74557833">
        <ele>759.0</ele>
        <time>2020-07-19T10:47:55.453Z</time>
      </trkpt>
      <trkpt lat="41.666465" lon="-4.74557833">
        <ele>759.0</ele>
        <time>2020-07-19T10:47:56.453Z</time>
      </trkpt>
      <trkpt lat="41.666465" lon="-4.74557833">
        <ele>759.0</ele>
        <time>2020-07-19T10:47:57.453Z</time>
      </trkpt>
      <trkpt lat="41.666465" lon="-4.74557667">
        <ele>759.0</ele>
        <time>2020-07-19T10:47:58.453Z</time>
      </trkpt>
      <trkpt lat="41.666465" lon="-4.74557833">
        <ele>759.0</ele>
        <time>2020-07-19T10:47:59.453Z</time>
      </trkpt>
      <trkpt lat="41.666465" lon="-4.74557833">
        <ele>759.0</ele>
        <time>2020-07-19T10:48:00.453Z</time>
      </trkpt>
      <trkpt lat="41.666465" lon="-4.74557833">
        <ele>759.0</ele>
        <time>2020-07-19T10:48:01.453Z</time>
      </trkpt>
      <trkpt lat="41.666465" lon="-4.74557833">
        <ele>759.0</ele>
        <time>2020-07-19T10:48:02.453Z</time>
      </trkpt>
      <trkpt lat="41.666465" lon="-4.74557667">
        <ele>759.0</ele>
        <time>2020-07-19T10:48:03.453Z</time>
      </trkpt>
      <trkpt lat="41.666465" lon="-4.74557833">
        <ele>759.0</ele>
        <time>2020-07-19T10:48:04.453Z</time>
      </trkpt>
      <trkpt lat="41.666465" lon="-4.74557667">
        <ele>759.0</ele>
        <time>2020-07-19T10:48:05.453Z</time>
      </trkpt>
      <trkpt lat="41.666465" lon="-4.74557833">
        <ele>759.0</ele>
        <time>2020-07-19T10:48:06.453Z</time>
      </trkpt>
      <trkpt lat="41.666465" lon="-4.74557833">
        <ele>759.0</ele>
        <time>2020-07-19T10:48:07.453Z</time>
      </trkpt>
      <trkpt lat="41.66646667" lon="-4.74557333">
        <ele>759.0</ele>
        <time>2020-07-19T10:48:08.453Z</time>
      </trkpt>
      <trkpt lat="41.66646667" lon="-4.74557333">
        <ele>759.0</ele>
        <time>2020-07-19T10:48:09.453Z</time>
      </trkpt>
      <trkpt lat="41.66646667" lon="-4.74557333">
        <ele>759.0</ele>
        <time>2020-07-19T10:48:10.453Z</time>
      </trkpt>
      <trkpt lat="41.66646667" lon="-4.74557333">
        <ele>759.0</ele>
        <time>2020-07-19T10:48:11.453Z</time>
      </trkpt>
      <trkpt lat="41.666465" lon="-4.74557667">
        <ele>759.0</ele>
        <time>2020-07-19T10:48:12.453Z</time>
      </trkpt>
      <trkpt lat="41.66646333" lon="-4.74557667">
        <ele>759.0</ele>
        <time>2020-07-19T10:48:13.453Z</time>
      </trkpt>
      <trkpt lat="41.66646333" lon="-4.74557667">
        <ele>759.0</ele>
        <time>2020-07-19T10:48:14.453Z</time>
      </trkpt>
      <trkpt lat="41.66646167" lon="-4.74557667">
        <ele>759.0</ele>
        <time>2020-07-19T10:48:15.453Z</time>
      </trkpt>
      <trkpt lat="41.66646167" lon="-4.74557667">
        <ele>759.0</ele>
        <time>2020-07-19T10:48:16.453Z</time>
      </trkpt>
      <trkpt lat="41.66646167" lon="-4.74558167">
        <ele>759.0</ele>
        <time>2020-07-19T10:48:17.453Z</time>
      </trkpt>
      <trkpt lat="41.666455" lon="-4.745595">
        <ele>759.0</ele>
        <time>2020-07-19T10:48:18.453Z</time>
      </trkpt>
      <trkpt lat="41.666445" lon="-4.74560833">
        <ele>759.0</ele>
        <time>2020-07-19T10:48:19.453Z</time>
      </trkpt>
      <trkpt lat="41.66643333" lon="-4.74562167">
        <ele>759.0</ele>
        <time>2020-07-19T10:48:20.453Z</time>
      </trkpt>
      <trkpt lat="41.66641667" lon="-4.74563333">
        <ele>759.0</ele>
        <time>2020-07-19T10:48:21.453Z</time>
      </trkpt>
      <trkpt lat="41.6664" lon="-4.745645">
        <ele>759.0</ele>
        <time>2020-07-19T10:48:22.453Z</time>
      </trkpt>
      <trkpt lat="41.66638167" lon="-4.74565667">
        <ele>759.0</ele>
        <time>2020-07-19T10:48:23.453Z</time>
      </trkpt>
      <trkpt lat="41.66636667" lon="-4.74567167">
        <ele>759.0</ele>
        <time>2020-07-19T10:48:24.453Z</time>
      </trkpt>
      <trkpt lat="41.66635333" lon="-4.74568833">
        <ele>759.0</ele>
        <time>2020-07-19T10:48:25.453Z</time>
      </trkpt>
      <trkpt lat="41.66634" lon="-4.74570333">
        <ele>759.0</ele>
        <time>2020-07-19T10:48:26.453Z</time>
      </trkpt>
      <trkpt lat="41.666325" lon="-4.74571667">
        <ele>759.0</ele>
        <time>2020-07-19T10:48:27.453Z</time>
      </trkpt>
      <trkpt lat="41.66630833" lon="-4.74573167">
        <ele>759.0</ele>
        <time>2020-07-19T10:48:28.453Z</time>
      </trkpt>
      <trkpt lat="41.66629333" lon="-4.745745">
        <ele>758.0</ele>
        <time>2020-07-19T10:48:29.453Z</time>
      </trkpt>
      <trkpt lat="41.66627833" lon="-4.74575667">
        <ele>758.0</ele>
        <time>2020-07-19T10:48:30.453Z</time>
      </trkpt>
      <trkpt lat="41.66626333" lon="-4.74576667">
        <ele>758.0</ele>
        <time>2020-07-19T10:48:31.453Z</time>
      </trkpt>
      <trkpt lat="41.66625" lon="-4.74577667">
        <ele>758.0</ele>
        <time>2020-07-19T10:48:32.453Z</time>
      </trkpt>
      <trkpt lat="41.66623667" lon="-4.74578667">
        <ele>758.0</ele>
        <time>2020-07-19T10:48:33.453Z</time>
      </trkpt>
      <trkpt lat="41.66622167" lon="-4.7458">
        <ele>758.0</ele>
        <time>2020-07-19T10:48:34.453Z</time>
      </trkpt>
      <trkpt lat="41.66620333" lon="-4.74580667">
        <ele>758.0</ele>
        <time>2020-07-19T10:48:35.453Z</time>
      </trkpt>
      <trkpt lat="41.666185" lon="-4.74582">
        <ele>757.0</ele>
        <time>2020-07-19T10:48:36.453Z</time>
      </trkpt>
      <trkpt lat="41.66616833" lon="-4.74583833">
        <ele>757.0</ele>
        <time>2020-07-19T10:48:37.453Z</time>
      </trkpt>
      <trkpt lat="41.66615" lon="-4.745855">
        <ele>757.0</ele>
        <time>2020-07-19T10:48:38.453Z</time>
      </trkpt>
      <trkpt lat="41.66613167" lon="-4.74587333">
        <ele>757.0</ele>
        <time>2020-07-19T10:48:39.453Z</time>
      </trkpt>
      <trkpt lat="41.66611333" lon="-4.74589">
        <ele>757.0</ele>
        <time>2020-07-19T10:48:40.453Z</time>
      </trkpt>
      <trkpt lat="41.666095" lon="-4.74590833">
        <ele>757.0</ele>
        <time>2020-07-19T10:48:41.453Z</time>
      </trkpt>
      <trkpt lat="41.666075" lon="-4.745925">
        <ele>757.0</ele>
        <time>2020-07-19T10:48:42.453Z</time>
      </trkpt>
      <trkpt lat="41.66605833" lon="-4.74593833">
        <ele>757.0</ele>
        <time>2020-07-19T10:48:43.453Z</time>
      </trkpt>
      <trkpt lat="41.66604167" lon="-4.74595167">
        <ele>757.0</ele>
        <time>2020-07-19T10:48:44.453Z</time>
      </trkpt>
      <trkpt lat="41.66602667" lon="-4.74596167">
        <ele>757.0</ele>
        <time>2020-07-19T10:48:45.453Z</time>
      </trkpt>
      <trkpt lat="41.66602" lon="-4.74596667">
        <ele>757.0</ele>
        <time>2020-07-19T10:48:46.453Z</time>
      </trkpt>
      <trkpt lat="41.66601833" lon="-4.74596667">
        <ele>757.0</ele>
        <time>2020-07-19T10:48:47.453Z</time>
      </trkpt>
      <trkpt lat="41.66601833" lon="-4.74596667">
        <ele>756.0</ele>
        <time>2020-07-19T10:48:48.453Z</time>
      </trkpt>
      <trkpt lat="41.66601667" lon="-4.74596667">
        <ele>756.0</ele>
        <time>2020-07-19T10:48:49.453Z</time>
      </trkpt>
      <trkpt lat="41.66601667" lon="-4.74596667">
        <ele>756.0</ele>
        <time>2020-07-19T10:48:50.453Z</time>
      </trkpt>
      <trkpt lat="41.66601667" lon="-4.74596667">
        <ele>756.0</ele>
        <time>2020-07-19T10:48:51.453Z</time>
      </trkpt>
      <trkpt lat="41.66601667" lon="-4.74596667">
        <ele>756.0</ele>
        <time>2020-07-19T10:48:52.453Z</time>
      </trkpt>
      <trkpt lat="41.66601833" lon="-4.74597167">
        <ele>756.0</ele>
        <time>2020-07-19T10:48:53.453Z</time>
      </trkpt>
      <trkpt lat="41.66602" lon="-4.74597667">
        <ele>756.0</ele>
        <time>2020-07-19T10:48:54.453Z</time>
      </trkpt>
      <trkpt lat="41.66602167" lon="-4.74597667">
        <ele>756.0</ele>
        <time>2020-07-19T10:48:55.453Z</time>
      </trkpt>
      <trkpt lat="41.666025" lon="-4.745975">
        <ele>756.0</ele>
        <time>2020-07-19T10:48:56.453Z</time>
      </trkpt>
      <trkpt lat="41.66602667" lon="-4.74597333">
        <ele>756.0</ele>
        <time>2020-07-19T10:48:57.453Z</time>
      </trkpt>
      <trkpt lat="41.66602833" lon="-4.74597">
        <ele>756.0</ele>
        <time>2020-07-19T10:48:58.453Z</time>
      </trkpt>
      <trkpt lat="41.66603167" lon="-4.74596833">
        <ele>756.0</ele>
        <time>2020-07-19T10:48:59.453Z</time>
      </trkpt>
      <trkpt lat="41.66603833" lon="-4.74596667">
        <ele>756.0</ele>
        <time>2020-07-19T10:49:00.453Z</time>
      </trkpt>
      <trkpt lat="41.666045" lon="-4.74596333">
        <ele>756.0</ele>
        <time>2020-07-19T10:49:01.453Z</time>
      </trkpt>
      <trkpt lat="41.66604833" lon="-4.74596667">
        <ele>756.0</ele>
        <time>2020-07-19T10:49:02.453Z</time>
      </trkpt>
      <trkpt lat="41.66605167" lon="-4.74597">
        <ele>756.0</ele>
        <time>2020-07-19T10:49:03.453Z</time>
      </trkpt>
      <trkpt lat="41.66605167" lon="-4.745975">
        <ele>756.0</ele>
        <time>2020-07-19T10:49:04.453Z</time>
      </trkpt>
      <trkpt lat="41.66605167" lon="-4.745975">
        <ele>756.0</ele>
        <time>2020-07-19T10:49:05.453Z</time>
      </trkpt>
      <trkpt lat="41.66605167" lon="-4.74598">
        <ele>756.0</ele>
        <time>2020-07-19T10:49:06.453Z</time>
      </trkpt>
      <trkpt lat="41.66605167" lon="-4.74598833">
        <ele>756.0</ele>
        <time>2020-07-19T10:49:07.453Z</time>
      </trkpt>
      <trkpt lat="41.66605" lon="-4.745995">
        <ele>756.0</ele>
        <time>2020-07-19T10:49:08.453Z</time>
      </trkpt>
      <trkpt lat="41.66604833" lon="-4.74600333">
        <ele>756.0</ele>
        <time>2020-07-19T10:49:09.453Z</time>
      </trkpt>
      <trkpt lat="41.66604667" lon="-4.746015">
        <ele>756.0</ele>
        <time>2020-07-19T10:49:10.453Z</time>
      </trkpt>
      <trkpt lat="41.666045" lon="-4.74602167">
        <ele>756.0</ele>
        <time>2020-07-19T10:49:11.453Z</time>
      </trkpt>
      <trkpt lat="41.66604167" lon="-4.74602833">
        <ele>756.0</ele>
        <time>2020-07-19T10:49:12.453Z</time>
      </trkpt>
      <trkpt lat="41.666035" lon="-4.74603333">
        <ele>756.0</ele>
        <time>2020-07-19T10:49:13.453Z</time>
      </trkpt>
      <trkpt lat="41.66603" lon="-4.74603667">
        <ele>756.0</ele>
        <time>2020-07-19T10:49:14.453Z</time>
      </trkpt>
      <trkpt lat="41.666025" lon="-4.74603667">
        <ele>756.0</ele>
        <time>2020-07-19T10:49:15.453Z</time>
      </trkpt>
      <trkpt lat="41.66602333" lon="-4.74603833">
        <ele>756.0</ele>
        <time>2020-07-19T10:49:16.453Z</time>
      </trkpt>
      <trkpt lat="41.66602" lon="-4.74604167">
        <ele>756.0</ele>
        <time>2020-07-19T10:49:17.453Z</time>
      </trkpt>
      <trkpt lat="41.66601667" lon="-4.74604333">
        <ele>756.0</ele>
        <time>2020-07-19T10:49:18.453Z</time>
      </trkpt>
      <trkpt lat="41.66601167" lon="-4.74604667">
        <ele>756.0</ele>
        <time>2020-07-19T10:49:19.453Z</time>
      </trkpt>
      <trkpt lat="41.66600833" lon="-4.74605167">
        <ele>756.0</ele>
        <time>2020-07-19T10:49:20.453Z</time>
      </trkpt>
      <trkpt lat="41.66600667" lon="-4.746055">
        <ele>756.0</ele>
        <time>2020-07-19T10:49:21.453Z</time>
      </trkpt>
      <trkpt lat="41.666005" lon="-4.74605667">
        <ele>757.0</ele>
        <time>2020-07-19T10:49:22.453Z</time>
      </trkpt>
      <trkpt lat="41.66600167" lon="-4.74606">
        <ele>757.0</ele>
        <time>2020-07-19T10:49:23.453Z</time>
      </trkpt>
      <trkpt lat="41.665995" lon="-4.74606333">
        <ele>757.0</ele>
        <time>2020-07-19T10:49:24.453Z</time>
      </trkpt>
      <trkpt lat="41.66599167" lon="-4.74606333">
        <ele>757.0</ele>
        <time>2020-07-19T10:49:25.453Z</time>
      </trkpt>
      <trkpt lat="41.66598833" lon="-4.74606333">
        <ele>757.0</ele>
        <time>2020-07-19T10:49:26.453Z</time>
      </trkpt>
      <trkpt lat="41.665985" lon="-4.74607167">
        <ele>757.0</ele>
        <time>2020-07-19T10:49:27.453Z</time>
      </trkpt>
      <trkpt lat="41.66598167" lon="-4.74608">
        <ele>756.0</ele>
        <time>2020-07-19T10:49:28.453Z</time>
      </trkpt>
      <trkpt lat="41.66598" lon="-4.74609">
        <ele>756.0</ele>
        <time>2020-07-19T10:49:29.453Z</time>
      </trkpt>
      <trkpt lat="41.66598" lon="-4.74609667">
        <ele>756.0</ele>
        <time>2020-07-19T10:49:30.453Z</time>
      </trkpt>
      <trkpt lat="41.66597833" lon="-4.74609833">
        <ele>756.0</ele>
        <time>2020-07-19T10:49:31.453Z</time>
      </trkpt>
      <trkpt lat="41.66597833" lon="-4.74609833">
        <ele>756.0</ele>
        <time>2020-07-19T10:49:32.453Z</time>
      </trkpt>
      <trkpt lat="41.66598" lon="-4.74610167">
        <ele>756.0</ele>
        <time>2020-07-19T10:49:33.453Z</time>
      </trkpt>
      <trkpt lat="41.66598" lon="-4.74610167">
        <ele>756.0</ele>
        <time>2020-07-19T10:49:34.453Z</time>
      </trkpt>
      <trkpt lat="41.66597667" lon="-4.74610167">
        <ele>756.0</ele>
        <time>2020-07-19T10:49:35.453Z</time>
      </trkpt>
      <trkpt lat="41.66597833" lon="-4.7461">
        <ele>756.0</ele>
        <time>2020-07-19T10:49:36.453Z</time>
      </trkpt>
      <trkpt lat="41.66597833" lon="-4.7461">
        <ele>756.0</ele>
        <time>2020-07-19T10:49:37.453Z</time>
      </trkpt>
      <trkpt lat="41.66597833" lon="-4.7461">
        <ele>756.0</ele>
        <time>2020-07-19T10:49:38.453Z</time>
      </trkpt>
      <trkpt lat="41.66598" lon="-4.74610167">
        <ele>756.0</ele>
        <time>2020-07-19T10:49:39.453Z</time>
      </trkpt>
      <trkpt lat="41.66598" lon="-4.746105">
        <ele>756.0</ele>
        <time>2020-07-19T10:49:40.453Z</time>
      </trkpt>
      <trkpt lat="41.66598167" lon="-4.74611">
        <ele>756.0</ele>
        <time>2020-07-19T10:49:41.453Z</time>
      </trkpt>
      <trkpt lat="41.66598167" lon="-4.74611667">
        <ele>756.0</ele>
        <time>2020-07-19T10:49:42.453Z</time>
      </trkpt>
      <trkpt lat="41.66598" lon="-4.74612833">
        <ele>756.0</ele>
        <time>2020-07-19T10:49:43.453Z</time>
      </trkpt>
      <trkpt lat="41.66597667" lon="-4.74614667">
        <ele>756.0</ele>
        <time>2020-07-19T10:49:44.453Z</time>
      </trkpt>
      <trkpt lat="41.665975" lon="-4.746165">
        <ele>756.0</ele>
        <time>2020-07-19T10:49:45.453Z</time>
      </trkpt>
      <trkpt lat="41.66597" lon="-4.74618667">
        <ele>756.0</ele>
        <time>2020-07-19T10:49:46.453Z</time>
      </trkpt>
      <trkpt lat="41.66596667" lon="-4.74621">
        <ele>756.0</ele>
        <time>2020-07-19T10:49:47.453Z</time>
      </trkpt>
      <trkpt lat="41.66596667" lon="-4.74623333">
        <ele>756.0</ele>
        <time>2020-07-19T10:49:48.453Z</time>
      </trkpt>
      <trkpt lat="41.66597" lon="-4.74625167">
        <ele>756.0</ele>
        <time>2020-07-19T10:49:49.453Z</time>
      </trkpt>
      <trkpt lat="41.66597333" lon="-4.74626667">
        <ele>756.0</ele>
        <time>2020-07-19T10:49:50.453Z</time>
      </trkpt>
      <trkpt lat="41.66597667" lon="-4.74628">
        <ele>756.0</ele>
        <time>2020-07-19T10:49:51.453Z</time>
      </trkpt>
      <trkpt lat="41.66597667" lon="-4.746295">
        <ele>756.0</ele>
        <time>2020-07-19T10:49:52.453Z</time>
      </trkpt>
      <trkpt lat="41.66597667" lon="-4.746315">
        <ele>756.0</ele>
        <time>2020-07-19T10:49:53.453Z</time>
      </trkpt>
      <trkpt lat="41.66597833" lon="-4.74633333">
        <ele>756.0</ele>
        <time>2020-07-19T10:49:54.453Z</time>
      </trkpt>
      <trkpt lat="41.66598" lon="-4.74634833">
        <ele>756.0</ele>
        <time>2020-07-19T10:49:55.453Z</time>
      </trkpt>
      <trkpt lat="41.66598167" lon="-4.746365">
        <ele>756.0</ele>
        <time>2020-07-19T10:49:56.453Z</time>
      </trkpt>
      <trkpt lat="41.66598167" lon="-4.74638">
        <ele>756.0</ele>
        <time>2020-07-19T10:49:57.453Z</time>
      </trkpt>
      <trkpt lat="41.66598167" lon="-4.74639833">
        <ele>756.0</ele>
        <time>2020-07-19T10:49:58.453Z</time>
      </trkpt>
      <trkpt lat="41.66598" lon="-4.74641333">
        <ele>756.0</ele>
        <time>2020-07-19T10:49:59.453Z</time>
      </trkpt>
      <trkpt lat="41.66597667" lon="-4.74643">
        <ele>756.0</ele>
        <time>2020-07-19T10:50:00.453Z</time>
      </trkpt>
      <trkpt lat="41.66597" lon="-4.74645">
        <ele>756.0</ele>
        <time>2020-07-19T10:50:01.453Z</time>
      </trkpt>
      <trkpt lat="41.66596" lon="-4.74647167">
        <ele>756.0</ele>
        <time>2020-07-19T10:50:02.453Z</time>
      </trkpt>
      <trkpt lat="41.66595333" lon="-4.74649667">
        <ele>756.0</ele>
        <time>2020-07-19T10:50:03.453Z</time>
      </trkpt>
      <trkpt lat="41.66594667" lon="-4.74652">
        <ele>756.0</ele>
        <time>2020-07-19T10:50:04.453Z</time>
      </trkpt>
      <trkpt lat="41.66594167" lon="-4.74654333">
        <ele>756.0</ele>
        <time>2020-07-19T10:50:05.453Z</time>
      </trkpt>
      <trkpt lat="41.665935" lon="-4.74656667">
        <ele>755.0</ele>
        <time>2020-07-19T10:50:06.453Z</time>
      </trkpt>
      <trkpt lat="41.66592833" lon="-4.74658333">
        <ele>755.0</ele>
        <time>2020-07-19T10:50:07.453Z</time>
      </trkpt>
      <trkpt lat="41.66592167" lon="-4.7466">
        <ele>755.0</ele>
        <time>2020-07-19T10:50:08.453Z</time>
      </trkpt>
      <trkpt lat="41.665915" lon="-4.74661667">
        <ele>755.0</ele>
        <time>2020-07-19T10:50:09.453Z</time>
      </trkpt>
      <trkpt lat="41.66590667" lon="-4.74664">
        <ele>755.0</ele>
        <time>2020-07-19T10:50:10.453Z</time>
      </trkpt>
      <trkpt lat="41.6659" lon="-4.74666167">
        <ele>755.0</ele>
        <time>2020-07-19T10:50:11.453Z</time>
      </trkpt>
      <trkpt lat="41.66589167" lon="-4.74668833">
        <ele>755.0</ele>
        <time>2020-07-19T10:50:12.453Z</time>
      </trkpt>
      <trkpt lat="41.66588833" lon="-4.74670833">
        <ele>755.0</ele>
        <time>2020-07-19T10:50:13.453Z</time>
      </trkpt>
      <trkpt lat="41.66588833" lon="-4.74672667">
        <ele>755.0</ele>
        <time>2020-07-19T10:50:14.453Z</time>
      </trkpt>
      <trkpt lat="41.66588667" lon="-4.74675">
        <ele>755.0</ele>
        <time>2020-07-19T10:50:15.453Z</time>
      </trkpt>
      <trkpt lat="41.665885" lon="-4.74677667">
        <ele>755.0</ele>
        <time>2020-07-19T10:50:16.453Z</time>
      </trkpt>
      <trkpt lat="41.66587833" lon="-4.74679833">
        <ele>754.0</ele>
        <time>2020-07-19T10:50:17.453Z</time>
      </trkpt>
      <trkpt lat="41.665865" lon="-4.74681167">
        <ele>754.0</ele>
        <time>2020-07-19T10:50:18.453Z</time>
      </trkpt>
      <trkpt lat="41.66584833" lon="-4.74682333">
        <ele>754.0</ele>
        <time>2020-07-19T10:50:19.453Z</time>
      </trkpt>
      <trkpt lat="41.66582833" lon="-4.74683333">
        <ele>754.0</ele>
        <time>2020-07-19T10:50:20.453Z</time>
      </trkpt>
      <trkpt lat="41.665805" lon="-4.74683833">
        <ele>754.0</ele>
        <time>2020-07-19T10:50:21.453Z</time>
      </trkpt>
      <trkpt lat="41.66578" lon="-4.74684333">
        <ele>753.0</ele>
        <time>2020-07-19T10:50:22.453Z</time>
      </trkpt>
      <trkpt lat="41.66575833" lon="-4.74684833">
        <ele>753.0</ele>
        <time>2020-07-19T10:50:23.453Z</time>
      </trkpt>
      <trkpt lat="41.66574" lon="-4.74685167">
        <ele>753.0</ele>
        <time>2020-07-19T10:50:24.453Z</time>
      </trkpt>
      <trkpt lat="41.66571833" lon="-4.74685167">
        <ele>753.0</ele>
        <time>2020-07-19T10:50:25.453Z</time>
      </trkpt>
      <trkpt lat="41.66569167" lon="-4.74685167">
        <ele>753.0</ele>
        <time>2020-07-19T10:50:26.453Z</time>
      </trkpt>
      <trkpt lat="41.66566" lon="-4.74685333">
        <ele>753.0</ele>
        <time>2020-07-19T10:50:27.453Z</time>
      </trkpt>
      <trkpt lat="41.66562667" lon="-4.746855">
        <ele>751.0</ele>
        <time>2020-07-19T10:50:28.453Z</time>
      </trkpt>
      <trkpt lat="41.66559" lon="-4.74685833">
        <ele>751.0</ele>
        <time>2020-07-19T10:50:29.453Z</time>
      </trkpt>
      <trkpt lat="41.665555" lon="-4.74686333">
        <ele>750.0</ele>
        <time>2020-07-19T10:50:30.453Z</time>
      </trkpt>
      <trkpt lat="41.66552167" lon="-4.74686833">
        <ele>750.0</ele>
        <time>2020-07-19T10:50:31.453Z</time>
      </trkpt>
      <trkpt lat="41.66549167" lon="-4.74687167">
        <ele>750.0</ele>
        <time>2020-07-19T10:50:32.453Z</time>
      </trkpt>
      <trkpt lat="41.665465" lon="-4.74687">
        <ele>750.0</ele>
        <time>2020-07-19T10:50:33.453Z</time>
      </trkpt>
      <trkpt lat="41.66544167" lon="-4.74687167">
        <ele>749.0</ele>
        <time>2020-07-19T10:50:34.453Z</time>
      </trkpt>
      <trkpt lat="41.665415" lon="-4.74687167">
        <ele>748.0</ele>
        <time>2020-07-19T10:50:35.453Z</time>
      </trkpt>
      <trkpt lat="41.66538333" lon="-4.746875">
        <ele>748.0</ele>
        <time>2020-07-19T10:50:36.453Z</time>
      </trkpt>
      <trkpt lat="41.66535" lon="-4.746875">
        <ele>748.0</ele>
        <time>2020-07-19T10:50:37.453Z</time>
      </trkpt>
      <trkpt lat="41.66531667" lon="-4.74686667">
        <ele>748.0</ele>
        <time>2020-07-19T10:50:38.453Z</time>
      </trkpt>
      <trkpt lat="41.66528667" lon="-4.74685167">
        <ele>748.0</ele>
        <time>2020-07-19T10:50:39.453Z</time>
      </trkpt>
      <trkpt lat="41.66525667" lon="-4.746845">
        <ele>746.0</ele>
        <time>2020-07-19T10:50:40.453Z</time>
      </trkpt>
      <trkpt lat="41.66522167" lon="-4.74684667">
        <ele>746.0</ele>
        <time>2020-07-19T10:50:41.453Z</time>
      </trkpt>
      <trkpt lat="41.66518333" lon="-4.74684167">
        <ele>746.0</ele>
        <time>2020-07-19T10:50:42.453Z</time>
      </trkpt>
      <trkpt lat="41.665145" lon="-4.74683667">
        <ele>745.0</ele>
        <time>2020-07-19T10:50:43.453Z</time>
      </trkpt>
      <trkpt lat="41.66510667" lon="-4.74683333">
        <ele>745.0</ele>
        <time>2020-07-19T10:50:44.453Z</time>
      </trkpt>
      <trkpt lat="41.66507" lon="-4.74683333">
        <ele>744.0</ele>
        <time>2020-07-19T10:50:45.453Z</time>
      </trkpt>
      <trkpt lat="41.66503167" lon="-4.74683667">
        <ele>744.0</ele>
        <time>2020-07-19T10:50:46.453Z</time>
      </trkpt>
      <trkpt lat="41.66499333" lon="-4.74683833">
        <ele>744.0</ele>
        <time>2020-07-19T10:50:47.453Z</time>
      </trkpt>
      <trkpt lat="41.66495333" lon="-4.74684833">
        <ele>743.0</ele>
        <time>2020-07-19T10:50:48.453Z</time>
      </trkpt>
      <trkpt lat="41.66491333" lon="-4.746855">
        <ele>743.0</ele>
        <time>2020-07-19T10:50:49.453Z</time>
      </trkpt>
      <trkpt lat="41.66487" lon="-4.74686167">
        <ele>742.0</ele>
        <time>2020-07-19T10:50:50.453Z</time>
      </trkpt>
      <trkpt lat="41.66482167" lon="-4.746865">
        <ele>742.0</ele>
        <time>2020-07-19T10:50:51.453Z</time>
      </trkpt>
      <trkpt lat="41.664775" lon="-4.746865">
        <ele>742.0</ele>
        <time>2020-07-19T10:50:52.453Z</time>
      </trkpt>
      <trkpt lat="41.66473" lon="-4.74686">
        <ele>742.0</ele>
        <time>2020-07-19T10:50:53.453Z</time>
      </trkpt>
      <trkpt lat="41.66469" lon="-4.74685167">
        <ele>742.0</ele>
        <time>2020-07-19T10:50:54.453Z</time>
      </trkpt>
      <trkpt lat="41.66464833" lon="-4.746845">
        <ele>742.0</ele>
        <time>2020-07-19T10:50:55.453Z</time>
      </trkpt>
      <trkpt lat="41.66460833" lon="-4.74683833">
        <ele>742.0</ele>
        <time>2020-07-19T10:50:56.453Z</time>
      </trkpt>
      <trkpt lat="41.66456833" lon="-4.74683">
        <ele>738.0</ele>
        <time>2020-07-19T10:50:57.453Z</time>
      </trkpt>
      <trkpt lat="41.66453" lon="-4.74681833">
        <ele>738.0</ele>
        <time>2020-07-19T10:50:58.453Z</time>
      </trkpt>
      <trkpt lat="41.66449" lon="-4.74680333">
        <ele>737.0</ele>
        <time>2020-07-19T10:50:59.453Z</time>
      </trkpt>
      <trkpt lat="41.66445167" lon="-4.746785">
        <ele>737.0</ele>
        <time>2020-07-19T10:51:00.453Z</time>
      </trkpt>
      <trkpt lat="41.66441167" lon="-4.74676667">
        <ele>737.0</ele>
        <time>2020-07-19T10:51:01.453Z</time>
      </trkpt>
      <trkpt lat="41.66436833" lon="-4.74674667">
        <ele>736.0</ele>
        <time>2020-07-19T10:51:02.453Z</time>
      </trkpt>
      <trkpt lat="41.66432" lon="-4.74672333">
        <ele>736.0</ele>
        <time>2020-07-19T10:51:03.453Z</time>
      </trkpt>
      <trkpt lat="41.66427" lon="-4.74669333">
        <ele>735.0</ele>
        <time>2020-07-19T10:51:04.453Z</time>
      </trkpt>
      <trkpt lat="41.66421333" lon="-4.74665833">
        <ele>735.0</ele>
        <time>2020-07-19T10:51:05.453Z</time>
      </trkpt>
      <trkpt lat="41.664155" lon="-4.74661667">
        <ele>735.0</ele>
        <time>2020-07-19T10:51:06.453Z</time>
      </trkpt>
      <trkpt lat="41.66409167" lon="-4.746575">
        <ele>734.0</ele>
        <time>2020-07-19T10:51:07.453Z</time>
      </trkpt>
      <trkpt lat="41.66403167" lon="-4.74652833">
        <ele>734.0</ele>
        <time>2020-07-19T10:51:08.453Z</time>
      </trkpt>
      <trkpt lat="41.66397333" lon="-4.74648167">
        <ele>734.0</ele>
        <time>2020-07-19T10:51:09.453Z</time>
      </trkpt>
      <trkpt lat="41.66391667" lon="-4.74643333">
        <ele>734.0</ele>
        <time>2020-07-19T10:51:10.453Z</time>
      </trkpt>
      <trkpt lat="41.66386" lon="-4.74638667">
        <ele>734.0</ele>
        <time>2020-07-19T10:51:11.453Z</time>
      </trkpt>
      <trkpt lat="41.66380167" lon="-4.74634167">
        <ele>734.0</ele>
        <time>2020-07-19T10:51:12.453Z</time>
      </trkpt>
      <trkpt lat="41.66374333" lon="-4.74629667">
        <ele>731.0</ele>
        <time>2020-07-19T10:51:13.453Z</time>
      </trkpt>
      <trkpt lat="41.66368667" lon="-4.74624833">
        <ele>731.0</ele>
        <time>2020-07-19T10:51:14.453Z</time>
      </trkpt>
      <trkpt lat="41.66363" lon="-4.74620167">
        <ele>731.0</ele>
        <time>2020-07-19T10:51:15.453Z</time>
      </trkpt>
      <trkpt lat="41.663575" lon="-4.74615167">
        <ele>729.0</ele>
        <time>2020-07-19T10:51:16.453Z</time>
      </trkpt>
      <trkpt lat="41.66352167" lon="-4.74610667">
        <ele>729.0</ele>
        <time>2020-07-19T10:51:17.453Z</time>
      </trkpt>
      <trkpt lat="41.66347167" lon="-4.74606167">
        <ele>729.0</ele>
        <time>2020-07-19T10:51:18.453Z</time>
      </trkpt>
      <trkpt lat="41.66342333" lon="-4.74601833">
        <ele>729.0</ele>
        <time>2020-07-19T10:51:19.453Z</time>
      </trkpt>
      <trkpt lat="41.66337833" lon="-4.745975">
        <ele>729.0</ele>
        <time>2020-07-19T10:51:20.453Z</time>
      </trkpt>
      <trkpt lat="41.66333" lon="-4.74593333">
        <ele>727.0</ele>
        <time>2020-07-19T10:51:21.453Z</time>
      </trkpt>
      <trkpt lat="41.66328167" lon="-4.74589">
        <ele>727.0</ele>
        <time>2020-07-19T10:51:22.453Z</time>
      </trkpt>
      <trkpt lat="41.66323" lon="-4.74584833">
        <ele>727.0</ele>
        <time>2020-07-19T10:51:23.453Z</time>
      </trkpt>
      <trkpt lat="41.66317833" lon="-4.745805">
        <ele>727.0</ele>
        <time>2020-07-19T10:51:24.453Z</time>
      </trkpt>
      <trkpt lat="41.66312333" lon="-4.74576333">
        <ele>727.0</ele>
        <time>2020-07-19T10:51:25.453Z</time>
      </trkpt>
      <trkpt lat="41.663065" lon="-4.74573167">
        <ele>727.0</ele>
        <time>2020-07-19T10:51:26.453Z</time>
      </trkpt>
      <trkpt lat="41.66300667" lon="-4.7457">
        <ele>724.0</ele>
        <time>2020-07-19T10:51:27.453Z</time>
      </trkpt>
      <trkpt lat="41.662945" lon="-4.74566667">
        <ele>724.0</ele>
        <time>2020-07-19T10:51:28.453Z</time>
      </trkpt>
      <trkpt lat="41.66288167" lon="-4.74563167">
        <ele>724.0</ele>
        <time>2020-07-19T10:51:29.453Z</time>
      </trkpt>
      <trkpt lat="41.66281667" lon="-4.74559667">
        <ele>723.0</ele>
        <time>2020-07-19T10:51:30.453Z</time>
      </trkpt>
      <trkpt lat="41.66275167" lon="-4.74556">
        <ele>723.0</ele>
        <time>2020-07-19T10:51:31.453Z</time>
      </trkpt>
      <trkpt lat="41.66268667" lon="-4.74552167">
        <ele>722.0</ele>
        <time>2020-07-19T10:51:32.453Z</time>
      </trkpt>
      <trkpt lat="41.66262167" lon="-4.745485">
        <ele>722.0</ele>
        <time>2020-07-19T10:51:33.453Z</time>
      </trkpt>
      <trkpt lat="41.66255833" lon="-4.74544667">
        <ele>722.0</ele>
        <time>2020-07-19T10:51:34.453Z</time>
      </trkpt>
      <trkpt lat="41.66249333" lon="-4.74540833">
        <ele>721.0</ele>
        <time>2020-07-19T10:51:35.453Z</time>
      </trkpt>
      <trkpt lat="41.66242667" lon="-4.74536833">
        <ele>720.0</ele>
        <time>2020-07-19T10:51:36.453Z</time>
      </trkpt>
      <trkpt lat="41.66236" lon="-4.74532667">
        <ele>720.0</ele>
        <time>2020-07-19T10:51:37.453Z</time>
      </trkpt>
      <trkpt lat="41.66229333" lon="-4.74528333">
        <ele>719.0</ele>
        <time>2020-07-19T10:51:38.453Z</time>
      </trkpt>
      <trkpt lat="41.662225" lon="-4.74523667">
        <ele>719.0</ele>
        <time>2020-07-19T10:51:39.453Z</time>
      </trkpt>
      <trkpt lat="41.66215667" lon="-4.74519167">
        <ele>718.0</ele>
        <time>2020-07-19T10:51:40.453Z</time>
      </trkpt>
      <trkpt lat="41.66209" lon="-4.74514833">
        <ele>717.0</ele>
        <time>2020-07-19T10:51:41.453Z</time>
      </trkpt>
      <trkpt lat="41.66202833" lon="-4.74510833">
        <ele>717.0</ele>
        <time>2020-07-19T10:51:42.453Z</time>
      </trkpt>
      <trkpt lat="41.66197167" lon="-4.74507333">
        <ele>717.0</ele>
        <time>2020-07-19T10:51:43.453Z</time>
      </trkpt>
      <trkpt lat="41.66192167" lon="-4.74504833">
        <ele>716.0</ele>
        <time>2020-07-19T10:51:44.453Z</time>
      </trkpt>
      <trkpt lat="41.66188167" lon="-4.74502667">
        <ele>716.0</ele>
        <time>2020-07-19T10:51:45.453Z</time>
      </trkpt>
      <trkpt lat="41.66184833" lon="-4.745005">
        <ele>715.0</ele>
        <time>2020-07-19T10:51:46.453Z</time>
      </trkpt>
      <trkpt lat="41.66181667" lon="-4.74498833">
        <ele>715.0</ele>
        <time>2020-07-19T10:51:47.453Z</time>
      </trkpt>
      <trkpt lat="41.66178667" lon="-4.744965">
        <ele>714.0</ele>
        <time>2020-07-19T10:51:48.453Z</time>
      </trkpt>
      <trkpt lat="41.66176167" lon="-4.74493">
        <ele>714.0</ele>
        <time>2020-07-19T10:51:49.453Z</time>
      </trkpt>
      <trkpt lat="41.66174167" lon="-4.74488333">
        <ele>714.0</ele>
        <time>2020-07-19T10:51:50.453Z</time>
      </trkpt>
      <trkpt lat="41.66172167" lon="-4.74483167">
        <ele>713.0</ele>
        <time>2020-07-19T10:51:51.453Z</time>
      </trkpt>
      <trkpt lat="41.6617" lon="-4.74478">
        <ele>713.0</ele>
        <time>2020-07-19T10:51:52.453Z</time>
      </trkpt>
      <trkpt lat="41.661675" lon="-4.744725">
        <ele>713.0</ele>
        <time>2020-07-19T10:51:53.453Z</time>
      </trkpt>
      <trkpt lat="41.66165333" lon="-4.74467">
        <ele>713.0</ele>
        <time>2020-07-19T10:51:54.453Z</time>
      </trkpt>
      <trkpt lat="41.66163333" lon="-4.74461167">
        <ele>712.0</ele>
        <time>2020-07-19T10:51:55.453Z</time>
      </trkpt>
      <trkpt lat="41.66161" lon="-4.744555">
        <ele>712.0</ele>
        <time>2020-07-19T10:51:56.453Z</time>
      </trkpt>
      <trkpt lat="41.66158667" lon="-4.74449833">
        <ele>712.0</ele>
        <time>2020-07-19T10:51:57.453Z</time>
      </trkpt>
      <trkpt lat="41.66156667" lon="-4.74444">
        <ele>712.0</ele>
        <time>2020-07-19T10:51:58.453Z</time>
      </trkpt>
      <trkpt lat="41.66154167" lon="-4.74438333">
        <ele>712.0</ele>
        <time>2020-07-19T10:51:59.453Z</time>
      </trkpt>
      <trkpt lat="41.66151833" lon="-4.74432833">
        <ele>711.0</ele>
        <time>2020-07-19T10:52:00.453Z</time>
      </trkpt>
      <trkpt lat="41.661495" lon="-4.74427167">
        <ele>711.0</ele>
        <time>2020-07-19T10:52:01.453Z</time>
      </trkpt>
      <trkpt lat="41.661475" lon="-4.74421167">
        <ele>711.0</ele>
        <time>2020-07-19T10:52:02.453Z</time>
      </trkpt>
      <trkpt lat="41.661455" lon="-4.74414833">
        <ele>711.0</ele>
        <time>2020-07-19T10:52:03.453Z</time>
      </trkpt>
      <trkpt lat="41.66143333" lon="-4.74409167">
        <ele>711.0</ele>
        <time>2020-07-19T10:52:04.453Z</time>
      </trkpt>
      <trkpt lat="41.66141167" lon="-4.74403833">
        <ele>711.0</ele>
        <time>2020-07-19T10:52:05.453Z</time>
      </trkpt>
      <trkpt lat="41.66139" lon="-4.74398333">
        <ele>711.0</ele>
        <time>2020-07-19T10:52:06.453Z</time>
      </trkpt>
      <trkpt lat="41.66137" lon="-4.74393">
        <ele>711.0</ele>
        <time>2020-07-19T10:52:07.453Z</time>
      </trkpt>
      <trkpt lat="41.66135" lon="-4.74388">
        <ele>711.0</ele>
        <time>2020-07-19T10:52:08.453Z</time>
      </trkpt>
      <trkpt lat="41.66133333" lon="-4.74382667">
        <ele>711.0</ele>
        <time>2020-07-19T10:52:09.453Z</time>
      </trkpt>
      <trkpt lat="41.66131667" lon="-4.74377333">
        <ele>711.0</ele>
        <time>2020-07-19T10:52:10.453Z</time>
      </trkpt>
      <trkpt lat="41.661295" lon="-4.743725">
        <ele>711.0</ele>
        <time>2020-07-19T10:52:11.453Z</time>
      </trkpt>
      <trkpt lat="41.66127833" lon="-4.74368">
        <ele>710.0</ele>
        <time>2020-07-19T10:52:12.453Z</time>
      </trkpt>
      <trkpt lat="41.66126667" lon="-4.74363167">
        <ele>710.0</ele>
        <time>2020-07-19T10:52:13.453Z</time>
      </trkpt>
      <trkpt lat="41.66125833" lon="-4.74358">
        <ele>710.0</ele>
        <time>2020-07-19T10:52:14.453Z</time>
      </trkpt>
      <trkpt lat="41.66124667" lon="-4.74352667">
        <ele>710.0</ele>
        <time>2020-07-19T10:52:15.453Z</time>
      </trkpt>
      <trkpt lat="41.661235" lon="-4.743475">
        <ele>710.0</ele>
        <time>2020-07-19T10:52:16.453Z</time>
      </trkpt>
      <trkpt lat="41.66122667" lon="-4.74342">
        <ele>710.0</ele>
        <time>2020-07-19T10:52:17.453Z</time>
      </trkpt>
      <trkpt lat="41.661225" lon="-4.74336333">
        <ele>710.0</ele>
        <time>2020-07-19T10:52:18.453Z</time>
      </trkpt>
      <trkpt lat="41.66122333" lon="-4.74330667">
        <ele>710.0</ele>
        <time>2020-07-19T10:52:19.453Z</time>
      </trkpt>
      <trkpt lat="41.66122" lon="-4.74324833">
        <ele>710.0</ele>
        <time>2020-07-19T10:52:20.453Z</time>
      </trkpt>
      <trkpt lat="41.66121667" lon="-4.74319167">
        <ele>710.0</ele>
        <time>2020-07-19T10:52:21.453Z</time>
      </trkpt>
      <trkpt lat="41.66121667" lon="-4.74313667">
        <ele>710.0</ele>
        <time>2020-07-19T10:52:22.453Z</time>
      </trkpt>
      <trkpt lat="41.66121833" lon="-4.74308">
        <ele>710.0</ele>
        <time>2020-07-19T10:52:23.453Z</time>
      </trkpt>
      <trkpt lat="41.66122" lon="-4.743025">
        <ele>710.0</ele>
        <time>2020-07-19T10:52:24.453Z</time>
      </trkpt>
      <trkpt lat="41.66122" lon="-4.74296833">
        <ele>710.0</ele>
        <time>2020-07-19T10:52:25.453Z</time>
      </trkpt>
      <trkpt lat="41.66122" lon="-4.74291333">
        <ele>710.0</ele>
        <time>2020-07-19T10:52:26.453Z</time>
      </trkpt>
      <trkpt lat="41.66122167" lon="-4.74285667">
        <ele>710.0</ele>
        <time>2020-07-19T10:52:27.453Z</time>
      </trkpt>
      <trkpt lat="41.66122" lon="-4.74281167">
        <ele>710.0</ele>
        <time>2020-07-19T10:52:28.453Z</time>
      </trkpt>
      <trkpt lat="41.661215" lon="-4.74277667">
        <ele>710.0</ele>
        <time>2020-07-19T10:52:29.453Z</time>
      </trkpt>
      <trkpt lat="41.66120333" lon="-4.74275">
        <ele>710.0</ele>
        <time>2020-07-19T10:52:30.453Z</time>
      </trkpt>
      <trkpt lat="41.66118333" lon="-4.74272667">
        <ele>710.0</ele>
        <time>2020-07-19T10:52:31.453Z</time>
      </trkpt>
      <trkpt lat="41.661155" lon="-4.74271167">
        <ele>710.0</ele>
        <time>2020-07-19T10:52:32.453Z</time>
      </trkpt>
      <trkpt lat="41.66112167" lon="-4.74270667">
        <ele>710.0</ele>
        <time>2020-07-19T10:52:33.453Z</time>
      </trkpt>
      <trkpt lat="41.66108167" lon="-4.74271">
        <ele>709.0</ele>
        <time>2020-07-19T10:52:34.453Z</time>
      </trkpt>
      <trkpt lat="41.66104333" lon="-4.74271667">
        <ele>709.0</ele>
        <time>2020-07-19T10:52:35.453Z</time>
      </trkpt>
      <trkpt lat="41.66100167" lon="-4.74272">
        <ele>709.0</ele>
        <time>2020-07-19T10:52:36.453Z</time>
      </trkpt>
      <trkpt lat="41.66095833" lon="-4.74271333">
        <ele>709.0</ele>
        <time>2020-07-19T10:52:37.453Z</time>
      </trkpt>
      <trkpt lat="41.66091667" lon="-4.74270167">
        <ele>709.0</ele>
        <time>2020-07-19T10:52:38.453Z</time>
      </trkpt>
      <trkpt lat="41.66087667" lon="-4.74268167">
        <ele>709.0</ele>
        <time>2020-07-19T10:52:39.453Z</time>
      </trkpt>
      <trkpt lat="41.66083833" lon="-4.74264833">
        <ele>708.0</ele>
        <time>2020-07-19T10:52:40.453Z</time>
      </trkpt>
      <trkpt lat="41.6608" lon="-4.74261">
        <ele>708.0</ele>
        <time>2020-07-19T10:52:41.453Z</time>
      </trkpt>
      <trkpt lat="41.66076333" lon="-4.74256667">
        <ele>708.0</ele>
        <time>2020-07-19T10:52:42.453Z</time>
      </trkpt>
      <trkpt lat="41.66073" lon="-4.74252167">
        <ele>708.0</ele>
        <time>2020-07-19T10:52:43.453Z</time>
      </trkpt>
      <trkpt lat="41.66069667" lon="-4.74246667">
        <ele>708.0</ele>
        <time>2020-07-19T10:52:44.453Z</time>
      </trkpt>
      <trkpt lat="41.660665" lon="-4.74240333">
        <ele>708.0</ele>
        <time>2020-07-19T10:52:45.453Z</time>
      </trkpt>
      <trkpt lat="41.66063833" lon="-4.742335">
        <ele>708.0</ele>
        <time>2020-07-19T10:52:46.453Z</time>
      </trkpt>
      <trkpt lat="41.66062" lon="-4.74226167">
        <ele>708.0</ele>
        <time>2020-07-19T10:52:47.453Z</time>
      </trkpt>
      <trkpt lat="41.66060667" lon="-4.742185">
        <ele>708.0</ele>
        <time>2020-07-19T10:52:48.453Z</time>
      </trkpt>
      <trkpt lat="41.66059333" lon="-4.74210667">
        <ele>708.0</ele>
        <time>2020-07-19T10:52:49.453Z</time>
      </trkpt>
      <trkpt lat="41.66058167" lon="-4.74203">
        <ele>708.0</ele>
        <time>2020-07-19T10:52:50.453Z</time>
      </trkpt>
      <trkpt lat="41.66057333" lon="-4.74195">
        <ele>709.0</ele>
        <time>2020-07-19T10:52:51.453Z</time>
      </trkpt>
      <trkpt lat="41.660565" lon="-4.74186833">
        <ele>709.0</ele>
        <time>2020-07-19T10:52:52.453Z</time>
      </trkpt>
      <trkpt lat="41.66055833" lon="-4.74178667">
        <ele>709.0</ele>
        <time>2020-07-19T10:52:53.453Z</time>
      </trkpt>
      <trkpt lat="41.66055333" lon="-4.74170667">
        <ele>709.0</ele>
        <time>2020-07-19T10:52:54.453Z</time>
      </trkpt>
      <trkpt lat="41.66055167" lon="-4.74163">
        <ele>709.0</ele>
        <time>2020-07-19T10:52:55.453Z</time>
      </trkpt>
      <trkpt lat="41.66055" lon="-4.74155">
        <ele>709.0</ele>
        <time>2020-07-19T10:52:56.453Z</time>
      </trkpt>
      <trkpt lat="41.66055167" lon="-4.741465">
        <ele>709.0</ele>
        <time>2020-07-19T10:52:57.453Z</time>
      </trkpt>
      <trkpt lat="41.66054833" lon="-4.74137833">
        <ele>710.0</ele>
        <time>2020-07-19T10:52:58.453Z</time>
      </trkpt>
      <trkpt lat="41.66055167" lon="-4.7413">
        <ele>710.0</ele>
        <time>2020-07-19T10:52:59.453Z</time>
      </trkpt>
      <trkpt lat="41.660565" lon="-4.74121167">
        <ele>710.0</ele>
        <time>2020-07-19T10:53:00.453Z</time>
      </trkpt>
      <trkpt lat="41.66057667" lon="-4.74112333">
        <ele>710.0</ele>
        <time>2020-07-19T10:53:01.453Z</time>
      </trkpt>
      <trkpt lat="41.66058167" lon="-4.74103833">
        <ele>710.0</ele>
        <time>2020-07-19T10:53:02.453Z</time>
      </trkpt>
      <trkpt lat="41.660575" lon="-4.74095333">
        <ele>710.0</ele>
        <time>2020-07-19T10:53:03.453Z</time>
      </trkpt>
      <trkpt lat="41.66056" lon="-4.74088">
        <ele>710.0</ele>
        <time>2020-07-19T10:53:04.453Z</time>
      </trkpt>
      <trkpt lat="41.66053333" lon="-4.74081667">
        <ele>710.0</ele>
        <time>2020-07-19T10:53:05.453Z</time>
      </trkpt>
      <trkpt lat="41.66048667" lon="-4.740785">
        <ele>710.0</ele>
        <time>2020-07-19T10:53:06.453Z</time>
      </trkpt>
      <trkpt lat="41.66043333" lon="-4.740775">
        <ele>711.0</ele>
        <time>2020-07-19T10:53:07.453Z</time>
      </trkpt>
      <trkpt lat="41.66037833" lon="-4.74077333">
        <ele>711.0</ele>
        <time>2020-07-19T10:53:08.453Z</time>
      </trkpt>
      <trkpt lat="41.66032167" lon="-4.74077">
        <ele>711.0</ele>
        <time>2020-07-19T10:53:09.453Z</time>
      </trkpt>
      <trkpt lat="41.66026333" lon="-4.74077">
        <ele>711.0</ele>
        <time>2020-07-19T10:53:10.453Z</time>
      </trkpt>
      <trkpt lat="41.66020333" lon="-4.74077333">
        <ele>711.0</ele>
        <time>2020-07-19T10:53:11.453Z</time>
      </trkpt>
      <trkpt lat="41.66014667" lon="-4.74077667">
        <ele>711.0</ele>
        <time>2020-07-19T10:53:12.453Z</time>
      </trkpt>
      <trkpt lat="41.66009" lon="-4.74078167">
        <ele>711.0</ele>
        <time>2020-07-19T10:53:13.453Z</time>
      </trkpt>
      <trkpt lat="41.66002833" lon="-4.74078667">
        <ele>711.0</ele>
        <time>2020-07-19T10:53:14.453Z</time>
      </trkpt>
      <trkpt lat="41.65997" lon="-4.74079333">
        <ele>711.0</ele>
        <time>2020-07-19T10:53:15.453Z</time>
      </trkpt>
      <trkpt lat="41.65991333" lon="-4.74080167">
        <ele>711.0</ele>
        <time>2020-07-19T10:53:16.453Z</time>
      </trkpt>
      <trkpt lat="41.65985667" lon="-4.74081833">
        <ele>711.0</ele>
        <time>2020-07-19T10:53:17.453Z</time>
      </trkpt>
      <trkpt lat="41.65980167" lon="-4.74083167">
        <ele>711.0</ele>
        <time>2020-07-19T10:53:18.453Z</time>
      </trkpt>
      <trkpt lat="41.65974167" lon="-4.740845">
        <ele>711.0</ele>
        <time>2020-07-19T10:53:19.453Z</time>
      </trkpt>
      <trkpt lat="41.65968" lon="-4.74085167">
        <ele>710.0</ele>
        <time>2020-07-19T10:53:20.453Z</time>
      </trkpt>
      <trkpt lat="41.65962333" lon="-4.74085167">
        <ele>710.0</ele>
        <time>2020-07-19T10:53:21.453Z</time>
      </trkpt>
      <trkpt lat="41.65956667" lon="-4.74086">
        <ele>710.0</ele>
        <time>2020-07-19T10:53:22.453Z</time>
      </trkpt>
      <trkpt lat="41.65950833" lon="-4.740865">
        <ele>709.0</ele>
        <time>2020-07-19T10:53:23.453Z</time>
      </trkpt>
      <trkpt lat="41.65945167" lon="-4.74086333">
        <ele>709.0</ele>
        <time>2020-07-19T10:53:24.453Z</time>
      </trkpt>
      <trkpt lat="41.659395" lon="-4.74086167">
        <ele>709.0</ele>
        <time>2020-07-19T10:53:25.453Z</time>
      </trkpt>
      <trkpt lat="41.65933833" lon="-4.74086333">
        <ele>709.0</ele>
        <time>2020-07-19T10:53:26.453Z</time>
      </trkpt>
      <trkpt lat="41.65928" lon="-4.74086667">
        <ele>709.0</ele>
        <time>2020-07-19T10:53:27.453Z</time>
      </trkpt>
      <trkpt lat="41.65922167" lon="-4.74086667">
        <ele>708.0</ele>
        <time>2020-07-19T10:53:28.453Z</time>
      </trkpt>
      <trkpt lat="41.65916667" lon="-4.74086333">
        <ele>708.0</ele>
        <time>2020-07-19T10:53:29.453Z</time>
      </trkpt>
      <trkpt lat="41.65910833" lon="-4.740865">
        <ele>707.0</ele>
        <time>2020-07-19T10:53:30.453Z</time>
      </trkpt>
      <trkpt lat="41.65905" lon="-4.740865">
        <ele>707.0</ele>
        <time>2020-07-19T10:53:31.453Z</time>
      </trkpt>
      <trkpt lat="41.65899167" lon="-4.740865">
        <ele>707.0</ele>
        <time>2020-07-19T10:53:32.453Z</time>
      </trkpt>
      <trkpt lat="41.65893333" lon="-4.74086333">
        <ele>707.0</ele>
        <time>2020-07-19T10:53:33.453Z</time>
      </trkpt>
      <trkpt lat="41.65887333" lon="-4.74086333">
        <ele>706.0</ele>
        <time>2020-07-19T10:53:34.453Z</time>
      </trkpt>
      <trkpt lat="41.658815" lon="-4.74086">
        <ele>706.0</ele>
        <time>2020-07-19T10:53:35.453Z</time>
      </trkpt>
      <trkpt lat="41.658755" lon="-4.74085667">
        <ele>706.0</ele>
        <time>2020-07-19T10:53:36.453Z</time>
      </trkpt>
      <trkpt lat="41.65869667" lon="-4.74085667">
        <ele>706.0</ele>
        <time>2020-07-19T10:53:37.453Z</time>
      </trkpt>
      <trkpt lat="41.65863833" lon="-4.74086167">
        <ele>706.0</ele>
        <time>2020-07-19T10:53:38.453Z</time>
      </trkpt>
      <trkpt lat="41.65857833" lon="-4.74086167">
        <ele>706.0</ele>
        <time>2020-07-19T10:53:39.453Z</time>
      </trkpt>
      <trkpt lat="41.65852" lon="-4.74086167">
        <ele>706.0</ele>
        <time>2020-07-19T10:53:40.453Z</time>
      </trkpt>
      <trkpt lat="41.65846" lon="-4.740865">
        <ele>706.0</ele>
        <time>2020-07-19T10:53:41.453Z</time>
      </trkpt>
      <trkpt lat="41.65840167" lon="-4.740865">
        <ele>707.0</ele>
        <time>2020-07-19T10:53:42.453Z</time>
      </trkpt>
      <trkpt lat="41.65834167" lon="-4.74086667">
        <ele>707.0</ele>
        <time>2020-07-19T10:53:43.453Z</time>
      </trkpt>
      <trkpt lat="41.65828167" lon="-4.74086833">
        <ele>707.0</ele>
        <time>2020-07-19T10:53:44.453Z</time>
      </trkpt>
      <trkpt lat="41.658225" lon="-4.74087">
        <ele>707.0</ele>
        <time>2020-07-19T10:53:45.453Z</time>
      </trkpt>
      <trkpt lat="41.658165" lon="-4.74087">
        <ele>707.0</ele>
        <time>2020-07-19T10:53:46.453Z</time>
      </trkpt>
      <trkpt lat="41.658105" lon="-4.74087167">
        <ele>707.0</ele>
        <time>2020-07-19T10:53:47.453Z</time>
      </trkpt>
      <trkpt lat="41.65804667" lon="-4.74087333">
        <ele>707.0</ele>
        <time>2020-07-19T10:53:48.453Z</time>
      </trkpt>
      <trkpt lat="41.65799" lon="-4.74087167">
        <ele>707.0</ele>
        <time>2020-07-19T10:53:49.453Z</time>
      </trkpt>
      <trkpt lat="41.65793167" lon="-4.74086833">
        <ele>707.0</ele>
        <time>2020-07-19T10:53:50.453Z</time>
      </trkpt>
      <trkpt lat="41.65787333" lon="-4.740865">
        <ele>707.0</ele>
        <time>2020-07-19T10:53:51.453Z</time>
      </trkpt>
      <trkpt lat="41.65781833" lon="-4.74086">
        <ele>707.0</ele>
        <time>2020-07-19T10:53:52.453Z</time>
      </trkpt>
      <trkpt lat="41.65776167" lon="-4.74086">
        <ele>707.0</ele>
        <time>2020-07-19T10:53:53.453Z</time>
      </trkpt>
      <trkpt lat="41.65770667" lon="-4.74085833">
        <ele>707.0</ele>
        <time>2020-07-19T10:53:54.453Z</time>
      </trkpt>
      <trkpt lat="41.65765333" lon="-4.740855">
        <ele>707.0</ele>
        <time>2020-07-19T10:53:55.453Z</time>
      </trkpt>
      <trkpt lat="41.6576" lon="-4.74085667">
        <ele>706.0</ele>
        <time>2020-07-19T10:53:56.453Z</time>
      </trkpt>
      <trkpt lat="41.65754833" lon="-4.74086833">
        <ele>706.0</ele>
        <time>2020-07-19T10:53:57.453Z</time>
      </trkpt>
      <trkpt lat="41.65749833" lon="-4.74088833">
        <ele>706.0</ele>
        <time>2020-07-19T10:53:58.453Z</time>
      </trkpt>
      <trkpt lat="41.65744667" lon="-4.74091">
        <ele>706.0</ele>
        <time>2020-07-19T10:53:59.453Z</time>
      </trkpt>
      <trkpt lat="41.65739833" lon="-4.74092333">
        <ele>706.0</ele>
        <time>2020-07-19T10:54:00.453Z</time>
      </trkpt>
      <trkpt lat="41.65735667" lon="-4.740915">
        <ele>706.0</ele>
        <time>2020-07-19T10:54:01.453Z</time>
      </trkpt>
      <trkpt lat="41.657325" lon="-4.74088">
        <ele>706.0</ele>
        <time>2020-07-19T10:54:02.453Z</time>
      </trkpt>
      <trkpt lat="41.657305" lon="-4.74083">
        <ele>705.0</ele>
        <time>2020-07-19T10:54:03.453Z</time>
      </trkpt>
      <trkpt lat="41.65729" lon="-4.74077167">
        <ele>705.0</ele>
        <time>2020-07-19T10:54:04.453Z</time>
      </trkpt>
      <trkpt lat="41.657275" lon="-4.74071333">
        <ele>705.0</ele>
        <time>2020-07-19T10:54:05.453Z</time>
      </trkpt>
      <trkpt lat="41.65725667" lon="-4.740655">
        <ele>704.0</ele>
        <time>2020-07-19T10:54:06.453Z</time>
      </trkpt>
      <trkpt lat="41.65724167" lon="-4.740595">
        <ele>704.0</ele>
        <time>2020-07-19T10:54:07.453Z</time>
      </trkpt>
      <trkpt lat="41.65722833" lon="-4.74053333">
        <ele>704.0</ele>
        <time>2020-07-19T10:54:08.453Z</time>
      </trkpt>
      <trkpt lat="41.65721333" lon="-4.74047167">
        <ele>704.0</ele>
        <time>2020-07-19T10:54:09.453Z</time>
      </trkpt>
      <trkpt lat="41.65719833" lon="-4.74041167">
        <ele>704.0</ele>
        <time>2020-07-19T10:54:10.453Z</time>
      </trkpt>
      <trkpt lat="41.65719333" lon="-4.74034833">
        <ele>704.0</ele>
        <time>2020-07-19T10:54:11.453Z</time>
      </trkpt>
      <trkpt lat="41.65719" lon="-4.740285">
        <ele>704.0</ele>
        <time>2020-07-19T10:54:12.453Z</time>
      </trkpt>
      <trkpt lat="41.65718667" lon="-4.740225">
        <ele>705.0</ele>
        <time>2020-07-19T10:54:13.453Z</time>
      </trkpt>
      <trkpt lat="41.65718333" lon="-4.74016333">
        <ele>705.0</ele>
        <time>2020-07-19T10:54:14.453Z</time>
      </trkpt>
      <trkpt lat="41.65717167" lon="-4.74010833">
        <ele>706.0</ele>
        <time>2020-07-19T10:54:15.453Z</time>
      </trkpt>
      <trkpt lat="41.65716" lon="-4.74005167">
        <ele>706.0</ele>
        <time>2020-07-19T10:54:16.453Z</time>
      </trkpt>
      <trkpt lat="41.65714333" lon="-4.73999167">
        <ele>706.0</ele>
        <time>2020-07-19T10:54:17.453Z</time>
      </trkpt>
      <trkpt lat="41.65712833" lon="-4.73993333">
        <ele>706.0</ele>
        <time>2020-07-19T10:54:18.453Z</time>
      </trkpt>
      <trkpt lat="41.65712" lon="-4.739875">
        <ele>707.0</ele>
        <time>2020-07-19T10:54:19.453Z</time>
      </trkpt>
      <trkpt lat="41.657105" lon="-4.73981833">
        <ele>707.0</ele>
        <time>2020-07-19T10:54:20.453Z</time>
      </trkpt>
      <trkpt lat="41.65709667" lon="-4.73976167">
        <ele>707.0</ele>
        <time>2020-07-19T10:54:21.453Z</time>
      </trkpt>
      <trkpt lat="41.65708833" lon="-4.739705">
        <ele>707.0</ele>
        <time>2020-07-19T10:54:22.453Z</time>
      </trkpt>
      <trkpt lat="41.65707667" lon="-4.73965167">
        <ele>707.0</ele>
        <time>2020-07-19T10:54:23.453Z</time>
      </trkpt>
      <trkpt lat="41.65706167" lon="-4.739595">
        <ele>707.0</ele>
        <time>2020-07-19T10:54:24.453Z</time>
      </trkpt>
      <trkpt lat="41.65704667" lon="-4.739535">
        <ele>707.0</ele>
        <time>2020-07-19T10:54:25.453Z</time>
      </trkpt>
      <trkpt lat="41.657025" lon="-4.739475">
        <ele>707.0</ele>
        <time>2020-07-19T10:54:26.453Z</time>
      </trkpt>
      <trkpt lat="41.65701167" lon="-4.73941333">
        <ele>707.0</ele>
        <time>2020-07-19T10:54:27.453Z</time>
      </trkpt>
      <trkpt lat="41.65700667" lon="-4.73935167">
        <ele>707.0</ele>
        <time>2020-07-19T10:54:28.453Z</time>
      </trkpt>
      <trkpt lat="41.65700333" lon="-4.739295">
        <ele>707.0</ele>
        <time>2020-07-19T10:54:29.453Z</time>
      </trkpt>
      <trkpt lat="41.65699833" lon="-4.739245">
        <ele>708.0</ele>
        <time>2020-07-19T10:54:30.453Z</time>
      </trkpt>
      <trkpt lat="41.65699" lon="-4.73920167">
        <ele>708.0</ele>
        <time>2020-07-19T10:54:31.453Z</time>
      </trkpt>
      <trkpt lat="41.65698167" lon="-4.739175">
        <ele>708.0</ele>
        <time>2020-07-19T10:54:32.453Z</time>
      </trkpt>
      <trkpt lat="41.656985" lon="-4.73916167">
        <ele>708.0</ele>
        <time>2020-07-19T10:54:33.453Z</time>
      </trkpt>
      <trkpt lat="41.65699" lon="-4.73916667">
        <ele>708.0</ele>
        <time>2020-07-19T10:54:34.453Z</time>
      </trkpt>
      <trkpt lat="41.65699" lon="-4.739175">
        <ele>708.0</ele>
        <time>2020-07-19T10:54:35.453Z</time>
      </trkpt>
      <trkpt lat="41.65700167" lon="-4.73918833">
        <ele>708.0</ele>
        <time>2020-07-19T10:54:36.453Z</time>
      </trkpt>
      <trkpt lat="41.65702" lon="-4.73919167">
        <ele>708.0</ele>
        <time>2020-07-19T10:54:37.453Z</time>
      </trkpt>
      <trkpt lat="41.65704" lon="-4.73919333">
        <ele>708.0</ele>
        <time>2020-07-19T10:54:38.453Z</time>
      </trkpt>
      <trkpt lat="41.65706" lon="-4.73918833">
        <ele>708.0</ele>
        <time>2020-07-19T10:54:39.453Z</time>
      </trkpt>
      <trkpt lat="41.65707" lon="-4.73918167">
        <ele>708.0</ele>
        <time>2020-07-19T10:54:40.453Z</time>
      </trkpt>
      <trkpt lat="41.657075" lon="-4.73917667">
        <ele>708.0</ele>
        <time>2020-07-19T10:54:41.453Z</time>
      </trkpt>
      <trkpt lat="41.65707167" lon="-4.73917167">
        <ele>708.0</ele>
        <time>2020-07-19T10:54:42.453Z</time>
      </trkpt>
      <trkpt lat="41.657065" lon="-4.73917167">
        <ele>708.0</ele>
        <time>2020-07-19T10:54:43.453Z</time>
      </trkpt>
      <trkpt lat="41.65706" lon="-4.73916833">
        <ele>708.0</ele>
        <time>2020-07-19T10:54:44.453Z</time>
      </trkpt>
      <trkpt lat="41.65706" lon="-4.73917167">
        <ele>708.0</ele>
        <time>2020-07-19T10:54:45.453Z</time>
      </trkpt>
      <trkpt lat="41.65705667" lon="-4.73917167">
        <ele>708.0</ele>
        <time>2020-07-19T10:54:46.453Z</time>
      </trkpt>
      <trkpt lat="41.657055" lon="-4.73917833">
        <ele>708.0</ele>
        <time>2020-07-19T10:54:47.453Z</time>
      </trkpt>
      <trkpt lat="41.65705167" lon="-4.73918167">
        <ele>708.0</ele>
        <time>2020-07-19T10:54:48.453Z</time>
      </trkpt>
      <trkpt lat="41.657045" lon="-4.73917833">
        <ele>708.0</ele>
        <time>2020-07-19T10:54:49.453Z</time>
      </trkpt>
      <trkpt lat="41.65703667" lon="-4.73917">
        <ele>708.0</ele>
        <time>2020-07-19T10:54:50.453Z</time>
      </trkpt>
      <trkpt lat="41.65703" lon="-4.73916667">
        <ele>708.0</ele>
        <time>2020-07-19T10:54:51.453Z</time>
      </trkpt>
      <trkpt lat="41.65702833" lon="-4.73916833">
        <ele>708.0</ele>
        <time>2020-07-19T10:54:52.453Z</time>
      </trkpt>
      <trkpt lat="41.657025" lon="-4.73917">
        <ele>708.0</ele>
        <time>2020-07-19T10:54:53.453Z</time>
      </trkpt>
    </trkseg>
  </trk>
</gpx>
